
Distance (Route):
Temperature : 20.1°C
Humidity : 84.6%
Pressure : 1001.1hPa| Receiver | Frames | First received | Last received |
|---|---|---|---|
| DM0DOS-11 | 863 | 2026-09-03 23:38:49 | 2026-09-04 02:28:11 |
| BIOWL1-15 | 850 | 2026-09-03 23:40:44 | 2026-09-04 02:28:07 |
| DL1XH-west | 735 | 2026-09-03 23:59:06 | 2026-09-04 02:20:38 |
| DO2JMG | 698 | 2026-09-04 00:17:30 | 2026-09-04 02:27:29 |
| AA1-15 | 447 | 2026-09-04 00:28:21 | 2026-09-04 02:13:19 |
| DL1XH-15 | 395 | 2026-09-04 00:18:15 | 2026-09-04 02:15:45 |
| HSKMA3-T | 306 | 2026-09-04 00:50:00 | 2026-09-04 02:19:47 |
| DF8AY | 234 | 2026-09-04 00:56:14 | 2026-09-04 02:04:01 |
| GOEST3-10 | 192 | 2026-09-03 23:56:52 | 2026-09-04 02:15:45 |
| DO9LL-15 | 122 | 2026-09-03 23:38:17 | 2026-09-04 02:26:36 |
| DB0UT-7 | 85 | 2026-09-03 23:47:44 | 2026-09-04 02:25:16 |
| DH3RM | 79 | 2026-09-04 00:12:18 | 2026-09-04 02:08:24 |
| DL3AQ-11 | 74 | 2026-09-04 00:20:54 | 2026-09-04 02:23:09 |
| BIOWL9-15 | 68 | 2026-09-03 23:41:44 | 2026-09-04 02:27:20 |
| DF5WG-10 | 64 | 2026-09-04 00:43:19 | 2026-09-04 02:13:00 |
| WEDDY | 52 | 2026-09-03 23:37:09 | 2026-09-04 02:05:14 |
| AU51GT2 | 51 | 2026-09-03 23:40:27 | 2026-09-04 02:21:51 |
| DO1YAY-16 | 50 | 2026-09-03 23:55:37 | 2026-09-04 02:15:55 |
| HTAHTA | 43 | 2026-09-03 23:50:49 | 2026-09-04 02:21:57 |
| DL4BBY-15 | 42 | 2026-09-03 23:59:23 | 2026-09-04 02:24:50 |
| DK5PH-5 | 42 | 2026-09-04 00:28:59 | 2026-09-04 02:10:45 |
| KNMI2-11 | 37 | 2026-09-03 23:27:26 | 2026-09-04 00:07:55 |
| MET0W-2 | 37 | 2026-09-03 23:48:20 | 2026-09-04 02:04:59 |
| BUE01 | 36 | 2026-09-04 00:17:39 | 2026-09-04 02:23:57 |
| DL8DAS-14 | 33 | 2026-09-04 00:21:55 | 2026-09-04 02:25:00 |
| DD1CC8 | 33 | 2026-09-04 00:25:54 | 2026-09-04 02:24:25 |
| DO3DL | 33 | 2026-09-04 01:33:06 | 2026-09-04 02:26:31 |
| DJ2KF-10 | 31 | 2026-09-04 00:24:00 | 2026-09-04 02:19:16 |
| DB0ND-19 | 28 | 2026-09-03 23:57:22 | 2026-09-04 02:23:45 |
| DD1CC1-15 | 28 | 2026-09-04 00:22:08 | 2026-09-04 02:25:43 |
| DJ2DS-15 | 26 | 2026-09-03 23:49:40 | 2026-09-04 02:20:31 |
| DO3MHA-11 | 26 | 2026-09-04 00:53:28 | 2026-09-04 02:00:36 |
| DL1ZP-14 | 25 | 2026-09-04 00:19:24 | 2026-09-04 02:13:49 |
| BIOWL7-15 | 24 | 2026-09-03 23:43:39 | 2026-09-04 02:22:04 |
| SONCRA | 23 | 2026-09-04 00:33:14 | 2026-09-04 02:16:17 |
| DC6BW-12 | 22 | 2026-09-04 00:48:15 | 2026-09-04 02:24:27 |
| DB0NH | 20 | 2026-09-04 00:20:00 | 2026-09-04 02:10:53 |
| EDDB2-11 | 20 | 2026-09-04 00:48:25 | 2026-09-04 02:02:24 |
| WPPR-10 | 13 | 2026-09-04 00:02:06 | 2026-09-04 01:06:33 |
| SONDE2-11 | 13 | 2026-09-04 00:50:32 | 2026-09-04 02:00:56 |
| DL1LOL-11 | 12 | 2026-09-03 23:50:33 | 2026-09-04 02:06:44 |
| DD1CC3-15 | 11 | 2026-09-04 01:50:10 | 2026-09-04 02:26:07 |
| DL1CLM-18 | 10 | 2026-09-04 00:26:40 | 2026-09-04 02:18:56 |
| DJ3KS | 9 | 2026-09-04 00:15:14 | 2026-09-04 02:12:59 |
| EDDB2-12 | 9 | 2026-09-04 00:53:24 | 2026-09-04 02:05:19 |
| DO8TBO-1 | 8 | 2026-09-04 01:19:33 | 2026-09-04 01:55:23 |
| DO2KSM | 8 | 2026-09-04 01:45:16 | 2026-09-04 02:22:58 |
| DL8DAS-15 | 7 | 2026-09-04 00:33:39 | 2026-09-04 01:55:10 |
| SMARD9-15 | 6 | 2026-09-04 01:10:55 | 2026-09-04 01:56:59 |
| SMARD9-10 | 5 | 2026-09-04 00:41:14 | 2026-09-04 01:46:56 |
| DO3MHA-12 | 5 | 2026-09-04 00:59:45 | 2026-09-04 01:18:13 |
| DO2LYB-13 | 4 | 2026-09-04 00:43:34 | 2026-09-04 01:09:17 |
| DL8OAI-8 | 4 | 2026-09-04 01:36:06 | 2026-09-04 01:46:03 |
| NBG1-10 | 3 | 2026-09-04 01:28:19 | 2026-09-04 01:49:41 |
| SP3BTT-10 | 3 | 2026-09-04 01:41:26 | 2026-09-04 01:45:15 |
| DF2AP-13 | 3 | 2026-09-04 02:01:13 | 2026-09-04 02:10:37 |
| DJTTGO | 1 | 2026-09-04 01:51:46 | 2026-09-04 01:51:46 |
| D01LWL | 1 | 2026-09-04 02:03:44 | 2026-09-04 02:03:44 |
| DL4XJ-10 | 1 | 2026-09-04 02:09:44 | 2026-09-04 02:09:44 |
| Receiver | Date | Latitude | Longitude | Direction | Speed | Altitude | Climb | Temperature | Humidity | Pressure | Voltage | Killtimer | Uptime | BKT | XDATA |
|---|---|---|---|---|---|---|---|---|---|---|---|---|---|---|---|
| DM0DOS-11 | 2026-09-04 02:28:11 | 51.75430 | 7.86281 | 68° | 22km/h | 144m | -9.4m/s | 20.1°C | 84.6% | 1001.1hPa | 2.7V | 07:49:25 | 03:07:29 | 00:00:00 | |
| BIOWL1-15 | 2026-09-04 02:28:07 | 51.75429 | 7.86281 | 69° | 22km/h | 144m | -9.4m/s | 20.1°C | 90% | 1001.1hPa | 2.7V | 07:49:54 | 03:07:29 | 00:00:00 | |
| BIOWL1-15 | 2026-09-04 02:28:07 | 51.75427 | 7.86272 | 66° | 24km/h | 154m | -10.9m/s | 20°C | 90.6% | 1000hPa | 2.7V | 07:49:54 | 03:07:28 | 00:00:00 | |
| DM0DOS-11 | 2026-09-04 02:28:05 | 51.75425 | 7.86263 | 60° | 24km/h | 163m | -9.8m/s | 19.9°C | 85.7% | 998.7hPa | 2.7V | 07:49:27 | 03:07:27 | 00:00:00 | |
| DM0DOS-11 | 2026-09-04 02:28:05 | 51.75418 | 7.86244 | 67° | 27km/h | 183m | -11.7m/s | 19.8°C | 86% | 996.4hPa | 2.7V | 07:49:29 | 03:07:25 | 00:00:00 | |
| DM0DOS-11 | 2026-09-04 02:28:05 | 51.75413 | 7.86225 | 74° | 24km/h | 206m | -11.4m/s | 19.5°C | 87.1% | 994.1hPa | 2.7V | 07:49:31 | 03:07:23 | 00:00:00 | |
| BIOWL1-15 | 2026-09-04 02:28:03 | 51.75418 | 7.86244 | 67° | 27km/h | 183m | -11.7m/s | 19.8°C | 93.1% | 996.4hPa | 2.7V | 07:49:54 | 03:07:25 | 00:00:00 | |
| BIOWL1-15 | 2026-09-04 02:28:03 | 51.75415 | 7.86234 | 63° | 24km/h | 195m | -11.6m/s | 19.6°C | 93.6% | 995.2hPa | 2.7V | 07:49:54 | 03:07:24 | 00:00:00 | |
| DM0DOS-11 | 2026-09-04 02:27:59 | 51.75401 | 7.86179 | 64° | 33km/h | 247m | -10.3m/s | 19.2°C | 88.2% | 989hPa | 2.7V | 07:49:35 | 03:07:19 | 00:00:00 | |
| BIOWL1-15 | 2026-09-04 02:27:59 | 51.75411 | 7.86214 | 68° | 31km/h | 216m | -11.1m/s | 19.4°C | 93.4% | 992.9hPa | 2.7V | 07:49:54 | 03:07:22 | 00:00:00 | |
| BIOWL1-15 | 2026-09-04 02:27:58 | 51.75408 | 7.86203 | 66° | 31km/h | 227m | -10.9m/s | 19.4°C | 92.9% | 991.7hPa | 2.6V | 07:49:54 | 03:07:21 | 00:00:00 | |
| BIOWL1-15 | 2026-09-04 02:27:56 | 51.75401 | 7.86179 | 65° | 33km/h | 247m | -10.3m/s | 19.2°C | 93% | 989hPa | 2.7V | 07:49:54 | 03:07:19 | 00:00:00 | |
| BIOWL1-15 | 2026-09-04 02:27:54 | 51.75393 | 7.86152 | 61° | 38km/h | 268m | -11m/s | 19°C | 94% | 986.5hPa | 2.7V | 07:49:54 | 03:07:17 | 00:00:00 | |
| DM0DOS-11 | 2026-09-04 02:27:53 | 51.75384 | 7.86124 | 67° | 37km/h | 290m | -10.8m/s | 18.9°C | 89.8% | 984.1hPa | 2.7V | 07:49:39 | 03:07:15 | 00:00:00 | |
| BIOWL1-15 | 2026-09-04 02:27:52 | 51.75384 | 7.86124 | 67° | 37km/h | 290m | -10.9m/s | 18.9°C | 94.6% | 984.1hPa | 2.7V | 07:49:54 | 03:07:15 | 00:00:00 | |
| BIOWL1-15 | 2026-09-04 02:27:51 | 51.75380 | 7.86110 | 61° | 37km/h | 300m | -10.6m/s | 18.8°C | 95.1% | 983hPa | 2.6V | 07:49:54 | 03:07:14 | 00:00:00 | |
| BIOWL1-15 | 2026-09-04 02:27:49 | 51.75347 | 7.85981 | 68° | 47km/h | 388m | -11m/s | 18.2°C | 96.7% | 973hPa | 2.7V | 07:49:54 | 03:07:06 | 00:00:00 | |
| BIOWL1-15 | 2026-09-04 02:27:49 | 51.75342 | 7.85963 | 70° | 49km/h | 399m | -10.8m/s | 18.1°C | 96.3% | 971.9hPa | 2.6V | 07:49:54 | 03:07:05 | 00:00:00 | |
| BIOWL1-15 | 2026-09-04 02:27:47 | 51.75338 | 7.85944 | 72° | 49km/h | 409m | -11.2m/s | 18°C | 96.9% | 970.6hPa | 2.6V | 07:49:54 | 03:07:04 | 00:00:00 | |
| BIOWL1-15 | 2026-09-04 02:27:39 | 51.75324 | 7.85883 | 71° | 55km/h | 441m | -11m/s | 17.8°C | 98% | 966.8hPa | 2.7V | 07:49:54 | 03:07:01 | 00:00:00 | |
| BIOWL1-15 | 2026-09-04 02:27:39 | 51.75319 | 7.85861 | 71° | 55km/h | 452m | -11m/s | 17.7°C | 98.6% | 965.9hPa | 2.7V | 07:49:54 | 03:07:00 | 00:00:00 | |
| BIOWL1-15 | 2026-09-04 02:27:35 | 51.75304 | 7.85799 | 68° | 58km/h | 485m | -11.6m/s | 17.6°C | 98.1% | 962.2hPa | 2.7V | 07:50:45 | 03:06:57 | 00:00:00 | |
| BIOWL1-15 | 2026-09-04 02:27:35 | 51.75299 | 7.85777 | 73° | 57km/h | 495m | -11.5m/s | 17.5°C | 97.9% | 961.1hPa | 2.7V | 07:50:45 | 03:06:56 | 00:00:00 | |
| BIOWL1-15 | 2026-09-04 02:27:32 | 51.75294 | 7.85755 | 68° | 57km/h | 507m | -11.9m/s | 17.4°C | 98.7% | 959.9hPa | 2.6V | 07:50:45 | 03:06:55 | 00:00:00 | |
| DM0DOS-11 | 2026-09-04 02:27:31 | 51.75266 | 7.85617 | 72° | 62km/h | 571m | -11.6m/s | 16.8°C | 94.7% | 952.5hPa | 2.7V | 07:50:05 | 03:06:49 | 00:00:00 | |
| BIOWL1-15 | 2026-09-04 02:27:30 | 51.75284 | 7.85709 | 74° | 60km/h | 529m | -11.4m/s | 17.2°C | 98.9% | 957.3hPa | 2.7V | 07:50:45 | 03:06:53 | 00:00:00 | |
| DO2JMG | 2026-09-04 02:27:29 | 51.75280 | 7.85685 | 73° | 58km/h | 540m | -10.9m/s | 17.1°C | 99.2% | 956hPa | 2.7V | 07:50:45 | 03:06:52 | 00:00:00 | |
| BIOWL1-15 | 2026-09-04 02:27:28 | 51.75275 | 7.85663 | 70° | 57km/h | 550m | -10.6m/s | 17°C | 99% | 954.7hPa | 2.7V | 07:50:45 | 03:06:51 | 00:00:00 | |
| DO2JMG | 2026-09-04 02:27:27 | 51.75270 | 7.85641 | 70° | 60km/h | 561m | -10.8m/s | 16.9°C | 99.4% | 953.5hPa | 2.7V | 07:50:45 | 03:06:50 | 00:00:00 | |
| BIOWL1-15 | 2026-09-04 02:27:26 | 51.75265 | 7.85617 | 73° | 62km/h | 571m | -11.6m/s | 16.8°C | 100% | 952.5hPa | 2.7V | 07:50:45 | 03:06:49 | 00:00:00 | |
| DM0DOS-11 | 2026-09-04 02:27:25 | 51.75237 | 7.85476 | 69° | 62km/h | 635m | -10.8m/s | 16.4°C | 95.4% | 945.3hPa | 2.6V | 07:50:11 | 03:06:43 | 00:00:00 | |
| DO2JMG | 2026-09-04 02:27:25 | 51.75261 | 7.85594 | 72° | 58km/h | 582m | -11.3m/s | 16.7°C | 100% | 951.2hPa | 2.6V | 07:50:45 | 03:06:48 | 00:00:00 | |
| BIOWL1-15 | 2026-09-04 02:27:24 | 51.75256 | 7.85571 | 69° | 58km/h | 593m | -10.5m/s | 16.7°C | 100% | 950.1hPa | 2.7V | 07:50:45 | 03:06:47 | 00:00:00 | |
| BIOWL1-15 | 2026-09-04 02:27:23 | 51.75250 | 7.85548 | 70° | 62km/h | 603m | -10.6m/s | 16.7°C | 98.8% | 948.8hPa | 2.7V | 07:50:45 | 03:06:46 | 00:00:00 | |
| DO2JMG | 2026-09-04 02:27:22 | 51.75246 | 7.85524 | 74° | 64km/h | 614m | -11m/s | 16.6°C | 100% | 947.8hPa | 2.7V | 07:50:45 | 03:06:45 | 00:00:00 | |
| BIOWL1-15 | 2026-09-04 02:27:21 | 51.75226 | 7.85427 | 71° | 66km/h | 656m | -10.9m/s | 16.3°C | 100% | 943.1hPa | 2.7V | 07:50:45 | 03:06:41 | 00:00:00 | |
| DO2JMG | 2026-09-04 02:27:21 | 51.75241 | 7.85500 | 74° | 62km/h | 624m | -11m/s | 16.5°C | 99.8% | 946.4hPa | 2.7V | 07:50:45 | 03:06:44 | 00:00:00 | |
| BIOWL9-15 | 2026-09-04 02:27:20 | 51.75237 | 7.85476 | 69° | 60km/h | 635m | -10.8m/s | 16.4°C | 94.7% | 945.3hPa | 2.7V | 00:00:00 | 00:00:00 | 00:00:00 | |
| DM0DOS-11 | 2026-09-04 02:27:19 | 51.75217 | 7.85375 | 75° | 66km/h | 677m | -11.4m/s | 16.1°C | 94.6% | 940.6hPa | 2.7V | 07:50:15 | 03:06:39 | 00:00:00 | |
| DO2JMG | 2026-09-04 02:27:19 | 51.75231 | 7.85452 | 70° | 64km/h | 646m | -10.4m/s | 16.3°C | 100% | 944.1hPa | 2.7V | 07:50:45 | 03:06:42 | 00:00:00 | |
| DO2JMG | 2026-09-04 02:27:17 | 51.75221 | 7.85402 | 73° | 68km/h | 666m | -11.2m/s | 16.2°C | 100% | 941.8hPa | 2.7V | 07:50:45 | 03:06:40 | 00:00:00 | |
| DO2JMG | 2026-09-04 02:27:16 | 51.75216 | 7.85375 | 76° | 66km/h | 677m | -11.4m/s | 16.1°C | 99.9% | 940.6hPa | 2.7V | 07:50:45 | 03:06:39 | 00:00:00 | |
| BIOWL1-15 | 2026-09-04 02:27:15 | 51.75212 | 7.85350 | 73° | 64km/h | 688m | -11.3m/s | 16.1°C | 98.7% | 939.4hPa | 2.7V | 07:50:45 | 03:06:38 | 00:00:00 | |
| DO2JMG | 2026-09-04 02:27:14 | 51.75207 | 7.85325 | 71° | 64km/h | 699m | -11.3m/s | 16.1°C | 98.4% | 938.2hPa | 2.7V | 07:50:45 | 03:06:37 | 00:00:00 | |
| BIOWL1-15 | 2026-09-04 02:27:13 | 51.75202 | 7.85300 | 73° | 68km/h | 710m | -11.1m/s | 16°C | 98.9% | 937hPa | 2.7V | 07:50:45 | 03:06:36 | 00:00:00 | |
| DO2JMG | 2026-09-04 02:27:12 | 51.75197 | 7.85274 | 75° | 68km/h | 721m | -11m/s | 15.9°C | 99% | 935.9hPa | 2.6V | 07:50:45 | 03:06:35 | 00:00:00 | |
| BIOWL1-15 | 2026-09-04 02:27:11 | 51.75179 | 7.85171 | 73° | 68km/h | 763m | -11.1m/s | 15.7°C | 98.1% | 931.1hPa | 2.7V | 07:50:45 | 03:06:31 | 00:00:00 | |
| DO2JMG | 2026-09-04 02:27:11 | 51.75193 | 7.85247 | 76° | 66km/h | 731m | -11.6m/s | 15.8°C | 98.9% | 934.7hPa | 2.6V | 07:50:45 | 03:06:34 | 00:00:00 | |
| BIOWL1-15 | 2026-09-04 02:27:09 | 51.75174 | 7.85145 | 76° | 66km/h | 774m | -11.7m/s | 15.6°C | 98.4% | 930.1hPa | 2.7V | 07:50:45 | 03:06:30 | 00:00:00 | |
| DO2JMG | 2026-09-04 02:27:09 | 51.75184 | 7.85196 | 71° | 66km/h | 753m | -10.7m/s | 15.7°C | 98.1% | 932.3hPa | 2.7V | 07:50:45 | 03:06:32 | 00:00:00 | |
| BIOWL1-15 | 2026-09-04 02:27:06 | 51.75170 | 7.85119 | 76° | 64km/h | 785m | -11.3m/s | 15.5°C | 98.7% | 928.8hPa | 2.7V | 07:50:45 | 03:06:29 | 00:00:00 | |
| BIOWL1-15 | 2026-09-04 02:27:05 | 51.75166 | 7.85094 | 71° | 64km/h | 796m | -11.2m/s | 15.4°C | 99% | 927.4hPa | 2.7V | 07:50:45 | 03:06:28 | 00:00:00 | |
| BIOWL1-15 | 2026-09-04 02:27:03 | 51.75152 | 7.85018 | 77° | 66km/h | 828m | -11.4m/s | 15.1°C | 100% | 924.1hPa | 2.6V | 07:50:45 | 03:06:25 | 00:00:00 | |
| DO2JMG | 2026-09-04 02:27:03 | 51.75156 | 7.85044 | 75° | 66km/h | 817m | -11.2m/s | 15.2°C | 100% | 925.2hPa | 2.7V | 07:50:45 | 03:06:26 | 00:00:00 | |
| BIOWL1-15 | 2026-09-04 02:27:03 | 51.75148 | 7.84992 | 75° | 64km/h | 839m | -11.1m/s | 15.1°C | 100% | 922.8hPa | 2.6V | 07:50:45 | 03:06:24 | 00:00:00 | |
| BIOWL1-15 | 2026-09-04 02:26:59 | 51.75139 | 7.84941 | 75° | 68km/h | 861m | -11m/s | 14.9°C | 98.5% | 920.6hPa | 2.6V | 07:50:45 | 03:06:22 | 00:00:00 | |
| BIOWL1-15 | 2026-09-04 02:26:58 | 51.75135 | 7.84914 | 79° | 68km/h | 872m | -11.3m/s | 14.8°C | 99.1% | 919.4hPa | 2.7V | 07:50:45 | 03:06:21 | 00:00:00 | |
| DO2JMG | 2026-09-04 02:26:57 | 51.75132 | 7.84888 | 79° | 66km/h | 882m | -11.2m/s | 14.7°C | 99.1% | 918.2hPa | 2.6V | 07:50:45 | 03:06:20 | 00:00:00 | |
| BIOWL1-15 | 2026-09-04 02:26:56 | 51.75129 | 7.84862 | 76° | 64km/h | 893m | -11.1m/s | 14.6°C | 98.4% | 916.9hPa | 2.6V | 07:50:45 | 03:06:19 | 00:00:00 | |
| DO2JMG | 2026-09-04 02:26:55 | 51.75125 | 7.84836 | 76° | 66km/h | 904m | -11.2m/s | 14.6°C | 97.9% | 915.9hPa | 2.6V | 07:50:45 | 03:06:18 | 00:00:00 | |
| BIOWL1-15 | 2026-09-04 02:26:54 | 51.75121 | 7.84810 | 78° | 68km/h | 915m | -11.2m/s | 14.5°C | 98% | 914.7hPa | 2.6V | 07:50:45 | 03:06:17 | 00:00:00 | |
| DO2JMG | 2026-09-04 02:26:53 | 51.75118 | 7.84783 | 80° | 68km/h | 926m | -11.3m/s | 14.4°C | 98.3% | 913.6hPa | 2.6V | 07:50:45 | 03:06:16 | 00:00:00 | |
| BIOWL1-15 | 2026-09-04 02:26:52 | 51.75115 | 7.84756 | 79° | 64km/h | 937m | -11m/s | 14.3°C | 98.1% | 912.4hPa | 2.6V | 07:50:45 | 03:06:15 | 00:00:00 | |
| DO2JMG | 2026-09-04 02:26:51 | 51.75111 | 7.84731 | 76° | 64km/h | 948m | -10.8m/s | 14.2°C | 98.4% | 911.2hPa | 2.6V | 07:50:45 | 03:06:14 | 00:00:00 | |
| BIOWL1-15 | 2026-09-04 02:26:50 | 51.75108 | 7.84705 | 77° | 68km/h | 958m | -10.9m/s | 14.1°C | 98.3% | 910.2hPa | 2.7V | 07:50:45 | 03:06:13 | 00:00:00 | |
| BIOWL9-15 | 2026-09-04 02:26:49 | 51.75104 | 7.84677 | 80° | 68km/h | 969m | -11.4m/s | 14.1°C | 93.2% | 909.0hPa | 2.6V | 00:00:00 | 00:00:00 | 00:00:00 | |
| DM0DOS-11 | 2026-09-04 02:26:49 | 51.75101 | 7.84650 | 82° | 68km/h | 980m | -11.3m/s | 14°C | 94.6% | 907.8hPa | 2.6V | 07:50:43 | 03:06:11 | 00:00:00 | |
| DM0DOS-11 | 2026-09-04 02:26:49 | 51.75089 | 7.84543 | 79° | 68km/h | 1024m | -11.1m/s | 13.7°C | 96.4% | 903hPa | 2.6V | 07:50:47 | 03:06:07 | 00:00:00 | |
| BIOWL1-15 | 2026-09-04 02:26:49 | 51.75104 | 7.84677 | 81° | 69km/h | 969m | -11.4m/s | 14.1°C | 98.8% | 909hPa | 2.7V | 07:50:45 | 03:06:12 | 00:00:00 | |
| DO2JMG | 2026-09-04 02:26:48 | 51.75102 | 7.84650 | 82° | 68km/h | 980m | -11.3m/s | 14°C | 99.6% | 907.8hPa | 2.6V | 07:50:45 | 03:06:11 | 00:00:00 | |
| DO2JMG | 2026-09-04 02:26:46 | 51.75096 | 7.84596 | 78° | 66km/h | 1002m | -10.9m/s | 13.9°C | 100% | 905.3hPa | 2.6V | 07:50:45 | 03:06:09 | 00:00:00 | |
| DO2JMG | 2026-09-04 02:26:45 | 51.75093 | 7.84570 | 78° | 68km/h | 1013m | -11m/s | 13.8°C | 100% | 904.2hPa | 2.6V | 07:53:18 | 03:06:08 | 00:00:00 | |
| DO2JMG | 2026-09-04 02:26:44 | 51.75089 | 7.84543 | 80° | 68km/h | 1024m | -11.1m/s | 13.7°C | 100% | 903hPa | 2.6V | 07:53:18 | 03:06:07 | 00:00:00 | |
| DM0DOS-11 | 2026-09-04 02:26:43 | 51.75084 | 7.84488 | 82° | 68km/h | 1045m | -11.2m/s | 13.6°C | 97.5% | 900.8hPa | 2.6V | 07:50:49 | 03:06:05 | 00:00:00 | |
| DM0DOS-11 | 2026-09-04 02:26:43 | 51.75079 | 7.84436 | 78° | 64km/h | 1067m | -10.7m/s | 13.4°C | 96.1% | 898.6hPa | 2.6V | 07:50:51 | 03:06:03 | 00:00:00 | |
| DM0DOS-11 | 2026-09-04 02:26:43 | 51.75073 | 7.84384 | 80° | 68km/h | 1088m | -10.6m/s | 13.2°C | 95% | 896.4hPa | 2.6V | 07:50:53 | 03:06:01 | 00:00:00 | |
| BIOWL1-15 | 2026-09-04 02:26:43 | 51.75082 | 7.84462 | 80° | 64km/h | 1056m | -11m/s | 13.5°C | 100% | 899.5hPa | 2.6V | 07:51:36 | 03:06:04 | 00:00:00 | |
| DO2JMG | 2026-09-04 02:26:42 | 51.75084 | 7.84488 | 82° | 68km/h | 1045m | -11.2m/s | 13.6°C | 100% | 900.8hPa | 2.6V | 07:53:18 | 03:06:05 | 00:00:00 | |
| DO2JMG | 2026-09-04 02:26:40 | 51.75079 | 7.84436 | 79° | 64km/h | 1067m | -10.7m/s | 13.4°C | 100% | 898.6hPa | 2.6V | 07:53:18 | 03:06:03 | 00:00:00 | |
| BIOWL1-15 | 2026-09-04 02:26:39 | 51.75064 | 7.84278 | 80° | 64km/h | 1130m | -10.6m/s | 12.9°C | 99.8% | 891.9hPa | 2.6V | 07:51:36 | 03:05:57 | 00:00:00 | |
| BIOWL1-15 | 2026-09-04 02:26:39 | 51.75061 | 7.84252 | 80° | 66km/h | 1140m | -10.8m/s | 12.8°C | 100% | 890.7hPa | 2.6V | 07:51:36 | 03:05:56 | 00:00:00 | |
| DO2JMG | 2026-09-04 02:26:38 | 51.75073 | 7.84384 | 81° | 68km/h | 1088m | -10.6m/s | 13.2°C | 99% | 896.4hPa | 2.6V | 07:53:18 | 03:06:01 | 00:00:00 | |
| DM0DOS-11 | 2026-09-04 02:26:37 | 51.75064 | 7.84278 | 79° | 64km/h | 1130m | -10.6m/s | 12.9°C | 96.3% | 891.9hPa | 2.6V | 07:50:57 | 03:05:57 | 00:00:00 | |
| DO2JMG | 2026-09-04 02:26:37 | 51.75070 | 7.84357 | 83° | 68km/h | 1098m | -10.7m/s | 13.1°C | 99% | 895.1hPa | 2.6V | 07:53:18 | 03:06:00 | 00:00:00 | |
| DO2JMG | 2026-09-04 02:26:36 | 51.75068 | 7.84330 | 84° | 66km/h | 1109m | -10.9m/s | 13°C | 99.4% | 894.1hPa | 2.6V | 07:53:18 | 03:05:59 | 00:00:00 | |
| DO9LL-15 | 2026-09-04 02:26:36 | 51.75068 | 7.84330 | 85° | 66km/h | 1109m | -10.8m/s | 13.0°C | 95.7% | 894.1hPa | 2.6V | 00:00:00 | 03:05:59 | 00:00:00 | |
| DO3DL | 2026-09-04 02:26:31 | 51.75058 | 7.84225 | 83° | 68km/h | 1150m | -11.0m/s | 12.8°C | 95.9% | 889.6hPa | 2.6V | 07:51:00 | 00:00:00 | 00:00:00 | |
| DM0DOS-11 | 2026-09-04 02:26:31 | 51.75055 | 7.84170 | 84° | 66km/h | 1171m | -10.8m/s | 12.6°C | 97.7% | 887.3hPa | 2.6V | 07:51:01 | 03:05:53 | 00:00:00 | |
| DM0DOS-11 | 2026-09-04 02:26:31 | 51.75045 | 7.84064 | 81° | 69km/h | 1213m | -10.8m/s | 12.5°C | 99.5% | 883hPa | 2.5V | 07:51:05 | 03:05:49 | 00:00:00 | |
| BIOWL1-15 | 2026-09-04 02:26:31 | 51.75055 | 7.84170 | 84° | 66km/h | 1171m | -10.9m/s | 12.6°C | 100% | 887.3hPa | 2.6V | 07:51:36 | 03:05:53 | 00:00:00 | |
| BIOWL1-15 | 2026-09-04 02:26:31 | 51.75053 | 7.84143 | 82° | 64km/h | 1182m | -10.6m/s | 12.6°C | 100% | 886.4hPa | 2.6V | 07:51:36 | 03:05:52 | 00:00:00 | |
| BIOWL1-15 | 2026-09-04 02:26:27 | 51.75048 | 7.84091 | 81° | 68km/h | 1203m | -10.7m/s | 12.5°C | 100% | 884hPa | 2.6V | 07:51:36 | 03:05:50 | 00:00:00 | |
| BIOWL1-15 | 2026-09-04 02:26:25 | 51.75025 | 7.83815 | 82° | 71km/h | 1309m | -10.8m/s | 11.8°C | 100% | 873.3hPa | 2.5V | 07:51:36 | 03:05:40 | 00:00:00 | |
| BIOWL1-15 | 2026-09-04 02:26:25 | 51.75023 | 7.83787 | 84° | 69km/h | 1319m | -10.4m/s | 11.8°C | 100% | 872.3hPa | 2.6V | 07:51:36 | 03:05:39 | 00:00:00 | |
| BIOWL1-15 | 2026-09-04 02:26:23 | 51.75021 | 7.83759 | 83° | 69km/h | 1329m | -10.4m/s | 11.7°C | 100% | 871hPa | 2.6V | 07:51:36 | 03:05:38 | 00:00:00 | |
| DO3DL | 2026-09-04 02:26:19 | 51.75033 | 7.83897 | 82° | 66km/h | 1277m | -10.7m/s | 12.1°C | 99.8% | 876.5hPa | 2.5V | 07:51:00 | 00:00:00 | 00:00:00 | |
| DM0DOS-11 | 2026-09-04 02:26:19 | 51.75028 | 7.83843 | 80° | 69km/h | 1298m | -10.9m/s | 11.9°C | 0% | 874.2hPa | 2.5V | 07:51:13 | 03:05:41 | 00:00:00 | |
| BIOWL9-15 | 2026-09-04 02:26:18 | 51.75028 | 7.83843 | 80° | 68km/h | 1298m | -10.9m/s | 11.9°C | 100.0% | 874.2hPa | 2.6V | 00:00:00 | 00:00:00 | 00:00:00 | |
| DO9LL-15 | 2026-09-04 02:26:16 | 51.75023 | 7.83787 | 84° | 68km/h | 1319m | -10.4m/s | 11.7°C | 0% | 872.3hPa | 2.6V | 00:00:00 | 03:05:39 | 00:00:00 | |
| DM0DOS-11 | 2026-09-04 02:26:13 | 51.75013 | 7.83676 | 83° | 68km/h | 1358m | -9.7m/s | 11.5°C | 0% | 867.9hPa | 2.6V | 07:51:19 | 03:05:35 | 00:00:00 | |
| DM0DOS-11 | 2026-09-04 02:26:13 | 51.75002 | 7.83567 | 79° | 66km/h | 1397m | -10m/s | 11.3°C | 0% | 863.8hPa | 2.5V | 07:51:23 | 03:05:31 | 00:00:00 | |
| BIOWL1-15 | 2026-09-04 02:26:13 | 51.75015 | 7.83704 | 81° | 69km/h | 1349m | -9.7m/s | 11.6°C | 100% | 868.9hPa | 2.6V | 07:51:36 | 03:05:36 | 00:00:00 | |
| BIOWL1-15 | 2026-09-04 02:26:12 | 51.75013 | 7.83676 | 83° | 68km/h | 1358m | -9.7m/s | 11.5°C | 100% | 867.9hPa | 2.6V | 07:51:36 | 03:05:35 | 00:00:00 | |
| BIOWL1-15 | 2026-09-04 02:26:10 | 51.75005 | 7.83594 | 83° | 68km/h | 1387m | -9.8m/s | 11.3°C | 100% | 864.8hPa | 2.5V | 07:51:36 | 03:05:32 | 00:00:00 | |
| BIOWL1-15 | 2026-09-04 02:26:10 | 51.75002 | 7.83567 | 79° | 66km/h | 1397m | -10m/s | 11.4°C | 100% | 863.8hPa | 2.5V | 07:51:36 | 03:05:31 | 00:00:00 | |
| DD1CC3-15 | 2026-09-04 02:26:07 | 51.75002 | 7.83567 | 80° | 66km/h | 1397m | -10.0m/s | 11.4°C | 103.5% | 863.8hPa | 2.6V | 07:51:00 | 00:00:00 | 00:00:00 | |
| DM0DOS-11 | 2026-09-04 02:26:07 | 51.74995 | 7.83514 | 78° | 69km/h | 1417m | -9.8m/s | 11.5°C | 0% | 862hPa | 2.6V | 07:51:25 | 03:05:29 | 00:00:00 | |
| DM0DOS-11 | 2026-09-04 02:26:07 | 51.74982 | 7.83404 | 77° | 68km/h | 1456m | -10.2m/s | 11.3°C | 0% | 858hPa | 2.6V | 07:51:29 | 03:05:25 | 00:00:00 | |
| BIOWL1-15 | 2026-09-04 02:26:06 | 51.74995 | 7.83515 | 78° | 69km/h | 1417m | -9.8m/s | 11.5°C | 100% | 862hPa | 2.6V | 07:51:36 | 03:05:29 | 00:00:00 | |
| BIOWL1-15 | 2026-09-04 02:26:05 | 51.74992 | 7.83487 | 81° | 69km/h | 1427m | -9.6m/s | 11.4°C | 100% | 860.9hPa | 2.6V | 07:51:36 | 03:05:28 | 00:00:00 | |
| BIOWL1-15 | 2026-09-04 02:26:04 | 51.74989 | 7.83459 | 81° | 68km/h | 1436m | -9.9m/s | 11.4°C | 100% | 860hPa | 2.6V | 07:51:36 | 03:05:27 | 00:00:00 | |
| BIOWL1-15 | 2026-09-04 02:26:03 | 51.74974 | 7.83351 | 74° | 68km/h | 1476m | -10m/s | 11.3°C | 100% | 856hPa | 2.5V | 07:51:36 | 03:05:23 | 00:00:00 | |
| BIOWL1-15 | 2026-09-04 02:26:02 | 51.74970 | 7.83324 | 77° | 69km/h | 1486m | -10m/s | 11.3°C | 100% | 855hPa | 2.6V | 07:51:36 | 03:05:22 | 00:00:00 | |
| DM0DOS-11 | 2026-09-04 02:26:01 | 51.74966 | 7.83296 | 78° | 69km/h | 1495m | -9.6m/s | 11.3°C | 0% | 853.9hPa | 2.6V | 07:51:33 | 03:05:21 | 00:00:00 | |
| BIOWL1-15 | 2026-09-04 02:26:00 | 51.74966 | 7.83296 | 79° | 69km/h | 1495m | -9.6m/s | 11.3°C | 100% | 854hPa | 2.6V | 07:51:36 | 03:05:21 | 00:00:00 | |
| BIOWL1-15 | 2026-09-04 02:25:57 | 51.74963 | 7.83269 | 76° | 68km/h | 1504m | -8.9m/s | 11.2°C | 100% | 853.1hPa | 2.6V | 07:51:36 | 03:05:20 | 00:00:00 | |
| BIOWL1-15 | 2026-09-04 02:25:55 | 51.74951 | 7.83188 | 78° | 69km/h | 1530m | -9.6m/s | 11°C | 100% | 850.2hPa | 2.6V | 07:52:27 | 03:05:17 | 00:00:00 | |
| BIOWL1-15 | 2026-09-04 02:25:55 | 51.74947 | 7.83161 | 79° | 68km/h | 1540m | -9.8m/s | 11°C | 100% | 849.3hPa | 2.5V | 07:52:27 | 03:05:16 | 00:00:00 | |
| BIOWL1-15 | 2026-09-04 02:25:51 | 51.74930 | 7.83053 | 75° | 71km/h | 1577m | -10m/s | 10.8°C | 100% | 845.5hPa | 2.6V | 07:52:27 | 03:05:12 | 00:00:00 | |
| BIOWL1-15 | 2026-09-04 02:25:51 | 51.74925 | 7.83026 | 78° | 69km/h | 1587m | -9.8m/s | 10.8°C | 100% | 844.4hPa | 2.6V | 07:52:27 | 03:05:11 | 00:00:00 | |
| DM0DOS-11 | 2026-09-04 02:25:49 | 51.74926 | 7.83026 | 77° | 69km/h | 1587m | -9.8m/s | 10.8°C | 0% | 844.4hPa | 2.6V | 07:51:43 | 03:05:11 | 00:00:00 | |
| BIOWL1-15 | 2026-09-04 02:25:49 | 51.74922 | 7.82998 | 78° | 68km/h | 1597m | -10.1m/s | 10.7°C | 100% | 843.6hPa | 2.6V | 07:52:27 | 03:05:10 | 00:00:00 | |
| BIOWL1-15 | 2026-09-04 02:25:45 | 51.74909 | 7.82917 | 75° | 71km/h | 1625m | -9.5m/s | 10.6°C | 100% | 840.7hPa | 2.5V | 07:52:27 | 03:05:07 | 00:00:00 | |
| BIOWL1-15 | 2026-09-04 02:25:45 | 51.74904 | 7.82889 | 77° | 71km/h | 1635m | -9.8m/s | 10.5°C | 100% | 839.8hPa | 2.6V | 07:52:27 | 03:05:06 | 00:00:00 | |
| DD1CC1-15 | 2026-09-04 02:25:43 | 51.74909 | 7.82917 | 76° | 71km/h | 1625m | -9.5m/s | 10.6°C | 107.6% | 840.7hPa | 2.6V | 07:52:00 | 00:00:00 | 00:00:00 | |
| DM0DOS-11 | 2026-09-04 02:25:43 | 51.74892 | 7.82808 | 73° | 68km/h | 1664m | -9.3m/s | 10.4°C | 0% | 837.1hPa | 2.6V | 07:51:51 | 03:05:03 | 00:00:00 | |
| BIOWL1-15 | 2026-09-04 02:25:41 | 51.74892 | 7.82808 | 74° | 68km/h | 1664m | -9.4m/s | 10.4°C | 100% | 837.1hPa | 2.6V | 07:52:27 | 03:05:03 | 00:00:00 | |
| BIOWL1-15 | 2026-09-04 02:25:41 | 51.74887 | 7.82781 | 74° | 69km/h | 1673m | -10.2m/s | 10.4°C | 100% | 836.2hPa | 2.6V | 07:52:27 | 03:05:02 | 00:00:00 | |
| BIOWL1-15 | 2026-09-04 02:25:38 | 51.74882 | 7.82753 | 75° | 71km/h | 1683m | -10.5m/s | 10.4°C | 100% | 835.1hPa | 2.6V | 07:52:27 | 03:05:01 | 00:00:00 | |
| DM0DOS-11 | 2026-09-04 02:25:37 | 51.74865 | 7.82644 | 73° | 68km/h | 1723m | -9.6m/s | 10.1°C | 0% | 831.3hPa | 2.6V | 07:51:57 | 03:04:57 | 00:00:00 | |
| DM0DOS-11 | 2026-09-04 02:25:37 | 51.74857 | 7.82589 | 79° | 68km/h | 1741m | -9.7m/s | 10°C | 0% | 829.3hPa | 2.6V | 07:51:59 | 03:04:55 | 00:00:00 | |
| BIOWL1-15 | 2026-09-04 02:25:36 | 51.74874 | 7.82698 | 78° | 69km/h | 1703m | -10.2m/s | 10.2°C | 100% | 833.3hPa | 2.5V | 07:52:27 | 03:04:59 | 00:00:00 | |
| BIOWL1-15 | 2026-09-04 02:25:34 | 51.74865 | 7.82644 | 74° | 68km/h | 1723m | -9.6m/s | 10.1°C | 100% | 831.3hPa | 2.6V | 07:52:27 | 03:04:57 | 00:00:00 | |
| BIOWL1-15 | 2026-09-04 02:25:33 | 51.74860 | 7.82617 | 76° | 71km/h | 1732m | -9.6m/s | 10.1°C | 100% | 830.2hPa | 2.6V | 07:52:27 | 03:04:56 | 00:00:00 | |
| DM0DOS-11 | 2026-09-04 02:25:31 | 51.74834 | 7.82429 | 74° | 66km/h | 1799m | -9.9m/s | 9.7°C | 0% | 823.6hPa | 2.6V | 07:52:05 | 03:04:49 | 00:00:00 | |
| BIOWL1-15 | 2026-09-04 02:25:31 | 51.74853 | 7.82562 | 77° | 66km/h | 1751m | -9.8m/s | 10°C | 100% | 828.2hPa | 2.6V | 07:52:27 | 03:04:54 | 00:00:00 | |
| BIOWL1-15 | 2026-09-04 02:25:30 | 51.74849 | 7.82536 | 75° | 66km/h | 1761m | -9.8m/s | 10°C | 100% | 827.5hPa | 2.5V | 07:52:27 | 03:04:53 | 00:00:00 | |
| BIOWL1-15 | 2026-09-04 02:25:28 | 51.74841 | 7.82482 | 79° | 68km/h | 1779m | -9.9m/s | 9.9°C | 100% | 825.5hPa | 2.6V | 07:52:27 | 03:04:51 | 00:00:00 | |
| BIOWL1-15 | 2026-09-04 02:25:26 | 51.74834 | 7.82429 | 74° | 66km/h | 1799m | -9.9m/s | 9.7°C | 100% | 823.6hPa | 2.6V | 07:52:27 | 03:04:49 | 00:00:00 | |
| DM0DOS-11 | 2026-09-04 02:25:25 | 51.74812 | 7.82259 | 78° | 71km/h | 1858m | -9.9m/s | 9.5°C | 0% | 817.7hPa | 2.6V | 07:52:11 | 03:04:43 | 00:00:00 | |
| BIOWL1-15 | 2026-09-04 02:25:24 | 51.74822 | 7.82347 | 78° | 69km/h | 1828m | -9.9m/s | 9.6°C | 100% | 820.7hPa | 2.6V | 07:52:27 | 03:04:46 | 00:00:00 | |
| BIOWL1-15 | 2026-09-04 02:25:24 | 51.74818 | 7.82318 | 80° | 73km/h | 1838m | -10.2m/s | 9.5°C | 100% | 819.7hPa | 2.5V | 07:52:27 | 03:04:45 | 00:00:00 | |
| BIOWL1-15 | 2026-09-04 02:25:20 | 51.74812 | 7.82259 | 78° | 71km/h | 1858m | -9.9m/s | 9.5°C | 100% | 817.7hPa | 2.6V | 07:52:27 | 03:04:43 | 00:00:00 | |
| DO3DL | 2026-09-04 02:25:19 | 51.74812 | 7.82259 | 79° | 71km/h | 1858m | -9.9m/s | 9.5°C | 0% | 817.7hPa | 2.6V | 07:52:00 | 00:00:00 | 00:00:00 | |
| DM0DOS-11 | 2026-09-04 02:25:19 | 51.74805 | 7.82201 | 78° | 71km/h | 1878m | -9.7m/s | 9.4°C | 0% | 815.7hPa | 2.6V | 07:52:13 | 03:04:41 | 00:00:00 | |
| DM0DOS-11 | 2026-09-04 02:25:19 | 51.74799 | 7.82142 | 78° | 73km/h | 1896m | -9.6m/s | 9.3°C | 0% | 813.8hPa | 2.6V | 07:52:15 | 03:04:39 | 00:00:00 | |
| DM0DOS-11 | 2026-09-04 02:25:19 | 51.74793 | 7.82083 | 78° | 73km/h | 1915m | -9.7m/s | 9.3°C | 0% | 812.1hPa | 2.5V | 07:52:17 | 03:04:37 | 00:00:00 | |
| BIOWL1-15 | 2026-09-04 02:25:18 | 51.74796 | 7.82113 | 83° | 73km/h | 1906m | -9.8m/s | 9.3°C | 100% | 813hPa | 2.5V | 07:52:27 | 03:04:38 | 00:00:00 | |
| BIOWL1-15 | 2026-09-04 02:25:18 | 51.74793 | 7.82083 | 79° | 73km/h | 1915m | -9.7m/s | 9.3°C | 100% | 812.1hPa | 2.5V | 07:52:27 | 03:04:37 | 00:00:00 | |
| BIOWL9-15 | 2026-09-04 02:25:16 | 51.74799 | 7.82142 | 78° | 71km/h | 1896m | -9.6m/s | 9.3°C | 100.0% | 813.8hPa | 2.6V | 00:00:00 | 00:00:00 | 00:00:00 | |
| DO9LL-15 | 2026-09-04 02:25:16 | 51.74799 | 7.82142 | 79° | 75km/h | 1896m | -9.6m/s | 9.3°C | 0% | 813.8hPa | 2.6V | 00:00:00 | 03:04:39 | 00:00:00 | |
| DB0UT-7 | 2026-09-04 02:25:16 | 51.74799 | 7.82142 | 79° | 75km/h | 1896m | -9.6m/s | 9.3°C | 0% | 813.8hPa | 2.6V | 00:00:00 | 00:00:00 | 00:00:00 | |
| DM0DOS-11 | 2026-09-04 02:25:13 | 51.74783 | 7.81961 | 81° | 77km/h | 1953m | -9.4m/s | 9.3°C | 94% | 808.4hPa | 2.6V | 07:52:21 | 03:04:33 | 00:00:00 | |
| DM0DOS-11 | 2026-09-04 02:25:13 | 51.74779 | 7.81897 | 83° | 78km/h | 1971m | -9.8m/s | 9.4°C | 87.3% | 806.3hPa | 2.6V | 07:52:23 | 03:04:31 | 00:00:00 | |
| BIOWL1-15 | 2026-09-04 02:25:12 | 51.74788 | 7.82023 | 81° | 75km/h | 1935m | -9.7m/s | 8.9°C | 100% | 810.1hPa | 2.6V | 07:52:27 | 03:04:35 | 00:00:00 | |
| BIOWL1-15 | 2026-09-04 02:25:10 | 51.74781 | 7.81929 | 85° | 78km/h | 1962m | -9.4m/s | 9.4°C | 89.2% | 807.3hPa | 2.6V | 07:52:27 | 03:04:32 | 00:00:00 | |
| BIOWL1-15 | 2026-09-04 02:25:10 | 51.74779 | 7.81897 | 83° | 78km/h | 1971m | -9.8m/s | 9.4°C | 88.6% | 806.3hPa | 2.6V | 07:52:27 | 03:04:31 | 00:00:00 | |
| DM0DOS-11 | 2026-09-04 02:25:07 | 51.74774 | 7.81834 | 82° | 80km/h | 1992m | -10.2m/s | 9.5°C | 83.6% | 804.6hPa | 2.5V | 07:52:25 | 03:04:29 | 00:00:00 | |
| DM0DOS-11 | 2026-09-04 02:25:07 | 51.74768 | 7.81704 | 86° | 78km/h | 2032m | -10.3m/s | 9.3°C | 91.1% | 800.9hPa | 2.6V | 07:52:29 | 03:04:25 | 00:00:00 | |
| BIOWL1-15 | 2026-09-04 02:25:06 | 51.74774 | 7.81834 | 82° | 80km/h | 1992m | -10.2m/s | 9.5°C | 85.4% | 804.6hPa | 2.5V | 07:52:27 | 03:04:29 | 00:00:00 | |
| DO9LL-15 | 2026-09-04 02:25:06 | 51.74774 | 7.81834 | 83° | 80km/h | 1992m | -10.2m/s | 9.4°C | 83.6% | 804.6hPa | 2.5V | 00:00:00 | 03:04:29 | 00:00:00 | |
| DB0UT-7 | 2026-09-04 02:25:06 | 51.74774 | 7.81834 | 83° | 80km/h | 1992m | -10.2m/s | 9.4°C | 83.6% | 804.6hPa | 2.5V | 00:00:00 | 03:04:29 | 00:00:00 | |
| DD1CC3-15 | 2026-09-04 02:25:05 | 51.74774 | 7.81834 | 83° | 80km/h | 1992m | -10.2m/s | 9.5°C | 82.6% | 804.6hPa | 2.5V | 07:52:00 | 00:00:00 | 00:00:00 | |
| DD1CC1-15 | 2026-09-04 02:25:02 | 51.74769 | 7.81736 | 87° | 78km/h | 2021m | -10.2m/s | 9.4°C | 89.2% | 801.6hPa | 2.5V | 07:53:00 | 00:00:00 | 00:00:00 | |
| DL8DAS-14 | 2026-09-04 02:25:00 | 51.74765 | 7.81506 | 91° | 80km/h | 2092m | -10.7m/s | 8.9°C | 93.4% | 794.9hPa | 2.5V | 00:00:00 | 00:00:00 | 00:00:00 | |
| DO3DL | 2026-09-04 02:24:59 | 51.74766 | 7.81639 | 88° | 80km/h | 2052m | -10.0m/s | 9.2°C | 91.1% | 798.7hPa | 2.5V | 07:53:00 | 00:00:00 | 00:00:00 | |
| DM0DOS-11 | 2026-09-04 02:24:57 | 51.74765 | 7.81373 | 89° | 78km/h | 2134m | -10.3m/s | 8.6°C | 94.6% | 791hPa | 2.5V | 07:52:39 | 03:04:15 | 00:00:00 | |
| BIOWL1-15 | 2026-09-04 02:24:56 | 51.74765 | 7.81506 | 91° | 82km/h | 2092m | -10.7m/s | 8.9°C | 93.6% | 794.9hPa | 2.6V | 07:53:18 | 03:04:19 | 00:00:00 | |
| DO2JMG | 2026-09-04 02:24:53 | 51.74765 | 7.81406 | 89° | 78km/h | 2124m | -10.2m/s | 8.6°C | 93.9% | 792hPa | 2.5V | 07:53:18 | 03:04:16 | 00:00:00 | |
| DL4BBY-15 | 2026-09-04 02:24:50 | 51.74765 | 7.81308 | 90° | 82km/h | 2154m | -10.2m/s | 9.0°C | 0% | 0hPa | 2.6V | 00:00:00 | 00:00:00 | 00:00:00 | |
| DO9LL-15 | 2026-09-04 02:24:48 | 51.74764 | 7.81244 | 89° | 82km/h | 2175m | -10.0m/s | 9.7°C | 48.3% | 787.1hPa | 2.6V | 00:00:00 | 03:04:11 | 00:00:00 | |
| DM0DOS-11 | 2026-09-04 02:24:47 | 51.74761 | 7.81041 | 91° | 84km/h | 2237m | -10.8m/s | 10.2°C | 25.3% | 781.5hPa | 2.6V | 07:52:49 | 03:04:05 | 00:00:00 | |
| BIOWL1-15 | 2026-09-04 02:24:45 | 51.74762 | 7.81144 | 89° | 84km/h | 2205m | -10.4m/s | 9.9°C | 42.3% | 784.1hPa | 2.5V | 07:53:18 | 03:04:08 | 00:00:00 | |
| BIOWL9-15 | 2026-09-04 02:24:45 | 51.74762 | 7.81110 | 89° | 82km/h | 2216m | -10.6m/s | 10.0°C | 36.7% | 783.3hPa | 2.6V | 00:00:00 | 00:00:00 | 00:00:00 | |
| DO2JMG | 2026-09-04 02:24:41 | 51.74762 | 7.81007 | 91° | 84km/h | 2248m | -10.8m/s | 10.3°C | 26.8% | 780.4hPa | 2.6V | 07:53:18 | 03:04:04 | 00:00:00 | |
| DO3DL | 2026-09-04 02:24:40 | 51.74762 | 7.81006 | 92° | 84km/h | 2248m | -10.8m/s | 10.3°C | 23.4% | 780.4hPa | 2.5V | 07:53:00 | 00:00:00 | 00:00:00 | |
| DM0DOS-11 | 2026-09-04 02:24:37 | 51.74762 | 7.80706 | 89° | 84km/h | 2338m | -10.2m/s | 10.1°C | 31.8% | 771.9hPa | 2.5V | 07:52:59 | 03:03:55 | 00:00:00 | |
| BIOWL1-15 | 2026-09-04 02:24:34 | 51.74763 | 7.80773 | 88° | 80km/h | 2318m | -9.8m/s | 10.3°C | 30% | 773.8hPa | 2.6V | 07:53:18 | 03:03:57 | 00:00:00 | |
| DO3DL | 2026-09-04 02:24:33 | 51.74763 | 7.80773 | 89° | 80km/h | 2318m | -9.8m/s | 10.3°C | 26.1% | 773.8hPa | 2.6V | 07:53:00 | 00:00:00 | 00:00:00 | |
| DM0DOS-11 | 2026-09-04 02:24:32 | 51.74764 | 7.80533 | 93° | 84km/h | 2387m | -11.1m/s | 9.5°C | 55.3% | 767.1hPa | 2.6V | 07:53:04 | 03:03:50 | 00:00:00 | |
| DO2JMG | 2026-09-04 02:24:31 | 51.74762 | 7.80672 | 90° | 86km/h | 2347m | -9.8m/s | 9.9°C | 47.8% | 771hPa | 2.5V | 07:53:18 | 03:03:54 | 00:00:00 | |
| BIOWL1-15 | 2026-09-04 02:24:28 | 51.74768 | 7.80430 | 92° | 84km/h | 2419m | -10.8m/s | 9.5°C | 55.3% | 764.4hPa | 2.5V | 07:53:18 | 03:03:47 | 00:00:00 | |
| DO9LL-15 | 2026-09-04 02:24:28 | 51.74763 | 7.80568 | 93° | 86km/h | 2377m | -10.9m/s | 9.6°C | 49.0% | 768.1hPa | 2.6V | 00:00:00 | 03:03:51 | 00:00:00 | |
| DC6BW-12 | 2026-09-04 02:24:27 | 51.74763 | 7.80568 | 94° | 84km/h | 2377m | -11.0m/s | 9.6°C | 48.4% | 768.1hPa | 2.6V | 07:53:00 | 00:00:00 | 00:00:00 | |
| DM0DOS-11 | 2026-09-04 02:24:26 | 51.74770 | 7.80327 | 90° | 84km/h | 2450m | -10.3m/s | 9.2°C | 50.4% | 761.6hPa | 2.6V | 07:53:10 | 03:03:44 | 00:00:00 | |
| DD1CC8 | 2026-09-04 02:24:25 | 51.74767 | 7.80464 | 92° | 82km/h | 2408m | -11.2m/s | 9.5°C | 50.9% | 765.1hPa | 2.6V | 00:00:00 | 00:00:00 | 00:00:00 | |
| DD1CC1-15 | 2026-09-04 02:24:22 | 51.74769 | 7.80395 | 92° | 84km/h | 2429m | -10.9m/s | 9.4°C | 49.3% | 763.4hPa | 2.6V | 07:53:00 | 00:00:00 | 00:00:00 | |
| DM0DOS-11 | 2026-09-04 02:24:21 | 51.74771 | 7.80156 | 89° | 86km/h | 2501m | -9.9m/s | 8.9°C | 50.1% | 756.9hPa | 2.6V | 07:53:15 | 03:03:39 | 00:00:00 | |
| DO2JMG | 2026-09-04 02:24:21 | 51.74769 | 7.80327 | 91° | 84km/h | 2450m | -10.3m/s | 9.2°C | 55.7% | 761.6hPa | 2.6V | 07:53:18 | 03:03:44 | 00:00:00 | |
| DL4BBY-15 | 2026-09-04 02:24:20 | 51.74770 | 7.80292 | 91° | 88km/h | 2460m | -10.6m/s | 9.0°C | 0% | 0hPa | 2.5V | 00:00:00 | 00:00:00 | 00:00:00 | |
| DM0DOS-11 | 2026-09-04 02:24:16 | 51.74772 | 7.79980 | 92° | 89km/h | 2549m | -11m/s | 8.8°C | 50.2% | 752.3hPa | 2.5V | 07:53:20 | 03:03:34 | 00:00:00 | |
| BIOWL1-15 | 2026-09-04 02:24:13 | 51.74771 | 7.80051 | 90° | 88km/h | 2530m | -10.7m/s | 8.9°C | 52.8% | 754hPa | 2.6V | 07:53:18 | 03:03:36 | 00:00:00 | |
| DM0DOS-11 | 2026-09-04 02:24:11 | 51.74776 | 7.79803 | 90° | 84km/h | 2601m | -9.9m/s | 8.7°C | 49.9% | 747.6hPa | 2.6V | 07:53:25 | 03:03:29 | 00:00:00 | |
| DO2JMG | 2026-09-04 02:24:10 | 51.74773 | 7.79944 | 93° | 88km/h | 2560m | -10.8m/s | 8.7°C | 57.1% | 751.4hPa | 2.5V | 07:54:09 | 03:03:33 | 00:00:00 | |
| DO9LL-15 | 2026-09-04 02:24:08 | 51.74775 | 7.79873 | 94° | 89km/h | 2581m | -10.7m/s | 8.6°C | 53.2% | 749.6hPa | 2.6V | 00:00:00 | 03:03:31 | 00:00:00 | |
| DC6BW-12 | 2026-09-04 02:24:07 | 51.74775 | 7.79873 | 94° | 88km/h | 2581m | -10.8m/s | 8.7°C | 52.4% | 749.6hPa | 2.6V | 07:54:00 | 00:00:00 | 00:00:00 | |
| DM0DOS-11 | 2026-09-04 02:24:06 | 51.74778 | 7.79623 | 92° | 89km/h | 2648m | -10.1m/s | 8.6°C | 54.5% | 743.2hPa | 2.6V | 07:53:30 | 03:03:24 | 00:00:00 | |
| BIOWL1-15 | 2026-09-04 02:24:03 | 51.74777 | 7.79696 | 90° | 89km/h | 2630m | -9.7m/s | 8.6°C | 65.9% | 744.9hPa | 2.6V | 07:54:09 | 03:03:26 | 00:00:00 | |
| DO2JMG | 2026-09-04 02:23:59 | 51.74780 | 7.79550 | 93° | 89km/h | 2668m | -10.3m/s | 8.5°C | 59.1% | 741.4hPa | 2.6V | 07:54:09 | 03:03:22 | 00:00:00 | |
| DL8DAS-14 | 2026-09-04 02:23:58 | 51.74787 | 7.79295 | 90° | 88km/h | 2738m | -9.9m/s | 8.2°C | 52.5% | 735.3hPa | 2.6V | 00:00:00 | 00:00:00 | 00:00:00 | |
| BUE01 | 2026-09-04 02:23:57 | 51.74787 | 7.79259 | 90° | 89km/h | 2747m | -9.6m/s | 8.0°C | 53.8% | 734.5hPa | 2.6V | 00:00:00 | 00:00:00 | 00:00:00 | |
| DM0DOS-11 | 2026-09-04 02:23:56 | 51.74784 | 7.79440 | 93° | 89km/h | 2698m | -10.6m/s | 8.4°C | 49.3% | 738.8hPa | 2.6V | 07:53:35 | 03:03:19 | 00:00:00 | |
| DM0DOS-11 | 2026-09-04 02:23:56 | 51.74787 | 7.79259 | 90° | 89km/h | 2748m | -9.6m/s | 8°C | 54.6% | 734.5hPa | 2.5V | 07:53:40 | 03:03:14 | 00:00:00 | |
| BIOWL1-15 | 2026-09-04 02:23:52 | 51.74787 | 7.79295 | 91° | 88km/h | 2738m | -9.9m/s | 8.2°C | 59.6% | 735.3hPa | 2.5V | 07:54:09 | 03:03:15 | 00:00:00 | |
| DO2JMG | 2026-09-04 02:23:48 | 51.74788 | 7.79148 | 91° | 93km/h | 2776m | -9.7m/s | 7.7°C | 70.5% | 731.8hPa | 2.6V | 07:54:09 | 03:03:11 | 00:00:00 | |
| DO9LL-15 | 2026-09-04 02:23:48 | 51.74788 | 7.79147 | 91° | 91km/h | 2776m | -9.7m/s | 7.7°C | 64.2% | 731.8hPa | 2.6V | 00:00:00 | 03:03:11 | 00:00:00 | |
| DM0DOS-11 | 2026-09-04 02:23:46 | 51.74789 | 7.78884 | 92° | 93km/h | 2844m | -10.6m/s | 7.2°C | 67.8% | 725.9hPa | 2.6V | 07:53:50 | 03:03:04 | 00:00:00 | |
| DB0ND-19 | 2026-09-04 02:23:45 | 51.74788 | 7.78998 | 92° | 91km/h | 2815m | -10.1m/s | 7.4°C | 65.1% | 728.4hPa | 2.6V | 00:00:00 | 00:00:00 | 00:00:00 | |
| BIOWL1-15 | 2026-09-04 02:23:41 | 51.74790 | 7.78884 | 93° | 93km/h | 2844m | -10.6m/s | 7.2°C | 74.1% | 725.9hPa | 2.6V | 07:54:09 | 03:03:04 | 00:00:00 | |
| DO2JMG | 2026-09-04 02:23:37 | 51.74793 | 7.78733 | 92° | 91km/h | 2885m | -10.8m/s | 6.9°C | 78.4% | 722.3hPa | 2.6V | 07:54:09 | 03:03:00 | 00:00:00 | |
| DM0DOS-11 | 2026-09-04 02:23:36 | 51.74797 | 7.78511 | 90° | 89km/h | 2946m | -10m/s | 6.5°C | 76.4% | 717hPa | 2.6V | 07:54:00 | 03:02:54 | 00:00:00 | |
| BIOWL1-15 | 2026-09-04 02:23:30 | 51.74797 | 7.78474 | 90° | 91km/h | 2955m | -10.1m/s | 6.4°C | 82.6% | 716.3hPa | 2.6V | 07:54:09 | 03:02:53 | 00:00:00 | |
| DO2JMG | 2026-09-04 02:23:27 | 51.74798 | 7.78363 | 91° | 91km/h | 2984m | -9.9m/s | 6.2°C | 82.7% | 713.4hPa | 2.5V | 07:54:09 | 03:02:50 | 00:00:00 | |
| DM0DOS-11 | 2026-09-04 02:23:26 | 51.74802 | 7.78137 | 93° | 93km/h | 3043m | -10.3m/s | 5.7°C | 76.6% | 708.3hPa | 2.5V | 07:54:10 | 03:02:44 | 00:00:00 | |
| BIOWL1-15 | 2026-09-04 02:23:20 | 51.74803 | 7.78099 | 94° | 93km/h | 3053m | -10.4m/s | 5.6°C | 82.4% | 707.4hPa | 2.5V | 07:55:00 | 03:02:43 | 00:00:00 | |
| DO2JMG | 2026-09-04 02:23:17 | 51.74807 | 7.77987 | 94° | 91km/h | 3083m | -10.7m/s | 5.3°C | 82.7% | 704.8hPa | 2.6V | 07:55:00 | 03:02:40 | 00:00:00 | |
| DM0DOS-11 | 2026-09-04 02:23:16 | 51.74809 | 7.77949 | 94° | 91km/h | 3093m | -11.1m/s | 5.2°C | 77.8% | 704hPa | 2.6V | 07:54:15 | 03:02:39 | 00:00:00 | |
| DM0DOS-11 | 2026-09-04 02:23:16 | 51.74817 | 7.77764 | 92° | 88km/h | 3146m | -11m/s | 4.8°C | 82.9% | 699.6hPa | 2.6V | 07:54:20 | 03:02:34 | 00:00:00 | |
| BIOWL1-15 | 2026-09-04 02:23:10 | 51.74818 | 7.77727 | 93° | 88km/h | 3157m | -11m/s | 4.7°C | 89.8% | 698.8hPa | 2.6V | 07:55:00 | 03:02:33 | 00:00:00 | |
| DL3AQ-11 | 2026-09-04 02:23:09 | 51.74819 | 7.77691 | 92° | 88km/h | 3167m | -10.9m/s | 4.7°C | 83.4% | 697.9hPa | 2.5V | 00:00:00 | 00:00:00 | 00:00:00 | |
| DO9LL-15 | 2026-09-04 02:23:08 | 51.74821 | 7.77654 | 92° | 91km/h | 3178m | -11.0m/s | 4.6°C | 85.2% | 697.0hPa | 2.5V | 00:00:00 | 03:02:31 | 00:00:00 | |
| DO3DL | 2026-09-04 02:23:06 | 51.74821 | 7.77618 | 92° | 88km/h | 3189m | -10.5m/s | 4.6°C | 83.9% | 696.3hPa | 2.5V | 07:55:00 | 00:00:00 | 00:00:00 | |
| DM0DOS-11 | 2026-09-04 02:23:06 | 51.74823 | 7.77582 | 91° | 88km/h | 3199m | -10.6m/s | 4.5°C | 85.7% | 695.2hPa | 2.6V | 07:54:25 | 03:02:29 | 00:00:00 | |
| DM0DOS-11 | 2026-09-04 02:23:06 | 51.74826 | 7.77401 | 90° | 89km/h | 3251m | -10.1m/s | 4.1°C | 85.7% | 691hPa | 2.6V | 07:54:30 | 03:02:24 | 00:00:00 | |
| DC6BW-12 | 2026-09-04 02:23:05 | 51.74823 | 7.77582 | 93° | 88km/h | 3199m | -10.6m/s | 4.5°C | 84.2% | 695.2hPa | 2.5V | 07:55:00 | 00:00:00 | 00:00:00 | |
| DD1CC3-15 | 2026-09-04 02:23:03 | 51.74825 | 7.77510 | 92° | 89km/h | 3220m | -10.4m/s | 4.4°C | 84.3% | 693.5hPa | 2.5V | 07:55:00 | 00:00:00 | 00:00:00 | |
| DM0DOS-11 | 2026-09-04 02:23:01 | 51.74829 | 7.77219 | 91° | 91km/h | 3300m | -10.2m/s | 3.9°C | 83.5% | 686.6hPa | 2.5V | 07:54:35 | 03:02:19 | 00:00:00 | |
| BIOWL1-15 | 2026-09-04 02:23:01 | 51.74827 | 7.77329 | 91° | 89km/h | 3270m | -10m/s | 4°C | 89.5% | 689.2hPa | 2.6V | 07:55:00 | 03:02:22 | 00:00:00 | |
| DD1CC1-15 | 2026-09-04 02:23:00 | 51.74826 | 7.77401 | 92° | 89km/h | 3251m | -10.1m/s | 4.1°C | 84.2% | 691.0hPa | 2.5V | 07:55:00 | 00:00:00 | 00:00:00 | |
| DO3DL | 2026-09-04 02:22:59 | 51.74827 | 7.77365 | 92° | 89km/h | 3260m | -9.8m/s | 4.1°C | 84.4% | 690.1hPa | 2.5V | 07:55:00 | 00:00:00 | 00:00:00 | |
| DO2KSM | 2026-09-04 02:22:58 | 51.74827 | 7.77329 | 92° | 89km/h | 3270m | -10.0m/s | 4.0°C | 84.3% | 689.2hPa | 2.5V | 00:00:00 | 00:00:00 | 00:00:00 | |
| DM0DOS-11 | 2026-09-04 02:22:56 | 51.74834 | 7.77030 | 93° | 93km/h | 3351m | -10.3m/s | 3.6°C | 84.5% | 682.4hPa | 2.5V | 07:54:40 | 03:02:14 | 00:00:00 | |
| BUE01 | 2026-09-04 02:22:55 | 51.74830 | 7.77181 | 92° | 91km/h | 3310m | -10.3m/s | 3.8°C | 82.0% | 685.8hPa | 2.6V | 00:00:00 | 00:00:00 | 00:00:00 | |
| DL3AQ-11 | 2026-09-04 02:22:54 | 51.74832 | 7.77106 | 92° | 91km/h | 3330m | -10.3m/s | 3.7°C | 82.7% | 684.2hPa | 2.6V | 00:00:00 | 00:00:00 | 00:00:00 | |
| DD1CC8 | 2026-09-04 02:22:52 | 51.74832 | 7.77068 | 93° | 93km/h | 3341m | -10.0m/s | 3.6°C | 83.2% | 683.2hPa | 2.6V | 00:00:00 | 00:00:00 | 00:00:00 | |
| DM0DOS-11 | 2026-09-04 02:22:51 | 51.74843 | 7.76841 | 94° | 91km/h | 3403m | -10.9m/s | 3.5°C | 80.7% | 678.1hPa | 2.6V | 07:54:45 | 03:02:09 | 00:00:00 | |
| BIOWL1-15 | 2026-09-04 02:22:48 | 51.74839 | 7.76916 | 96° | 93km/h | 3382m | -10.7m/s | 3.5°C | 79.7% | 679.9hPa | 2.6V | 07:55:00 | 03:02:11 | 00:00:00 | |
| DM0DOS-11 | 2026-09-04 02:22:46 | 51.74849 | 7.76655 | 93° | 93km/h | 3453m | -9.8m/s | 3.4°C | 75.9% | 674hPa | 2.6V | 07:54:50 | 03:02:04 | 00:00:00 | |
| BIOWL1-15 | 2026-09-04 02:22:39 | 51.74856 | 7.76499 | 96° | 95km/h | 3491m | -10.4m/s | 3.4°C | 75.3% | 670.8hPa | 2.6V | 07:55:00 | 03:02:00 | 00:00:00 | |
| DO2JMG | 2026-09-04 02:22:38 | 51.74854 | 7.76538 | 96° | 95km/h | 3482m | -10.2m/s | 3.3°C | 79.3% | 671.5hPa | 2.6V | 07:55:00 | 03:02:01 | 00:00:00 | |
| DO9LL-15 | 2026-09-04 02:22:38 | 51.74854 | 7.76538 | 96° | 93km/h | 3482m | -10.1m/s | 3.3°C | 74.5% | 671.4hPa | 2.6V | 00:00:00 | 03:02:01 | 00:00:00 | |
| DM0DOS-11 | 2026-09-04 02:22:36 | 51.74858 | 7.76460 | 96° | 95km/h | 3501m | -10.6m/s | 3.4°C | 64.3% | 669.9hPa | 2.6V | 07:54:55 | 03:01:59 | 00:00:00 | |
| DO2JMG | 2026-09-04 02:22:28 | 51.74882 | 7.76155 | 96° | 91km/h | 3582m | -10.6m/s | 2.9°C | 62.8% | 663.2hPa | 2.5V | 07:55:51 | 03:01:51 | 00:00:00 | |
| DM0DOS-11 | 2026-09-04 02:22:26 | 51.74887 | 7.76080 | 95° | 91km/h | 3602m | -10.1m/s | 2.8°C | 57.3% | 661.6hPa | 2.6V | 07:55:05 | 03:01:49 | 00:00:00 | |
| DM0DOS-11 | 2026-09-04 02:22:26 | 51.74901 | 7.75891 | 96° | 91km/h | 3650m | -10.9m/s | 2.7°C | 54.1% | 657.6hPa | 2.6V | 07:55:10 | 03:01:44 | 00:00:00 | |
| BIOWL1-15 | 2026-09-04 02:22:26 | 51.74888 | 7.76080 | 96° | 91km/h | 3602m | -10.1m/s | 2.8°C | 62.9% | 661.6hPa | 2.6V | 07:55:51 | 03:01:49 | 00:00:00 | |
| DL8DAS-14 | 2026-09-04 02:22:25 | 51.74890 | 7.76042 | 95° | 89km/h | 3611m | -10.4m/s | 2.8°C | 57.4% | 660.8hPa | 2.5V | 00:00:00 | 00:00:00 | 00:00:00 | |
| BUE01 | 2026-09-04 02:22:24 | 51.74896 | 7.75967 | 95° | 91km/h | 3631m | -10.1m/s | 2.8°C | 51.6% | 659.2hPa | 2.5V | 00:00:00 | 00:00:00 | 00:00:00 | |
| DM0DOS-11 | 2026-09-04 02:22:21 | 51.74916 | 7.75701 | 96° | 91km/h | 3705m | -10.6m/s | 2.4°C | 54.5% | 653.5hPa | 2.5V | 07:55:15 | 03:01:39 | 00:00:00 | |
| DO2JMG | 2026-09-04 02:22:17 | 51.74913 | 7.75738 | 96° | 91km/h | 3694m | -10.7m/s | 2.5°C | 60.3% | 654.2hPa | 2.5V | 07:55:51 | 03:01:40 | 00:00:00 | |
| DM0DOS-11 | 2026-09-04 02:22:16 | 51.74931 | 7.75515 | 96° | 93km/h | 3756m | -9.9m/s | 2°C | 61.5% | 649.3hPa | 2.5V | 07:55:20 | 03:01:34 | 00:00:00 | |
| BIOWL1-15 | 2026-09-04 02:22:15 | 51.74919 | 7.75663 | 97° | 91km/h | 3715m | -10.8m/s | 2.3°C | 60.9% | 652.5hPa | 2.6V | 07:55:51 | 03:01:38 | 00:00:00 | |
| DL3AQ-11 | 2026-09-04 02:22:14 | 51.74925 | 7.75589 | 97° | 91km/h | 3735m | -10.7m/s | 2.1°C | 58.9% | 651.0hPa | 2.6V | 00:00:00 | 00:00:00 | 00:00:00 | |
| DB0UT-7 | 2026-09-04 02:22:13 | 51.74925 | 7.75589 | 98° | 99km/h | 3735m | -10.6m/s | 2.1°C | 60.1% | 650.9hPa | 2.6V | 00:00:00 | 03:01:36 | 00:00:00 | |
| DM0DOS-11 | 2026-09-04 02:22:11 | 51.74947 | 7.75325 | 97° | 97km/h | 3805m | -10m/s | 1.6°C | 69.4% | 645.3hPa | 2.6V | 07:55:25 | 03:01:29 | 00:00:00 | |
| BIOWL9-15 | 2026-09-04 02:22:10 | 51.74937 | 7.75440 | 97° | 95km/h | 3776m | -9.6m/s | 1.8°C | 60.5% | 647.7hPa | 2.6V | 00:00:00 | 00:00:00 | 00:00:00 | |
| DO9LL-15 | 2026-09-04 02:22:08 | 51.74941 | 7.75402 | 98° | 100km/h | 3786m | -9.7m/s | 1.7°C | 63.8% | 646.9hPa | 2.6V | 00:00:00 | 03:01:31 | 00:00:00 | |
| DM0DOS-11 | 2026-09-04 02:22:06 | 51.74965 | 7.75130 | 99° | 99km/h | 3855m | -10.3m/s | 1.4°C | 65.4% | 641.2hPa | 2.6V | 07:55:30 | 03:01:24 | 00:00:00 | |
| DO2JMG | 2026-09-04 02:22:06 | 51.74947 | 7.75325 | 98° | 97km/h | 3805m | -10m/s | 1.6°C | 75.1% | 645.3hPa | 2.6V | 07:55:51 | 03:01:29 | 00:00:00 | |
| BIOWL1-15 | 2026-09-04 02:22:06 | 51.74954 | 7.75247 | 98° | 97km/h | 3824m | -10.2m/s | 1.5°C | 76% | 643.6hPa | 2.5V | 07:55:51 | 03:01:27 | 00:00:00 | |
| BIOWL7-15 | 2026-09-04 02:22:04 | 51.74950 | 7.75286 | 99° | 97km/h | 3814m | -10.0m/s | 1.5°C | 67.4% | 644.4hPa | 2.6V | 07:55:00 | 00:00:00 | 00:00:00 | |
| DO3DL | 2026-09-04 02:22:03 | 51.74954 | 7.75247 | 99° | 97km/h | 3824m | -10.2m/s | 1.5°C | 68.8% | 643.6hPa | 2.6V | 07:55:00 | 00:00:00 | 00:00:00 | |
| DC6BW-12 | 2026-09-04 02:22:02 | 51.74957 | 7.75209 | 100° | 99km/h | 3835m | -10.1m/s | 1.5°C | 65.0% | 642.9hPa | 2.6V | 07:55:00 | 00:00:00 | 00:00:00 | |
| DD1CC3-15 | 2026-09-04 02:22:01 | 51.74961 | 7.75169 | 100° | 99km/h | 3844m | -10.5m/s | 1.4°C | 63.9% | 642.1hPa | 2.6V | 07:55:00 | 00:00:00 | 00:00:00 | |
| DL3AQ-11 | 2026-09-04 02:22:00 | 51.74969 | 7.75091 | 99° | 99km/h | 3865m | -10.6m/s | 1.4°C | 64.4% | 640.5hPa | 2.6V | 00:00:00 | 00:00:00 | 00:00:00 | |
| HTAHTA | 2026-09-04 02:21:57 | 51.74991 | 7.74850 | 98° | 100km/h | 3929m | -10.4m/s | 1.1°C | 61.3% | 635.7hPa | 2.6V | 00:00:00 | 00:00:00 | 00:00:00 | |
| DM0DOS-11 | 2026-09-04 02:21:56 | 51.74984 | 7.74931 | 98° | 100km/h | 3908m | -10.7m/s | 1.2°C | 63.8% | 637.2hPa | 2.6V | 07:55:35 | 03:01:19 | 00:00:00 | |
| DO2JMG | 2026-09-04 02:21:56 | 51.74984 | 7.74931 | 99° | 100km/h | 3908m | -10.7m/s | 1.2°C | 70.1% | 637.2hPa | 2.6V | 07:55:51 | 03:01:19 | 00:00:00 | |
| BIOWL1-15 | 2026-09-04 02:21:53 | 51.74995 | 7.74809 | 98° | 100km/h | 3939m | -10.7m/s | 1°C | 69.9% | 634.7hPa | 2.6V | 07:55:51 | 03:01:16 | 00:00:00 | |
| BUE01 | 2026-09-04 02:21:53 | 51.74998 | 7.74768 | 98° | 100km/h | 3950m | -10.3m/s | 0.9°C | 66.4% | 634.0hPa | 2.6V | 00:00:00 | 00:00:00 | 00:00:00 | |
| AU51GT2 | 2026-09-04 02:21:51 | 51.75018 | 7.74563 | 100° | 100km/h | 3998m | -11.0m/s | 0.4°C | -1.0% | 630.0hPa | 2.6V | 00:00:00 | 00:00:00 | 00:00:00 | |
| DL4BBY-15 | 2026-09-04 02:21:50 | 51.75005 | 7.74686 | 99° | 102km/h | 3968m | -10.2m/s | 0.6°C | 0% | 0hPa | 2.6V | 00:00:00 | 00:00:00 | 00:00:00 | |
| DO3DL | 2026-09-04 02:21:49 | 51.75005 | 7.74686 | 100° | 102km/h | 3969m | -10.2m/s | 0.7°C | 70.9% | 632.4hPa | 2.6V | 07:55:00 | 00:00:00 | 00:00:00 | |
| DM0DOS-11 | 2026-09-04 02:21:46 | 51.75022 | 7.74522 | 100° | 100km/h | 4008m | -11.1m/s | 0.3°C | 79.2% | 629.2hPa | 2.6V | 07:55:45 | 03:01:09 | 00:00:00 | |
| DM0DOS-11 | 2026-09-04 02:21:46 | 51.75044 | 7.74315 | 98° | 102km/h | 4061m | -11.1m/s | 0.1°C | 65.8% | 625.2hPa | 2.6V | 07:55:50 | 03:01:04 | 00:00:00 | |
| DO2JMG | 2026-09-04 02:21:46 | 51.75022 | 7.74522 | 101° | 100km/h | 4008m | -11.1m/s | 0.3°C | 84.4% | 629.2hPa | 2.6V | 07:55:51 | 03:01:09 | 00:00:00 | |
| BIOWL1-15 | 2026-09-04 02:21:42 | 51.75040 | 7.74357 | 99° | 100km/h | 4051m | -11.6m/s | 0.1°C | 72.1% | 626hPa | 2.5V | 07:55:51 | 03:01:05 | 00:00:00 | |
| DC6BW-12 | 2026-09-04 02:21:41 | 51.75040 | 7.74357 | 100° | 100km/h | 4051m | -11.6m/s | 0.1°C | 64.7% | 626.0hPa | 2.6V | 07:55:00 | 00:00:00 | 00:00:00 | |
| DD1CC3-15 | 2026-09-04 02:21:40 | 51.75044 | 7.74315 | 100° | 102km/h | 4061m | -11.1m/s | 0.1°C | 64.3% | 625.2hPa | 2.6V | 07:55:00 | 00:00:00 | 00:00:00 | |
| DM0DOS-11 | 2026-09-04 02:21:39 | 51.75073 | 7.74023 | 97° | 102km/h | 4136m | -11m/s | -0.5°C | 70.5% | 619.5hPa | 2.6V | 07:55:57 | 03:00:57 | 00:00:00 | |
| DO2JMG | 2026-09-04 02:21:35 | 51.75069 | 7.74065 | 98° | 102km/h | 4125m | -11.2m/s | -0.4°C | 75% | 620.5hPa | 2.6V | 07:56:42 | 03:00:58 | 00:00:00 | |
| DM0DOS-11 | 2026-09-04 02:21:34 | 51.75093 | 7.73812 | 97° | 102km/h | 4188m | -10.8m/s | -0.9°C | 78.3% | 615.6hPa | 2.6V | 07:56:02 | 03:00:52 | 00:00:00 | |
| BIOWL1-15 | 2026-09-04 02:21:33 | 51.75085 | 7.73897 | 98° | 102km/h | 4167m | -10.8m/s | -0.8°C | 83% | 617.2hPa | 2.5V | 07:56:42 | 03:00:54 | 00:00:00 | |
| BIOWL1-15 | 2026-09-04 02:21:25 | 51.75123 | 7.73471 | 97° | 106km/h | 4271m | -10.3m/s | -1.5°C | 81.1% | 609.3hPa | 2.5V | 07:56:42 | 03:00:44 | 00:00:00 | |
| DM0DOS-11 | 2026-09-04 02:21:24 | 51.75113 | 7.73600 | 96° | 104km/h | 4241m | -10.3m/s | -1.3°C | 77.6% | 611.6hPa | 2.6V | 07:56:07 | 03:00:47 | 00:00:00 | |
| DM0DOS-11 | 2026-09-04 02:21:24 | 51.75130 | 7.73385 | 96° | 106km/h | 4290m | -10.1m/s | -1.6°C | 75.4% | 607.6hPa | 2.6V | 07:56:12 | 03:00:42 | 00:00:00 | |
| DO2JMG | 2026-09-04 02:21:24 | 51.75113 | 7.73600 | 97° | 104km/h | 4241m | -10.3m/s | -1.3°C | 82.4% | 611.6hPa | 2.6V | 07:56:42 | 03:00:47 | 00:00:00 | |
| DL8DAS-14 | 2026-09-04 02:21:23 | 51.75116 | 7.73557 | 96° | 104km/h | 4251m | -10.4m/s | -1.4°C | 75.9% | 610.8hPa | 2.6V | 00:00:00 | 00:00:00 | 00:00:00 | |
| BUE01 | 2026-09-04 02:21:22 | 51.75123 | 7.73471 | 96° | 104km/h | 4271m | -10.3m/s | -1.5°C | 74.5% | 609.3hPa | 2.6V | 00:00:00 | 00:00:00 | 00:00:00 | |
| DL3AQ-11 | 2026-09-04 02:21:21 | 51.75127 | 7.73428 | 96° | 104km/h | 4281m | -10.1m/s | -1.6°C | 74.2% | 608.4hPa | 2.6V | 00:00:00 | 00:00:00 | 00:00:00 | |
| DL4BBY-15 | 2026-09-04 02:21:20 | 51.75127 | 7.73428 | 97° | 106km/h | 4281m | -10.1m/s | -1.6°C | 0% | 0hPa | 2.6V | 00:00:00 | 00:00:00 | 00:00:00 | |
| DD1CC8 | 2026-09-04 02:21:19 | 51.75130 | 7.73385 | 96° | 104km/h | 4290m | -10.1m/s | -1.6°C | 73.6% | 607.6hPa | 2.6V | 00:00:00 | 00:00:00 | 00:00:00 | |
| DD1CC1-15 | 2026-09-04 02:21:17 | 51.75134 | 7.73341 | 98° | 106km/h | 4300m | -10.3m/s | -1.7°C | 73.0% | 606.8hPa | 2.6V | 07:56:00 | 00:00:00 | 00:00:00 | |
| DO3DL | 2026-09-04 02:21:15 | 51.75142 | 7.73255 | 98° | 106km/h | 4320m | -10.5m/s | -1.9°C | 75.1% | 605.3hPa | 2.6V | 07:56:00 | 00:00:00 | 00:00:00 | |
| DM0DOS-11 | 2026-09-04 02:21:14 | 51.75150 | 7.73169 | 97° | 104km/h | 4340m | -10.7m/s | -2°C | 77% | 603.6hPa | 2.6V | 07:56:17 | 03:00:37 | 00:00:00 | |
| BIOWL1-15 | 2026-09-04 02:21:12 | 51.75164 | 7.72999 | 98° | 104km/h | 4381m | -10.8m/s | -2.3°C | 79.8% | 600.5hPa | 2.6V | 07:56:42 | 03:00:33 | 00:00:00 | |
| DO2JMG | 2026-09-04 02:21:04 | 51.75187 | 7.72744 | 99° | 108km/h | 4443m | -10.5m/s | -2.7°C | 79.2% | 595.9hPa | 2.6V | 07:56:42 | 03:00:27 | 00:00:00 | |
| BIOWL1-15 | 2026-09-04 02:21:03 | 51.75209 | 7.72528 | 102° | 108km/h | 4495m | -11.3m/s | -3.1°C | 73.8% | 592hPa | 2.6V | 07:56:42 | 03:00:22 | 00:00:00 | |
| DO3DL | 2026-09-04 02:21:01 | 51.75195 | 7.72657 | 101° | 108km/h | 4463m | -10.8m/s | -2.9°C | 71.1% | 594.3hPa | 2.5V | 07:56:00 | 00:00:00 | 00:00:00 | |
| HTAHTA | 2026-09-04 02:20:55 | 51.75252 | 7.72229 | 103° | 106km/h | 4569m | -11.6m/s | -3.5°C | 61.8% | 586.5hPa | 2.5V | 00:00:00 | 00:00:00 | 00:00:00 | |
| DM0DOS-11 | 2026-09-04 02:20:54 | 51.75271 | 7.72102 | 103° | 106km/h | 4602m | -11.1m/s | -3.6°C | 62% | 584.1hPa | 2.5V | 07:56:42 | 03:00:12 | 00:00:00 | |
| DO2JMG | 2026-09-04 02:20:53 | 51.75245 | 7.72271 | 104° | 108km/h | 4559m | -11.2m/s | -3.4°C | 68.2% | 587.3hPa | 2.6V | 07:56:42 | 03:00:16 | 00:00:00 | |
| BIOWL1-15 | 2026-09-04 02:20:50 | 51.75278 | 7.72059 | 102° | 106km/h | 4613m | -10.7m/s | -3.7°C | 68.6% | 583.3hPa | 2.6V | 07:57:33 | 03:00:11 | 00:00:00 | |
| DD1CC8 | 2026-09-04 02:20:48 | 51.75290 | 7.71974 | 102° | 106km/h | 4633m | -10.7m/s | -3.8°C | 64.6% | 581.8hPa | 2.5V | 00:00:00 | 00:00:00 | 00:00:00 | |
| DM0DOS-11 | 2026-09-04 02:20:44 | 51.75302 | 7.71887 | 102° | 111km/h | 4655m | -11.1m/s | -3.9°C | 65.6% | 580.3hPa | 2.5V | 07:56:47 | 03:00:07 | 00:00:00 | |
| DM0DOS-11 | 2026-09-04 02:20:44 | 51.75338 | 7.71664 | 104° | 113km/h | 4710m | -10.9m/s | -4.2°C | 65.3% | 576.4hPa | 2.5V | 07:56:52 | 03:00:02 | 00:00:00 | |
| DO2JMG | 2026-09-04 02:20:43 | 51.75308 | 7.71843 | 104° | 113km/h | 4666m | -11.7m/s | -4°C | 69.8% | 579.4hPa | 2.6V | 07:57:33 | 03:00:06 | 00:00:00 | |
| DL1XH-west | 2026-09-04 02:20:38 | 51.75345 | 7.71619 | 103° | 111km/h | 4722m | -11.2m/s | -4.3°C | 69.4% | 575.6hPa | 2.5V | 07:57:33 | 03:00:01 | 00:00:00 | |
| DO9LL-15 | 2026-09-04 02:20:38 | 51.75345 | 7.71619 | 103° | 117km/h | 4722m | -11.1m/s | -4.2°C | 65.3% | 575.6hPa | 2.6V | 00:00:00 | 03:00:01 | 00:00:00 | |
| BIOWL9-15 | 2026-09-04 02:20:36 | 51.75358 | 7.71529 | 102° | 113km/h | 4743m | -10.7m/s | -4.3°C | 61.4% | 574.1hPa | 2.6V | 00:00:00 | 00:00:00 | 00:00:00 | |
| DD1CC1-15 | 2026-09-04 02:20:35 | 51.75358 | 7.71529 | 103° | 115km/h | 4743m | -10.7m/s | -4.3°C | 61.4% | 574.1hPa | 2.6V | 07:57:00 | 00:00:00 | 00:00:00 | |
| DM0DOS-11 | 2026-09-04 02:20:34 | 51.75372 | 7.71437 | 101° | 117km/h | 4765m | -10.2m/s | -4.2°C | 60.3% | 572.5hPa | 2.6V | 07:56:57 | 02:59:57 | 00:00:00 | |
| DM0DOS-11 | 2026-09-04 02:20:34 | 51.75403 | 7.71201 | 101° | 119km/h | 4816m | -10.8m/s | -4.3°C | 58.7% | 568.7hPa | 2.6V | 07:57:02 | 02:59:52 | 00:00:00 | |
| DO2JMG | 2026-09-04 02:20:32 | 51.75384 | 7.71343 | 101° | 119km/h | 4786m | -10.3m/s | -4.1°C | 64.6% | 570.9hPa | 2.5V | 07:57:33 | 02:59:55 | 00:00:00 | |
| DJ2DS-15 | 2026-09-04 02:20:31 | 51.75390 | 7.71296 | 101° | 117km/h | 4795m | -10.4m/s | -4.2°C | 57.7% | 570.2hPa | 2.5V | 00:00:00 | 00:00:00 | 00:00:00 | |
| DL3AQ-11 | 2026-09-04 02:20:30 | 51.75403 | 7.71201 | 101° | 119km/h | 4816m | -10.8m/s | -4.3°C | 57.0% | 568.7hPa | 2.5V | 00:00:00 | 00:00:00 | 00:00:00 | |
| DM0DOS-11 | 2026-09-04 02:20:29 | 51.75436 | 7.70965 | 101° | 119km/h | 4869m | -10.6m/s | -4.7°C | 55.6% | 564.9hPa | 2.5V | 07:57:07 | 02:59:47 | 00:00:00 | |
| BIOWL1-15 | 2026-09-04 02:20:29 | 51.75417 | 7.71106 | 102° | 119km/h | 4837m | -10.7m/s | -4.5°C | 64.5% | 567.1hPa | 2.6V | 07:57:33 | 02:59:50 | 00:00:00 | |
| DL1XH-west | 2026-09-04 02:20:25 | 51.75429 | 7.71012 | 102° | 119km/h | 4859m | -10.5m/s | -4.6°C | 63.7% | 565.6hPa | 2.5V | 07:57:33 | 02:59:48 | 00:00:00 | |
| DM0DOS-11 | 2026-09-04 02:20:24 | 51.75467 | 7.70728 | 100° | 119km/h | 4922m | -10.5m/s | -4.9°C | 47.8% | 561hPa | 2.6V | 07:57:12 | 02:59:42 | 00:00:00 | |
| DO2JMG | 2026-09-04 02:20:22 | 51.75449 | 7.70870 | 101° | 119km/h | 4891m | -10.5m/s | -4.7°C | 58.8% | 563.3hPa | 2.6V | 07:57:33 | 02:59:45 | 00:00:00 | |
| DL8DAS-14 | 2026-09-04 02:20:21 | 51.75461 | 7.70775 | 100° | 117km/h | 4912m | -10.5m/s | -4.8°C | 47.2% | 561.8hPa | 2.6V | 00:00:00 | 00:00:00 | 00:00:00 | |
| DL4BBY-15 | 2026-09-04 02:20:20 | 51.75461 | 7.70775 | 101° | 119km/h | 4912m | -10.4m/s | -4.8°C | 0% | 0hPa | 2.6V | 00:00:00 | 00:00:00 | 00:00:00 | |
| DM0DOS-11 | 2026-09-04 02:20:19 | 51.75497 | 7.70493 | 101° | 117km/h | 4974m | -10.5m/s | -5.3°C | 46.8% | 557.2hPa | 2.6V | 07:57:17 | 02:59:37 | 00:00:00 | |
| BIOWL1-15 | 2026-09-04 02:20:16 | 51.75484 | 7.70587 | 101° | 117km/h | 4953m | -10.6m/s | -5.1°C | 52.4% | 558.8hPa | 2.5V | 07:57:33 | 02:59:39 | 00:00:00 | |
| DL1XH-west | 2026-09-04 02:20:15 | 51.75491 | 7.70540 | 102° | 117km/h | 4964m | -10.9m/s | -5.2°C | 52.4% | 558hPa | 2.6V | 07:57:33 | 02:59:38 | 00:00:00 | |
| DM0DOS-11 | 2026-09-04 02:20:14 | 51.75527 | 7.70260 | 101° | 117km/h | 5027m | -10.8m/s | -5.7°C | 47.5% | 553.4hPa | 2.5V | 07:57:22 | 02:59:32 | 00:00:00 | |
| DO2JMG | 2026-09-04 02:20:12 | 51.75509 | 7.70400 | 102° | 117km/h | 4995m | -10.8m/s | -5.4°C | 53.3% | 555.8hPa | 2.6V | 07:57:33 | 02:59:35 | 00:00:00 | |
| BIOWL1-15 | 2026-09-04 02:20:08 | 51.75546 | 7.70121 | 102° | 117km/h | 5060m | -10.5m/s | -5.9°C | 54.5% | 551.2hPa | 2.6V | 07:57:33 | 02:59:29 | 00:00:00 | |
| DL1XH-west | 2026-09-04 02:20:04 | 51.75557 | 7.70027 | 102° | 119km/h | 5082m | -10.9m/s | -6.1°C | 55.2% | 549.7hPa | 2.5V | 07:57:33 | 02:59:27 | 00:00:00 | |
| DO2JMG | 2026-09-04 02:20:02 | 51.75570 | 7.69934 | 103° | 119km/h | 5102m | -10.6m/s | -6.2°C | 55.8% | 548.2hPa | 2.5V | 07:57:33 | 02:59:25 | 00:00:00 | |
| BIOWL1-15 | 2026-09-04 02:19:55 | 51.75619 | 7.69604 | 105° | 122km/h | 5179m | -10.8m/s | -6.9°C | 59.3% | 542.9hPa | 2.6V | 07:58:24 | 02:59:18 | 00:00:00 | |
| DM0DOS-11 | 2026-09-04 02:19:54 | 51.75668 | 7.69320 | 106° | 120km/h | 5244m | -11.4m/s | -7.4°C | 56.7% | 538.4hPa | 2.6V | 07:57:42 | 02:59:12 | 00:00:00 | |
| DL1XH-west | 2026-09-04 02:19:54 | 51.75626 | 7.69556 | 106° | 120km/h | 5190m | -11m/s | -7°C | 59.8% | 542.1hPa | 2.6V | 07:58:24 | 02:59:17 | 00:00:00 | |
| DO2JMG | 2026-09-04 02:19:51 | 51.75651 | 7.69415 | 107° | 120km/h | 5222m | -11.5m/s | -7.2°C | 61.2% | 539.9hPa | 2.5V | 07:58:24 | 02:59:14 | 00:00:00 | |
| HSKMA3-T | 2026-09-04 02:19:47 | 51.75685 | 7.69227 | 106° | 122km/h | 5266m | -11m/s | 0°C | 0% | 0hPa | 2.5V | 18:12:15 | 02:59:10 | 00:00:00 | |
| BIOWL1-15 | 2026-09-04 02:19:46 | 51.75711 | 7.69085 | 105° | 122km/h | 5300m | -11m/s | -7.8°C | 63.5% | 534.6hPa | 2.5V | 07:58:24 | 02:59:07 | 00:00:00 | |
| DD1CC8 | 2026-09-04 02:19:46 | 51.75703 | 7.69132 | 106° | 120km/h | 5288m | -11.2m/s | -7.7°C | 56.0% | 535.3hPa | 2.6V | 00:00:00 | 00:00:00 | 00:00:00 | |
| DL1XH-west | 2026-09-04 02:19:43 | 51.75719 | 7.69037 | 106° | 122km/h | 5311m | -11.1m/s | -7.9°C | 63.5% | 534hPa | 2.6V | 07:58:24 | 02:59:06 | 00:00:00 | |
| DO2JMG | 2026-09-04 02:19:40 | 51.75745 | 7.68894 | 105° | 120km/h | 5343m | -10.5m/s | -8.2°C | 64.4% | 531.7hPa | 2.4V | 07:58:24 | 02:59:03 | 00:00:00 | |
| BIOWL1-15 | 2026-09-04 02:19:36 | 51.75791 | 7.68608 | 104° | 117km/h | 5404m | -11m/s | -8.7°C | 64.6% | 527.3hPa | 2.5V | 07:58:24 | 02:58:57 | 00:00:00 | |
| DL1XH-west | 2026-09-04 02:19:32 | 51.75806 | 7.68514 | 104° | 117km/h | 5425m | -11.4m/s | -8.9°C | 64.9% | 525.7hPa | 2.6V | 07:58:24 | 02:58:55 | 00:00:00 | |
| DO2JMG | 2026-09-04 02:19:30 | 51.75821 | 7.68421 | 104° | 117km/h | 5445m | -11.1m/s | -9.1°C | 65.3% | 524.4hPa | 2.6V | 07:58:24 | 02:58:53 | 00:00:00 | |
| BIOWL1-15 | 2026-09-04 02:19:27 | 51.75871 | 7.68094 | 106° | 119km/h | 5521m | -12.2m/s | -9.8°C | 67.2% | 519.3hPa | 2.5V | 07:58:24 | 02:58:46 | 00:00:00 | |
| DL1XH-west | 2026-09-04 02:19:21 | 51.75886 | 7.68001 | 105° | 120km/h | 5543m | -11.9m/s | -10°C | 67.9% | 517.8hPa | 2.6V | 07:58:24 | 02:58:44 | 00:00:00 | |
| DO2JMG | 2026-09-04 02:19:19 | 51.75902 | 7.67906 | 106° | 120km/h | 5565m | -11.8m/s | -10.2°C | 68.5% | 516.4hPa | 2.5V | 07:58:24 | 02:58:42 | 00:00:00 | |
| DD1CC3-15 | 2026-09-04 02:19:18 | 51.75902 | 7.67906 | 107° | 120km/h | 5565m | -11.8m/s | -10.2°C | 62.3% | 516.4hPa | 2.4V | 07:58:00 | 00:00:00 | 00:00:00 | |
| BUE01 | 2026-09-04 02:19:17 | 51.75918 | 7.67813 | 106° | 120km/h | 5587m | -11.7m/s | -10.4°C | 63.1% | 515.0hPa | 2.4V | 00:00:00 | 00:00:00 | 00:00:00 | |
| DJ2KF-10 | 2026-09-04 02:19:16 | 51.75926 | 7.67765 | 107° | 117km/h | 5598m | -11.5m/s | -10.4°C | 65.1% | 514.2hPa | 2.4V | 00:00:00 | 02:58:39 | 00:00:00 | |
| DD1CC8 | 2026-09-04 02:19:15 | 51.75943 | 7.67671 | 105° | 120km/h | 5620m | -11.3m/s | -10.6°C | 61.5% | 512.8hPa | 2.4V | 00:00:00 | 00:00:00 | 00:00:00 | |
| DM0DOS-11 | 2026-09-04 02:19:14 | 51.75983 | 7.67435 | 105° | 120km/h | 5676m | -11m/s | -11.1°C | 66.2% | 509.2hPa | 2.4V | 07:58:22 | 02:58:32 | 00:00:00 | |
| BIOWL1-15 | 2026-09-04 02:19:13 | 51.75951 | 7.67624 | 105° | 120km/h | 5631m | -11.3m/s | -10.7°C | 67.6% | 512.1hPa | 2.5V | 07:58:24 | 02:58:36 | 00:00:00 | |
| DL1XH-west | 2026-09-04 02:19:11 | 51.75967 | 7.67530 | 105° | 122km/h | 5654m | -11.3m/s | -11°C | 68% | 510.7hPa | 2.5V | 07:58:24 | 02:58:34 | 00:00:00 | |
| DO2JMG | 2026-09-04 02:19:09 | 51.75983 | 7.67435 | 105° | 120km/h | 5676m | -11m/s | -11.2°C | 68.4% | 509.2hPa | 2.4V | 07:58:24 | 02:58:32 | 00:00:00 | |
| BIOWL1-15 | 2026-09-04 02:19:07 | 51.76030 | 7.67154 | 104° | 119km/h | 5740m | -11.1m/s | -11.3°C | 63.6% | 504.9hPa | 2.4V | 07:59:15 | 02:58:26 | 00:00:00 | |
| DM0DOS-11 | 2026-09-04 02:19:04 | 51.76060 | 7.66968 | 104° | 115km/h | 5783m | -11.2m/s | -11.7°C | 63.7% | 502.1hPa | 2.4V | 07:58:32 | 02:58:22 | 00:00:00 | |
| DL1XH-west | 2026-09-04 02:19:00 | 51.76053 | 7.67014 | 104° | 117km/h | 5772m | -10.8m/s | -11.6°C | 63.6% | 502.8hPa | 2.5V | 07:59:15 | 02:58:23 | 00:00:00 | |
| DO2JMG | 2026-09-04 02:18:58 | 51.76067 | 7.66923 | 104° | 115km/h | 5793m | -10.8m/s | -11.8°C | 65.3% | 501.3hPa | 2.4V | 07:59:15 | 02:58:21 | 00:00:00 | |
| DC6BW-12 | 2026-09-04 02:18:57 | 51.76067 | 7.66923 | 105° | 115km/h | 5793m | -10.8m/s | -11.8°C | 62.5% | 501.3hPa | 2.5V | 07:59:00 | 00:00:00 | 00:00:00 | |
| DL1CLM-18 | 2026-09-04 02:18:56 | 51.76075 | 7.66877 | 105° | 115km/h | 5804m | -11.2m/s | -11.9°C | 66.2% | 500.6hPa | 2.5V | 00:00:00 | 00:00:00 | 00:00:00 | |
| DM0DOS-11 | 2026-09-04 02:18:54 | 51.76129 | 7.66518 | 104° | 113km/h | 5892m | -11.6m/s | -11.9°C | 98% | 494.7hPa | 2.5V | 07:58:42 | 02:58:12 | 00:00:00 | |
| BIOWL1-15 | 2026-09-04 02:18:52 | 51.76109 | 7.66653 | 104° | 113km/h | 5858m | -11.5m/s | -12.5°C | 91.8% | 496.9hPa | 2.4V | 07:59:15 | 02:58:15 | 00:00:00 | |
| DL1XH-west | 2026-09-04 02:18:49 | 51.76129 | 7.66518 | 105° | 113km/h | 5892m | -11.6m/s | -11.9°C | 92.7% | 494.8hPa | 2.5V | 07:59:15 | 02:58:12 | 00:00:00 | |
| DL8DAS-14 | 2026-09-04 02:18:48 | 51.76143 | 7.66428 | 105° | 113km/h | 5915m | -12.2m/s | -11.8°C | 92.7% | 493.4hPa | 2.5V | 00:00:00 | 00:00:00 | 00:00:00 | |
| DO2JMG | 2026-09-04 02:18:48 | 51.76136 | 7.66473 | 106° | 115km/h | 5904m | -12m/s | -11.8°C | 88.3% | 494.1hPa | 2.4V | 07:59:15 | 02:58:11 | 00:00:00 | |
| BUE01 | 2026-09-04 02:18:46 | 51.76151 | 7.66384 | 106° | 111km/h | 5926m | -12.3m/s | -11.8°C | 88.4% | 492.7hPa | 2.5V | 00:00:00 | 00:00:00 | 00:00:00 | |
| AU51GT2 | 2026-09-04 02:18:45 | 51.76165 | 7.66297 | 105° | 110km/h | 5949m | -12.5m/s | -11.8°C | 88.9% | 491.2hPa | 2.5V | 00:00:00 | 00:00:00 | 00:00:00 | |
| DM0DOS-11 | 2026-09-04 02:18:44 | 51.76200 | 7.66085 | 104° | 108km/h | 6009m | -11.8m/s | -11.4°C | 60% | 487.7hPa | 2.5V | 07:58:52 | 02:58:02 | 00:00:00 | |
| BIOWL1-15 | 2026-09-04 02:18:41 | 51.76187 | 7.66170 | 105° | 108km/h | 5985m | -12.2m/s | -11.5°C | 77.5% | 489hPa | 2.4V | 07:59:15 | 02:58:04 | 00:00:00 | |
| DL1XH-west | 2026-09-04 02:18:38 | 51.76207 | 7.66043 | 105° | 108km/h | 6021m | -12.1m/s | -11.3°C | 53.8% | 486.8hPa | 2.4V | 07:59:15 | 02:58:01 | 00:00:00 | |
| DO2JMG | 2026-09-04 02:18:37 | 51.76214 | 7.66000 | 104° | 108km/h | 6032m | -12.1m/s | -11.2°C | 44% | 486.1hPa | 2.4V | 07:59:15 | 02:58:00 | 00:00:00 | |
| DC6BW-12 | 2026-09-04 02:18:36 | 51.76213 | 7.66000 | 105° | 108km/h | 6032m | -12.1m/s | -11.2°C | 38.6% | 486.1hPa | 2.5V | 07:59:00 | 00:00:00 | 00:00:00 | |
| DM0DOS-11 | 2026-09-04 02:18:34 | 51.76269 | 7.65654 | 103° | 111km/h | 6122m | -11.6m/s | -11°C | 16.5% | 480.4hPa | 2.5V | 07:59:02 | 02:57:52 | 00:00:00 | |
| BIOWL1-15 | 2026-09-04 02:18:32 | 51.76262 | 7.65698 | 104° | 111km/h | 6111m | -11.4m/s | -10.9°C | 18.3% | 481.2hPa | 2.5V | 07:59:15 | 02:57:53 | 00:00:00 | |
| DO2JMG | 2026-09-04 02:18:27 | 51.76281 | 7.65566 | 103° | 111km/h | 6144m | -11.5m/s | -11.1°C | 24.8% | 479.1hPa | 2.4V | 07:59:15 | 02:57:50 | 00:00:00 | |
| DM0DOS-11 | 2026-09-04 02:18:24 | 51.76329 | 7.65217 | 102° | 106km/h | 6231m | -11.7m/s | -11.8°C | 34.8% | 473.4hPa | 2.4V | 07:59:12 | 02:57:42 | 00:00:00 | |
| BIOWL1-15 | 2026-09-04 02:18:19 | 51.76329 | 7.65217 | 103° | 106km/h | 6231m | -11.7m/s | -11.8°C | 39.4% | 473.4hPa | 2.4V | 07:59:15 | 02:57:42 | 00:00:00 | |
| DL1XH-west | 2026-09-04 02:18:17 | 51.76340 | 7.65132 | 103° | 106km/h | 6253m | -12.2m/s | -12°C | 43.5% | 472.1hPa | 2.5V | 07:59:15 | 02:57:40 | 00:00:00 | |
| DO3DL | 2026-09-04 02:18:16 | 51.76340 | 7.65132 | 104° | 106km/h | 6253m | -12.2m/s | -12.0°C | 37.1% | 472.1hPa | 2.4V | 07:59:00 | 00:00:00 | 00:00:00 | |
| BUE01 | 2026-09-04 02:18:15 | 51.76352 | 7.65046 | 103° | 106km/h | 6276m | -12.7m/s | -12.1°C | 45.3% | 470.6hPa | 2.4V | 00:00:00 | 00:00:00 | 00:00:00 | |
| DM0DOS-11 | 2026-09-04 02:18:14 | 51.76385 | 7.64793 | 102° | 106km/h | 6345m | -12.5m/s | -12.8°C | 57.6% | 466.4hPa | 2.4V | 07:59:22 | 02:57:32 | 00:00:00 | |
| BIOWL1-15 | 2026-09-04 02:18:10 | 51.76391 | 7.64751 | 103° | 104km/h | 6357m | -12.8m/s | -12.9°C | 63.8% | 465.7hPa | 2.4V | 08:00:06 | 02:57:31 | 00:00:00 | |
| DO2JMG | 2026-09-04 02:18:07 | 51.76396 | 7.64709 | 103° | 104km/h | 6369m | -12.8m/s | -13°C | 69.3% | 465.1hPa | 2.4V | 08:00:06 | 02:57:30 | 00:00:00 | |
| DL1XH-west | 2026-09-04 02:18:06 | 51.76401 | 7.64668 | 103° | 102km/h | 6380m | -12.8m/s | -13.1°C | 74.4% | 464.3hPa | 2.5V | 08:00:06 | 02:57:29 | 00:00:00 | |
| DM0DOS-11 | 2026-09-04 02:18:04 | 51.76439 | 7.64382 | 102° | 102km/h | 6465m | -11.7m/s | -13.5°C | 98.7% | 459.5hPa | 2.5V | 07:59:32 | 02:57:22 | 00:00:00 | |
| BIOWL1-15 | 2026-09-04 02:17:57 | 51.76450 | 7.64300 | 102° | 102km/h | 6488m | -12.2m/s | -13.6°C | 98.2% | 458.1hPa | 2.4V | 08:00:06 | 02:57:20 | 00:00:00 | |
| DL1XH-west | 2026-09-04 02:17:56 | 51.76455 | 7.64260 | 102° | 102km/h | 6500m | -11.5m/s | -13.7°C | 98.1% | 457.4hPa | 2.4V | 08:00:06 | 02:57:19 | 00:00:00 | |
| DO3DL | 2026-09-04 02:17:55 | 51.76455 | 7.64260 | 103° | 102km/h | 6500m | -11.5m/s | -13.7°C | 94.7% | 457.4hPa | 2.4V | 08:00:00 | 00:00:00 | 00:00:00 | |
| DM0DOS-11 | 2026-09-04 02:17:54 | 51.76487 | 7.63976 | 99° | 97km/h | 6577m | -12.1m/s | -14.1°C | 91.1% | 452.5hPa | 2.4V | 07:59:42 | 02:57:12 | 00:00:00 | |
| BIOWL1-15 | 2026-09-04 02:17:47 | 51.76495 | 7.63897 | 101° | 99km/h | 6600m | -12.3m/s | -14.2°C | 87.8% | 451.2hPa | 2.5V | 08:00:06 | 02:57:10 | 00:00:00 | |
| DO2JMG | 2026-09-04 02:17:46 | 51.76500 | 7.63857 | 101° | 99km/h | 6612m | -12.3m/s | -14.3°C | 85.2% | 450.5hPa | 2.4V | 08:00:06 | 02:57:09 | 00:00:00 | |
| DL1XH-west | 2026-09-04 02:17:45 | 51.76505 | 7.63817 | 102° | 100km/h | 6623m | -12.5m/s | -14.4°C | 82.9% | 449.9hPa | 2.4V | 08:00:06 | 02:57:08 | 00:00:00 | |
| DM0DOS-11 | 2026-09-04 02:17:44 | 51.76536 | 7.63573 | 102° | 102km/h | 6692m | -12.4m/s | -14.7°C | 79.5% | 445.8hPa | 2.5V | 07:59:52 | 02:57:02 | 00:00:00 | |
| BIOWL1-15 | 2026-09-04 02:17:36 | 51.76551 | 7.63449 | 103° | 104km/h | 6728m | -12.6m/s | -14.9°C | 85.6% | 443.8hPa | 2.4V | 08:00:06 | 02:56:59 | 00:00:00 | |
| DL1XH-west | 2026-09-04 02:17:35 | 51.76558 | 7.63408 | 104° | 104km/h | 6740m | -12.6m/s | -14.9°C | 85.5% | 443.1hPa | 2.5V | 08:00:06 | 02:56:58 | 00:00:00 | |
| HSKMA3-T | 2026-09-04 02:17:30 | 51.76589 | 7.63195 | 103° | 110km/h | 6798m | -11.8m/s | 0°C | 0% | 0hPa | 2.4V | 18:12:15 | 02:56:53 | 00:00:00 | |
| BIOWL1-15 | 2026-09-04 02:17:25 | 51.76620 | 7.62976 | 102° | 108km/h | 6854m | -11.6m/s | -15.6°C | 88.1% | 436.4hPa | 2.4V | 08:00:06 | 02:56:48 | 00:00:00 | |
| DM0DOS-11 | 2026-09-04 02:17:24 | 51.76655 | 7.62719 | 102° | 106km/h | 6920m | -12m/s | -16°C | 77.7% | 432.4hPa | 2.5V | 08:00:12 | 02:56:42 | 00:00:00 | |
| DO2JMG | 2026-09-04 02:17:24 | 51.76626 | 7.62933 | 102° | 108km/h | 6865m | -11.6m/s | -15.7°C | 88.7% | 435.8hPa | 2.4V | 08:00:57 | 02:56:47 | 00:00:00 | |
| BIOWL1-15 | 2026-09-04 02:17:15 | 51.76678 | 7.62547 | 104° | 110km/h | 6967m | -12.5m/s | -16.3°C | 80.7% | 429.8hPa | 2.4V | 08:00:57 | 02:56:38 | 00:00:00 | |
| DL1XH-west | 2026-09-04 02:17:14 | 51.76685 | 7.62504 | 105° | 110km/h | 6978m | -13m/s | -16.4°C | 81% | 429.2hPa | 2.5V | 08:00:57 | 02:56:37 | 00:00:00 | |
| DO2JMG | 2026-09-04 02:17:13 | 51.76691 | 7.62461 | 105° | 110km/h | 6991m | -12.8m/s | -16.5°C | 81.2% | 428.4hPa | 2.5V | 08:00:57 | 02:56:36 | 00:00:00 | |
| DB0UT-7 | 2026-09-04 02:17:13 | 51.76691 | 7.62461 | 106° | 111km/h | 6991m | -12.8m/s | -16.5°C | 78.9% | 428.4hPa | 2.5V | 00:00:00 | 02:56:36 | 00:00:00 | |
| AU51GT2 | 2026-09-04 02:17:12 | 51.76706 | 7.62375 | 105° | 110km/h | 7015m | -12.6m/s | 0°C | -1.0% | -1.0hPa | 2.5V | 00:00:00 | 00:00:00 | 00:00:00 | |
| DD1CC8 | 2026-09-04 02:17:10 | 51.76713 | 7.62331 | 105° | 110km/h | 7027m | -12.7m/s | -16.7°C | 76.7% | 426.5hPa | 2.5V | 00:00:00 | 00:00:00 | 00:00:00 | |
| DD1CC1-15 | 2026-09-04 02:17:09 | 51.76713 | 7.62331 | 107° | 111km/h | 7027m | -12.7m/s | -16.7°C | 76.7% | 426.5hPa | 2.5V | 08:00:00 | 00:00:00 | 00:00:00 | |
| BIOWL7-15 | 2026-09-04 02:17:08 | 51.76721 | 7.62287 | 107° | 111km/h | 7039m | -12.5m/s | -16.8°C | 77.5% | 425.9hPa | 2.5V | 08:00:00 | 00:00:00 | 00:00:00 | |
| DO3DL | 2026-09-04 02:17:07 | 51.76728 | 7.62243 | 107° | 113km/h | 7052m | -12.2m/s | -16.9°C | 78.3% | 425.2hPa | 2.5V | 08:00:00 | 00:00:00 | 00:00:00 | |
| DM0DOS-11 | 2026-09-04 02:17:04 | 51.76789 | 7.61843 | 102° | 108km/h | 7152m | -12.2m/s | -17.9°C | 89% | 419.3hPa | 2.5V | 08:00:32 | 02:56:22 | 00:00:00 | |
| BIOWL1-15 | 2026-09-04 02:17:04 | 51.76758 | 7.62065 | 104° | 113km/h | 7097m | -11.9m/s | -17.4°C | 85.5% | 422.5hPa | 2.5V | 08:00:57 | 02:56:27 | 00:00:00 | |
| DO2JMG | 2026-09-04 02:17:02 | 51.76771 | 7.61975 | 103° | 111km/h | 7119m | -11.3m/s | -17.6°C | 86.9% | 421.3hPa | 2.4V | 08:00:57 | 02:56:25 | 00:00:00 | |
| DL1XH-west | 2026-09-04 02:16:54 | 51.76819 | 7.61626 | 104° | 110km/h | 7211m | -13.4m/s | -18.5°C | 91.2% | 416.1hPa | 2.4V | 08:00:57 | 02:56:17 | 00:00:00 | |
| BIOWL1-15 | 2026-09-04 02:16:53 | 51.76826 | 7.61582 | 104° | 111km/h | 7224m | -12.9m/s | -18.6°C | 91.1% | 415.4hPa | 2.5V | 08:00:57 | 02:56:16 | 00:00:00 | |
| DO2JMG | 2026-09-04 02:16:51 | 51.76838 | 7.61494 | 104° | 111km/h | 7247m | -13.2m/s | -18.7°C | 89.4% | 414hPa | 2.4V | 08:00:57 | 02:56:14 | 00:00:00 | |
| DL1XH-west | 2026-09-04 02:16:44 | 51.76882 | 7.61182 | 101° | 111km/h | 7331m | -12.1m/s | -19.1°C | 83.7% | 409.5hPa | 2.4V | 08:00:57 | 02:56:07 | 00:00:00 | |
| BIOWL1-15 | 2026-09-04 02:16:42 | 51.76893 | 7.61092 | 101° | 111km/h | 7355m | -12.2m/s | -19.2°C | 80.2% | 408.2hPa | 2.5V | 08:00:57 | 02:56:05 | 00:00:00 | |
| DO2JMG | 2026-09-04 02:16:41 | 51.76898 | 7.61047 | 101° | 111km/h | 7366m | -11.8m/s | -19.3°C | 80.6% | 407.6hPa | 2.5V | 08:00:57 | 02:56:04 | 00:00:00 | |
| DL3AQ-11 | 2026-09-04 02:16:41 | 51.76904 | 7.61002 | 100° | 110km/h | 7377m | -12.2m/s | -19.3°C | 75.7% | 407.0hPa | 2.5V | 00:00:00 | 00:00:00 | 00:00:00 | |
| DO2KSM | 2026-09-04 02:16:37 | 51.76913 | 7.60913 | 102° | 110km/h | 7401m | -12.8m/s | -19.6°C | 77.2% | 405.7hPa | 2.5V | 08:00:00 | 00:00:00 | 00:00:00 | |
| DO9LL-15 | 2026-09-04 02:16:36 | 51.76924 | 7.60824 | 102° | 113km/h | 7425m | -12.5m/s | -19.7°C | 82.2% | 404.3hPa | 2.5V | 00:00:00 | 02:55:59 | 00:00:00 | |
| DO3DL | 2026-09-04 02:16:35 | 51.76924 | 7.60824 | 103° | 111km/h | 7425m | -12.5m/s | -19.8°C | 78.3% | 404.3hPa | 2.5V | 08:00:00 | 00:00:00 | 00:00:00 | |
| DM0DOS-11 | 2026-09-04 02:16:34 | 51.76966 | 7.60507 | 101° | 115km/h | 7508m | -12m/s | -20.6°C | 88.4% | 400hPa | 2.5V | 08:01:02 | 02:55:52 | 00:00:00 | |
| DL1XH-west | 2026-09-04 02:16:33 | 51.76942 | 7.60690 | 103° | 113km/h | 7460m | -12.3m/s | -20.1°C | 85.5% | 402.5hPa | 2.4V | 08:01:48 | 02:55:56 | 00:00:00 | |
| BIOWL1-15 | 2026-09-04 02:16:32 | 51.76948 | 7.60644 | 103° | 115km/h | 7473m | -12.2m/s | -20.2°C | 86% | 401.9hPa | 2.4V | 08:01:48 | 02:55:55 | 00:00:00 | |
| DO2JMG | 2026-09-04 02:16:30 | 51.76961 | 7.60553 | 103° | 115km/h | 7496m | -12m/s | -20.5°C | 87.1% | 400.5hPa | 2.5V | 08:01:48 | 02:55:53 | 00:00:00 | |
| DL3AQ-11 | 2026-09-04 02:16:30 | 51.76967 | 7.60507 | 101° | 113km/h | 7508m | -12.0m/s | -20.6°C | 84.1% | 400.0hPa | 2.5V | 00:00:00 | 00:00:00 | 00:00:00 | |
| BIOWL9-15 | 2026-09-04 02:16:28 | 51.76973 | 7.60462 | 102° | 115km/h | 7519m | -11.8m/s | -20.7°C | 85.0% | 399.3hPa | 2.5V | 00:00:00 | 00:00:00 | 00:00:00 | |
| BIOWL7-15 | 2026-09-04 02:16:25 | 51.76984 | 7.60370 | 102° | 113km/h | 7542m | -12.0m/s | -20.9°C | 87.0% | 398.1hPa | 2.5V | 08:01:00 | 00:00:00 | 00:00:00 | |
| DM0DOS-11 | 2026-09-04 02:16:24 | 51.77025 | 7.60058 | 102° | 111km/h | 7624m | -13.2m/s | -21.6°C | 93.6% | 393.6hPa | 2.5V | 08:01:12 | 02:55:42 | 00:00:00 | |
| DL1XH-west | 2026-09-04 02:16:23 | 51.77002 | 7.60235 | 101° | 110km/h | 7577m | -12.4m/s | -21.2°C | 91.5% | 396.1hPa | 2.5V | 08:01:48 | 02:55:46 | 00:00:00 | |
| BIOWL1-15 | 2026-09-04 02:16:21 | 51.77013 | 7.60147 | 102° | 110km/h | 7600m | -12.3m/s | -21.4°C | 91.4% | 394.9hPa | 2.4V | 08:01:48 | 02:55:44 | 00:00:00 | |
| DO2JMG | 2026-09-04 02:16:19 | 51.77025 | 7.60058 | 103° | 111km/h | 7624m | -13.2m/s | -21.6°C | 92.4% | 393.6hPa | 2.5V | 08:01:48 | 02:55:42 | 00:00:00 | |
| SONCRA | 2026-09-04 02:16:17 | 51.77037 | 7.59970 | 103° | 111km/h | 7649m | -12.4m/s | -21.8°C | 89.8% | 392.4hPa | 2.4V | 00:00:00 | 00:00:00 | 00:00:00 | |
| DO2KSM | 2026-09-04 02:16:16 | 51.77037 | 7.59969 | 105° | 113km/h | 7649m | -12.4m/s | -21.8°C | 89.8% | 392.4hPa | 2.4V | 00:00:00 | 00:00:00 | 00:00:00 | |
| HTAHTA | 2026-09-04 02:16:15 | 51.77073 | 7.59743 | 104° | 115km/h | 7710m | -12.5m/s | -22.4°C | 91.5% | 389.2hPa | 2.4V | 00:00:00 | 00:00:00 | 00:00:00 | |
| DM0DOS-11 | 2026-09-04 02:16:14 | 51.77097 | 7.59605 | 104° | 117km/h | 7746m | -12.8m/s | -22.6°C | 91.7% | 387.3hPa | 2.4V | 08:01:22 | 02:55:32 | 00:00:00 | |
| DL1XH-west | 2026-09-04 02:16:12 | 51.77073 | 7.59743 | 105° | 117km/h | 7710m | -12.5m/s | -22.4°C | 94% | 389.2hPa | 2.5V | 08:01:48 | 02:55:35 | 00:00:00 | |
| BIOWL1-15 | 2026-09-04 02:16:11 | 51.77081 | 7.59697 | 106° | 117km/h | 7722m | -12.6m/s | -22.4°C | 91.6% | 388.6hPa | 2.5V | 08:01:48 | 02:55:34 | 00:00:00 | |
| DO2JMG | 2026-09-04 02:16:08 | 51.77104 | 7.59559 | 103° | 117km/h | 7759m | -12m/s | -22.7°C | 90.2% | 386.6hPa | 2.4V | 08:01:48 | 02:55:31 | 00:00:00 | |
| DO9LL-15 | 2026-09-04 02:16:06 | 51.77118 | 7.59466 | 104° | 122km/h | 7782m | -11.9m/s | -22.9°C | 93.1% | 385.3hPa | 2.4V | 00:00:00 | 02:55:29 | 00:00:00 | |
| DM0DOS-11 | 2026-09-04 02:16:04 | 51.77168 | 7.59141 | 104° | 117km/h | 7861m | -12.7m/s | -23.6°C | 93.1% | 381.1hPa | 2.4V | 08:01:32 | 02:55:22 | 00:00:00 | |
| DL1XH-west | 2026-09-04 02:16:02 | 51.77146 | 7.59281 | 104° | 115km/h | 7827m | -11.9m/s | -23.3°C | 91.4% | 382.9hPa | 2.4V | 08:01:48 | 02:55:25 | 00:00:00 | |
| BIOWL1-15 | 2026-09-04 02:16:00 | 51.77160 | 7.59188 | 105° | 117km/h | 7850m | -12.4m/s | -23.5°C | 91.4% | 381.7hPa | 2.4V | 08:01:48 | 02:55:23 | 00:00:00 | |
| DO2JMG | 2026-09-04 02:15:57 | 51.77183 | 7.59047 | 106° | 119km/h | 7885m | -13m/s | -23.7°C | 87.4% | 379.9hPa | 2.5V | 08:01:48 | 02:55:20 | 00:00:00 | |
| DO1YAY-16 | 2026-09-04 02:15:55 | 51.77207 | 7.58905 | 106° | 120km/h | 7922m | -13.1m/s | -23.7°C | 79.1% | 378.1hPa | 2.5V | 00:00:00 | 00:00:00 | 00:00:00 | |
| DM0DOS-11 | 2026-09-04 02:15:54 | 51.77251 | 7.58662 | 108° | 128km/h | 7983m | -13m/s | -23.7°C | 74.9% | 374.9hPa | 2.5V | 08:01:42 | 02:55:12 | 00:00:00 | |
| DL1XH-west | 2026-09-04 02:15:52 | 51.77224 | 7.58809 | 106° | 124km/h | 7947m | -12.6m/s | -23.5°C | 77.4% | 376.7hPa | 2.4V | 08:01:48 | 02:55:15 | 00:00:00 | |
| BIOWL1-15 | 2026-09-04 02:15:49 | 51.77251 | 7.58662 | 108° | 128km/h | 7983m | -13m/s | -23.7°C | 77.3% | 374.9hPa | 2.5V | 08:01:48 | 02:55:12 | 00:00:00 | |
| DO2JMG | 2026-09-04 02:15:47 | 51.77271 | 7.58563 | 108° | 128km/h | 8008m | -12.4m/s | -23.9°C | 78.2% | 373.7hPa | 2.4V | 08:01:48 | 02:55:10 | 00:00:00 | |
| SONCRA | 2026-09-04 02:15:46 | 51.77281 | 7.58513 | 107° | 128km/h | 8021m | -12.2m/s | -24.0°C | 72.2% | 373.0hPa | 2.4V | 00:00:00 | 00:00:00 | 00:00:00 | |
| DL1XH-15 | 2026-09-04 02:15:45 | 51.77338 | 7.58209 | 106° | 128km/h | 8092m | -11.9m/s | -24.5°C | 73.9% | 369.3hPa | 2.4V | 08:01:51 | 02:55:03 | 00:00:00 | |
| GOEST3-10 | 2026-09-04 02:15:45 | 51.77291 | 7.58462 | 108° | 130km/h | 8032m | -12.1m/s | -24.1°C | 76.7% | 372.4hPa | 2.5V | 00:00:00 | 00:00:00 | 00:00:00 | |
| DM0DOS-11 | 2026-09-04 02:15:44 | 51.77348 | 7.58158 | 106° | 128km/h | 8104m | -12.1m/s | -24.6°C | 73.3% | 368.7hPa | 2.5V | 08:01:52 | 02:55:02 | 00:00:00 | |
| DL1XH-west | 2026-09-04 02:15:41 | 51.77329 | 7.58260 | 106° | 130km/h | 8081m | -12.4m/s | -24.5°C | 76.7% | 369.9hPa | 2.4V | 08:02:39 | 02:55:04 | 00:00:00 | |
| BIOWL1-15 | 2026-09-04 02:15:38 | 51.77357 | 7.58108 | 107° | 126km/h | 8116m | -12.4m/s | -24.7°C | 74.3% | 368.1hPa | 2.5V | 08:02:39 | 02:55:01 | 00:00:00 | |
| DO2JMG | 2026-09-04 02:15:37 | 51.77366 | 7.58059 | 107° | 126km/h | 8127m | -11.9m/s | -24.8°C | 74.4% | 367.5hPa | 2.5V | 08:02:39 | 02:55:00 | 00:00:00 | |
| DO9LL-15 | 2026-09-04 02:15:36 | 51.77376 | 7.58009 | 107° | 122km/h | 8139m | -12.3m/s | -24.8°C | 72.8% | 366.9hPa | 2.4V | 00:00:00 | 02:54:59 | 00:00:00 | |
| DM0DOS-11 | 2026-09-04 02:15:34 | 51.77438 | 7.57670 | 107° | 122km/h | 8225m | -12.8m/s | -25.6°C | 75.1% | 362.6hPa | 2.4V | 08:02:02 | 02:54:52 | 00:00:00 | |
| DL1XH-west | 2026-09-04 02:15:30 | 51.77429 | 7.57717 | 107° | 122km/h | 8213m | -13.1m/s | -25.5°C | 77% | 363.2hPa | 2.4V | 08:02:39 | 02:54:53 | 00:00:00 | |
| BIOWL1-15 | 2026-09-04 02:15:28 | 51.77447 | 7.57621 | 108° | 124km/h | 8237m | -13.3m/s | -25.7°C | 76.9% | 362.1hPa | 2.4V | 08:02:39 | 02:54:51 | 00:00:00 | |
| DL1XH-15 | 2026-09-04 02:15:27 | 51.77502 | 7.57333 | 105° | 122km/h | 8311m | -12.2m/s | -26°C | 72.8% | 358.5hPa | 2.4V | 08:02:09 | 02:54:45 | 00:00:00 | |
| DO2JMG | 2026-09-04 02:15:26 | 51.77466 | 7.57525 | 108° | 124km/h | 8263m | -12.7m/s | -25.7°C | 75.9% | 360.9hPa | 2.5V | 08:02:39 | 02:54:49 | 00:00:00 | |
| DM0DOS-11 | 2026-09-04 02:15:24 | 51.77526 | 7.57188 | 104° | 122km/h | 8347m | -11.8m/s | -26.2°C | 70.1% | 356.7hPa | 2.4V | 08:02:12 | 02:54:42 | 00:00:00 | |
| BIOWL1-15 | 2026-09-04 02:15:20 | 51.77535 | 7.57139 | 104° | 122km/h | 8359m | -11.8m/s | -26.3°C | 72.1% | 356.1hPa | 2.4V | 08:02:39 | 02:54:41 | 00:00:00 | |
| DL1XH-west | 2026-09-04 02:15:19 | 51.77527 | 7.57188 | 105° | 122km/h | 8347m | -11.8m/s | -26.2°C | 72.8% | 356.7hPa | 2.4V | 08:02:39 | 02:54:42 | 00:00:00 | |
| GOEST3-10 | 2026-09-04 02:15:19 | 51.77527 | 7.57188 | 105° | 120km/h | 8347m | -11.8m/s | -26.2°C | 70.1% | 356.7hPa | 2.4V | 00:00:00 | 02:54:42 | 00:00:00 | |
| BIOWL7-15 | 2026-09-04 02:15:18 | 51.77526 | 7.57188 | 106° | 122km/h | 8347m | -11.8m/s | -26.2°C | 65.9% | 356.7hPa | 2.4V | 08:02:00 | 00:00:00 | 00:00:00 | |
| SONCRA | 2026-09-04 02:15:15 | 51.77557 | 7.56996 | 104° | 119km/h | 8393m | -12.3m/s | -26.6°C | 66.3% | 354.4hPa | 2.4V | 00:00:00 | 00:00:00 | 00:00:00 | |
| DO2JMG | 2026-09-04 02:15:15 | 51.77557 | 7.56996 | 104° | 120km/h | 8393m | -12.3m/s | -26.6°C | 73.3% | 354.4hPa | 2.5V | 08:02:39 | 02:54:38 | 00:00:00 | |
| DM0DOS-11 | 2026-09-04 02:15:14 | 51.77605 | 7.56709 | 105° | 124km/h | 8467m | -12.6m/s | -27.1°C | 71.8% | 350.9hPa | 2.4V | 08:02:22 | 02:54:32 | 00:00:00 | |
| DL1XH-west | 2026-09-04 02:15:09 | 51.77605 | 7.56709 | 106° | 124km/h | 8467m | -12.6m/s | -27.2°C | 74.8% | 350.9hPa | 2.4V | 08:02:39 | 02:54:32 | 00:00:00 | |
| BIOWL1-15 | 2026-09-04 02:15:07 | 51.77621 | 7.56611 | 104° | 124km/h | 8491m | -12.4m/s | -27.4°C | 75.6% | 349.6hPa | 2.4V | 08:02:39 | 02:54:30 | 00:00:00 | |
| DO2JMG | 2026-09-04 02:15:05 | 51.77635 | 7.56512 | 103° | 122km/h | 8514m | -12.3m/s | -27.6°C | 76.1% | 348.5hPa | 2.5V | 08:02:39 | 02:54:28 | 00:00:00 | |
| DL1XH-west | 2026-09-04 02:14:58 | 51.77681 | 7.56177 | 102° | 119km/h | 8600m | -12.9m/s | -28.2°C | 74.3% | 344.4hPa | 2.4V | 08:02:39 | 02:54:21 | 00:00:00 | |
| BIOWL1-15 | 2026-09-04 02:14:57 | 51.77687 | 7.56130 | 103° | 119km/h | 8612m | -13.2m/s | -28.3°C | 73.9% | 343.8hPa | 2.4V | 08:02:39 | 02:54:20 | 00:00:00 | |
| DO2JMG | 2026-09-04 02:14:54 | 51.77707 | 7.55987 | 103° | 122km/h | 8651m | -12.9m/s | -28.6°C | 73.7% | 342.1hPa | 2.4V | 08:02:39 | 02:54:17 | 00:00:00 | |
| DO1YAY-16 | 2026-09-04 02:14:53 | 51.77720 | 7.55890 | 102° | 120km/h | 8676m | -12.2m/s | -28.8°C | 65.6% | 340.9hPa | 2.4V | 00:00:00 | 00:00:00 | 00:00:00 | |
| DO3DL | 2026-09-04 02:14:52 | 51.77713 | 7.55938 | 104° | 122km/h | 8664m | -12.6m/s | -28.7°C | 66.2% | 341.5hPa | 2.4V | 08:02:00 | 00:00:00 | 00:00:00 | |
| DL1XH-15 | 2026-09-04 02:14:51 | 51.77759 | 7.55599 | 101° | 122km/h | 8748m | -12.2m/s | -29.3°C | 65.5% | 337.4hPa | 2.4V | 08:02:45 | 02:54:09 | 00:00:00 | |
| DL1XH-west | 2026-09-04 02:14:48 | 51.77747 | 7.55696 | 102° | 122km/h | 8723m | -12.4m/s | -29.1°C | 69.9% | 338.6hPa | 2.5V | 08:03:30 | 02:54:11 | 00:00:00 | |
| BIOWL1-15 | 2026-09-04 02:14:46 | 51.77759 | 7.55599 | 102° | 122km/h | 8748m | -12.2m/s | -29.3°C | 69% | 337.4hPa | 2.4V | 08:03:30 | 02:54:09 | 00:00:00 | |
| DM0DOS-11 | 2026-09-04 02:14:44 | 51.77805 | 7.55262 | 102° | 119km/h | 8831m | -12.5m/s | -29.9°C | 64.1% | 333.4hPa | 2.4V | 08:02:52 | 02:54:02 | 00:00:00 | |
| DO2JMG | 2026-09-04 02:14:43 | 51.77778 | 7.55454 | 102° | 120km/h | 8783m | -12.1m/s | -29.6°C | 69.7% | 335.7hPa | 2.5V | 08:03:30 | 02:54:06 | 00:00:00 | |
| DJ2KF-10 | 2026-09-04 02:14:42 | 51.77785 | 7.55405 | 103° | 122km/h | 8795m | -12.1m/s | -29.6°C | 66.5% | 335.1hPa | 2.4V | 00:00:00 | 02:54:05 | 00:00:00 | |
| DL1XH-15 | 2026-09-04 02:14:41 | 51.77825 | 7.55120 | 103° | 120km/h | 8868m | -12.9m/s | -30.1°C | 62.7% | 331.8hPa | 2.4V | 08:02:55 | 02:53:59 | 00:00:00 | |
| DL1XH-west | 2026-09-04 02:14:37 | 51.77818 | 7.55168 | 103° | 119km/h | 8855m | -12.7m/s | -30.1°C | 66.8% | 332.4hPa | 2.5V | 08:03:30 | 02:54:00 | 00:00:00 | |
| BIOWL1-15 | 2026-09-04 02:14:35 | 51.77832 | 7.55072 | 104° | 122km/h | 8880m | -12.9m/s | -30.2°C | 66.4% | 331.2hPa | 2.4V | 08:03:30 | 02:53:58 | 00:00:00 | |
| DM0DOS-11 | 2026-09-04 02:14:34 | 51.77877 | 7.54779 | 102° | 124km/h | 8953m | -12.5m/s | -30.9°C | 63% | 327.8hPa | 2.4V | 08:03:02 | 02:53:52 | 00:00:00 | |
| DO2JMG | 2026-09-04 02:14:33 | 51.77847 | 7.54975 | 105° | 124km/h | 8905m | -12.5m/s | -30.5°C | 66.8% | 330.1hPa | 2.5V | 08:03:30 | 02:53:56 | 00:00:00 | |
| DO3DL | 2026-09-04 02:14:32 | 51.77847 | 7.54975 | 106° | 124km/h | 8905m | -12.5m/s | -30.5°C | 58.6% | 330.1hPa | 2.5V | 08:03:00 | 00:00:00 | 00:00:00 | |
| DL1XH-15 | 2026-09-04 02:14:31 | 51.77897 | 7.54630 | 101° | 124km/h | 8988m | -11.8m/s | -31.2°C | 61.7% | 326.1hPa | 2.5V | 08:03:05 | 02:53:49 | 00:00:00 | |
| DL1XH-west | 2026-09-04 02:14:27 | 51.77890 | 7.54680 | 102° | 124km/h | 8976m | -12m/s | -31.1°C | 65.7% | 326.7hPa | 2.5V | 08:03:30 | 02:53:50 | 00:00:00 | |
| BIOWL1-15 | 2026-09-04 02:14:25 | 51.77904 | 7.54580 | 102° | 124km/h | 9000m | -11.9m/s | -31.3°C | 63.8% | 325.6hPa | 2.5V | 08:03:30 | 02:53:48 | 00:00:00 | |
| DO2JMG | 2026-09-04 02:14:22 | 51.77923 | 7.54432 | 102° | 122km/h | 9035m | -12.5m/s | -31.5°C | 60% | 324hPa | 2.4V | 08:03:30 | 02:53:45 | 00:00:00 | |
| BIOWL1-15 | 2026-09-04 02:14:18 | 51.77975 | 7.54034 | 103° | 126km/h | 9134m | -12.6m/s | -32.3°C | 58.9% | 319.6hPa | 2.5V | 08:03:30 | 02:53:37 | 00:00:00 | |
| DL1XH-west | 2026-09-04 02:14:16 | 51.77961 | 7.54134 | 103° | 126km/h | 9109m | -12.8m/s | -32°C | 58.8% | 320.7hPa | 2.4V | 08:03:30 | 02:53:39 | 00:00:00 | |
| DL1CLM-18 | 2026-09-04 02:14:15 | 51.77961 | 7.54134 | 104° | 126km/h | 9109m | -12.8m/s | -32.0°C | 50.8% | 320.7hPa | 2.4V | 00:00:00 | 00:00:00 | 00:00:00 | |
| SONCRA | 2026-09-04 02:14:13 | 51.77982 | 7.53983 | 103° | 128km/h | 9146m | -12.8m/s | -32.4°C | 50.7% | 319.1hPa | 2.4V | 00:00:00 | 00:00:00 | 00:00:00 | |
| DJ2KF-10 | 2026-09-04 02:14:12 | 51.77989 | 7.53932 | 103° | 128km/h | 9160m | -12.6m/s | -32.4°C | 54.8% | 318.5hPa | 2.4V | 00:00:00 | 02:53:35 | 00:00:00 | |
| DL1XH-15 | 2026-09-04 02:14:11 | 51.78027 | 7.53620 | 100° | 128km/h | 9235m | -12.4m/s | -33.1°C | 55.8% | 315.2hPa | 2.4V | 08:03:25 | 02:53:29 | 00:00:00 | |
| DO2JMG | 2026-09-04 02:14:11 | 51.77996 | 7.53880 | 102° | 130km/h | 9172m | -12.6m/s | -32.6°C | 58.4% | 318hPa | 2.4V | 08:03:30 | 02:53:34 | 00:00:00 | |
| DL1XH-west | 2026-09-04 02:14:05 | 51.78033 | 7.53568 | 100° | 126km/h | 9247m | -12.7m/s | -33.2°C | 59.9% | 314.6hPa | 2.4V | 08:03:30 | 02:53:28 | 00:00:00 | |
| BIOWL1-15 | 2026-09-04 02:14:03 | 51.78045 | 7.53467 | 101° | 124km/h | 9271m | -12.8m/s | -33.4°C | 60.7% | 313.5hPa | 2.4V | 08:03:30 | 02:53:26 | 00:00:00 | |
| DD1CC1-15 | 2026-09-04 02:14:02 | 51.78045 | 7.53467 | 102° | 124km/h | 9271m | -12.8m/s | -33.4°C | 52.6% | 313.5hPa | 2.4V | 08:03:00 | 00:00:00 | 00:00:00 | |
| DL1XH-15 | 2026-09-04 02:14:01 | 51.78088 | 7.53117 | 102° | 126km/h | 9359m | -12.9m/s | -34.1°C | 52.4% | 309.7hPa | 2.4V | 08:03:35 | 02:53:19 | 00:00:00 | |
| DO2JMG | 2026-09-04 02:14:00 | 51.78062 | 7.53316 | 101° | 124km/h | 9309m | -12.8m/s | -33.8°C | 61% | 311.9hPa | 2.5V | 08:04:21 | 02:53:23 | 00:00:00 | |
| BIOWL1-15 | 2026-09-04 02:13:55 | 51.78108 | 7.52966 | 103° | 128km/h | 9397m | -12.2m/s | -34.3°C | 53% | 308.1hPa | 2.5V | 08:04:21 | 02:53:16 | 00:00:00 | |
| DL1XH-west | 2026-09-04 02:13:54 | 51.78101 | 7.53016 | 103° | 128km/h | 9384m | -12.7m/s | -34.2°C | 53% | 308.6hPa | 2.4V | 08:04:21 | 02:53:17 | 00:00:00 | |
| DO2JMG | 2026-09-04 02:13:49 | 51.78136 | 7.52763 | 102° | 128km/h | 9444m | -12.6m/s | -34.7°C | 51.5% | 305.8hPa | 2.4V | 08:04:21 | 02:53:12 | 00:00:00 | |
| DL1ZP-14 | 2026-09-04 02:13:49 | 51.78180 | 7.52406 | 100° | 124km/h | 9529m | -12.9m/s | -35.4°C | 38.8% | 302.1hPa | 2.4V | 00:00:00 | 00:00:00 | 00:00:00 | |
| DM0DOS-11 | 2026-09-04 02:13:44 | 51.78198 | 7.52255 | 100° | 124km/h | 9566m | -12.8m/s | -35.6°C | 39.2% | 300.6hPa | 2.4V | 08:03:52 | 02:53:02 | 00:00:00 | |
| BIOWL1-15 | 2026-09-04 02:13:44 | 51.78180 | 7.52406 | 101° | 126km/h | 9529m | -12.9m/s | -35.4°C | 46.8% | 302.1hPa | 2.4V | 08:04:21 | 02:53:05 | 00:00:00 | |
| DL1XH-west | 2026-09-04 02:13:43 | 51.78175 | 7.52457 | 101° | 126km/h | 9517m | -12.2m/s | -35.3°C | 47.7% | 302.6hPa | 2.4V | 08:04:21 | 02:53:06 | 00:00:00 | |
| DJ2KF-10 | 2026-09-04 02:13:42 | 51.78180 | 7.52406 | 101° | 124km/h | 9529m | -12.9m/s | -35.3°C | 42.8% | 302.1hPa | 2.4V | 00:00:00 | 02:53:05 | 00:00:00 | |
| DL1XH-15 | 2026-09-04 02:13:41 | 51.78216 | 7.52106 | 101° | 126km/h | 9604m | -12.7m/s | -35.9°C | 37.9% | 299hPa | 2.4V | 08:03:55 | 02:52:59 | 00:00:00 | |
| DO2JMG | 2026-09-04 02:13:38 | 51.78204 | 7.52205 | 101° | 124km/h | 9579m | -12.8m/s | -35.7°C | 42.8% | 300hPa | 2.4V | 08:04:21 | 02:53:01 | 00:00:00 | |
| DL8DAS-14 | 2026-09-04 02:13:37 | 51.78210 | 7.52156 | 101° | 124km/h | 9591m | -13.1m/s | -35.8°C | 34.4% | 299.5hPa | 2.5V | 00:00:00 | 00:00:00 | 00:00:00 | |
| BIOWL7-15 | 2026-09-04 02:13:36 | 51.78210 | 7.52156 | 102° | 124km/h | 9591m | -13.1m/s | -35.8°C | 34.4% | 299.5hPa | 2.5V | 00:00:00 | 00:00:00 | 00:00:00 | |
| DL1CLM-18 | 2026-09-04 02:13:35 | 51.78216 | 7.52106 | 103° | 126km/h | 9604m | -12.7m/s | -35.9°C | 34.1% | 299.0hPa | 2.5V | 00:00:00 | 00:00:00 | 00:00:00 | |
| DM0DOS-11 | 2026-09-04 02:13:34 | 51.78260 | 7.51751 | 100° | 126km/h | 9690m | -12.7m/s | -36.6°C | 37% | 295.3hPa | 2.5V | 08:04:02 | 02:52:52 | 00:00:00 | |
| DL1XH-west | 2026-09-04 02:13:33 | 51.78235 | 7.51955 | 102° | 126km/h | 9641m | -12.6m/s | -36.2°C | 40.8% | 297.3hPa | 2.4V | 08:04:21 | 02:52:56 | 00:00:00 | |
| BIOWL1-15 | 2026-09-04 02:13:32 | 51.78241 | 7.51904 | 102° | 128km/h | 9653m | -12.8m/s | -36.3°C | 40.5% | 296.8hPa | 2.4V | 08:04:21 | 02:52:55 | 00:00:00 | |
| DL1XH-15 | 2026-09-04 02:13:31 | 51.78278 | 7.51601 | 100° | 122km/h | 9728m | -12.9m/s | -36.9°C | 38.1% | 293.7hPa | 2.4V | 08:04:05 | 02:52:49 | 00:00:00 | |
| HSKMA3-T | 2026-09-04 02:13:30 | 51.78254 | 7.51802 | 101° | 126km/h | 9678m | -12.5m/s | 0°C | 0% | 0hPa | 2.5V | 18:12:15 | 02:52:53 | 00:00:00 | |
| DO2JMG | 2026-09-04 02:13:27 | 51.78272 | 7.51650 | 101° | 124km/h | 9715m | -12.9m/s | -36.8°C | 41.9% | 294.2hPa | 2.4V | 08:04:21 | 02:52:50 | 00:00:00 | |
| DO3DL | 2026-09-04 02:13:25 | 51.78278 | 7.51601 | 101° | 122km/h | 9728m | -12.9m/s | -36.9°C | 34.2% | 293.7hPa | 2.5V | 08:04:00 | 00:00:00 | 00:00:00 | |
| DM0DOS-11 | 2026-09-04 02:13:24 | 51.78320 | 7.51257 | 101° | 124km/h | 9816m | -12.6m/s | -37.7°C | 42% | 290hPa | 2.5V | 08:04:12 | 02:52:42 | 00:00:00 | |
| DL1XH-west | 2026-09-04 02:13:22 | 51.78301 | 7.51405 | 102° | 122km/h | 9779m | -13m/s | -37.3°C | 44.5% | 291.6hPa | 2.4V | 08:04:21 | 02:52:45 | 00:00:00 | |
| BIOWL1-15 | 2026-09-04 02:13:21 | 51.78307 | 7.51356 | 101° | 122km/h | 9792m | -13m/s | -37.5°C | 45% | 291.1hPa | 2.4V | 08:04:21 | 02:52:44 | 00:00:00 | |
| AA1-15 | 2026-09-04 02:13:19 | 51.78319 | 7.51257 | 102° | 124km/h | 9816m | -12.6m/s | -37.7°C | 46.1% | 290hPa | 2.5V | 08:06:03 | 02:52:42 | 00:00:00 | |
| HSKMA3-T | 2026-09-04 02:13:17 | 51.78333 | 7.51158 | 102° | 126km/h | 9841m | -12.5m/s | 0°C | 0% | 0hPa | 2.4V | 18:12:15 | 02:52:40 | 00:00:00 | |
| DO2JMG | 2026-09-04 02:13:16 | 51.78340 | 7.51108 | 102° | 126km/h | 9853m | -12.3m/s | -38°C | 47.7% | 288.5hPa | 2.4V | 08:04:21 | 02:52:39 | 00:00:00 | |
| DM0DOS-11 | 2026-09-04 02:13:14 | 51.78387 | 7.50757 | 102° | 126km/h | 9940m | -12.5m/s | -38.9°C | 47% | 284.8hPa | 2.4V | 08:04:22 | 02:52:32 | 00:00:00 | |
| DL1XH-west | 2026-09-04 02:13:11 | 51.78373 | 7.50857 | 102° | 126km/h | 9915m | -12.4m/s | -38.6°C | 50.1% | 285.9hPa | 2.4V | 08:04:21 | 02:52:34 | 00:00:00 | |
| DO2JMG | 2026-09-04 02:13:05 | 51.78416 | 7.50557 | 103° | 124km/h | 9988m | -12.8m/s | -39.3°C | 51.1% | 282.8hPa | 2.4V | 08:05:12 | 02:52:28 | 00:00:00 | |
| BUE01 | 2026-09-04 02:13:05 | 51.78423 | 7.50507 | 102° | 122km/h | 10000m | -13.0m/s | -39.4°C | 42.7% | 282.2hPa | 2.4V | 00:00:00 | 00:00:00 | 00:00:00 | |
| DL1XH-15 | 2026-09-04 02:13:02 | 51.78474 | 7.50163 | 104° | 126km/h | 10090m | -12.9m/s | -40.1°C | 44.9% | 278.7hPa | 2.4V | 08:04:34 | 02:52:20 | 00:00:00 | |
| BIOWL1-15 | 2026-09-04 02:13:01 | 51.78445 | 7.50359 | 103° | 122km/h | 10038m | -13.2m/s | -39.7°C | 50.2% | 280.7hPa | 2.5V | 08:05:12 | 02:52:24 | 00:00:00 | |
| DL1XH-west | 2026-09-04 02:13:00 | 51.78452 | 7.50311 | 104° | 122km/h | 10051m | -13.3m/s | -39.8°C | 49.7% | 280.2hPa | 2.4V | 08:05:12 | 02:52:23 | 00:00:00 | |
| DF5WG-10 | 2026-09-04 02:13:00 | 51.78452 | 7.50310 | 104° | 126km/h | 10051m | -13.2m/s | -39.8°C | 46.1% | 280.2hPa | 2.4V | 00:00:00 | 02:52:23 | 00:00:00 | |
| DJ3KS | 2026-09-04 02:12:59 | 51.78452 | 7.50310 | 105° | 122km/h | 10051m | -13.3m/s | -39.8°C | 41.3% | 280.2hPa | 2.4V | 00:00:00 | 00:00:00 | 00:00:00 | |
| GOEST3-10 | 2026-09-04 02:12:56 | 51.78482 | 7.50114 | 105° | 128km/h | 10104m | -12.8m/s | -40.2°C | 44.8% | 278.1hPa | 2.4V | 00:00:00 | 00:00:00 | 00:00:00 | |
| DM0DOS-11 | 2026-09-04 02:12:54 | 51.78538 | 7.49763 | 103° | 128km/h | 10191m | -12.8m/s | -41°C | 44.2% | 274.6hPa | 2.4V | 08:04:42 | 02:52:12 | 00:00:00 | |
| DO2JMG | 2026-09-04 02:12:54 | 51.78498 | 7.50014 | 105° | 128km/h | 10129m | -12.8m/s | -40.5°C | 48.3% | 277.1hPa | 2.4V | 08:05:12 | 02:52:17 | 00:00:00 | |
| BIOWL1-15 | 2026-09-04 02:12:53 | 51.78523 | 7.49864 | 104° | 128km/h | 10166m | -12.9m/s | -40.8°C | 47.8% | 275.6hPa | 2.5V | 08:05:12 | 02:52:14 | 00:00:00 | |
| DB0ND-19 | 2026-09-04 02:12:53 | 51.78507 | 7.49964 | 104° | 126km/h | 10141m | -12.9m/s | -40.6°C | 39.4% | 276.6hPa | 2.4V | 00:00:00 | 00:00:00 | 00:00:00 | |
| DL1XH-15 | 2026-09-04 02:12:52 | 51.78553 | 7.49662 | 103° | 128km/h | 10216m | -13m/s | -41.2°C | 44.8% | 273.5hPa | 2.4V | 08:04:44 | 02:52:10 | 00:00:00 | |
| DL1XH-west | 2026-09-04 02:12:49 | 51.78538 | 7.49763 | 104° | 128km/h | 10191m | -12.8m/s | -41°C | 48% | 274.6hPa | 2.4V | 08:05:12 | 02:52:12 | 00:00:00 | |
| DO1YAY-16 | 2026-09-04 02:12:48 | 51.78546 | 7.49713 | 103° | 126km/h | 10203m | -12.8m/s | -41.1°C | 39.6% | 274.0hPa | 2.4V | 00:00:00 | 00:00:00 | 00:00:00 | |
| DO3DL | 2026-09-04 02:12:47 | 51.78546 | 7.49712 | 105° | 128km/h | 10203m | -12.8m/s | -41.1°C | 39.6% | 274.0hPa | 2.4V | 08:05:00 | 00:00:00 | 00:00:00 | |
| GOEST3-10 | 2026-09-04 02:12:46 | 51.78560 | 7.49611 | 103° | 124km/h | 10228m | -12.8m/s | -41.3°C | 45.1% | 273.0hPa | 2.4V | 08:04:00 | 00:00:00 | 00:00:00 | |
| DM0DOS-11 | 2026-09-04 02:12:44 | 51.78609 | 7.49264 | 103° | 124km/h | 10318m | -12.8m/s | -42.2°C | 46.6% | 269.5hPa | 2.5V | 08:04:52 | 02:52:02 | 00:00:00 | |
| DO2JMG | 2026-09-04 02:12:43 | 51.78582 | 7.49461 | 103° | 124km/h | 10266m | -13.1m/s | -41.7°C | 49.7% | 271.6hPa | 2.4V | 08:05:12 | 02:52:06 | 00:00:00 | |
| DJ2DS-15 | 2026-09-04 02:12:43 | 51.78590 | 7.49412 | 102° | 122km/h | 10278m | -13.3m/s | -41.9°C | 41.0% | 271.0hPa | 2.4V | 00:00:00 | 00:00:00 | 00:00:00 | |
| DL1XH-15 | 2026-09-04 02:12:42 | 51.78623 | 7.49166 | 103° | 124km/h | 10343m | -12.9m/s | -42.4°C | 46.9% | 268.5hPa | 2.4V | 08:04:54 | 02:52:00 | 00:00:00 | |
| BIOWL1-15 | 2026-09-04 02:12:40 | 51.78604 | 7.49313 | 103° | 122km/h | 10304m | -13.2m/s | -42.1°C | 50.2% | 270hPa | 2.4V | 08:05:12 | 02:52:03 | 00:00:00 | |
| DL1XH-west | 2026-09-04 02:12:38 | 51.78616 | 7.49215 | 103° | 124km/h | 10331m | -12.8m/s | -42.3°C | 50.6% | 269hPa | 2.5V | 08:05:12 | 02:52:01 | 00:00:00 | |
| GOEST3-10 | 2026-09-04 02:12:36 | 51.78630 | 7.49116 | 104° | 128km/h | 10356m | -13.1m/s | -42.5°C | 47.0% | 268.0hPa | 2.4V | 00:00:00 | 00:00:00 | 00:00:00 | |
| DL8DAS-14 | 2026-09-04 02:12:35 | 51.78638 | 7.49066 | 103° | 126km/h | 10368m | -13.0m/s | -42.7°C | 41.7% | 267.5hPa | 2.4V | 00:00:00 | 00:00:00 | 00:00:00 | |
| DM0DOS-11 | 2026-09-04 02:12:34 | 51.78685 | 7.48763 | 103° | 130km/h | 10445m | -12.7m/s | -43.4°C | 47.1% | 264.5hPa | 2.4V | 08:05:02 | 02:51:52 | 00:00:00 | |
| DO2JMG | 2026-09-04 02:12:32 | 51.78661 | 7.48916 | 104° | 128km/h | 10407m | -12.9m/s | -43°C | 51% | 266hPa | 2.4V | 08:05:12 | 02:51:55 | 00:00:00 | |
| BIOWL1-15 | 2026-09-04 02:12:30 | 51.78677 | 7.48815 | 104° | 130km/h | 10432m | -12.7m/s | -43.3°C | 50.9% | 265hPa | 2.4V | 08:05:12 | 02:51:53 | 00:00:00 | |
| DL1XH-west | 2026-09-04 02:12:28 | 51.78692 | 7.48712 | 103° | 130km/h | 10457m | -12.5m/s | -43.5°C | 50.7% | 264hPa | 2.5V | 08:05:12 | 02:51:51 | 00:00:00 | |
| HSKMA3-T | 2026-09-04 02:12:26 | 51.78707 | 7.48609 | 103° | 130km/h | 10482m | -12.6m/s | 0°C | 0% | 0hPa | 2.4V | 18:12:15 | 02:51:49 | 00:00:00 | |
| GOEST3-10 | 2026-09-04 02:12:26 | 51.78707 | 7.48609 | 103° | 130km/h | 10482m | -12.5m/s | -43.6°C | 47.0% | 263.0hPa | 2.4V | 00:00:00 | 00:00:00 | 00:00:00 | |
| DM0DOS-11 | 2026-09-04 02:12:24 | 51.78760 | 7.48246 | 102° | 130km/h | 10569m | -12.6m/s | -44.3°C | 46% | 259.7hPa | 2.4V | 08:05:12 | 02:51:42 | 00:00:00 | |
| DL1CLM-18 | 2026-09-04 02:12:23 | 51.78723 | 7.48505 | 104° | 130km/h | 10507m | -12.3m/s | -43.9°C | 41.3% | 262.1hPa | 2.4V | 00:00:00 | 00:00:00 | 00:00:00 | |
| DL1XH-15 | 2026-09-04 02:12:22 | 51.78773 | 7.48144 | 102° | 128km/h | 10594m | -12.7m/s | -44.6°C | 47.4% | 258.8hPa | 2.4V | 08:05:14 | 02:51:40 | 00:00:00 | |
| DO2JMG | 2026-09-04 02:12:22 | 51.78738 | 7.48402 | 102° | 130km/h | 10532m | -12.4m/s | -44.1°C | 50.1% | 261.1hPa | 2.5V | 08:05:12 | 02:51:45 | 00:00:00 | |
| BIOWL1-15 | 2026-09-04 02:12:21 | 51.78760 | 7.48246 | 103° | 130km/h | 10569m | -12.6m/s | -44.3°C | 50.2% | 259.7hPa | 2.4V | 08:05:12 | 02:51:42 | 00:00:00 | |
| DL1XH-west | 2026-09-04 02:12:17 | 51.78774 | 7.48144 | 103° | 128km/h | 10594m | -12.7m/s | -44.6°C | 51.5% | 258.8hPa | 2.4V | 08:06:03 | 02:51:40 | 00:00:00 | |
| GOEST3-10 | 2026-09-04 02:12:16 | 51.78781 | 7.48093 | 103° | 128km/h | 10607m | -12.4m/s | -44.6°C | 47.9% | 258.2hPa | 2.5V | 00:00:00 | 00:00:00 | 00:00:00 | |
| DL1ZP-14 | 2026-09-04 02:12:15 | 51.78788 | 7.48042 | 102° | 126km/h | 10619m | -12.6m/s | -44.8°C | 42.8% | 257.8hPa | 2.5V | 00:00:00 | 00:00:00 | 00:00:00 | |
| DM0DOS-11 | 2026-09-04 02:12:14 | 51.78832 | 7.47739 | 104° | 128km/h | 10691m | -12.5m/s | -45.4°C | 55.4% | 255.1hPa | 2.4V | 08:05:22 | 02:51:32 | 00:00:00 | |
| DL3AQ-11 | 2026-09-04 02:12:13 | 51.78802 | 7.47941 | 103° | 126km/h | 10643m | -12.4m/s | -45.0°C | 44.2% | 256.9hPa | 2.4V | 00:00:00 | 00:00:00 | 00:00:00 | |
| DL1XH-15 | 2026-09-04 02:12:12 | 51.78849 | 7.47638 | 105° | 130km/h | 10715m | -12.4m/s | -45.6°C | 58.1% | 254.1hPa | 2.4V | 08:05:24 | 02:51:30 | 00:00:00 | |
| BIOWL1-15 | 2026-09-04 02:12:12 | 51.78840 | 7.47689 | 105° | 130km/h | 10703m | -12.5m/s | -45.5°C | 61.2% | 254.6hPa | 2.4V | 08:06:03 | 02:51:31 | 00:00:00 | |
| DO2JMG | 2026-09-04 02:12:11 | 51.78817 | 7.47840 | 104° | 128km/h | 10667m | -12.4m/s | -45.2°C | 56.7% | 255.9hPa | 2.5V | 08:06:03 | 02:51:34 | 00:00:00 | |
| DL1XH-west | 2026-09-04 02:12:06 | 51.78858 | 7.47587 | 106° | 130km/h | 10728m | -12.5m/s | -45.7°C | 63.4% | 253.6hPa | 2.4V | 08:06:03 | 02:51:29 | 00:00:00 | |
| DM0DOS-11 | 2026-09-04 02:12:04 | 51.78923 | 7.47231 | 106° | 131km/h | 10814m | -12.5m/s | -46.5°C | 64.8% | 250.4hPa | 2.5V | 08:05:32 | 02:51:22 | 00:00:00 | |
| DL1XH-15 | 2026-09-04 02:12:02 | 51.78941 | 7.47128 | 105° | 131km/h | 10840m | -12.7m/s | -46.7°C | 65.5% | 249.4hPa | 2.4V | 08:05:34 | 02:51:20 | 00:00:00 | |
| DO2JMG | 2026-09-04 02:12:00 | 51.78913 | 7.47282 | 107° | 131km/h | 10802m | -12.3m/s | -46.4°C | 68.5% | 250.8hPa | 2.4V | 08:06:03 | 02:51:23 | 00:00:00 | |
| BIOWL1-15 | 2026-09-04 02:11:57 | 51.78941 | 7.47128 | 106° | 131km/h | 10840m | -12.7m/s | -46.7°C | 69.8% | 249.4hPa | 2.4V | 08:06:03 | 02:51:20 | 00:00:00 | |
| DL1XH-west | 2026-09-04 02:11:56 | 51.78950 | 7.47076 | 106° | 131km/h | 10852m | -12.7m/s | -46.8°C | 70.3% | 248.9hPa | 2.4V | 08:06:03 | 02:51:19 | 00:00:00 | |
| DM0DOS-11 | 2026-09-04 02:11:54 | 51.79016 | 7.46715 | 106° | 130km/h | 10940m | -12.7m/s | -47.6°C | 70% | 245.7hPa | 2.4V | 08:05:42 | 02:51:12 | 00:00:00 | |
| DL1XH-15 | 2026-09-04 02:11:52 | 51.79034 | 7.46612 | 106° | 130km/h | 10965m | -12.6m/s | -47.9°C | 71.2% | 244.8hPa | 2.5V | 08:05:44 | 02:51:10 | 00:00:00 | |
| DO2JMG | 2026-09-04 02:11:50 | 51.79006 | 7.46766 | 106° | 130km/h | 10928m | -12.5m/s | -47.5°C | 73.7% | 246.2hPa | 2.4V | 08:06:03 | 02:51:13 | 00:00:00 | |
| BIOWL1-15 | 2026-09-04 02:11:47 | 51.79034 | 7.46612 | 106° | 130km/h | 10965m | -12.6m/s | -47.9°C | 75.3% | 244.8hPa | 2.5V | 08:06:03 | 02:51:10 | 00:00:00 | |
| DL1XH-west | 2026-09-04 02:11:45 | 51.79052 | 7.46511 | 107° | 130km/h | 10989m | -12.8m/s | -48.1°C | 76.4% | 243.8hPa | 2.4V | 08:06:03 | 02:51:08 | 00:00:00 | |
| DL1ZP-14 | 2026-09-04 02:11:44 | 51.79062 | 7.46460 | 106° | 128km/h | 11001m | -12.6m/s | -48.2°C | 64.9% | 243.4hPa | 2.4V | 00:00:00 | 00:00:00 | 00:00:00 | |
| DL1XH-15 | 2026-09-04 02:11:42 | 51.79129 | 7.46105 | 107° | 131km/h | 11089m | -12.4m/s | -48.9°C | 74.7% | 240.3hPa | 2.4V | 08:05:54 | 02:51:00 | 00:00:00 | |
| DO2JMG | 2026-09-04 02:11:40 | 51.79099 | 7.46258 | 107° | 131km/h | 11051m | -12.7m/s | -48.6°C | 78.6% | 241.6hPa | 2.4V | 08:06:03 | 02:51:03 | 00:00:00 | |
| HSKMA3-T | 2026-09-04 02:11:36 | 51.79138 | 7.46054 | 108° | 133km/h | 11101m | -12.4m/s | 0°C | 0% | 0hPa | 2.5V | 18:12:15 | 02:50:59 | 00:00:00 | |
| DL1XH-west | 2026-09-04 02:11:34 | 51.79159 | 7.45951 | 108° | 133km/h | 11126m | -12.5m/s | -49.3°C | 79.5% | 238.9hPa | 2.4V | 08:06:03 | 02:50:57 | 00:00:00 | |
| DO9LL-15 | 2026-09-04 02:11:33 | 51.79169 | 7.45899 | 108° | 133km/h | 11139m | -12.2m/s | -49.4°C | 75.4% | 238.4hPa | 2.4V | 00:00:00 | 02:50:56 | 00:00:00 | |
| DL1XH-15 | 2026-09-04 02:11:32 | 51.79230 | 7.45586 | 106° | 135km/h | 11211m | -12.1m/s | -50.1°C | 75% | 235.8hPa | 2.4V | 08:06:04 | 02:50:50 | 00:00:00 | |
| DO2JMG | 2026-09-04 02:11:30 | 51.79200 | 7.45743 | 107° | 135km/h | 11175m | -11.8m/s | -49.8°C | 79.4% | 237.1hPa | 2.5V | 08:06:03 | 02:50:53 | 00:00:00 | |
| BIOWL1-15 | 2026-09-04 02:11:28 | 51.79240 | 7.45534 | 107° | 135km/h | 11222m | -12.2m/s | -50.2°C | 79% | 235.3hPa | 2.4V | 08:06:54 | 02:50:49 | 00:00:00 | |
| AA1-15 | 2026-09-04 02:11:27 | 51.79230 | 7.45586 | 107° | 135km/h | 11211m | -12.1m/s | -50.1°C | 79.1% | 235.8hPa | 2.4V | 08:07:45 | 02:50:50 | 00:00:00 | |
| DL1XH-west | 2026-09-04 02:11:23 | 51.79269 | 7.45375 | 106° | 135km/h | 11258m | -12.1m/s | -50.5°C | 78.5% | 234hPa | 2.4V | 08:06:54 | 02:50:46 | 00:00:00 | |
| DO2JMG | 2026-09-04 02:11:19 | 51.79307 | 7.45164 | 106° | 133km/h | 11308m | -12.5m/s | -51°C | 78.1% | 232.3hPa | 2.5V | 08:06:54 | 02:50:42 | 00:00:00 | |
| BIOWL1-15 | 2026-09-04 02:11:17 | 51.79343 | 7.44957 | 106° | 131km/h | 11357m | -12.5m/s | -51.5°C | 79% | 230.5hPa | 2.4V | 08:06:54 | 02:50:38 | 00:00:00 | |
| AA1-15 | 2026-09-04 02:11:16 | 51.79334 | 7.45009 | 106° | 131km/h | 11345m | -12.6m/s | -51.3°C | 78.7% | 231hPa | 2.4V | 08:07:45 | 02:50:39 | 00:00:00 | |
| DL1XH-west | 2026-09-04 02:11:13 | 51.79362 | 7.44853 | 106° | 133km/h | 11383m | -12.6m/s | -51.7°C | 79.5% | 229.6hPa | 2.5V | 08:06:54 | 02:50:36 | 00:00:00 | |
| HSKMA3-T | 2026-09-04 02:11:12 | 51.79371 | 7.44801 | 107° | 133km/h | 11395m | -12.7m/s | 0°C | 0% | 0hPa | 2.5V | 18:12:15 | 02:50:35 | 00:00:00 | |
| DO2JMG | 2026-09-04 02:11:09 | 51.79400 | 7.44645 | 107° | 133km/h | 11434m | -12.6m/s | -52.2°C | 80.4% | 227.9hPa | 2.4V | 08:06:54 | 02:50:32 | 00:00:00 | |
| AA1-15 | 2026-09-04 02:11:05 | 51.79440 | 7.44437 | 107° | 135km/h | 11484m | -12.2m/s | -52.6°C | 80.9% | 226.2hPa | 2.4V | 08:07:45 | 02:50:28 | 00:00:00 | |
| DM0DOS-11 | 2026-09-04 02:11:04 | 51.79496 | 7.44120 | 105° | 133km/h | 11558m | -12.3m/s | -53.3°C | 77.5% | 223.6hPa | 2.4V | 08:06:32 | 02:50:22 | 00:00:00 | |
| BIOWL1-15 | 2026-09-04 02:11:04 | 51.79450 | 7.44384 | 106° | 135km/h | 11497m | -12.4m/s | -52.7°C | 81% | 225.8hPa | 2.4V | 08:06:54 | 02:50:27 | 00:00:00 | |
| DL1XH-west | 2026-09-04 02:11:03 | 51.79460 | 7.44331 | 105° | 135km/h | 11509m | -12.4m/s | -52.9°C | 81% | 225.3hPa | 2.4V | 08:06:54 | 02:50:26 | 00:00:00 | |
| DO9LL-15 | 2026-09-04 02:11:03 | 51.79460 | 7.44331 | 106° | 131km/h | 11509m | -12.4m/s | -52.8°C | 77.4% | 225.3hPa | 2.4V | 00:00:00 | 02:50:26 | 00:00:00 | |
| DL1XH-15 | 2026-09-04 02:11:02 | 51.79514 | 7.44015 | 105° | 133km/h | 11582m | -12.4m/s | -53.5°C | 77.5% | 222.8hPa | 2.4V | 08:06:34 | 02:50:20 | 00:00:00 | |
| HSKMA3-T | 2026-09-04 02:11:01 | 51.79478 | 7.44225 | 106° | 133km/h | 11533m | -12.5m/s | 0°C | 0% | 0hPa | 2.5V | 18:12:15 | 02:50:24 | 00:00:00 | |
| DO2JMG | 2026-09-04 02:10:58 | 51.79505 | 7.44068 | 106° | 133km/h | 11570m | -12.3m/s | -53.4°C | 80.9% | 223.2hPa | 2.4V | 08:06:54 | 02:50:21 | 00:00:00 | |
| AA1-15 | 2026-09-04 02:10:55 | 51.79533 | 7.43910 | 105° | 131km/h | 11606m | -12.2m/s | -53.8°C | 81.1% | 221.9hPa | 2.5V | 08:07:45 | 02:50:18 | 00:00:00 | |
| DJ2DS-15 | 2026-09-04 02:10:55 | 51.79542 | 7.43858 | 105° | 130km/h | 11618m | -12.5m/s | -53.9°C | 67.8% | 221.6hPa | 2.5V | 00:00:00 | 00:00:00 | 00:00:00 | |
| DM0DOS-11 | 2026-09-04 02:10:54 | 51.79586 | 7.43600 | 105° | 130km/h | 11679m | -12.5m/s | -54.5°C | 77.7% | 219.4hPa | 2.5V | 08:06:42 | 02:50:12 | 00:00:00 | |
| BIOWL1-15 | 2026-09-04 02:10:53 | 51.79551 | 7.43807 | 105° | 130km/h | 11630m | -12.4m/s | -54°C | 81.3% | 221.1hPa | 2.4V | 08:06:54 | 02:50:16 | 00:00:00 | |
| DB0NH | 2026-09-04 02:10:53 | 51.79551 | 7.43807 | 106° | 131km/h | 11630m | -12.3m/s | -54.0°C | 77.6% | 221.1hPa | 2.4V | 00:00:00 | 02:50:16 | 00:00:00 | |
| DL1XH-15 | 2026-09-04 02:10:52 | 51.79604 | 7.43497 | 105° | 130km/h | 11703m | -12.5m/s | -54.7°C | 77.4% | 218.6hPa | 2.4V | 08:06:44 | 02:50:10 | 00:00:00 | |
| DL1XH-west | 2026-09-04 02:10:52 | 51.79559 | 7.43755 | 105° | 130km/h | 11642m | -12.5m/s | -54.1°C | 81.3% | 220.7hPa | 2.4V | 08:06:54 | 02:50:15 | 00:00:00 | |
| HSKMA3-T | 2026-09-04 02:10:51 | 51.79568 | 7.43703 | 106° | 130km/h | 11654m | -12.4m/s | 0°C | 0% | 0hPa | 2.4V | 18:12:15 | 02:50:14 | 00:00:00 | |
| DO2JMG | 2026-09-04 02:10:48 | 51.79595 | 7.43549 | 106° | 130km/h | 11691m | -12.5m/s | -54.6°C | 81% | 219hPa | 2.4V | 08:06:54 | 02:50:11 | 00:00:00 | |
| BIOWL9-15 | 2026-09-04 02:10:47 | 51.79613 | 7.43446 | 105° | 130km/h | 11716m | -12.5m/s | -54.9°C | 67.2% | 218.1hPa | 2.4V | 00:00:00 | 00:00:00 | 00:00:00 | |
| GOEST3-10 | 2026-09-04 02:10:46 | 51.79613 | 7.43446 | 106° | 130km/h | 11716m | -12.4m/s | -54.8°C | 77.3% | 218.1hPa | 2.4V | 08:06:00 | 00:00:00 | 00:00:00 | |
| DK5PH-5 | 2026-09-04 02:10:45 | 51.79621 | 7.43395 | 106° | 133km/h | 11728m | -12.3m/s | -54.9°C | 77.3% | 217.7hPa | 2.4V | 00:00:00 | 02:50:08 | 00:00:00 | |
| DM0DOS-11 | 2026-09-04 02:10:44 | 51.79676 | 7.43086 | 106° | 131km/h | 11802m | -12.4m/s | -55.7°C | 75.6% | 215.2hPa | 2.4V | 08:06:52 | 02:50:02 | 00:00:00 | |
| DL1XH-west | 2026-09-04 02:10:42 | 51.79648 | 7.43240 | 106° | 130km/h | 11765m | -12.3m/s | -55.3°C | 79.9% | 216.5hPa | 2.4V | 08:06:54 | 02:50:05 | 00:00:00 | |
| DO2JMG | 2026-09-04 02:10:38 | 51.79685 | 7.43034 | 106° | 131km/h | 11814m | -12.4m/s | -55.8°C | 78.2% | 214.8hPa | 2.5V | 08:06:54 | 02:50:01 | 00:00:00 | |
| DF2AP-13 | 2026-09-04 02:10:37 | 51.79694 | 7.42983 | 107° | 133km/h | 11827m | -12.2m/s | -55.8°C | 74.8% | 214.3hPa | 2.4V | 00:00:00 | 02:50:00 | 00:00:00 | |
| GOEST3-10 | 2026-09-04 02:10:36 | 51.79703 | 7.42931 | 107° | 133km/h | 11840m | -12.3m/s | -56.0°C | 74.5% | 214.0hPa | 2.4V | 00:00:00 | 00:00:00 | 00:00:00 | |
| DM0DOS-11 | 2026-09-04 02:10:34 | 51.79771 | 7.42567 | 106° | 135km/h | 11927m | -12.5m/s | -56.8°C | 72.9% | 211.1hPa | 2.4V | 08:07:02 | 02:49:52 | 00:00:00 | |
| BIOWL1-15 | 2026-09-04 02:10:32 | 51.79741 | 7.42724 | 107° | 135km/h | 11890m | -12.2m/s | -56.5°C | 76.5% | 212.3hPa | 2.5V | 08:07:45 | 02:49:55 | 00:00:00 | |
| DO2JMG | 2026-09-04 02:10:27 | 51.79791 | 7.42462 | 106° | 135km/h | 11953m | -12.5m/s | -57.1°C | 75.1% | 210.3hPa | 2.4V | 08:07:45 | 02:49:50 | 00:00:00 | |
| DD1CC3-15 | 2026-09-04 02:10:26 | 51.79791 | 7.42462 | 107° | 135km/h | 11953m | -12.5m/s | -57.1°C | 62.2% | 210.3hPa | 2.4V | 08:07:00 | 00:00:00 | 00:00:00 | |
| DM0DOS-11 | 2026-09-04 02:10:24 | 51.79865 | 7.42040 | 104° | 133km/h | 12053m | -12.6m/s | -58°C | 71.2% | 206.9hPa | 2.4V | 08:07:12 | 02:49:42 | 00:00:00 | |
| DL1XH-15 | 2026-09-04 02:10:22 | 51.79882 | 7.41934 | 104° | 133km/h | 12077m | -12.6m/s | -58.3°C | 71.1% | 206.1hPa | 2.4V | 08:07:14 | 02:49:40 | 00:00:00 | |
| BIOWL1-15 | 2026-09-04 02:10:21 | 51.79846 | 7.42146 | 105° | 133km/h | 12028m | -12.4m/s | -57.8°C | 73.9% | 207.8hPa | 2.5V | 08:07:45 | 02:49:44 | 00:00:00 | |
| DO2JMG | 2026-09-04 02:10:16 | 51.79891 | 7.41881 | 105° | 133km/h | 12090m | -12.7m/s | -58.4°C | 72.7% | 205.7hPa | 2.4V | 08:07:45 | 02:49:39 | 00:00:00 | |
| BIOWL9-15 | 2026-09-04 02:10:16 | 51.79899 | 7.41829 | 104° | 131km/h | 12102m | -12.9m/s | -58.5°C | 60.6% | 205.3hPa | 2.5V | 00:00:00 | 00:00:00 | 00:00:00 | |
| DJ2KF-10 | 2026-09-04 02:10:15 | 51.79899 | 7.41829 | 105° | 133km/h | 12102m | -12.9m/s | -58.5°C | 71.2% | 205.3hPa | 2.5V | 00:00:00 | 02:49:38 | 00:00:00 | |
| DM0DOS-11 | 2026-09-04 02:10:14 | 51.79949 | 7.41515 | 104° | 130km/h | 12179m | -12.8m/s | -59.2°C | 70.4% | 202.9hPa | 2.5V | 08:07:22 | 02:49:32 | 00:00:00 | |
| DB0UT-7 | 2026-09-04 02:10:13 | 51.79916 | 7.41723 | 105° | 133km/h | 12128m | -12.7m/s | -58.7°C | 71.1% | 204.4hPa | 2.4V | 08:07:00 | 00:00:00 | 00:00:00 | |
| DL1XH-15 | 2026-09-04 02:10:12 | 51.79966 | 7.41412 | 104° | 130km/h | 12204m | -12.8m/s | -59.5°C | 69.8% | 202hPa | 2.4V | 08:07:24 | 02:49:30 | 00:00:00 | |
| DL1XH-west | 2026-09-04 02:10:11 | 51.79933 | 7.41619 | 104° | 130km/h | 12153m | -12.7m/s | -59°C | 71.3% | 203.7hPa | 2.4V | 08:07:45 | 02:49:34 | 00:00:00 | |
| DO2JMG | 2026-09-04 02:10:06 | 51.79974 | 7.41361 | 105° | 130km/h | 12217m | -12.8m/s | -59.6°C | 69.4% | 201.6hPa | 2.4V | 08:07:45 | 02:49:29 | 00:00:00 | |
| DD1CC3-15 | 2026-09-04 02:10:06 | 51.79966 | 7.41412 | 106° | 130km/h | 12204m | -12.8m/s | -59.5°C | 59.0% | 202.0hPa | 2.4V | 08:07:00 | 00:00:00 | 00:00:00 | |
| SONCRA | 2026-09-04 02:10:05 | 51.79983 | 7.41309 | 104° | 128km/h | 12229m | -12.7m/s | -59.7°C | 58.3% | 201.2hPa | 2.4V | 00:00:00 | 00:00:00 | 00:00:00 | |
| GOEST3-10 | 2026-09-04 02:10:04 | 51.79992 | 7.41258 | 106° | 130km/h | 12242m | -12.6m/s | -59.8°C | 69.1% | 200.7hPa | 2.4V | 00:00:00 | 02:49:27 | 00:00:00 | |
| DM0DOS-11 | 2026-09-04 02:10:03 | 51.80046 | 7.40950 | 105° | 130km/h | 12319m | -12.5m/s | -60.4°C | 67% | 198.4hPa | 2.5V | 08:07:33 | 02:49:21 | 00:00:00 | |
| DO9LL-15 | 2026-09-04 02:10:03 | 51.80000 | 7.41206 | 106° | 139km/h | 12255m | -12.7m/s | -59.9°C | 69.1% | 200.3hPa | 2.5V | 00:00:00 | 02:49:26 | 00:00:00 | |
| DL1XH-15 | 2026-09-04 02:10:02 | 51.80056 | 7.40898 | 106° | 130km/h | 12333m | -12.7m/s | -60.5°C | 66.6% | 198hPa | 2.5V | 08:07:34 | 02:49:20 | 00:00:00 | |
| DL1XH-west | 2026-09-04 02:10:00 | 51.80028 | 7.41052 | 106° | 130km/h | 12293m | -12.8m/s | -60.3°C | 66.9% | 199.2hPa | 2.4V | 08:07:45 | 02:49:23 | 00:00:00 | |
| AA1-15 | 2026-09-04 02:09:57 | 51.80055 | 7.40898 | 106° | 130km/h | 12333m | -12.7m/s | -60.5°C | 65.7% | 198hPa | 2.5V | 08:07:45 | 02:49:20 | 00:00:00 | |
| DO2JMG | 2026-09-04 02:09:55 | 51.80075 | 7.40795 | 106° | 131km/h | 12359m | -12.6m/s | -60.6°C | 64.9% | 197.2hPa | 2.4V | 08:07:45 | 02:49:18 | 00:00:00 | |
| DB0NH | 2026-09-04 02:09:54 | 51.80084 | 7.40743 | 107° | 148km/h | 12372m | -12.8m/s | -60.6°C | 65.7% | 196.8hPa | 2.4V | 00:00:00 | 02:49:17 | 00:00:00 | |
| DM0DOS-11 | 2026-09-04 02:09:53 | 51.80144 | 7.40421 | 106° | 141km/h | 12447m | -12.3m/s | -60.9°C | 62.4% | 194.4hPa | 2.4V | 08:07:43 | 02:49:11 | 00:00:00 | |
| GOEST3-10 | 2026-09-04 02:09:53 | 51.80094 | 7.40691 | 107° | 137km/h | 12384m | -12.5m/s | -60.5°C | 64.4% | 196.4hPa | 2.4V | 00:00:00 | 02:49:16 | 00:00:00 | |
| DL1XH-15 | 2026-09-04 02:09:52 | 51.80154 | 7.40366 | 106° | 142km/h | 12460m | -12.3m/s | -61°C | 62.3% | 194.1hPa | 2.4V | 08:07:44 | 02:49:10 | 00:00:00 | |
| BIOWL1-15 | 2026-09-04 02:09:51 | 51.80134 | 7.40476 | 106° | 137km/h | 12435m | -12.6m/s | -60.8°C | 63.7% | 194.8hPa | 2.4V | 08:07:45 | 02:49:12 | 00:00:00 | |
| DL1XH-west | 2026-09-04 02:09:50 | 51.80124 | 7.40530 | 107° | 139km/h | 12422m | -12.6m/s | -60.7°C | 63.8% | 195.2hPa | 2.4V | 08:07:45 | 02:49:13 | 00:00:00 | |
| DO2JMG | 2026-09-04 02:09:45 | 51.80175 | 7.40255 | 107° | 141km/h | 12484m | -12.4m/s | -61.2°C | 62.9% | 193.3hPa | 2.5V | 08:08:36 | 02:49:08 | 00:00:00 | |
| AA1-15 | 2026-09-04 02:09:44 | 51.80185 | 7.40199 | 107° | 144km/h | 12497m | -12.4m/s | -61.3°C | 62.5% | 192.8hPa | 2.4V | 08:09:27 | 02:49:07 | 00:00:00 | |
| DL4XJ-10 | 2026-09-04 02:09:44 | 51.80186 | 7.40199 | 107° | 148km/h | 12497m | -12.3m/s | 0°C | 0% | 0hPa | 2.4V | 00:00:00 | 00:00:00 | 00:00:00 | |
| DB0UT-7 | 2026-09-04 02:09:43 | 51.80196 | 7.40142 | 108° | 146km/h | 12509m | -12.3m/s | -61.2°C | 61.2% | 192.4hPa | 2.4V | 00:00:00 | 02:49:06 | 00:00:00 | |
| DL1XH-15 | 2026-09-04 02:09:42 | 51.80259 | 7.39800 | 106° | 150km/h | 12584m | -12.2m/s | -61.7°C | 59.4% | 190.2hPa | 2.4V | 08:07:54 | 02:49:00 | 00:00:00 | |
| BIOWL1-15 | 2026-09-04 02:09:40 | 51.80249 | 7.39857 | 106° | 144km/h | 12571m | -12.4m/s | -61.6°C | 61% | 190.5hPa | 2.4V | 08:08:36 | 02:49:01 | 00:00:00 | |
| DL1XH-west | 2026-09-04 02:09:39 | 51.80238 | 7.39914 | 107° | 148km/h | 12559m | -12.8m/s | -61.5°C | 61.3% | 190.9hPa | 2.4V | 08:08:36 | 02:49:02 | 00:00:00 | |
| DO2JMG | 2026-09-04 02:09:34 | 51.80291 | 7.39627 | 106° | 148km/h | 12620m | -11.9m/s | -62°C | 59.9% | 189.1hPa | 2.5V | 08:08:36 | 02:48:57 | 00:00:00 | |
| SONCRA | 2026-09-04 02:09:34 | 51.80301 | 7.39569 | 106° | 144km/h | 12632m | -11.7m/s | -62.1°C | 48.0% | 188.7hPa | 2.5V | 00:00:00 | 00:00:00 | 00:00:00 | |
| DM0DOS-11 | 2026-09-04 02:09:33 | 51.80352 | 7.39283 | 106° | 146km/h | 12690m | -11.8m/s | -62.7°C | 57.1% | 186.9hPa | 2.5V | 08:08:03 | 02:48:51 | 00:00:00 | |
| AA1-15 | 2026-09-04 02:09:33 | 51.80301 | 7.39569 | 106° | 146km/h | 12632m | -11.7m/s | -62.1°C | 59.6% | 188.7hPa | 2.4V | 08:09:27 | 02:48:56 | 00:00:00 | |
| DL1XH-west | 2026-09-04 02:09:28 | 51.80352 | 7.39283 | 107° | 146km/h | 12690m | -11.8m/s | -62.7°C | 57.8% | 186.9hPa | 2.5V | 08:08:36 | 02:48:51 | 00:00:00 | |
| BIOWL1-15 | 2026-09-04 02:09:27 | 51.80363 | 7.39226 | 106° | 144km/h | 12702m | -11.6m/s | -62.8°C | 57.4% | 186.6hPa | 2.4V | 08:08:36 | 02:48:50 | 00:00:00 | |
| DO2JMG | 2026-09-04 02:09:24 | 51.80393 | 7.39055 | 106° | 142km/h | 12737m | -11.8m/s | -63.1°C | 56.2% | 185.5hPa | 2.5V | 08:08:36 | 02:48:47 | 00:00:00 | |
| DM0DOS-11 | 2026-09-04 02:09:23 | 51.80454 | 7.38715 | 105° | 144km/h | 12807m | -11.7m/s | -63.8°C | 53.4% | 183.4hPa | 2.5V | 08:08:13 | 02:48:41 | 00:00:00 | |
| AA1-15 | 2026-09-04 02:09:22 | 51.80413 | 7.38942 | 107° | 146km/h | 12760m | -11.9m/s | -63.4°C | 55.4% | 184.7hPa | 2.4V | 08:09:27 | 02:48:45 | 00:00:00 | |
| DL1XH-west | 2026-09-04 02:09:17 | 51.80464 | 7.38658 | 107° | 146km/h | 12819m | -11.6m/s | -63.9°C | 52.9% | 183hPa | 2.5V | 08:08:36 | 02:48:40 | 00:00:00 | |
| BIOWL1-15 | 2026-09-04 02:09:16 | 51.80474 | 7.38601 | 106° | 144km/h | 12830m | -11.7m/s | -64°C | 52.3% | 182.6hPa | 2.4V | 08:08:36 | 02:48:39 | 00:00:00 | |
| DO2JMG | 2026-09-04 02:09:13 | 51.80506 | 7.38430 | 106° | 144km/h | 12865m | -11.9m/s | -64.4°C | 50.9% | 181.6hPa | 2.4V | 08:08:36 | 02:48:36 | 00:00:00 | |
| DO3DL | 2026-09-04 02:09:13 | 51.80506 | 7.38430 | 107° | 144km/h | 12865m | -11.9m/s | -64.3°C | 40.8% | 181.6hPa | 2.5V | 08:08:00 | 00:00:00 | 00:00:00 | |
| DL1XH-15 | 2026-09-04 02:09:12 | 51.80570 | 7.38088 | 106° | 144km/h | 12935m | -11.8m/s | -65°C | 48.6% | 179.5hPa | 2.5V | 08:08:24 | 02:48:30 | 00:00:00 | |
| AA1-15 | 2026-09-04 02:09:11 | 51.80527 | 7.38316 | 107° | 148km/h | 12888m | -11.9m/s | -64.6°C | 49.9% | 180.9hPa | 2.5V | 08:09:27 | 02:48:34 | 00:00:00 | |
| BIOWL1-15 | 2026-09-04 02:09:09 | 51.80592 | 7.37973 | 108° | 146km/h | 12960m | -12m/s | -65.2°C | 46.7% | 178.8hPa | 2.4V | 08:08:36 | 02:48:28 | 00:00:00 | |
| DL1XH-west | 2026-09-04 02:09:07 | 51.80570 | 7.38088 | 107° | 144km/h | 12935m | -11.8m/s | -65°C | 47.8% | 179.5hPa | 2.5V | 08:08:36 | 02:48:30 | 00:00:00 | |
| DO2JMG | 2026-09-04 02:09:03 | 51.80614 | 7.37859 | 108° | 150km/h | 12983m | -11.9m/s | -65.4°C | 45.9% | 178.1hPa | 2.4V | 08:08:36 | 02:48:26 | 00:00:00 | |
| SONCRA | 2026-09-04 02:09:03 | 51.80625 | 7.37801 | 107° | 146km/h | 12995m | -11.7m/s | -65.5°C | 36.5% | 177.8hPa | 2.4V | 00:00:00 | 00:00:00 | 00:00:00 | |
| DL1XH-15 | 2026-09-04 02:09:02 | 51.80684 | 7.37512 | 109° | 151km/h | 13052m | -12m/s | -66°C | 44.8% | 176.1hPa | 2.4V | 08:08:34 | 02:48:20 | 00:00:00 | |
| AA1-15 | 2026-09-04 02:09:01 | 51.80636 | 7.37744 | 107° | 148km/h | 13006m | -11.7m/s | -65.6°C | 45% | 177.4hPa | 2.5V | 08:09:27 | 02:48:24 | 00:00:00 | |
| DL1XH-west | 2026-09-04 02:08:57 | 51.80684 | 7.37512 | 109° | 151km/h | 13052m | -12m/s | -66°C | 43% | 176.1hPa | 2.4V | 08:08:36 | 02:48:20 | 00:00:00 | |
| BIOWL1-15 | 2026-09-04 02:08:55 | 51.80708 | 7.37396 | 109° | 153km/h | 13076m | -11.8m/s | -66.2°C | 42% | 175.4hPa | 2.5V | 08:08:36 | 02:48:18 | 00:00:00 | |
| DL3AQ-11 | 2026-09-04 02:08:54 | 51.80733 | 7.37279 | 108° | 151km/h | 13099m | -11.9m/s | -66.4°C | 33.1% | 174.7hPa | 2.4V | 00:00:00 | 00:00:00 | 00:00:00 | |
| DM0DOS-11 | 2026-09-04 02:08:53 | 51.80796 | 7.36991 | 109° | 150km/h | 13159m | -11.8m/s | -66.8°C | 42.6% | 173hPa | 2.4V | 08:08:43 | 02:48:11 | 00:00:00 | |
| DO2JMG | 2026-09-04 02:08:52 | 51.80746 | 7.37221 | 110° | 151km/h | 13110m | -12.1m/s | -66.5°C | 40.7% | 174.4hPa | 2.4V | 08:09:27 | 02:48:15 | 00:00:00 | |
| DL1XH-west | 2026-09-04 02:08:47 | 51.80809 | 7.36933 | 110° | 153km/h | 13171m | -12m/s | -66.9°C | 38.6% | 172.7hPa | 2.4V | 08:09:27 | 02:48:10 | 00:00:00 | |
| BIOWL1-15 | 2026-09-04 02:08:44 | 51.80849 | 7.36759 | 111° | 153km/h | 13206m | -11.9m/s | -67.2°C | 37.5% | 171.7hPa | 2.5V | 08:09:27 | 02:48:07 | 00:00:00 | |
| DB0UT-7 | 2026-09-04 02:08:43 | 51.80862 | 7.36701 | 111° | 150km/h | 13218m | -11.8m/s | -67.2°C | 42.4% | 171.3hPa | 2.4V | 00:00:00 | 02:48:06 | 00:00:00 | |
| DL1XH-15 | 2026-09-04 02:08:42 | 51.80950 | 7.36346 | 113° | 157km/h | 13290m | -11.6m/s | -67.8°C | 41.7% | 169.3hPa | 2.4V | 08:08:54 | 02:48:00 | 00:00:00 | |
| DO2JMG | 2026-09-04 02:08:42 | 51.80876 | 7.36643 | 112° | 153km/h | 13231m | -11.9m/s | -67.4°C | 36.8% | 171hPa | 2.4V | 08:09:27 | 02:48:05 | 00:00:00 | |
| DL1XH-west | 2026-09-04 02:08:36 | 51.80966 | 7.36288 | 113° | 157km/h | 13302m | -11.8m/s | -67.8°C | 34.8% | 169hPa | 2.4V | 08:09:27 | 02:47:59 | 00:00:00 | |
| BIOWL1-15 | 2026-09-04 02:08:35 | 51.81015 | 7.36111 | 116° | 157km/h | 13337m | -11.6m/s | -68°C | 34% | 168hPa | 2.5V | 08:09:27 | 02:47:56 | 00:00:00 | |
| DJ3KS | 2026-09-04 02:08:34 | 51.80982 | 7.36228 | 115° | 161km/h | 13314m | -11.7m/s | -67.9°C | 30.9% | 168.7hPa | 2.4V | 08:09:00 | 00:00:00 | 00:00:00 | |
| DM0DOS-11 | 2026-09-04 02:08:33 | 51.81101 | 7.35827 | 116° | 155km/h | 13395m | -11.6m/s | -67.6°C | 39.2% | 166.4hPa | 2.4V | 08:09:03 | 02:47:51 | 00:00:00 | |
| DO2JMG | 2026-09-04 02:08:31 | 51.81049 | 7.35996 | 116° | 155km/h | 13360m | -11.5m/s | -67.9°C | 33.2% | 167.4hPa | 2.4V | 08:09:27 | 02:47:54 | 00:00:00 | |
| AA1-15 | 2026-09-04 02:08:29 | 51.81084 | 7.35883 | 117° | 153km/h | 13383m | -11.6m/s | -67.7°C | 31.8% | 166.8hPa | 2.4V | 08:09:27 | 02:47:52 | 00:00:00 | |
| DL1XH-west | 2026-09-04 02:08:25 | 51.81154 | 7.35660 | 118° | 151km/h | 13430m | -11.6m/s | -67°C | 28.9% | 165.5hPa | 2.5V | 08:09:27 | 02:47:48 | 00:00:00 | |
| DH3RM | 2026-09-04 02:08:24 | 51.81154 | 7.35660 | 119° | 151km/h | 13430m | -11.6m/s | -67.0°C | 26.4% | 165.5hPa | 2.4V | 08:09:00 | 00:00:00 | 00:00:00 | |
| DM0DOS-11 | 2026-09-04 02:08:23 | 51.81271 | 7.35293 | 116° | 141km/h | 13511m | -11.8m/s | -67.1°C | 31.9% | 163.2hPa | 2.4V | 08:09:13 | 02:47:41 | 00:00:00 | |
| GOEST3-10 | 2026-09-04 02:08:23 | 51.81189 | 7.35552 | 118° | 144km/h | 13453m | -11.5m/s | -66.9°C | 35.2% | 164.8hPa | 2.4V | 00:00:00 | 02:47:46 | 00:00:00 | |
| DL1XH-15 | 2026-09-04 02:08:22 | 51.81286 | 7.35242 | 115° | 141km/h | 13524m | -11.6m/s | -67°C | 30.8% | 162.9hPa | 2.4V | 08:09:14 | 02:47:40 | 00:00:00 | |
| BIOWL1-15 | 2026-09-04 02:08:22 | 51.81206 | 7.35500 | 118° | 144km/h | 13465m | -11.5m/s | -66.9°C | 26.5% | 164.5hPa | 2.4V | 08:09:27 | 02:47:45 | 00:00:00 | |
| DO2JMG | 2026-09-04 02:08:20 | 51.81239 | 7.35396 | 117° | 141km/h | 13487m | -11.7m/s | -67°C | 24.9% | 163.9hPa | 2.5V | 08:09:27 | 02:47:43 | 00:00:00 | |
| AA1-15 | 2026-09-04 02:08:18 | 51.81271 | 7.35293 | 116° | 141km/h | 13511m | -11.8m/s | -67.1°C | 23.1% | 163.3hPa | 2.4V | 08:09:27 | 02:47:41 | 00:00:00 | |
| DL1XH-west | 2026-09-04 02:08:14 | 51.81330 | 7.35088 | 115° | 133km/h | 13558m | -11.5m/s | -67.1°C | 19.4% | 162hPa | 2.5V | 08:09:27 | 02:47:37 | 00:00:00 | |
| DB0ND-19 | 2026-09-04 02:08:14 | 51.81345 | 7.35039 | 116° | 133km/h | 13570m | -11.8m/s | -67.0°C | 17.7% | 161.7hPa | 2.5V | 00:00:00 | 00:00:00 | 00:00:00 | |
| DJ2KF-10 | 2026-09-04 02:08:13 | 51.81345 | 7.35039 | 117° | 113km/h | 13570m | -11.8m/s | -67.0°C | 26.8% | 161.7hPa | 2.5V | 00:00:00 | 02:47:36 | 00:00:00 | |
| DL1XH-15 | 2026-09-04 02:08:12 | 51.81431 | 7.34760 | 116° | 120km/h | 13641m | -11.8m/s | -64.6°C | 16.8% | 159.8hPa | 2.5V | 08:09:24 | 02:47:30 | 00:00:00 | |
| BIOWL1-15 | 2026-09-04 02:08:11 | 51.81375 | 7.34942 | 116° | 128km/h | 13594m | -12.1m/s | -66.6°C | 16.2% | 161hPa | 2.4V | 08:09:27 | 02:47:34 | 00:00:00 | |
| DO2JMG | 2026-09-04 02:08:10 | 51.81389 | 7.34895 | 117° | 124km/h | 13605m | -12.1m/s | -66.1°C | 15% | 160.7hPa | 2.4V | 08:09:27 | 02:47:33 | 00:00:00 | |
| AA1-15 | 2026-09-04 02:08:08 | 51.81417 | 7.34805 | 116° | 122km/h | 13629m | -11.8m/s | -65.2°C | 13% | 160.1hPa | 2.5V | 08:09:27 | 02:47:31 | 00:00:00 | |
| DL1XH-west | 2026-09-04 02:08:03 | 51.81484 | 7.34587 | 118° | 117km/h | 13688m | -11.7m/s | -63.8°C | 10.5% | 158.6hPa | 2.4V | 08:10:18 | 02:47:26 | 00:00:00 | |
| DO9LL-15 | 2026-09-04 02:08:03 | 51.81484 | 7.34587 | 119° | 110km/h | 13688m | -11.6m/s | -63.8°C | 15.0% | 158.5hPa | 2.4V | 08:09:00 | 02:47:26 | 00:00:00 | |
| DL1XH-15 | 2026-09-04 02:08:02 | 51.81560 | 7.34346 | 114° | 108km/h | 13758m | -12.2m/s | -61.4°C | 11.1% | 156.7hPa | 2.4V | 08:09:34 | 02:47:20 | 00:00:00 | |
| BIOWL1-15 | 2026-09-04 02:08:02 | 51.81524 | 7.34464 | 116° | 110km/h | 13723m | -11.9m/s | -62.1°C | 9.2% | 157.7hPa | 2.5V | 08:10:18 | 02:47:23 | 00:00:00 | |
| DO2JMG | 2026-09-04 02:07:59 | 51.81537 | 7.34424 | 116° | 106km/h | 13735m | -11.9m/s | -61.8°C | 8.9% | 157.3hPa | 2.5V | 08:10:18 | 02:47:22 | 00:00:00 | |
| AA1-15 | 2026-09-04 02:07:57 | 51.81560 | 7.34346 | 114° | 108km/h | 13758m | -12.3m/s | -61.4°C | 8.6% | 156.8hPa | 2.4V | 08:11:09 | 02:47:20 | 00:00:00 | |
| BUE01 | 2026-09-04 02:07:54 | 51.81592 | 7.34228 | 112° | 106km/h | 13795m | -12.2m/s | -61.4°C | 6.3% | 155.8hPa | 2.4V | 00:00:00 | 00:00:00 | 00:00:00 | |
| DM0DOS-11 | 2026-09-04 02:07:53 | 51.81651 | 7.33982 | 110° | 108km/h | 13868m | -12m/s | -61.7°C | 10.9% | 154hPa | 2.4V | 08:09:43 | 02:47:11 | 00:00:00 | |
| DL1XH-west | 2026-09-04 02:07:52 | 51.81612 | 7.34148 | 112° | 108km/h | 13819m | -12m/s | -61.4°C | 8.1% | 155.3hPa | 2.5V | 08:10:18 | 02:47:15 | 00:00:00 | |
| BIOWL1-15 | 2026-09-04 02:07:50 | 51.81632 | 7.34066 | 111° | 108km/h | 13844m | -12.1m/s | -61.5°C | 8.1% | 154.7hPa | 2.5V | 08:10:18 | 02:47:13 | 00:00:00 | |
| DO2JMG | 2026-09-04 02:07:48 | 51.81651 | 7.33982 | 111° | 110km/h | 13868m | -12m/s | -61.7°C | 7.9% | 154hPa | 2.4V | 08:10:18 | 02:47:11 | 00:00:00 | |
| AA1-15 | 2026-09-04 02:07:47 | 51.81672 | 7.33898 | 111° | 110km/h | 13892m | -12m/s | -61.9°C | 7.8% | 153.4hPa | 2.4V | 08:11:09 | 02:47:09 | 00:00:00 | |
| DO3DL | 2026-09-04 02:07:46 | 51.81662 | 7.33940 | 113° | 113km/h | 13880m | -12.2m/s | -61.8°C | 6.2% | 153.7hPa | 2.4V | 08:10:00 | 00:00:00 | 00:00:00 | |
| DK5PH-5 | 2026-09-04 02:07:45 | 51.81682 | 7.33855 | 113° | 110km/h | 13904m | -12.1m/s | -61.9°C | 10.9% | 153.1hPa | 2.4V | 00:00:00 | 02:47:08 | 00:00:00 | |
| DM0DOS-11 | 2026-09-04 02:07:43 | 51.81754 | 7.33558 | 111° | 111km/h | 13989m | -12.4m/s | -62.1°C | 10.3% | 151.1hPa | 2.4V | 08:09:53 | 02:47:01 | 00:00:00 | |
| DL1XH-west | 2026-09-04 02:07:42 | 51.81713 | 7.33729 | 111° | 110km/h | 13941m | -12.2m/s | -62.1°C | 7.5% | 152.3hPa | 2.5V | 08:10:18 | 02:47:05 | 00:00:00 | |
| BIOWL1-15 | 2026-09-04 02:07:39 | 51.81744 | 7.33601 | 111° | 111km/h | 13977m | -12.1m/s | -62.1°C | 7.1% | 151.4hPa | 2.4V | 08:10:18 | 02:47:02 | 00:00:00 | |
| DO2JMG | 2026-09-04 02:07:38 | 51.81754 | 7.33558 | 111° | 113km/h | 13989m | -12.5m/s | -62.2°C | 6.9% | 151.1hPa | 2.4V | 08:10:18 | 02:47:01 | 00:00:00 | |
| AA1-15 | 2026-09-04 02:07:36 | 51.81773 | 7.33473 | 110° | 113km/h | 14014m | -12.3m/s | -62.3°C | 6.7% | 150.4hPa | 2.5V | 08:11:09 | 02:46:59 | 00:00:00 | |
| DH3RM | 2026-09-04 02:07:35 | 51.81773 | 7.33473 | 111° | 113km/h | 14014m | -12.3m/s | -62.3°C | 5.6% | 150.4hPa | 2.5V | 08:10:00 | 00:00:00 | 00:00:00 | |
| DM0DOS-11 | 2026-09-04 02:07:33 | 51.81846 | 7.33131 | 108° | 111km/h | 14111m | -12.3m/s | -61.4°C | 9.2% | 148.1hPa | 2.5V | 08:10:03 | 02:46:51 | 00:00:00 | |
| DO9LL-15 | 2026-09-04 02:07:33 | 51.81802 | 7.33345 | 111° | 106km/h | 14050m | -12.3m/s | -61.8°C | 9.8% | 149.5hPa | 2.5V | 00:00:00 | 02:46:56 | 00:00:00 | |
| DL1XH-15 | 2026-09-04 02:07:32 | 51.81854 | 7.33088 | 107° | 111km/h | 14124m | -12.3m/s | -61.5°C | 9.1% | 147.8hPa | 2.5V | 08:10:04 | 02:46:50 | 00:00:00 | |
| DL1XH-west | 2026-09-04 02:07:31 | 51.81820 | 7.33260 | 109° | 111km/h | 14075m | -12.2m/s | -61.5°C | 5.9% | 149hPa | 2.4V | 08:10:18 | 02:46:54 | 00:00:00 | |
| BIOWL1-15 | 2026-09-04 02:07:28 | 51.81846 | 7.33131 | 108° | 111km/h | 14111m | -12.4m/s | -61.4°C | 5.7% | 148.1hPa | 2.5V | 08:10:18 | 02:46:51 | 00:00:00 | |
| DO2JMG | 2026-09-04 02:07:27 | 51.81854 | 7.33088 | 107° | 111km/h | 14124m | -12.3m/s | -61.5°C | 5.6% | 147.8hPa | 2.5V | 08:10:18 | 02:46:50 | 00:00:00 | |
| AA1-15 | 2026-09-04 02:07:26 | 51.81863 | 7.33044 | 109° | 113km/h | 14136m | -12.3m/s | -61.5°C | 5.6% | 147.5hPa | 2.5V | 08:11:09 | 02:46:49 | 00:00:00 | |
| DB0NH | 2026-09-04 02:07:26 | 51.81863 | 7.33044 | 109° | 102km/h | 14136m | -12.2m/s | -61.4°C | 9.2% | 147.5hPa | 2.5V | 00:00:00 | 02:46:49 | 00:00:00 | |
| DL8DAS-14 | 2026-09-04 02:07:25 | 51.81872 | 7.33001 | 108° | 110km/h | 14148m | -12.2m/s | -61.5°C | 4.7% | 147.2hPa | 2.5V | 00:00:00 | 00:00:00 | 00:00:00 | |
| DM0DOS-11 | 2026-09-04 02:07:23 | 51.81931 | 7.32706 | 107° | 106km/h | 14234m | -12.3m/s | -61.7°C | 9.1% | 145.2hPa | 2.5V | 08:10:13 | 02:46:41 | 00:00:00 | |
| GOEST3-10 | 2026-09-04 02:07:23 | 51.81890 | 7.32914 | 110° | 108km/h | 14173m | -12.5m/s | -61.6°C | 9.2% | 146.6hPa | 2.4V | 00:00:00 | 02:46:46 | 00:00:00 | |
| DL1XH-15 | 2026-09-04 02:07:22 | 51.81939 | 7.32665 | 106° | 106km/h | 14246m | -12.2m/s | -61.7°C | 9.1% | 144.9hPa | 2.4V | 08:10:14 | 02:46:40 | 00:00:00 | |
| DL1XH-west | 2026-09-04 02:07:21 | 51.81906 | 7.32830 | 108° | 110km/h | 14197m | -12.3m/s | -61.7°C | 5.3% | 146.1hPa | 2.4V | 08:10:18 | 02:46:44 | 00:00:00 | |
| BIOWL1-15 | 2026-09-04 02:07:18 | 51.81931 | 7.32706 | 108° | 106km/h | 14234m | -12.3m/s | -61.7°C | 5.1% | 145.2hPa | 2.5V | 08:10:18 | 02:46:41 | 00:00:00 | |
| DO2JMG | 2026-09-04 02:07:17 | 51.81939 | 7.32665 | 107° | 106km/h | 14246m | -12.2m/s | -61.7°C | 5.1% | 144.9hPa | 2.4V | 08:10:18 | 02:46:40 | 00:00:00 | |
| AA1-15 | 2026-09-04 02:07:15 | 51.81953 | 7.32584 | 106° | 104km/h | 14270m | -12.4m/s | -61.3°C | 4.8% | 144.3hPa | 2.4V | 08:11:09 | 02:46:38 | 00:00:00 | |
| DF2AP-13 | 2026-09-04 02:07:15 | 51.81953 | 7.32584 | 107° | 99km/h | 14270m | -12.4m/s | -61.2°C | 8.7% | 144.3hPa | 2.4V | 00:00:00 | 02:46:38 | 00:00:00 | |
| DM0DOS-11 | 2026-09-04 02:07:13 | 51.81997 | 7.32310 | 102° | 97km/h | 14356m | -12.4m/s | -61°C | 8.3% | 142.4hPa | 2.4V | 08:10:23 | 02:46:31 | 00:00:00 | |
| DB0UT-7 | 2026-09-04 02:07:13 | 51.81967 | 7.32505 | 106° | 99km/h | 14295m | -12.6m/s | -61.2°C | 8.8% | 143.7hPa | 2.4V | 00:00:00 | 00:00:00 | 00:00:00 | |
| DL1XH-15 | 2026-09-04 02:07:12 | 51.82002 | 7.32271 | 103° | 99km/h | 14369m | -12.5m/s | -61°C | 8.4% | 142.1hPa | 2.4V | 08:10:24 | 02:46:30 | 00:00:00 | |
| DL1XH-west | 2026-09-04 02:07:10 | 51.81985 | 7.32388 | 103° | 99km/h | 14332m | -12.4m/s | -60.9°C | 4.5% | 142.9hPa | 2.5V | 08:11:09 | 02:46:33 | 00:00:00 | |
| BIOWL1-15 | 2026-09-04 02:07:08 | 51.81996 | 7.32310 | 102° | 97km/h | 14356m | -12.4m/s | -61°C | 4.4% | 142.4hPa | 2.4V | 08:11:09 | 02:46:31 | 00:00:00 | |
| GOEST3-10 | 2026-09-04 02:07:08 | 51.81996 | 7.32310 | 103° | 99km/h | 14356m | -12.4m/s | -60.9°C | 8.3% | 142.3hPa | 2.5V | 00:00:00 | 00:00:00 | 00:00:00 | |
| DO2JMG | 2026-09-04 02:07:08 | 51.82002 | 7.32271 | 103° | 99km/h | 14369m | -12.5m/s | -61°C | 4.5% | 142.1hPa | 2.4V | 08:11:09 | 02:46:30 | 00:00:00 | |
| DO1YAY-16 | 2026-09-04 02:07:07 | 51.82002 | 7.32271 | 103° | 99km/h | 14369m | -12.5m/s | -61.0°C | 4.0% | 142.1hPa | 2.5V | 00:00:00 | 00:00:00 | 00:00:00 | |
| DL1ZP-14 | 2026-09-04 02:07:05 | 51.82018 | 7.32154 | 104° | 99km/h | 14407m | -13.0m/s | -61.0°C | 4.1% | 141.3hPa | 2.5V | 00:00:00 | 00:00:00 | 00:00:00 | |
| DM0DOS-11 | 2026-09-04 02:07:03 | 51.82058 | 7.31917 | 107° | 100km/h | 14483m | -12.6m/s | -60°C | 7.8% | 139.6hPa | 2.4V | 08:10:33 | 02:46:21 | 00:00:00 | |
| DO9LL-15 | 2026-09-04 02:07:03 | 51.82023 | 7.32115 | 104° | 97km/h | 14420m | -12.6m/s | -60.7°C | 8.4% | 140.9hPa | 2.5V | 00:00:00 | 02:46:26 | 00:00:00 | |
| DL1XH-15 | 2026-09-04 02:07:02 | 51.82065 | 7.31879 | 106° | 97km/h | 14495m | -12.6m/s | -59.9°C | 7.6% | 139.3hPa | 2.5V | 08:10:34 | 02:46:20 | 00:00:00 | |
| DL1XH-west | 2026-09-04 02:07:00 | 51.82043 | 7.31996 | 106° | 102km/h | 14458m | -12.7m/s | -60.2°C | 4.1% | 140.1hPa | 2.4V | 08:11:09 | 02:46:23 | 00:00:00 | |
| BIOWL1-15 | 2026-09-04 02:06:57 | 51.82065 | 7.31879 | 107° | 97km/h | 14495m | -12.6m/s | -59.9°C | 4% | 139.3hPa | 2.5V | 08:11:09 | 02:46:20 | 00:00:00 | |
| DO2JMG | 2026-09-04 02:06:56 | 51.82072 | 7.31840 | 108° | 100km/h | 14508m | -12.5m/s | -59.8°C | 4% | 139hPa | 2.5V | 08:11:09 | 02:46:19 | 00:00:00 | |
| DL3AQ-11 | 2026-09-04 02:06:54 | 51.82095 | 7.31727 | 106° | 95km/h | 14546m | -12.5m/s | -59.9°C | 3.5% | 138.2hPa | 2.4V | 00:00:00 | 00:00:00 | 00:00:00 | |
| DM0DOS-11 | 2026-09-04 02:06:53 | 51.82128 | 7.31537 | 104° | 97km/h | 14608m | -12.8m/s | -59°C | 7.1% | 136.8hPa | 2.4V | 08:10:43 | 02:46:11 | 00:00:00 | |
| GOEST3-10 | 2026-09-04 02:06:53 | 51.82095 | 7.31727 | 107° | 97km/h | 14546m | -12.5m/s | -59.8°C | 7.6% | 138.1hPa | 2.4V | 00:00:00 | 02:46:16 | 00:00:00 | |
| DL1XH-15 | 2026-09-04 02:06:52 | 51.82134 | 7.31499 | 105° | 95km/h | 14621m | -13.1m/s | -58.9°C | 7% | 136.5hPa | 2.4V | 08:10:44 | 02:46:10 | 00:00:00 | |
| DL1XH-west | 2026-09-04 02:06:49 | 51.82122 | 7.31575 | 105° | 95km/h | 14596m | -12.8m/s | -59.2°C | 3.7% | 137.1hPa | 2.5V | 08:11:09 | 02:46:12 | 00:00:00 | |
| BIOWL1-15 | 2026-09-04 02:06:48 | 51.82140 | 7.31462 | 103° | 95km/h | 14634m | -12.8m/s | -58.6°C | 3.5% | 136.2hPa | 2.4V | 08:11:09 | 02:46:09 | 00:00:00 | |
| DO2JMG | 2026-09-04 02:06:45 | 51.82146 | 7.31424 | 105° | 97km/h | 14647m | -12.8m/s | -58.5°C | 3.5% | 135.9hPa | 2.4V | 08:11:09 | 02:46:08 | 00:00:00 | |
| DK5PH-5 | 2026-09-04 02:06:45 | 51.82146 | 7.31424 | 105° | 100km/h | 14647m | -12.8m/s | -58.4°C | 6.7% | 135.9hPa | 2.4V | 00:00:00 | 02:46:08 | 00:00:00 | |
| DL1LOL-11 | 2026-09-04 02:06:44 | 51.82146 | 7.31424 | 106° | 97km/h | 14647m | -12.8m/s | -58.5°C | 3.1% | 135.9hPa | 2.4V | 08:11:00 | 00:00:00 | 00:00:00 | |
| DM0DOS-11 | 2026-09-04 02:06:43 | 51.82182 | 7.31155 | 99° | 99km/h | 14736m | -13.1m/s | -58.8°C | 6.6% | 134hPa | 2.4V | 08:10:53 | 02:46:01 | 00:00:00 | |
| DJ2KF-10 | 2026-09-04 02:06:43 | 51.82157 | 7.31348 | 104° | 102km/h | 14673m | -12.6m/s | -58.3°C | 6.5% | 135.3hPa | 2.4V | 00:00:00 | 02:46:06 | 00:00:00 | |
| DL1XH-15 | 2026-09-04 02:06:42 | 51.82187 | 7.31116 | 100° | 97km/h | 14749m | -13.3m/s | -58.9°C | 6.6% | 133.7hPa | 2.4V | 08:10:54 | 02:46:00 | 00:00:00 | |
| AA1-15 | 2026-09-04 02:06:39 | 51.82178 | 7.31194 | 101° | 95km/h | 14723m | -13m/s | -58.7°C | 3.3% | 134.3hPa | 2.4V | 08:11:09 | 02:46:02 | 00:00:00 | |
| DL1XH-west | 2026-09-04 02:06:38 | 51.82182 | 7.31155 | 100° | 99km/h | 14736m | -13.1m/s | -58.8°C | 3.3% | 134hPa | 2.4V | 08:11:09 | 02:46:01 | 00:00:00 | |
| BIOWL1-15 | 2026-09-04 02:06:36 | 51.82191 | 7.31077 | 99° | 95km/h | 14762m | -13m/s | -58.9°C | 3.2% | 133.5hPa | 2.5V | 08:11:09 | 02:45:59 | 00:00:00 | |
| DO2JMG | 2026-09-04 02:06:34 | 51.82198 | 7.30998 | 99° | 99km/h | 14788m | -12.7m/s | -58.9°C | 3.2% | 132.9hPa | 2.4V | 08:11:09 | 02:45:57 | 00:00:00 | |
| DL1ZP-14 | 2026-09-04 02:06:34 | 51.82202 | 7.30957 | 98° | 100km/h | 14801m | -12.9m/s | -58.9°C | 2.9% | 132.6hPa | 2.4V | 00:00:00 | 00:00:00 | 00:00:00 | |
| DM0DOS-11 | 2026-09-04 02:06:33 | 51.82221 | 7.30752 | 97° | 104km/h | 14865m | -13.1m/s | -59.2°C | 6.6% | 131.3hPa | 2.5V | 08:11:03 | 02:45:51 | 00:00:00 | |
| DO9LL-15 | 2026-09-04 02:06:33 | 51.82202 | 7.30957 | 99° | 102km/h | 14801m | -12.9m/s | -58.9°C | 6.6% | 132.6hPa | 2.4V | 00:00:00 | 02:45:56 | 00:00:00 | |
| DL1XH-15 | 2026-09-04 02:06:32 | 51.82225 | 7.30710 | 98° | 102km/h | 14878m | -13.2m/s | -59.2°C | 6.6% | 131hPa | 2.4V | 08:11:04 | 02:45:50 | 00:00:00 | |
| AA1-15 | 2026-09-04 02:06:28 | 51.82221 | 7.30752 | 98° | 104km/h | 14865m | -13.1m/s | -59.2°C | 3.1% | 131.3hPa | 2.5V | 08:11:09 | 02:45:51 | 00:00:00 | |
| DL1XH-west | 2026-09-04 02:06:27 | 51.82225 | 7.30710 | 99° | 102km/h | 14879m | -13.2m/s | -59.2°C | 3.1% | 131hPa | 2.4V | 08:11:09 | 02:45:50 | 00:00:00 | |
| BIOWL1-15 | 2026-09-04 02:06:27 | 51.82232 | 7.30628 | 98° | 104km/h | 14905m | -13.2m/s | -59.4°C | 3.1% | 130.4hPa | 2.4V | 08:11:09 | 02:45:48 | 00:00:00 | |
| DB0NH | 2026-09-04 02:06:26 | 51.82228 | 7.30669 | 98° | 102km/h | 14892m | -13.2m/s | -59.3°C | 6.6% | 130.7hPa | 2.4V | 00:00:00 | 02:45:49 | 00:00:00 | |
| HTAHTA | 2026-09-04 02:06:25 | 51.82232 | 7.30628 | 97° | 104km/h | 14905m | -13.2m/s | -59.4°C | 2.9% | 130.4hPa | 2.4V | 00:00:00 | 00:00:00 | 00:00:00 | |
| DM0DOS-11 | 2026-09-04 02:06:23 | 51.82258 | 7.30333 | 98° | 102km/h | 14996m | -13.3m/s | -59.4°C | 6.8% | 128.6hPa | 2.4V | 08:11:13 | 02:45:41 | 00:00:00 | |
| GOEST3-10 | 2026-09-04 02:06:23 | 51.82239 | 7.30544 | 97° | 104km/h | 14931m | -13.0m/s | -59.5°C | 6.9% | 129.9hPa | 2.4V | 00:00:00 | 02:45:46 | 00:00:00 | |
| DO2JMG | 2026-09-04 02:06:23 | 51.82239 | 7.30544 | 97° | 104km/h | 14931m | -13.1m/s | -59.6°C | 3.1% | 129.9hPa | 2.4V | 08:11:09 | 02:45:46 | 00:00:00 | |
| DL1XH-15 | 2026-09-04 02:06:22 | 51.82262 | 7.30291 | 99° | 108km/h | 15009m | -13.6m/s | -59.4°C | 6.8% | 128.3hPa | 2.4V | 08:11:14 | 02:45:40 | 00:00:00 | |
| BIOWL1-15 | 2026-09-04 02:06:19 | 51.82272 | 7.30206 | 101° | 104km/h | 15037m | -13.2m/s | -59.6°C | 3% | 127.8hPa | 2.5V | 08:12:00 | 02:45:38 | 00:00:00 | |
| DL1XH-west | 2026-09-04 02:06:17 | 51.82262 | 7.30291 | 100° | 108km/h | 15009m | -13.6m/s | -59.4°C | 3% | 128.3hPa | 2.4V | 08:12:00 | 02:45:40 | 00:00:00 | |
| DO2JMG | 2026-09-04 02:06:13 | 51.82284 | 7.30122 | 102° | 104km/h | 15064m | -13m/s | -59.6°C | 2.9% | 127.2hPa | 2.4V | 08:12:00 | 02:45:36 | 00:00:00 | |
| DB0UT-7 | 2026-09-04 02:06:13 | 51.82284 | 7.30122 | 103° | 91km/h | 15064m | -12.9m/s | -59.6°C | 6.9% | 127.2hPa | 2.5V | 00:00:00 | 00:00:00 | 00:00:00 | |
| DL1XH-15 | 2026-09-04 02:06:12 | 51.82323 | 7.29874 | 105° | 102km/h | 15142m | -13m/s | -59.1°C | 6.7% | 125.6hPa | 2.5V | 08:11:24 | 02:45:30 | 00:00:00 | |
| DL1XH-west | 2026-09-04 02:06:06 | 51.82330 | 7.29834 | 106° | 102km/h | 15156m | -13.5m/s | -58.8°C | 2.8% | 125.3hPa | 2.4V | 08:12:00 | 02:45:29 | 00:00:00 | |
| BIOWL1-15 | 2026-09-04 02:06:05 | 51.82337 | 7.29794 | 107° | 102km/h | 15169m | -13.3m/s | -58.5°C | 2.6% | 125.1hPa | 2.4V | 08:12:00 | 02:45:28 | 00:00:00 | |
| DO2JMG | 2026-09-04 02:06:03 | 51.82351 | 7.29716 | 106° | 100km/h | 15195m | -13.5m/s | -58.4°C | 2.6% | 124.6hPa | 2.4V | 08:12:00 | 02:45:26 | 00:00:00 | |
| DL1ZP-14 | 2026-09-04 02:06:03 | 51.82358 | 7.29678 | 106° | 95km/h | 15209m | -13.5m/s | -58.3°C | 2.6% | 124.3hPa | 2.4V | 00:00:00 | 00:00:00 | 00:00:00 | |
| DL1XH-15 | 2026-09-04 02:06:02 | 51.82392 | 7.29495 | 106° | 88km/h | 15276m | -13.3m/s | -58°C | 6.1% | 123hPa | 2.4V | 08:11:34 | 02:45:20 | 00:00:00 | |
| AA1-15 | 2026-09-04 02:05:56 | 51.82399 | 7.29461 | 107° | 89km/h | 15289m | -13.6m/s | -57.9°C | 2.4% | 122.8hPa | 2.4V | 08:12:00 | 02:45:19 | 00:00:00 | |
| BIOWL1-15 | 2026-09-04 02:05:54 | 51.82412 | 7.29395 | 108° | 84km/h | 15316m | -13.6m/s | -57.9°C | 2.4% | 122.2hPa | 2.5V | 08:12:00 | 02:45:17 | 00:00:00 | |
| DO2JMG | 2026-09-04 02:05:52 | 51.82425 | 7.29331 | 108° | 80km/h | 15342m | -13.5m/s | -58°C | 2.3% | 121.7hPa | 2.4V | 08:12:00 | 02:45:15 | 00:00:00 | |
| DL1XH-west | 2026-09-04 02:05:45 | 51.82462 | 7.29119 | 104° | 77km/h | 15436m | -13.7m/s | -58°C | 2.4% | 119.9hPa | 2.4V | 08:12:00 | 02:45:08 | 00:00:00 | |
| BIOWL1-15 | 2026-09-04 02:05:43 | 51.82471 | 7.29058 | 102° | 78km/h | 15463m | -13.7m/s | -57.7°C | 2.2% | 119.4hPa | 2.5V | 08:12:00 | 02:45:06 | 00:00:00 | |
| DO2JMG | 2026-09-04 02:05:42 | 51.82475 | 7.29028 | 102° | 77km/h | 15477m | -13.6m/s | -57.5°C | 2.2% | 119.1hPa | 2.5V | 08:12:00 | 02:45:05 | 00:00:00 | |
| DL1XH-west | 2026-09-04 02:05:35 | 51.82511 | 7.28804 | 107° | 80km/h | 15573m | -13.4m/s | -57.6°C | 2.2% | 117.4hPa | 2.5V | 08:12:00 | 02:44:58 | 00:00:00 | |
| AA1-15 | 2026-09-04 02:05:34 | 51.82517 | 7.28773 | 107° | 80km/h | 15587m | -13.7m/s | -57.5°C | 2.2% | 117.2hPa | 2.5V | 08:12:00 | 02:44:57 | 00:00:00 | |
| BIOWL1-15 | 2026-09-04 02:05:32 | 51.82529 | 7.28709 | 107° | 82km/h | 15614m | -13.5m/s | -57.4°C | 2.1% | 116.6hPa | 2.4V | 08:12:00 | 02:44:55 | 00:00:00 | |
| DO2JMG | 2026-09-04 02:05:31 | 51.82535 | 7.28677 | 107° | 82km/h | 15627m | -13.6m/s | -57.4°C | 2.1% | 116.4hPa | 2.4V | 08:12:00 | 02:44:54 | 00:00:00 | |
| DL1XH-west | 2026-09-04 02:05:24 | 51.82578 | 7.28449 | 109° | 86km/h | 15725m | -13.8m/s | -57.1°C | 2% | 114.7hPa | 2.4V | 08:12:51 | 02:44:47 | 00:00:00 | |
| AA1-15 | 2026-09-04 02:05:23 | 51.82585 | 7.28415 | 109° | 88km/h | 15739m | -13.9m/s | -57.1°C | 1.9% | 114.4hPa | 2.5V | 08:12:51 | 02:44:46 | 00:00:00 | |
| BIOWL1-15 | 2026-09-04 02:05:22 | 51.82592 | 7.28382 | 110° | 88km/h | 15752m | -13.9m/s | -57.2°C | 2% | 114.1hPa | 2.5V | 08:12:51 | 02:44:45 | 00:00:00 | |
| DO2JMG | 2026-09-04 02:05:21 | 51.82599 | 7.28348 | 109° | 86km/h | 15766m | -13.7m/s | -57.3°C | 2% | 113.9hPa | 2.4V | 08:12:51 | 02:44:44 | 00:00:00 | |
| DL3AQ-11 | 2026-09-04 02:05:21 | 51.82607 | 7.28315 | 109° | 84km/h | 15779m | -13.6m/s | -57.3°C | 2.2% | 113.6hPa | 2.4V | 00:00:00 | 00:00:00 | 00:00:00 | |
| DL4BBY-15 | 2026-09-04 02:05:20 | 51.82606 | 7.28315 | 110° | 73km/h | 15780m | -13.5m/s | -57.4°C | 0% | 0hPa | 2.4V | 00:00:00 | 00:00:00 | 00:00:00 | |
| EDDB2-12 | 2026-09-04 02:05:19 | 51.82621 | 7.28250 | 109° | 82km/h | 15807m | -13.7m/s | -57.2°C | 2.1% | 113.1hPa | 2.4V | 00:00:00 | 00:00:00 | 00:00:00 | |
| GOEST3-10 | 2026-09-04 02:05:18 | 51.82621 | 7.28250 | 110° | 80km/h | 15807m | -13.7m/s | -57.2°C | 5.5% | 113.1hPa | 2.4V | 00:00:00 | 00:00:00 | 00:00:00 | |
| DD1CC3-15 | 2026-09-04 02:05:17 | 51.82621 | 7.28250 | 111° | 82km/h | 15807m | -13.7m/s | -57.2°C | 2.2% | 113.1hPa | 2.4V | 08:12:00 | 00:00:00 | 00:00:00 | |
| DD1CC8 | 2026-09-04 02:05:16 | 51.82635 | 7.28187 | 109° | 80km/h | 15834m | -14.0m/s | -57.3°C | 2.1% | 112.6hPa | 2.4V | 00:00:00 | 00:00:00 | 00:00:00 | |
| DK5PH-5 | 2026-09-04 02:05:15 | 51.82642 | 7.28157 | 111° | 68km/h | 15848m | -13.8m/s | -57.3°C | 5.6% | 112.3hPa | 2.4V | 00:00:00 | 02:44:38 | 00:00:00 | |
| WEDDY | 2026-09-04 02:05:14 | 51.82642 | 7.28157 | 111° | 80km/h | 15848m | -13.9m/s | -57.3°C | 2.1% | 112.4hPa | 2.4V | 08:12:00 | 00:00:00 | 00:00:00 | |
| DM0DOS-11 | 2026-09-04 02:05:13 | 51.82690 | 7.27945 | 111° | 77km/h | 15945m | -13.3m/s | -56.9°C | 5.4% | 110.7hPa | 2.4V | 08:12:23 | 02:44:31 | 00:00:00 | |
| DL1XH-west | 2026-09-04 02:05:13 | 51.82656 | 7.28096 | 110° | 80km/h | 15876m | -14m/s | -57.3°C | 1.9% | 111.9hPa | 2.4V | 08:12:51 | 02:44:36 | 00:00:00 | |
| AA1-15 | 2026-09-04 02:05:12 | 51.82663 | 7.28065 | 110° | 80km/h | 15890m | -14.3m/s | -57.2°C | 1.9% | 111.7hPa | 2.4V | 08:12:51 | 02:44:35 | 00:00:00 | |
| DO2JMG | 2026-09-04 02:05:11 | 51.82669 | 7.28034 | 110° | 80km/h | 15904m | -13.9m/s | -56.9°C | 1.8% | 111.4hPa | 2.4V | 08:12:51 | 02:44:34 | 00:00:00 | |
| DL1XH-west | 2026-09-04 02:05:03 | 51.82725 | 7.27803 | 112° | 73km/h | 16016m | -14.8m/s | -56.8°C | 1.7% | 109.5hPa | 2.5V | 08:12:51 | 02:44:26 | 00:00:00 | |
| AA1-15 | 2026-09-04 02:05:02 | 51.82732 | 7.27775 | 113° | 73km/h | 16030m | -14.8m/s | -56.7°C | 1.8% | 109.2hPa | 2.5V | 08:12:51 | 02:44:25 | 00:00:00 | |
| BIOWL1-15 | 2026-09-04 02:05:01 | 51.82739 | 7.27748 | 112° | 69km/h | 16045m | -14.8m/s | -56.6°C | 1.8% | 109hPa | 2.4V | 08:12:51 | 02:44:24 | 00:00:00 | |
| DO2JMG | 2026-09-04 02:05:00 | 51.82745 | 7.27722 | 111° | 68km/h | 16060m | -14.9m/s | -56.5°C | 1.7% | 108.7hPa | 2.4V | 08:12:51 | 02:44:23 | 00:00:00 | |
| MET0W-2 | 2026-09-04 02:04:59 | 51.82758 | 7.27670 | 113° | 68km/h | 16089m | -14.1m/s | -56.5°C | 1.9% | 108.2hPa | 2.4V | 00:00:00 | 00:00:00 | 00:00:00 | |
| DL3AQ-11 | 2026-09-04 02:04:54 | 51.82788 | 7.27552 | 110° | 60km/h | 16159m | -14.3m/s | -56.0°C | 1.9% | 107.0hPa | 2.4V | 00:00:00 | 00:00:00 | 00:00:00 | |
| DM0DOS-11 | 2026-09-04 02:04:53 | 51.82813 | 7.27445 | 110° | 55km/h | 16228m | -13.7m/s | -55.9°C | 4.9% | 105.8hPa | 2.4V | 08:12:43 | 02:44:11 | 00:00:00 | |
| DL1XH-west | 2026-09-04 02:04:53 | 51.82788 | 7.27552 | 110° | 60km/h | 16159m | -14.3m/s | -56°C | 1.6% | 107hPa | 2.4V | 08:12:51 | 02:44:16 | 00:00:00 | |
| BIOWL1-15 | 2026-09-04 02:04:51 | 51.82798 | 7.27508 | 109° | 57km/h | 16187m | -13.6m/s | -56°C | 1.6% | 106.5hPa | 2.5V | 08:12:51 | 02:44:14 | 00:00:00 | |
| DO2JMG | 2026-09-04 02:04:50 | 51.82804 | 7.27486 | 112° | 57km/h | 16200m | -13.8m/s | -55.9°C | 1.6% | 106.3hPa | 2.4V | 08:12:51 | 02:44:13 | 00:00:00 | |
| EDDB2-12 | 2026-09-04 02:04:48 | 51.82818 | 7.27424 | 109° | 51km/h | 16241m | -13.6m/s | -55.9°C | 1.8% | 105.6hPa | 2.5V | 00:00:00 | 00:00:00 | 00:00:00 | |
| AU51GT2 | 2026-09-04 02:04:47 | 51.82818 | 7.27424 | 109° | 51km/h | 16241m | -13.6m/s | -55.9°C | 1.8% | 105.6hPa | 2.5V | 00:00:00 | 00:00:00 | 00:00:00 | |
| DD1CC8 | 2026-09-04 02:04:45 | 51.82827 | 7.27383 | 112° | 53km/h | 16269m | -13.9m/s | -56.0°C | 1.9% | 105.2hPa | 2.5V | 00:00:00 | 00:00:00 | 00:00:00 | |
| DK5PH-5 | 2026-09-04 02:04:44 | 51.82832 | 7.27363 | 111° | 60km/h | 16283m | -14.0m/s | -56.0°C | 5.0% | 104.9hPa | 2.5V | 00:00:00 | 02:44:07 | 00:00:00 | |
| DM0DOS-11 | 2026-09-04 02:04:43 | 51.82863 | 7.27237 | 110° | 57km/h | 16367m | -14.2m/s | -56.1°C | 4.9% | 103.6hPa | 2.5V | 08:12:53 | 02:44:01 | 00:00:00 | |
| DJ2KF-10 | 2026-09-04 02:04:43 | 51.82836 | 7.27343 | 111° | 47km/h | 16297m | -14.1m/s | -56.1°C | 5.0% | 104.7hPa | 2.4V | 00:00:00 | 02:44:06 | 00:00:00 | |
| DL1XH-15 | 2026-09-04 02:04:42 | 51.82868 | 7.27215 | 110° | 62km/h | 16381m | -13.9m/s | -56.2°C | 4.9% | 103.3hPa | 2.4V | 08:12:54 | 02:44:00 | 00:00:00 | |
| DL1XH-west | 2026-09-04 02:04:42 | 51.82842 | 7.27322 | 113° | 55km/h | 16311m | -14.4m/s | -56.2°C | 1.6% | 104.5hPa | 2.4V | 08:12:51 | 02:44:05 | 00:00:00 | |
| AA1-15 | 2026-09-04 02:04:41 | 51.82847 | 7.27302 | 111° | 53km/h | 16325m | -14m/s | -56.1°C | 1.6% | 104.3hPa | 2.4V | 08:12:51 | 02:44:04 | 00:00:00 | |
| BIOWL1-15 | 2026-09-04 02:04:40 | 51.82852 | 7.27281 | 111° | 58km/h | 16339m | -14m/s | -56°C | 1.5% | 104hPa | 2.4V | 08:12:51 | 02:44:03 | 00:00:00 | |
| DO2JMG | 2026-09-04 02:04:39 | 51.82857 | 7.27259 | 113° | 58km/h | 16353m | -14.2m/s | -56°C | 1.5% | 103.8hPa | 2.6V | 08:13:42 | 02:44:02 | 00:00:00 | |
| HSKMA3-T | 2026-09-04 02:04:38 | 51.82863 | 7.27237 | 111° | 57km/h | 16367m | -14.2m/s | -56.1°C | 1.6% | 103.6hPa | 2.5V | 08:16:15 | 02:44:01 | 00:00:00 | |
| DF5WG-10 | 2026-09-04 02:04:38 | 51.82863 | 7.27237 | 111° | 62km/h | 16367m | -14.1m/s | -56.1°C | 4.9% | 103.5hPa | 2.5V | 00:00:00 | 02:44:01 | 00:00:00 | |
| DO3DL | 2026-09-04 02:04:37 | 51.82863 | 7.27237 | 112° | 57km/h | 16367m | -14.2m/s | -56.1°C | 1.8% | 103.6hPa | 2.5V | 08:13:00 | 00:00:00 | 00:00:00 | |
| DD1CC3-15 | 2026-09-04 02:04:36 | 51.82868 | 7.27215 | 112° | 62km/h | 16381m | -13.9m/s | -56.2°C | 1.8% | 103.3hPa | 2.5V | 08:13:00 | 00:00:00 | 00:00:00 | |
| DO2KSM | 2026-09-04 02:04:35 | 51.82873 | 7.27192 | 112° | 60km/h | 16395m | -14.0m/s | -56.3°C | 1.9% | 103.1hPa | 2.5V | 08:13:00 | 00:00:00 | 00:00:00 | |
| BIOWL9-15 | 2026-09-04 02:04:34 | 51.82884 | 7.27144 | 110° | 62km/h | 16423m | -13.8m/s | -56.4°C | 1.9% | 102.7hPa | 2.5V | 00:00:00 | 00:00:00 | 00:00:00 | |
| DM0DOS-11 | 2026-09-04 02:04:33 | 51.82912 | 7.27000 | 104° | 58km/h | 16506m | -14.1m/s | -56.5°C | 5.1% | 101.3hPa | 2.5V | 08:13:03 | 02:43:51 | 00:00:00 | |
| DO9LL-15 | 2026-09-04 02:04:33 | 51.82889 | 7.27120 | 109° | 60km/h | 16436m | -13.8m/s | -56.4°C | 5.0% | 102.4hPa | 2.4V | 00:00:00 | 02:43:56 | 00:00:00 | |
| DL1XH-15 | 2026-09-04 02:04:32 | 51.82916 | 7.26976 | 102° | 60km/h | 16520m | -14m/s | -56.5°C | 5.2% | 101.1hPa | 2.4V | 08:13:04 | 02:43:50 | 00:00:00 | |
| DL1XH-west | 2026-09-04 02:04:31 | 51.82899 | 7.27071 | 109° | 62km/h | 16464m | -14.2m/s | -56.5°C | 1.6% | 102hPa | 2.4V | 08:13:42 | 02:43:54 | 00:00:00 | |
| BIOWL1-15 | 2026-09-04 02:04:30 | 51.82904 | 7.27047 | 106° | 60km/h | 16478m | -14.1m/s | -56.5°C | 1.6% | 101.8hPa | 2.4V | 08:13:42 | 02:43:53 | 00:00:00 | |
| DO2JMG | 2026-09-04 02:04:28 | 51.82912 | 7.27000 | 105° | 58km/h | 16506m | -14.1m/s | -56.5°C | 1.6% | 101.3hPa | 2.5V | 08:13:42 | 02:43:51 | 00:00:00 | |
| HSKMA3-T | 2026-09-04 02:04:27 | 51.82916 | 7.26976 | 103° | 60km/h | 16520m | -14m/s | -56.5°C | 1.6% | 101.1hPa | 2.4V | 08:16:15 | 02:43:50 | 00:00:00 | |
| BIOWL7-15 | 2026-09-04 02:04:25 | 51.82920 | 7.26952 | 106° | 62km/h | 16534m | -14.0m/s | -56.6°C | 1.9% | 100.9hPa | 2.4V | 08:13:00 | 00:00:00 | 00:00:00 | |
| DO3DL | 2026-09-04 02:04:24 | 51.82923 | 7.26928 | 103° | 58km/h | 16548m | -14.0m/s | -56.6°C | 1.9% | 100.7hPa | 2.4V | 08:13:00 | 00:00:00 | 00:00:00 | |
| DM0DOS-11 | 2026-09-04 02:04:23 | 51.82948 | 7.26755 | 106° | 66km/h | 16649m | -14.4m/s | -57.1°C | 5.4% | 99.1hPa | 2.4V | 08:13:13 | 02:43:41 | 00:00:00 | |
| BIOWL1-15 | 2026-09-04 02:04:20 | 51.82940 | 7.26806 | 104° | 62km/h | 16620m | -14.1m/s | -56.9°C | 1.7% | 99.6hPa | 2.4V | 08:13:42 | 02:43:43 | 00:00:00 | |
| DO2JMG | 2026-09-04 02:04:18 | 51.82948 | 7.26755 | 106° | 66km/h | 16649m | -14.4m/s | -57.1°C | 1.7% | 99.1hPa | 2.4V | 08:13:42 | 02:43:41 | 00:00:00 | |
| HSKMA3-T | 2026-09-04 02:04:14 | 51.82966 | 7.26656 | 106° | 60km/h | 16705m | -14.4m/s | -57.2°C | 1.7% | 98.2hPa | 2.4V | 08:16:15 | 02:43:37 | 00:00:00 | |
| DK5PH-5 | 2026-09-04 02:04:14 | 51.82966 | 7.26656 | 106° | 46km/h | 16706m | -14.3m/s | -57.1°C | 5.5% | 98.2hPa | 2.4V | 00:00:00 | 02:43:37 | 00:00:00 | |
| DM0DOS-11 | 2026-09-04 02:04:13 | 51.82997 | 7.26516 | 111° | 57km/h | 16792m | -14.4m/s | -55.7°C | 4.8% | 96.9hPa | 2.5V | 08:13:23 | 02:43:31 | 00:00:00 | |
| DB0UT-7 | 2026-09-04 02:04:13 | 51.82970 | 7.26631 | 107° | 46km/h | 16720m | -14.6m/s | -56.9°C | 5.4% | 97.9hPa | 2.4V | 00:00:00 | 00:00:00 | 00:00:00 | |
| DL1XH-15 | 2026-09-04 02:04:12 | 51.83002 | 7.26495 | 114° | 57km/h | 16805m | -14.2m/s | -55.7°C | 4.7% | 96.7hPa | 2.5V | 08:13:24 | 02:43:30 | 00:00:00 | |
| BIOWL1-15 | 2026-09-04 02:04:11 | 51.82991 | 7.26538 | 113° | 58km/h | 16777m | -14.3m/s | -55.7°C | 1.3% | 97.1hPa | 2.4V | 08:13:42 | 02:43:32 | 00:00:00 | |
| AA1-15 | 2026-09-04 02:04:10 | 51.82986 | 7.26560 | 111° | 62km/h | 16763m | -14.6m/s | -56.1°C | 1.5% | 97.4hPa | 2.5V | 08:13:42 | 02:43:33 | 00:00:00 | |
| DO2JMG | 2026-09-04 02:04:08 | 51.82997 | 7.26516 | 111° | 57km/h | 16792m | -14.4m/s | -55.7°C | 1.4% | 96.9hPa | 2.5V | 08:13:42 | 02:43:31 | 00:00:00 | |
| DF5WG-10 | 2026-09-04 02:04:08 | 51.82997 | 7.26516 | 112° | 51km/h | 16792m | -14.3m/s | -55.6°C | 4.8% | 96.8hPa | 2.5V | 00:00:00 | 02:43:31 | 00:00:00 | |
| DD1CC1-15 | 2026-09-04 02:04:06 | 51.83002 | 7.26495 | 115° | 57km/h | 16806m | -14.2m/s | -55.7°C | 1.7% | 96.7hPa | 2.5V | 08:13:00 | 00:00:00 | 00:00:00 | |
| BIOWL7-15 | 2026-09-04 02:04:05 | 51.83008 | 7.26474 | 115° | 53km/h | 16820m | -14.3m/s | -55.8°C | 1.7% | 96.4hPa | 2.5V | 08:13:00 | 00:00:00 | 00:00:00 | |
| DO3DL | 2026-09-04 02:04:04 | 51.83014 | 7.26454 | 115° | 55km/h | 16834m | -14.6m/s | -55.8°C | 1.7% | 96.2hPa | 2.5V | 08:13:00 | 00:00:00 | 00:00:00 | |
| DM0DOS-11 | 2026-09-04 02:04:03 | 51.83050 | 7.26330 | 112° | 40km/h | 16935m | -14.5m/s | -55.8°C | 4.8% | 94.7hPa | 2.5V | 08:13:33 | 02:43:21 | 00:00:00 | |
| DO9LL-15 | 2026-09-04 02:04:03 | 51.83025 | 7.26416 | 115° | 42km/h | 16862m | -14.4m/s | -55.8°C | 4.8% | 95.8hPa | 2.4V | 00:00:00 | 02:43:26 | 00:00:00 | |
| DL1XH-15 | 2026-09-04 02:04:02 | 51.83054 | 7.26314 | 112° | 42km/h | 16949m | -14.5m/s | -55.9°C | 4.8% | 94.5hPa | 2.4V | 08:13:34 | 02:43:20 | 00:00:00 | |
| DF8AY | 2026-09-04 02:04:01 | 51.83036 | 7.26380 | 114° | 46km/h | 16891m | -14.6m/s | 0°C | 0% | 0hPa | 2.4V | 18:12:15 | 02:43:24 | 00:00:00 | |
| DL1XH-west | 2026-09-04 02:04:00 | 51.83040 | 7.26363 | 113° | 47km/h | 16905m | -15m/s | -55.8°C | 1.3% | 95.2hPa | 2.6V | 08:13:42 | 02:43:23 | 00:00:00 | |
| AA1-15 | 2026-09-04 02:03:59 | 51.83045 | 7.26346 | 116° | 44km/h | 16920m | -14.9m/s | -55.8°C | 1.4% | 94.9hPa | 2.6V | 08:13:42 | 02:43:22 | 00:00:00 | |
| BIOWL1-15 | 2026-09-04 02:03:58 | 51.83050 | 7.26330 | 112° | 40km/h | 16935m | -14.5m/s | -55.8°C | 1.4% | 94.7hPa | 2.5V | 08:13:42 | 02:43:21 | 00:00:00 | |
| DO2JMG | 2026-09-04 02:03:57 | 51.83054 | 7.26315 | 112° | 42km/h | 16949m | -14.5m/s | -55.9°C | 1.4% | 94.5hPa | 2.4V | 08:13:42 | 02:43:20 | 00:00:00 | |
| DC6BW-12 | 2026-09-04 02:03:56 | 51.83053 | 7.26314 | 113° | 42km/h | 16950m | -14.5m/s | -55.9°C | 1.7% | 94.5hPa | 2.5V | 08:13:00 | 00:00:00 | 00:00:00 | |
| DH3RM | 2026-09-04 02:03:55 | 51.83057 | 7.26299 | 112° | 37km/h | 16964m | -14.4m/s | -55.9°C | 1.7% | 94.3hPa | 2.5V | 08:13:00 | 00:00:00 | 00:00:00 | |
| DL1CLM-18 | 2026-09-04 02:03:54 | 51.83060 | 7.26285 | 108° | 38km/h | 16978m | -14.5m/s | -56.0°C | 1.7% | 94.1hPa | 2.5V | 00:00:00 | 00:00:00 | 00:00:00 | |
| DM0DOS-11 | 2026-09-04 02:03:53 | 51.83074 | 7.26189 | 94° | 33km/h | 17080m | -14.9m/s | -56.5°C | 5% | 92.6hPa | 2.5V | 08:13:43 | 02:43:11 | 00:00:00 | |
| GOEST3-10 | 2026-09-04 02:03:53 | 51.83066 | 7.26257 | 104° | 35km/h | 17007m | -14.6m/s | -56.0°C | 4.8% | 93.6hPa | 2.5V | 00:00:00 | 02:43:16 | 00:00:00 | |
| DL1XH-15 | 2026-09-04 02:03:52 | 51.83075 | 7.26175 | 95° | 37km/h | 17094m | -15.1m/s | -56.5°C | 5% | 92.3hPa | 2.5V | 08:13:44 | 02:43:10 | 00:00:00 | |
| DL1XH-west | 2026-09-04 02:03:50 | 51.83071 | 7.26217 | 98° | 35km/h | 17051m | -14.7m/s | -56.3°C | 1.4% | 93hPa | 2.4V | 08:13:42 | 02:43:13 | 00:00:00 | |
| AA1-15 | 2026-09-04 02:03:49 | 51.83073 | 7.26203 | 101° | 33km/h | 17065m | -14.9m/s | -56.4°C | 1.5% | 92.8hPa | 2.4V | 08:13:42 | 02:43:12 | 00:00:00 | |
| BIOWL1-15 | 2026-09-04 02:03:47 | 51.83075 | 7.26175 | 96° | 37km/h | 17095m | -15.1m/s | -56.6°C | 1.4% | 92.3hPa | 2.5V | 08:14:33 | 02:43:10 | 00:00:00 | |
| DO2JMG | 2026-09-04 02:03:46 | 51.83076 | 7.26161 | 96° | 35km/h | 17110m | -15m/s | -56.6°C | 1.5% | 92.2hPa | 2.4V | 08:14:33 | 02:43:09 | 00:00:00 | |
| BUE01 | 2026-09-04 02:03:46 | 51.83076 | 7.26147 | 90° | 33km/h | 17125m | -15.0m/s | -56.7°C | 1.8% | 91.9hPa | 2.5V | 00:00:00 | 00:00:00 | 00:00:00 | |
| AU51GT2 | 2026-09-04 02:03:45 | 51.83076 | 7.26147 | 90° | 33km/h | 17125m | -15.0m/s | -56.7°C | 1.8% | 91.9hPa | 2.5V | 00:00:00 | 00:00:00 | 00:00:00 | |
| D01LWL | 2026-09-04 02:03:44 | 51.83077 | 7.26116 | 91° | 37km/h | 17154m | -15.1m/s | 0°C | -1.0% | -1.0hPa | 2.5V | 00:00:00 | 00:00:00 | 00:00:00 | |
| DM0DOS-11 | 2026-09-04 02:03:43 | 51.83073 | 7.26028 | 86° | 49km/h | 17229m | -15m/s | -56.5°C | 5.1% | 90.5hPa | 2.5V | 08:13:53 | 02:43:01 | 00:00:00 | |
| DB0UT-7 | 2026-09-04 02:03:43 | 51.83077 | 7.26116 | 92° | 51km/h | 17154m | -15.1m/s | -56.6°C | 5.2% | 91.5hPa | 2.5V | 00:00:00 | 02:43:06 | 00:00:00 | |
| DL1XH-15 | 2026-09-04 02:03:42 | 51.83073 | 7.26007 | 82° | 49km/h | 17243m | -15m/s | -56.6°C | 5.1% | 90.3hPa | 2.5V | 08:13:54 | 02:43:00 | 00:00:00 | |
| DL1XH-west | 2026-09-04 02:03:40 | 51.83075 | 7.26066 | 88° | 44km/h | 17199m | -15m/s | -56.5°C | 1.5% | 90.9hPa | 2.4V | 08:14:33 | 02:43:03 | 00:00:00 | |
| AA1-15 | 2026-09-04 02:03:39 | 51.83075 | 7.26047 | 83° | 47km/h | 17214m | -14.8m/s | -56.5°C | 1.5% | 90.7hPa | 2.4V | 08:14:33 | 02:43:02 | 00:00:00 | |
| DO2JMG | 2026-09-04 02:03:36 | 51.83071 | 7.25986 | 85° | 55km/h | 17258m | -15.1m/s | -56.6°C | 1.4% | 90hPa | 2.4V | 08:14:33 | 02:42:59 | 00:00:00 | |
| DH3RM | 2026-09-04 02:03:35 | 51.83071 | 7.25986 | 85° | 55km/h | 17258m | -15.1m/s | -56.6°C | 1.7% | 90.0hPa | 2.5V | 08:14:00 | 00:00:00 | 00:00:00 | |
| DO2KSM | 2026-09-04 02:03:34 | 51.83070 | 7.25964 | 87° | 53km/h | 17274m | -15.2m/s | -56.7°C | 1.8% | 89.8hPa | 2.5V | 08:14:00 | 00:00:00 | 00:00:00 | |
| DM0DOS-11 | 2026-09-04 02:03:33 | 51.83069 | 7.25806 | 97° | 57km/h | 17379m | -15.3m/s | -56.3°C | 5.1% | 88.3hPa | 2.5V | 08:14:03 | 02:42:51 | 00:00:00 | |
| DO9LL-15 | 2026-09-04 02:03:33 | 51.83068 | 7.25920 | 88° | 53km/h | 17305m | -15.0m/s | -56.7°C | 5.2% | 89.3hPa | 2.5V | 08:13:00 | 02:42:56 | 00:00:00 | |
| DL1XH-15 | 2026-09-04 02:03:32 | 51.83071 | 7.25784 | 98° | 53km/h | 17395m | -15.3m/s | -56.1°C | 4.9% | 88.1hPa | 2.6V | 08:14:04 | 02:42:50 | 00:00:00 | |
| AA1-15 | 2026-09-04 02:03:29 | 51.83067 | 7.25829 | 94° | 58km/h | 17364m | -15.2m/s | -56.6°C | 1.5% | 88.5hPa | 2.4V | 08:14:33 | 02:42:52 | 00:00:00 | |
| BIOWL1-15 | 2026-09-04 02:03:25 | 51.83076 | 7.25740 | 104° | 55km/h | 17426m | -15.2m/s | -55.9°C | 1.3% | 87.7hPa | 2.5V | 08:14:33 | 02:42:48 | 00:00:00 | |
| DO3DL | 2026-09-04 02:03:24 | 51.83080 | 7.25719 | 111° | 53km/h | 17442m | -15.1m/s | -56.0°C | 1.7% | 87.5hPa | 2.4V | 08:14:00 | 00:00:00 | 00:00:00 | |
| DM0DOS-11 | 2026-09-04 02:03:23 | 51.83108 | 7.25609 | 110° | 49km/h | 17532m | -15.4m/s | -55.8°C | 4.8% | 86.2hPa | 2.4V | 08:14:13 | 02:42:41 | 00:00:00 | |
| HSKMA3-T | 2026-09-04 02:03:23 | 51.83085 | 7.25700 | 111° | 51km/h | 17457m | -15.2m/s | -55.9°C | 1.3% | 87.3hPa | 2.4V | 08:16:15 | 02:42:46 | 00:00:00 | |
| GOEST3-10 | 2026-09-04 02:03:23 | 51.83084 | 7.25700 | 111° | 49km/h | 17457m | -15.2m/s | -55.8°C | 4.8% | 87.3hPa | 2.4V | 00:00:00 | 02:42:46 | 00:00:00 | |
| DL1XH-15 | 2026-09-04 02:03:22 | 51.83112 | 7.25591 | 109° | 49km/h | 17548m | -15.4m/s | -55.9°C | 4.9% | 86hPa | 2.4V | 08:14:14 | 02:42:40 | 00:00:00 | |
| DL1XH-west | 2026-09-04 02:03:19 | 51.83103 | 7.25627 | 112° | 49km/h | 17517m | -15.4m/s | -55.7°C | 1.2% | 86.5hPa | 2.6V | 08:14:33 | 02:42:42 | 00:00:00 | |
| AA1-15 | 2026-09-04 02:03:18 | 51.83108 | 7.25609 | 111° | 49km/h | 17532m | -15.4m/s | -55.8°C | 1.3% | 86.2hPa | 2.4V | 08:14:33 | 02:42:41 | 00:00:00 | |
| DO2JMG | 2026-09-04 02:03:14 | 51.83123 | 7.25536 | 106° | 49km/h | 17595m | -15.2m/s | -55.7°C | 1.3% | 85.4hPa | 2.6V | 08:14:33 | 02:42:37 | 00:00:00 | |
| DK5PH-5 | 2026-09-04 02:03:14 | 51.83123 | 7.25536 | 107° | 47km/h | 17595m | -15.2m/s | -55.6°C | 4.8% | 85.4hPa | 2.4V | 00:00:00 | 02:42:37 | 00:00:00 | |
| DM0DOS-11 | 2026-09-04 02:03:13 | 51.83142 | 7.25410 | 102° | 57km/h | 17687m | -15.7m/s | -55.5°C | 4.6% | 84.2hPa | 2.4V | 08:14:23 | 02:42:31 | 00:00:00 | |
| DB0UT-7 | 2026-09-04 02:03:13 | 51.83127 | 7.25517 | 105° | 46km/h | 17610m | -15.3m/s | -55.6°C | 4.8% | 85.2hPa | 2.4V | 00:00:00 | 00:00:00 | 00:00:00 | |
| DL1XH-15 | 2026-09-04 02:03:12 | 51.83146 | 7.25387 | 103° | 57km/h | 17702m | -15.7m/s | -55.5°C | 4.7% | 84hPa | 2.4V | 08:14:24 | 02:42:30 | 00:00:00 | |
| HSKMA3-T | 2026-09-04 02:03:10 | 51.83136 | 7.25454 | 102° | 55km/h | 17656m | -15.7m/s | -55.6°C | 1.3% | 84.6hPa | 2.6V | 08:16:15 | 02:42:33 | 00:00:00 | |
| DL1XH-west | 2026-09-04 02:03:08 | 51.83143 | 7.25410 | 103° | 57km/h | 17687m | -15.7m/s | -55.5°C | 1.2% | 84.2hPa | 2.4V | 08:14:33 | 02:42:31 | 00:00:00 | |
| DO2JMG | 2026-09-04 02:03:04 | 51.83156 | 7.25322 | 102° | 53km/h | 17750m | -15.5m/s | -55.3°C | 1% | 83.4hPa | 2.6V | 08:14:33 | 02:42:27 | 00:00:00 | |
| BIOWL7-15 | 2026-09-04 02:03:04 | 51.83155 | 7.25322 | 103° | 53km/h | 17750m | -15.5m/s | -55.3°C | 1.5% | 83.4hPa | 2.4V | 00:00:00 | 00:00:00 | 00:00:00 | |
| DM0DOS-11 | 2026-09-04 02:03:03 | 51.83173 | 7.25207 | 106° | 46km/h | 17842m | -15.3m/s | -55.2°C | 4.5% | 82.2hPa | 2.4V | 08:14:33 | 02:42:21 | 00:00:00 | |
| DO9LL-15 | 2026-09-04 02:03:03 | 51.83158 | 7.25301 | 103° | 40km/h | 17765m | -15.4m/s | -55.3°C | 4.6% | 83.2hPa | 2.5V | 00:00:00 | 02:42:26 | 00:00:00 | |
| DL1XH-15 | 2026-09-04 02:03:02 | 51.83177 | 7.25189 | 108° | 47km/h | 17857m | -15.6m/s | -55.2°C | 4.5% | 82hPa | 2.5V | 08:14:34 | 02:42:20 | 00:00:00 | |
| AA1-15 | 2026-09-04 02:02:58 | 51.83173 | 7.25207 | 107° | 46km/h | 17842m | -15.3m/s | -55.2°C | 1% | 82.2hPa | 2.4V | 08:14:33 | 02:42:21 | 00:00:00 | |
| DL1XH-west | 2026-09-04 02:02:57 | 51.83177 | 7.25189 | 108° | 47km/h | 17857m | -15.6m/s | -55.2°C | 1% | 82hPa | 2.5V | 08:15:24 | 02:42:20 | 00:00:00 | |
| BIOWL1-15 | 2026-09-04 02:02:56 | 51.83190 | 7.25136 | 113° | 47km/h | 17904m | -15.9m/s | -55.4°C | 1.1% | 81.4hPa | 2.6V | 08:15:24 | 02:42:17 | 00:00:00 | |
| DO2JMG | 2026-09-04 02:02:53 | 51.83195 | 7.25118 | 112° | 46km/h | 17919m | -15.9m/s | -55.4°C | 1.1% | 81.2hPa | 2.4V | 08:15:24 | 02:42:16 | 00:00:00 | |
| GOEST3-10 | 2026-09-04 02:02:53 | 51.83195 | 7.25118 | 113° | 40km/h | 17920m | -15.9m/s | -55.3°C | 4.5% | 81.2hPa | 2.5V | 00:00:00 | 02:42:16 | 00:00:00 | |
| DL1XH-15 | 2026-09-04 02:02:52 | 51.83221 | 7.25030 | 113° | 33km/h | 18013m | -15.6m/s | -56.1°C | 4.8% | 80hPa | 2.5V | 08:14:44 | 02:42:10 | 00:00:00 | |
| DL1XH-west | 2026-09-04 02:02:47 | 51.83221 | 7.25029 | 114° | 33km/h | 18013m | -15.6m/s | -56.1°C | 1.3% | 80hPa | 2.5V | 08:15:24 | 02:42:10 | 00:00:00 | |
| HSKMA3-T | 2026-09-04 02:02:46 | 51.83224 | 7.25017 | 113° | 33km/h | 18029m | -15.7m/s | -56.2°C | 1.2% | 79.8hPa | 2.5V | 08:16:15 | 02:42:09 | 00:00:00 | |
| DO2JMG | 2026-09-04 02:02:43 | 51.83232 | 7.24982 | 106° | 29km/h | 18075m | -15.7m/s | -56.2°C | 1.3% | 79.2hPa | 2.4V | 08:15:24 | 02:42:06 | 00:00:00 | |
| DL1XH-west | 2026-09-04 02:02:36 | 51.83242 | 7.24883 | 101° | 44km/h | 18188m | -16m/s | -56.4°C | 1.4% | 77.9hPa | 2.4V | 08:15:24 | 02:41:59 | 00:00:00 | |
| DO2JMG | 2026-09-04 02:02:33 | 51.83249 | 7.24826 | 100° | 49km/h | 18237m | -15.6m/s | -56.1°C | 1.3% | 77.3hPa | 2.4V | 08:15:24 | 02:41:56 | 00:00:00 | |
| HSKMA3-T | 2026-09-04 02:02:32 | 51.83251 | 7.24805 | 100° | 49km/h | 18253m | -15.7m/s | -56°C | 1.4% | 77.1hPa | 2.4V | 08:16:15 | 02:41:55 | 00:00:00 | |
| DL1XH-west | 2026-09-04 02:02:26 | 51.83268 | 7.24689 | 104° | 42km/h | 18348m | -15.7m/s | -56.3°C | 1.5% | 76hPa | 2.4V | 08:15:24 | 02:41:49 | 00:00:00 | |
| AA1-15 | 2026-09-04 02:02:25 | 51.83270 | 7.24673 | 104° | 42km/h | 18365m | -16m/s | -56.2°C | 1.4% | 75.8hPa | 2.5V | 08:15:24 | 02:41:48 | 00:00:00 | |
| EDDB2-11 | 2026-09-04 02:02:24 | 51.83273 | 7.24656 | 103° | 38km/h | 18380m | -15.8m/s | -55.9°C | 1.6% | 75.6hPa | 2.4V | 00:00:00 | 00:00:00 | 00:00:00 | |
| DM0DOS-11 | 2026-09-04 02:02:23 | 51.83281 | 7.24579 | 94° | 27km/h | 18478m | -16.5m/s | -54.4°C | 4.4% | 74.4hPa | 2.4V | 08:15:13 | 02:41:41 | 00:00:00 | |
| DO2JMG | 2026-09-04 02:02:22 | 51.83277 | 7.24627 | 101° | 33km/h | 18413m | -16.1m/s | -55.4°C | 1.2% | 75.2hPa | 2.4V | 08:15:24 | 02:41:45 | 00:00:00 | |
| HSKMA3-T | 2026-09-04 02:02:21 | 51.83278 | 7.24614 | 100° | 31km/h | 18429m | -16.1m/s | -55.3°C | 1.2% | 75hPa | 2.5V | 08:16:15 | 02:41:44 | 00:00:00 | |
| DL1XH-west | 2026-09-04 02:02:16 | 51.83281 | 7.24557 | 92° | 27km/h | 18511m | -16.6m/s | -53.8°C | 0.9% | 74.1hPa | 2.5V | 08:15:24 | 02:41:39 | 00:00:00 | |
| AA1-15 | 2026-09-04 02:02:15 | 51.83281 | 7.24546 | 89° | 29km/h | 18528m | -16.7m/s | -53.7°C | 0.8% | 73.9hPa | 2.6V | 08:15:24 | 02:41:38 | 00:00:00 | |
| DK5PH-5 | 2026-09-04 02:02:14 | 51.83281 | 7.24534 | 86° | 37km/h | 18545m | -16.8m/s | -53.7°C | 4.2% | 73.6hPa | 2.4V | 00:00:00 | 02:41:37 | 00:00:00 | |
| DM0DOS-11 | 2026-09-04 02:02:13 | 51.83272 | 7.24457 | 78° | 33km/h | 18646m | -16.8m/s | -54.4°C | 4.3% | 72.5hPa | 2.4V | 08:15:23 | 02:41:31 | 00:00:00 | |
| BIOWL1-15 | 2026-09-04 02:02:12 | 51.83277 | 7.24497 | 78° | 33km/h | 18595m | -17m/s | -54°C | 0.9% | 73.1hPa | 2.5V | 08:15:24 | 02:41:34 | 00:00:00 | |
| DL1XH-15 | 2026-09-04 02:02:12 | 51.83270 | 7.24444 | 77° | 31km/h | 18662m | -16.7m/s | -54.5°C | 4.4% | 72.3hPa | 2.5V | 08:15:24 | 02:41:30 | 00:00:00 | |
| DO2JMG | 2026-09-04 02:02:12 | 51.83279 | 7.24510 | 80° | 31km/h | 18578m | -17m/s | -53.9°C | 0.9% | 73.3hPa | 2.5V | 08:15:24 | 02:41:35 | 00:00:00 | |
| HSKMA3-T | 2026-09-04 02:02:10 | 51.83275 | 7.24483 | 78° | 33km/h | 18612m | -16.8m/s | -54.1°C | 0.9% | 72.9hPa | 2.6V | 08:16:15 | 02:41:33 | 00:00:00 | |
| DL1XH-west | 2026-09-04 02:02:05 | 51.83267 | 7.24419 | 83° | 31km/h | 18696m | -16.8m/s | -54.8°C | 1% | 72hPa | 2.6V | 08:16:15 | 02:41:28 | 00:00:00 | |
| AA1-15 | 2026-09-04 02:02:04 | 51.83267 | 7.24406 | 89° | 33km/h | 18712m | -16.9m/s | -54.9°C | 1.1% | 71.8hPa | 2.6V | 08:16:15 | 02:41:27 | 00:00:00 | |
| BIOWL1-15 | 2026-09-04 02:02:03 | 51.83268 | 7.24353 | 91° | 33km/h | 18779m | -17m/s | -54.7°C | 1% | 71hPa | 2.6V | 08:16:15 | 02:41:23 | 00:00:00 | |
| DO9LL-15 | 2026-09-04 02:02:03 | 51.83267 | 7.24393 | 92° | 40km/h | 18729m | -16.6m/s | -54.9°C | 4.6% | 71.5hPa | 2.5V | 00:00:00 | 02:41:26 | 00:00:00 | |
| DL1XH-15 | 2026-09-04 02:02:02 | 51.83268 | 7.24314 | 85° | 31km/h | 18830m | -16.8m/s | -54.5°C | 4.5% | 70.5hPa | 2.5V | 08:15:34 | 02:41:20 | 00:00:00 | |
| DO2JMG | 2026-09-04 02:02:01 | 51.83267 | 7.24366 | 93° | 33km/h | 18762m | -17.1m/s | -54.9°C | 1.1% | 71.2hPa | 2.5V | 08:16:15 | 02:41:24 | 00:00:00 | |
| HSKMA3-T | 2026-09-04 02:01:58 | 51.83268 | 7.24327 | 89° | 31km/h | 18813m | -16.7m/s | -54.4°C | 1% | 70.7hPa | 2.5V | 08:16:15 | 02:41:21 | 00:00:00 | |
| DL1XH-west | 2026-09-04 02:01:55 | 51.83266 | 7.24288 | 84° | 33km/h | 18864m | -16.9m/s | -54.4°C | 1% | 70.1hPa | 2.6V | 08:16:15 | 02:41:18 | 00:00:00 | |
| DJ2DS-15 | 2026-09-04 02:01:54 | 51.83264 | 7.24274 | 84° | 35km/h | 18881m | -16.8m/s | -54.4°C | 1.4% | 69.9hPa | 2.4V | 00:00:00 | 00:00:00 | 00:00:00 | |
| DM0DOS-11 | 2026-09-04 02:01:53 | 51.83258 | 7.24172 | 86° | 47km/h | 18980m | -16.8m/s | -54.8°C | 4.6% | 68.8hPa | 2.4V | 08:15:43 | 02:41:11 | 00:00:00 | |
| AA1-15 | 2026-09-04 02:01:53 | 51.83263 | 7.24259 | 84° | 38km/h | 18898m | -16.7m/s | -54.4°C | 1% | 69.7hPa | 2.4V | 08:16:15 | 02:41:16 | 00:00:00 | |
| BIOWL1-15 | 2026-09-04 02:01:53 | 51.83259 | 7.24191 | 86° | 46km/h | 18963m | -16.7m/s | -54.7°C | 1% | 69hPa | 2.5V | 08:16:15 | 02:41:12 | 00:00:00 | |
| DO2JMG | 2026-09-04 02:01:50 | 51.83260 | 7.24209 | 85° | 46km/h | 18947m | -16.7m/s | -54.7°C | 1.1% | 69.2hPa | 2.6V | 08:16:15 | 02:41:13 | 00:00:00 | |
| HSKMA3-T | 2026-09-04 02:01:47 | 51.83258 | 7.24153 | 89° | 47km/h | 18997m | -17.1m/s | -54.9°C | 1.1% | 68.7hPa | 2.5V | 08:16:15 | 02:41:10 | 00:00:00 | |
| DL1XH-west | 2026-09-04 02:01:44 | 51.83259 | 7.24096 | 95° | 46km/h | 19048m | -17.2m/s | -55°C | 1.1% | 68.1hPa | 2.5V | 08:16:15 | 02:41:07 | 00:00:00 | |
| DK5PH-5 | 2026-09-04 02:01:44 | 51.83259 | 7.24095 | 95° | 38km/h | 19048m | -17.1m/s | -54.9°C | 4.6% | 68.1hPa | 2.4V | 00:00:00 | 02:41:07 | 00:00:00 | |
| DM0DOS-11 | 2026-09-04 02:01:43 | 51.83272 | 7.23994 | 108° | 37km/h | 19149m | -16.5m/s | -54.5°C | 4.5% | 67.1hPa | 2.4V | 08:15:53 | 02:41:01 | 00:00:00 | |
| AA1-15 | 2026-09-04 02:01:42 | 51.83262 | 7.24059 | 100° | 44km/h | 19082m | -16.8m/s | -54.8°C | 1.1% | 67.8hPa | 2.5V | 08:16:15 | 02:41:05 | 00:00:00 | |
| BIOWL1-15 | 2026-09-04 02:01:40 | 51.83272 | 7.23994 | 109° | 37km/h | 19149m | -16.5m/s | -54.5°C | 1% | 67.1hPa | 2.4V | 08:16:15 | 02:41:01 | 00:00:00 | |
| DO2JMG | 2026-09-04 02:01:39 | 51.83269 | 7.24009 | 107° | 38km/h | 19133m | -16.7m/s | -54.5°C | 1.1% | 67.2hPa | 2.6V | 08:16:15 | 02:41:02 | 00:00:00 | |
| HSKMA3-T | 2026-09-04 02:01:37 | 51.83275 | 7.23980 | 111° | 37km/h | 19166m | -16.6m/s | -54.5°C | 1.1% | 66.9hPa | 2.5V | 08:16:15 | 02:41:00 | 00:00:00 | |
| DL1XH-west | 2026-09-04 02:01:34 | 51.83287 | 7.23938 | 115° | 38km/h | 19216m | -17.3m/s | -54.5°C | 1% | 66.3hPa | 2.6V | 08:16:15 | 02:40:57 | 00:00:00 | |
| AA1-15 | 2026-09-04 02:01:31 | 51.83297 | 7.23897 | 110° | 33km/h | 19268m | -17m/s | -54.2°C | 1% | 65.9hPa | 2.5V | 08:16:15 | 02:40:54 | 00:00:00 | |
| BIOWL1-15 | 2026-09-04 02:01:31 | 51.83307 | 7.23850 | 111° | 31km/h | 19336m | -17.1m/s | -54°C | 0.9% | 65.1hPa | 2.5V | 08:16:15 | 02:40:50 | 00:00:00 | |
| DO2JMG | 2026-09-04 02:01:29 | 51.83303 | 7.23873 | 109° | 29km/h | 19302m | -17m/s | -54.2°C | 0.9% | 65.5hPa | 2.6V | 08:16:15 | 02:40:52 | 00:00:00 | |
| HSKMA3-T | 2026-09-04 02:01:26 | 51.83310 | 7.23838 | 110° | 33km/h | 19353m | -17.1m/s | -53.9°C | 0.8% | 65hPa | 2.5V | 08:16:15 | 02:40:49 | 00:00:00 | |
| DF8AY | 2026-09-04 02:01:23 | 51.83318 | 7.23797 | 105° | 37km/h | 19405m | -17.2m/s | -53.9°C | 0.9% | 64.5hPa | 2.5V | 08:16:15 | 02:40:46 | 00:00:00 | |
| EDDB2-11 | 2026-09-04 02:01:22 | 51.83321 | 7.23783 | 103° | 35km/h | 19422m | -17.3m/s | -53.9°C | 1.3% | 64.3hPa | 2.4V | 00:00:00 | 00:00:00 | 00:00:00 | |
| DM0DOS-11 | 2026-09-04 02:01:21 | 51.83329 | 7.23722 | 101° | 40km/h | 19491m | -17m/s | -54°C | 4.3% | 63.6hPa | 2.4V | 08:16:13 | 02:40:41 | 00:00:00 | |
| AA1-15 | 2026-09-04 02:01:21 | 51.83323 | 7.23768 | 103° | 37km/h | 19439m | -17.2m/s | -53.9°C | 0.9% | 64.1hPa | 2.5V | 08:16:15 | 02:40:44 | 00:00:00 | |
| DO2JMG | 2026-09-04 02:01:19 | 51.83327 | 7.23738 | 101° | 38km/h | 19474m | -17.2m/s | -53.9°C | 0.9% | 63.8hPa | 2.6V | 08:16:15 | 02:40:42 | 00:00:00 | |
| HSKMA3-T | 2026-09-04 02:01:16 | 51.83333 | 7.23690 | 103° | 42km/h | 19525m | -17.6m/s | -54.2°C | 0.9% | 63.2hPa | 2.5V | 08:16:15 | 02:40:39 | 00:00:00 | |
| DL1XH-west | 2026-09-04 02:01:13 | 51.83339 | 7.23640 | 102° | 42km/h | 19578m | -17.5m/s | -54.2°C | 1% | 62.7hPa | 2.5V | 08:17:06 | 02:40:36 | 00:00:00 | |
| DF2AP-13 | 2026-09-04 02:01:13 | 51.83339 | 7.23640 | 103° | 24km/h | 19579m | -17.5m/s | 0°C | 0% | 0hPa | 2.5V | 00:00:00 | 02:40:36 | 00:00:00 | |
| DL1XH-15 | 2026-09-04 02:01:12 | 51.83358 | 7.23554 | 123° | 37km/h | 19681m | -17m/s | -54°C | 4.3% | 61.7hPa | 2.5V | 08:16:24 | 02:40:30 | 00:00:00 | |
| DF8AY | 2026-09-04 02:01:12 | 51.83342 | 7.23624 | 103° | 40km/h | 19596m | -17.2m/s | -54.1°C | 1% | 62.6hPa | 2.5V | 08:17:06 | 02:40:35 | 00:00:00 | |
| AA1-15 | 2026-09-04 02:01:11 | 51.83344 | 7.23608 | 105° | 38km/h | 19613m | -17m/s | -53.8°C | 0.9% | 62.4hPa | 2.5V | 08:17:57 | 02:40:34 | 00:00:00 | |
| DO2JMG | 2026-09-04 02:01:08 | 51.83354 | 7.23567 | 119° | 37km/h | 19664m | -16.9m/s | -53.9°C | 1% | 61.9hPa | 2.5V | 08:17:06 | 02:40:31 | 00:00:00 | |
| BIOWL1-15 | 2026-09-04 02:01:07 | 51.83369 | 7.23531 | 129° | 37km/h | 19714m | -16.9m/s | -54.2°C | 0.9% | 61.4hPa | 2.6V | 08:17:06 | 02:40:28 | 00:00:00 | |
| DF8AY | 2026-09-04 02:01:06 | 51.83393 | 7.23491 | 136° | 31km/h | 19782m | -17m/s | -54.2°C | 0.9% | 60.8hPa | 2.5V | 08:17:06 | 02:40:24 | 00:00:00 | |
| HSKMA3-T | 2026-09-04 02:01:04 | 51.83375 | 7.23520 | 133° | 35km/h | 19731m | -16.9m/s | -54.3°C | 1% | 61.2hPa | 2.6V | 08:17:06 | 02:40:27 | 00:00:00 | |
| DL1XH-west | 2026-09-04 02:01:03 | 51.83381 | 7.23510 | 134° | 35km/h | 19748m | -16.9m/s | -54.3°C | 1% | 61.1hPa | 2.4V | 08:17:06 | 02:40:26 | 00:00:00 | |
| AA1-15 | 2026-09-04 02:01:00 | 51.83399 | 7.23483 | 134° | 29km/h | 19798m | -16.8m/s | -54.3°C | 1% | 60.6hPa | 2.6V | 08:17:57 | 02:40:23 | 00:00:00 | |
| BIOWL1-15 | 2026-09-04 02:00:58 | 51.83420 | 7.23446 | 134° | 18km/h | 19883m | -16.9m/s | -54.5°C | 1.1% | 59.8hPa | 2.6V | 08:17:06 | 02:40:18 | 00:00:00 | |
| DO2JMG | 2026-09-04 02:00:58 | 51.83408 | 7.23466 | 133° | 26km/h | 19832m | -16.9m/s | -54.4°C | 1.1% | 60.3hPa | 2.4V | 08:17:06 | 02:40:21 | 00:00:00 | |
| BIOWL9-15 | 2026-09-04 02:00:57 | 51.83417 | 7.23452 | 135° | 20km/h | 19866m | -17.0m/s | -54.5°C | 1.4% | 60.0hPa | 2.5V | 00:00:00 | 00:00:00 | 00:00:00 | |
| SONDE2-11 | 2026-09-04 02:00:56 | 51.83420 | 7.23446 | 134° | 18km/h | 19883m | -16.9m/s | -54.5°C | 1.4% | 59.8hPa | 2.5V | 00:00:00 | 00:00:00 | 00:00:00 | |
| DO1YAY-16 | 2026-09-04 02:00:54 | 51.83423 | 7.23441 | 134° | 16km/h | 19900m | -17.0m/s | -54.4°C | 1.4% | 59.6hPa | 2.5V | 00:00:00 | 00:00:00 | 00:00:00 | |
| DM0DOS-11 | 2026-09-04 02:00:53 | 51.83437 | 7.23415 | 121° | 11km/h | 20006m | -17.4m/s | -54.2°C | 4.4% | 58.7hPa | 2.5V | 08:16:43 | 02:40:11 | 00:00:00 | |
| HSKMA3-T | 2026-09-04 02:00:53 | 51.83426 | 7.23436 | 133° | 15km/h | 19917m | -17.3m/s | -54.3°C | 1% | 59.5hPa | 2.5V | 08:17:06 | 02:40:16 | 00:00:00 | |
| DL1XH-west | 2026-09-04 02:00:52 | 51.83429 | 7.23431 | 133° | 15km/h | 19934m | -18.3m/s | -54.2°C | 0.9% | 59.4hPa | 2.5V | 08:17:06 | 02:40:15 | 00:00:00 | |
| DF8AY | 2026-09-04 02:00:50 | 51.83433 | 7.23423 | 129° | 13km/h | 19971m | -18.1m/s | -54.1°C | 1% | 59hPa | 2.6V | 08:17:06 | 02:40:13 | 00:00:00 | |
| AA1-15 | 2026-09-04 02:00:49 | 51.83435 | 7.23419 | 125° | 11km/h | 19988m | -17.6m/s | -54.2°C | 1% | 58.8hPa | 2.6V | 08:17:57 | 02:40:12 | 00:00:00 | |
| DO2JMG | 2026-09-04 02:00:48 | 51.83436 | 7.23415 | 121° | 11km/h | 20006m | -17.4m/s | -54.2°C | 1% | 58.7hPa | 2.5V | 08:17:06 | 02:40:11 | 00:00:00 | |
| BIOWL1-15 | 2026-09-04 02:00:45 | 51.83438 | 7.23401 | 63° | 7km/h | 20075m | -17.1m/s | -54.2°C | 0.9% | 58hPa | 2.6V | 08:17:06 | 02:40:07 | 00:00:00 | |
| DK5PH-5 | 2026-09-04 02:00:44 | 51.83438 | 7.23401 | 64° | 16km/h | 20075m | -17.1m/s | -54.1°C | 4.4% | 58.0hPa | 2.5V | 00:00:00 | 02:40:07 | 00:00:00 | |
| DM0DOS-11 | 2026-09-04 02:00:43 | 51.83430 | 7.23388 | 66° | 9km/h | 20176m | -17m/s | -53.7°C | 4.3% | 57.2hPa | 2.5V | 08:16:53 | 02:40:01 | 00:00:00 | |
| HSKMA3-T | 2026-09-04 02:00:42 | 51.83435 | 7.23396 | 26° | 7km/h | 20109m | -16.8m/s | -54°C | 1% | 57.8hPa | 2.5V | 08:17:06 | 02:40:05 | 00:00:00 | |
| DL1XH-west | 2026-09-04 02:00:41 | 51.83433 | 7.23395 | 27° | 7km/h | 20126m | -16.6m/s | -53.9°C | 0.9% | 57.6hPa | 2.5V | 08:17:06 | 02:40:04 | 00:00:00 | |
| AA1-15 | 2026-09-04 02:00:39 | 51.83431 | 7.23391 | 56° | 7km/h | 20159m | -17m/s | -53.8°C | 0.9% | 57.3hPa | 2.6V | 08:17:57 | 02:40:02 | 00:00:00 | |
| BIOWL1-15 | 2026-09-04 02:00:38 | 51.83426 | 7.23370 | 82° | 13km/h | 20244m | -16.9m/s | -53.7°C | 1% | 56.5hPa | 2.6V | 08:17:06 | 02:39:57 | 00:00:00 | |
| DO2JMG | 2026-09-04 02:00:37 | 51.83429 | 7.23384 | 69° | 11km/h | 20193m | -17.1m/s | -53.7°C | 0.9% | 57hPa | 2.5V | 08:17:06 | 02:40:00 | 00:00:00 | |
| DD1CC8 | 2026-09-04 02:00:37 | 51.83428 | 7.23380 | 70° | 11km/h | 20209m | -17.1m/s | -53.7°C | 1.3% | 56.9hPa | 2.5V | 00:00:00 | 00:00:00 | 00:00:00 | |
| DO3MHA-11 | 2026-09-04 02:00:36 | 51.83428 | 7.23380 | 71° | 18km/h | 20210m | -17.0m/s | -53.7°C | 4.3% | 56.8hPa | 2.5V | 00:00:00 | 02:39:59 | 00:00:00 | |
| DB0NH | 2026-09-04 02:00:35 | 51.83427 | 7.23375 | 76° | 16km/h | 20227m | -16.9m/s | -53.7°C | 4.3% | 56.6hPa | 2.6V | 08:16:00 | 02:39:58 | 00:00:00 | |
| DM0DOS-11 | 2026-09-04 02:00:33 | 51.83431 | 7.23327 | 109° | 24km/h | 20346m | -17.1m/s | -53.8°C | 4.3% | 55.7hPa | 2.5V | 08:17:03 | 02:39:51 | 00:00:00 | |
| DO9LL-15 | 2026-09-04 02:00:33 | 51.83425 | 7.23365 | 90° | 16km/h | 20262m | -16.8m/s | -53.5°C | 4.2% | 56.3hPa | 2.5V | 00:00:00 | 02:39:56 | 00:00:00 | |
| DL1XH-15 | 2026-09-04 02:00:32 | 51.83433 | 7.23317 | 106° | 26km/h | 20363m | -17.2m/s | -53.8°C | 4.3% | 55.5hPa | 2.5V | 08:17:04 | 02:39:50 | 00:00:00 | |
| DL1XH-west | 2026-09-04 02:00:31 | 51.83426 | 7.23352 | 100° | 18km/h | 20296m | -16.6m/s | -53.6°C | 0.9% | 56.1hPa | 2.5V | 08:17:06 | 02:39:54 | 00:00:00 | |
| AA1-15 | 2026-09-04 02:00:28 | 51.83431 | 7.23327 | 109° | 24km/h | 20346m | -17.1m/s | -53.8°C | 0.9% | 55.7hPa | 2.5V | 08:17:57 | 02:39:51 | 00:00:00 | |
| DF8AY | 2026-09-04 02:00:27 | 51.83433 | 7.23317 | 106° | 26km/h | 20363m | -17.2m/s | -53.8°C | 0.9% | 55.5hPa | 2.5V | 08:17:06 | 02:39:50 | 00:00:00 | |
| DO2JMG | 2026-09-04 02:00:26 | 51.83435 | 7.23307 | 105° | 26km/h | 20380m | -17.1m/s | -53.9°C | 1% | 55.4hPa | 2.5V | 08:17:06 | 02:39:49 | 00:00:00 | |
| DO3MHA-11 | 2026-09-04 02:00:26 | 51.83435 | 7.23307 | 106° | 20km/h | 20380m | -17.1m/s | -53.8°C | 4.3% | 55.3hPa | 2.6V | 00:00:00 | 02:39:49 | 00:00:00 | |
| DH3RM | 2026-09-04 02:00:25 | 51.83436 | 7.23298 | 106° | 24km/h | 20398m | -17.1m/s | -53.9°C | 1.3% | 55.2hPa | 2.6V | 08:17:00 | 00:00:00 | 00:00:00 | |
| BIOWL1-15 | 2026-09-04 02:00:25 | 51.83438 | 7.23289 | 105° | 22km/h | 20415m | -17m/s | -54°C | 0.9% | 55.1hPa | 2.6V | 08:17:57 | 02:39:47 | 00:00:00 | |
| DO3DL | 2026-09-04 02:00:24 | 51.83436 | 7.23298 | 106° | 24km/h | 20398m | -17.1m/s | -53.9°C | 1.3% | 55.2hPa | 2.6V | 08:17:00 | 00:00:00 | 00:00:00 | |
| DO1YAY-16 | 2026-09-04 02:00:23 | 51.83439 | 7.23281 | 107° | 20km/h | 20432m | -16.9m/s | -54.0°C | 1.3% | 54.9hPa | 2.6V | 00:00:00 | 00:00:00 | 00:00:00 | |
| DL1XH-15 | 2026-09-04 02:00:22 | 51.83451 | 7.23235 | 118° | 15km/h | 20534m | -17.1m/s | -54°C | 4.4% | 54.1hPa | 2.6V | 08:17:14 | 02:39:40 | 00:00:00 | |
| DL1XH-west | 2026-09-04 02:00:21 | 51.83443 | 7.23265 | 116° | 22km/h | 20465m | -17.3m/s | -54.1°C | 1% | 54.7hPa | 2.5V | 08:17:57 | 02:39:44 | 00:00:00 | |
| HSKMA3-T | 2026-09-04 02:00:20 | 51.83445 | 7.23257 | 114° | 22km/h | 20483m | -17.3m/s | -53.9°C | 0.9% | 54.5hPa | 2.5V | 08:17:57 | 02:39:43 | 00:00:00 | |
| DO2JMG | 2026-09-04 02:00:16 | 51.83453 | 7.23230 | 124° | 15km/h | 20551m | -17.2m/s | -54°C | 1% | 53.9hPa | 2.5V | 08:17:57 | 02:39:39 | 00:00:00 | |
| BIOWL1-15 | 2026-09-04 02:00:15 | 51.83460 | 7.23217 | 131° | 15km/h | 20603m | -17.7m/s | -54°C | 1% | 53.5hPa | 2.6V | 08:17:57 | 02:39:36 | 00:00:00 | |
| AA1-15 | 2026-09-04 02:00:14 | 51.83458 | 7.23221 | 134° | 16km/h | 20586m | -17.4m/s | -54°C | 1% | 53.6hPa | 2.5V | 08:17:57 | 02:39:37 | 00:00:00 | |
| DL1XH-west | 2026-09-04 02:00:10 | 51.83465 | 7.23205 | 113° | 7km/h | 20655m | -17.4m/s | -54.1°C | 1% | 53.1hPa | 2.5V | 08:17:57 | 02:39:33 | 00:00:00 | |
| DO2JMG | 2026-09-04 02:00:06 | 51.83466 | 7.23191 | 79° | 13km/h | 20725m | -17.5m/s | -53.7°C | 1% | 52.5hPa | 2.5V | 08:17:57 | 02:39:29 | 00:00:00 | |
| DF8AY | 2026-09-04 02:00:05 | 51.83465 | 7.23186 | 69° | 15km/h | 20743m | -17.7m/s | -53.7°C | 1% | 52.4hPa | 2.5V | 08:17:57 | 02:39:28 | 00:00:00 | |
| BIOWL1-15 | 2026-09-04 02:00:03 | 51.83458 | 7.23168 | 51° | 20km/h | 20795m | -17.6m/s | -53.5°C | 0.9% | 51.9hPa | 2.6V | 08:17:57 | 02:39:25 | 00:00:00 | |
| AA1-15 | 2026-09-04 02:00:03 | 51.83461 | 7.23174 | 54° | 20km/h | 20778m | -17.6m/s | -53.7°C | 1% | 52.1hPa | 2.6V | 08:17:57 | 02:39:26 | 00:00:00 | |
| DL1XH-15 | 2026-09-04 02:00:02 | 51.83442 | 7.23132 | 72° | 22km/h | 20883m | -17.6m/s | -53.4°C | 4.3% | 51.2hPa | 2.6V | 08:17:34 | 02:39:20 | 00:00:00 | |
| HSKMA3-T | 2026-09-04 02:00:00 | 51.83451 | 7.23155 | 50° | 22km/h | 20830m | -17.5m/s | -53.6°C | 0.9% | 51.6hPa | 2.5V | 08:17:57 | 02:39:23 | 00:00:00 | |
| DL1XH-west | 2026-09-04 01:59:59 | 51.83447 | 7.23148 | 55° | 22km/h | 20848m | -17.5m/s | -53.6°C | 1% | 51.5hPa | 2.5V | 08:17:57 | 02:39:22 | 00:00:00 | |
| DO2JMG | 2026-09-04 01:59:55 | 51.83439 | 7.23114 | 80° | 24km/h | 20918m | -17.8m/s | -53.4°C | 0.9% | 50.9hPa | 2.5V | 08:17:57 | 02:39:18 | 00:00:00 | |
| DF8AY | 2026-09-04 01:59:54 | 51.83438 | 7.23104 | 80° | 24km/h | 20935m | -18m/s | -53.4°C | 0.9% | 50.8hPa | 2.5V | 08:17:57 | 02:39:17 | 00:00:00 | |
| SONDE2-11 | 2026-09-04 01:59:53 | 51.83437 | 7.23094 | 79° | 24km/h | 20953m | -17.8m/s | -53.5°C | 1.3% | 50.6hPa | 2.5V | 00:00:00 | 00:00:00 | 00:00:00 | |
| DM0DOS-11 | 2026-09-04 01:59:52 | 51.83431 | 7.23047 | 81° | 26km/h | 21041m | -18m/s | -53.3°C | 4.4% | 49.9hPa | 2.5V | 08:17:43 | 02:39:11 | 00:00:00 | |
| AA1-15 | 2026-09-04 01:59:52 | 51.83436 | 7.23085 | 78° | 24km/h | 20971m | -17.7m/s | -53.6°C | 1% | 50.5hPa | 2.6V | 08:17:57 | 02:39:15 | 00:00:00 | |
| BIOWL1-15 | 2026-09-04 01:59:51 | 51.83435 | 7.23076 | 77° | 24km/h | 20988m | -17.9m/s | -53.6°C | 0.9% | 50.4hPa | 2.6V | 08:17:57 | 02:39:14 | 00:00:00 | |
| DL1XH-west | 2026-09-04 01:59:49 | 51.83432 | 7.23057 | 82° | 24km/h | 21024m | -17.9m/s | -53.4°C | 0.9% | 50.1hPa | 2.5V | 08:17:57 | 02:39:12 | 00:00:00 | |
| DO2JMG | 2026-09-04 01:59:44 | 51.83424 | 7.23006 | 72° | 24km/h | 21113m | -17.9m/s | -53.1°C | 0.9% | 49.4hPa | 2.5V | 08:17:57 | 02:39:07 | 00:00:00 | |
| SONCRA | 2026-09-04 01:59:44 | 51.83422 | 7.22997 | 74° | 20km/h | 21131m | -18.0m/s | -53.1°C | 1.3% | 49.2hPa | 2.5V | 00:00:00 | 00:00:00 | 00:00:00 | |
| DB0UT-7 | 2026-09-04 01:59:43 | 51.83422 | 7.22997 | 75° | 16km/h | 21131m | -17.9m/s | -53.0°C | 4.3% | 49.2hPa | 2.5V | 00:00:00 | 02:39:06 | 00:00:00 | |
| DM0DOS-11 | 2026-09-04 01:59:42 | 51.83422 | 7.22949 | 104° | 26km/h | 21223m | -18.3m/s | -53.1°C | 4.3% | 48.6hPa | 2.5V | 08:17:53 | 02:39:01 | 00:00:00 | |
| AA1-15 | 2026-09-04 01:59:42 | 51.83421 | 7.22988 | 82° | 22km/h | 21149m | -18.1m/s | -53.1°C | 0.9% | 49.1hPa | 2.5V | 08:17:57 | 02:39:05 | 00:00:00 | |
| BIOWL1-15 | 2026-09-04 01:59:40 | 51.83421 | 7.22969 | 100° | 26km/h | 21184m | -18.5m/s | -53.1°C | 0.9% | 48.9hPa | 2.6V | 08:17:57 | 02:39:03 | 00:00:00 | |
| DL1XH-west | 2026-09-04 01:59:38 | 51.83422 | 7.22949 | 105° | 26km/h | 21223m | -18.3m/s | -53.1°C | 0.9% | 48.6hPa | 2.5V | 08:17:57 | 02:39:01 | 00:00:00 | |
| DO2JMG | 2026-09-04 01:59:34 | 51.83430 | 7.22914 | 114° | 20km/h | 21295m | -18m/s | -52.8°C | 0.8% | 48hPa | 2.5V | 08:17:57 | 02:38:57 | 00:00:00 | |
| DL3AQ-11 | 2026-09-04 01:59:34 | 51.83431 | 7.22907 | 113° | 16km/h | 21313m | -18.4m/s | -52.8°C | 1.2% | 47.9hPa | 2.6V | 00:00:00 | 00:00:00 | 00:00:00 | |
| DO9LL-15 | 2026-09-04 01:59:33 | 51.83431 | 7.22907 | 114° | 15km/h | 21313m | -18.4m/s | -52.7°C | 4.2% | 47.9hPa | 2.6V | 00:00:00 | 02:38:56 | 00:00:00 | |
| DM0DOS-11 | 2026-09-04 01:59:32 | 51.83438 | 7.22877 | 101° | 13km/h | 21404m | -18.2m/s | -52.4°C | 4.1% | 47.2hPa | 2.6V | 08:18:03 | 02:38:51 | 00:00:00 | |
| AA1-15 | 2026-09-04 01:59:31 | 51.83435 | 7.22894 | 105° | 16km/h | 21349m | -18.5m/s | -52.8°C | 0.9% | 47.6hPa | 2.5V | 08:18:48 | 02:38:54 | 00:00:00 | |
| BIOWL1-15 | 2026-09-04 01:59:30 | 51.83436 | 7.22888 | 104° | 15km/h | 21367m | -18.4m/s | -52.7°C | 0.8% | 47.5hPa | 2.6V | 08:18:48 | 02:38:53 | 00:00:00 | |
| HSKMA3-T | 2026-09-04 01:59:28 | 51.83438 | 7.22877 | 102° | 13km/h | 21404m | -18.2m/s | -52.4°C | 0.8% | 47.2hPa | 2.6V | 08:18:48 | 02:38:51 | 00:00:00 | |
| DL1XH-west | 2026-09-04 01:59:27 | 51.83438 | 7.22871 | 105° | 11km/h | 21422m | -18.2m/s | -52.3°C | 0.7% | 47.1hPa | 2.5V | 08:18:48 | 02:38:50 | 00:00:00 | |
| DO2JMG | 2026-09-04 01:59:24 | 51.83442 | 7.22858 | 122° | 15km/h | 21476m | -18.4m/s | -52°C | 0.7% | 46.7hPa | 2.6V | 08:18:48 | 02:38:47 | 00:00:00 | |
| BIOWL9-15 | 2026-09-04 01:59:24 | 51.83444 | 7.22853 | 121° | 15km/h | 21494m | -18.5m/s | -52.0°C | 1.1% | 46.6hPa | 2.5V | 00:00:00 | 00:00:00 | 00:00:00 | |
| DL1XH-15 | 2026-09-04 01:59:22 | 51.83451 | 7.22825 | 89° | 7km/h | 21604m | -18.2m/s | -52.5°C | 4.1% | 45.8hPa | 2.5V | 08:18:14 | 02:38:40 | 00:00:00 | |
| AA1-15 | 2026-09-04 01:59:21 | 51.83447 | 7.22842 | 112° | 15km/h | 21531m | -18.6m/s | -52°C | 0.6% | 46.3hPa | 2.5V | 08:18:48 | 02:38:44 | 00:00:00 | |
| BIOWL1-15 | 2026-09-04 01:59:20 | 51.83449 | 7.22837 | 111° | 13km/h | 21549m | -18.7m/s | -52.1°C | 0.6% | 46.1hPa | 2.5V | 08:18:48 | 02:38:43 | 00:00:00 | |
| DL1XH-west | 2026-09-04 01:59:17 | 51.83451 | 7.22825 | 90° | 7km/h | 21604m | -18.2m/s | -52.5°C | 0.8% | 45.8hPa | 2.5V | 08:18:48 | 02:38:40 | 00:00:00 | |
| DO2JMG | 2026-09-04 01:59:13 | 51.83449 | 7.22808 | 75° | 15km/h | 21679m | -18.3m/s | -52.8°C | 1% | 45.3hPa | 2.6V | 08:18:48 | 02:38:36 | 00:00:00 | |
| SONCRA | 2026-09-04 01:59:13 | 51.83447 | 7.22802 | 75° | 16km/h | 21697m | -18.1m/s | -52.7°C | 1.3% | 45.1hPa | 2.5V | 00:00:00 | 00:00:00 | 00:00:00 | |
| DM0DOS-11 | 2026-09-04 01:59:12 | 51.83445 | 7.22768 | 92° | 24km/h | 21769m | -18.8m/s | -52.2°C | 4.1% | 44.6hPa | 2.5V | 08:18:23 | 02:38:31 | 00:00:00 | |
| AA1-15 | 2026-09-04 01:59:11 | 51.83446 | 7.22795 | 82° | 18km/h | 21715m | -18.3m/s | -52.5°C | 0.9% | 45hPa | 2.6V | 08:18:48 | 02:38:34 | 00:00:00 | |
| BIOWL1-15 | 2026-09-04 01:59:09 | 51.83445 | 7.22778 | 89° | 22km/h | 21751m | -18.3m/s | -52.2°C | 0.8% | 44.7hPa | 2.5V | 08:18:48 | 02:38:32 | 00:00:00 | |
| HSKMA3-T | 2026-09-04 01:59:07 | 51.83446 | 7.22758 | 91° | 26km/h | 21787m | -19.2m/s | -52.3°C | 0.8% | 44.5hPa | 2.6V | 08:18:48 | 02:38:30 | 00:00:00 | |
| DL1XH-west | 2026-09-04 01:59:06 | 51.83446 | 7.22749 | 96° | 20km/h | 21806m | -19.8m/s | -52.3°C | 0.8% | 44.4hPa | 2.6V | 08:18:48 | 02:38:29 | 00:00:00 | |
| DO3MHA-11 | 2026-09-04 01:59:06 | 51.83446 | 7.22749 | 96° | 18km/h | 21806m | -19.8m/s | -52.2°C | 4.1% | 44.3hPa | 2.6V | 00:00:00 | 02:38:29 | 00:00:00 | |
| DH3RM | 2026-09-04 01:59:05 | 51.83446 | 7.22749 | 97° | 20km/h | 21806m | -19.8m/s | -52.3°C | 1.2% | 44.4hPa | 2.5V | 08:18:00 | 00:00:00 | 00:00:00 | |
| DJ3KS | 2026-09-04 01:59:04 | 51.83447 | 7.22740 | 108° | 24km/h | 21826m | -21.4m/s | -52.1°C | 1.2% | 44.2hPa | 2.5V | 00:00:00 | 00:00:00 | 00:00:00 | |
| DO9LL-15 | 2026-09-04 01:59:03 | 51.83450 | 7.22725 | 120° | 16km/h | 21875m | -25.0m/s | -51.8°C | 3.9% | 43.9hPa | 2.5V | 08:18:00 | 02:38:26 | 00:00:00 | |
| DM0DOS-11 | 2026-09-04 01:59:02 | 51.83466 | 7.22704 | 145° | 15km/h | 21985m | -16.3m/s | -51.5°C | 3.8% | 43.1hPa | 2.5V | 08:18:33 | 02:38:21 | 00:00:00 | |
| DL1XH-15 | 2026-09-04 01:59:02 | 51.83468 | 7.22700 | 132° | 15km/h | 22004m | -20.7m/s | -51.4°C | 3.8% | 43.1hPa | 2.5V | 08:18:34 | 02:38:20 | 00:00:00 | |
| DO2JMG | 2026-09-04 01:59:02 | 51.83453 | 7.22719 | 126° | 18km/h | 21900m | -25m/s | -51.7°C | 0.6% | 43.8hPa | 2.6V | 08:18:48 | 02:38:25 | 00:00:00 | |
| AA1-15 | 2026-09-04 01:59:00 | 51.83459 | 7.22710 | 147° | 16km/h | 21946m | -22.3m/s | -51.6°C | 0.6% | 43.4hPa | 2.5V | 08:18:48 | 02:38:23 | 00:00:00 | |
| BIOWL1-15 | 2026-09-04 01:58:59 | 51.83463 | 7.22707 | 153° | 15km/h | 21967m | -19.9m/s | -51.5°C | 0.7% | 43.3hPa | 2.5V | 08:18:48 | 02:38:22 | 00:00:00 | |
| DL1XH-west | 2026-09-04 01:58:56 | 51.83471 | 7.22696 | 141° | 15km/h | 22023m | -20m/s | -51.5°C | 0.6% | 42.9hPa | 2.6V | 08:18:48 | 02:38:19 | 00:00:00 | |
| DB0ND-19 | 2026-09-04 01:58:55 | 51.83473 | 7.22692 | 120° | 13km/h | 22043m | -18.8m/s | -51.5°C | 1.1% | 42.8hPa | 2.5V | 00:00:00 | 00:00:00 | 00:00:00 | |
| DJ2DS-15 | 2026-09-04 01:58:54 | 51.83476 | 7.22681 | 104° | 15km/h | 22080m | -20.4m/s | -51.3°C | 1.1% | 42.5hPa | 2.5V | 00:00:00 | 00:00:00 | 00:00:00 | |
| BIOWL9-15 | 2026-09-04 01:58:53 | 51.83477 | 7.22675 | 103° | 16km/h | 22102m | -23.0m/s | -51.1°C | 1.1% | 42.4hPa | 2.5V | 00:00:00 | 00:00:00 | 00:00:00 | |
| DL1XH-15 | 2026-09-04 01:58:52 | 51.83477 | 7.22638 | 79° | 18km/h | 22207m | -21.9m/s | -51.7°C | 3.8% | 41.7hPa | 2.5V | 08:18:44 | 02:38:10 | 00:00:00 | |
| DM0DOS-11 | 2026-09-04 01:58:52 | 51.83477 | 7.22646 | 91° | 20km/h | 22186m | -21.6m/s | -51.5°C | 3.7% | 41.8hPa | 2.5V | 08:18:43 | 02:38:11 | 00:00:00 | |
| DO2JMG | 2026-09-04 01:58:51 | 51.83477 | 7.22668 | 90° | 18km/h | 22124m | -22m/s | -51.2°C | 0.5% | 42.2hPa | 2.5V | 08:18:48 | 02:38:14 | 00:00:00 | |
| AA1-15 | 2026-09-04 01:58:50 | 51.83477 | 7.22660 | 95° | 16km/h | 22145m | -19.9m/s | -51.3°C | 0.6% | 42.1hPa | 2.6V | 08:18:48 | 02:38:13 | 00:00:00 | |
| DF8AY | 2026-09-04 01:58:49 | 51.83477 | 7.22653 | 84° | 16km/h | 22165m | -20.4m/s | -51.4°C | 0.6% | 42hPa | 2.6V | 08:18:48 | 02:38:12 | 00:00:00 | |
| BIOWL1-15 | 2026-09-04 01:58:48 | 51.83477 | 7.22646 | 92° | 20km/h | 22186m | -21.6m/s | -51.6°C | 0.5% | 41.8hPa | 2.5V | 08:18:48 | 02:38:11 | 00:00:00 | |
| HSKMA3-T | 2026-09-04 01:58:46 | 51.83476 | 7.22630 | 90° | 20km/h | 22230m | -22.8m/s | -51.9°C | 0.6% | 41.6hPa | 2.5V | 08:18:48 | 02:38:09 | 00:00:00 | |
| DL1XH-west | 2026-09-04 01:58:45 | 51.83476 | 7.22622 | 78° | 20km/h | 22252m | -22.2m/s | -52.1°C | 0.7% | 41.4hPa | 2.5V | 08:18:48 | 02:38:08 | 00:00:00 | |
| DK5PH-5 | 2026-09-04 01:58:44 | 51.83475 | 7.22614 | 84° | 13km/h | 22274m | -20.9m/s | -52.3°C | 3.9% | 41.2hPa | 2.6V | 00:00:00 | 02:38:07 | 00:00:00 | |
| DB0UT-7 | 2026-09-04 01:58:43 | 51.83475 | 7.22607 | 92° | 13km/h | 22294m | -19.6m/s | -52.4°C | 4.0% | 41.1hPa | 2.6V | 00:00:00 | 02:38:06 | 00:00:00 | |
| DM0DOS-11 | 2026-09-04 01:58:42 | 51.83480 | 7.22576 | 119° | 16km/h | 22395m | -22.7m/s | -52°C | 3.8% | 40.6hPa | 2.6V | 08:18:53 | 02:38:01 | 00:00:00 | |
| DL1XH-15 | 2026-09-04 01:58:42 | 51.83482 | 7.22571 | 135° | 15km/h | 22417m | -23.2m/s | -52.1°C | 3.9% | 40.4hPa | 2.6V | 08:18:54 | 02:38:00 | 00:00:00 | |
| DO2JMG | 2026-09-04 01:58:40 | 51.83477 | 7.22588 | 108° | 16km/h | 22353m | -19.7m/s | -52.3°C | 0.7% | 40.8hPa | 2.5V | 08:19:39 | 02:38:03 | 00:00:00 | |
| AA1-15 | 2026-09-04 01:58:39 | 51.83478 | 7.22581 | 111° | 16km/h | 22373m | -20.1m/s | -52.2°C | 0.7% | 40.6hPa | 2.5V | 08:19:39 | 02:38:02 | 00:00:00 | |
| BIOWL1-15 | 2026-09-04 01:58:38 | 51.83480 | 7.22576 | 119° | 16km/h | 22395m | -22.7m/s | -52°C | 0.7% | 40.6hPa | 2.6V | 08:19:39 | 02:38:01 | 00:00:00 | |
| HSKMA3-T | 2026-09-04 01:58:36 | 51.83484 | 7.22567 | 134° | 11km/h | 22441m | -21.8m/s | -52.2°C | 0.7% | 40.3hPa | 2.5V | 08:19:39 | 02:37:59 | 00:00:00 | |
| DL1XH-west | 2026-09-04 01:58:35 | 51.83486 | 7.22565 | 156° | 9km/h | 22463m | -23.5m/s | -52.2°C | 0.6% | 40.1hPa | 2.5V | 08:19:39 | 02:37:58 | 00:00:00 | |
| DD1CC1-15 | 2026-09-04 01:58:34 | 51.83486 | 7.22564 | 156° | 9km/h | 22463m | -23.5m/s | -52.2°C | 1.1% | 40.1hPa | 2.5V | 08:19:00 | 00:00:00 | 00:00:00 | |
| DM0DOS-11 | 2026-09-04 01:58:33 | 51.83494 | 7.22558 | 71° | 5km/h | 22602m | -23.6m/s | -52.6°C | 3.9% | 39.3hPa | 2.5V | 08:19:03 | 02:37:51 | 00:00:00 | |
| DO9LL-15 | 2026-09-04 01:58:33 | 51.83490 | 7.22562 | 159° | 16km/h | 22506m | -19.9m/s | -52.3°C | 3.9% | 39.8hPa | 2.5V | 00:00:00 | 02:37:56 | 00:00:00 | |
| DL1XH-15 | 2026-09-04 01:58:32 | 51.83493 | 7.22557 | 43° | 4km/h | 22624m | -20.9m/s | -52.7°C | 4% | 39.1hPa | 2.5V | 08:19:04 | 02:37:50 | 00:00:00 | |
| DO2JMG | 2026-09-04 01:58:30 | 51.83494 | 7.22560 | 270° | 2km/h | 22560m | -17.8m/s | -52.5°C | 0.7% | 39.5hPa | 2.6V | 08:19:39 | 02:37:53 | 00:00:00 | |
| AA1-15 | 2026-09-04 01:58:29 | 51.83494 | 7.22560 | 77° | 2km/h | 22579m | -21.3m/s | -52.6°C | 0.7% | 39.4hPa | 2.5V | 08:19:39 | 02:37:52 | 00:00:00 | |
| DF8AY | 2026-09-04 01:58:28 | 51.83494 | 7.22559 | 71° | 5km/h | 22602m | -23.6m/s | -52.6°C | 0.7% | 39.3hPa | 2.5V | 08:19:39 | 02:37:51 | 00:00:00 | |
| BIOWL1-15 | 2026-09-04 01:58:27 | 51.83493 | 7.22557 | 43° | 4km/h | 22624m | -20.9m/s | -52.7°C | 0.8% | 39.1hPa | 2.5V | 08:19:39 | 02:37:50 | 00:00:00 | |
| HSKMA3-T | 2026-09-04 01:58:25 | 51.83491 | 7.22552 | 56° | 11km/h | 22664m | -21.6m/s | -52.8°C | 0.7% | 38.9hPa | 2.6V | 08:19:39 | 02:37:48 | 00:00:00 | |
| DB0NH | 2026-09-04 01:58:25 | 51.83490 | 7.22552 | 56° | 15km/h | 22664m | -21.6m/s | -52.7°C | 4.0% | 38.8hPa | 2.5V | 00:00:00 | 02:37:48 | 00:00:00 | |
| DB0ND-19 | 2026-09-04 01:58:24 | 51.83489 | 7.22549 | 48° | 9km/h | 22685m | -21.3m/s | -52.9°C | 1.1% | 38.8hPa | 2.5V | 00:00:00 | 00:00:00 | 00:00:00 | |
| DL1XH-west | 2026-09-04 01:58:24 | 51.83489 | 7.22549 | 49° | 11km/h | 22685m | -21.3m/s | -52.9°C | 0.7% | 38.8hPa | 2.5V | 08:19:39 | 02:37:47 | 00:00:00 | |
| DL1XH-15 | 2026-09-04 01:58:22 | 51.83471 | 7.22516 | 54° | 18km/h | 22804m | -11.1m/s | -53.4°C | 4.3% | 38hPa | 2.5V | 08:19:14 | 02:37:40 | 00:00:00 | |
| DO2JMG | 2026-09-04 01:58:20 | 51.83479 | 7.22532 | 44° | 15km/h | 22765m | -16.6m/s | -53.3°C | 0.8% | 38.2hPa | 2.6V | 08:19:39 | 02:37:43 | 00:00:00 | |
| AA1-15 | 2026-09-04 01:58:18 | 51.83474 | 7.22522 | 50° | 16km/h | 22792m | -11.5m/s | -53.4°C | 0.9% | 38hPa | 2.6V | 08:19:39 | 02:37:41 | 00:00:00 | |
| DF8AY | 2026-09-04 01:58:17 | 51.83471 | 7.22516 | 54° | 18km/h | 22804m | -11.1m/s | -53.4°C | 0.9% | 38hPa | 2.5V | 08:19:39 | 02:37:40 | 00:00:00 | |
| HSKMA3-T | 2026-09-04 01:58:14 | 51.83465 | 7.22496 | 69° | 20km/h | 22837m | -11.3m/s | -53.5°C | 0.9% | 37.8hPa | 2.6V | 08:19:39 | 02:37:37 | 00:00:00 | |
| DK5PH-5 | 2026-09-04 01:58:14 | 51.83464 | 7.22496 | 70° | 24km/h | 22837m | -11.2m/s | -53.4°C | 4.3% | 37.7hPa | 2.6V | 08:19:00 | 02:37:37 | 00:00:00 | |
| DM0DOS-11 | 2026-09-04 01:58:13 | 51.83457 | 7.22442 | 86° | 26km/h | 22906m | -11.9m/s | -53.1°C | 4.2% | 37.4hPa | 2.6V | 08:19:23 | 02:37:31 | 00:00:00 | |
| DL1XH-west | 2026-09-04 01:58:13 | 51.83463 | 7.22488 | 73° | 20km/h | 22848m | -11.3m/s | -53.5°C | 1% | 37.7hPa | 2.6V | 08:19:39 | 02:37:36 | 00:00:00 | |
| DO2JMG | 2026-09-04 01:58:09 | 51.83458 | 7.22452 | 85° | 24km/h | 22894m | -11.9m/s | -53.2°C | 0.9% | 37.4hPa | 2.5V | 08:19:39 | 02:37:32 | 00:00:00 | |
| AA1-15 | 2026-09-04 01:58:08 | 51.83457 | 7.22442 | 87° | 26km/h | 22906m | -11.9m/s | -53.1°C | 0.8% | 37.4hPa | 2.6V | 08:19:39 | 02:37:31 | 00:00:00 | |
| BIOWL1-15 | 2026-09-04 01:58:07 | 51.83457 | 7.22432 | 88° | 26km/h | 22918m | -12m/s | -53.1°C | 0.8% | 37.3hPa | 2.6V | 08:19:39 | 02:37:30 | 00:00:00 | |
| DF8AY | 2026-09-04 01:58:06 | 51.83457 | 7.22422 | 89° | 26km/h | 22930m | -11.9m/s | -53.1°C | 0.8% | 37.2hPa | 2.6V | 08:19:39 | 02:37:29 | 00:00:00 | |
| HSKMA3-T | 2026-09-04 01:58:04 | 51.83456 | 7.22402 | 90° | 27km/h | 22954m | -11.9m/s | -53.1°C | 0.8% | 37.1hPa | 2.5V | 08:19:39 | 02:37:27 | 00:00:00 | |
| DL1XH-west | 2026-09-04 01:58:02 | 51.83457 | 7.22380 | 93° | 27km/h | 22978m | -11.8m/s | -53.1°C | 0.8% | 37hPa | 2.6V | 08:19:39 | 02:37:25 | 00:00:00 | |
| DO2JMG | 2026-09-04 01:57:59 | 51.83458 | 7.22346 | 96° | 29km/h | 23013m | -12m/s | -53.1°C | 0.9% | 36.8hPa | 2.5V | 08:19:39 | 02:37:22 | 00:00:00 | |
| AA1-15 | 2026-09-04 01:57:57 | 51.83460 | 7.22324 | 100° | 27km/h | 23037m | -12.1m/s | -53°C | 0.8% | 36.6hPa | 2.5V | 08:19:39 | 02:37:20 | 00:00:00 | |
| BIOWL1-15 | 2026-09-04 01:57:56 | 51.83462 | 7.22313 | 102° | 27km/h | 23050m | -12m/s | -52.9°C | 0.8% | 36.6hPa | 2.6V | 08:19:39 | 02:37:19 | 00:00:00 | |
| DM0DOS-11 | 2026-09-04 01:57:56 | 51.83466 | 7.22282 | 101° | 24km/h | 23085m | -11.7m/s | -52.8°C | 4% | 36.4hPa | 2.5V | 08:19:38 | 02:37:16 | 00:00:00 | |
| HSKMA3-T | 2026-09-04 01:57:54 | 51.83465 | 7.22292 | 103° | 26km/h | 23073m | -11.7m/s | -52.8°C | 0.8% | 36.5hPa | 2.6V | 08:19:39 | 02:37:17 | 00:00:00 | |
| DL1XH-west | 2026-09-04 01:57:51 | 51.83469 | 7.22264 | 100° | 20km/h | 23108m | -11.3m/s | -52.9°C | 0.9% | 36.2hPa | 2.5V | 08:20:30 | 02:37:14 | 00:00:00 | |
| DO2JMG | 2026-09-04 01:57:48 | 51.83472 | 7.22242 | 103° | 16km/h | 23143m | -11.3m/s | -52.9°C | 0.8% | 36.1hPa | 2.5V | 08:20:30 | 02:37:11 | 00:00:00 | |
| AA1-15 | 2026-09-04 01:57:47 | 51.83473 | 7.22236 | 104° | 15km/h | 23154m | -11.4m/s | -52.9°C | 0.8% | 36hPa | 2.5V | 08:20:30 | 02:37:10 | 00:00:00 | |
| BIOWL1-15 | 2026-09-04 01:57:46 | 51.83475 | 7.22230 | 103° | 13km/h | 23165m | -11.5m/s | -52.8°C | 0.7% | 36hPa | 2.5V | 08:20:30 | 02:37:09 | 00:00:00 | |
| DF8AY | 2026-09-04 01:57:45 | 51.83475 | 7.22225 | 102° | 11km/h | 23177m | -11.6m/s | -52.7°C | 0.8% | 35.9hPa | 2.5V | 08:20:30 | 02:37:08 | 00:00:00 | |
| EDDB2-11 | 2026-09-04 01:57:44 | 51.83476 | 7.22220 | 99° | 9km/h | 23189m | -11.4m/s | -52.7°C | 1.2% | 35.8hPa | 2.6V | 00:00:00 | 00:00:00 | 00:00:00 | |
| HSKMA3-T | 2026-09-04 01:57:43 | 51.83477 | 7.22216 | 91° | 9km/h | 23200m | -11.2m/s | -52.8°C | 0.7% | 35.7hPa | 2.6V | 08:20:30 | 02:37:06 | 00:00:00 | |
| DB0UT-7 | 2026-09-04 01:57:43 | 51.83477 | 7.22216 | 92° | 13km/h | 23200m | -11.2m/s | -52.7°C | 4.0% | 35.7hPa | 2.6V | 00:00:00 | 02:37:06 | 00:00:00 | |
| DL1XH-15 | 2026-09-04 01:57:42 | 51.83469 | 7.22193 | 37° | 13km/h | 23269m | -11.2m/s | -53.1°C | 4.2% | 35.3hPa | 2.6V | 08:19:54 | 02:37:00 | 00:00:00 | |
| DL1XH-west | 2026-09-04 01:57:41 | 51.83476 | 7.22208 | 65° | 9km/h | 23223m | -11.7m/s | -52.9°C | 0.8% | 35.6hPa | 2.5V | 08:20:30 | 02:37:04 | 00:00:00 | |
| DO2JMG | 2026-09-04 01:57:38 | 51.83471 | 7.22197 | 40° | 13km/h | 23258m | -11.5m/s | -53.1°C | 0.8% | 35.4hPa | 2.5V | 08:20:30 | 02:37:01 | 00:00:00 | |
| BIOWL1-15 | 2026-09-04 01:57:37 | 51.83464 | 7.22186 | 37° | 15km/h | 23292m | -11.4m/s | -53.2°C | 0.9% | 35.2hPa | 2.6V | 08:20:30 | 02:36:58 | 00:00:00 | |
| AA1-15 | 2026-09-04 01:57:36 | 51.83466 | 7.22190 | 38° | 15km/h | 23281m | -11.4m/s | -53.2°C | 0.8% | 35.3hPa | 2.6V | 08:20:30 | 02:36:59 | 00:00:00 | |
| DF8AY | 2026-09-04 01:57:34 | 51.83461 | 7.22182 | 40° | 13km/h | 23303m | -11.1m/s | -53.2°C | 0.8% | 35.2hPa | 2.5V | 08:20:30 | 02:36:57 | 00:00:00 | |
| HSKMA3-T | 2026-09-04 01:57:33 | 51.83459 | 7.22178 | 45° | 13km/h | 23314m | -10.9m/s | -53.2°C | 0.8% | 35.1hPa | 2.5V | 08:20:30 | 02:36:56 | 00:00:00 | |
| DL1XH-west | 2026-09-04 01:57:31 | 51.83455 | 7.22169 | 61° | 13km/h | 23337m | -11.3m/s | -53.2°C | 0.8% | 35hPa | 2.6V | 08:20:30 | 02:36:54 | 00:00:00 | |
| DO2JMG | 2026-09-04 01:57:27 | 51.83450 | 7.22150 | 73° | 13km/h | 23382m | -11.5m/s | -53.4°C | 0.9% | 34.7hPa | 2.5V | 08:20:30 | 02:36:50 | 00:00:00 | |
| DF5WG-10 | 2026-09-04 01:57:27 | 51.83450 | 7.22150 | 73° | 15km/h | 23382m | -11.5m/s | -53.4°C | 4.2% | 34.7hPa | 2.5V | 08:20:00 | 02:36:50 | 00:00:00 | |
| DM0DOS-11 | 2026-09-04 01:57:26 | 51.83446 | 7.22129 | 79° | 15km/h | 23428m | -12.1m/s | -53.4°C | 4.3% | 34.5hPa | 2.6V | 08:20:08 | 02:36:46 | 00:00:00 | |
| BIOWL1-15 | 2026-09-04 01:57:25 | 51.83448 | 7.22140 | 77° | 13km/h | 23405m | -11.9m/s | -53.4°C | 0.9% | 34.6hPa | 2.6V | 08:20:30 | 02:36:48 | 00:00:00 | |
| DF8AY | 2026-09-04 01:57:24 | 51.83447 | 7.22134 | 80° | 15km/h | 23417m | -12m/s | -53.4°C | 0.9% | 34.5hPa | 2.6V | 08:20:30 | 02:36:47 | 00:00:00 | |
| DO2KSM | 2026-09-04 01:57:23 | 51.83447 | 7.22134 | 81° | 15km/h | 23417m | -12.0m/s | -53.4°C | 1.2% | 34.5hPa | 2.6V | 08:20:00 | 00:00:00 | 00:00:00 | |
| DL1XH-15 | 2026-09-04 01:57:22 | 51.83445 | 7.22092 | 100° | 15km/h | 23499m | -11.7m/s | -53.2°C | 4.2% | 34.1hPa | 2.6V | 08:20:14 | 02:36:40 | 00:00:00 | |
| HSKMA3-T | 2026-09-04 01:57:22 | 51.83445 | 7.22123 | 83° | 15km/h | 23440m | -11.8m/s | -53.4°C | 1% | 34.4hPa | 2.5V | 08:20:30 | 02:36:45 | 00:00:00 | |
| DL1XH-west | 2026-09-04 01:57:20 | 51.83444 | 7.22111 | 93° | 16km/h | 23464m | -12.1m/s | -53.3°C | 0.8% | 34.2hPa | 2.5V | 08:20:30 | 02:36:43 | 00:00:00 | |
| DO2JMG | 2026-09-04 01:57:17 | 51.83445 | 7.22092 | 101° | 15km/h | 23499m | -11.7m/s | -53.2°C | 0.9% | 34.1hPa | 2.6V | 08:20:30 | 02:36:40 | 00:00:00 | |
| DO1YAY-16 | 2026-09-04 01:57:17 | 51.83445 | 7.22086 | 102° | 15km/h | 23510m | -12.1m/s | -53.2°C | 1.2% | 34.0hPa | 2.5V | 00:00:00 | 00:00:00 | 00:00:00 | |
| DM0DOS-11 | 2026-09-04 01:57:16 | 51.83446 | 7.22068 | 90° | 16km/h | 23546m | -12.4m/s | -53.3°C | 4.2% | 33.8hPa | 2.5V | 08:20:18 | 02:36:36 | 00:00:00 | |
| AA1-15 | 2026-09-04 01:57:14 | 51.83446 | 7.22074 | 97° | 15km/h | 23534m | -12.2m/s | -53.3°C | 0.9% | 33.9hPa | 2.5V | 08:20:30 | 02:36:37 | 00:00:00 | |
| DF8AY | 2026-09-04 01:57:13 | 51.83446 | 7.22068 | 91° | 16km/h | 23546m | -12.4m/s | -53.3°C | 0.8% | 33.8hPa | 2.5V | 08:20:30 | 02:36:36 | 00:00:00 | |
| HSKMA3-T | 2026-09-04 01:57:11 | 51.83445 | 7.22055 | 76° | 16km/h | 23570m | -12.4m/s | -53.3°C | 0.9% | 33.7hPa | 2.6V | 08:20:30 | 02:36:34 | 00:00:00 | |
| DL1XH-west | 2026-09-04 01:57:10 | 51.83444 | 7.22049 | 71° | 18km/h | 23582m | -12.2m/s | -53.4°C | 0.8% | 33.7hPa | 2.6V | 08:20:30 | 02:36:33 | 00:00:00 | |
| DB0NH | 2026-09-04 01:57:10 | 51.83443 | 7.22049 | 72° | 18km/h | 23583m | -12.2m/s | -53.3°C | 4.2% | 33.6hPa | 2.6V | 00:00:00 | 02:36:33 | 00:00:00 | |
| DL3AQ-11 | 2026-09-04 01:57:09 | 51.83442 | 7.22042 | 67° | 20km/h | 23595m | -12.2m/s | -53.4°C | 1.2% | 33.6hPa | 2.5V | 00:00:00 | 00:00:00 | 00:00:00 | |
| DM0DOS-11 | 2026-09-04 01:57:08 | 51.83429 | 7.21992 | 75° | 24km/h | 23667m | -11.8m/s | -53.5°C | 4.3% | 33.2hPa | 2.5V | 08:20:28 | 02:36:26 | 00:00:00 | |
| DO2JMG | 2026-09-04 01:57:06 | 51.83435 | 7.22018 | 68° | 24km/h | 23631m | -12.1m/s | -53.5°C | 0.9% | 33.4hPa | 2.5V | 08:20:30 | 02:36:29 | 00:00:00 | |
| AA1-15 | 2026-09-04 01:57:04 | 51.83431 | 7.22001 | 71° | 26km/h | 23656m | -11.9m/s | -53.5°C | 0.9% | 33.3hPa | 2.6V | 08:20:30 | 02:36:27 | 00:00:00 | |
| BIOWL1-15 | 2026-09-04 01:57:03 | 51.83429 | 7.21992 | 75° | 24km/h | 23667m | -11.8m/s | -53.5°C | 1% | 33.2hPa | 2.5V | 08:20:30 | 02:36:26 | 00:00:00 | |
| DF8AY | 2026-09-04 01:57:02 | 51.83428 | 7.21982 | 78° | 24km/h | 23680m | -12.1m/s | -53.5°C | 0.9% | 33.2hPa | 2.5V | 08:20:30 | 02:36:25 | 00:00:00 | |
| DL1XH-west | 2026-09-04 01:57:00 | 51.83426 | 7.21964 | 82° | 24km/h | 23704m | -11.8m/s | -53.6°C | 0.9% | 33.1hPa | 2.5V | 08:21:21 | 02:36:23 | 00:00:00 | |
| SMARD9-15 | 2026-09-04 01:56:59 | 51.83425 | 7.21945 | 83° | 24km/h | 23727m | -11.5m/s | -53.8°C | 1.2% | 32.9hPa | 2.5V | 00:00:00 | 00:00:00 | 00:00:00 | |
| DM0DOS-11 | 2026-09-04 01:56:58 | 51.83426 | 7.21889 | 97° | 31km/h | 23785m | -11.6m/s | -53.5°C | 4.2% | 32.6hPa | 2.5V | 08:20:38 | 02:36:16 | 00:00:00 | |
| DO2JMG | 2026-09-04 01:56:56 | 51.83424 | 7.21924 | 89° | 27km/h | 23750m | -11.7m/s | -53.7°C | 1% | 32.8hPa | 2.5V | 08:21:21 | 02:36:19 | 00:00:00 | |
| AA1-15 | 2026-09-04 01:56:53 | 51.83426 | 7.21889 | 98° | 31km/h | 23785m | -11.6m/s | -53.6°C | 0.9% | 32.6hPa | 2.5V | 08:21:21 | 02:36:16 | 00:00:00 | |
| DF8AY | 2026-09-04 01:56:51 | 51.83429 | 7.21863 | 105° | 33km/h | 23809m | -11.5m/s | -53.6°C | 0.9% | 32.5hPa | 2.6V | 08:21:21 | 02:36:14 | 00:00:00 | |
| HSKMA3-T | 2026-09-04 01:56:50 | 51.83432 | 7.21850 | 108° | 35km/h | 23820m | -11.5m/s | -53.7°C | 0.9% | 32.5hPa | 2.6V | 08:21:21 | 02:36:13 | 00:00:00 | |
| DL1XH-west | 2026-09-04 01:56:49 | 51.83435 | 7.21837 | 112° | 35km/h | 23832m | -11.4m/s | -53.7°C | 1% | 32.4hPa | 2.5V | 08:21:21 | 02:36:12 | 00:00:00 | |
| DC6BW-12 | 2026-09-04 01:56:48 | 51.83435 | 7.21837 | 112° | 35km/h | 23832m | -11.4m/s | -53.7°C | 1.3% | 32.4hPa | 2.6V | 08:21:00 | 00:00:00 | 00:00:00 | |
| DM0DOS-11 | 2026-09-04 01:56:47 | 51.83458 | 7.21767 | 119° | 27km/h | 23902m | -11.5m/s | -53.9°C | 4.4% | 32hPa | 2.6V | 08:20:48 | 02:36:06 | 00:00:00 | |
| DO2JMG | 2026-09-04 01:56:45 | 51.83450 | 7.21788 | 119° | 31km/h | 23879m | -11.4m/s | -53.8°C | 1% | 32.1hPa | 2.6V | 08:21:21 | 02:36:08 | 00:00:00 | |
| BIOWL1-15 | 2026-09-04 01:56:42 | 51.83462 | 7.21757 | 119° | 27km/h | 23914m | -11.6m/s | -53.9°C | 0.9% | 32hPa | 2.5V | 08:21:21 | 02:36:05 | 00:00:00 | |
| DF8AY | 2026-09-04 01:56:41 | 51.83465 | 7.21747 | 118° | 27km/h | 23925m | -11.6m/s | -53.9°C | 1% | 31.9hPa | 2.5V | 08:21:21 | 02:36:04 | 00:00:00 | |
| HSKMA3-T | 2026-09-04 01:56:39 | 51.83472 | 7.21727 | 118° | 27km/h | 23948m | -11.4m/s | -53.9°C | 1% | 31.8hPa | 2.5V | 08:21:21 | 02:36:02 | 00:00:00 | |
| DM0DOS-11 | 2026-09-04 01:56:38 | 51.83493 | 7.21676 | 133° | 22km/h | 24018m | -11.5m/s | -53.7°C | 4.4% | 31.5hPa | 2.5V | 08:20:58 | 02:35:56 | 00:00:00 | |
| DL1XH-west | 2026-09-04 01:56:38 | 51.83475 | 7.21717 | 119° | 27km/h | 23960m | -11.4m/s | -53.8°C | 1% | 31.8hPa | 2.6V | 08:21:21 | 02:36:01 | 00:00:00 | |
| DO2JMG | 2026-09-04 01:56:35 | 51.83486 | 7.21690 | 125° | 26km/h | 23994m | -11.8m/s | -53.7°C | 1% | 31.6hPa | 2.5V | 08:21:21 | 02:35:58 | 00:00:00 | |
| BIOWL1-15 | 2026-09-04 01:56:34 | 51.83497 | 7.21670 | 139° | 22km/h | 24029m | -11.7m/s | -53.7°C | 1% | 31.4hPa | 2.5V | 08:21:21 | 02:35:55 | 00:00:00 | |
| AA1-15 | 2026-09-04 01:56:31 | 51.83501 | 7.21665 | 143° | 22km/h | 24040m | -11.9m/s | -53.8°C | 1% | 31.4hPa | 2.6V | 08:21:21 | 02:35:54 | 00:00:00 | |
| DF8AY | 2026-09-04 01:56:30 | 51.83505 | 7.21660 | 145° | 20km/h | 24052m | -12.1m/s | -53.8°C | 0.9% | 31.3hPa | 2.6V | 08:21:21 | 02:35:53 | 00:00:00 | |
| HSKMA3-T | 2026-09-04 01:56:29 | 51.83509 | 7.21656 | 144° | 20km/h | 24064m | -12.2m/s | -53.8°C | 1% | 31.2hPa | 2.6V | 08:21:21 | 02:35:52 | 00:00:00 | |
| DM0DOS-11 | 2026-09-04 01:56:28 | 51.83527 | 7.21624 | 105° | 16km/h | 24136m | -11.6m/s | -53.3°C | 4.4% | 30.9hPa | 2.6V | 08:21:08 | 02:35:46 | 00:00:00 | |
| DL1XH-west | 2026-09-04 01:56:28 | 51.83513 | 7.21651 | 143° | 20km/h | 24076m | -12m/s | -53.8°C | 1.1% | 31.2hPa | 2.5V | 08:21:21 | 02:35:51 | 00:00:00 | |
| DO2JMG | 2026-09-04 01:56:24 | 51.83525 | 7.21630 | 112° | 16km/h | 24125m | -11.9m/s | -53.4°C | 1% | 30.9hPa | 2.6V | 08:21:21 | 02:35:47 | 00:00:00 | |
| DL1XH-15 | 2026-09-04 01:56:22 | 51.83534 | 7.21585 | 113° | 22km/h | 24207m | -11.6m/s | -52.9°C | 4.3% | 30.5hPa | 2.6V | 08:21:14 | 02:35:40 | 00:00:00 | |
| BIOWL1-15 | 2026-09-04 01:56:21 | 51.83529 | 7.21612 | 99° | 16km/h | 24159m | -11.6m/s | -53.1°C | 0.9% | 30.8hPa | 2.5V | 08:21:21 | 02:35:44 | 00:00:00 | |
| AA1-15 | 2026-09-04 01:56:20 | 51.83530 | 7.21605 | 101° | 18km/h | 24171m | -12m/s | -53°C | 1% | 30.7hPa | 2.5V | 08:21:21 | 02:35:43 | 00:00:00 | |
| DF8AY | 2026-09-04 01:56:19 | 51.83531 | 7.21599 | 105° | 18km/h | 24183m | -12.1m/s | -53°C | 0.9% | 30.7hPa | 2.5V | 08:21:21 | 02:35:42 | 00:00:00 | |
| HSKMA3-T | 2026-09-04 01:56:18 | 51.83532 | 7.21592 | 110° | 20km/h | 24195m | -11.7m/s | -52.9°C | 0.9% | 30.6hPa | 2.5V | 08:21:21 | 02:35:41 | 00:00:00 | |
| DO2JMG | 2026-09-04 01:56:14 | 51.83544 | 7.21561 | 126° | 27km/h | 24242m | -12m/s | -52.8°C | 0.9% | 30.4hPa | 2.5V | 08:21:21 | 02:35:37 | 00:00:00 | |
| DF5WG-10 | 2026-09-04 01:56:14 | 51.83544 | 7.21560 | 127° | 29km/h | 24243m | -11.9m/s | -52.7°C | 4.2% | 30.3hPa | 2.5V | 00:00:00 | 02:35:37 | 00:00:00 | |
| DK5PH-5 | 2026-09-04 01:56:13 | 51.83548 | 7.21552 | 129° | 24km/h | 24254m | -11.8m/s | -52.7°C | 4.2% | 30.3hPa | 2.5V | 00:00:00 | 02:35:36 | 00:00:00 | |
| DL1XH-15 | 2026-09-04 01:56:12 | 51.83581 | 7.21502 | 137° | 27km/h | 24326m | -12.2m/s | -52.3°C | 4.1% | 30hPa | 2.5V | 08:21:24 | 02:35:30 | 00:00:00 | |
| BIOWL1-15 | 2026-09-04 01:56:11 | 51.83559 | 7.21534 | 133° | 33km/h | 24278m | -12.2m/s | -52.6°C | 0.8% | 30.2hPa | 2.5V | 08:21:21 | 02:35:34 | 00:00:00 | |
| AA1-15 | 2026-09-04 01:56:10 | 51.83564 | 7.21526 | 135° | 33km/h | 24290m | -12.2m/s | -52.6°C | 0.8% | 30.2hPa | 2.6V | 08:21:21 | 02:35:33 | 00:00:00 | |
| DF8AY | 2026-09-04 01:56:09 | 51.83570 | 7.21517 | 135° | 31km/h | 24302m | -12.1m/s | -52.5°C | 0.8% | 30.1hPa | 2.6V | 08:22:12 | 02:35:32 | 00:00:00 | |
| DM0DOS-11 | 2026-09-04 01:56:08 | 51.83600 | 7.21479 | 144° | 22km/h | 24375m | -12.4m/s | -51.8°C | 3.9% | 29.8hPa | 2.6V | 08:21:28 | 02:35:26 | 00:00:00 | |
| DL1XH-west | 2026-09-04 01:56:08 | 51.83576 | 7.21509 | 137° | 29km/h | 24314m | -11.9m/s | -52.4°C | 0.8% | 30hPa | 2.6V | 08:22:12 | 02:35:31 | 00:00:00 | |
| BIOWL1-15 | 2026-09-04 01:56:04 | 51.83614 | 7.21467 | 149° | 24km/h | 24412m | -12.4m/s | -51.7°C | 0.6% | 29.6hPa | 2.5V | 08:22:12 | 02:35:23 | 00:00:00 | |
| DO2JMG | 2026-09-04 01:56:04 | 51.83596 | 7.21484 | 143° | 22km/h | 24362m | -12.6m/s | -51.9°C | 0.7% | 29.8hPa | 2.5V | 08:22:12 | 02:35:27 | 00:00:00 | |
| DF5WG-10 | 2026-09-04 01:56:04 | 51.83595 | 7.21484 | 143° | 24km/h | 24363m | -12.5m/s | -51.8°C | 3.9% | 29.8hPa | 2.5V | 00:00:00 | 02:35:27 | 00:00:00 | |
| DO3DL | 2026-09-04 01:56:03 | 51.83595 | 7.21484 | 144° | 22km/h | 24363m | -12.6m/s | -51.9°C | 1.1% | 29.8hPa | 2.5V | 08:22:00 | 00:00:00 | 00:00:00 | |
| DL1XH-15 | 2026-09-04 01:56:02 | 51.83631 | 7.21453 | 147° | 26km/h | 24450m | -12.3m/s | -51.8°C | 3.9% | 29.4hPa | 2.5V | 08:21:34 | 02:35:20 | 00:00:00 | |
| AA1-15 | 2026-09-04 01:55:59 | 51.83620 | 7.21462 | 149° | 24km/h | 24425m | -12.5m/s | -51.8°C | 0.7% | 29.6hPa | 2.5V | 08:22:12 | 02:35:22 | 00:00:00 | |
| DL1XH-west | 2026-09-04 01:55:58 | 51.83625 | 7.21458 | 149° | 26km/h | 24437m | -12.4m/s | -51.8°C | 0.7% | 29.5hPa | 2.5V | 08:22:12 | 02:35:21 | 00:00:00 | |
| HSKMA3-T | 2026-09-04 01:55:57 | 51.83631 | 7.21453 | 147° | 26km/h | 24450m | -12.4m/s | -51.8°C | 0.6% | 29.4hPa | 2.5V | 08:22:12 | 02:35:20 | 00:00:00 | |
| DO2JMG | 2026-09-04 01:55:53 | 51.83652 | 7.21432 | 145° | 24km/h | 24500m | -12.2m/s | -51.8°C | 0.7% | 29.2hPa | 2.5V | 08:22:12 | 02:35:16 | 00:00:00 | |
| DL1XH-15 | 2026-09-04 01:55:52 | 51.83676 | 7.21413 | 161° | 13km/h | 24572m | -12.2m/s | -51.8°C | 3.9% | 28.9hPa | 2.6V | 08:21:44 | 02:35:10 | 00:00:00 | |
| BIOWL1-15 | 2026-09-04 01:55:49 | 51.83669 | 7.21417 | 152° | 15km/h | 24548m | -12.2m/s | -51.8°C | 0.7% | 29hPa | 2.6V | 08:22:12 | 02:35:12 | 00:00:00 | |
| DL1XH-west | 2026-09-04 01:55:48 | 51.83673 | 7.21415 | 155° | 15km/h | 24560m | -12.2m/s | -51.8°C | 0.7% | 29hPa | 2.6V | 08:22:12 | 02:35:11 | 00:00:00 | |
| HSKMA3-T | 2026-09-04 01:55:46 | 51.83680 | 7.21412 | 166° | 13km/h | 24584m | -12.1m/s | -51.8°C | 0.6% | 28.8hPa | 2.5V | 08:22:12 | 02:35:09 | 00:00:00 | |
| SONDE2-11 | 2026-09-04 01:55:45 | 51.83683 | 7.21411 | 169° | 13km/h | 24597m | -12.2m/s | -51.8°C | 1.1% | 28.8hPa | 2.5V | 00:00:00 | 00:00:00 | 00:00:00 | |
| DO2JMG | 2026-09-04 01:55:43 | 51.83691 | 7.21410 | 171° | 16km/h | 24621m | -12.2m/s | -51.8°C | 0.7% | 28.7hPa | 2.5V | 08:22:12 | 02:35:06 | 00:00:00 | |
| DB0UT-7 | 2026-09-04 01:55:43 | 51.83690 | 7.21410 | 171° | 7km/h | 24622m | -12.1m/s | -51.8°C | 3.9% | 28.6hPa | 2.5V | 00:00:00 | 02:35:06 | 00:00:00 | |
| DL1XH-15 | 2026-09-04 01:55:42 | 51.83713 | 7.21405 | 169° | 13km/h | 24696m | -12.3m/s | -52°C | 3.9% | 28.4hPa | 2.5V | 08:21:54 | 02:35:00 | 00:00:00 | |
| BIOWL1-15 | 2026-09-04 01:55:39 | 51.83706 | 7.21407 | 168° | 15km/h | 24671m | -12.5m/s | -51.9°C | 0.7% | 28.5hPa | 2.5V | 08:22:12 | 02:35:02 | 00:00:00 | |
| DM0DOS-11 | 2026-09-04 01:55:38 | 51.83724 | 7.21409 | 212° | 11km/h | 24745m | -12.1m/s | -52.3°C | 4% | 28.1hPa | 2.6V | 08:21:58 | 02:34:56 | 00:00:00 | |
| DL1XH-west | 2026-09-04 01:55:37 | 51.83713 | 7.21405 | 170° | 13km/h | 24696m | -12.3m/s | -52°C | 0.7% | 28.4hPa | 2.5V | 08:22:12 | 02:35:00 | 00:00:00 | |
| HSKMA3-T | 2026-09-04 01:55:35 | 51.83719 | 7.21405 | 189° | 11km/h | 24720m | -12.2m/s | -52.2°C | 0.7% | 28.2hPa | 2.6V | 08:22:12 | 02:34:58 | 00:00:00 | |
| DO2JMG | 2026-09-04 01:55:33 | 51.83724 | 7.21409 | 212° | 11km/h | 24745m | -12.1m/s | -52.3°C | 0.8% | 28.2hPa | 2.6V | 08:22:12 | 02:34:56 | 00:00:00 | |
| BIOWL1-15 | 2026-09-04 01:55:28 | 51.83734 | 7.21425 | 244° | 9km/h | 24807m | -12.1m/s | -52.4°C | 0.8% | 27.9hPa | 2.6V | 08:22:12 | 02:34:51 | 00:00:00 | |
| DO3MHA-11 | 2026-09-04 01:55:28 | 51.83734 | 7.21425 | 244° | 5km/h | 24807m | -12.0m/s | -52.3°C | 4.1% | 27.8hPa | 2.5V | 00:00:00 | 02:34:51 | 00:00:00 | |
| DM0DOS-11 | 2026-09-04 01:55:27 | 51.83738 | 7.21435 | 238° | 4km/h | 24870m | -12.3m/s | -52.3°C | 4.1% | 27.6hPa | 2.5V | 08:22:08 | 02:34:46 | 00:00:00 | |
| DF8AY | 2026-09-04 01:55:27 | 51.83735 | 7.21428 | 245° | 7km/h | 24820m | -12.3m/s | -52.4°C | 0.8% | 27.8hPa | 2.6V | 08:22:12 | 02:34:50 | 00:00:00 | |
| DL1XH-west | 2026-09-04 01:55:26 | 51.83736 | 7.21430 | 249° | 5km/h | 24832m | -12.3m/s | -52.4°C | 0.8% | 27.8hPa | 2.6V | 08:22:12 | 02:34:49 | 00:00:00 | |
| HSKMA3-T | 2026-09-04 01:55:24 | 51.83737 | 7.21434 | 247° | 4km/h | 24858m | -12.2m/s | -52.3°C | 0.8% | 27.7hPa | 2.5V | 08:22:12 | 02:34:47 | 00:00:00 | |
| DF5WG-10 | 2026-09-04 01:55:24 | 51.83737 | 7.21434 | 248° | 4km/h | 24858m | -12.1m/s | -52.3°C | 4.1% | 27.6hPa | 2.5V | 00:00:00 | 02:34:47 | 00:00:00 | |
| DO8TBO-1 | 2026-09-04 01:55:23 | 51.83738 | 7.21435 | 239° | 9km/h | 24870m | -12.2m/s | -52.3°C | 4.1% | 27.6hPa | 2.5V | 00:00:00 | 02:34:46 | 00:00:00 | |
| DL1XH-15 | 2026-09-04 01:55:22 | 51.83743 | 7.21438 | 228° | 4km/h | 24946m | -11.9m/s | -52°C | 4% | 27.3hPa | 2.5V | 08:22:14 | 02:34:40 | 00:00:00 | |
| DO2JMG | 2026-09-04 01:55:22 | 51.83738 | 7.21436 | 235° | 4km/h | 24883m | -12.3m/s | -52.3°C | 0.8% | 27.6hPa | 2.5V | 08:22:12 | 02:34:45 | 00:00:00 | |
| DL1XH-west | 2026-09-04 01:55:16 | 51.83743 | 7.21439 | 233° | 4km/h | 24958m | -12.1m/s | -52°C | 0.8% | 27.3hPa | 2.5V | 08:23:03 | 02:34:39 | 00:00:00 | |
| DM0DOS-11 | 2026-09-04 01:55:15 | 51.83745 | 7.21439 | 217° | 0km/h | 24995m | -12.4m/s | -52°C | 4% | 27.1hPa | 2.6V | 08:22:18 | 02:34:36 | 00:00:00 | |
| HSKMA3-T | 2026-09-04 01:55:13 | 51.83745 | 7.21439 | 217° | 2km/h | 24995m | -12.4m/s | -52°C | 0.7% | 27.1hPa | 2.6V | 08:23:03 | 02:34:36 | 00:00:00 | |
| DB0UT-7 | 2026-09-04 01:55:13 | 51.83745 | 7.21439 | 218° | 13km/h | 24996m | -12.3m/s | -51.9°C | 4.0% | 27.0hPa | 2.6V | 00:00:00 | 00:00:00 | 00:00:00 | |
| DL1XH-15 | 2026-09-04 01:55:12 | 51.83752 | 7.21432 | 156° | 7km/h | 25071m | -12.4m/s | -51.7°C | 4.1% | 26.8hPa | 2.6V | 08:22:24 | 02:34:30 | 00:00:00 | |
| DO2JMG | 2026-09-04 01:55:11 | 51.83746 | 7.21438 | 140° | 2km/h | 25021m | -12.5m/s | -51.9°C | 0.8% | 27hPa | 2.5V | 08:23:03 | 02:34:34 | 00:00:00 | |
| DL8DAS-15 | 2026-09-04 01:55:10 | 51.83746 | 7.21438 | 141° | 2km/h | 25021m | -12.5m/s | -51.9°C | 1.2% | 27.0hPa | 2.5V | 00:00:00 | 00:00:00 | 00:00:00 | |
| EDDB2-11 | 2026-09-04 01:55:09 | 51.83749 | 7.21435 | 151° | 4km/h | 25046m | -12.1m/s | -51.8°C | 1.1% | 26.9hPa | 2.5V | 00:00:00 | 00:00:00 | 00:00:00 | |
| DM0DOS-11 | 2026-09-04 01:55:08 | 51.83763 | 7.21428 | 181° | 13km/h | 25122m | -12.4m/s | -51°C | 3.8% | 26.6hPa | 2.5V | 08:22:28 | 02:34:26 | 00:00:00 | |
| BIOWL1-15 | 2026-09-04 01:55:06 | 51.83754 | 7.21431 | 165° | 9km/h | 25084m | -12.2m/s | -51.6°C | 0.8% | 26.7hPa | 2.6V | 08:23:03 | 02:34:29 | 00:00:00 | |
| DL1XH-west | 2026-09-04 01:55:05 | 51.83757 | 7.21429 | 171° | 11km/h | 25097m | -12.4m/s | -51.4°C | 0.7% | 26.7hPa | 2.6V | 08:23:03 | 02:34:28 | 00:00:00 | |
| HSKMA3-T | 2026-09-04 01:55:03 | 51.83763 | 7.21428 | 181° | 13km/h | 25122m | -12.4m/s | -51°C | 0.6% | 26.6hPa | 2.5V | 08:23:03 | 02:34:26 | 00:00:00 | |
| DO2JMG | 2026-09-04 01:55:00 | 51.83775 | 7.21429 | 195° | 18km/h | 25160m | -12.3m/s | -50.8°C | 0.6% | 26.4hPa | 2.6V | 08:23:03 | 02:34:23 | 00:00:00 | |
| DO9LL-15 | 2026-09-04 01:55:00 | 51.83775 | 7.21429 | 196° | 15km/h | 25161m | -12.3m/s | -50.8°C | 3.7% | 26.4hPa | 2.6V | 00:00:00 | 02:34:23 | 00:00:00 | |
| DH3RM | 2026-09-04 01:54:59 | 51.83775 | 7.21429 | 196° | 18km/h | 25161m | -12.3m/s | -50.8°C | 1.0% | 26.4hPa | 2.6V | 08:23:00 | 00:00:00 | 00:00:00 | |
| DM0DOS-11 | 2026-09-04 01:54:58 | 51.83804 | 7.21446 | 211° | 15km/h | 25249m | -12.5m/s | -50.9°C | 3.7% | 26.1hPa | 2.6V | 08:22:38 | 02:34:16 | 00:00:00 | |
| BIOWL1-15 | 2026-09-04 01:54:56 | 51.83797 | 7.21441 | 209° | 16km/h | 25224m | -12.2m/s | -50.8°C | 0.6% | 26.1hPa | 2.5V | 08:23:03 | 02:34:18 | 00:00:00 | |
| DL1XH-west | 2026-09-04 01:54:54 | 51.83801 | 7.21443 | 210° | 15km/h | 25236m | -12.3m/s | -50.8°C | 0.5% | 26.1hPa | 2.5V | 08:23:03 | 02:34:17 | 00:00:00 | |
| HSKMA3-T | 2026-09-04 01:54:52 | 51.83808 | 7.21448 | 207° | 15km/h | 25262m | -12.6m/s | -51°C | 0.6% | 26hPa | 2.6V | 08:23:03 | 02:34:15 | 00:00:00 | |
| DO2JMG | 2026-09-04 01:54:49 | 51.83819 | 7.21456 | 210° | 18km/h | 25300m | -12.7m/s | -51°C | 0.5% | 25.9hPa | 2.5V | 08:23:03 | 02:34:12 | 00:00:00 | |
| DO3MHA-11 | 2026-09-04 01:54:48 | 51.83823 | 7.21459 | 214° | 22km/h | 25313m | -12.4m/s | -51.0°C | 3.8% | 25.7hPa | 2.5V | 00:00:00 | 02:34:11 | 00:00:00 | |
| GOEST3-10 | 2026-09-04 01:54:47 | 51.83827 | 7.21464 | 221° | 22km/h | 25326m | -12.4m/s | -51.0°C | 3.8% | 25.7hPa | 2.5V | 00:00:00 | 00:00:00 | 00:00:00 | |
| DH3RM | 2026-09-04 01:54:46 | 51.83827 | 7.21464 | 221° | 20km/h | 25326m | -12.4m/s | -51.0°C | 1.0% | 25.8hPa | 2.5V | 08:23:00 | 00:00:00 | 00:00:00 | |
| DM0DOS-11 | 2026-09-04 01:54:45 | 51.83842 | 7.21490 | 242° | 24km/h | 25376m | -12.6m/s | -51.1°C | 3.9% | 25.5hPa | 2.5V | 08:22:48 | 02:34:06 | 00:00:00 | |
| BIOWL1-15 | 2026-09-04 01:54:45 | 51.83835 | 7.21475 | 233° | 22km/h | 25351m | -12.4m/s | -51.1°C | 0.6% | 25.6hPa | 2.6V | 08:23:03 | 02:34:08 | 00:00:00 | |
| AA1-15 | 2026-09-04 01:54:44 | 51.83838 | 7.21482 | 238° | 24km/h | 25363m | -12.5m/s | -51.1°C | 0.6% | 25.6hPa | 2.6V | 08:23:03 | 02:34:07 | 00:00:00 | |
| DL1XH-west | 2026-09-04 01:54:43 | 51.83842 | 7.21490 | 243° | 24km/h | 25376m | -12.6m/s | -51.1°C | 0.7% | 25.5hPa | 2.5V | 08:23:03 | 02:34:06 | 00:00:00 | |
| HSKMA3-T | 2026-09-04 01:54:41 | 51.83847 | 7.21507 | 250° | 24km/h | 25402m | -13.1m/s | -51°C | 0.6% | 25.4hPa | 2.5V | 08:23:03 | 02:34:04 | 00:00:00 | |
| DO2JMG | 2026-09-04 01:54:39 | 51.83851 | 7.21525 | 253° | 24km/h | 25429m | -13.1m/s | -51°C | 0.6% | 25.4hPa | 2.6V | 08:23:03 | 02:34:02 | 00:00:00 | |
| EDDB2-11 | 2026-09-04 01:54:39 | 51.83853 | 7.21533 | 259° | 20km/h | 25442m | -12.7m/s | -50.9°C | 1.0% | 25.3hPa | 2.6V | 00:00:00 | 00:00:00 | 00:00:00 | |
| DO3MHA-11 | 2026-09-04 01:54:38 | 51.83853 | 7.21533 | 260° | 16km/h | 25442m | -12.7m/s | -50.9°C | 3.8% | 25.2hPa | 2.6V | 00:00:00 | 02:34:01 | 00:00:00 | |
| DM0DOS-11 | 2026-09-04 01:54:37 | 51.83856 | 7.21566 | 276° | 15km/h | 25507m | -12.9m/s | -51°C | 3.8% | 25hPa | 2.5V | 08:22:58 | 02:33:56 | 00:00:00 | |
| BIOWL1-15 | 2026-09-04 01:54:35 | 51.83855 | 7.21555 | 270° | 16km/h | 25481m | -12.8m/s | -50.9°C | 0.6% | 25.1hPa | 2.5V | 08:23:03 | 02:33:58 | 00:00:00 | |
| AA1-15 | 2026-09-04 01:54:33 | 51.83856 | 7.21566 | 276° | 15km/h | 25507m | -12.9m/s | -51°C | 0.6% | 25hPa | 2.5V | 08:23:03 | 02:33:56 | 00:00:00 | |
| DL1XH-west | 2026-09-04 01:54:32 | 51.83855 | 7.21571 | 281° | 15km/h | 25520m | -12.7m/s | -51°C | 0.6% | 25hPa | 2.6V | 08:23:03 | 02:33:55 | 00:00:00 | |
| HSKMA3-T | 2026-09-04 01:54:31 | 51.83855 | 7.21577 | 289° | 15km/h | 25533m | -12.9m/s | -51.1°C | 0.6% | 24.9hPa | 2.6V | 08:23:03 | 02:33:54 | 00:00:00 | |
| DO2JMG | 2026-09-04 01:54:29 | 51.83852 | 7.21587 | 296° | 16km/h | 25559m | -12.9m/s | -51°C | 0.6% | 24.8hPa | 2.5V | 08:23:03 | 02:33:52 | 00:00:00 | |
| DO3MHA-11 | 2026-09-04 01:54:28 | 51.83851 | 7.21593 | 300° | 16km/h | 25572m | -12.8m/s | -50.9°C | 3.9% | 24.7hPa | 2.6V | 00:00:00 | 02:33:51 | 00:00:00 | |
| AU51GT2 | 2026-09-04 01:54:27 | 51.83846 | 7.21606 | 304° | 18km/h | 25598m | -12.9m/s | -50.9°C | 1.0% | 24.7hPa | 2.6V | 00:00:00 | 00:00:00 | 00:00:00 | |
| DM0DOS-11 | 2026-09-04 01:54:26 | 51.83839 | 7.21624 | 304° | 16km/h | 25636m | -13.3m/s | -50.8°C | 3.8% | 24.5hPa | 2.6V | 08:23:08 | 02:33:46 | 00:00:00 | |
| AA1-15 | 2026-09-04 01:54:22 | 51.83836 | 7.21629 | 302° | 15km/h | 25650m | -13.3m/s | -50.8°C | 0.6% | 24.5hPa | 2.5V | 08:23:54 | 02:33:45 | 00:00:00 | |
| DL1XH-west | 2026-09-04 01:54:21 | 51.83835 | 7.21634 | 296° | 13km/h | 25663m | -13.6m/s | -50.7°C | 0.6% | 24.4hPa | 2.5V | 08:23:54 | 02:33:44 | 00:00:00 | |
| HSKMA3-T | 2026-09-04 01:54:20 | 51.83834 | 7.21638 | 290° | 11km/h | 25677m | -13.4m/s | -50.7°C | 0.6% | 24.4hPa | 2.5V | 08:23:54 | 02:33:43 | 00:00:00 | |
| DO2JMG | 2026-09-04 01:54:18 | 51.83833 | 7.21647 | 272° | 11km/h | 25703m | -13.2m/s | -50.7°C | 0.6% | 24.3hPa | 2.6V | 08:23:54 | 02:33:41 | 00:00:00 | |
| BIOWL1-15 | 2026-09-04 01:54:13 | 51.83833 | 7.21671 | 294° | 9km/h | 25784m | -13.7m/s | -50.3°C | 0.5% | 24hPa | 2.5V | 08:23:54 | 02:33:35 | 00:00:00 | |
| DK5PH-5 | 2026-09-04 01:54:13 | 51.83834 | 7.21667 | 283° | 15km/h | 25771m | -13.7m/s | -50.3°C | 3.7% | 24.0hPa | 2.5V | 00:00:00 | 02:33:36 | 00:00:00 | |
| DL1XH-15 | 2026-09-04 01:54:12 | 51.83823 | 7.21698 | 305° | 22km/h | 25853m | -13.6m/s | -50.2°C | 3.7% | 23.7hPa | 2.5V | 08:23:24 | 02:33:30 | 00:00:00 | |
| DL1XH-west | 2026-09-04 01:54:11 | 51.83832 | 7.21675 | 301° | 13km/h | 25798m | -13.9m/s | -50.3°C | 0.5% | 23.9hPa | 2.6V | 08:23:54 | 02:33:34 | 00:00:00 | |
| HSKMA3-T | 2026-09-04 01:54:09 | 51.83828 | 7.21684 | 301° | 16km/h | 25825m | -14.1m/s | -50.3°C | 0.5% | 23.8hPa | 2.6V | 08:23:54 | 02:33:32 | 00:00:00 | |
| DO2JMG | 2026-09-04 01:54:08 | 51.83825 | 7.21691 | 300° | 20km/h | 25839m | -14.1m/s | -50.3°C | 0.5% | 23.8hPa | 2.5V | 08:23:54 | 02:33:31 | 00:00:00 | |
| BIOWL1-15 | 2026-09-04 01:54:03 | 51.83808 | 7.21720 | 322° | 16km/h | 25907m | -13.9m/s | -50.3°C | 0.5% | 23.6hPa | 2.6V | 08:23:54 | 02:33:26 | 00:00:00 | |
| DL1XH-15 | 2026-09-04 01:54:02 | 51.83788 | 7.21735 | 333° | 13km/h | 25991m | -14.1m/s | -50.3°C | 3.7% | 23.2hPa | 2.6V | 08:23:34 | 02:33:20 | 00:00:00 | |
| AA1-15 | 2026-09-04 01:54:01 | 51.83800 | 7.21727 | 340° | 15km/h | 25935m | -13.9m/s | -50.3°C | 0.6% | 23.4hPa | 2.5V | 08:23:54 | 02:33:24 | 00:00:00 | |
| DL1XH-west | 2026-09-04 01:54:00 | 51.83797 | 7.21729 | 333° | 13km/h | 25949m | -14.3m/s | -50.3°C | 0.5% | 23.4hPa | 2.5V | 08:23:54 | 02:33:23 | 00:00:00 | |
| HSKMA3-T | 2026-09-04 01:53:58 | 51.83791 | 7.21733 | 347° | 13km/h | 25977m | -14.1m/s | -50.3°C | 0.5% | 23.3hPa | 2.5V | 08:23:54 | 02:33:21 | 00:00:00 | |
| DO3MHA-11 | 2026-09-04 01:53:58 | 51.83791 | 7.21733 | 347° | 15km/h | 25977m | -14.1m/s | -50.2°C | 3.7% | 23.2hPa | 2.5V | 00:00:00 | 02:33:21 | 00:00:00 | |
| GOEST3-10 | 2026-09-04 01:53:57 | 51.83788 | 7.21735 | 334° | 13km/h | 25991m | -14.0m/s | -50.2°C | 3.7% | 23.2hPa | 2.5V | 00:00:00 | 00:00:00 | 00:00:00 | |
| DO2JMG | 2026-09-04 01:53:57 | 51.83788 | 7.21735 | 333° | 13km/h | 25991m | -14.1m/s | -50.3°C | 0.5% | 23.2hPa | 2.6V | 08:23:54 | 02:33:20 | 00:00:00 | |
| DM0DOS-11 | 2026-09-04 01:53:56 | 51.83776 | 7.21744 | 328° | 15km/h | 26046m | -14.4m/s | -50.2°C | 3.7% | 23.1hPa | 2.5V | 08:23:38 | 02:33:16 | 00:00:00 | |
| BUE01 | 2026-09-04 01:53:56 | 51.83782 | 7.21739 | 327° | 11km/h | 26019m | -14.3m/s | -50.2°C | 1.0% | 23.1hPa | 2.5V | 00:00:00 | 00:00:00 | 00:00:00 | |
| AU51GT2 | 2026-09-04 01:53:55 | 51.83782 | 7.21739 | 327° | 11km/h | 26019m | -14.3m/s | -50.2°C | 1.0% | 23.1hPa | 2.5V | 00:00:00 | 00:00:00 | 00:00:00 | |
| SMARD9-15 | 2026-09-04 01:53:53 | 51.83773 | 7.21748 | 328° | 18km/h | 26061m | -14.0m/s | -50.2°C | 1.0% | 23.0hPa | 2.5V | 00:00:00 | 00:00:00 | 00:00:00 | |
| DL1XH-15 | 2026-09-04 01:53:52 | 51.83754 | 7.21764 | 340° | 15km/h | 26131m | -14m/s | -50.2°C | 3.7% | 22.7hPa | 2.5V | 08:23:44 | 02:33:10 | 00:00:00 | |
| BIOWL1-15 | 2026-09-04 01:53:52 | 51.83773 | 7.21748 | 328° | 18km/h | 26060m | -14m/s | -50.2°C | 0.5% | 23hPa | 2.5V | 08:23:54 | 02:33:15 | 00:00:00 | |
| DL1XH-west | 2026-09-04 01:53:50 | 51.83765 | 7.21755 | 329° | 20km/h | 26089m | -14m/s | -50.2°C | 0.6% | 22.9hPa | 2.6V | 08:23:54 | 02:33:13 | 00:00:00 | |
| DF8AY | 2026-09-04 01:53:49 | 51.83761 | 7.21758 | 337° | 16km/h | 26102m | -14.1m/s | -50.2°C | 0.5% | 22.8hPa | 2.5V | 08:23:54 | 02:33:12 | 00:00:00 | |
| HSKMA3-T | 2026-09-04 01:53:47 | 51.83754 | 7.21764 | 341° | 15km/h | 26131m | -14m/s | -50.2°C | 0.5% | 22.7hPa | 2.5V | 08:23:54 | 02:33:10 | 00:00:00 | |
| DO2JMG | 2026-09-04 01:53:46 | 51.83750 | 7.21766 | 333° | 13km/h | 26145m | -14.3m/s | -50.3°C | 0.5% | 22.7hPa | 2.6V | 08:23:54 | 02:33:09 | 00:00:00 | |
| DB0ND-19 | 2026-09-04 01:53:45 | 51.83745 | 7.21770 | 333° | 9km/h | 26173m | -14.7m/s | -50.3°C | 1.0% | 22.6hPa | 2.5V | 00:00:00 | 00:00:00 | 00:00:00 | |
| DM0DOS-11 | 2026-09-04 01:53:44 | 51.83742 | 7.21772 | 334° | 11km/h | 26188m | -14.1m/s | -50.2°C | 3.7% | 22.5hPa | 2.5V | 08:23:48 | 02:33:06 | 00:00:00 | |
| DF5WG-10 | 2026-09-04 01:53:44 | 51.83745 | 7.21770 | 334° | 11km/h | 26173m | -14.7m/s | -50.2°C | 3.7% | 22.5hPa | 2.5V | 00:00:00 | 02:33:07 | 00:00:00 | |
| DB0UT-7 | 2026-09-04 01:53:43 | 51.83742 | 7.21772 | 335° | 7km/h | 26188m | -14.0m/s | -50.2°C | 3.7% | 22.5hPa | 2.5V | 00:00:00 | 02:33:06 | 00:00:00 | |
| DL1XH-15 | 2026-09-04 01:53:42 | 51.83730 | 7.21786 | 299° | 11km/h | 26273m | -14.4m/s | -50.1°C | 3.7% | 22.2hPa | 2.6V | 08:23:54 | 02:33:00 | 00:00:00 | |
| AA1-15 | 2026-09-04 01:53:40 | 51.83735 | 7.21777 | 335° | 9km/h | 26230m | -14.7m/s | -50.2°C | 0.5% | 22.4hPa | 2.5V | 08:23:54 | 02:33:03 | 00:00:00 | |
| DF8AY | 2026-09-04 01:53:39 | 51.83733 | 7.21780 | 312° | 11km/h | 26244m | -14.3m/s | -50.1°C | 0.5% | 22.4hPa | 2.6V | 08:23:54 | 02:33:02 | 00:00:00 | |
| HSKMA3-T | 2026-09-04 01:53:36 | 51.83728 | 7.21789 | 311° | 9km/h | 26287m | -14.4m/s | -50°C | 0.5% | 22.2hPa | 2.5V | 08:24:45 | 02:32:59 | 00:00:00 | |
| DO2JMG | 2026-09-04 01:53:35 | 51.83727 | 7.21793 | 298° | 11km/h | 26301m | -14.5m/s | -50°C | 0.5% | 22.1hPa | 2.5V | 08:24:45 | 02:32:58 | 00:00:00 | |
| DL3AQ-11 | 2026-09-04 01:53:34 | 51.83724 | 7.21799 | 299° | 9km/h | 26330m | -14.7m/s | -49.9°C | 1.0% | 22.0hPa | 2.5V | 00:00:00 | 00:00:00 | 00:00:00 | |
| DL1XH-15 | 2026-09-04 01:53:32 | 51.83718 | 7.21812 | 272° | 5km/h | 26417m | -14.7m/s | -49.5°C | 3.5% | 21.8hPa | 2.5V | 08:24:04 | 02:32:50 | 00:00:00 | |
| DL1XH-west | 2026-09-04 01:53:30 | 51.83720 | 7.21806 | 317° | 7km/h | 26373m | -14.6m/s | -49.8°C | 0.5% | 21.9hPa | 2.6V | 08:24:45 | 02:32:53 | 00:00:00 | |
| BIOWL1-15 | 2026-09-04 01:53:29 | 51.83719 | 7.21808 | 288° | 5km/h | 26388m | -14.6m/s | -49.7°C | 0.5% | 21.9hPa | 2.5V | 08:24:45 | 02:32:52 | 00:00:00 | |
| DF8AY | 2026-09-04 01:53:28 | 51.83719 | 7.21810 | 303° | 5km/h | 26403m | -14.6m/s | -49.6°C | 0.4% | 21.8hPa | 2.5V | 08:24:45 | 02:32:51 | 00:00:00 | |
| HSKMA3-T | 2026-09-04 01:53:25 | 51.83717 | 7.21817 | 271° | 5km/h | 26447m | -14.9m/s | -49.5°C | 0.4% | 21.7hPa | 2.6V | 08:24:45 | 02:32:48 | 00:00:00 | |
| DO2JMG | 2026-09-04 01:53:24 | 51.83717 | 7.21820 | 292° | 7km/h | 26461m | -14.3m/s | -49.6°C | 0.4% | 21.6hPa | 2.6V | 08:24:45 | 02:32:47 | 00:00:00 | |
| DC6BW-12 | 2026-09-04 01:53:23 | 51.83717 | 7.21820 | 293° | 7km/h | 26461m | -14.3m/s | -49.6°C | 1.0% | 21.6hPa | 2.5V | 08:24:00 | 00:00:00 | 00:00:00 | |
| DL1XH-15 | 2026-09-04 01:53:22 | 51.83711 | 7.21837 | 309° | 5km/h | 26563m | -15.3m/s | -49.6°C | 3.6% | 21.3hPa | 2.5V | 08:24:14 | 02:32:40 | 00:00:00 | |
| BIOWL1-15 | 2026-09-04 01:53:19 | 51.83713 | 7.21832 | 312° | 5km/h | 26534m | -15.1m/s | -49.7°C | 0.5% | 21.4hPa | 2.6V | 08:24:45 | 02:32:42 | 00:00:00 | |
| DF8AY | 2026-09-04 01:53:17 | 51.83711 | 7.21837 | 309° | 5km/h | 26563m | -15.3m/s | -49.7°C | 0.5% | 21.3hPa | 2.5V | 08:24:45 | 02:32:40 | 00:00:00 | |
| HSKMA3-T | 2026-09-04 01:53:15 | 51.83709 | 7.21841 | 283° | 4km/h | 26593m | -14.9m/s | -49.5°C | 0.4% | 21.2hPa | 2.5V | 08:24:45 | 02:32:38 | 00:00:00 | |
| DO2JMG | 2026-09-04 01:53:14 | 51.83709 | 7.21843 | 281° | 5km/h | 26608m | -14.5m/s | -49.4°C | 0.4% | 21.1hPa | 2.6V | 08:24:45 | 02:32:37 | 00:00:00 | |
| DB0ND-19 | 2026-09-04 01:53:14 | 51.83709 | 7.21844 | 248° | 2km/h | 26622m | -15.1m/s | -49.4°C | 0.9% | 21.1hPa | 2.6V | 00:00:00 | 00:00:00 | 00:00:00 | |
| DK5PH-5 | 2026-09-04 01:53:13 | 51.83709 | 7.21844 | 249° | 11km/h | 26622m | -15.1m/s | -49.4°C | 3.5% | 21.0hPa | 2.6V | 00:00:00 | 02:32:36 | 00:00:00 | |
| DL1XH-15 | 2026-09-04 01:53:12 | 51.83708 | 7.21854 | 272° | 4km/h | 26711m | -14.6m/s | -49.3°C | 3.5% | 20.8hPa | 2.6V | 08:24:24 | 02:32:30 | 00:00:00 | |
| DL1XH-west | 2026-09-04 01:53:08 | 51.83708 | 7.21852 | 299° | 5km/h | 26696m | -14.8m/s | -49.3°C | 0.4% | 20.9hPa | 2.5V | 08:24:45 | 02:32:31 | 00:00:00 | |
| DF8AY | 2026-09-04 01:53:07 | 51.83708 | 7.21854 | 273° | 4km/h | 26711m | -14.6m/s | -49.3°C | 0.5% | 20.8hPa | 2.6V | 08:24:45 | 02:32:30 | 00:00:00 | |
| DO2JMG | 2026-09-04 01:53:04 | 51.83706 | 7.21859 | 323° | 5km/h | 26755m | -14.7m/s | -49.4°C | 0.5% | 20.6hPa | 2.5V | 08:24:45 | 02:32:27 | 00:00:00 | |
| DJ2KF-10 | 2026-09-04 01:53:04 | 51.83706 | 7.21859 | 324° | 18km/h | 26756m | -14.7m/s | -49.3°C | 3.6% | 20.6hPa | 2.5V | 00:00:00 | 02:32:27 | 00:00:00 | |
| DC6BW-12 | 2026-09-04 01:53:03 | 51.83706 | 7.21859 | 324° | 5km/h | 26756m | -14.7m/s | -49.4°C | 1.0% | 20.6hPa | 2.5V | 08:24:00 | 00:00:00 | 00:00:00 | |
| DL1XH-15 | 2026-09-04 01:53:02 | 51.83693 | 7.21854 | 26° | 13km/h | 26861m | -15.4m/s | -48.9°C | 3.5% | 20.3hPa | 2.5V | 08:24:34 | 02:32:20 | 00:00:00 | |
| BIOWL1-15 | 2026-09-04 01:52:59 | 51.83686 | 7.21849 | 29° | 15km/h | 26891m | -15.4m/s | -48.9°C | 0.4% | 20.3hPa | 2.5V | 08:24:45 | 02:32:18 | 00:00:00 | |
| DL1XH-west | 2026-09-04 01:52:57 | 51.83692 | 7.21854 | 27° | 13km/h | 26861m | -15.5m/s | -48.9°C | 0.4% | 20.3hPa | 2.5V | 08:24:45 | 02:32:20 | 00:00:00 | |
| DL8DAS-14 | 2026-09-04 01:52:57 | 51.83689 | 7.21852 | 22° | 15km/h | 26876m | -15.0m/s | -48.9°C | 0.9% | 20.3hPa | 2.6V | 00:00:00 | 00:00:00 | 00:00:00 | |
| DM0DOS-11 | 2026-09-04 01:52:56 | 51.83680 | 7.21844 | 35° | 13km/h | 26921m | -15.2m/s | -48.9°C | 3.4% | 20.1hPa | 2.6V | 08:24:38 | 02:32:16 | 00:00:00 | |
| HSKMA3-T | 2026-09-04 01:52:54 | 51.83683 | 7.21847 | 26° | 15km/h | 26906m | -14.9m/s | -48.9°C | 0.4% | 20.2hPa | 2.6V | 08:24:45 | 02:32:17 | 00:00:00 | |
| DO2JMG | 2026-09-04 01:52:53 | 51.83680 | 7.21844 | 35° | 13km/h | 26921m | -15.3m/s | -48.9°C | 0.4% | 20.1hPa | 2.6V | 08:24:45 | 02:32:16 | 00:00:00 | |
| DL1XH-15 | 2026-09-04 01:52:52 | 51.83669 | 7.21818 | 74° | 18km/h | 27012m | -15.1m/s | -48.8°C | 3.4% | 19.9hPa | 2.6V | 08:24:44 | 02:32:10 | 00:00:00 | |
| DL1XH-west | 2026-09-04 01:52:47 | 51.83668 | 7.21818 | 75° | 18km/h | 27012m | -15.1m/s | -48.8°C | 0.3% | 19.9hPa | 2.6V | 08:24:45 | 02:32:10 | 00:00:00 | |
| AA1-15 | 2026-09-04 01:52:46 | 51.83667 | 7.21811 | 72° | 18km/h | 27027m | -14.8m/s | -48.9°C | 0.4% | 19.8hPa | 2.5V | 08:24:45 | 02:32:09 | 00:00:00 | |
| BIOWL1-15 | 2026-09-04 01:52:45 | 51.83666 | 7.21802 | 76° | 24km/h | 27042m | -15.1m/s | -48.9°C | 0.4% | 19.8hPa | 2.5V | 08:25:36 | 02:32:08 | 00:00:00 | |
| DM0DOS-11 | 2026-09-04 01:52:45 | 51.83662 | 7.21783 | 73° | 27km/h | 27071m | -14.8m/s | -48.8°C | 3.4% | 19.7hPa | 2.5V | 08:24:48 | 02:32:06 | 00:00:00 | |
| HSKMA3-T | 2026-09-04 01:52:43 | 51.83662 | 7.21783 | 73° | 27km/h | 27071m | -14.8m/s | -48.8°C | 0.3% | 19.7hPa | 2.5V | 08:25:36 | 02:32:06 | 00:00:00 | |
| DO2JMG | 2026-09-04 01:52:42 | 51.83660 | 7.21772 | 74° | 26km/h | 27086m | -15.3m/s | -48.7°C | 0.4% | 19.6hPa | 2.6V | 08:25:36 | 02:32:05 | 00:00:00 | |
| DL1XH-west | 2026-09-04 01:52:36 | 51.83652 | 7.21716 | 91° | 18km/h | 27179m | -15.7m/s | -48.9°C | 0.4% | 19.4hPa | 2.5V | 08:25:36 | 02:31:59 | 00:00:00 | |
| DM0DOS-11 | 2026-09-04 01:52:35 | 51.83654 | 7.21693 | 106° | 18km/h | 27226m | -15.1m/s | -48.9°C | 3.5% | 19.2hPa | 2.6V | 08:24:58 | 02:31:56 | 00:00:00 | |
| AA1-15 | 2026-09-04 01:52:35 | 51.83652 | 7.21708 | 93° | 18km/h | 27195m | -15.6m/s | -48.9°C | 0.4% | 19.3hPa | 2.6V | 08:25:36 | 02:31:58 | 00:00:00 | |
| HSKMA3-T | 2026-09-04 01:52:33 | 51.83654 | 7.21693 | 106° | 18km/h | 27226m | -15.1m/s | -48.9°C | 0.4% | 19.2hPa | 2.6V | 08:25:36 | 02:31:56 | 00:00:00 | |
| DO2JMG | 2026-09-04 01:52:32 | 51.83656 | 7.21685 | 118° | 22km/h | 27242m | -15.7m/s | -48.9°C | 0.4% | 19.2hPa | 2.5V | 08:25:36 | 02:31:55 | 00:00:00 | |
| DL1XH-west | 2026-09-04 01:52:26 | 51.83676 | 7.21646 | 142° | 22km/h | 27334m | -15.7m/s | -48.7°C | 0.4% | 18.9hPa | 2.5V | 08:25:36 | 02:31:49 | 00:00:00 | |
| DF8AY | 2026-09-04 01:52:25 | 51.83681 | 7.21640 | 142° | 18km/h | 27350m | -15.4m/s | -48.6°C | 0.3% | 18.9hPa | 2.5V | 08:25:36 | 02:31:48 | 00:00:00 | |
| AA1-15 | 2026-09-04 01:52:24 | 51.83684 | 7.21636 | 147° | 20km/h | 27365m | -15.8m/s | -48.6°C | 0.3% | 18.9hPa | 2.6V | 08:25:36 | 02:31:47 | 00:00:00 | |
| HSKMA3-T | 2026-09-04 01:52:22 | 51.83692 | 7.21628 | 153° | 18km/h | 27397m | -15.8m/s | -48.7°C | 0.4% | 18.8hPa | 2.6V | 08:25:36 | 02:31:45 | 00:00:00 | |
| DO2JMG | 2026-09-04 01:52:21 | 51.83695 | 7.21626 | 154° | 15km/h | 27412m | -15.7m/s | -48.7°C | 0.3% | 18.7hPa | 2.5V | 08:25:36 | 02:31:44 | 00:00:00 | |
| BIOWL1-15 | 2026-09-04 01:52:19 | 51.83703 | 7.21622 | 163° | 15km/h | 27444m | -16m/s | -48.8°C | 0.4% | 18.6hPa | 2.5V | 08:25:36 | 02:31:42 | 00:00:00 | |
| DF5WG-10 | 2026-09-04 01:52:19 | 51.83703 | 7.21622 | 164° | 15km/h | 27444m | -16.0m/s | -48.7°C | 3.5% | 18.6hPa | 2.5V | 00:00:00 | 02:31:42 | 00:00:00 | |
| DO3DL | 2026-09-04 01:52:18 | 51.83702 | 7.21622 | 164° | 15km/h | 27444m | -16.0m/s | -48.8°C | 0.9% | 18.6hPa | 2.6V | 08:25:00 | 00:00:00 | 00:00:00 | |
| DB0NH | 2026-09-04 01:52:17 | 51.83710 | 7.21619 | 166° | 13km/h | 27476m | -16.0m/s | -48.7°C | 3.5% | 18.5hPa | 2.6V | 08:25:00 | 02:31:40 | 00:00:00 | |
| DO2KSM | 2026-09-04 01:52:16 | 51.83710 | 7.21619 | 167° | 15km/h | 27476m | -16.0m/s | -48.8°C | 0.9% | 18.5hPa | 2.5V | 08:25:00 | 00:00:00 | 00:00:00 | |
| DM0DOS-11 | 2026-09-04 01:52:15 | 51.83725 | 7.21617 | 173° | 15km/h | 27539m | -16.6m/s | -48.6°C | 3.4% | 18.3hPa | 2.5V | 08:25:18 | 02:31:36 | 00:00:00 | |
| DL1XH-west | 2026-09-04 01:52:15 | 51.83718 | 7.21618 | 170° | 16km/h | 27507m | -16.4m/s | -48.6°C | 0.3% | 18.4hPa | 2.6V | 08:25:36 | 02:31:38 | 00:00:00 | |
| AA1-15 | 2026-09-04 01:52:13 | 51.83725 | 7.21617 | 173° | 15km/h | 27539m | -16.7m/s | -48.6°C | 0.3% | 18.4hPa | 2.5V | 08:25:36 | 02:31:36 | 00:00:00 | |
| DO2JMG | 2026-09-04 01:52:11 | 51.83732 | 7.21616 | 173° | 13km/h | 27572m | -16.2m/s | -48.5°C | 0.4% | 18.3hPa | 2.5V | 08:25:36 | 02:31:34 | 00:00:00 | |
| BIOWL1-15 | 2026-09-04 01:52:08 | 51.83738 | 7.21612 | 155° | 4km/h | 27636m | -16.1m/s | -48.3°C | 0.3% | 18.1hPa | 2.5V | 08:25:36 | 02:31:30 | 00:00:00 | |
| SONDE2-11 | 2026-09-04 01:52:08 | 51.83738 | 7.21612 | 154° | 2km/h | 27636m | -16.1m/s | -48.3°C | 0.9% | 18.1hPa | 2.6V | 00:00:00 | 00:00:00 | 00:00:00 | |
| GOEST3-10 | 2026-09-04 01:52:07 | 51.83738 | 7.21612 | 155° | 7km/h | 27637m | -16.1m/s | -48.2°C | 3.4% | 18.0hPa | 2.6V | 00:00:00 | 00:00:00 | 00:00:00 | |
| DO1YAY-16 | 2026-09-04 01:52:06 | 51.83739 | 7.21611 | 173° | 5km/h | 27653m | -16.2m/s | -48.3°C | 0.9% | 18.0hPa | 2.6V | 00:00:00 | 00:00:00 | 00:00:00 | |
| DM0DOS-11 | 2026-09-04 01:52:05 | 51.83744 | 7.21611 | 185° | 11km/h | 27701m | -16.3m/s | -48.2°C | 3.3% | 17.9hPa | 2.6V | 08:25:28 | 02:31:26 | 00:00:00 | |
| DL1XH-west | 2026-09-04 01:52:04 | 51.83742 | 7.21611 | 188° | 5km/h | 27684m | -15.9m/s | -48.3°C | 0.3% | 17.9hPa | 2.6V | 08:25:36 | 02:31:27 | 00:00:00 | |
| AA1-15 | 2026-09-04 01:52:02 | 51.83747 | 7.21611 | 182° | 11km/h | 27717m | -15.8m/s | -48.2°C | 0.3% | 17.9hPa | 2.5V | 08:25:36 | 02:31:25 | 00:00:00 | |
| HSKMA3-T | 2026-09-04 01:52:01 | 51.83749 | 7.21612 | 195° | 9km/h | 27733m | -15.9m/s | -48.2°C | 0.3% | 17.8hPa | 2.5V | 08:25:36 | 02:31:24 | 00:00:00 | |
| DO2JMG | 2026-09-04 01:52:00 | 51.83752 | 7.21613 | 189° | 13km/h | 27749m | -16.8m/s | -48.2°C | 0.3% | 17.8hPa | 2.5V | 08:25:36 | 02:31:23 | 00:00:00 | |
| BIOWL1-15 | 2026-09-04 01:51:57 | 51.83760 | 7.21612 | 138° | 5km/h | 27814m | -16.6m/s | -48.2°C | 0.3% | 17.6hPa | 2.5V | 08:25:36 | 02:31:19 | 00:00:00 | |
| HTAHTA | 2026-09-04 01:51:56 | 51.83760 | 7.21612 | 137° | 4km/h | 27815m | -16.6m/s | -48.2°C | 0.9% | 17.6hPa | 2.5V | 00:00:00 | 00:00:00 | 00:00:00 | |
| DM0DOS-11 | 2026-09-04 01:51:55 | 51.83761 | 7.21608 | 119° | 5km/h | 27863m | -16.7m/s | -48.2°C | 3.3% | 17.5hPa | 2.5V | 08:25:38 | 02:31:16 | 00:00:00 | |
| DF8AY | 2026-09-04 01:51:54 | 51.83761 | 7.21610 | 81° | 4km/h | 27847m | -16.1m/s | -48.1°C | 0.3% | 17.5hPa | 2.5V | 08:26:27 | 02:31:17 | 00:00:00 | |
| DL1XH-west | 2026-09-04 01:51:53 | 51.83761 | 7.21608 | 120° | 5km/h | 27863m | -16.7m/s | -48.2°C | 0.3% | 17.5hPa | 2.5V | 08:26:27 | 02:31:16 | 00:00:00 | |
| HSKMA3-T | 2026-09-04 01:51:51 | 51.83762 | 7.21603 | 103° | 7km/h | 27897m | -16.6m/s | -48.2°C | 0.3% | 17.4hPa | 2.6V | 08:26:27 | 02:31:14 | 00:00:00 | |
| DO2JMG | 2026-09-04 01:51:49 | 51.83763 | 7.21598 | 122° | 7km/h | 27929m | -16.3m/s | -48.3°C | 0.3% | 17.3hPa | 2.5V | 08:26:27 | 02:31:12 | 00:00:00 | |
| DD1CC8 | 2026-09-04 01:51:49 | 51.83764 | 7.21596 | 133° | 7km/h | 27946m | -16.9m/s | -48.3°C | 0.9% | 17.2hPa | 2.5V | 00:00:00 | 00:00:00 | 00:00:00 | |
| DH3RM | 2026-09-04 01:51:48 | 51.83763 | 7.21598 | 123° | 7km/h | 27929m | -16.3m/s | -48.3°C | 0.9% | 17.3hPa | 2.5V | 00:00:00 | 00:00:00 | 00:00:00 | |
| GOEST3-10 | 2026-09-04 01:51:47 | 51.83765 | 7.21593 | 123° | 9km/h | 27963m | -16.9m/s | -48.3°C | 3.3% | 17.2hPa | 2.5V | 00:00:00 | 00:00:00 | 00:00:00 | |
| DJTTGO | 2026-09-04 01:51:46 | 51.83765 | 7.21593 | 124° | 9km/h | 27963m | -17.0m/s | -48.3°C | 0.9% | 17.2hPa | 2.5V | 00:00:00 | 00:00:00 | 00:00:00 | |
| DO3DL | 2026-09-04 01:51:45 | 51.83767 | 7.21589 | 118° | 11km/h | 27980m | -16.6m/s | -48.3°C | 0.9% | 17.2hPa | 2.5V | 08:26:00 | 00:00:00 | 00:00:00 | |
| DM0DOS-11 | 2026-09-04 01:51:44 | 51.83770 | 7.21580 | 115° | 7km/h | 28029m | -16.6m/s | -48.3°C | 3.3% | 17hPa | 2.5V | 08:25:48 | 02:31:06 | 00:00:00 | |
| DF8AY | 2026-09-04 01:51:43 | 51.83770 | 7.21580 | 115° | 7km/h | 28029m | -16.6m/s | -48.3°C | 0.3% | 17hPa | 2.5V | 08:26:27 | 02:31:06 | 00:00:00 | |
| DL1XH-west | 2026-09-04 01:51:42 | 51.83771 | 7.21577 | 135° | 7km/h | 28046m | -17m/s | -48.2°C | 0.3% | 17hPa | 2.5V | 08:26:27 | 02:31:05 | 00:00:00 | |
| AA1-15 | 2026-09-04 01:51:41 | 51.83773 | 7.21575 | 142° | 9km/h | 28063m | -17m/s | -48.2°C | 0.3% | 17hPa | 2.6V | 08:26:27 | 02:31:04 | 00:00:00 | |
| HSKMA3-T | 2026-09-04 01:51:40 | 51.83774 | 7.21573 | 147° | 7km/h | 28080m | -17.4m/s | -48.2°C | 0.3% | 16.9hPa | 2.6V | 08:26:27 | 02:31:03 | 00:00:00 | |
| DO2JMG | 2026-09-04 01:51:39 | 51.83776 | 7.21571 | 139° | 7km/h | 28097m | -17m/s | -48.2°C | 0.3% | 16.9hPa | 2.6V | 08:26:27 | 02:31:02 | 00:00:00 | |
| BIOWL1-15 | 2026-09-04 01:51:35 | 51.83790 | 7.21556 | 152° | 18km/h | 28198m | -17.1m/s | -48.3°C | 0.3% | 16.6hPa | 2.6V | 08:26:27 | 02:30:56 | 00:00:00 | |
| DM0DOS-11 | 2026-09-04 01:51:34 | 51.83790 | 7.21556 | 152° | 18km/h | 28198m | -17.1m/s | -48.3°C | 3.4% | 16.6hPa | 2.6V | 08:25:58 | 02:30:56 | 00:00:00 | |
| DF8AY | 2026-09-04 01:51:32 | 51.83795 | 7.21552 | 151° | 20km/h | 28215m | -17.4m/s | -48.3°C | 0.4% | 16.6hPa | 2.6V | 08:26:27 | 02:30:55 | 00:00:00 | |
| DL1XH-west | 2026-09-04 01:51:31 | 51.83799 | 7.21548 | 148° | 22km/h | 28232m | -17.4m/s | -48.3°C | 0.3% | 16.5hPa | 2.5V | 08:26:27 | 02:30:54 | 00:00:00 | |
| HSKMA3-T | 2026-09-04 01:51:30 | 51.83804 | 7.21543 | 147° | 22km/h | 28250m | -17.1m/s | -48.3°C | 0.4% | 16.4hPa | 2.5V | 08:26:27 | 02:30:53 | 00:00:00 | |
| DO2JMG | 2026-09-04 01:51:28 | 51.83814 | 7.21533 | 150° | 24km/h | 28284m | -17.3m/s | -48.2°C | 0.4% | 16.4hPa | 2.6V | 08:26:27 | 02:30:51 | 00:00:00 | |
| BIOWL1-15 | 2026-09-04 01:51:25 | 51.83840 | 7.21513 | 158° | 20km/h | 28370m | -17.1m/s | -48.1°C | 0.3% | 16.2hPa | 2.6V | 08:26:27 | 02:30:46 | 00:00:00 | |
| BIOWL7-15 | 2026-09-04 01:51:24 | 51.83830 | 7.21520 | 158° | 22km/h | 28336m | -17.4m/s | -48.1°C | 0.9% | 16.3hPa | 2.5V | 08:26:00 | 00:00:00 | 00:00:00 | |
| DL8DAS-14 | 2026-09-04 01:51:23 | 51.83840 | 7.21513 | 158° | 18km/h | 28370m | -17.1m/s | -48.1°C | 0.9% | 16.2hPa | 2.5V | 00:00:00 | 00:00:00 | 00:00:00 | |
| DL1XH-15 | 2026-09-04 01:51:22 | 51.83868 | 7.21500 | 172° | 20km/h | 28473m | -17.6m/s | -48°C | 3.4% | 15.9hPa | 2.5V | 08:26:14 | 02:30:40 | 00:00:00 | |
| DF8AY | 2026-09-04 01:51:22 | 51.83845 | 7.21510 | 158° | 18km/h | 28387m | -16.7m/s | -48°C | 0.3% | 16.1hPa | 2.6V | 08:26:27 | 02:30:45 | 00:00:00 | |
| DL1XH-west | 2026-09-04 01:51:21 | 51.83849 | 7.21507 | 159° | 18km/h | 28404m | -17.1m/s | -48°C | 0.3% | 16.1hPa | 2.6V | 08:26:27 | 02:30:44 | 00:00:00 | |
| HSKMA3-T | 2026-09-04 01:51:19 | 51.83858 | 7.21503 | 167° | 20km/h | 28438m | -17.4m/s | -48°C | 0.3% | 16hPa | 2.5V | 08:26:27 | 02:30:42 | 00:00:00 | |
| DO2JMG | 2026-09-04 01:51:18 | 51.83863 | 7.21501 | 170° | 20km/h | 28456m | -17.7m/s | -48°C | 0.3% | 16hPa | 2.5V | 08:26:27 | 02:30:41 | 00:00:00 | |
| DD1CC8 | 2026-09-04 01:51:17 | 51.83868 | 7.21500 | 172° | 20km/h | 28474m | -17.6m/s | -48.0°C | 0.9% | 15.9hPa | 2.5V | 00:00:00 | 00:00:00 | 00:00:00 | |
| DH3RM | 2026-09-04 01:51:16 | 51.83873 | 7.21499 | 176° | 20km/h | 28491m | -18.0m/s | -47.9°C | 0.9% | 15.9hPa | 2.5V | 00:00:00 | 00:00:00 | 00:00:00 | |
| DB0UT-7 | 2026-09-04 01:51:13 | 51.83887 | 7.21498 | 176° | 13km/h | 28545m | -18.0m/s | -47.8°C | 3.4% | 15.7hPa | 2.5V | 00:00:00 | 00:00:00 | 00:00:00 | |
| DL1XH-15 | 2026-09-04 01:51:12 | 51.83905 | 7.21502 | 219° | 9km/h | 28651m | -17.6m/s | -47.7°C | 3.3% | 15.5hPa | 2.5V | 08:26:24 | 02:30:30 | 00:00:00 | |
| DF8AY | 2026-09-04 01:51:11 | 51.83894 | 7.21497 | 178° | 13km/h | 28580m | -17.4m/s | -48°C | 0.4% | 15.7hPa | 2.5V | 08:26:27 | 02:30:34 | 00:00:00 | |
| DL1XH-west | 2026-09-04 01:51:10 | 51.83897 | 7.21497 | 186° | 11km/h | 28598m | -17.7m/s | -48°C | 0.3% | 15.6hPa | 2.6V | 08:26:27 | 02:30:33 | 00:00:00 | |
| AA1-15 | 2026-09-04 01:51:09 | 51.83900 | 7.21498 | 199° | 9km/h | 28615m | -18m/s | -47.9°C | 0.3% | 15.6hPa | 2.6V | 08:26:27 | 02:30:32 | 00:00:00 | |
| HSKMA3-T | 2026-09-04 01:51:08 | 51.83902 | 7.21500 | 213° | 11km/h | 28633m | -17.8m/s | -47.8°C | 0.3% | 15.6hPa | 2.5V | 08:26:27 | 02:30:31 | 00:00:00 | |
| DO2JMG | 2026-09-04 01:51:07 | 51.83905 | 7.21502 | 219° | 9km/h | 28651m | -17.6m/s | -47.8°C | 0.3% | 15.5hPa | 2.5V | 08:26:27 | 02:30:30 | 00:00:00 | |
| GOEST3-10 | 2026-09-04 01:51:06 | 51.83906 | 7.21505 | 222° | 13km/h | 28669m | -18.3m/s | -47.6°C | 3.3% | 15.4hPa | 2.6V | 00:00:00 | 00:00:00 | 00:00:00 | |
| DJ2DS-15 | 2026-09-04 01:51:05 | 51.83909 | 7.21508 | 216° | 11km/h | 28688m | -19.8m/s | -47.7°C | 0.9% | 15.4hPa | 2.6V | 00:00:00 | 00:00:00 | 00:00:00 | |
| DM0DOS-11 | 2026-09-04 01:51:04 | 51.83915 | 7.21513 | 201° | 13km/h | 28728m | -18.7m/s | -47.6°C | 3.3% | 15.3hPa | 2.6V | 08:26:28 | 02:30:26 | 00:00:00 | |
| DO9LL-15 | 2026-09-04 01:51:04 | 51.83912 | 7.21511 | 209° | 13km/h | 28709m | -20.7m/s | -47.6°C | 3.3% | 15.3hPa | 2.6V | 00:00:00 | 02:30:27 | 00:00:00 | |
| DJ2KF-10 | 2026-09-04 01:51:03 | 51.83914 | 7.21513 | 202° | 13km/h | 28728m | -18.6m/s | -47.5°C | 3.3% | 15.3hPa | 2.6V | 00:00:00 | 02:30:26 | 00:00:00 | |
| DL1XH-15 | 2026-09-04 01:51:02 | 51.83936 | 7.21513 | 176° | 15km/h | 28839m | -19.6m/s | -47°C | 3.2% | 15.1hPa | 2.6V | 08:26:34 | 02:30:20 | 00:00:00 | |
| BIOWL1-15 | 2026-09-04 01:51:02 | 51.83940 | 7.21513 | 179° | 13km/h | 28857m | -17.4m/s | -46.9°C | 0.2% | 15hPa | 2.6V | 08:27:18 | 02:30:19 | 00:00:00 | |
| DL1XH-west | 2026-09-04 01:51:00 | 51.83925 | 7.21515 | 174° | 15km/h | 28781m | -17.5m/s | -47.3°C | 0.2% | 15.2hPa | 2.5V | 08:27:18 | 02:30:23 | 00:00:00 | |
| AA1-15 | 2026-09-04 01:50:59 | 51.83929 | 7.21514 | 172° | 15km/h | 28799m | -18.6m/s | -47.2°C | 0.2% | 15.2hPa | 2.5V | 08:27:18 | 02:30:22 | 00:00:00 | |
| DO2JMG | 2026-09-04 01:50:57 | 51.83936 | 7.21513 | 177° | 15km/h | 28839m | -19.6m/s | -47°C | 0.2% | 15.1hPa | 2.6V | 08:27:18 | 02:30:20 | 00:00:00 | |
| BIOWL1-15 | 2026-09-04 01:50:52 | 51.83952 | 7.21514 | 189° | 11km/h | 28926m | -17.3m/s | -46.8°C | 0.1% | 14.9hPa | 2.6V | 08:27:18 | 02:30:15 | 00:00:00 | |
| DL1XH-west | 2026-09-04 01:50:49 | 51.83960 | 7.21514 | 171° | 9km/h | 28983m | -20.3m/s | -46.9°C | 0.1% | 14.8hPa | 2.5V | 08:27:18 | 02:30:12 | 00:00:00 | |
| AA1-15 | 2026-09-04 01:50:48 | 51.83963 | 7.21513 | 165° | 13km/h | 29004m | -20.9m/s | -46.9°C | 0.1% | 14.7hPa | 2.5V | 08:27:18 | 02:30:11 | 00:00:00 | |
| HSKMA3-T | 2026-09-04 01:50:46 | 51.83969 | 7.21510 | 168° | 13km/h | 29042m | -17.9m/s | -47°C | 0.2% | 14.6hPa | 2.6V | 08:27:18 | 02:30:09 | 00:00:00 | |
| GOEST3-10 | 2026-09-04 01:50:46 | 51.83969 | 7.21510 | 168° | 11km/h | 29043m | -17.9m/s | -47.0°C | 3.1% | 14.5hPa | 2.6V | 08:26:00 | 00:00:00 | 00:00:00 | |
| DH3RM | 2026-09-04 01:50:45 | 51.83969 | 7.21510 | 169° | 13km/h | 29043m | -17.9m/s | -47.0°C | 0.8% | 14.6hPa | 2.5V | 08:27:00 | 00:00:00 | 00:00:00 | |
| DK5PH-5 | 2026-09-04 01:50:43 | 51.83978 | 7.21510 | 205° | 13km/h | 29098m | -20.1m/s | -47.3°C | 3.2% | 14.5hPa | 2.5V | 00:00:00 | 02:30:06 | 00:00:00 | |
| DL1XH-15 | 2026-09-04 01:50:42 | 51.83981 | 7.21539 | 293° | 15km/h | 29208m | -18.3m/s | -48°C | 3.5% | 14.2hPa | 2.5V | 08:26:54 | 02:30:00 | 00:00:00 | |
| BIOWL1-15 | 2026-09-04 01:50:42 | 51.83981 | 7.21513 | 226° | 11km/h | 29118m | -20.8m/s | -47.4°C | 0.2% | 14.4hPa | 2.5V | 08:27:18 | 02:30:05 | 00:00:00 | |
| DL1XH-west | 2026-09-04 01:50:39 | 51.83983 | 7.21526 | 274° | 15km/h | 29173m | -17.9m/s | -47.8°C | 0.3% | 14.3hPa | 2.6V | 08:27:18 | 02:30:02 | 00:00:00 | |
| AA1-15 | 2026-09-04 01:50:37 | 51.83981 | 7.21539 | 294° | 15km/h | 29208m | -18.3m/s | -48°C | 0.4% | 14.2hPa | 2.5V | 08:27:18 | 02:30:00 | 00:00:00 | |
| DO2JMG | 2026-09-04 01:50:36 | 51.83979 | 7.21544 | 301° | 15km/h | 29227m | -19.2m/s | -48.1°C | 0.4% | 14.2hPa | 2.5V | 08:27:18 | 02:29:59 | 00:00:00 | |
| GOEST3-10 | 2026-09-04 01:50:36 | 51.83979 | 7.21544 | 301° | 7km/h | 29227m | -19.2m/s | -48.0°C | 3.5% | 14.2hPa | 2.6V | 00:00:00 | 00:00:00 | 00:00:00 | |
| DH3RM | 2026-09-04 01:50:35 | 51.83979 | 7.21544 | 302° | 15km/h | 29227m | -19.2m/s | -48.1°C | 0.9% | 14.2hPa | 2.6V | 08:27:00 | 00:00:00 | 00:00:00 | |
| DM0DOS-11 | 2026-09-04 01:50:34 | 51.83976 | 7.21552 | 329° | 4km/h | 29288m | -19.7m/s | -48.1°C | 3.6% | 14.1hPa | 2.6V | 08:26:58 | 02:29:56 | 00:00:00 | |
| DO9LL-15 | 2026-09-04 01:50:34 | 51.83976 | 7.21550 | 304° | 11km/h | 29268m | -21.7m/s | -48.1°C | 3.6% | 14.1hPa | 2.6V | 00:00:00 | 02:29:57 | 00:00:00 | |
| DB0NH | 2026-09-04 01:50:33 | 51.83975 | 7.21552 | 330° | 13km/h | 29289m | -19.7m/s | -48.1°C | 3.6% | 14.0hPa | 2.6V | 00:00:00 | 02:29:56 | 00:00:00 | |
| DL1XH-15 | 2026-09-04 01:50:32 | 51.83978 | 7.21534 | 106° | 16km/h | 29400m | -18.6m/s | -47.1°C | 3.4% | 13.8hPa | 2.6V | 08:27:04 | 02:29:50 | 00:00:00 | |
| BIOWL1-15 | 2026-09-04 01:50:31 | 51.83975 | 7.21551 | 96° | 4km/h | 29327m | -19.5m/s | -47.8°C | 0.4% | 14hPa | 2.5V | 08:27:18 | 02:29:54 | 00:00:00 | |
| DF8AY | 2026-09-04 01:50:29 | 51.83976 | 7.21544 | 109° | 11km/h | 29364m | -19m/s | -47.4°C | 0.3% | 13.9hPa | 2.6V | 08:27:18 | 02:29:52 | 00:00:00 | |
| DL1XH-west | 2026-09-04 01:50:28 | 51.83977 | 7.21539 | 107° | 15km/h | 29382m | -18.5m/s | -47.2°C | 0.3% | 13.9hPa | 2.6V | 08:27:18 | 02:29:51 | 00:00:00 | |
| AA1-15 | 2026-09-04 01:50:27 | 51.83978 | 7.21534 | 107° | 16km/h | 29400m | -18.6m/s | -47.1°C | 0.3% | 13.8hPa | 2.6V | 08:27:18 | 02:29:50 | 00:00:00 | |
| HSKMA3-T | 2026-09-04 01:50:26 | 51.83979 | 7.21527 | 102° | 16km/h | 29419m | -18.2m/s | -47°C | 0.3% | 13.8hPa | 2.5V | 08:27:18 | 02:29:49 | 00:00:00 | |
| DO2JMG | 2026-09-04 01:50:25 | 51.83980 | 7.21520 | 108° | 18km/h | 29437m | -18.4m/s | -47°C | 0.3% | 13.8hPa | 2.5V | 08:27:18 | 02:29:48 | 00:00:00 | |
| SONCRA | 2026-09-04 01:50:25 | 51.83982 | 7.21513 | 115° | 18km/h | 29457m | -21.7m/s | -46.9°C | 0.9% | 13.7hPa | 2.5V | 00:00:00 | 00:00:00 | 00:00:00 | |
| HTAHTA | 2026-09-04 01:50:23 | 51.83996 | 7.21480 | 129° | 20km/h | 29555m | -18.2m/s | -46.1°C | 0.8% | 13.5hPa | 2.5V | 00:00:00 | 00:00:00 | 00:00:00 | |
| DL1XH-15 | 2026-09-04 01:50:22 | 51.84002 | 7.21469 | 137° | 16km/h | 29592m | -18.9m/s | -45.9°C | 3.1% | 13.4hPa | 2.5V | 08:27:14 | 02:29:40 | 00:00:00 | |
| BIOWL1-15 | 2026-09-04 01:50:22 | 51.83992 | 7.21486 | 129° | 20km/h | 29537m | -17.7m/s | -46.3°C | 0.2% | 13.6hPa | 2.6V | 08:27:18 | 02:29:43 | 00:00:00 | |
| DL1XH-west | 2026-09-04 01:50:18 | 51.83999 | 7.21474 | 136° | 18km/h | 29573m | -18.9m/s | -46°C | 0.1% | 13.5hPa | 2.5V | 08:27:18 | 02:29:41 | 00:00:00 | |
| HSKMA3-T | 2026-09-04 01:50:16 | 51.84005 | 7.21465 | 142° | 13km/h | 29611m | -20.5m/s | -45.8°C | 0.1% | 13.4hPa | 2.6V | 08:27:18 | 02:29:39 | 00:00:00 | |
| DO2JMG | 2026-09-04 01:50:14 | 51.84009 | 7.21461 | 159° | 7km/h | 29653m | -22m/s | -45.7°C | 0.1% | 13.3hPa | 2.5V | 08:27:18 | 02:29:37 | 00:00:00 | |
| DL3AQ-11 | 2026-09-04 01:50:14 | 51.84011 | 7.21461 | 188° | 5km/h | 29675m | -22.9m/s | -45.7°C | 0.8% | 13.3hPa | 2.5V | 00:00:00 | 00:00:00 | 00:00:00 | |
| DK5PH-5 | 2026-09-04 01:50:13 | 51.84011 | 7.21461 | 189° | 15km/h | 29676m | -22.9m/s | -45.7°C | 3.1% | 13.2hPa | 2.5V | 00:00:00 | 02:29:36 | 00:00:00 | |
| DL1XH-15 | 2026-09-04 01:50:12 | 51.84018 | 7.21462 | 145° | 7km/h | 29799m | -19.9m/s | -45.5°C | 3.1% | 13hPa | 2.5V | 08:27:24 | 02:29:30 | 00:00:00 | |
| BIOWL1-15 | 2026-09-04 01:50:12 | 51.84014 | 7.21463 | 210° | 4km/h | 29738m | -20.8m/s | -45.6°C | 0.1% | 13.2hPa | 2.6V | 08:28:09 | 02:29:33 | 00:00:00 | |
| DO8TBO-1 | 2026-09-04 01:50:11 | 51.84013 | 7.21462 | 210° | 15km/h | 29718m | -20.0m/s | -45.6°C | 3.1% | 13.1hPa | 2.6V | 00:00:00 | 02:29:34 | 00:00:00 | |
| DD1CC3-15 | 2026-09-04 01:50:10 | 51.84013 | 7.21462 | 211° | 4km/h | 29718m | -20.1m/s | -45.6°C | 0.8% | 13.2hPa | 2.6V | 08:28:00 | 00:00:00 | 00:00:00 | |
| DO3DL | 2026-09-04 01:50:09 | 51.84015 | 7.21464 | 181° | 5km/h | 29759m | -20.3m/s | -45.6°C | 0.8% | 13.1hPa | 2.6V | 08:28:00 | 00:00:00 | 00:00:00 | |
| DM0DOS-11 | 2026-09-04 01:50:08 | 51.84023 | 7.21446 | 96° | 13km/h | 29878m | -20.6m/s | -45.3°C | 3.1% | 12.9hPa | 2.6V | 08:27:28 | 02:29:26 | 00:00:00 | |
| DL1XH-west | 2026-09-04 01:50:07 | 51.84018 | 7.21462 | 146° | 7km/h | 29799m | -19.9m/s | -45.6°C | 0.1% | 13hPa | 2.5V | 08:28:09 | 02:29:30 | 00:00:00 | |
| AA1-15 | 2026-09-04 01:50:06 | 51.84020 | 7.21460 | 129° | 11km/h | 29819m | -20.2m/s | -45.5°C | 0.2% | 13hPa | 2.5V | 08:28:09 | 02:29:29 | 00:00:00 | |
| HSKMA3-T | 2026-09-04 01:50:05 | 51.84021 | 7.21456 | 115° | 13km/h | 29839m | -19.4m/s | -45.5°C | 0.1% | 13hPa | 2.5V | 08:28:09 | 02:29:28 | 00:00:00 | |
| DO2JMG | 2026-09-04 01:50:03 | 51.84023 | 7.21446 | 97° | 13km/h | 29878m | -20.6m/s | -45.3°C | 0.1% | 12.9hPa | 2.6V | 08:28:09 | 02:29:26 | 00:00:00 | |
| DJ2KF-10 | 2026-09-04 01:50:03 | 51.84023 | 7.21446 | 97° | 16km/h | 29879m | -20.5m/s | -45.3°C | 3.1% | 12.8hPa | 2.6V | 00:00:00 | 02:29:26 | 00:00:00 | |
| DL1XH-15 | 2026-09-04 01:50:02 | 51.84020 | 7.21410 | 77° | 15km/h | 30005m | -20.3m/s | -44.7°C | 3% | 12.6hPa | 2.6V | 08:27:34 | 02:29:20 | 00:00:00 | |
| BIOWL1-15 | 2026-09-04 01:49:59 | 51.84022 | 7.21422 | 80° | 15km/h | 29965m | -20.4m/s | -45°C | 0% | 12.7hPa | 2.5V | 08:28:09 | 02:29:22 | 00:00:00 | |
| DL1XH-west | 2026-09-04 01:49:57 | 51.84020 | 7.21410 | 77° | 15km/h | 30005m | -20.3m/s | -44.7°C | 0.1% | 12.7hPa | 2.6V | 08:28:09 | 02:29:20 | 00:00:00 | |
| HSKMA3-T | 2026-09-04 01:49:55 | 51.84020 | 7.21399 | 90° | 15km/h | 30046m | -19.7m/s | -44.6°C | 0.1% | 12.6hPa | 2.5V | 08:28:09 | 02:29:18 | 00:00:00 | |
| DJ2DS-15 | 2026-09-04 01:49:53 | 51.84023 | 7.21383 | 124° | 13km/h | 30105m | -19.3m/s | -44.4°C | 0.8% | 12.4hPa | 2.5V | 00:00:00 | 00:00:00 | 00:00:00 | |
| DL1XH-15 | 2026-09-04 01:49:52 | 51.84037 | 7.21350 | 108° | 22km/h | 30205m | -20.1m/s | -43.7°C | 2.9% | 12.3hPa | 2.5V | 08:27:44 | 02:29:10 | 00:00:00 | |
| DO2JMG | 2026-09-04 01:49:52 | 51.84023 | 7.21383 | 124° | 15km/h | 30104m | -19.3m/s | -44.4°C | 0.1% | 12.4hPa | 2.6V | 08:28:09 | 02:29:15 | 00:00:00 | |
| BIOWL1-15 | 2026-09-04 01:49:48 | 51.84034 | 7.21358 | 118° | 22km/h | 30185m | -20.2m/s | -43.9°C | 0% | 12.3hPa | 2.5V | 08:28:09 | 02:29:11 | 00:00:00 | |
| DL1XH-west | 2026-09-04 01:49:46 | 51.84039 | 7.21342 | 108° | 24km/h | 30224m | -20.1m/s | -43.4°C | 0% | 12.2hPa | 2.6V | 08:28:09 | 02:29:09 | 00:00:00 | |
| HSKMA3-T | 2026-09-04 01:49:44 | 51.84041 | 7.21323 | 96° | 22km/h | 30265m | -20.9m/s | -42.9°C | 0% | 12.2hPa | 2.6V | 08:28:09 | 02:29:07 | 00:00:00 | |
| DM0DOS-11 | 2026-09-04 01:49:43 | 51.84042 | 7.21315 | 103° | 20km/h | 30286m | -21.5m/s | -42.7°C | 2.8% | 12.1hPa | 2.5V | 08:27:48 | 02:29:06 | 00:00:00 | |
| DO2JMG | 2026-09-04 01:49:42 | 51.84043 | 7.21307 | 102° | 18km/h | 30307m | -21.6m/s | -42.5°C | 0% | 12.1hPa | 2.5V | 08:28:09 | 02:29:05 | 00:00:00 | |
| NBG1-10 | 2026-09-04 01:49:41 | 51.84044 | 7.21301 | 109° | 20km/h | 30329m | -20.5m/s | -42.3°C | 2.7% | 12.0hPa | 2.5V | 00:00:00 | 02:29:04 | 00:00:00 | |
| DJ3KS | 2026-09-04 01:49:40 | 51.84044 | 7.21301 | 109° | 13km/h | 30329m | -20.6m/s | -42.3°C | 0.7% | 12.0hPa | 2.6V | 08:28:00 | 00:00:00 | 00:00:00 | |
| DM0DOS-11 | 2026-09-04 01:49:38 | 51.84064 | 7.21286 | 114° | 4km/h | 30535m | -37.3m/s | -41.3°C | 2.4% | 11.7hPa | 2.6V | 08:27:58 | 02:28:56 | 00:00:00 | |
| BIOWL1-15 | 2026-09-04 01:49:37 | 51.84054 | 7.21289 | 170° | 16km/h | 30411m | -22.8m/s | -41.8°C | 0% | 11.9hPa | 2.5V | 08:28:09 | 02:29:00 | 00:00:00 | |
| DF8AY | 2026-09-04 01:49:36 | 51.84058 | 7.21288 | 175° | 15km/h | 30435m | -25m/s | -41.7°C | 0% | 11.9hPa | 2.5V | 08:28:09 | 02:28:59 | 00:00:00 | |
| DL1XH-west | 2026-09-04 01:49:35 | 51.84061 | 7.21288 | 171° | 9km/h | 30464m | -32.9m/s | -41.5°C | 0% | 11.8hPa | 2.6V | 08:28:09 | 02:28:58 | 00:00:00 | |
| DO9LL-15 | 2026-09-04 01:49:34 | 51.84063 | 7.21287 | 161° | 15km/h | 30499m | -36.6m/s | -41.4°C | 2.4% | 11.8hPa | 2.6V | 08:27:00 | 02:28:57 | 00:00:00 | |
| DL3AQ-11 | 2026-09-04 01:49:33 | 51.84064 | 7.21286 | 114° | 4km/h | 30535m | -37.3m/s | -41.3°C | 0.6% | 11.7hPa | 2.6V | 00:00:00 | 00:00:00 | 00:00:00 | |
| HSKMA3-T | 2026-09-04 01:49:33 | 51.84064 | 7.21286 | 115° | 4km/h | 30535m | -37.3m/s | -41.3°C | 0% | 11.7hPa | 2.6V | 08:28:09 | 02:28:56 | 00:00:00 | |
| DL1XH-15 | 2026-09-04 01:49:32 | 51.84061 | 7.21271 | 98° | 9km/h | 30773m | -37.1m/s | -41.2°C | 2.4% | 11.3hPa | 2.6V | 08:28:04 | 02:28:50 | 00:00:00 | |
| DO2JMG | 2026-09-04 01:49:32 | 51.84064 | 7.21284 | 80° | 7km/h | 30574m | -40.8m/s | -41.1°C | 0% | 11.7hPa | 2.5V | 08:28:09 | 02:28:55 | 00:00:00 | |
| DB0NH | 2026-09-04 01:49:32 | 51.84064 | 7.21284 | 81° | 13km/h | 30574m | -40.8m/s | -41.1°C | 2.3% | 11.6hPa | 2.5V | 00:00:00 | 02:28:55 | 00:00:00 | |
| DO1YAY-16 | 2026-09-04 01:49:31 | 51.84063 | 7.21280 | 35° | 5km/h | 30656m | -40.6m/s | -41.0°C | 0.6% | 11.6hPa | 2.5V | 00:00:00 | 00:00:00 | 00:00:00 | |
| DL1ZP-14 | 2026-09-04 01:49:29 | 51.84062 | 7.21277 | 67° | 7km/h | 30696m | -40.6m/s | -41.1°C | 0.5% | 11.5hPa | 2.5V | 00:00:00 | 00:00:00 | 00:00:00 | |
| DM0DOS-11 | 2026-09-04 01:49:28 | 51.84070 | 7.21256 | 158° | 16km/h | 30912m | -29m/s | -41.4°C | 2.4% | 11.1hPa | 2.5V | 08:28:08 | 02:28:46 | 00:00:00 | |
| BIOWL1-15 | 2026-09-04 01:49:26 | 51.84062 | 7.21267 | 120° | 11km/h | 30810m | -36.5m/s | -41.2°C | 0% | 11.3hPa | 2.6V | 08:28:09 | 02:28:49 | 00:00:00 | |
| DF8AY | 2026-09-04 01:49:25 | 51.84064 | 7.21263 | 132° | 13km/h | 30847m | -36.1m/s | -41.2°C | 0% | 11.2hPa | 2.5V | 08:28:09 | 02:28:48 | 00:00:00 | |
| DL1XH-west | 2026-09-04 01:49:24 | 51.84067 | 7.21259 | 143° | 15km/h | 30881m | -33m/s | -41.3°C | 0% | 11.1hPa | 2.5V | 08:28:09 | 02:28:47 | 00:00:00 | |
| AA1-15 | 2026-09-04 01:49:23 | 51.84070 | 7.21256 | 158° | 16km/h | 30912m | -29m/s | -41.4°C | 0% | 11.1hPa | 2.5V | 08:28:09 | 02:28:46 | 00:00:00 | |
| DO2JMG | 2026-09-04 01:49:21 | 51.84076 | 7.21253 | 168° | 9km/h | 30969m | -28m/s | -41.6°C | 0% | 11hPa | 2.6V | 08:29:00 | 02:28:44 | 00:00:00 | |
| DL1CLM-18 | 2026-09-04 01:49:21 | 51.84076 | 7.21253 | 169° | 9km/h | 30969m | -28.0m/s | -41.6°C | 0.6% | 11.0hPa | 2.5V | 00:00:00 | 00:00:00 | 00:00:00 | |
| DL4BBY-15 | 2026-09-04 01:49:19 | 51.84079 | 7.21252 | 94° | 20km/h | 31027m | -30.3m/s | -41.6°C | 0% | 0hPa | 2.5V | 00:00:00 | 00:00:00 | 00:00:00 | |
| DM0DOS-11 | 2026-09-04 01:49:18 | 51.84059 | 7.21240 | 24° | 22km/h | 31229m | -36.1m/s | -41.5°C | 2.5% | 10.6hPa | 2.5V | 08:28:18 | 02:28:36 | 00:00:00 | |
| BIOWL1-15 | 2026-09-04 01:49:16 | 51.84073 | 7.21250 | 15° | 16km/h | 31123m | -35.5m/s | -41.5°C | 0% | 10.8hPa | 2.6V | 08:29:00 | 02:28:39 | 00:00:00 | |
| DF8AY | 2026-09-04 01:49:15 | 51.84069 | 7.21247 | 25° | 18km/h | 31159m | -36.8m/s | -41.5°C | 0% | 10.7hPa | 2.6V | 08:29:00 | 02:28:38 | 00:00:00 | |
| DL1XH-west | 2026-09-04 01:49:13 | 51.84059 | 7.21240 | 24° | 22km/h | 31229m | -36.1m/s | -41.6°C | 0% | 10.6hPa | 2.5V | 08:29:00 | 02:28:36 | 00:00:00 | |
| HSKMA3-T | 2026-09-04 01:49:12 | 51.84054 | 7.21235 | 36° | 22km/h | 31265m | -36.7m/s | -41.7°C | 0% | 10.6hPa | 2.5V | 08:29:00 | 02:28:35 | 00:00:00 | |
| DO2JMG | 2026-09-04 01:49:10 | 51.84044 | 7.21223 | 42° | 24km/h | 31336m | -33.1m/s | -41.9°C | 0% | 10.4hPa | 2.6V | 08:29:00 | 02:28:33 | 00:00:00 | |
| BIOWL1-15 | 2026-09-04 01:49:08 | 51.84027 | 7.21194 | 53° | 24km/h | 31464m | -31.4m/s | -41.9°C | 0% | 10.2hPa | 2.5V | 08:29:00 | 02:28:29 | 00:00:00 | |
| DF8AY | 2026-09-04 01:49:04 | 51.84021 | 7.21178 | 71° | 24km/h | 31528m | -33.1m/s | -41.6°C | 0% | 10.1hPa | 2.6V | 08:29:00 | 02:28:27 | 00:00:00 | |
| DM0DOS-11 | 2026-09-04 01:49:03 | 51.84019 | 7.21168 | 77° | 26km/h | 31560m | -33.3m/s | -41.5°C | 2.5% | 10.1hPa | 2.6V | 08:28:28 | 02:28:26 | 00:00:00 | |
| DL1XH-west | 2026-09-04 01:49:02 | 51.84018 | 7.21158 | 83° | 26km/h | 31593m | -33.1m/s | -41.4°C | 0% | 10hPa | 2.5V | 08:29:00 | 02:28:25 | 00:00:00 | |
| HSKMA3-T | 2026-09-04 01:49:01 | 51.84018 | 7.21147 | 89° | 26km/h | 31626m | -33.3m/s | -41.4°C | 0% | 10hPa | 2.5V | 08:29:00 | 02:28:24 | 00:00:00 | |
| DO2JMG | 2026-09-04 01:49:00 | 51.84017 | 7.21137 | 93° | 26km/h | 31660m | -33m/s | -41.3°C | 0% | 9.9hPa | 2.5V | 08:29:00 | 02:28:23 | 00:00:00 | |
| DO1YAY-16 | 2026-09-04 01:49:00 | 51.84018 | 7.21126 | 97° | 24km/h | 31693m | -32.9m/s | -41.2°C | 0.6% | 9.9hPa | 2.6V | 00:00:00 | 00:00:00 | 00:00:00 | |
| DJ2KF-10 | 2026-09-04 01:48:59 | 51.84018 | 7.21126 | 98° | 16km/h | 31693m | -32.8m/s | -41.1°C | 2.5% | 9.8hPa | 2.6V | 00:00:00 | 02:28:22 | 00:00:00 | |
| DM0DOS-11 | 2026-09-04 01:48:58 | 51.84024 | 7.21074 | 107° | 16km/h | 31891m | -33.8m/s | -41°C | 2.5% | 9.6hPa | 2.5V | 08:28:38 | 02:28:16 | 00:00:00 | |
| BIOWL1-15 | 2026-09-04 01:48:57 | 51.84021 | 7.21089 | 103° | 22km/h | 31824m | -33.4m/s | -41°C | 0% | 9.7hPa | 2.5V | 08:29:00 | 02:28:18 | 00:00:00 | |
| DF8AY | 2026-09-04 01:48:53 | 51.84024 | 7.21074 | 107° | 18km/h | 31891m | -33.8m/s | -41°C | 0% | 9.6hPa | 2.5V | 08:29:00 | 02:28:16 | 00:00:00 | |
| DL1XH-15 | 2026-09-04 01:48:52 | 51.84032 | 7.21037 | 105° | 20km/h | 32090m | -33.5m/s | -41°C | 2.5% | 9.3hPa | 2.5V | 08:28:44 | 02:28:10 | 00:00:00 | |
| DL1XH-west | 2026-09-04 01:48:51 | 51.84026 | 7.21062 | 115° | 16km/h | 31958m | -33.6m/s | -40.9°C | 0% | 9.5hPa | 2.6V | 08:29:00 | 02:28:14 | 00:00:00 | |
| DO2JMG | 2026-09-04 01:48:50 | 51.84028 | 7.21057 | 110° | 16km/h | 31991m | -33.3m/s | -40.9°C | 0% | 9.4hPa | 2.6V | 08:29:00 | 02:28:13 | 00:00:00 | |
| HTAHTA | 2026-09-04 01:48:50 | 51.84031 | 7.21044 | 106° | 18km/h | 32057m | -33.2m/s | -41.0°C | 0.6% | 9.4hPa | 2.5V | 00:00:00 | 00:00:00 | 00:00:00 | |
| DL4BBY-15 | 2026-09-04 01:48:49 | 51.84030 | 7.21051 | 109° | 15km/h | 32024m | -33.3m/s | -40.9°C | 0% | 0hPa | 2.5V | 00:00:00 | 00:00:00 | 00:00:00 | |
| DM0DOS-11 | 2026-09-04 01:48:48 | 51.84036 | 7.21004 | 97° | 20km/h | 32223m | -32.8m/s | -40.6°C | 2.5% | 9.1hPa | 2.5V | 08:28:48 | 02:28:06 | 00:00:00 | |
| BIOWL1-15 | 2026-09-04 01:48:44 | 51.84035 | 7.21012 | 97° | 20km/h | 32191m | -33.4m/s | -40.7°C | 0% | 9.2hPa | 2.5V | 08:29:00 | 02:28:07 | 00:00:00 | |
| DF8AY | 2026-09-04 01:48:43 | 51.84036 | 7.21004 | 98° | 20km/h | 32223m | -32.8m/s | -40.6°C | 0% | 9.1hPa | 2.5V | 08:29:00 | 02:28:06 | 00:00:00 | |
| DL1XH-west | 2026-09-04 01:48:41 | 51.84037 | 7.20990 | 103° | 15km/h | 32289m | -33.7m/s | -40.4°C | 0% | 9hPa | 2.6V | 08:29:00 | 02:28:04 | 00:00:00 | |
| AA1-15 | 2026-09-04 01:48:40 | 51.84038 | 7.20984 | 107° | 13km/h | 32322m | -33.9m/s | -40.3°C | 0% | 9hPa | 2.6V | 08:29:00 | 02:28:03 | 00:00:00 | |
| DO2JMG | 2026-09-04 01:48:40 | 51.84040 | 7.20979 | 127° | 13km/h | 32357m | -34.5m/s | -40.2°C | 0% | 8.9hPa | 2.6V | 08:29:00 | 02:28:02 | 00:00:00 | |
| DM0DOS-11 | 2026-09-04 01:48:38 | 51.84058 | 7.20957 | 146° | 18km/h | 32571m | -33.8m/s | -40°C | 2.4% | 8.6hPa | 2.6V | 08:28:58 | 02:27:56 | 00:00:00 | |
| BIOWL1-15 | 2026-09-04 01:48:33 | 51.84058 | 7.20957 | 147° | 18km/h | 32571m | -33.8m/s | -40°C | 0% | 8.7hPa | 2.6V | 08:29:00 | 02:27:56 | 00:00:00 | |
| DF8AY | 2026-09-04 01:48:32 | 51.84062 | 7.20954 | 154° | 18km/h | 32604m | -34.4m/s | -40°C | 0% | 8.6hPa | 2.6V | 08:29:00 | 02:27:55 | 00:00:00 | |
| DL1XH-west | 2026-09-04 01:48:30 | 51.84068 | 7.20948 | 146° | 13km/h | 32674m | -35.6m/s | -39.9°C | 0% | 8.6hPa | 2.5V | 08:29:51 | 02:27:53 | 00:00:00 | |
| HSKMA3-T | 2026-09-04 01:48:29 | 51.84070 | 7.20945 | 139° | 9km/h | 32708m | -33.7m/s | -39.8°C | 0% | 8.5hPa | 2.5V | 08:29:51 | 02:27:52 | 00:00:00 | |
| DO2JMG | 2026-09-04 01:48:28 | 51.84072 | 7.20942 | 124° | 11km/h | 32741m | -33.4m/s | -39.6°C | 0% | 8.5hPa | 2.6V | 08:29:51 | 02:27:51 | 00:00:00 | |
| BIOWL1-15 | 2026-09-04 01:48:22 | 51.84080 | 7.20918 | 137° | 11km/h | 32949m | -35.2m/s | -39.1°C | 0% | 8.2hPa | 2.6V | 08:29:51 | 02:27:45 | 00:00:00 | |
| DF8AY | 2026-09-04 01:48:21 | 51.84082 | 7.20915 | 132° | 9km/h | 32983m | -33.5m/s | -39°C | 0% | 8.2hPa | 2.6V | 08:29:51 | 02:27:44 | 00:00:00 | |
| DL1XH-west | 2026-09-04 01:48:19 | 51.84085 | 7.20909 | 133° | 9km/h | 33050m | -34.2m/s | -38.6°C | 0% | 8.1hPa | 2.5V | 08:29:51 | 02:27:42 | 00:00:00 | |
| DO2JMG | 2026-09-04 01:48:18 | 51.84087 | 7.20906 | 131° | 11km/h | 33084m | -33.3m/s | -38.4°C | 0% | 8hPa | 2.5V | 08:29:51 | 02:27:41 | 00:00:00 | |
| DF8AY | 2026-09-04 01:48:11 | 51.84104 | 7.20873 | 142° | 18km/h | 33359m | -45.3m/s | -36.5°C | 0% | 7.7hPa | 2.5V | 08:29:51 | 02:27:34 | 00:00:00 | |
| DL1XH-west | 2026-09-04 01:48:09 | 51.84111 | 7.20866 | 148° | 15km/h | 33445m | -43.1m/s | -36.2°C | 0% | 7.7hPa | 2.6V | 08:29:51 | 02:27:32 | 00:00:00 | |
| HSKMA3-T | 2026-09-04 01:48:08 | 51.84114 | 7.20864 | 161° | 11km/h | 33487m | -40.8m/s | -36°C | 0% | 7.6hPa | 2.5V | 08:29:51 | 02:27:31 | 00:00:00 | |
| DO2JMG | 2026-09-04 01:48:07 | 51.84116 | 7.20863 | 153° | 7km/h | 33528m | -41.9m/s | -35.8°C | 0% | 7.5hPa | 2.5V | 08:29:51 | 02:27:30 | 00:00:00 | |
| BIOWL1-15 | 2026-09-04 01:48:01 | 51.84125 | 7.20848 | 115° | 11km/h | 33783m | -44.6m/s | -34.8°C | 0% | 7.3hPa | 2.5V | 08:29:51 | 02:27:24 | 00:00:00 | |
| DF8AY | 2026-09-04 01:48:00 | 51.84126 | 7.20844 | 131° | 9km/h | 33827m | -43.4m/s | -34.8°C | 0% | 7.2hPa | 2.5V | 08:29:51 | 02:27:23 | 00:00:00 | |
| AA1-15 | 2026-09-04 01:47:59 | 51.84128 | 7.20841 | 121° | 7km/h | 33869m | -41.3m/s | -34.8°C | 0% | 7.2hPa | 2.5V | 08:29:51 | 02:27:22 | 00:00:00 | |
| DM0DOS-11 | 2026-09-04 01:47:58 | 51.84143 | 7.20828 | 174° | 24km/h | 34065m | -30.5m/s | -34.8°C | 1.9% | 7hPa | 2.5V | 08:29:38 | 02:27:16 | 00:00:00 | |
| DL1XH-west | 2026-09-04 01:47:58 | 51.84129 | 7.20838 | 137° | 7km/h | 33908m | -37.4m/s | -35°C | 0% | 7.2hPa | 2.6V | 08:29:51 | 02:27:21 | 00:00:00 | |
| HSKMA3-T | 2026-09-04 01:47:57 | 51.84130 | 7.20836 | 141° | 9km/h | 33943m | -33.8m/s | -35°C | 0% | 7.1hPa | 2.6V | 08:29:51 | 02:27:20 | 00:00:00 | |
| DO2JMG | 2026-09-04 01:47:56 | 51.84132 | 7.20834 | 152° | 11km/h | 33976m | -30.9m/s | -35°C | 0% | 7.1hPa | 2.6V | 08:29:51 | 02:27:19 | 00:00:00 | |
| DL1ZP-14 | 2026-09-04 01:47:56 | 51.84135 | 7.20832 | 157° | 9km/h | 34006m | -28.2m/s | -35.0°C | 0.4% | 7.0hPa | 2.5V | 00:00:00 | 00:00:00 | 00:00:00 | |
| EDDB2-11 | 2026-09-04 01:47:55 | 51.84138 | 7.20830 | 162° | 16km/h | 34035m | -29.9m/s | -34.9°C | 0.4% | 7.0hPa | 2.5V | 00:00:00 | 00:00:00 | 00:00:00 | |
| DC6BW-12 | 2026-09-04 01:47:53 | 51.84138 | 7.20830 | 163° | 18km/h | 34035m | -29.9m/s | -34.9°C | 0.4% | 7.0hPa | 2.5V | 08:29:00 | 00:00:00 | 00:00:00 | |
| DL1XH-15 | 2026-09-04 01:47:52 | 51.84185 | 7.20837 | 199° | 26km/h | 34296m | -44.6m/s | -34.2°C | 1.8% | 6.8hPa | 2.5V | 08:29:44 | 02:27:10 | 00:00:00 | |
| BIOWL1-15 | 2026-09-04 01:47:51 | 51.84156 | 7.20828 | 184° | 29km/h | 34131m | -37.3m/s | -34.7°C | 0% | 6.9hPa | 2.6V | 08:29:51 | 02:27:14 | 00:00:00 | |
| DF8AY | 2026-09-04 01:47:49 | 51.84172 | 7.20831 | 196° | 29km/h | 34210m | -42.9m/s | -34.6°C | 0% | 6.8hPa | 2.6V | 08:29:51 | 02:27:12 | 00:00:00 | |
| AA1-15 | 2026-09-04 01:47:48 | 51.84179 | 7.20834 | 194° | 29km/h | 34253m | -43.7m/s | -34.5°C | 0% | 6.8hPa | 2.5V | 08:29:51 | 02:27:11 | 00:00:00 | |
| DL1XH-west | 2026-09-04 01:47:47 | 51.84185 | 7.20837 | 199° | 26km/h | 34296m | -44.6m/s | -34.2°C | 0% | 6.8hPa | 2.5V | 08:29:51 | 02:27:10 | 00:00:00 | |
| DO2JMG | 2026-09-04 01:47:45 | 51.84194 | 7.20844 | 218° | 15km/h | 34389m | -50.2m/s | -34.3°C | 0% | 6.7hPa | 2.6V | 08:29:51 | 02:27:08 | 00:00:00 | |
| BIOWL1-15 | 2026-09-04 01:47:43 | 51.84196 | 7.20855 | 299° | 4km/h | 34589m | -49.5m/s | -34.5°C | 0% | 6.5hPa | 2.5V | 08:29:51 | 02:27:04 | 00:00:00 | |
| DB0UT-7 | 2026-09-04 01:47:43 | 51.84196 | 7.20851 | 271° | 13km/h | 34491m | -50.2m/s | -34.2°C | 1.8% | 6.5hPa | 2.5V | 08:29:00 | 02:27:06 | 00:00:00 | |
| DL1XH-15 | 2026-09-04 01:47:42 | 51.84195 | 7.20858 | 189° | 5km/h | 34782m | -50.5m/s | -34.6°C | 1.9% | 6.3hPa | 2.5V | 08:30:00 | 02:27:00 | 00:00:00 | |
| DF8AY | 2026-09-04 01:47:39 | 51.84195 | 7.20858 | 317° | 2km/h | 34683m | -47.5m/s | -34.6°C | 0% | 6.4hPa | 2.6V | 18:12:15 | 02:27:02 | 00:00:00 | |
| AA1-15 | 2026-09-04 01:47:38 | 51.84195 | 7.20858 | 187° | 2km/h | 34732m | -49.6m/s | -34.6°C | 0% | 6.4hPa | 2.6V | 18:12:15 | 02:27:01 | 00:00:00 | |
| DL1XH-west | 2026-09-04 01:47:36 | 51.84197 | 7.20858 | 174° | 4km/h | 34832m | -49.5m/s | -34.6°C | 0% | 6.3hPa | 2.5V | 18:12:15 | 02:26:59 | 00:00:00 | |
| DO2JMG | 2026-09-04 01:47:34 | 51.84199 | 7.20855 | 144° | 11km/h | 34933m | -53m/s | -34.4°C | 0% | 6.2hPa | 2.5V | 18:12:15 | 02:26:57 | 00:00:00 | |
| DL3AQ-11 | 2026-09-04 01:47:33 | 51.84201 | 7.20851 | 116° | 11km/h | 34987m | -52.8m/s | -34.1°C | 0.4% | 6.1hPa | 2.6V | 00:00:00 | 00:00:00 | 00:00:00 | |
| DL1XH-15 | 2026-09-04 01:47:32 | 51.84206 | 7.20822 | 80° | 7km/h | 35306m | -56m/s | -33.5°C | 1.8% | 5.9hPa | 2.6V | 08:30:00 | 02:26:50 | 00:00:00 | |
| DF8AY | 2026-09-04 01:47:28 | 51.84206 | 7.20825 | 102° | 9km/h | 35251m | -54.1m/s | -33.5°C | 0% | 5.9hPa | 2.5V | 18:12:15 | 02:26:51 | 00:00:00 | |
| AA1-15 | 2026-09-04 01:47:27 | 51.84206 | 7.20822 | 80° | 7km/h | 35306m | -56m/s | -33.5°C | 0% | 5.9hPa | 2.6V | 18:12:15 | 02:26:50 | 00:00:00 | |
| DL1XH-west | 2026-09-04 01:47:26 | 51.84205 | 7.20819 | 65° | 7km/h | 35363m | -57.3m/s | -33.5°C | 0% | 5.8hPa | 2.6V | 18:12:15 | 02:26:49 | 00:00:00 | |
| DO2JMG | 2026-09-04 01:47:23 | 51.84203 | 7.20805 | 84° | 20km/h | 35532m | -55.4m/s | -33.5°C | 0% | 5.7hPa | 2.5V | 18:12:15 | 02:26:46 | 00:00:00 | |
| DM0DOS-11 | 2026-09-04 01:47:22 | 51.84203 | 7.20797 | 85° | 22km/h | 35586m | -53.5m/s | -33.3°C | 1.8% | 5.6hPa | 2.6V | 08:30:00 | 02:26:45 | 00:00:00 | |
| DL1XH-15 | 2026-09-04 01:47:22 | 51.84207 | 7.20738 | 101° | 27km/h | 35851m | -52.2m/s | -33.2°C | 1.8% | 5.4hPa | 2.5V | 08:30:00 | 02:26:40 | 00:00:00 | |
| DF8AY | 2026-09-04 01:47:18 | 51.84206 | 7.20750 | 98° | 29km/h | 35799m | -52.4m/s | -33.3°C | 0% | 5.4hPa | 2.5V | 18:12:15 | 02:26:41 | 00:00:00 | |
| AA1-15 | 2026-09-04 01:47:16 | 51.84208 | 7.20730 | 106° | 15km/h | 35903m | -53.5m/s | -33°C | 0% | 5.4hPa | 2.5V | 18:12:15 | 02:26:39 | 00:00:00 | |
| DL1XH-west | 2026-09-04 01:47:15 | 51.84209 | 7.20727 | 123° | 5km/h | 35956m | -52.7m/s | -32.6°C | 0% | 5.3hPa | 2.6V | 18:12:15 | 02:26:38 | 00:00:00 | |
| DO2JMG | 2026-09-04 01:47:13 | 51.84210 | 7.20730 | 268° | 11km/h | 36054m | -46.8m/s | -31.9°C | 0% | 5.2hPa | 2.6V | 18:12:15 | 02:26:36 | 00:00:00 | |
| DB0UT-7 | 2026-09-04 01:47:13 | 51.84210 | 7.20730 | 269° | 27km/h | 36054m | -46.8m/s | -31.8°C | 1.7% | 5.2hPa | 2.6V | 00:00:00 | 00:00:00 | 00:00:00 | |
| DL1XH-15 | 2026-09-04 01:47:12 | 51.84196 | 7.20735 | 48° | 18km/h | 36396m | -52.7m/s | -30.6°C | 1.5% | 5hPa | 2.6V | 08:30:00 | 02:26:30 | 00:00:00 | |
| BIOWL1-15 | 2026-09-04 01:47:07 | 51.84196 | 7.20735 | 48° | 18km/h | 36396m | -52.7m/s | -30.6°C | 0% | 5hPa | 2.6V | 18:12:15 | 02:26:30 | 00:00:00 | |
| DL1XH-west | 2026-09-04 01:47:06 | 51.84190 | 7.20723 | 61° | 22km/h | 36486m | -36.7m/s | -30.5°C | 0% | 4.9hPa | 2.5V | 18:12:15 | 02:26:28 | 00:00:00 | |
| DO2JMG | 2026-09-04 01:47:02 | 51.84186 | 7.20692 | 89° | 35km/h | 36552m | -7.9m/s | -30.5°C | 0% | 4.8hPa | 2.6V | 18:12:15 | 02:26:25 | 00:00:00 | |
| DF8AY | 2026-09-04 01:46:57 | 51.84195 | 7.20611 | 128° | 49km/h | 36518m | 5.7m/s | -30.8°C | 0% | 4.9hPa | 2.6V | 18:12:15 | 02:26:20 | 00:00:00 | |
| BIOWL1-15 | 2026-09-04 01:46:56 | 51.84204 | 7.20596 | 141° | 49km/h | 36512m | 6m/s | -30.8°C | 0% | 4.9hPa | 2.6V | 18:12:15 | 02:26:19 | 00:00:00 | |
| SMARD9-10 | 2026-09-04 01:46:56 | 51.84195 | 7.20611 | 129° | 49km/h | 36519m | 5.7m/s | -30.8°C | 0.3% | 4.9hPa | 2.6V | 00:00:00 | 00:00:00 | 00:00:00 | |
| DO8TBO-1 | 2026-09-04 01:46:55 | 51.84214 | 7.20586 | 154° | 35km/h | 36507m | 6.2m/s | -30.8°C | 1.5% | 4.8hPa | 2.6V | 00:00:00 | 02:26:18 | 00:00:00 | |
| DL1XH-15 | 2026-09-04 01:46:54 | 51.84259 | 7.20583 | 150° | 7km/h | 36474m | 5.4m/s | -31°C | 1.5% | 4.9hPa | 2.6V | 08:30:00 | 02:26:12 | 00:00:00 | |
| HSKMA3-T | 2026-09-04 01:46:53 | 51.84235 | 7.20577 | 179° | 40km/h | 36494m | 5.7m/s | -30.9°C | 0% | 4.9hPa | 2.5V | 18:12:15 | 02:26:16 | 00:00:00 | |
| DO2JMG | 2026-09-04 01:46:52 | 51.84244 | 7.20578 | 189° | 33km/h | 36489m | 5.1m/s | -30.9°C | 0% | 4.9hPa | 2.5V | 18:12:15 | 02:26:15 | 00:00:00 | |
| DL1XH-west | 2026-09-04 01:46:48 | 51.84259 | 7.20580 | 88° | 13km/h | 36468m | 6m/s | -31°C | 0% | 4.9hPa | 2.6V | 18:12:15 | 02:26:11 | 00:00:00 | |
| DF8AY | 2026-09-04 01:46:46 | 51.84258 | 7.20561 | 83° | 31km/h | 36456m | 6.2m/s | -31°C | 0% | 4.9hPa | 2.5V | 18:12:15 | 02:26:09 | 00:00:00 | |
| DJ2KF-10 | 2026-09-04 01:46:45 | 51.84257 | 7.20547 | 88° | 26km/h | 36450m | 5.4m/s | -31.0°C | 1.5% | 4.9hPa | 2.5V | 00:00:00 | 02:26:08 | 00:00:00 | |
| DL1XH-15 | 2026-09-04 01:46:44 | 51.84275 | 7.20491 | 184° | 22km/h | 36416m | 6.5m/s | -31.4°C | 1.5% | 4.9hPa | 2.5V | 08:30:00 | 02:26:02 | 00:00:00 | |
| AA1-15 | 2026-09-04 01:46:42 | 51.84261 | 7.20505 | 115° | 29km/h | 36435m | 5.3m/s | -31.2°C | 0% | 4.9hPa | 2.6V | 18:12:15 | 02:26:05 | 00:00:00 | |
| DO2JMG | 2026-09-04 01:46:41 | 51.84265 | 7.20497 | 134° | 24km/h | 36430m | 6.4m/s | -31.2°C | 0% | 4.9hPa | 2.6V | 18:12:15 | 02:26:04 | 00:00:00 | |
| DL1XH-west | 2026-09-04 01:46:37 | 51.84286 | 7.20495 | 197° | 24km/h | 36405m | 4.5m/s | -31.5°C | 0% | 4.9hPa | 2.6V | 18:12:15 | 02:26:00 | 00:00:00 | |
| DF8AY | 2026-09-04 01:46:36 | 51.84291 | 7.20497 | 185° | 18km/h | 36401m | 4.3m/s | -31.5°C | 0% | 5hPa | 2.6V | 18:12:15 | 02:25:59 | 00:00:00 | |
| DL1XH-15 | 2026-09-04 01:46:34 | 51.84290 | 7.20428 | 64° | 37km/h | 36360m | 5.6m/s | -31.9°C | 1.6% | 5hPa | 2.5V | 08:30:00 | 02:25:52 | 00:00:00 | |
| AA1-15 | 2026-09-04 01:46:31 | 51.84297 | 7.20458 | 74° | 38km/h | 36372m | 6.3m/s | -31.8°C | 0% | 5hPa | 2.6V | 18:12:15 | 02:25:54 | 00:00:00 | |
| DO2JMG | 2026-09-04 01:46:30 | 51.84294 | 7.20443 | 68° | 40km/h | 36366m | 6m/s | -31.8°C | 0% | 5hPa | 2.6V | 18:12:15 | 02:25:53 | 00:00:00 | |
| DO3MHA-11 | 2026-09-04 01:46:29 | 51.84290 | 7.20428 | 65° | 24km/h | 36361m | 5.5m/s | -31.8°C | 1.6% | 4.9hPa | 2.5V | 00:00:00 | 02:25:52 | 00:00:00 | |
| BIOWL9-15 | 2026-09-04 01:46:28 | 51.84283 | 7.20406 | 61° | 22km/h | 36350m | 5.2m/s | -31.9°C | 0.3% | 5.0hPa | 2.5V | 00:00:00 | 00:00:00 | 00:00:00 | |
| DM0DOS-11 | 2026-09-04 01:46:27 | 51.84289 | 7.20380 | 141° | 24km/h | 36320m | 6.4m/s | -31.9°C | 1.6% | 5hPa | 2.5V | 08:30:00 | 02:25:45 | 00:00:00 | |
| DL1XH-west | 2026-09-04 01:46:27 | 51.84283 | 7.20406 | 62° | 24km/h | 36350m | 5.2m/s | -31.9°C | 0% | 5hPa | 2.5V | 18:12:15 | 02:25:50 | 00:00:00 | |
| BIOWL1-15 | 2026-09-04 01:46:26 | 51.84281 | 7.20399 | 70° | 16km/h | 36344m | 5.4m/s | -31.9°C | 0% | 5hPa | 2.5V | 18:12:15 | 02:25:49 | 00:00:00 | |
| DF8AY | 2026-09-04 01:46:25 | 51.84281 | 7.20394 | 99° | 11km/h | 36339m | 5.7m/s | -31.9°C | 0% | 5hPa | 2.6V | 18:12:15 | 02:25:48 | 00:00:00 | |
| DL1XH-15 | 2026-09-04 01:46:24 | 51.84303 | 7.20355 | 118° | 27km/h | 36304m | 4.7m/s | -31.9°C | 1.6% | 5hPa | 2.5V | 08:30:00 | 02:25:42 | 00:00:00 | |
| HSKMA3-T | 2026-09-04 01:46:21 | 51.84294 | 7.20373 | 137° | 27km/h | 36314m | 5.9m/s | -31.9°C | 0% | 5hPa | 2.5V | 18:12:15 | 02:25:44 | 00:00:00 | |
| DO2JMG | 2026-09-04 01:46:20 | 51.84299 | 7.20365 | 128° | 29km/h | 36308m | 5.2m/s | -31.9°C | 0% | 5hPa | 2.5V | 18:12:15 | 02:25:43 | 00:00:00 | |
| DL1XH-west | 2026-09-04 01:46:16 | 51.84304 | 7.20328 | 64° | 20km/h | 36288m | 6.3m/s | -31.9°C | 0% | 5hPa | 2.6V | 18:12:15 | 02:25:39 | 00:00:00 | |
| DF8AY | 2026-09-04 01:46:15 | 51.84301 | 7.20321 | 43° | 20km/h | 36281m | 6.9m/s | -32°C | 0% | 5hPa | 2.5V | 18:12:15 | 02:25:38 | 00:00:00 | |
| HTAHTA | 2026-09-04 01:46:14 | 51.84297 | 7.20316 | 26° | 22km/h | 36275m | 6.7m/s | -31.9°C | 0.3% | 5.0hPa | 2.6V | 00:00:00 | 00:00:00 | 00:00:00 | |
| DM0DOS-11 | 2026-09-04 01:46:13 | 51.84286 | 7.20310 | 22° | 22km/h | 36263m | 4.6m/s | -31.9°C | 1.6% | 5hPa | 2.6V | 08:30:00 | 02:25:35 | 00:00:00 | |
| HSKMA3-T | 2026-09-04 01:46:11 | 51.84282 | 7.20306 | 38° | 20km/h | 36259m | 4.1m/s | -32°C | 0% | 5hPa | 2.6V | 18:12:15 | 02:25:34 | 00:00:00 | |
| DO2JMG | 2026-09-04 01:46:10 | 51.84279 | 7.20299 | 64° | 20km/h | 36254m | 4.7m/s | -32°C | 0% | 5hPa | 2.5V | 18:12:15 | 02:25:33 | 00:00:00 | |
| AA1-15 | 2026-09-04 01:46:09 | 51.84277 | 7.20291 | 87° | 26km/h | 36249m | 6.3m/s | -32°C | 0% | 5.1hPa | 2.5V | 18:12:15 | 02:25:32 | 00:00:00 | |
| DL1XH-west | 2026-09-04 01:46:05 | 51.84291 | 7.20236 | 127° | 42km/h | 36225m | 4.2m/s | -32°C | 0% | 5.1hPa | 2.6V | 18:12:15 | 02:25:28 | 00:00:00 | |
| DF8AY | 2026-09-04 01:46:04 | 51.84297 | 7.20224 | 134° | 35km/h | 36220m | 4.1m/s | -32.1°C | 0% | 5.1hPa | 2.5V | 18:12:15 | 02:25:27 | 00:00:00 | |
| DO9LL-15 | 2026-09-04 01:46:04 | 51.84297 | 7.20224 | 134° | 33km/h | 36221m | 4.1m/s | -32.0°C | 1.6% | 5.0hPa | 2.5V | 00:00:00 | 02:25:27 | 00:00:00 | |
| DL8OAI-8 | 2026-09-04 01:46:03 | 51.84297 | 7.20224 | 135° | 35km/h | 36221m | 4.1m/s | -32.1°C | 0.4% | 5.1hPa | 2.5V | 00:00:00 | 00:00:00 | 00:00:00 | |
| DM0DOS-11 | 2026-09-04 01:46:02 | 51.84307 | 7.20212 | 155° | 15km/h | 36210m | 6.4m/s | -32.1°C | 1.6% | 5.1hPa | 2.5V | 08:30:00 | 02:25:25 | 00:00:00 | |
| DO2JMG | 2026-09-04 01:46:00 | 51.84309 | 7.20213 | 311° | 11km/h | 36197m | 6.7m/s | -32.2°C | 0% | 5.1hPa | 2.6V | 18:12:15 | 02:25:23 | 00:00:00 | |
| AA1-15 | 2026-09-04 01:45:59 | 51.84305 | 7.20217 | 332° | 18km/h | 36190m | 5.5m/s | -32.2°C | 0% | 5.1hPa | 2.6V | 18:12:15 | 02:25:22 | 00:00:00 | |
| DO3MHA-11 | 2026-09-04 01:45:59 | 51.84305 | 7.20217 | 333° | 20km/h | 36191m | 5.4m/s | -32.2°C | 1.6% | 5.0hPa | 2.6V | 00:00:00 | 02:25:22 | 00:00:00 | |
| DH3RM | 2026-09-04 01:45:58 | 51.84306 | 7.20217 | 333° | 18km/h | 36191m | 5.5m/s | -32.2°C | 0.3% | 5.1hPa | 2.6V | 00:00:00 | 00:00:00 | 00:00:00 | |
| DM0DOS-11 | 2026-09-04 01:45:57 | 51.84278 | 7.20153 | 99° | 44km/h | 36152m | 4.7m/s | -32.4°C | 1.6% | 5.1hPa | 2.6V | 08:30:00 | 02:25:15 | 00:00:00 | |
| BIOWL1-15 | 2026-09-04 01:45:54 | 51.84280 | 7.20137 | 110° | 38km/h | 36148m | 3.9m/s | -32.5°C | 0% | 5.1hPa | 2.6V | 18:12:15 | 02:25:14 | 00:00:00 | |
| DL1XH-west | 2026-09-04 01:45:54 | 51.84278 | 7.20189 | 75° | 42km/h | 36164m | 6.7m/s | -32.4°C | 0% | 5.1hPa | 2.5V | 18:12:15 | 02:25:17 | 00:00:00 | |
| DF8AY | 2026-09-04 01:45:53 | 51.84277 | 7.20171 | 89° | 46km/h | 36158m | 5.8m/s | -32.4°C | 0% | 5.1hPa | 2.6V | 18:12:15 | 02:25:16 | 00:00:00 | |
| DO2JMG | 2026-09-04 01:45:49 | 51.84286 | 7.20118 | 133° | 15km/h | 36139m | 5.7m/s | -32.5°C | 0% | 5.1hPa | 2.5V | 18:12:15 | 02:25:12 | 00:00:00 | |
| DL4BBY-15 | 2026-09-04 01:45:49 | 51.84287 | 7.20118 | 134° | 27km/h | 36139m | 5.6m/s | -32.5°C | 0% | 0hPa | 2.6V | 00:00:00 | 00:00:00 | 00:00:00 | |
| DM0DOS-11 | 2026-09-04 01:45:47 | 51.84258 | 7.20127 | 39° | 35km/h | 36101m | 5.5m/s | -32.7°C | 1.6% | 5.2hPa | 2.6V | 08:30:00 | 02:25:05 | 00:00:00 | |
| SONCRA | 2026-09-04 01:45:45 | 51.84280 | 7.20130 | 331° | 27km/h | 36116m | 4.5m/s | -32.6°C | 0.3% | 5.1hPa | 2.5V | 00:00:00 | 00:00:00 | 00:00:00 | |
| DL1XH-15 | 2026-09-04 01:45:44 | 51.84248 | 7.20082 | 94° | 46km/h | 36083m | 5.6m/s | -32.8°C | 1.6% | 5.2hPa | 2.5V | 08:30:00 | 02:25:02 | 00:00:00 | |
| DL1XH-west | 2026-09-04 01:45:43 | 51.84266 | 7.20133 | 14° | 31km/h | 36106m | 5.2m/s | -32.6°C | 0% | 5.2hPa | 2.5V | 18:12:15 | 02:25:06 | 00:00:00 | |
| BIOWL1-15 | 2026-09-04 01:45:41 | 51.84253 | 7.20116 | 61° | 40km/h | 36095m | 5.8m/s | -32.7°C | 0% | 5.2hPa | 2.6V | 18:12:15 | 02:25:04 | 00:00:00 | |
| DO2JMG | 2026-09-04 01:45:39 | 51.84248 | 7.20082 | 94° | 46km/h | 36083m | 5.6m/s | -32.8°C | 0% | 5.2hPa | 2.5V | 18:12:15 | 02:25:02 | 00:00:00 | |
| HSKMA3-T | 2026-09-04 01:45:38 | 51.84251 | 7.20064 | 109° | 44km/h | 36078m | 5.4m/s | -32.7°C | 0% | 5.2hPa | 2.5V | 18:12:15 | 02:25:01 | 00:00:00 | |
| DM0DOS-11 | 2026-09-04 01:45:37 | 51.84278 | 7.20041 | 319° | 11km/h | 36039m | 5.7m/s | -32.7°C | 1.6% | 5.2hPa | 2.5V | 08:30:00 | 02:24:54 | 00:00:00 | |
| DL1XH-west | 2026-09-04 01:45:33 | 51.84278 | 7.20033 | 217° | 15km/h | 36050m | 5.4m/s | -32.7°C | 0% | 5.2hPa | 2.6V | 18:12:15 | 02:24:56 | 00:00:00 | |
| DF8AY | 2026-09-04 01:45:30 | 51.84275 | 7.20042 | 0° | 16km/h | 36033m | 5.9m/s | -32.8°C | 0% | 5.2hPa | 2.5V | 18:12:15 | 02:24:53 | 00:00:00 | |
| DO2JMG | 2026-09-04 01:45:28 | 51.84265 | 7.20034 | 40° | 29km/h | 36022m | 5.7m/s | -32.8°C | 0% | 5.2hPa | 2.6V | 18:12:15 | 02:24:51 | 00:00:00 | |
| GOEST3-10 | 2026-09-04 01:45:27 | 51.84260 | 7.20025 | 54° | 31km/h | 36016m | 5.2m/s | -32.8°C | 1.6% | 5.2hPa | 2.6V | 00:00:00 | 02:24:50 | 08:30:00 | |
| DM0DOS-11 | 2026-09-04 01:45:26 | 51.84263 | 7.19963 | 152° | 24km/h | 35983m | 5.7m/s | -33.2°C | 1.6% | 5.2hPa | 2.6V | 08:30:00 | 02:24:44 | 00:00:00 | |
| DL1XH-west | 2026-09-04 01:45:22 | 51.84258 | 7.19969 | 136° | 24km/h | 35989m | 6m/s | -33.2°C | 0% | 5.2hPa | 2.5V | 18:12:15 | 02:24:45 | 00:00:00 | |
| BIOWL1-15 | 2026-09-04 01:45:19 | 51.84280 | 7.19925 | 70° | 24km/h | 35939m | 5m/s | -33.8°C | 0% | 5.3hPa | 2.5V | 18:12:15 | 02:24:36 | 00:00:00 | |
| DF8AY | 2026-09-04 01:45:19 | 51.84273 | 7.19958 | 168° | 20km/h | 35973m | 5.1m/s | -33.4°C | 0% | 5.3hPa | 2.6V | 18:12:15 | 02:24:42 | 00:00:00 | |
| AA1-15 | 2026-09-04 01:45:18 | 51.84278 | 7.19956 | 161° | 16km/h | 35967m | 5.3m/s | -33.5°C | 0% | 5.3hPa | 2.5V | 18:12:15 | 02:24:41 | 00:00:00 | |
| DO2JMG | 2026-09-04 01:45:17 | 51.84281 | 7.19953 | 139° | 13km/h | 35962m | 5.6m/s | -33.6°C | 0% | 5.3hPa | 2.5V | 18:12:15 | 02:24:40 | 00:00:00 | |
| GOEST3-10 | 2026-09-04 01:45:17 | 51.84281 | 7.19953 | 140° | 18km/h | 35962m | 5.5m/s | -33.5°C | 1.7% | 5.2hPa | 2.6V | 00:00:00 | 02:24:40 | 00:00:00 | |
| DO2KSM | 2026-09-04 01:45:16 | 51.84281 | 7.19953 | 140° | 13km/h | 35962m | 5.6m/s | -33.6°C | 0.4% | 5.3hPa | 2.6V | 00:00:00 | 00:00:00 | 00:00:00 | |
| SP3BTT-10 | 2026-09-04 01:45:15 | 51.84283 | 7.19942 | 87° | 15km/h | 35951m | 5.8m/s | -33.7°C | 1.7% | 5.2hPa | 2.6V | 00:00:00 | 00:00:00 | 00:00:00 | |
| DO3MHA-11 | 2026-09-04 01:45:14 | 51.84282 | 7.19934 | 76° | 16km/h | 35945m | 5.6m/s | -33.7°C | 1.7% | 5.2hPa | 2.6V | 00:00:00 | 02:24:37 | 08:30:00 | |
| DB0UT-7 | 2026-09-04 01:45:13 | 51.84280 | 7.19925 | 70° | 22km/h | 35940m | 5.0m/s | -33.8°C | 1.7% | 5.2hPa | 2.5V | 00:00:00 | 00:00:00 | 00:00:00 | |
| DM0DOS-11 | 2026-09-04 01:45:11 | 51.84276 | 7.19908 | 65° | 20km/h | 35929m | 5m/s | -33.9°C | 1.7% | 5.3hPa | 2.5V | 08:30:00 | 02:24:34 | 00:00:00 | |
| DL1XH-west | 2026-09-04 01:45:11 | 51.84276 | 7.19908 | 65° | 20km/h | 35929m | 5m/s | -33.9°C | 0% | 5.3hPa | 2.5V | 18:12:15 | 02:24:34 | 00:00:00 | |
| DF8AY | 2026-09-04 01:45:09 | 51.84273 | 7.19898 | 82° | 7km/h | 35919m | 5.9m/s | -34°C | 0% | 5.3hPa | 2.6V | 18:12:15 | 02:24:32 | 00:00:00 | |
| AA1-15 | 2026-09-04 01:45:08 | 51.84274 | 7.19896 | 149° | 5km/h | 35912m | 5.9m/s | -34°C | 0% | 5.3hPa | 2.6V | 18:12:15 | 02:24:31 | 00:00:00 | |
| DO2JMG | 2026-09-04 01:45:07 | 51.84276 | 7.19895 | 174° | 9km/h | 35907m | 5.2m/s | -34°C | 0% | 5.3hPa | 2.5V | 18:12:15 | 02:24:30 | 00:00:00 | |
| GOEST3-10 | 2026-09-04 01:45:07 | 51.84276 | 7.19895 | 175° | 20km/h | 35908m | 5.1m/s | -34.0°C | 1.7% | 5.3hPa | 2.6V | 00:00:00 | 02:24:30 | 00:00:00 | |
| DM0DOS-11 | 2026-09-04 01:45:06 | 51.84297 | 7.19850 | 103° | 40km/h | 35875m | 5.3m/s | -34.1°C | 1.7% | 5.3hPa | 2.6V | 08:30:00 | 02:24:24 | 00:00:00 | |
| DD1CC8 | 2026-09-04 01:45:05 | 51.84297 | 7.19850 | 103° | 40km/h | 35875m | 5.4m/s | -34.1°C | 0.4% | 5.3hPa | 2.5V | 00:00:00 | 00:00:00 | 00:00:00 | |
| DL1XH-15 | 2026-09-04 01:45:04 | 51.84300 | 7.19818 | 95° | 37km/h | 35866m | 4.3m/s | -34.2°C | 1.8% | 5.3hPa | 2.5V | 08:30:00 | 02:24:22 | 00:00:00 | |
| BIOWL1-15 | 2026-09-04 01:45:04 | 51.84290 | 7.19877 | 120° | 31km/h | 35887m | 6.5m/s | -34.2°C | 0% | 5.3hPa | 2.6V | 18:12:15 | 02:24:26 | 00:00:00 | |
| DL1XH-west | 2026-09-04 01:45:00 | 51.84299 | 7.19834 | 99° | 40km/h | 35870m | 4.5m/s | -34.2°C | 0% | 5.3hPa | 2.5V | 18:12:15 | 02:24:23 | 00:00:00 | |
| DF8AY | 2026-09-04 01:44:58 | 51.84302 | 7.19780 | 90° | 7km/h | 35835m | 4.5m/s | -34.2°C | 0% | 5.3hPa | 2.5V | 18:12:15 | 02:24:16 | 00:00:00 | |
| AA1-15 | 2026-09-04 01:44:58 | 51.84301 | 7.19805 | 95° | 29km/h | 35861m | 5.4m/s | -34.2°C | 0% | 5.3hPa | 2.5V | 18:12:15 | 02:24:21 | 00:00:00 | |
| DO2JMG | 2026-09-04 01:44:57 | 51.84301 | 7.19795 | 95° | 20km/h | 35855m | 5.9m/s | -34.2°C | 0% | 5.3hPa | 2.5V | 18:12:15 | 02:24:20 | 00:00:00 | |
| BIOWL9-15 | 2026-09-04 01:44:55 | 51.84302 | 7.19782 | 96° | 4km/h | 35840m | 4.6m/s | -34.2°C | 0.4% | 5.4hPa | 2.6V | 00:00:00 | 00:00:00 | 00:00:00 | |
| DL1XH-15 | 2026-09-04 01:44:54 | 51.84303 | 7.19750 | 94° | 31km/h | 35813m | 5.5m/s | -34.1°C | 1.8% | 5.4hPa | 2.6V | 08:30:00 | 02:24:12 | 00:00:00 | |
| BIOWL1-15 | 2026-09-04 01:44:52 | 51.84303 | 7.19737 | 98° | 33km/h | 35808m | 5m/s | -34.1°C | 0% | 5.4hPa | 2.6V | 18:12:15 | 02:24:11 | 00:00:00 | |
| DL1XH-west | 2026-09-04 01:44:50 | 51.84302 | 7.19761 | 92° | 26km/h | 35818m | 5.8m/s | -34.1°C | 0% | 5.4hPa | 2.5V | 18:12:15 | 02:24:13 | 00:00:00 | |
| AA1-15 | 2026-09-04 01:44:47 | 51.84305 | 7.19723 | 102° | 33km/h | 35803m | 4.8m/s | -34.1°C | 0% | 5.4hPa | 2.6V | 18:12:15 | 02:24:10 | 00:00:00 | |
| DO2JMG | 2026-09-04 01:44:46 | 51.84307 | 7.19711 | 108° | 29km/h | 35798m | 5.3m/s | -34.1°C | 0% | 5.4hPa | 2.5V | 18:12:15 | 02:24:09 | 00:00:00 | |
| DL1XH-15 | 2026-09-04 01:44:44 | 51.84318 | 7.19663 | 83° | 18km/h | 35760m | 5.4m/s | -34.1°C | 1.8% | 5.4hPa | 2.5V | 08:30:00 | 02:24:02 | 00:00:00 | |
| BIOWL1-15 | 2026-09-04 01:44:42 | 51.84317 | 7.19681 | 120° | 15km/h | 35777m | 4.7m/s | -34.1°C | 0% | 5.4hPa | 2.6V | 18:12:15 | 02:24:05 | 00:00:00 | |
| DL1XH-west | 2026-09-04 01:44:40 | 51.84318 | 7.19670 | 92° | 16km/h | 35766m | 5.9m/s | -34.1°C | 0% | 5.4hPa | 2.6V | 18:12:15 | 02:24:03 | 00:00:00 | |
| DO2JMG | 2026-09-04 01:44:36 | 51.84316 | 7.19638 | 82° | 20km/h | 35745m | 5.4m/s | -34.1°C | 0% | 5.4hPa | 2.6V | 18:12:15 | 02:23:59 | 00:00:00 | |
| HSKMA3-T | 2026-09-04 01:44:35 | 51.84315 | 7.19631 | 89° | 18km/h | 35740m | 5.6m/s | -34.1°C | 0% | 5.4hPa | 2.6V | 18:12:15 | 02:23:58 | 00:00:00 | |
| BIOWL1-15 | 2026-09-04 01:44:32 | 51.84319 | 7.19610 | 114° | 20km/h | 35725m | 4.5m/s | -34.1°C | 0% | 5.5hPa | 2.5V | 18:12:15 | 02:23:55 | 00:00:00 | |
| DL1XH-west | 2026-09-04 01:44:29 | 51.84325 | 7.19580 | 105° | 31km/h | 35709m | 5.7m/s | -34.1°C | 0% | 5.5hPa | 2.6V | 18:12:15 | 02:23:52 | 00:00:00 | |
| AA1-15 | 2026-09-04 01:44:26 | 51.84330 | 7.19546 | 105° | 24km/h | 35695m | 4.4m/s | -34.1°C | 0% | 5.5hPa | 2.5V | 18:12:15 | 02:23:49 | 00:00:00 | |
| DO2JMG | 2026-09-04 01:44:25 | 51.84332 | 7.19538 | 110° | 16km/h | 35690m | 5.3m/s | -34.1°C | 0% | 5.5hPa | 2.5V | 18:12:15 | 02:23:48 | 00:00:00 | |
| HSKMA3-T | 2026-09-04 01:44:24 | 51.84333 | 7.19533 | 124° | 11km/h | 35684m | 6.2m/s | -34.1°C | 0% | 5.5hPa | 2.6V | 18:12:15 | 02:23:47 | 00:00:00 | |
| BIOWL1-15 | 2026-09-04 01:44:22 | 51.84337 | 7.19529 | 141° | 5km/h | 35669m | 3.4m/s | -34.2°C | 0% | 5.5hPa | 2.5V | 18:12:15 | 02:23:44 | 00:00:00 | |
| DL1XH-west | 2026-09-04 01:44:19 | 51.84338 | 7.19521 | 91° | 18km/h | 35662m | 5.3m/s | -34.2°C | 0% | 5.5hPa | 2.5V | 18:12:15 | 02:23:42 | 00:00:00 | |
| DL4BBY-15 | 2026-09-04 01:44:19 | 51.84338 | 7.19521 | 92° | 24km/h | 35662m | 5.3m/s | -34.2°C | 0% | 0hPa | 2.5V | 00:00:00 | 00:00:00 | 00:00:00 | |
| EDDB2-11 | 2026-09-04 01:44:18 | 51.84338 | 7.19499 | 85° | 37km/h | 35650m | 6.0m/s | -34.2°C | 0.4% | 5.5hPa | 2.5V | 00:00:00 | 00:00:00 | 00:00:00 | |
| GOEST3-10 | 2026-09-04 01:44:17 | 51.84338 | 7.19499 | 86° | 38km/h | 35650m | 5.9m/s | -34.2°C | 1.7% | 5.5hPa | 2.5V | 00:00:00 | 02:23:40 | 00:00:00 | |
| DM0DOS-11 | 2026-09-04 01:44:16 | 51.84339 | 7.19418 | 121° | 13km/h | 35620m | 5.3m/s | -34.4°C | 1.8% | 5.5hPa | 2.5V | 08:30:00 | 02:23:34 | 00:00:00 | |
| AA1-15 | 2026-09-04 01:44:16 | 51.84337 | 7.19483 | 86° | 42km/h | 35644m | 4.8m/s | -34.2°C | 0% | 5.5hPa | 2.6V | 18:12:15 | 02:23:39 | 00:00:00 | |
| DF8AY | 2026-09-04 01:44:15 | 51.84336 | 7.19466 | 88° | 42km/h | 35640m | 4.1m/s | -34.3°C | 0% | 5.5hPa | 2.6V | 18:12:15 | 02:23:38 | 00:00:00 | |
| DL1XH-15 | 2026-09-04 01:44:14 | 51.84343 | 7.19414 | 156° | 5km/h | 35612m | 3.6m/s | -34.5°C | 1.8% | 5.5hPa | 2.6V | 08:30:00 | 02:23:32 | 00:00:00 | |
| DO2JMG | 2026-09-04 01:44:14 | 51.84336 | 7.19449 | 90° | 38km/h | 35636m | 3.9m/s | -34.3°C | 0% | 5.5hPa | 2.5V | 18:12:15 | 02:23:37 | 00:00:00 | |
| HSKMA3-T | 2026-09-04 01:44:13 | 51.84337 | 7.19435 | 95° | 31km/h | 35631m | 5m/s | -34.3°C | 0% | 5.5hPa | 2.5V | 18:12:15 | 02:23:36 | 00:00:00 | |
| BIOWL1-15 | 2026-09-04 01:44:11 | 51.84339 | 7.19418 | 122° | 13km/h | 35620m | 5.4m/s | -34.4°C | 0% | 5.5hPa | 2.5V | 18:12:15 | 02:23:34 | 00:00:00 | |
| DL1XH-west | 2026-09-04 01:44:08 | 51.84344 | 7.19412 | 115° | 5km/h | 35608m | 3.2m/s | -34.6°C | 0% | 5.5hPa | 2.6V | 18:12:15 | 02:23:31 | 00:00:00 | |
| AA1-15 | 2026-09-04 01:44:05 | 51.84341 | 7.19391 | 76° | 33km/h | 35593m | 6.1m/s | -34.7°C | 0% | 5.6hPa | 2.5V | 18:12:15 | 02:23:28 | 00:00:00 | |
| DF8AY | 2026-09-04 01:44:04 | 51.84339 | 7.19376 | 77° | 44km/h | 35587m | 6m/s | -34.8°C | 0% | 5.6hPa | 2.5V | 18:12:15 | 02:23:27 | 00:00:00 | |
| DO2JMG | 2026-09-04 01:44:03 | 51.84337 | 7.19357 | 80° | 49km/h | 35582m | 4.8m/s | -34.8°C | 0% | 5.6hPa | 2.6V | 18:12:15 | 02:23:26 | 00:00:00 | |
| HSKMA3-T | 2026-09-04 01:44:02 | 51.84335 | 7.19337 | 83° | 49km/h | 35577m | 3.6m/s | -34.8°C | 0% | 5.6hPa | 2.6V | 18:12:15 | 02:23:25 | 00:00:00 | |
| DM0DOS-11 | 2026-09-04 01:44:01 | 51.84334 | 7.19318 | 87° | 44km/h | 35574m | 3.4m/s | -34.8°C | 1.8% | 5.6hPa | 2.6V | 08:30:00 | 02:23:24 | 00:00:00 | |
| BIOWL1-15 | 2026-09-04 01:44:01 | 51.84334 | 7.19318 | 88° | 46km/h | 35574m | 3.4m/s | -34.8°C | 0% | 5.6hPa | 2.6V | 18:12:15 | 02:23:24 | 00:00:00 | |
| DL1XH-west | 2026-09-04 01:43:58 | 51.84337 | 7.19281 | 121° | 16km/h | 35559m | 5.7m/s | -34.9°C | 0% | 5.6hPa | 2.5V | 18:12:15 | 02:23:21 | 00:00:00 | |
| AA1-15 | 2026-09-04 01:43:54 | 51.84340 | 7.19275 | 25° | 7km/h | 35539m | 5.1m/s | -34.9°C | 0% | 5.6hPa | 2.6V | 18:12:15 | 02:23:17 | 00:00:00 | |
| HSKMA3-T | 2026-09-04 01:43:52 | 51.84334 | 7.19267 | 40° | 26km/h | 35529m | 5m/s | -34.9°C | 0% | 5.6hPa | 2.5V | 18:12:15 | 02:23:15 | 00:00:00 | |
| DM0DOS-11 | 2026-09-04 01:43:51 | 51.84328 | 7.19259 | 45° | 31km/h | 35524m | 4.9m/s | -34.9°C | 1.8% | 5.6hPa | 2.5V | 08:30:00 | 02:23:14 | 00:00:00 | |
| BIOWL1-15 | 2026-09-04 01:43:50 | 51.84323 | 7.19249 | 51° | 35km/h | 35519m | 5m/s | -34.9°C | 0% | 5.6hPa | 2.6V | 18:12:15 | 02:23:13 | 00:00:00 | |
| DL1XH-west | 2026-09-04 01:43:48 | 51.84313 | 7.19226 | 64° | 33km/h | 35509m | 5.1m/s | -34.9°C | 0% | 5.6hPa | 2.5V | 18:12:15 | 02:23:11 | 00:00:00 | |
| EDDB2-11 | 2026-09-04 01:43:47 | 51.84309 | 7.19203 | 83° | 24km/h | 35500m | 4.6m/s | -35.0°C | 0.4% | 5.6hPa | 2.5V | 00:00:00 | 00:00:00 | 00:00:00 | |
| DM0DOS-11 | 2026-09-04 01:43:44 | 51.84312 | 7.19162 | 96° | 16km/h | 35474m | 4.7m/s | -35°C | 1.8% | 5.6hPa | 2.5V | 08:30:00 | 02:23:04 | 00:00:00 | |
| AA1-15 | 2026-09-04 01:43:44 | 51.84310 | 7.19184 | 100° | 20km/h | 35490m | 4.8m/s | -35°C | 0% | 5.7hPa | 2.6V | 18:12:15 | 02:23:07 | 00:00:00 | |
| DF8AY | 2026-09-04 01:43:43 | 51.84310 | 7.19176 | 101° | 20km/h | 35485m | 5.4m/s | -35°C | 0% | 5.6hPa | 2.6V | 18:12:15 | 02:23:06 | 00:00:00 | |
| DO2JMG | 2026-09-04 01:43:42 | 51.84311 | 7.19169 | 100° | 18km/h | 35480m | 5.3m/s | -35°C | 0% | 5.6hPa | 2.5V | 18:12:15 | 02:23:05 | 00:00:00 | |
| HSKMA3-T | 2026-09-04 01:43:41 | 51.84312 | 7.19162 | 97° | 16km/h | 35474m | 4.7m/s | -35°C | 0% | 5.6hPa | 2.5V | 18:12:15 | 02:23:04 | 00:00:00 | |
| BIOWL1-15 | 2026-09-04 01:43:39 | 51.84313 | 7.19151 | 91° | 11km/h | 35466m | 4.7m/s | -35°C | 0% | 5.7hPa | 2.5V | 18:12:15 | 02:23:02 | 00:00:00 | |
| DL1XH-west | 2026-09-04 01:43:38 | 51.84313 | 7.19147 | 90° | 7km/h | 35460m | 5.6m/s | -35°C | 0% | 5.7hPa | 2.6V | 18:12:15 | 02:23:01 | 00:00:00 | |
| GOEST3-10 | 2026-09-04 01:43:37 | 51.84312 | 7.19144 | 91° | 11km/h | 35455m | 5.7m/s | -34.9°C | 1.8% | 5.6hPa | 2.6V | 00:00:00 | 02:23:00 | 00:00:00 | |
| DD1CC1-15 | 2026-09-04 01:43:36 | 51.84312 | 7.19144 | 92° | 5km/h | 35455m | 5.7m/s | -35.0°C | 0.4% | 5.7hPa | 2.6V | 00:00:00 | 00:00:00 | 00:00:00 | |
| AU51GT2 | 2026-09-04 01:43:35 | 51.84311 | 7.19136 | 62° | 13km/h | 35441m | 4.3m/s | -35.0°C | 0.4% | 5.7hPa | 2.6V | 00:00:00 | 00:00:00 | 00:00:00 | |
| DM0DOS-11 | 2026-09-04 01:43:34 | 51.84303 | 7.19113 | 63° | 27km/h | 35424m | 4.7m/s | -35°C | 1.8% | 5.7hPa | 2.6V | 08:30:00 | 02:22:54 | 00:00:00 | |
| DL1XH-15 | 2026-09-04 01:43:34 | 51.84298 | 7.19094 | 73° | 20km/h | 35417m | 3.5m/s | -34.9°C | 1.8% | 5.7hPa | 2.6V | 08:30:00 | 02:22:52 | 00:00:00 | |
| AA1-15 | 2026-09-04 01:43:33 | 51.84309 | 7.19130 | 62° | 18km/h | 35435m | 5.7m/s | -35°C | 0% | 5.7hPa | 2.5V | 18:12:15 | 02:22:56 | 00:00:00 | |
| DO2JMG | 2026-09-04 01:43:32 | 51.84306 | 7.19122 | 61° | 26km/h | 35430m | 5.9m/s | -35°C | 0% | 5.7hPa | 2.5V | 18:12:15 | 02:22:55 | 00:00:00 | |
| HSKMA3-T | 2026-09-04 01:43:30 | 51.84300 | 7.19103 | 67° | 26km/h | 35420m | 3.5m/s | -35°C | 0% | 5.7hPa | 2.6V | 18:12:15 | 02:22:53 | 00:00:00 | |
| BIOWL1-15 | 2026-09-04 01:43:28 | 51.84314 | 7.19085 | 188° | 16km/h | 35388m | 3m/s | -34.9°C | 0% | 5.7hPa | 2.6V | 18:12:15 | 02:22:46 | 00:00:00 | |
| DL1XH-west | 2026-09-04 01:43:27 | 51.84298 | 7.19082 | 134° | 11km/h | 35407m | 6.2m/s | -34.9°C | 0% | 5.7hPa | 2.5V | 18:12:15 | 02:22:50 | 00:00:00 | |
| GOEST3-10 | 2026-09-04 01:43:27 | 51.84298 | 7.19082 | 134° | 16km/h | 35407m | 6.2m/s | -34.9°C | 1.8% | 5.7hPa | 2.5V | 00:00:00 | 02:22:50 | 00:00:00 | |
| DL1XH-15 | 2026-09-04 01:43:24 | 51.84319 | 7.19066 | 73° | 29km/h | 35367m | 6m/s | -35°C | 1.8% | 5.7hPa | 2.5V | 08:30:00 | 02:22:42 | 00:00:00 | |
| DO3MHA-11 | 2026-09-04 01:43:24 | 51.84310 | 7.19084 | 196° | 22km/h | 35392m | 3.5m/s | -34.9°C | 1.8% | 5.7hPa | 2.5V | 00:00:00 | 02:22:47 | 00:00:00 | |
| DM0DOS-11 | 2026-09-04 01:43:23 | 51.84320 | 7.19082 | 114° | 13km/h | 35379m | 5.8m/s | -35°C | 1.8% | 5.7hPa | 2.5V | 08:30:00 | 02:22:44 | 00:00:00 | |
| AA1-15 | 2026-09-04 01:43:22 | 51.84318 | 7.19085 | 161° | 13km/h | 35384m | 3.9m/s | -35°C | 0% | 5.7hPa | 2.6V | 18:12:15 | 02:22:45 | 00:00:00 | |
| DO2JMG | 2026-09-04 01:43:21 | 51.84320 | 7.19082 | 114° | 13km/h | 35379m | 5.8m/s | -35°C | 0% | 5.8hPa | 2.5V | 18:12:15 | 02:22:44 | 00:00:00 | |
| HSKMA3-T | 2026-09-04 01:43:19 | 51.84319 | 7.19066 | 73° | 29km/h | 35367m | 6m/s | -35.1°C | 0% | 5.7hPa | 2.5V | 18:12:15 | 02:22:42 | 00:00:00 | |
| BIOWL1-15 | 2026-09-04 01:43:18 | 51.84316 | 7.19054 | 71° | 33km/h | 35362m | 4.4m/s | -35°C | 0% | 5.7hPa | 2.5V | 18:12:15 | 02:22:41 | 00:00:00 | |
| DO1YAY-16 | 2026-09-04 01:43:18 | 51.84316 | 7.19054 | 70° | 33km/h | 35362m | 4.4m/s | -35.0°C | 0.4% | 5.7hPa | 2.6V | 00:00:00 | 00:00:00 | 00:00:00 | |
| GOEST3-10 | 2026-09-04 01:43:17 | 51.84314 | 7.19042 | 73° | 20km/h | 35358m | 2.9m/s | -35.0°C | 1.8% | 5.7hPa | 2.6V | 00:00:00 | 02:22:40 | 00:00:00 | |
| DL1XH-west | 2026-09-04 01:43:17 | 51.84314 | 7.19042 | 73° | 31km/h | 35358m | 3m/s | -35°C | 0% | 5.8hPa | 2.6V | 18:12:15 | 02:22:40 | 00:00:00 | |
| DL8DAS-15 | 2026-09-04 01:43:16 | 51.84312 | 7.19031 | 82° | 24km/h | 35355m | 2.9m/s | -35.0°C | 0.4% | 5.7hPa | 2.6V | 00:00:00 | 00:00:00 | 00:00:00 | |
| DL8OAI-8 | 2026-09-04 01:43:15 | 51.84312 | 7.19031 | 82° | 24km/h | 35355m | 2.9m/s | -35.0°C | 0.4% | 5.7hPa | 2.6V | 00:00:00 | 00:00:00 | 00:00:00 | |
| DL1XH-15 | 2026-09-04 01:43:14 | 51.84343 | 7.19040 | 206° | 24km/h | 35319m | 4.5m/s | -35.1°C | 1.8% | 5.8hPa | 2.6V | 08:30:00 | 02:22:32 | 00:00:00 | |
| AA1-15 | 2026-09-04 01:43:11 | 51.84330 | 7.19028 | 211° | 33km/h | 35328m | 4.8m/s | -35.1°C | 0% | 5.8hPa | 2.5V | 18:12:15 | 02:22:34 | 00:00:00 | |
| HSKMA3-T | 2026-09-04 01:43:09 | 51.84343 | 7.19040 | 206° | 24km/h | 35319m | 4.5m/s | -35.2°C | 0% | 5.8hPa | 2.6V | 18:12:15 | 02:22:32 | 00:00:00 | |
| BIOWL1-15 | 2026-09-04 01:43:08 | 51.84347 | 7.19042 | 196° | 15km/h | 35314m | 4.9m/s | -35.2°C | 0% | 5.8hPa | 2.6V | 18:12:15 | 02:22:31 | 00:00:00 | |
| DL1XH-west | 2026-09-04 01:43:06 | 51.84351 | 7.19041 | 98° | 7km/h | 35304m | 5.2m/s | -35.2°C | 0% | 5.8hPa | 2.5V | 18:12:15 | 02:22:29 | 00:00:00 | |
| DL1XH-15 | 2026-09-04 01:43:04 | 51.84353 | 7.19011 | 155° | 15km/h | 35267m | 5.1m/s | -35.2°C | 1.9% | 5.8hPa | 2.5V | 08:30:00 | 02:22:22 | 00:00:00 | |
| DO2JMG | 2026-09-04 01:43:01 | 51.84348 | 7.19017 | 114° | 9km/h | 35277m | 4.8m/s | -35.2°C | 0% | 5.8hPa | 2.6V | 18:12:15 | 02:22:24 | 00:00:00 | |
| DF8AY | 2026-09-04 01:43:00 | 51.84350 | 7.19014 | 140° | 11km/h | 35273m | 4.8m/s | -35.2°C | 0% | 5.8hPa | 2.5V | 18:12:15 | 02:22:23 | 00:00:00 | |
| BIOWL1-15 | 2026-09-04 01:42:59 | 51.84362 | 7.19006 | 169° | 22km/h | 35256m | 5.5m/s | -35.3°C | 0% | 5.8hPa | 2.5V | 18:12:15 | 02:22:20 | 00:00:00 | |
| HSKMA3-T | 2026-09-04 01:42:59 | 51.84353 | 7.19011 | 156° | 15km/h | 35268m | 5.1m/s | -35.2°C | 0% | 5.8hPa | 2.5V | 18:12:15 | 02:22:22 | 00:00:00 | |
| DL1XH-west | 2026-09-04 01:42:55 | 51.84373 | 7.19006 | 188° | 22km/h | 35246m | 4.6m/s | -35.3°C | 0% | 5.8hPa | 2.6V | 18:12:15 | 02:22:18 | 00:00:00 | |
| DO8TBO-1 | 2026-09-04 01:42:55 | 51.84373 | 7.19006 | 189° | 20km/h | 35247m | 4.5m/s | -35.2°C | 1.9% | 5.8hPa | 2.6V | 00:00:00 | 02:22:18 | 00:00:00 | |
| DL1XH-15 | 2026-09-04 01:42:54 | 51.84395 | 7.19030 | 166° | 4km/h | 35217m | 4.3m/s | -35.2°C | 1.9% | 5.9hPa | 2.6V | 08:30:00 | 02:22:12 | 00:00:00 | |
| AA1-15 | 2026-09-04 01:42:51 | 51.84391 | 7.19024 | 230° | 18km/h | 35225m | 4.4m/s | -35.2°C | 0% | 5.9hPa | 2.5V | 18:12:15 | 02:22:14 | 00:00:00 | |
| DO2JMG | 2026-09-04 01:42:50 | 51.84393 | 7.19028 | 227° | 11km/h | 35221m | 3.9m/s | -35.2°C | 0% | 5.9hPa | 2.5V | 18:12:15 | 02:22:13 | 00:00:00 | |
| DF8AY | 2026-09-04 01:42:49 | 51.84395 | 7.19030 | 166° | 4km/h | 35217m | 4.3m/s | -35.2°C | 0% | 5.9hPa | 2.6V | 18:12:15 | 02:22:12 | 00:00:00 | |
| HSKMA3-T | 2026-09-04 01:42:48 | 51.84396 | 7.19027 | 104° | 11km/h | 35212m | 6.4m/s | -35.2°C | 0% | 5.9hPa | 2.6V | 18:12:15 | 02:22:11 | 00:00:00 | |
| DO1YAY-16 | 2026-09-04 01:42:47 | 51.84396 | 7.19021 | 96° | 20km/h | 35205m | 7.1m/s | -35.2°C | 0.4% | 5.9hPa | 2.6V | 00:00:00 | 00:00:00 | 00:00:00 | |
| DM0DOS-11 | 2026-09-04 01:42:46 | 51.84420 | 7.18974 | 194° | 27km/h | 35174m | 7m/s | -35.3°C | 1.9% | 5.9hPa | 2.6V | 08:30:00 | 02:22:04 | 00:00:00 | |
| DL1XH-west | 2026-09-04 01:42:45 | 51.84399 | 7.18999 | 108° | 33km/h | 35193m | 4.3m/s | -35.2°C | 0% | 5.9hPa | 2.5V | 18:12:15 | 02:22:08 | 00:00:00 | |
| EDDB2-11 | 2026-09-04 01:42:45 | 51.84403 | 7.18987 | 121° | 29km/h | 35189m | 3.3m/s | -35.2°C | 0.4% | 5.9hPa | 2.6V | 00:00:00 | 00:00:00 | 00:00:00 | |
| AA1-15 | 2026-09-04 01:42:40 | 51.84426 | 7.18979 | 216° | 31km/h | 35167m | 6.4m/s | -35.3°C | 0% | 5.9hPa | 2.6V | 18:12:15 | 02:22:03 | 00:00:00 | |
| DO2JMG | 2026-09-04 01:42:39 | 51.84432 | 7.18988 | 231° | 33km/h | 35161m | 5.2m/s | -35.3°C | 0% | 5.9hPa | 2.5V | 18:12:15 | 02:22:02 | 00:00:00 | |
| HSKMA3-T | 2026-09-04 01:42:38 | 51.84437 | 7.18999 | 242° | 31km/h | 35157m | 4.2m/s | -35.3°C | 0% | 5.9hPa | 2.5V | 18:12:15 | 02:22:01 | 00:00:00 | |
| DF8AY | 2026-09-04 01:42:35 | 51.84441 | 7.19017 | 48° | 4km/h | 35143m | 5.4m/s | -35.3°C | 0% | 5.9hPa | 2.6V | 18:12:15 | 02:21:58 | 00:00:00 | |
| DL1XH-west | 2026-09-04 01:42:34 | 51.84440 | 7.19013 | 80° | 15km/h | 35138m | 6.4m/s | -35.3°C | 0% | 5.9hPa | 2.6V | 18:12:15 | 02:21:57 | 00:00:00 | |
| DO9LL-15 | 2026-09-04 01:42:34 | 51.84440 | 7.19013 | 80° | 16km/h | 35138m | 6.4m/s | -35.3°C | 1.8% | 5.9hPa | 2.5V | 00:00:00 | 02:21:57 | 00:00:00 | |
| DM0DOS-11 | 2026-09-04 01:42:33 | 51.84441 | 7.18981 | 105° | 33km/h | 35119m | 5.1m/s | -35.5°C | 1.8% | 6hPa | 2.5V | 08:30:00 | 02:21:54 | 00:00:00 | |
| AA1-15 | 2026-09-04 01:42:30 | 51.84444 | 7.18969 | 115° | 29km/h | 35114m | 4.7m/s | -35.5°C | 0% | 5.9hPa | 2.5V | 18:12:15 | 02:21:53 | 00:00:00 | |
| DO2JMG | 2026-09-04 01:42:29 | 51.84447 | 7.18960 | 127° | 22km/h | 35109m | 5.1m/s | -35.6°C | 0% | 6hPa | 2.5V | 18:12:15 | 02:21:52 | 00:00:00 | |
| HSKMA3-T | 2026-09-04 01:42:27 | 51.84453 | 7.18954 | 194° | 11km/h | 35098m | 6.2m/s | -35.6°C | 0% | 6hPa | 2.6V | 18:12:15 | 02:21:50 | 00:00:00 | |
| SP3BTT-10 | 2026-09-04 01:42:26 | 51.84455 | 7.18956 | 236° | 15km/h | 35092m | 6.4m/s | -35.6°C | 1.9% | 5.9hPa | 2.6V | 00:00:00 | 00:00:00 | 00:00:00 | |
| DO8TBO-1 | 2026-09-04 01:42:25 | 51.84457 | 7.18962 | 258° | 15km/h | 35086m | 6.5m/s | -35.6°C | 1.9% | 5.9hPa | 2.6V | 00:00:00 | 02:21:48 | 00:00:00 | |
| DL1XH-15 | 2026-09-04 01:42:24 | 51.84457 | 7.18981 | 140° | 7km/h | 35053m | 6.2m/s | -35.9°C | 1.9% | 6hPa | 2.6V | 08:30:00 | 02:21:42 | 00:00:00 | |
| BIOWL1-15 | 2026-09-04 01:42:24 | 51.84457 | 7.18968 | 270° | 16km/h | 35079m | 5.8m/s | -35.7°C | 0% | 6hPa | 2.5V | 18:12:15 | 02:21:47 | 00:00:00 | |
| DM0DOS-11 | 2026-09-04 01:42:23 | 51.84456 | 7.18981 | 280° | 4km/h | 35064m | 4.7m/s | -35.8°C | 1.9% | 6hPa | 2.6V | 08:30:00 | 02:21:44 | 00:00:00 | |
| DL1XH-west | 2026-09-04 01:42:23 | 51.84457 | 7.18974 | 279° | 13km/h | 35074m | 5.2m/s | -35.7°C | 0% | 6hPa | 2.5V | 18:12:15 | 02:21:46 | 00:00:00 | |
| DF8AY | 2026-09-04 01:42:20 | 51.84456 | 7.18982 | 156° | 2km/h | 35059m | 5.2m/s | -35.8°C | 0% | 6hPa | 2.6V | 18:12:15 | 02:21:43 | 00:00:00 | |
| AA1-15 | 2026-09-04 01:42:19 | 51.84457 | 7.18981 | 140° | 7km/h | 35053m | 6.2m/s | -35.9°C | 0% | 6hPa | 2.6V | 18:12:15 | 02:21:42 | 00:00:00 | |
| DO2JMG | 2026-09-04 01:42:18 | 51.84459 | 7.18979 | 139° | 11km/h | 35047m | 6.6m/s | -36°C | 0% | 6hPa | 2.5V | 18:12:15 | 02:21:41 | 00:00:00 | |
| HSKMA3-T | 2026-09-04 01:42:17 | 51.84461 | 7.18975 | 134° | 15km/h | 35040m | 5.9m/s | -36°C | 0% | 6hPa | 2.5V | 18:12:15 | 02:21:40 | 00:00:00 | |
| BIOWL1-15 | 2026-09-04 01:42:13 | 51.84466 | 7.18952 | 82° | 18km/h | 35019m | 6.4m/s | -36.1°C | 0% | 6hPa | 2.6V | 18:12:15 | 02:21:36 | 00:00:00 | |
| DL1XH-west | 2026-09-04 01:42:12 | 51.84465 | 7.18945 | 66° | 18km/h | 35012m | 6.2m/s | -36.1°C | 0% | 6hPa | 2.6V | 18:12:15 | 02:21:35 | 00:00:00 | |
| DF8AY | 2026-09-04 01:42:10 | 51.84460 | 7.18934 | 31° | 13km/h | 35002m | 4.7m/s | -36.1°C | 0% | 6.1hPa | 2.5V | 18:12:15 | 02:21:33 | 00:00:00 | |
| AA1-15 | 2026-09-04 01:42:09 | 51.84457 | 7.18933 | 355° | 9km/h | 34997m | 5.1m/s | -36.1°C | 0% | 6.1hPa | 2.5V | 18:12:15 | 02:21:32 | 00:00:00 | |
| DO2JMG | 2026-09-04 01:42:08 | 51.84456 | 7.18935 | 299° | 9km/h | 34991m | 6.3m/s | -36.1°C | 0% | 6.1hPa | 2.5V | 18:12:15 | 02:21:31 | 00:00:00 | |
| HSKMA3-T | 2026-09-04 01:42:06 | 51.84456 | 7.18945 | 248° | 18km/h | 34977m | 6.3m/s | -36.1°C | 0% | 6.1hPa | 2.6V | 18:12:15 | 02:21:29 | 00:00:00 | |
| BIOWL1-15 | 2026-09-04 01:42:04 | 51.84454 | 7.18899 | 249° | 13km/h | 34902m | 6.5m/s | -35.9°C | 0% | 6.1hPa | 2.6V | 18:12:15 | 02:21:16 | 00:00:00 | |
| DL1XH-15 | 2026-09-04 01:42:04 | 51.84457 | 7.18933 | 68° | 33km/h | 34937m | 5.3m/s | -36°C | 2% | 6.1hPa | 2.6V | 08:30:00 | 02:21:22 | 00:00:00 | |
| DL1XH-west | 2026-09-04 01:42:02 | 51.84463 | 7.18958 | 85° | 7km/h | 34956m | 6.7m/s | -36°C | 0% | 6.1hPa | 2.5V | 18:12:15 | 02:21:25 | 00:00:00 | |
| DF8AY | 2026-09-04 01:41:59 | 51.84451 | 7.18897 | 116° | 7km/h | 34915m | 6.2m/s | -35.9°C | 0% | 6.1hPa | 2.5V | 18:12:15 | 02:21:18 | 00:00:00 | |
| DO2JMG | 2026-09-04 01:41:58 | 51.84454 | 7.18921 | 72° | 31km/h | 34932m | 4.9m/s | -36°C | 0% | 6.1hPa | 2.6V | 18:12:15 | 02:21:21 | 00:00:00 | |
| HSKMA3-T | 2026-09-04 01:41:56 | 51.84451 | 7.18901 | 86° | 16km/h | 34921m | 5.7m/s | -35.9°C | 0% | 6.1hPa | 2.5V | 18:12:15 | 02:21:19 | 00:00:00 | |
| GOEST3-10 | 2026-09-04 01:41:56 | 51.84451 | 7.18901 | 87° | 11km/h | 34921m | 5.7m/s | -35.9°C | 1.9% | 6.1hPa | 2.5V | 00:00:00 | 02:21:19 | 00:00:00 | |
| DO8TBO-1 | 2026-09-04 01:41:55 | 51.84451 | 7.18897 | 116° | 16km/h | 34915m | 6.1m/s | -35.9°C | 1.9% | 6.1hPa | 2.5V | 00:00:00 | 02:21:18 | 08:30:00 | |
| DL1XH-15 | 2026-09-04 01:41:54 | 51.84453 | 7.18923 | 295° | 9km/h | 34879m | 4.7m/s | -35.8°C | 1.9% | 6.2hPa | 2.5V | 08:30:00 | 02:21:12 | 00:00:00 | |
| DM0DOS-11 | 2026-09-04 01:41:53 | 51.84455 | 7.18912 | 272° | 18km/h | 34889m | 6.1m/s | -35.9°C | 2% | 6.2hPa | 2.6V | 08:30:00 | 02:21:14 | 00:00:00 | |
| DL1XH-west | 2026-09-04 01:41:51 | 51.84455 | 7.18912 | 273° | 18km/h | 34889m | 6.1m/s | -35.9°C | 0% | 6.2hPa | 2.6V | 18:12:15 | 02:21:14 | 00:00:00 | |
| AA1-15 | 2026-09-04 01:41:48 | 51.84453 | 7.18925 | 318° | 2km/h | 34874m | 5.2m/s | -35.8°C | 0% | 6.2hPa | 2.5V | 18:12:15 | 02:21:11 | 00:00:00 | |
| DO2JMG | 2026-09-04 01:41:47 | 51.84453 | 7.18924 | 108° | 5km/h | 34868m | 6.2m/s | -35.8°C | 0% | 6.2hPa | 2.5V | 18:12:15 | 02:21:10 | 00:00:00 | |
| HSKMA3-T | 2026-09-04 01:41:45 | 51.84456 | 7.18915 | 123° | 20km/h | 34854m | 7.4m/s | -35.8°C | 0% | 6.2hPa | 2.6V | 18:12:15 | 02:21:08 | 00:00:00 | |
| DO1YAY-16 | 2026-09-04 01:41:45 | 51.84459 | 7.18908 | 124° | 24km/h | 34847m | 6.5m/s | -35.8°C | 0.5% | 6.2hPa | 2.5V | 00:00:00 | 00:00:00 | 00:00:00 | |
| DM0DOS-11 | 2026-09-04 01:41:43 | 51.84467 | 7.18887 | 103° | 13km/h | 34831m | 4.7m/s | -35.7°C | 1.9% | 6.2hPa | 2.5V | 08:30:00 | 02:21:04 | 00:00:00 | |
| DL1XH-west | 2026-09-04 01:41:41 | 51.84467 | 7.18887 | 104° | 13km/h | 34831m | 4.7m/s | -35.7°C | 0% | 6.2hPa | 2.5V | 18:12:15 | 02:21:04 | 00:00:00 | |
| BIOWL1-15 | 2026-09-04 01:41:40 | 51.84466 | 7.18883 | 52° | 9km/h | 34826m | 6.1m/s | -35.7°C | 0% | 6.2hPa | 2.5V | 18:12:15 | 02:21:03 | 00:00:00 | |
| AA1-15 | 2026-09-04 01:41:38 | 51.84460 | 7.18882 | 347° | 20km/h | 34811m | 7.5m/s | -35.7°C | 0% | 6.2hPa | 2.6V | 18:12:15 | 02:21:01 | 00:00:00 | |
| DF8AY | 2026-09-04 01:41:37 | 51.84455 | 7.18885 | 333° | 24km/h | 34805m | 5.5m/s | -35.6°C | 0% | 6.2hPa | 2.6V | 18:12:15 | 02:21:00 | 00:00:00 | |
| DO2JMG | 2026-09-04 01:41:36 | 51.84450 | 7.18890 | 320° | 22km/h | 34800m | 4.4m/s | -35.6°C | 0% | 6.2hPa | 2.5V | 18:12:15 | 02:20:59 | 00:00:00 | |
| HSKMA3-T | 2026-09-04 01:41:34 | 51.84446 | 7.18901 | 260° | 13km/h | 34790m | 6.6m/s | -35.5°C | 0% | 6.2hPa | 2.5V | 18:12:15 | 02:20:57 | 00:00:00 | |
| DL1XH-15 | 2026-09-04 01:41:34 | 51.84474 | 7.18886 | 130° | 35km/h | 34759m | 4.4m/s | -35.5°C | 2% | 6.3hPa | 2.5V | 08:30:00 | 02:20:52 | 00:00:00 | |
| DL3AQ-11 | 2026-09-04 01:41:34 | 51.84448 | 7.18905 | 202° | 15km/h | 34783m | 7.1m/s | -35.5°C | 0.4% | 6.2hPa | 2.6V | 00:00:00 | 00:00:00 | 00:00:00 | |
| DM0DOS-11 | 2026-09-04 01:41:33 | 51.84460 | 7.18902 | 158° | 33km/h | 34769m | 6m/s | -35.5°C | 1.9% | 6.2hPa | 2.6V | 08:30:00 | 02:20:54 | 00:00:00 | |
| DL1XH-west | 2026-09-04 01:41:30 | 51.84467 | 7.18895 | 145° | 37km/h | 34764m | 5m/s | -35.5°C | 0% | 6.3hPa | 2.6V | 18:12:15 | 02:20:53 | 00:00:00 | |
| AA1-15 | 2026-09-04 01:41:27 | 51.84479 | 7.18865 | 88° | 24km/h | 34748m | 6.5m/s | -35.5°C | 0% | 6.3hPa | 2.5V | 18:12:15 | 02:20:50 | 00:00:00 | |
| DO2JMG | 2026-09-04 01:41:26 | 51.84478 | 7.18856 | 52° | 22km/h | 34741m | 6.5m/s | -35.5°C | 0% | 6.3hPa | 2.5V | 18:12:15 | 02:20:49 | 00:00:00 | |
| SP3BTT-10 | 2026-09-04 01:41:26 | 51.84477 | 7.18856 | 53° | 24km/h | 34742m | 6.5m/s | -35.5°C | 1.9% | 6.2hPa | 2.5V | 00:00:00 | 00:00:00 | 08:30:00 | |
| DL8OAI-8 | 2026-09-04 01:41:25 | 51.84477 | 7.18856 | 53° | 22km/h | 34742m | 6.5m/s | -35.5°C | 0.5% | 6.3hPa | 2.5V | 00:00:00 | 00:00:00 | 00:00:00 | |
| DL1XH-15 | 2026-09-04 01:41:24 | 51.84465 | 7.18894 | 215° | 35km/h | 34698m | 6.4m/s | -35.3°C | 1.9% | 6.3hPa | 2.5V | 08:30:00 | 02:20:42 | 00:00:00 | |
| HSKMA3-T | 2026-09-04 01:41:23 | 51.84462 | 7.18855 | 321° | 26km/h | 34723m | 5.6m/s | -35.5°C | 0% | 6.3hPa | 2.6V | 18:12:15 | 02:20:46 | 00:00:00 | |
| DL1XH-west | 2026-09-04 01:41:20 | 51.84459 | 7.18885 | 238° | 31km/h | 34705m | 6.5m/s | -35.4°C | 0% | 6.3hPa | 2.5V | 18:12:15 | 02:20:43 | 00:00:00 | |
| AA1-15 | 2026-09-04 01:41:17 | 51.84482 | 7.18902 | 179° | 35km/h | 34686m | 5.9m/s | -35.3°C | 0% | 6.3hPa | 2.6V | 18:12:15 | 02:20:40 | 00:00:00 | |
| DO2JMG | 2026-09-04 01:41:16 | 51.84490 | 7.18900 | 161° | 33km/h | 34680m | 6m/s | -35.2°C | 0% | 6.3hPa | 2.6V | 18:12:15 | 02:20:39 | 00:00:00 | |
| GOEST3-10 | 2026-09-04 01:41:16 | 51.84490 | 7.18900 | 162° | 22km/h | 34680m | 5.9m/s | -35.2°C | 1.9% | 6.3hPa | 2.6V | 00:00:00 | 02:20:39 | 00:00:00 | |
| SONDE2-11 | 2026-09-04 01:41:15 | 51.84497 | 7.18894 | 141° | 26km/h | 34674m | 6.0m/s | -35.2°C | 0.4% | 6.3hPa | 2.6V | 00:00:00 | 00:00:00 | 00:00:00 | |
| DL1XH-15 | 2026-09-04 01:41:14 | 51.84496 | 7.18879 | 272° | 18km/h | 34637m | 6.7m/s | -35°C | 1.9% | 6.4hPa | 2.6V | 08:30:00 | 02:20:32 | 00:00:00 | |
| HSKMA3-T | 2026-09-04 01:41:12 | 51.84501 | 7.18874 | 58° | 13km/h | 34657m | 5.8m/s | -35.1°C | 0% | 6.4hPa | 2.5V | 18:12:15 | 02:20:35 | 00:00:00 | |
| DL1XH-west | 2026-09-04 01:41:09 | 51.84496 | 7.18879 | 273° | 18km/h | 34637m | 6.7m/s | -35.1°C | 0% | 6.4hPa | 2.6V | 18:12:15 | 02:20:32 | 00:00:00 | |
| DO2JMG | 2026-09-04 01:41:06 | 51.84505 | 7.18909 | 228° | 33km/h | 34619m | 5.7m/s | -35°C | 0% | 6.4hPa | 2.5V | 18:12:15 | 02:20:29 | 00:00:00 | |
| DF8AY | 2026-09-04 01:41:05 | 51.84511 | 7.18918 | 216° | 31km/h | 34613m | 5.5m/s | -35°C | 0% | 6.4hPa | 2.5V | 18:12:15 | 02:20:28 | 00:00:00 | |
| HSKMA3-T | 2026-09-04 01:41:01 | 51.84533 | 7.18920 | 140° | 18km/h | 34587m | 6m/s | -34.9°C | 0% | 6.4hPa | 2.5V | 18:12:15 | 02:20:24 | 00:00:00 | |
| DL1XH-west | 2026-09-04 01:40:59 | 51.84538 | 7.18911 | 137° | 11km/h | 34576m | 4.7m/s | -34.9°C | 0% | 6.5hPa | 2.5V | 18:12:15 | 02:20:22 | 00:00:00 | |
| BIOWL1-15 | 2026-09-04 01:40:56 | 51.84544 | 7.18918 | 246° | 22km/h | 34557m | 7.1m/s | -34.8°C | 0% | 6.5hPa | 2.6V | 18:12:15 | 02:20:19 | 00:00:00 | |
| DO2JMG | 2026-09-04 01:40:55 | 51.84547 | 7.18928 | 246° | 29km/h | 34550m | 6.4m/s | -34.8°C | 0% | 6.5hPa | 2.6V | 18:12:15 | 02:20:18 | 00:00:00 | |
| DF8AY | 2026-09-04 01:40:54 | 51.84550 | 7.18939 | 243° | 33km/h | 34544m | 5.7m/s | -34.8°C | 0% | 6.5hPa | 2.5V | 18:12:15 | 02:20:17 | 00:00:00 | |
| DL3AQ-11 | 2026-09-04 01:40:53 | 51.84554 | 7.18951 | 235° | 33km/h | 34539m | 5.4m/s | -34.8°C | 0.4% | 6.5hPa | 2.5V | 00:00:00 | 00:00:00 | 00:00:00 | |
| DM0DOS-11 | 2026-09-04 01:40:52 | 51.84564 | 7.18968 | 213° | 24km/h | 34527m | 6.4m/s | -34.7°C | 1.8% | 6.5hPa | 2.5V | 08:30:00 | 02:20:14 | 00:00:00 | |
| HSKMA3-T | 2026-09-04 01:40:50 | 51.84569 | 7.18972 | 194° | 22km/h | 34520m | 6.6m/s | -34.7°C | 0% | 6.5hPa | 2.6V | 18:12:15 | 02:20:13 | 00:00:00 | |
| DL1XH-west | 2026-09-04 01:40:48 | 51.84580 | 7.18971 | 166° | 22km/h | 34507m | 6.3m/s | -34.7°C | 0% | 6.5hPa | 2.6V | 18:12:15 | 02:20:11 | 00:00:00 | |
| BIOWL1-15 | 2026-09-04 01:40:46 | 51.84591 | 7.18967 | 174° | 24km/h | 34494m | 6.7m/s | -34.8°C | 0% | 6.5hPa | 2.5V | 18:12:15 | 02:20:09 | 00:00:00 | |
| DO2JMG | 2026-09-04 01:40:45 | 51.84597 | 7.18967 | 184° | 24km/h | 34488m | 6.3m/s | -34.8°C | 0% | 6.5hPa | 2.5V | 18:12:15 | 02:20:08 | 00:00:00 | |
| AA1-15 | 2026-09-04 01:40:44 | 51.84603 | 7.18969 | 195° | 26km/h | 34481m | 6m/s | -34.8°C | 0% | 6.5hPa | 2.5V | 18:12:15 | 02:20:07 | 00:00:00 | |
| DF8AY | 2026-09-04 01:40:43 | 51.84610 | 7.18972 | 201° | 27km/h | 34476m | 5.7m/s | -34.8°C | 0% | 6.5hPa | 2.6V | 18:12:15 | 02:20:06 | 00:00:00 | |
| DB0UT-7 | 2026-09-04 01:40:43 | 51.84610 | 7.18972 | 201° | 33km/h | 34476m | 5.6m/s | -34.7°C | 1.9% | 6.5hPa | 2.6V | 00:00:00 | 02:20:06 | 00:00:00 | |
| DM0DOS-11 | 2026-09-04 01:40:42 | 51.84623 | 7.18981 | 201° | 27km/h | 34464m | 5.9m/s | -34.7°C | 1.8% | 6.5hPa | 2.6V | 08:30:00 | 02:20:04 | 00:00:00 | |
| HSKMA3-T | 2026-09-04 01:40:39 | 51.84636 | 7.18988 | 194° | 24km/h | 34451m | 6.7m/s | -34.7°C | 0% | 6.6hPa | 2.5V | 18:12:15 | 02:20:02 | 00:00:00 | |
| DL1XH-west | 2026-09-04 01:40:38 | 51.84641 | 7.18989 | 187° | 22km/h | 34445m | 6.1m/s | -34.7°C | 0% | 6.6hPa | 2.5V | 18:12:15 | 02:20:01 | 00:00:00 | |
| BIOWL1-15 | 2026-09-04 01:40:38 | 51.84652 | 7.18991 | 190° | 20km/h | 34434m | 5.2m/s | -34.7°C | 0% | 6.6hPa | 2.6V | 18:12:15 | 02:19:59 | 00:00:00 | |
| DO2JMG | 2026-09-04 01:40:34 | 51.84661 | 7.18997 | 213° | 24km/h | 34423m | 6.1m/s | -34.7°C | 0% | 6.6hPa | 2.6V | 18:12:15 | 02:19:57 | 00:00:00 | |
| AA1-15 | 2026-09-04 01:40:33 | 51.84666 | 7.19004 | 221° | 27km/h | 34416m | 6.8m/s | -34.7°C | 0% | 6.6hPa | 2.5V | 18:12:15 | 02:19:56 | 00:00:00 | |
| DB0NH | 2026-09-04 01:40:33 | 51.84666 | 7.19003 | 221° | 37km/h | 34416m | 6.7m/s | -34.7°C | 1.9% | 6.5hPa | 2.5V | 00:00:00 | 02:19:56 | 00:00:00 | |
| DM0DOS-11 | 2026-09-04 01:40:32 | 51.84678 | 7.19020 | 215° | 35km/h | 34404m | 5m/s | -34.7°C | 1.8% | 6.6hPa | 2.5V | 08:30:00 | 02:19:54 | 00:00:00 | |
| DF8AY | 2026-09-04 01:40:32 | 51.84672 | 7.19012 | 222° | 31km/h | 34410m | 6m/s | -34.7°C | 0% | 6.6hPa | 2.5V | 18:12:15 | 02:19:55 | 00:00:00 | |
| BIOWL1-15 | 2026-09-04 01:40:30 | 51.84722 | 7.19025 | 159° | 42km/h | 34374m | 5.8m/s | -34.5°C | 0% | 6.6hPa | 2.5V | 18:12:15 | 02:19:49 | 00:00:00 | |
| HSKMA3-T | 2026-09-04 01:40:29 | 51.84694 | 7.19031 | 193° | 35km/h | 34394m | 6.4m/s | -34.6°C | 0% | 6.6hPa | 2.6V | 18:12:15 | 02:19:52 | 00:00:00 | |
| DL1XH-west | 2026-09-04 01:40:28 | 51.84702 | 7.19033 | 179° | 37km/h | 34387m | 7.1m/s | -34.6°C | 0% | 6.6hPa | 2.6V | 18:12:15 | 02:19:51 | 00:00:00 | |
| DO2JMG | 2026-09-04 01:40:24 | 51.84742 | 7.19013 | 164° | 42km/h | 34364m | 4.7m/s | -34.4°C | 0% | 6.6hPa | 2.5V | 18:12:15 | 02:19:47 | 00:00:00 | |
| AA1-15 | 2026-09-04 01:40:23 | 51.84752 | 7.19010 | 174° | 38km/h | 34358m | 6m/s | -34.4°C | 0% | 6.6hPa | 2.5V | 18:12:15 | 02:19:46 | 00:00:00 | |
| DF8AY | 2026-09-04 01:40:21 | 51.84770 | 7.19014 | 202° | 38km/h | 34345m | 6.9m/s | -34.4°C | 0% | 6.7hPa | 2.6V | 18:12:15 | 02:19:44 | 00:00:00 | |
| HSKMA3-T | 2026-09-04 01:40:19 | 51.84787 | 7.19030 | 215° | 38km/h | 34333m | 5.1m/s | -34.4°C | 0% | 6.7hPa | 2.5V | 18:12:15 | 02:19:42 | 00:00:00 | |
| DL1XH-west | 2026-09-04 01:40:18 | 51.84795 | 7.19038 | 211° | 35km/h | 34328m | 5.3m/s | -34.4°C | 0% | 6.7hPa | 2.5V | 18:12:15 | 02:19:41 | 00:00:00 | |
| DL4BBY-15 | 2026-09-04 01:40:17 | 51.84802 | 7.19043 | 200° | 31km/h | 34322m | 5.7m/s | -34.4°C | 0% | 0hPa | 2.5V | 00:00:00 | 00:00:00 | 00:00:00 | |
| GOEST3-10 | 2026-09-04 01:40:16 | 51.84810 | 7.19046 | 184° | 42km/h | 34317m | 6.2m/s | -34.4°C | 1.8% | 6.6hPa | 2.5V | 00:00:00 | 02:19:39 | 00:00:00 | |
| BIOWL9-15 | 2026-09-04 01:40:15 | 51.84819 | 7.19045 | 169° | 37km/h | 34310m | 6.2m/s | -34.5°C | 0.4% | 6.7hPa | 2.5V | 00:00:00 | 00:00:00 | 00:00:00 | |
| DL1XH-15 | 2026-09-04 01:40:14 | 51.84889 | 7.19020 | 179° | 44km/h | 34275m | 4.5m/s | -34.9°C | 1.8% | 6.7hPa | 2.5V | 08:30:00 | 02:19:32 | 00:00:00 | |
| AA1-15 | 2026-09-04 01:40:13 | 51.84840 | 7.19036 | 161° | 47km/h | 34298m | 6m/s | -34.7°C | 0% | 6.7hPa | 2.6V | 18:12:15 | 02:19:36 | 00:00:00 | |
| DK5PH-5 | 2026-09-04 01:40:13 | 51.84840 | 7.19036 | 162° | 29km/h | 34298m | 6.0m/s | -34.6°C | 1.8% | 6.6hPa | 2.6V | 00:00:00 | 02:19:36 | 08:30:00 | |
| DM0DOS-11 | 2026-09-04 01:40:12 | 51.84865 | 7.19024 | 168° | 51km/h | 34285m | 6m/s | -34.8°C | 1.8% | 6.7hPa | 2.5V | 08:30:00 | 02:19:34 | 00:00:00 | |
| DF8AY | 2026-09-04 01:40:11 | 51.84865 | 7.19024 | 168° | 51km/h | 34285m | 6m/s | -34.8°C | 0% | 6.7hPa | 2.5V | 18:12:15 | 02:19:34 | 00:00:00 | |
| HSKMA3-T | 2026-09-04 01:40:08 | 51.84899 | 7.19021 | 185° | 37km/h | 34270m | 4.7m/s | -34.9°C | 0% | 6.7hPa | 2.6V | 18:12:15 | 02:19:31 | 00:00:00 | |
| DL1XH-west | 2026-09-04 01:40:07 | 51.84907 | 7.19022 | 186° | 29km/h | 34265m | 5.7m/s | -35°C | 0% | 6.8hPa | 2.6V | 18:12:15 | 02:19:30 | 00:00:00 | |
| BIOWL1-15 | 2026-09-04 01:40:05 | 51.84919 | 7.19024 | 181° | 15km/h | 34252m | 7m/s | -35.1°C | 0% | 6.8hPa | 2.5V | 18:12:15 | 02:19:28 | 00:00:00 | |
| DL1XH-15 | 2026-09-04 01:40:04 | 51.84947 | 7.19023 | 182° | 37km/h | 34218m | 5.9m/s | -35.1°C | 1.9% | 6.8hPa | 2.6V | 08:30:00 | 02:19:22 | 00:00:00 | |
| DO2JMG | 2026-09-04 01:40:03 | 51.84925 | 7.19023 | 170° | 11km/h | 34240m | 4.7m/s | -35.1°C | 0% | 6.8hPa | 2.5V | 18:12:15 | 02:19:26 | 00:00:00 | |
| AA1-15 | 2026-09-04 01:40:02 | 51.84928 | 7.19022 | 175° | 16km/h | 34236m | 4.6m/s | -35.1°C | 0% | 6.8hPa | 2.5V | 18:12:15 | 02:19:25 | 00:00:00 | |
| DF8AY | 2026-09-04 01:40:00 | 51.84939 | 7.19022 | 183° | 29km/h | 34224m | 6.5m/s | -35.1°C | 0% | 6.8hPa | 2.6V | 18:12:15 | 02:19:23 | 00:00:00 | |
| HSKMA3-T | 2026-09-04 01:39:58 | 51.84957 | 7.19023 | 179° | 42km/h | 34212m | 5.3m/s | -35.1°C | 0% | 6.8hPa | 2.5V | 18:12:15 | 02:19:21 | 00:00:00 | |
| DL1XH-west | 2026-09-04 01:39:56 | 51.84978 | 7.19019 | 167° | 42km/h | 34202m | 5.8m/s | -35.1°C | 0% | 6.8hPa | 2.5V | 18:12:15 | 02:19:19 | 00:00:00 | |
| GOEST3-10 | 2026-09-04 01:39:55 | 51.84988 | 7.19014 | 159° | 26km/h | 34196m | 5.6m/s | -35.0°C | 1.9% | 6.8hPa | 2.5V | 00:00:00 | 02:19:18 | 00:00:00 | |
| DL1XH-15 | 2026-09-04 01:39:54 | 51.85018 | 7.18997 | 199° | 16km/h | 34163m | 5.2m/s | -35°C | 1.9% | 6.8hPa | 2.5V | 08:30:00 | 02:19:12 | 00:00:00 | |
| BIOWL1-15 | 2026-09-04 01:39:54 | 51.84995 | 7.19009 | 153° | 31km/h | 34191m | 4.9m/s | -35°C | 0% | 6.8hPa | 2.6V | 18:12:15 | 02:19:17 | 00:00:00 | |
| DL8DAS-15 | 2026-09-04 01:39:53 | 51.84995 | 7.19008 | 154° | 31km/h | 34191m | 4.9m/s | -35.0°C | 0.5% | 6.8hPa | 2.5V | 00:00:00 | 00:00:00 | 00:00:00 | |
| DM0DOS-11 | 2026-09-04 01:39:52 | 51.85010 | 7.18996 | 165° | 15km/h | 34174m | 6.2m/s | -35°C | 1.9% | 6.8hPa | 2.5V | 08:30:00 | 02:19:14 | 00:00:00 | |
| DO2JMG | 2026-09-04 01:39:52 | 51.85006 | 7.18999 | 152° | 18km/h | 34181m | 5.4m/s | -35°C | 0% | 6.8hPa | 2.6V | 18:12:15 | 02:19:15 | 00:00:00 | |
| AA1-15 | 2026-09-04 01:39:51 | 51.85010 | 7.18996 | 165° | 15km/h | 34175m | 6.2m/s | -35°C | 0% | 6.8hPa | 2.5V | 18:12:15 | 02:19:14 | 00:00:00 | |
| DF8AY | 2026-09-04 01:39:49 | 51.85018 | 7.18997 | 199° | 16km/h | 34163m | 5.2m/s | -35°C | 0% | 6.8hPa | 2.5V | 18:12:15 | 02:19:12 | 00:00:00 | |
| HSKMA3-T | 2026-09-04 01:39:48 | 51.85022 | 7.18999 | 196° | 20km/h | 34158m | 4.3m/s | -35°C | 0% | 6.9hPa | 2.5V | 18:12:15 | 02:19:11 | 00:00:00 | |
| DL1XH-west | 2026-09-04 01:39:45 | 51.85040 | 7.18998 | 157° | 29km/h | 34143m | 6.6m/s | -35°C | 0% | 6.9hPa | 2.6V | 18:12:15 | 02:19:08 | 00:00:00 | |
| GOEST3-10 | 2026-09-04 01:39:45 | 51.85040 | 7.18997 | 157° | 33km/h | 34143m | 6.5m/s | -34.9°C | 1.9% | 6.8hPa | 2.5V | 00:00:00 | 02:19:08 | 00:00:00 | |
| DL1XH-15 | 2026-09-04 01:39:44 | 51.85081 | 7.18955 | 169° | 27km/h | 34110m | 6.2m/s | -35°C | 1.8% | 6.9hPa | 2.5V | 08:30:00 | 02:19:02 | 00:00:00 | |
| BIOWL1-15 | 2026-09-04 01:39:43 | 51.85082 | 7.18955 | 170° | 27km/h | 34111m | 6.2m/s | -35°C | 0% | 6.9hPa | 2.5V | 18:12:15 | 02:19:02 | 00:00:00 | |
| DB0UT-7 | 2026-09-04 01:39:43 | 51.85053 | 7.18983 | 141° | 20km/h | 34131m | 5.1m/s | -34.9°C | 1.9% | 6.8hPa | 2.6V | 00:00:00 | 02:19:06 | 00:00:00 | |
| DM0DOS-11 | 2026-09-04 01:39:42 | 51.85067 | 7.18965 | 145° | 35km/h | 34121m | 4.3m/s | -35°C | 1.8% | 6.9hPa | 2.6V | 08:30:00 | 02:19:04 | 00:00:00 | |
| DO2JMG | 2026-09-04 01:39:42 | 51.85060 | 7.18974 | 141° | 37km/h | 34126m | 4.3m/s | -35°C | 0% | 6.9hPa | 2.5V | 18:12:15 | 02:19:05 | 00:00:00 | |
| AA1-15 | 2026-09-04 01:39:40 | 51.85075 | 7.18958 | 155° | 31km/h | 34117m | 5.7m/s | -35°C | 0% | 6.9hPa | 2.6V | 18:12:15 | 02:19:03 | 00:00:00 | |
| DF8AY | 2026-09-04 01:39:38 | 51.85088 | 7.18955 | 187° | 26km/h | 34105m | 6.1m/s | -35°C | 0% | 6.9hPa | 2.5V | 18:12:15 | 02:19:01 | 00:00:00 | |
| HSKMA3-T | 2026-09-04 01:39:37 | 51.85094 | 7.18957 | 200° | 26km/h | 34099m | 5.4m/s | -35°C | 0% | 6.9hPa | 2.5V | 18:12:15 | 02:19:00 | 00:00:00 | |
| DL1XH-west | 2026-09-04 01:39:34 | 51.85109 | 7.18964 | 176° | 15km/h | 34084m | 5.8m/s | -35°C | 0% | 6.9hPa | 2.6V | 18:12:15 | 02:18:57 | 00:00:00 | |
| DL3AQ-11 | 2026-09-04 01:39:34 | 51.85112 | 7.18962 | 147° | 15km/h | 34078m | 6.0m/s | -35.1°C | 0.4% | 6.9hPa | 2.5V | 00:00:00 | 00:00:00 | 00:00:00 | |
| DB0NH | 2026-09-04 01:39:33 | 51.85112 | 7.18962 | 148° | 18km/h | 34078m | 5.9m/s | -35.0°C | 1.8% | 6.9hPa | 2.5V | 00:00:00 | 02:18:56 | 00:00:00 | |
| DM0DOS-11 | 2026-09-04 01:39:32 | 51.85118 | 7.18951 | 117° | 22km/h | 34067m | 4.9m/s | -35.1°C | 1.9% | 6.9hPa | 2.5V | 08:30:00 | 02:18:54 | 00:00:00 | |
| BIOWL1-15 | 2026-09-04 01:39:32 | 51.85115 | 7.18957 | 126° | 18km/h | 34072m | 5.2m/s | -35.1°C | 0% | 6.9hPa | 2.5V | 18:12:15 | 02:18:55 | 00:00:00 | |
| DO2JMG | 2026-09-04 01:39:31 | 51.85118 | 7.18950 | 117° | 22km/h | 34067m | 4.9m/s | -35.2°C | 0% | 6.9hPa | 2.5V | 18:12:15 | 02:18:54 | 00:00:00 | |
| AA1-15 | 2026-09-04 01:39:29 | 51.85123 | 7.18936 | 118° | 18km/h | 34057m | 5.9m/s | -35.2°C | 0% | 6.9hPa | 2.5V | 18:12:15 | 02:18:52 | 00:00:00 | |
| DF8AY | 2026-09-04 01:39:28 | 51.85125 | 7.18930 | 127° | 16km/h | 34051m | 5.6m/s | -35.2°C | 0% | 6.9hPa | 2.6V | 18:12:15 | 02:18:51 | 00:00:00 | |
| HSKMA3-T | 2026-09-04 01:39:27 | 51.85128 | 7.18925 | 143° | 15km/h | 34046m | 5.2m/s | -35.3°C | 0% | 6.9hPa | 2.6V | 18:12:15 | 02:18:50 | 00:00:00 | |
| DL1XH-west | 2026-09-04 01:39:24 | 51.85139 | 7.18917 | 155° | 20km/h | 34031m | 5.5m/s | -35.3°C | 0% | 7hPa | 2.5V | 18:12:15 | 02:18:47 | 00:00:00 | |
| DD1CC8 | 2026-09-04 01:39:23 | 51.85143 | 7.18913 | 150° | 22km/h | 34025m | 6.2m/s | -35.3°C | 0.4% | 7.0hPa | 2.6V | 00:00:00 | 00:00:00 | 00:00:00 | |
| DM0DOS-11 | 2026-09-04 01:39:22 | 51.85154 | 7.18902 | 144° | 24km/h | 34014m | 4.6m/s | -35.4°C | 1.9% | 7hPa | 2.6V | 08:30:00 | 02:18:44 | 00:00:00 | |
| BIOWL1-15 | 2026-09-04 01:39:22 | 51.85148 | 7.18908 | 147° | 24km/h | 34019m | 5.4m/s | -35.3°C | 0% | 7hPa | 2.5V | 18:12:15 | 02:18:45 | 00:00:00 | |
| DO2JMG | 2026-09-04 01:39:20 | 51.85158 | 7.18897 | 146° | 22km/h | 34009m | 4.6m/s | -35.3°C | 0% | 7hPa | 2.6V | 18:12:15 | 02:18:43 | 00:00:00 | |
| AA1-15 | 2026-09-04 01:39:18 | 51.85165 | 7.18890 | 160° | 13km/h | 33998m | 6.1m/s | -35.4°C | 0% | 7hPa | 2.5V | 18:12:15 | 02:18:41 | 00:00:00 | |
| HSKMA3-T | 2026-09-04 01:39:17 | 51.85168 | 7.18889 | 179° | 7km/h | 33993m | 5.4m/s | -35.5°C | 0% | 7hPa | 2.5V | 18:12:15 | 02:18:40 | 00:00:00 | |
| DC6BW-12 | 2026-09-04 01:39:17 | 51.85168 | 7.18889 | 180° | 7km/h | 33993m | 5.4m/s | -35.5°C | 0.5% | 7.0hPa | 2.5V | 00:00:00 | 00:00:00 | 00:00:00 | |
| DO3MHA-11 | 2026-09-04 01:39:16 | 51.85169 | 7.18889 | 183° | 7km/h | 33988m | 4.3m/s | -35.4°C | 1.9% | 7.0hPa | 2.5V | 00:00:00 | 02:18:39 | 00:00:00 | |
| GOEST3-10 | 2026-09-04 01:39:15 | 51.85171 | 7.18889 | 150° | 16km/h | 33984m | 3.6m/s | -35.4°C | 1.9% | 7.0hPa | 2.6V | 00:00:00 | 02:18:38 | 00:00:00 | |
| DL1XH-15 | 2026-09-04 01:39:14 | 51.85188 | 7.18851 | 137° | 26km/h | 33952m | 5.8m/s | -35.5°C | 1.9% | 7hPa | 2.6V | 08:30:00 | 02:18:32 | 00:00:00 | |
| BIOWL1-15 | 2026-09-04 01:39:13 | 51.85180 | 7.18867 | 124° | 26km/h | 33962m | 4.9m/s | -35.5°C | 0% | 7hPa | 2.5V | 18:12:15 | 02:18:34 | 00:00:00 | |
| DL1XH-west | 2026-09-04 01:39:13 | 51.85174 | 7.18882 | 120° | 16km/h | 33973m | 6.5m/s | -35.4°C | 0% | 7hPa | 2.5V | 18:12:15 | 02:18:36 | 00:00:00 | |
| DB0UT-7 | 2026-09-04 01:39:13 | 51.85174 | 7.18882 | 121° | 16km/h | 33974m | 6.4m/s | -35.4°C | 1.9% | 7.0hPa | 2.5V | 00:00:00 | 00:00:00 | 00:00:00 | |
| DM0DOS-11 | 2026-09-04 01:39:12 | 51.85180 | 7.18867 | 123° | 26km/h | 33962m | 4.9m/s | -35.5°C | 1.9% | 7hPa | 2.5V | 08:30:00 | 02:18:34 | 00:00:00 | |
| DO2JMG | 2026-09-04 01:39:09 | 51.85188 | 7.18851 | 137° | 26km/h | 33952m | 5.8m/s | -35.5°C | 0% | 7hPa | 2.6V | 18:12:15 | 02:18:32 | 00:00:00 | |
| HSKMA3-T | 2026-09-04 01:39:07 | 51.85198 | 7.18841 | 160° | 20km/h | 33941m | 5m/s | -35.5°C | 0% | 7.1hPa | 2.6V | 18:12:15 | 02:18:30 | 00:00:00 | |
| DO3MHA-11 | 2026-09-04 01:39:06 | 51.85202 | 7.18839 | 166° | 18km/h | 33936m | 4.5m/s | -35.5°C | 1.9% | 7.0hPa | 2.5V | 00:00:00 | 02:18:29 | 00:00:00 | |
| GOEST3-10 | 2026-09-04 01:39:05 | 51.85207 | 7.18837 | 166° | 18km/h | 33932m | 4.9m/s | -35.5°C | 1.9% | 7.0hPa | 2.5V | 00:00:00 | 02:18:28 | 00:00:00 | |
| DL1XH-15 | 2026-09-04 01:39:04 | 51.85230 | 7.18813 | 149° | 15km/h | 33900m | 6m/s | -35.6°C | 1.9% | 7.1hPa | 2.5V | 08:30:00 | 02:18:22 | 00:00:00 | |
| DL1XH-west | 2026-09-04 01:39:03 | 51.85216 | 7.18831 | 148° | 20km/h | 33921m | 5.6m/s | -35.5°C | 0% | 7.1hPa | 2.5V | 18:12:15 | 02:18:26 | 00:00:00 | |
| DB0NH | 2026-09-04 01:39:03 | 51.85216 | 7.18831 | 148° | 15km/h | 33921m | 5.5m/s | -35.5°C | 1.9% | 7.0hPa | 2.6V | 00:00:00 | 02:18:26 | 00:00:00 | |
| DM0DOS-11 | 2026-09-04 01:39:02 | 51.85223 | 7.18821 | 138° | 18km/h | 33911m | 4.4m/s | -35.5°C | 1.9% | 7.1hPa | 2.6V | 08:30:00 | 02:18:24 | 00:00:00 | |
| BIOWL1-15 | 2026-09-04 01:39:01 | 51.85224 | 7.18821 | 139° | 18km/h | 33911m | 4.4m/s | -35.6°C | 0% | 7.1hPa | 2.6V | 18:12:15 | 02:18:24 | 00:00:00 | |
| DO2JMG | 2026-09-04 01:38:58 | 51.85233 | 7.18810 | 161° | 13km/h | 33895m | 5.9m/s | -35.7°C | 0% | 7.1hPa | 2.5V | 18:12:15 | 02:18:21 | 00:00:00 | |
| HSKMA3-T | 2026-09-04 01:38:57 | 51.85236 | 7.18809 | 165° | 13km/h | 33889m | 5m/s | -35.7°C | 0% | 7.1hPa | 2.5V | 18:12:15 | 02:18:20 | 00:00:00 | |
| EDDB2-12 | 2026-09-04 01:38:56 | 51.85242 | 7.18805 | 143° | 11km/h | 33880m | 5.4m/s | -35.7°C | 0.4% | 7.1hPa | 2.6V | 00:00:00 | 00:00:00 | 00:00:00 | |
| GOEST3-10 | 2026-09-04 01:38:55 | 51.85242 | 7.18805 | 144° | 15km/h | 33880m | 5.3m/s | -35.6°C | 1.9% | 7.1hPa | 2.6V | 00:00:00 | 02:18:18 | 00:00:00 | |
| DL1XH-15 | 2026-09-04 01:38:54 | 51.85257 | 7.18780 | 180° | 11km/h | 33848m | 6.2m/s | -36°C | 1.9% | 7.2hPa | 2.6V | 08:30:00 | 02:18:12 | 00:00:00 | |
| BIOWL1-15 | 2026-09-04 01:38:52 | 51.85254 | 7.18781 | 149° | 13km/h | 33854m | 5.6m/s | -35.9°C | 0% | 7.1hPa | 2.6V | 18:12:15 | 02:18:13 | 00:00:00 | |
| DL1XH-west | 2026-09-04 01:38:52 | 51.85249 | 7.18790 | 124° | 16km/h | 33863m | 4.4m/s | -35.8°C | 0% | 7.2hPa | 2.5V | 18:12:15 | 02:18:15 | 00:00:00 | |
| DO2JMG | 2026-09-04 01:38:47 | 51.85262 | 7.18784 | 220° | 11km/h | 33838m | 4.3m/s | -36.1°C | 0% | 7.2hPa | 2.5V | 18:12:15 | 02:18:10 | 00:00:00 | |
| AA1-15 | 2026-09-04 01:38:46 | 51.85264 | 7.18786 | 219° | 9km/h | 33833m | 4.5m/s | -36.1°C | 0% | 7.2hPa | 2.5V | 18:12:15 | 02:18:09 | 00:00:00 | |
| GOEST3-10 | 2026-09-04 01:38:45 | 51.85265 | 7.18788 | 200° | 9km/h | 33829m | 5.7m/s | -36.1°C | 2.0% | 7.1hPa | 2.5V | 00:00:00 | 02:18:08 | 00:00:00 | |
| DL1XH-15 | 2026-09-04 01:38:44 | 51.85276 | 7.18771 | 162° | 15km/h | 33797m | 6m/s | -36.5°C | 1.9% | 7.2hPa | 2.5V | 08:30:00 | 02:18:02 | 00:00:00 | |
| DL1XH-west | 2026-09-04 01:38:41 | 51.85270 | 7.18778 | 128° | 13km/h | 33808m | 4.5m/s | -36.4°C | 0% | 7.2hPa | 2.6V | 18:12:15 | 02:18:04 | 00:00:00 | |
| BIOWL1-15 | 2026-09-04 01:38:41 | 51.85276 | 7.18771 | 162° | 15km/h | 33797m | 6m/s | -36.5°C | 0% | 7.2hPa | 2.5V | 18:12:15 | 02:18:02 | 00:00:00 | |
| DO2JMG | 2026-09-04 01:38:37 | 51.85284 | 7.18770 | 182° | 18km/h | 33786m | 4.7m/s | -36.6°C | 0% | 7.2hPa | 2.6V | 18:12:15 | 02:18:00 | 00:00:00 | |
| HSKMA3-T | 2026-09-04 01:38:36 | 51.85288 | 7.18770 | 176° | 16km/h | 33782m | 4.3m/s | -36.6°C | 0% | 7.2hPa | 2.6V | 18:12:15 | 02:17:59 | 00:00:00 | |
| AA1-15 | 2026-09-04 01:38:35 | 51.85292 | 7.18769 | 161° | 16km/h | 33777m | 4.9m/s | -36.6°C | 0% | 7.2hPa | 2.5V | 18:12:15 | 02:17:58 | 00:00:00 | |
| GOEST3-10 | 2026-09-04 01:38:35 | 51.85292 | 7.18769 | 161° | 16km/h | 33778m | 4.9m/s | -36.6°C | 2.0% | 7.2hPa | 2.6V | 00:00:00 | 02:17:58 | 00:00:00 | |
| DL1XH-15 | 2026-09-04 01:38:34 | 51.85304 | 7.18737 | 117° | 9km/h | 33745m | 5.9m/s | -36.9°C | 2% | 7.2hPa | 2.6V | 08:30:00 | 02:17:52 | 00:00:00 | |
| DL1XH-west | 2026-09-04 01:38:30 | 51.85303 | 7.18741 | 105° | 13km/h | 33751m | 5.8m/s | -36.8°C | 0% | 7.3hPa | 2.6V | 18:12:15 | 02:17:53 | 00:00:00 | |
| BIOWL1-15 | 2026-09-04 01:38:29 | 51.85304 | 7.18737 | 118° | 9km/h | 33745m | 5.9m/s | -36.9°C | 0% | 7.2hPa | 2.6V | 18:12:15 | 02:17:52 | 00:00:00 | |
| DO2JMG | 2026-09-04 01:38:27 | 51.85307 | 7.18734 | 172° | 9km/h | 33735m | 4.5m/s | -37°C | 0% | 7.3hPa | 2.5V | 18:12:15 | 02:17:50 | 00:00:00 | |
| AA1-15 | 2026-09-04 01:38:25 | 51.85314 | 7.18732 | 161° | 18km/h | 33726m | 5m/s | -37°C | 0% | 7.3hPa | 2.5V | 18:12:15 | 02:17:48 | 00:00:00 | |
| GOEST3-10 | 2026-09-04 01:38:25 | 51.85314 | 7.18732 | 162° | 26km/h | 33726m | 4.9m/s | -37.0°C | 2.0% | 7.2hPa | 2.5V | 00:00:00 | 02:17:48 | 00:00:00 | |
| DL1XH-15 | 2026-09-04 01:38:24 | 51.85344 | 7.18693 | 144° | 24km/h | 33694m | 6m/s | -37.3°C | 2% | 7.3hPa | 2.5V | 08:30:00 | 02:17:42 | 00:00:00 | |
| DL1XH-west | 2026-09-04 01:38:19 | 51.85344 | 7.18693 | 145° | 24km/h | 33694m | 6m/s | -37.3°C | 0% | 7.3hPa | 2.5V | 18:12:15 | 02:17:42 | 00:00:00 | |
| DO2JMG | 2026-09-04 01:38:16 | 51.85357 | 7.18683 | 160° | 18km/h | 33677m | 4.6m/s | -37.4°C | 0% | 7.3hPa | 2.5V | 18:12:15 | 02:17:39 | 00:00:00 | |
| AA1-15 | 2026-09-04 01:38:15 | 51.85361 | 7.18680 | 154° | 18km/h | 33672m | 5.5m/s | -37.4°C | 0% | 7.3hPa | 2.5V | 18:12:15 | 02:17:38 | 00:00:00 | |
| GOEST3-10 | 2026-09-04 01:38:15 | 51.85361 | 7.18680 | 154° | 24km/h | 33673m | 5.5m/s | -37.4°C | 2.1% | 7.3hPa | 2.5V | 00:00:00 | 02:17:38 | 00:00:00 | |
| DL1XH-15 | 2026-09-04 01:38:14 | 51.85392 | 7.18648 | 160° | 27km/h | 33641m | 6m/s | -37.6°C | 2.1% | 7.4hPa | 2.5V | 08:30:00 | 02:17:32 | 00:00:00 | |
| DB0ND-19 | 2026-09-04 01:38:14 | 51.85370 | 7.18670 | 139° | 22km/h | 33662m | 5.0m/s | -37.5°C | 0.5% | 7.3hPa | 2.6V | 00:00:00 | 00:00:00 | 00:00:00 | |
| DK5PH-5 | 2026-09-04 01:38:13 | 51.85370 | 7.18670 | 140° | 22km/h | 33662m | 5.0m/s | -37.5°C | 2.1% | 7.3hPa | 2.6V | 00:00:00 | 02:17:36 | 00:00:00 | |
| DM0DOS-11 | 2026-09-04 01:38:12 | 51.85380 | 7.18658 | 145° | 27km/h | 33652m | 4.6m/s | -37.6°C | 2% | 7.4hPa | 2.6V | 08:30:00 | 02:17:34 | 00:00:00 | |
| BIOWL1-15 | 2026-09-04 01:38:08 | 51.85399 | 7.18644 | 165° | 27km/h | 33635m | 5.2m/s | -37.7°C | 0% | 7.4hPa | 2.5V | 18:12:15 | 02:17:31 | 00:00:00 | |
| DO2JMG | 2026-09-04 01:38:06 | 51.85412 | 7.18637 | 156° | 27km/h | 33626m | 4.7m/s | -37.8°C | 0% | 7.4hPa | 2.6V | 18:12:15 | 02:17:29 | 00:00:00 | |
| DF8AY | 2026-09-04 01:38:05 | 51.85418 | 7.18632 | 147° | 29km/h | 33620m | 6m/s | -37.8°C | 0% | 7.4hPa | 2.6V | 18:12:15 | 02:17:28 | 00:00:00 | |
| AA1-15 | 2026-09-04 01:38:04 | 51.85424 | 7.18624 | 135° | 29km/h | 33614m | 5.7m/s | -37.9°C | 0% | 7.4hPa | 2.5V | 18:12:15 | 02:17:27 | 00:00:00 | |
| BIOWL1-15 | 2026-09-04 01:38:01 | 51.85446 | 7.18588 | 168° | 15km/h | 33577m | 5.1m/s | -38.2°C | 0% | 7.5hPa | 2.5V | 18:12:15 | 02:17:20 | 00:00:00 | |
| DL1XH-west | 2026-09-04 01:37:58 | 51.85442 | 7.18589 | 167° | 13km/h | 33582m | 5.3m/s | -38.2°C | 0% | 7.5hPa | 2.6V | 18:12:15 | 02:17:21 | 00:00:00 | |
| DO2JMG | 2026-09-04 01:37:56 | 51.85450 | 7.18586 | 162° | 18km/h | 33572m | 5.9m/s | -38.3°C | 0% | 7.5hPa | 2.5V | 18:12:15 | 02:17:19 | 00:00:00 | |
| AA1-15 | 2026-09-04 01:37:54 | 51.85461 | 7.18578 | 149° | 29km/h | 33560m | 5m/s | -38.4°C | 0% | 7.5hPa | 2.6V | 18:12:15 | 02:17:17 | 00:00:00 | |
| EDDB2-12 | 2026-09-04 01:37:54 | 51.85467 | 7.18571 | 145° | 29km/h | 33555m | 4.7m/s | -38.4°C | 0.5% | 7.5hPa | 2.5V | 00:00:00 | 00:00:00 | 00:00:00 | |
| BUE01 | 2026-09-04 01:37:53 | 51.85473 | 7.18564 | 146° | 27km/h | 33551m | 5.0m/s | -38.4°C | 0.5% | 7.5hPa | 2.5V | 00:00:00 | 00:00:00 | 00:00:00 | |
| DM0DOS-11 | 2026-09-04 01:37:52 | 51.85479 | 7.18558 | 146° | 26km/h | 33545m | 6m/s | -38.5°C | 2.1% | 7.5hPa | 2.5V | 08:30:00 | 02:17:14 | 00:00:00 | |
| BIOWL1-15 | 2026-09-04 01:37:47 | 51.85492 | 7.18538 | 106° | 16km/h | 33524m | 5.6m/s | -38.6°C | 0% | 7.5hPa | 2.6V | 18:12:15 | 02:17:10 | 00:00:00 | |
| DO2JMG | 2026-09-04 01:37:45 | 51.85493 | 7.18523 | 93° | 22km/h | 33512m | 5.7m/s | -38.7°C | 0% | 7.5hPa | 2.5V | 18:12:15 | 02:17:08 | 00:00:00 | |
| DF8AY | 2026-09-04 01:37:44 | 51.85493 | 7.18514 | 93° | 22km/h | 33506m | 4.6m/s | -38.7°C | 0% | 7.5hPa | 2.5V | 18:12:15 | 02:17:07 | 00:00:00 | |
| AA1-15 | 2026-09-04 01:37:43 | 51.85494 | 7.18505 | 96° | 20km/h | 33502m | 4.3m/s | -38.8°C | 0% | 7.5hPa | 2.5V | 18:12:15 | 02:17:06 | 00:00:00 | |
| DB0UT-7 | 2026-09-04 01:37:43 | 51.85493 | 7.18505 | 97° | 20km/h | 33502m | 4.2m/s | -38.7°C | 2.2% | 7.5hPa | 2.6V | 00:00:00 | 02:17:06 | 00:00:00 | |
| DM0DOS-11 | 2026-09-04 01:37:42 | 51.85495 | 7.18493 | 117° | 11km/h | 33491m | 6.2m/s | -38.9°C | 2.2% | 7.5hPa | 2.6V | 08:30:00 | 02:17:04 | 00:00:00 | |
| BIOWL1-15 | 2026-09-04 01:37:37 | 51.85504 | 7.18486 | 150° | 15km/h | 33470m | 5.1m/s | -38.9°C | 0% | 7.6hPa | 2.5V | 18:12:15 | 02:17:00 | 00:00:00 | |
| DO2JMG | 2026-09-04 01:37:34 | 51.85514 | 7.18467 | 121° | 27km/h | 33452m | 5.3m/s | -38.9°C | 0% | 7.6hPa | 2.6V | 18:12:15 | 02:16:57 | 00:00:00 | |
| AA1-15 | 2026-09-04 01:37:33 | 51.85518 | 7.18457 | 120° | 27km/h | 33447m | 4.7m/s | -38.9°C | 0% | 7.6hPa | 2.5V | 18:12:15 | 02:16:56 | 00:00:00 | |
| DL1XH-west | 2026-09-04 01:37:27 | 51.85537 | 7.18416 | 128° | 20km/h | 33412m | 6.6m/s | -39.2°C | 0% | 7.6hPa | 2.5V | 18:12:15 | 02:16:50 | 00:00:00 | |
| BIOWL1-15 | 2026-09-04 01:37:26 | 51.85540 | 7.18410 | 127° | 20km/h | 33406m | 5.5m/s | -39.2°C | 0% | 7.6hPa | 2.5V | 18:12:15 | 02:16:49 | 00:00:00 | |
| DL8DAS-14 | 2026-09-04 01:37:26 | 51.85543 | 7.18404 | 128° | 18km/h | 33401m | 4.9m/s | -39.3°C | 0.5% | 7.6hPa | 2.5V | 00:00:00 | 00:00:00 | 00:00:00 | |
| DF5WG-10 | 2026-09-04 01:37:25 | 51.85543 | 7.18403 | 129° | 24km/h | 33401m | 4.9m/s | -39.2°C | 2.2% | 7.6hPa | 2.5V | 00:00:00 | 02:16:48 | 00:00:00 | |
| DL1XH-15 | 2026-09-04 01:37:24 | 51.85563 | 7.18376 | 132° | 22km/h | 33368m | 5.2m/s | -39.7°C | 2.3% | 7.7hPa | 2.5V | 08:30:00 | 02:16:42 | 00:00:00 | |
| DO2JMG | 2026-09-04 01:37:23 | 51.85549 | 7.18393 | 139° | 16km/h | 33390m | 6.6m/s | -39.4°C | 0% | 7.7hPa | 2.6V | 18:12:15 | 02:16:46 | 00:00:00 | |
| HSKMA3-T | 2026-09-04 01:37:22 | 51.85552 | 7.18389 | 145° | 15km/h | 33384m | 6.2m/s | -39.5°C | 0% | 7.7hPa | 2.6V | 18:12:15 | 02:16:45 | 00:00:00 | |
| DM0DOS-11 | 2026-09-04 01:37:21 | 51.85556 | 7.18386 | 148° | 16km/h | 33378m | 5.1m/s | -39.6°C | 2.2% | 7.7hPa | 2.5V | 08:30:00 | 02:16:44 | 00:00:00 | |
| BIOWL1-15 | 2026-09-04 01:37:17 | 51.85578 | 7.18332 | 112° | 35km/h | 33344m | 4.6m/s | -39.9°C | 0% | 7.7hPa | 2.5V | 18:12:15 | 02:16:38 | 00:00:00 | |
| DL1XH-west | 2026-09-04 01:37:16 | 51.85574 | 7.18345 | 114° | 37km/h | 33349m | 5.6m/s | -39.8°C | 0% | 7.7hPa | 2.5V | 18:12:15 | 02:16:39 | 00:00:00 | |
| DJ2KF-10 | 2026-09-04 01:37:16 | 51.85574 | 7.18345 | 115° | 22km/h | 33350m | 5.6m/s | -39.8°C | 2.2% | 7.6hPa | 2.6V | 00:00:00 | 02:16:39 | 00:00:00 | |
| DM0DOS-11 | 2026-09-04 01:37:15 | 51.85583 | 7.18301 | 80° | 4km/h | 33320m | 5.9m/s | -40°C | 2.3% | 7.7hPa | 2.6V | 08:30:00 | 02:16:34 | 00:00:00 | |
| DO2JMG | 2026-09-04 01:37:13 | 51.85582 | 7.18311 | 106° | 20km/h | 33333m | 6.6m/s | -39.9°C | 0% | 7.7hPa | 2.5V | 18:12:15 | 02:16:36 | 00:00:00 | |
| AA1-15 | 2026-09-04 01:37:11 | 51.85583 | 7.18301 | 80° | 5km/h | 33320m | 5.9m/s | -40°C | 0% | 7.7hPa | 2.6V | 18:12:15 | 02:16:34 | 00:00:00 | |
| DL1XH-west | 2026-09-04 01:37:06 | 51.85582 | 7.18293 | 97° | 7km/h | 33291m | 5.7m/s | -40.2°C | 0% | 7.8hPa | 2.6V | 18:12:15 | 02:16:29 | 00:00:00 | |
| DO1YAY-16 | 2026-09-04 01:37:05 | 51.85582 | 7.18290 | 111° | 7km/h | 33285m | 6.5m/s | -40.2°C | 0.6% | 7.8hPa | 2.6V | 00:00:00 | 00:00:00 | 00:00:00 | |
| DL1XH-15 | 2026-09-04 01:37:04 | 51.85601 | 7.18236 | 117° | 42km/h | 33248m | 5.1m/s | -40.4°C | 2.4% | 7.8hPa | 2.6V | 08:30:00 | 02:16:22 | 00:00:00 | |
| BIOWL1-15 | 2026-09-04 01:37:04 | 51.85583 | 7.18287 | 120° | 11km/h | 33279m | 5.7m/s | -40.3°C | 0% | 7.8hPa | 2.5V | 18:12:15 | 02:16:27 | 00:00:00 | |
| DO2JMG | 2026-09-04 01:37:02 | 51.85588 | 7.18274 | 122° | 26km/h | 33268m | 5.8m/s | -40.3°C | 0% | 7.8hPa | 2.5V | 18:12:15 | 02:16:25 | 00:00:00 | |
| HSKMA3-T | 2026-09-04 01:37:01 | 51.85592 | 7.18264 | 120° | 33km/h | 33261m | 7.3m/s | -40.4°C | 0% | 7.8hPa | 2.5V | 18:12:15 | 02:16:24 | 00:00:00 | |
| AA1-15 | 2026-09-04 01:37:00 | 51.85596 | 7.18251 | 119° | 40km/h | 33254m | 7m/s | -40.4°C | 0% | 7.8hPa | 2.6V | 18:12:15 | 02:16:23 | 00:00:00 | |
| DL1XH-west | 2026-09-04 01:36:56 | 51.85613 | 7.18199 | 119° | 24km/h | 33234m | 6.5m/s | -40.5°C | 0% | 7.8hPa | 2.5V | 18:12:15 | 02:16:19 | 00:00:00 | |
| HTAHTA | 2026-09-04 01:36:56 | 51.85615 | 7.18193 | 125° | 11km/h | 33227m | 7.4m/s | -40.5°C | 0.6% | 7.8hPa | 2.5V | 00:00:00 | 00:00:00 | 00:00:00 | |
| DL1CLM-18 | 2026-09-04 01:36:55 | 51.85616 | 7.18193 | 126° | 13km/h | 33228m | 7.4m/s | -40.5°C | 0.6% | 7.8hPa | 2.5V | 00:00:00 | 00:00:00 | 00:00:00 | |
| DL1XH-15 | 2026-09-04 01:36:54 | 51.85620 | 7.18180 | 103° | 24km/h | 33192m | 6.4m/s | -40.6°C | 2.4% | 7.9hPa | 2.5V | 08:30:00 | 02:16:12 | 00:00:00 | |
| BIOWL1-15 | 2026-09-04 01:36:53 | 51.85618 | 7.18191 | 243° | 4km/h | 33214m | 5.4m/s | -40.5°C | 0% | 7.8hPa | 2.6V | 18:12:15 | 02:16:16 | 00:00:00 | |
| DF8AY | 2026-09-04 01:36:52 | 51.85618 | 7.18191 | 249° | 2km/h | 33209m | 4.9m/s | -40.6°C | 0% | 7.9hPa | 2.5V | 18:12:15 | 02:16:15 | 00:00:00 | |
| DO2JMG | 2026-09-04 01:36:51 | 51.85618 | 7.18191 | 106° | 5km/h | 33204m | 5.7m/s | -40.6°C | 0% | 7.9hPa | 2.5V | 18:12:15 | 02:16:14 | 00:00:00 | |
| AA1-15 | 2026-09-04 01:36:50 | 51.85619 | 7.18187 | 103° | 13km/h | 33198m | 6.2m/s | -40.6°C | 0% | 7.9hPa | 2.5V | 18:12:15 | 02:16:13 | 00:00:00 | |
| DL1XH-west | 2026-09-04 01:36:45 | 51.85630 | 7.18130 | 114° | 31km/h | 33168m | 6.1m/s | -40.7°C | 0% | 7.9hPa | 2.5V | 18:12:15 | 02:16:08 | 00:00:00 | |
| DL1XH-15 | 2026-09-04 01:36:44 | 51.85641 | 7.18098 | 84° | 9km/h | 33134m | 6.3m/s | -40.7°C | 2.4% | 7.9hPa | 2.5V | 08:30:00 | 02:16:02 | 00:00:00 | |
| DJ2KF-10 | 2026-09-04 01:36:44 | 51.85633 | 7.18119 | 119° | 18km/h | 33163m | 6.2m/s | -40.7°C | 2.5% | 7.8hPa | 2.6V | 00:00:00 | 02:16:07 | 00:00:00 | |
| DK5PH-5 | 2026-09-04 01:36:43 | 51.85636 | 7.18112 | 126° | 18km/h | 33156m | 6.0m/s | -40.7°C | 2.4% | 7.9hPa | 2.6V | 00:00:00 | 02:16:06 | 00:00:00 | |
| DM0DOS-11 | 2026-09-04 01:36:42 | 51.85640 | 7.18104 | 129° | 7km/h | 33145m | 5.2m/s | -40.7°C | 2.5% | 7.9hPa | 2.6V | 08:30:00 | 02:16:04 | 00:00:00 | |
| BIOWL1-15 | 2026-09-04 01:36:42 | 51.85638 | 7.18107 | 131° | 13km/h | 33150m | 5.5m/s | -40.7°C | 0% | 8hPa | 2.6V | 18:12:15 | 02:16:05 | 00:00:00 | |
| DO2JMG | 2026-09-04 01:36:40 | 51.85641 | 7.18102 | 106° | 7km/h | 33140m | 5.4m/s | -40.7°C | 0% | 7.9hPa | 2.5V | 18:12:15 | 02:16:03 | 00:00:00 | |
| AA1-15 | 2026-09-04 01:36:39 | 51.85641 | 7.18098 | 84° | 9km/h | 33134m | 6.3m/s | -40.7°C | 0% | 7.9hPa | 2.5V | 18:12:15 | 02:16:02 | 00:00:00 | |
| BIOWL9-15 | 2026-09-04 01:36:38 | 51.85640 | 7.18087 | 75° | 20km/h | 33121m | 6.5m/s | -40.7°C | 0.6% | 8.0hPa | 2.5V | 00:00:00 | 00:00:00 | 00:00:00 | |
| GOEST3-10 | 2026-09-04 01:36:37 | 51.85640 | 7.18086 | 76° | 24km/h | 33121m | 6.5m/s | -40.6°C | 2.4% | 7.9hPa | 2.5V | 00:00:00 | 00:00:00 | 00:00:00 | |
| DM0DOS-11 | 2026-09-04 01:36:36 | 51.85629 | 7.18037 | 79° | 11km/h | 33085m | 5.4m/s | -40.7°C | 2.4% | 8hPa | 2.5V | 08:30:00 | 02:15:54 | 00:00:00 | |
| DL1XH-west | 2026-09-04 01:36:35 | 51.85636 | 7.18068 | 72° | 26km/h | 33109m | 5.5m/s | -40.7°C | 0% | 8hPa | 2.6V | 18:12:15 | 02:15:58 | 00:00:00 | |
| BIOWL1-15 | 2026-09-04 01:36:34 | 51.85630 | 7.18042 | 66° | 16km/h | 33090m | 6.2m/s | -40.7°C | 0% | 8hPa | 2.5V | 18:12:15 | 02:15:55 | 00:00:00 | |
| DF8AY | 2026-09-04 01:36:31 | 51.85629 | 7.18037 | 79° | 11km/h | 33085m | 5.4m/s | -40.7°C | 0% | 8hPa | 2.5V | 18:12:15 | 02:15:54 | 00:00:00 | |
| DO2JMG | 2026-09-04 01:36:30 | 51.85629 | 7.18033 | 108° | 11km/h | 33079m | 5.5m/s | -40.7°C | 0% | 8hPa | 2.6V | 18:12:15 | 02:15:53 | 00:00:00 | |
| HSKMA3-T | 2026-09-04 01:36:29 | 51.85630 | 7.18029 | 127° | 13km/h | 33073m | 6.9m/s | -40.7°C | 0% | 8hPa | 2.6V | 18:12:15 | 02:15:52 | 00:00:00 | |
| AA1-15 | 2026-09-04 01:36:28 | 51.85633 | 7.18024 | 134° | 18km/h | 33066m | 7.2m/s | -40.7°C | 0% | 8hPa | 2.5V | 18:12:15 | 02:15:51 | 00:00:00 | |
| GOEST3-10 | 2026-09-04 01:36:27 | 51.85636 | 7.18018 | 134° | 15km/h | 33060m | 5.9m/s | -40.6°C | 2.4% | 8.0hPa | 2.5V | 00:00:00 | 00:00:00 | 00:00:00 | |
| SONCRA | 2026-09-04 01:36:26 | 51.85640 | 7.18012 | 130° | 18km/h | 33054m | 5.2m/s | -40.7°C | 0.6% | 8.1hPa | 2.5V | 00:00:00 | 00:00:00 | 00:00:00 | |
| DM0DOS-11 | 2026-09-04 01:36:25 | 51.85639 | 7.17991 | 38° | 18km/h | 33024m | 5.2m/s | -40.7°C | 2.4% | 8.1hPa | 2.5V | 08:30:00 | 02:15:44 | 00:00:00 | |
| DL1XH-west | 2026-09-04 01:36:24 | 51.85644 | 7.18002 | 106° | 11km/h | 33042m | 6.7m/s | -40.7°C | 0% | 8.1hPa | 2.6V | 18:12:15 | 02:15:47 | 00:00:00 | |
| DF8AY | 2026-09-04 01:36:21 | 51.85639 | 7.17991 | 38° | 18km/h | 33024m | 5.2m/s | -40.7°C | 0% | 8.1hPa | 2.5V | 18:12:15 | 02:15:44 | 00:00:00 | |
| DO2JMG | 2026-09-04 01:36:19 | 51.85632 | 7.17978 | 61° | 24km/h | 33011m | 6.6m/s | -40.7°C | 0% | 8.1hPa | 2.5V | 18:12:15 | 02:15:42 | 00:00:00 | |
| AA1-15 | 2026-09-04 01:36:18 | 51.85630 | 7.17968 | 76° | 26km/h | 33005m | 5.5m/s | -40.7°C | 0% | 8.1hPa | 2.6V | 18:12:15 | 02:15:41 | 00:00:00 | |
| DL4BBY-15 | 2026-09-04 01:36:17 | 51.85629 | 7.17958 | 90° | 22km/h | 33000m | 5.1m/s | -40.7°C | 0% | 0hPa | 2.6V | 00:00:00 | 00:00:00 | 00:00:00 | |
| DM0DOS-11 | 2026-09-04 01:36:15 | 51.85646 | 7.17920 | 142° | 20km/h | 32963m | 6.2m/s | -40.6°C | 2.4% | 8.1hPa | 2.6V | 08:30:00 | 02:15:34 | 00:00:00 | |
| DL1XH-west | 2026-09-04 01:36:13 | 51.85638 | 7.17929 | 146° | 18km/h | 32975m | 5.9m/s | -40.6°C | 0% | 8.2hPa | 2.5V | 18:12:15 | 02:15:36 | 00:00:00 | |
| BIOWL1-15 | 2026-09-04 01:36:11 | 51.85646 | 7.17920 | 143° | 20km/h | 32963m | 6.2m/s | -40.6°C | 0% | 8.2hPa | 2.6V | 18:12:15 | 02:15:34 | 00:00:00 | |
| DF8AY | 2026-09-04 01:36:10 | 51.85650 | 7.17915 | 132° | 22km/h | 32957m | 7m/s | -40.6°C | 0% | 8.2hPa | 2.6V | 18:12:15 | 02:15:33 | 00:00:00 | |
| DO2JMG | 2026-09-04 01:36:09 | 51.85653 | 7.17907 | 118° | 24km/h | 32949m | 6.7m/s | -40.6°C | 0% | 8.2hPa | 2.5V | 18:12:15 | 02:15:32 | 00:00:00 | |
| HSKMA3-T | 2026-09-04 01:36:08 | 51.85655 | 7.17898 | 107° | 24km/h | 32943m | 5.7m/s | -40.6°C | 0% | 8.2hPa | 2.5V | 18:12:15 | 02:15:31 | 00:00:00 | |
| AA1-15 | 2026-09-04 01:36:07 | 51.85656 | 7.17889 | 99° | 24km/h | 32938m | 5.6m/s | -40.6°C | 0% | 8.2hPa | 2.5V | 18:12:15 | 02:15:30 | 00:00:00 | |
| GOEST3-10 | 2026-09-04 01:36:07 | 51.85656 | 7.17888 | 100° | 16km/h | 32938m | 5.6m/s | -40.6°C | 2.4% | 8.1hPa | 2.5V | 00:00:00 | 00:00:00 | 00:00:00 | |
| DL8OAI-8 | 2026-09-04 01:36:06 | 51.85656 | 7.17888 | 100° | 24km/h | 32938m | 5.6m/s | 0°C | 0% | 0hPa | 2.5V | 00:00:00 | 00:00:00 | 00:00:00 | |
| DM0DOS-11 | 2026-09-04 01:36:05 | 51.85659 | 7.17850 | 119° | 18km/h | 32901m | 7.1m/s | -40.7°C | 2.4% | 8.2hPa | 2.5V | 08:30:00 | 02:15:24 | 00:00:00 | |
| SONDE2-11 | 2026-09-04 01:36:05 | 51.85657 | 7.17866 | 87° | 13km/h | 32919m | 6.1m/s | -40.7°C | 0.6% | 8.2hPa | 2.6V | 00:00:00 | 00:00:00 | 00:00:00 | |
| DL1XH-15 | 2026-09-04 01:36:04 | 51.85667 | 7.17834 | 131° | 29km/h | 32887m | 6.3m/s | -40.8°C | 2.4% | 8.2hPa | 2.6V | 08:30:00 | 02:15:22 | 00:00:00 | |
| DL1XH-west | 2026-09-04 01:36:03 | 51.85657 | 7.17861 | 97° | 13km/h | 32913m | 5.7m/s | -40.7°C | 0% | 8.2hPa | 2.5V | 18:12:15 | 02:15:26 | 00:00:00 | |
| BIOWL1-15 | 2026-09-04 01:36:00 | 51.85663 | 7.17843 | 127° | 26km/h | 32894m | 7m/s | -40.7°C | 0% | 8.2hPa | 2.6V | 18:12:15 | 02:15:23 | 00:00:00 | |
| DF8AY | 2026-09-04 01:35:59 | 51.85667 | 7.17834 | 132° | 29km/h | 32887m | 6.3m/s | -40.8°C | 0% | 8.2hPa | 2.6V | 18:12:15 | 02:15:22 | 00:00:00 | |
| DO2JMG | 2026-09-04 01:35:58 | 51.85672 | 7.17825 | 138° | 31km/h | 32881m | 5.6m/s | -40.8°C | 0% | 8.2hPa | 2.6V | 18:12:15 | 02:15:21 | 00:00:00 | |
| HSKMA3-T | 2026-09-04 01:35:57 | 51.85679 | 7.17818 | 146° | 31km/h | 32875m | 5.6m/s | -40.7°C | 0% | 8.2hPa | 2.5V | 18:12:15 | 02:15:20 | 00:00:00 | |
| AA1-15 | 2026-09-04 01:35:56 | 51.85685 | 7.17812 | 154° | 27km/h | 32869m | 7.1m/s | -40.7°C | 0% | 8.3hPa | 2.5V | 18:12:15 | 02:15:19 | 00:00:00 | |
| SONCRA | 2026-09-04 01:35:55 | 51.85691 | 7.17808 | 161° | 24km/h | 32863m | 6.6m/s | -40.7°C | 0.6% | 8.3hPa | 2.6V | 00:00:00 | 00:00:00 | 00:00:00 | |
| DL1XH-15 | 2026-09-04 01:35:54 | 51.85709 | 7.17777 | 99° | 22km/h | 32825m | 5.3m/s | -40.8°C | 2.4% | 8.3hPa | 2.6V | 08:30:00 | 02:15:12 | 00:00:00 | |
| DL1XH-west | 2026-09-04 01:35:53 | 51.85700 | 7.17802 | 154° | 16km/h | 32851m | 5.6m/s | -40.7°C | 0% | 8.3hPa | 2.6V | 18:12:15 | 02:15:16 | 00:00:00 | |
| BIOWL1-15 | 2026-09-04 01:35:52 | 51.85707 | 7.17786 | 104° | 20km/h | 32831m | 5.9m/s | -40.8°C | 0% | 8.3hPa | 2.5V | 18:12:15 | 02:15:13 | 00:00:00 | |
| DF8AY | 2026-09-04 01:35:48 | 51.85709 | 7.17769 | 101° | 20km/h | 32820m | 5.6m/s | -40.8°C | 0% | 8.3hPa | 2.6V | 18:12:15 | 02:15:11 | 00:00:00 | |
| DO2JMG | 2026-09-04 01:35:47 | 51.85711 | 7.17761 | 107° | 18km/h | 32814m | 6.4m/s | -40.8°C | 0% | 8.3hPa | 2.5V | 18:12:15 | 02:15:10 | 00:00:00 | |
| AA1-15 | 2026-09-04 01:35:46 | 51.85712 | 7.17755 | 121° | 15km/h | 32807m | 6.7m/s | -40.9°C | 0% | 8.3hPa | 2.5V | 18:12:15 | 02:15:09 | 00:00:00 | |
| DL1XH-15 | 2026-09-04 01:35:44 | 51.85740 | 7.17715 | 127° | 31km/h | 32763m | 5.9m/s | -41.1°C | 2.5% | 8.4hPa | 2.5V | 08:30:00 | 02:15:02 | 00:00:00 | |
| DL1XH-west | 2026-09-04 01:35:43 | 51.85726 | 7.17740 | 144° | 24km/h | 32784m | 6.6m/s | -40.9°C | 0% | 8.4hPa | 2.6V | 18:12:15 | 02:15:05 | 00:00:00 | |
| BIOWL1-15 | 2026-09-04 01:35:39 | 51.85759 | 7.17687 | 155° | 18km/h | 32738m | 6.1m/s | -41°C | 0% | 8.4hPa | 2.5V | 18:12:15 | 02:14:58 | 00:00:00 | |
| DF8AY | 2026-09-04 01:35:37 | 51.85750 | 7.17697 | 136° | 26km/h | 32751m | 6.5m/s | -41°C | 0% | 8.4hPa | 2.6V | 18:12:15 | 02:15:00 | 00:00:00 | |
| AA1-15 | 2026-09-04 01:35:36 | 51.85755 | 7.17691 | 146° | 22km/h | 32744m | 7.1m/s | -41°C | 0% | 8.4hPa | 2.6V | 18:12:15 | 02:14:59 | 00:00:00 | |
| DO3DL | 2026-09-04 01:35:35 | 51.85754 | 7.17691 | 147° | 22km/h | 32745m | 7.1m/s | -41.0°C | 0.6% | 8.4hPa | 2.6V | 00:00:00 | 00:00:00 | 00:00:00 | |
| DL1XH-15 | 2026-09-04 01:35:34 | 51.85778 | 7.17658 | 124° | 22km/h | 32701m | 5.4m/s | -40.9°C | 2.5% | 8.5hPa | 2.6V | 08:30:00 | 02:14:52 | 00:00:00 | |
| DL1XH-west | 2026-09-04 01:35:31 | 51.85772 | 7.17672 | 124° | 18km/h | 32713m | 6.5m/s | -40.9°C | 0% | 8.5hPa | 2.6V | 18:12:15 | 02:14:54 | 00:00:00 | |
| BIOWL1-15 | 2026-09-04 01:35:27 | 51.85785 | 7.17645 | 141° | 22km/h | 32689m | 7.3m/s | -40.9°C | 0% | 8.5hPa | 2.5V | 18:12:15 | 02:14:50 | 00:00:00 | |
| DO2JMG | 2026-09-04 01:35:26 | 51.85790 | 7.17640 | 149° | 24km/h | 32682m | 6.7m/s | -40.9°C | 0% | 8.5hPa | 2.5V | 18:12:15 | 02:14:49 | 00:00:00 | |
| AA1-15 | 2026-09-04 01:35:25 | 51.85795 | 7.17635 | 152° | 26km/h | 32675m | 6.3m/s | -40.9°C | 0% | 8.5hPa | 2.6V | 18:12:15 | 02:14:48 | 00:00:00 | |
| DL1XH-15 | 2026-09-04 01:35:24 | 51.85819 | 7.17595 | 122° | 13km/h | 32639m | 6.7m/s | -40.8°C | 2.4% | 8.5hPa | 2.6V | 08:30:00 | 02:14:42 | 00:00:00 | |
| DL1XH-west | 2026-09-04 01:35:20 | 51.85817 | 7.17601 | 122° | 18km/h | 32645m | 5.4m/s | -40.8°C | 0% | 8.5hPa | 2.6V | 18:12:15 | 02:14:43 | 00:00:00 | |
| BIOWL1-15 | 2026-09-04 01:35:16 | 51.85822 | 7.17586 | 97° | 9km/h | 32608m | 6.6m/s | -40.7°C | 0% | 8.6hPa | 2.6V | 18:12:15 | 02:14:37 | 00:00:00 | |
| DF8AY | 2026-09-04 01:35:16 | 51.85822 | 7.17590 | 138° | 2km/h | 32619m | 5.6m/s | -40.7°C | 0% | 8.6hPa | 2.5V | 18:12:15 | 02:14:39 | 00:00:00 | |
| DO2JMG | 2026-09-04 01:35:15 | 51.85822 | 7.17589 | 95° | 4km/h | 32614m | 5.2m/s | -40.7°C | 0% | 8.6hPa | 2.5V | 18:12:15 | 02:14:38 | 00:00:00 | |
| DL1XH-west | 2026-09-04 01:35:09 | 51.85835 | 7.17541 | 134° | 31km/h | 32577m | 6.4m/s | -40.7°C | 0% | 8.6hPa | 2.5V | 18:12:15 | 02:14:32 | 00:00:00 | |
| BIOWL1-15 | 2026-09-04 01:35:06 | 51.85851 | 7.17524 | 158° | 20km/h | 32559m | 5.2m/s | -40.8°C | 0% | 8.7hPa | 2.5V | 18:12:15 | 02:14:29 | 00:00:00 | |
| DO2JMG | 2026-09-04 01:35:05 | 51.85855 | 7.17521 | 152° | 15km/h | 32553m | 5.9m/s | -40.7°C | 0% | 8.7hPa | 2.5V | 18:12:15 | 02:14:28 | 00:00:00 | |
| AA1-15 | 2026-09-04 01:35:04 | 51.85857 | 7.17518 | 129° | 11km/h | 32547m | 6.7m/s | -40.7°C | 0% | 8.7hPa | 2.5V | 18:12:15 | 02:14:27 | 00:00:00 | |
| DL1XH-west | 2026-09-04 01:34:59 | 51.85854 | 7.17491 | 79° | 13km/h | 32516m | 6.8m/s | -40.7°C | 0% | 8.7hPa | 2.5V | 18:12:15 | 02:14:22 | 00:00:00 | |
| BIOWL1-15 | 2026-09-04 01:34:56 | 51.85858 | 7.17475 | 125° | 18km/h | 32498m | 5.5m/s | -40.7°C | 0% | 8.7hPa | 2.6V | 18:12:15 | 02:14:19 | 00:00:00 | |
| DO2JMG | 2026-09-04 01:34:55 | 51.85860 | 7.17468 | 122° | 22km/h | 32492m | 6.7m/s | -40.6°C | 0% | 8.7hPa | 2.6V | 18:12:15 | 02:14:18 | 00:00:00 | |
| HSKMA3-T | 2026-09-04 01:34:54 | 51.85863 | 7.17460 | 118° | 26km/h | 32486m | 7m/s | -40.6°C | 0% | 8.8hPa | 2.5V | 18:12:15 | 02:14:17 | 00:00:00 | |
| AA1-15 | 2026-09-04 01:34:53 | 51.85866 | 7.17450 | 113° | 26km/h | 32479m | 6m/s | -40.6°C | 0% | 8.8hPa | 2.5V | 18:12:15 | 02:14:16 | 00:00:00 | |
| DL1XH-west | 2026-09-04 01:34:48 | 51.85871 | 7.17423 | 338° | 2km/h | 32449m | 5.8m/s | -40.7°C | 0% | 8.8hPa | 2.5V | 18:12:15 | 02:14:11 | 00:00:00 | |
| BUE01 | 2026-09-04 01:34:47 | 51.85869 | 7.17423 | 31° | 5km/h | 32439m | 5.4m/s | -40.7°C | 0.6% | 8.8hPa | 2.5V | 00:00:00 | 00:00:00 | 00:00:00 | |
| DM0DOS-11 | 2026-09-04 01:34:45 | 51.85870 | 7.17386 | 110° | 29km/h | 32407m | 6.8m/s | -40.7°C | 2.4% | 8.8hPa | 2.5V | 08:30:00 | 02:14:04 | 00:00:00 | |
| DO2JMG | 2026-09-04 01:34:45 | 51.85868 | 7.17421 | 64° | 11km/h | 32432m | 6.9m/s | -40.7°C | 0% | 8.8hPa | 2.6V | 18:12:15 | 02:14:08 | 00:00:00 | |
| DF8AY | 2026-09-04 01:34:44 | 51.85867 | 7.17415 | 82° | 18km/h | 32426m | 6.4m/s | -40.7°C | 0% | 8.8hPa | 2.5V | 18:12:15 | 02:14:07 | 00:00:00 | |
| HSKMA3-T | 2026-09-04 01:34:43 | 51.85867 | 7.17407 | 93° | 24km/h | 32419m | 6.1m/s | -40.7°C | 0% | 8.8hPa | 2.5V | 18:12:15 | 02:14:06 | 00:00:00 | |
| AA1-15 | 2026-09-04 01:34:42 | 51.85868 | 7.17397 | 102° | 27km/h | 32413m | 6m/s | -40.7°C | 0% | 8.8hPa | 2.5V | 18:12:15 | 02:14:05 | 00:00:00 | |
| DL1XH-west | 2026-09-04 01:34:37 | 51.85886 | 7.17346 | 126° | 29km/h | 32384m | 5.6m/s | -40.7°C | 0% | 8.9hPa | 2.5V | 18:12:15 | 02:14:00 | 00:00:00 | |
| DB0ND-19 | 2026-09-04 01:34:37 | 51.85890 | 7.17336 | 120° | 27km/h | 32378m | 6.6m/s | -40.8°C | 0.6% | 8.9hPa | 2.5V | 00:00:00 | 00:00:00 | 00:00:00 | |
| DM0DOS-11 | 2026-09-04 01:34:36 | 51.85895 | 7.17305 | 34° | 7km/h | 32347m | 5.9m/s | -40.8°C | 2.4% | 8.9hPa | 2.5V | 08:30:00 | 02:13:54 | 00:00:00 | |
| BIOWL1-15 | 2026-09-04 01:34:35 | 51.85894 | 7.17327 | 113° | 26km/h | 32372m | 5.9m/s | -40.8°C | 0% | 8.9hPa | 2.5V | 18:12:15 | 02:13:58 | 00:00:00 | |
| DO2JMG | 2026-09-04 01:34:34 | 51.85895 | 7.17318 | 105° | 20km/h | 32366m | 5.3m/s | -40.7°C | 0% | 8.9hPa | 2.6V | 18:12:15 | 02:13:57 | 00:00:00 | |
| DF8AY | 2026-09-04 01:34:34 | 51.85896 | 7.17311 | 92° | 13km/h | 32360m | 6m/s | -40.8°C | 0% | 8.9hPa | 2.6V | 18:12:15 | 02:13:56 | 00:00:00 | |
| HSKMA3-T | 2026-09-04 01:34:32 | 51.85896 | 7.17307 | 69° | 9km/h | 32354m | 7.2m/s | -40.8°C | 0% | 8.9hPa | 2.5V | 18:12:15 | 02:13:55 | 00:00:00 | |
| AA1-15 | 2026-09-04 01:34:31 | 51.85895 | 7.17305 | 35° | 7km/h | 32347m | 5.9m/s | -40.8°C | 0% | 8.9hPa | 2.5V | 18:12:15 | 02:13:54 | 00:00:00 | |
| DL1XH-west | 2026-09-04 01:34:27 | 51.85889 | 7.17287 | 84° | 24km/h | 32326m | 7.1m/s | -40.9°C | 0% | 9hPa | 2.5V | 18:12:15 | 02:13:50 | 00:00:00 | |
| DO2JMG | 2026-09-04 01:34:24 | 51.85891 | 7.17247 | 102° | 35km/h | 32308m | 4.7m/s | -40.9°C | 0% | 9hPa | 2.5V | 18:12:15 | 02:13:47 | 00:00:00 | |
| DF8AY | 2026-09-04 01:34:23 | 51.85893 | 7.17234 | 107° | 31km/h | 32303m | 5.5m/s | -40.9°C | 0% | 9hPa | 2.6V | 18:12:15 | 02:13:46 | 00:00:00 | |
| HSKMA3-T | 2026-09-04 01:34:22 | 51.85895 | 7.17223 | 113° | 24km/h | 32297m | 6.1m/s | -40.9°C | 0% | 9hPa | 2.6V | 18:12:15 | 02:13:45 | 00:00:00 | |
| AA1-15 | 2026-09-04 01:34:20 | 51.85899 | 7.17212 | 111° | 7km/h | 32286m | 5.4m/s | -41°C | 0% | 9hPa | 2.5V | 18:12:15 | 02:13:43 | 00:00:00 | |
| DL1XH-west | 2026-09-04 01:34:16 | 51.85893 | 7.17200 | 55° | 18km/h | 32262m | 5.7m/s | -41°C | 0% | 9.1hPa | 2.6V | 18:12:15 | 02:13:39 | 00:00:00 | |
| DJ2DS-15 | 2026-09-04 01:34:16 | 51.85891 | 7.17193 | 65° | 18km/h | 32257m | 5.6m/s | -41.0°C | 0.6% | 9.0hPa | 2.5V | 00:00:00 | 00:00:00 | 00:00:00 | |
| BUE01 | 2026-09-04 01:34:15 | 51.85891 | 7.17193 | 65° | 18km/h | 32257m | 5.6m/s | -41.0°C | 0.6% | 9.0hPa | 2.5V | 00:00:00 | 00:00:00 | 00:00:00 | |
| DL1XH-15 | 2026-09-04 01:34:14 | 51.85895 | 7.17145 | 108° | 20km/h | 32222m | 5.2m/s | -41°C | 2.4% | 9.1hPa | 2.5V | 08:30:00 | 02:13:32 | 00:00:00 | |
| BIOWL1-15 | 2026-09-04 01:34:14 | 51.85889 | 7.17185 | 77° | 22km/h | 32251m | 5.5m/s | -41°C | 0% | 9hPa | 2.5V | 18:12:15 | 02:13:37 | 00:00:00 | |
| DO2JMG | 2026-09-04 01:34:13 | 51.85889 | 7.17177 | 90° | 20km/h | 32245m | 6.7m/s | -41°C | 0% | 9.1hPa | 2.5V | 18:12:15 | 02:13:36 | 00:00:00 | |
| DF8AY | 2026-09-04 01:34:12 | 51.85889 | 7.17168 | 104° | 20km/h | 32238m | 6.8m/s | -41°C | 0% | 9.1hPa | 2.6V | 18:12:15 | 02:13:35 | 00:00:00 | |
| HSKMA3-T | 2026-09-04 01:34:11 | 51.85891 | 7.17161 | 114° | 20km/h | 32232m | 5.7m/s | -41°C | 0% | 9.1hPa | 2.6V | 18:12:15 | 02:13:34 | 00:00:00 | |
| AA1-15 | 2026-09-04 01:34:10 | 51.85893 | 7.17153 | 115° | 20km/h | 32227m | 4.8m/s | -41°C | 0% | 9.1hPa | 2.5V | 18:12:15 | 02:13:33 | 00:00:00 | |
| DL1XH-west | 2026-09-04 01:34:05 | 51.85892 | 7.17115 | 49° | 16km/h | 32198m | 6m/s | -41.1°C | 0% | 9.1hPa | 2.6V | 18:12:15 | 02:13:28 | 00:00:00 | |
| DM0DOS-11 | 2026-09-04 01:34:05 | 51.85882 | 7.17106 | 30° | 9km/h | 32175m | 4.5m/s | -41.2°C | 2.5% | 9.2hPa | 2.5V | 08:30:00 | 02:13:24 | 00:00:00 | |
| DL1XH-15 | 2026-09-04 01:34:04 | 51.85879 | 7.17098 | 74° | 16km/h | 32164m | 6.5m/s | -41.2°C | 2.5% | 9.2hPa | 2.6V | 08:30:00 | 02:13:22 | 00:00:00 | |
| BIOWL1-15 | 2026-09-04 01:34:03 | 51.85886 | 7.17108 | 17° | 11km/h | 32185m | 6m/s | -41.2°C | 0% | 9.1hPa | 2.5V | 18:12:15 | 02:13:26 | 00:00:00 | |
| DO2JMG | 2026-09-04 01:34:02 | 51.85884 | 7.17107 | 13° | 9km/h | 32180m | 4.8m/s | -41.2°C | 0% | 9.1hPa | 2.5V | 18:12:15 | 02:13:25 | 00:00:00 | |
| HSKMA3-T | 2026-09-04 01:34:00 | 51.85880 | 7.17103 | 57° | 11km/h | 32170m | 5.7m/s | -41.3°C | 0% | 9.2hPa | 2.6V | 18:12:15 | 02:13:23 | 00:00:00 | |
| AA1-15 | 2026-09-04 01:33:59 | 51.85879 | 7.17098 | 75° | 16km/h | 32164m | 6.5m/s | -41.3°C | 0% | 9.2hPa | 2.6V | 18:12:15 | 02:13:22 | 00:00:00 | |
| DO1YAY-16 | 2026-09-04 01:33:59 | 51.85878 | 7.17090 | 86° | 22km/h | 32158m | 6.0m/s | -41.3°C | 0.7% | 9.2hPa | 2.5V | 00:00:00 | 00:00:00 | 00:00:00 | |
| DD1CC1-15 | 2026-09-04 01:33:58 | 51.85879 | 7.17098 | 76° | 16km/h | 32164m | 6.5m/s | -41.2°C | 0.7% | 9.2hPa | 2.5V | 00:00:00 | 00:00:00 | 00:00:00 | |
| GOEST3-10 | 2026-09-04 01:33:57 | 51.85878 | 7.17080 | 98° | 27km/h | 32152m | 5.3m/s | -41.2°C | 2.5% | 9.1hPa | 2.5V | 00:00:00 | 00:00:00 | 08:30:00 | |
| DM0DOS-11 | 2026-09-04 01:33:56 | 51.85896 | 7.17026 | 119° | 18km/h | 32117m | 6.5m/s | -41.2°C | 2.5% | 9.2hPa | 2.5V | 08:30:00 | 02:13:14 | 00:00:00 | |
| DL1XH-west | 2026-09-04 01:33:55 | 51.85882 | 7.17058 | 116° | 27km/h | 32141m | 6.8m/s | -41.3°C | 0% | 9.2hPa | 2.6V | 18:12:15 | 02:13:18 | 00:00:00 | |
| DL1XH-15 | 2026-09-04 01:33:54 | 51.85899 | 7.17013 | 90° | 15km/h | 32105m | 5.5m/s | -41.2°C | 2.5% | 9.2hPa | 2.6V | 08:30:00 | 02:13:12 | 00:00:00 | |
| DO2JMG | 2026-09-04 01:33:52 | 51.85893 | 7.17033 | 129° | 22km/h | 32123m | 5.3m/s | -41.2°C | 0% | 9.2hPa | 2.5V | 18:12:15 | 02:13:15 | 00:00:00 | |
| HSKMA3-T | 2026-09-04 01:33:50 | 51.85898 | 7.17020 | 105° | 16km/h | 32111m | 6.3m/s | -41.2°C | 0% | 9.2hPa | 2.6V | 18:12:15 | 02:13:13 | 00:00:00 | |
| AA1-15 | 2026-09-04 01:33:48 | 51.85898 | 7.17008 | 76° | 13km/h | 32099m | 5.5m/s | -41.3°C | 0% | 9.2hPa | 2.5V | 18:12:15 | 02:13:11 | 00:00:00 | |
| DL1XH-west | 2026-09-04 01:33:44 | 51.85895 | 7.16993 | 88° | 13km/h | 32077m | 3.7m/s | -41.2°C | 0% | 9.3hPa | 2.6V | 18:12:15 | 02:13:07 | 00:00:00 | |
| DL1XH-15 | 2026-09-04 01:33:44 | 51.85900 | 7.16936 | 103° | 38km/h | 32049m | 4.6m/s | -41.1°C | 2.5% | 9.3hPa | 2.5V | 08:30:00 | 02:13:02 | 00:00:00 | |
| DO2JMG | 2026-09-04 01:33:42 | 51.85895 | 7.16978 | 97° | 26km/h | 32068m | 6.5m/s | -41.2°C | 0% | 9.3hPa | 2.6V | 18:12:15 | 02:13:05 | 00:00:00 | |
| DF8AY | 2026-09-04 01:33:41 | 51.85896 | 7.16966 | 98° | 33km/h | 32061m | 7.2m/s | -41.2°C | 0% | 9.3hPa | 2.5V | 18:12:15 | 02:13:04 | 00:00:00 | |
| BIOWL1-15 | 2026-09-04 01:33:40 | 51.85898 | 7.16952 | 99° | 38km/h | 32055m | 6.1m/s | -41.2°C | 0% | 9.3hPa | 2.5V | 18:12:15 | 02:13:03 | 00:00:00 | |
| HSKMA3-T | 2026-09-04 01:33:39 | 51.85900 | 7.16936 | 104° | 38km/h | 32049m | 4.6m/s | -41.1°C | 0% | 9.3hPa | 2.5V | 18:12:15 | 02:13:02 | 00:00:00 | |
| AA1-15 | 2026-09-04 01:33:38 | 51.85902 | 7.16922 | 111° | 35km/h | 32045m | 4m/s | -41.1°C | 0% | 9.3hPa | 2.6V | 18:12:15 | 02:13:01 | 00:00:00 | |
| DL1XH-west | 2026-09-04 01:33:34 | 51.85917 | 7.16898 | 198° | 11km/h | 32022m | 5.4m/s | -41.1°C | 0% | 9.4hPa | 2.5V | 18:12:15 | 02:12:57 | 00:00:00 | |
| DM0DOS-11 | 2026-09-04 01:33:34 | 51.85918 | 7.16902 | 29° | 9km/h | 32006m | 5.2m/s | -41.1°C | 2.5% | 9.4hPa | 2.5V | 08:30:00 | 02:12:54 | 00:00:00 | |
| DO2JMG | 2026-09-04 01:33:32 | 51.85919 | 7.16902 | 312° | 4km/h | 32012m | 5.1m/s | -41.1°C | 0% | 9.4hPa | 2.6V | 18:12:15 | 02:12:55 | 00:00:00 | |
| DF8AY | 2026-09-04 01:33:30 | 51.85915 | 7.16898 | 54° | 18km/h | 32001m | 5.5m/s | -41.1°C | 0% | 9.4hPa | 2.5V | 18:12:15 | 02:12:53 | 00:00:00 | |
| BIOWL1-15 | 2026-09-04 01:33:29 | 51.85914 | 7.16831 | 110° | 38km/h | 31973m | 4.5m/s | -41.2°C | 0% | 9.4hPa | 2.5V | 18:12:15 | 02:12:48 | 00:00:00 | |
| HSKMA3-T | 2026-09-04 01:33:29 | 51.85913 | 7.16889 | 69° | 27km/h | 31995m | 5.9m/s | -41.2°C | 0% | 9.4hPa | 2.5V | 18:12:15 | 02:12:52 | 00:00:00 | |
| AA1-15 | 2026-09-04 01:33:27 | 51.85910 | 7.16862 | 92° | 40km/h | 31983m | 6.2m/s | -41.2°C | 0% | 9.4hPa | 2.6V | 18:12:15 | 02:12:50 | 00:00:00 | |
| GOEST3-10 | 2026-09-04 01:33:27 | 51.85910 | 7.16862 | 92° | 35km/h | 31984m | 6.2m/s | -41.1°C | 2.5% | 9.4hPa | 2.6V | 00:00:00 | 00:00:00 | 00:00:00 | |
| DM0DOS-11 | 2026-09-04 01:33:26 | 51.85924 | 7.16795 | 100° | 9km/h | 31950m | 6.5m/s | -41.2°C | 2.5% | 9.4hPa | 2.6V | 08:30:00 | 02:12:44 | 00:00:00 | |
| DJ2KF-10 | 2026-09-04 01:33:26 | 51.85911 | 7.16846 | 102° | 29km/h | 31978m | 5.4m/s | -41.1°C | 2.5% | 9.4hPa | 2.5V | 00:00:00 | 02:12:49 | 00:00:00 | |
| DF5WG-10 | 2026-09-04 01:33:25 | 51.85914 | 7.16830 | 111° | 18km/h | 31973m | 4.5m/s | -41.1°C | 2.5% | 9.4hPa | 2.5V | 00:00:00 | 02:12:48 | 00:00:00 | |
| DL1XH-15 | 2026-09-04 01:33:24 | 51.85923 | 7.16790 | 43° | 5km/h | 31938m | 5.5m/s | -41.3°C | 2.5% | 9.5hPa | 2.5V | 08:30:00 | 02:12:42 | 00:00:00 | |
| DL1XH-west | 2026-09-04 01:33:24 | 51.85917 | 7.16818 | 115° | 31km/h | 31968m | 4.6m/s | -41.2°C | 0% | 9.4hPa | 2.5V | 18:12:15 | 02:12:47 | 00:00:00 | |
| DO2JMG | 2026-09-04 01:33:21 | 51.85924 | 7.16795 | 101° | 9km/h | 31950m | 6.5m/s | -41.3°C | 0% | 9.4hPa | 2.6V | 18:12:15 | 02:12:44 | 00:00:00 | |
| DF8AY | 2026-09-04 01:33:19 | 51.85923 | 7.16790 | 44° | 5km/h | 31938m | 5.5m/s | -41.3°C | 0% | 9.5hPa | 2.5V | 18:12:15 | 02:12:42 | 00:00:00 | |
| BIOWL1-15 | 2026-09-04 01:33:18 | 51.85922 | 7.16788 | 50° | 5km/h | 31932m | 5.3m/s | -41.3°C | 0% | 9.5hPa | 2.5V | 18:12:15 | 02:12:41 | 00:00:00 | |
| AA1-15 | 2026-09-04 01:33:17 | 51.85922 | 7.16786 | 82° | 5km/h | 31927m | 5.6m/s | -41.3°C | 0% | 9.5hPa | 2.5V | 18:12:15 | 02:12:40 | 00:00:00 | |
| DL4BBY-15 | 2026-09-04 01:33:17 | 51.85921 | 7.16786 | 83° | 24km/h | 31928m | 5.5m/s | -41.3°C | 0% | 0hPa | 2.6V | 00:00:00 | 00:00:00 | 00:00:00 | |
| DL1CLM-18 | 2026-09-04 01:33:16 | 51.85922 | 7.16783 | 112° | 9km/h | 31922m | 5.8m/s | -41.3°C | 0.6% | 9.5hPa | 2.6V | 00:00:00 | 00:00:00 | 00:00:00 | |
| DF5WG-10 | 2026-09-04 01:33:15 | 51.85923 | 7.16779 | 119° | 29km/h | 31916m | 5.4m/s | -41.2°C | 2.5% | 9.5hPa | 2.6V | 00:00:00 | 02:12:38 | 00:00:00 | |
| DL1XH-15 | 2026-09-04 01:33:14 | 51.85928 | 7.16706 | 83° | 38km/h | 31882m | 4.7m/s | -41.3°C | 2.5% | 9.6hPa | 2.5V | 08:30:00 | 02:12:32 | 00:00:00 | |
| DL1XH-west | 2026-09-04 01:33:13 | 51.85927 | 7.16763 | 106° | 27km/h | 31906m | 4.9m/s | -41.3°C | 0% | 9.5hPa | 2.5V | 18:12:15 | 02:12:36 | 00:00:00 | |
| DO2JMG | 2026-09-04 01:33:11 | 51.85930 | 7.16737 | 92° | 37km/h | 31894m | 6.9m/s | -41.3°C | 0% | 9.6hPa | 2.6V | 18:12:15 | 02:12:34 | 00:00:00 | |
| DF8AY | 2026-09-04 01:33:09 | 51.85928 | 7.16706 | 84° | 38km/h | 31882m | 4.7m/s | -41.3°C | 0% | 9.6hPa | 2.5V | 18:12:15 | 02:12:32 | 00:00:00 | |
| HSKMA3-T | 2026-09-04 01:33:08 | 51.85928 | 7.16692 | 86° | 33km/h | 31878m | 4.6m/s | -41.3°C | 0% | 9.6hPa | 2.5V | 18:12:15 | 02:12:31 | 00:00:00 | |
| BIOWL1-15 | 2026-09-04 01:33:07 | 51.85928 | 7.16679 | 94° | 29km/h | 31873m | 5.6m/s | -41.3°C | 0% | 9.6hPa | 2.5V | 18:12:15 | 02:12:30 | 00:00:00 | |
| AA1-15 | 2026-09-04 01:33:06 | 51.85929 | 7.16668 | 108° | 26km/h | 31867m | 6.5m/s | -41.3°C | 0% | 9.6hPa | 2.6V | 18:12:15 | 02:12:29 | 00:00:00 | |
| DO3DL | 2026-09-04 01:33:06 | 51.85929 | 7.16668 | 109° | 26km/h | 31867m | 6.5m/s | -41.3°C | 0.6% | 9.6hPa | 2.6V | 00:00:00 | 00:00:00 | 00:00:00 | |
| DF5WG-10 | 2026-09-04 01:33:05 | 51.85931 | 7.16660 | 125° | 22km/h | 31861m | 6.0m/s | -41.2°C | 2.5% | 9.5hPa | 2.6V | 00:00:00 | 02:12:28 | 00:00:00 | |
| DL1XH-15 | 2026-09-04 01:33:04 | 51.85942 | 7.16619 | 66° | 24km/h | 31827m | 5.6m/s | -41.2°C | 2.5% | 9.6hPa | 2.6V | 08:30:00 | 02:12:22 | 00:00:00 | |
| DF8AY | 2026-09-04 01:33:04 | 51.85942 | 7.16619 | 66° | 24km/h | 31827m | 5.6m/s | -41.2°C | 0% | 9.6hPa | 2.6V | 18:12:15 | 02:12:22 | 00:00:00 | |
| DL1XH-west | 2026-09-04 01:33:02 | 51.85942 | 7.16640 | 126° | 18km/h | 31845m | 5.5m/s | -41.2°C | 0% | 9.6hPa | 2.5V | 18:12:15 | 02:12:25 | 00:00:00 | |
| DO2JMG | 2026-09-04 01:33:00 | 51.85944 | 7.16627 | 78° | 18km/h | 31833m | 6.3m/s | -41.2°C | 0% | 9.6hPa | 2.6V | 18:12:15 | 02:12:23 | 00:00:00 | |
| BIOWL1-15 | 2026-09-04 01:32:57 | 51.85937 | 7.16600 | 73° | 27km/h | 31817m | 5.4m/s | -41.2°C | 0% | 9.7hPa | 2.5V | 18:12:15 | 02:12:20 | 00:00:00 | |
| DO1YAY-16 | 2026-09-04 01:32:57 | 51.85936 | 7.16589 | 82° | 27km/h | 31811m | 6.7m/s | -41.3°C | 0.6% | 9.6hPa | 2.5V | 00:00:00 | 00:00:00 | 00:00:00 | |
| DM0DOS-11 | 2026-09-04 01:32:56 | 51.85941 | 7.16532 | 96° | 24km/h | 31781m | 6.4m/s | -41.4°C | 2.5% | 9.7hPa | 2.5V | 08:30:00 | 02:12:14 | 00:00:00 | |
| AA1-15 | 2026-09-04 01:32:55 | 51.85935 | 7.16577 | 95° | 29km/h | 31804m | 6.2m/s | -41.3°C | 0% | 9.7hPa | 2.5V | 18:12:15 | 02:12:18 | 00:00:00 | |
| DF5WG-10 | 2026-09-04 01:32:55 | 51.85935 | 7.16577 | 95° | 24km/h | 31805m | 6.1m/s | -41.2°C | 2.5% | 9.6hPa | 2.6V | 00:00:00 | 02:12:18 | 00:00:00 | |
| DL1XH-15 | 2026-09-04 01:32:54 | 51.85941 | 7.16514 | 82° | 20km/h | 31769m | 5.2m/s | -41.4°C | 2.5% | 9.7hPa | 2.6V | 08:30:00 | 02:12:12 | 00:00:00 | |
| DL1XH-west | 2026-09-04 01:32:51 | 51.85941 | 7.16532 | 97° | 24km/h | 31781m | 6.4m/s | -41.4°C | 0% | 9.7hPa | 2.5V | 18:12:15 | 02:12:14 | 00:00:00 | |
| DO2JMG | 2026-09-04 01:32:50 | 51.85941 | 7.16523 | 88° | 22km/h | 31774m | 5.9m/s | -41.4°C | 0% | 9.7hPa | 2.5V | 18:12:15 | 02:12:13 | 00:00:00 | |
| DF8AY | 2026-09-04 01:32:48 | 51.85940 | 7.16506 | 83° | 18km/h | 31764m | 5.3m/s | -41.4°C | 0% | 9.7hPa | 2.6V | 18:12:15 | 02:12:11 | 00:00:00 | |
| HSKMA3-T | 2026-09-04 01:32:47 | 51.85940 | 7.16499 | 87° | 18km/h | 31757m | 6.7m/s | -41.4°C | 0% | 9.7hPa | 2.5V | 18:12:15 | 02:12:10 | 00:00:00 | |
| BIOWL1-15 | 2026-09-04 01:32:46 | 51.85940 | 7.16492 | 93° | 18km/h | 31751m | 6m/s | -41.4°C | 0% | 9.7hPa | 2.5V | 18:12:15 | 02:12:09 | 00:00:00 | |
| AA1-15 | 2026-09-04 01:32:45 | 51.85940 | 7.16485 | 87° | 18km/h | 31746m | 5.1m/s | -41.4°C | 0% | 9.8hPa | 2.5V | 18:12:15 | 02:12:08 | 00:00:00 | |
| DL1XH-west | 2026-09-04 01:32:40 | 51.85927 | 7.16438 | 62° | 31km/h | 31717m | 4.6m/s | -41.6°C | 0% | 9.8hPa | 2.5V | 18:12:15 | 02:12:03 | 00:00:00 | |
| DO2JMG | 2026-09-04 01:32:39 | 51.85924 | 7.16427 | 69° | 29km/h | 31712m | 6.2m/s | -41.6°C | 0% | 9.8hPa | 2.6V | 18:12:15 | 02:12:02 | 00:00:00 | |
| DF8AY | 2026-09-04 01:32:38 | 51.85922 | 7.16415 | 82° | 27km/h | 31705m | 6.7m/s | -41.6°C | 0% | 9.8hPa | 2.6V | 18:12:15 | 02:12:01 | 00:00:00 | |
| GOEST3-10 | 2026-09-04 01:32:37 | 51.85921 | 7.16404 | 95° | 24km/h | 31699m | 5.6m/s | -41.5°C | 2.6% | 9.8hPa | 2.5V | 00:00:00 | 00:00:00 | 00:00:00 | |
| DM0DOS-11 | 2026-09-04 01:32:36 | 51.85918 | 7.16350 | 53° | 26km/h | 31665m | 5.6m/s | -41.5°C | 2.5% | 9.9hPa | 2.5V | 08:30:00 | 02:11:54 | 00:00:00 | |
| HSKMA3-T | 2026-09-04 01:32:36 | 51.85922 | 7.16394 | 101° | 26km/h | 31694m | 4.9m/s | -41.5°C | 0% | 9.8hPa | 2.5V | 18:12:15 | 02:11:59 | 00:00:00 | |
| DF5WG-10 | 2026-09-04 01:32:35 | 51.85923 | 7.16384 | 101° | 26km/h | 31689m | 4.8m/s | -41.5°C | 2.5% | 9.8hPa | 2.5V | 00:00:00 | 02:11:58 | 00:00:00 | |
| DL1XH-15 | 2026-09-04 01:32:34 | 51.85910 | 7.16332 | 57° | 27km/h | 31654m | 6.4m/s | -41.4°C | 2.5% | 9.9hPa | 2.5V | 08:30:00 | 02:11:52 | 00:00:00 | |
| AA1-15 | 2026-09-04 01:32:34 | 51.85924 | 7.16375 | 92° | 22km/h | 31683m | 6.1m/s | -41.5°C | 0% | 9.8hPa | 2.6V | 18:12:15 | 02:11:57 | 00:00:00 | |
| DL1XH-west | 2026-09-04 01:32:30 | 51.85914 | 7.16341 | 53° | 27km/h | 31660m | 5.1m/s | -41.5°C | 0% | 9.9hPa | 2.5V | 18:12:15 | 02:11:53 | 00:00:00 | |
| DO2JMG | 2026-09-04 01:32:28 | 51.85907 | 7.16322 | 64° | 27km/h | 31647m | 6.7m/s | -41.4°C | 0% | 9.9hPa | 2.6V | 18:12:15 | 02:11:51 | 00:00:00 | |
| BIOWL1-15 | 2026-09-04 01:32:25 | 51.85891 | 7.16275 | 46° | 27km/h | 31618m | 6.4m/s | -41.4°C | 0% | 9.9hPa | 2.5V | 18:12:15 | 02:11:46 | 00:00:00 | |
| HSKMA3-T | 2026-09-04 01:32:25 | 51.85899 | 7.16293 | 62° | 26km/h | 31631m | 5.3m/s | -41.4°C | 0% | 9.9hPa | 2.5V | 18:12:15 | 02:11:48 | 00:00:00 | |
| DF5WG-10 | 2026-09-04 01:32:25 | 51.85899 | 7.16292 | 63° | 27km/h | 31631m | 5.3m/s | -41.3°C | 2.6% | 9.9hPa | 2.6V | 00:00:00 | 02:11:48 | 00:00:00 | |
| DM0DOS-11 | 2026-09-04 01:32:24 | 51.85881 | 7.16259 | 44° | 27km/h | 31607m | 4.7m/s | -41.4°C | 2.6% | 9.9hPa | 2.6V | 08:30:00 | 02:11:44 | 00:00:00 | |
| AA1-15 | 2026-09-04 01:32:24 | 51.85895 | 7.16284 | 54° | 26km/h | 31625m | 7m/s | -41.4°C | 0% | 9.9hPa | 2.5V | 18:12:15 | 02:11:47 | 00:00:00 | |
| DL1XH-west | 2026-09-04 01:32:20 | 51.85877 | 7.16251 | 54° | 26km/h | 31602m | 5.8m/s | -41.4°C | 0% | 10hPa | 2.5V | 18:12:15 | 02:11:43 | 00:00:00 | |
| DO2JMG | 2026-09-04 01:32:17 | 51.85870 | 7.16222 | 79° | 27km/h | 31583m | 5.3m/s | -41.3°C | 0% | 10hPa | 2.6V | 18:12:15 | 02:11:40 | 00:00:00 | |
| DL4BBY-15 | 2026-09-04 01:32:17 | 51.85869 | 7.16221 | 79° | 26km/h | 31583m | 5.2m/s | -41.3°C | 0% | 0hPa | 2.6V | 00:00:00 | 00:00:00 | 00:00:00 | |
| DM0DOS-11 | 2026-09-04 01:32:16 | 51.85846 | 7.16170 | 32° | 26km/h | 31550m | 4.6m/s | -41.2°C | 2.5% | 10hPa | 2.6V | 08:30:00 | 02:11:34 | 00:00:00 | |
| BIOWL1-15 | 2026-09-04 01:32:14 | 51.85852 | 7.16176 | 35° | 27km/h | 31554m | 5m/s | -41.3°C | 0% | 10hPa | 2.6V | 18:12:15 | 02:11:35 | 00:00:00 | |
| DL1XH-15 | 2026-09-04 01:32:14 | 51.85838 | 7.16159 | 48° | 16km/h | 31538m | 6.5m/s | -41.3°C | 2.5% | 10.1hPa | 2.5V | 08:30:00 | 02:11:32 | 00:00:00 | |
| AA1-15 | 2026-09-04 01:32:14 | 51.85862 | 7.16191 | 54° | 27km/h | 31566m | 6.9m/s | -41.3°C | 0% | 10hPa | 2.5V | 18:12:15 | 02:11:37 | 00:00:00 | |
| DL1XH-west | 2026-09-04 01:32:09 | 51.85838 | 7.16159 | 48° | 16km/h | 31538m | 6.5m/s | -41.3°C | 0% | 10.1hPa | 2.5V | 18:12:15 | 02:11:32 | 00:00:00 | |
| DO2JMG | 2026-09-04 01:32:07 | 51.85835 | 7.16149 | 80° | 15km/h | 31525m | 5.4m/s | -41.3°C | 0% | 10.1hPa | 2.6V | 18:12:15 | 02:11:30 | 00:00:00 | |
| DF8AY | 2026-09-04 01:32:06 | 51.85815 | 7.16105 | 44° | 35km/h | 31490m | 6.2m/s | -41.4°C | 0% | 10.2hPa | 2.6V | 18:12:15 | 02:11:24 | 00:00:00 | |
| BIOWL1-15 | 2026-09-04 01:32:04 | 51.85830 | 7.16130 | 52° | 22km/h | 31508m | 6.8m/s | -41.3°C | 0% | 10.1hPa | 2.5V | 18:12:15 | 02:11:27 | 00:00:00 | |
| AA1-15 | 2026-09-04 01:32:03 | 51.85826 | 7.16122 | 45° | 27km/h | 31501m | 6.2m/s | -41.3°C | 0% | 10.1hPa | 2.5V | 18:12:15 | 02:11:26 | 00:00:00 | |
| DL1XH-west | 2026-09-04 01:31:59 | 51.85803 | 7.16083 | 53° | 37km/h | 31477m | 6.1m/s | -41.4°C | 0% | 10.1hPa | 2.5V | 18:12:15 | 02:11:22 | 00:00:00 | |
| DO2JMG | 2026-09-04 01:31:56 | 51.85786 | 7.16048 | 47° | 35km/h | 31460m | 6.2m/s | -41.4°C | 0% | 10.2hPa | 2.6V | 18:12:15 | 02:11:19 | 00:00:00 | |
| BIOWL1-15 | 2026-09-04 01:31:54 | 51.85773 | 7.16030 | 36° | 31km/h | 31447m | 5.9m/s | -41.4°C | 0% | 10.2hPa | 2.5V | 18:12:15 | 02:11:17 | 00:00:00 | |
| HSKMA3-T | 2026-09-04 01:31:52 | 51.85763 | 7.16018 | 37° | 20km/h | 31436m | 6.8m/s | -41.4°C | 0% | 10.2hPa | 2.6V | 18:12:15 | 02:11:15 | 00:00:00 | |
| DL1XH-west | 2026-09-04 01:31:49 | 51.85756 | 7.16006 | 63° | 11km/h | 31417m | 4.4m/s | -41.5°C | 0% | 10.2hPa | 2.5V | 18:12:15 | 02:11:12 | 00:00:00 | |
| DF8AY | 2026-09-04 01:31:46 | 51.85748 | 7.15993 | 32° | 24km/h | 31399m | 6.9m/s | -41.5°C | 0% | 10.3hPa | 2.6V | 18:12:15 | 02:11:09 | 00:00:00 | |
| DO2JMG | 2026-09-04 01:31:45 | 51.85742 | 7.15987 | 31° | 29km/h | 31392m | 6.4m/s | -41.4°C | 0% | 10.3hPa | 2.5V | 18:12:15 | 02:11:08 | 00:00:00 | |
| BIOWL1-15 | 2026-09-04 01:31:45 | 51.85728 | 7.15973 | 37° | 33km/h | 31380m | 6.3m/s | -41.4°C | 0% | 10.3hPa | 2.5V | 18:12:15 | 02:11:06 | 00:00:00 | |
| DL8DAS-14 | 2026-09-04 01:31:45 | 51.85735 | 7.15980 | 33° | 31km/h | 31386m | 6.0m/s | -41.4°C | 0.7% | 10.3hPa | 2.6V | 00:00:00 | 00:00:00 | 00:00:00 | |
| AA1-15 | 2026-09-04 01:31:42 | 51.85722 | 7.15964 | 42° | 31km/h | 31373m | 6.6m/s | -41.5°C | 0% | 10.3hPa | 2.6V | 18:12:15 | 02:11:05 | 00:00:00 | |
| DL1XH-west | 2026-09-04 01:31:38 | 51.85702 | 7.15936 | 24° | 24km/h | 31352m | 6.6m/s | -41.5°C | 0% | 10.3hPa | 2.5V | 18:12:15 | 02:11:01 | 00:00:00 | |
| DD1CC8 | 2026-09-04 01:31:38 | 51.85696 | 7.15934 | 8° | 22km/h | 31346m | 6.9m/s | -41.5°C | 0.7% | 10.4hPa | 2.6V | 00:00:00 | 00:00:00 | 00:00:00 | |
| DB0NH | 2026-09-04 01:31:37 | 51.85696 | 7.15934 | 9° | 16km/h | 31346m | 6.9m/s | -41.4°C | 2.5% | 10.3hPa | 2.6V | 00:00:00 | 02:11:00 | 00:00:00 | |
| DM0DOS-11 | 2026-09-04 01:31:36 | 51.85668 | 7.15930 | 47° | 22km/h | 31311m | 5.9m/s | -41.5°C | 2.6% | 10.4hPa | 2.6V | 08:30:00 | 02:10:54 | 00:00:00 | |
| DO2JMG | 2026-09-04 01:31:35 | 51.85684 | 7.15935 | 348° | 22km/h | 31333m | 5.5m/s | -41.5°C | 0% | 10.4hPa | 2.5V | 18:12:15 | 02:10:58 | 00:00:00 | |
| DF5WG-10 | 2026-09-04 01:31:35 | 51.85684 | 7.15935 | 348° | 26km/h | 31333m | 5.4m/s | -41.4°C | 2.5% | 10.3hPa | 2.5V | 00:00:00 | 02:10:58 | 00:00:00 | |
| DL1XH-15 | 2026-09-04 01:31:34 | 51.85658 | 7.15913 | 46° | 33km/h | 31299m | 6.3m/s | -41.5°C | 2.6% | 10.4hPa | 2.5V | 08:30:00 | 02:10:52 | 00:00:00 | |
| BIOWL1-15 | 2026-09-04 01:31:33 | 51.85675 | 7.15937 | 7° | 15km/h | 31322m | 5.1m/s | -41.5°C | 0% | 10.4hPa | 2.5V | 18:12:15 | 02:10:56 | 00:00:00 | |
| HSKMA3-T | 2026-09-04 01:31:32 | 51.85671 | 7.15935 | 33° | 16km/h | 31317m | 5.4m/s | -41.5°C | 0% | 10.4hPa | 2.6V | 18:12:15 | 02:10:55 | 00:00:00 | |
| AA1-15 | 2026-09-04 01:31:31 | 51.85668 | 7.15930 | 47° | 22km/h | 31311m | 5.9m/s | -41.6°C | 0% | 10.4hPa | 2.6V | 18:12:15 | 02:10:54 | 00:00:00 | |
| BIOWL1-15 | 2026-09-04 01:31:27 | 51.85628 | 7.15888 | 308° | 9km/h | 31264m | 6.9m/s | -41.4°C | 0% | 10.5hPa | 2.5V | 18:12:15 | 02:10:46 | 00:00:00 | |
| DL1XH-west | 2026-09-04 01:31:27 | 51.85646 | 7.15895 | 34° | 31km/h | 31288m | 4.7m/s | -41.5°C | 0% | 10.5hPa | 2.6V | 18:12:15 | 02:10:50 | 00:00:00 | |
| DF8AY | 2026-09-04 01:31:25 | 51.85634 | 7.15887 | 12° | 18km/h | 31278m | 6.3m/s | -41.4°C | 0% | 10.4hPa | 2.5V | 18:12:15 | 02:10:48 | 00:00:00 | |
| DF5WG-10 | 2026-09-04 01:31:25 | 51.85634 | 7.15887 | 12° | 16km/h | 31278m | 6.3m/s | -41.4°C | 2.5% | 10.4hPa | 2.5V | 00:00:00 | 02:10:48 | 00:00:00 | |
| DL1XH-15 | 2026-09-04 01:31:24 | 51.85622 | 7.15903 | 337° | 16km/h | 31242m | 6.9m/s | -41.3°C | 2.5% | 10.5hPa | 2.5V | 08:30:00 | 02:10:42 | 00:00:00 | |
| DO2JMG | 2026-09-04 01:31:24 | 51.85630 | 7.15886 | 349° | 13km/h | 31271m | 7.4m/s | -41.4°C | 0% | 10.5hPa | 2.5V | 18:12:15 | 02:10:47 | 00:00:00 | |
| NBG1-10 | 2026-09-04 01:31:23 | 51.85628 | 7.15888 | 308° | 11km/h | 31264m | 6.9m/s | -41.3°C | 2.6% | 10.4hPa | 2.6V | 00:00:00 | 02:10:46 | 00:00:00 | |
| DH3RM | 2026-09-04 01:31:22 | 51.85628 | 7.15888 | 309° | 9km/h | 31264m | 6.9m/s | -41.4°C | 0.7% | 10.5hPa | 2.6V | 00:00:00 | 00:00:00 | 00:00:00 | |
| DM0DOS-11 | 2026-09-04 01:31:21 | 51.85627 | 7.15896 | 287° | 11km/h | 31253m | 4.4m/s | -41.3°C | 2.5% | 10.5hPa | 2.6V | 08:30:00 | 02:10:44 | 00:00:00 | |
| HSKMA3-T | 2026-09-04 01:31:21 | 51.85627 | 7.15896 | 287° | 11km/h | 31253m | 4.4m/s | -41.3°C | 0% | 10.5hPa | 2.6V | 18:12:15 | 02:10:44 | 00:00:00 | |
| AA1-15 | 2026-09-04 01:31:20 | 51.85625 | 7.15900 | 312° | 11km/h | 31248m | 5.2m/s | -41.3°C | 0% | 10.5hPa | 2.5V | 18:12:15 | 02:10:43 | 00:00:00 | |
| DL1XH-west | 2026-09-04 01:31:16 | 51.85604 | 7.15904 | 9° | 29km/h | 31223m | 5.4m/s | -41.3°C | 0% | 10.5hPa | 2.6V | 18:12:15 | 02:10:39 | 00:00:00 | |
| BIOWL1-15 | 2026-09-04 01:31:16 | 51.85585 | 7.15891 | 56° | 9km/h | 31197m | 6.7m/s | -41.3°C | 0% | 10.6hPa | 2.6V | 18:12:15 | 02:10:35 | 00:00:00 | |
| DO2JMG | 2026-09-04 01:31:14 | 51.85592 | 7.15898 | 23° | 22km/h | 31211m | 6.5m/s | -41.3°C | 0% | 10.6hPa | 2.5V | 18:12:15 | 02:10:37 | 00:00:00 | |
| HSKMA3-T | 2026-09-04 01:31:10 | 51.85585 | 7.15886 | 107° | 5km/h | 31184m | 6.1m/s | -41.3°C | 0% | 10.6hPa | 2.5V | 18:12:15 | 02:10:33 | 00:00:00 | |
| AA1-15 | 2026-09-04 01:31:09 | 51.85585 | 7.15884 | 103° | 4km/h | 31178m | 7.2m/s | -41.3°C | 0% | 10.6hPa | 2.5V | 18:12:15 | 02:10:32 | 00:00:00 | |
| DL1XH-west | 2026-09-04 01:31:06 | 51.85586 | 7.15885 | 257° | 5km/h | 31159m | 6.2m/s | -41.3°C | 0% | 10.6hPa | 2.6V | 18:12:15 | 02:10:29 | 00:00:00 | |
| DM0DOS-11 | 2026-09-04 01:31:05 | 51.85582 | 7.15898 | 355° | 13km/h | 31127m | 7.2m/s | -41.3°C | 2.5% | 10.7hPa | 2.6V | 08:30:00 | 02:10:24 | 00:00:00 | |
| DO2JMG | 2026-09-04 01:31:04 | 51.85586 | 7.15891 | 266° | 9km/h | 31145m | 6.5m/s | -41.3°C | 0% | 10.7hPa | 2.5V | 18:12:15 | 02:10:27 | 00:00:00 | |
| BIOWL1-15 | 2026-09-04 01:31:01 | 51.85582 | 7.15898 | 355° | 15km/h | 31127m | 7.2m/s | -41.3°C | 0% | 10.7hPa | 2.6V | 18:12:15 | 02:10:24 | 00:00:00 | |
| HSKMA3-T | 2026-09-04 01:31:00 | 51.85578 | 7.15897 | 14° | 16km/h | 31121m | 5.2m/s | -41.3°C | 0% | 10.7hPa | 2.5V | 18:12:15 | 02:10:23 | 00:00:00 | |
| AA1-15 | 2026-09-04 01:30:59 | 51.85575 | 7.15895 | 31° | 15km/h | 31116m | 4.5m/s | -41.3°C | 0% | 10.7hPa | 2.5V | 18:12:15 | 02:10:22 | 00:00:00 | |
| DL1XH-west | 2026-09-04 01:30:55 | 51.85575 | 7.15881 | 156° | 15km/h | 31092m | 5.3m/s | -41.3°C | 0% | 10.8hPa | 2.5V | 18:12:15 | 02:10:18 | 00:00:00 | |
| DM0DOS-11 | 2026-09-04 01:30:55 | 51.85589 | 7.15877 | 189° | 11km/h | 31067m | 6.1m/s | -41.2°C | 2.5% | 10.8hPa | 2.6V | 08:30:00 | 02:10:14 | 00:00:00 | |
| DF5WG-10 | 2026-09-04 01:30:55 | 51.85575 | 7.15881 | 156° | 13km/h | 31092m | 5.3m/s | -41.2°C | 2.6% | 10.7hPa | 2.5V | 00:00:00 | 02:10:18 | 00:00:00 | |
| DL1XH-15 | 2026-09-04 01:30:54 | 51.85595 | 7.15880 | 201° | 11km/h | 31055m | 5.7m/s | -41.2°C | 2.6% | 10.8hPa | 2.5V | 08:30:00 | 02:10:12 | 00:00:00 | |
| DO2JMG | 2026-09-04 01:30:53 | 51.85583 | 7.15877 | 170° | 16km/h | 31080m | 6.7m/s | -41.3°C | 0% | 10.8hPa | 2.5V | 18:12:15 | 02:10:16 | 00:00:00 | |
| HSKMA3-T | 2026-09-04 01:30:50 | 51.85592 | 7.15878 | 199° | 11km/h | 31061m | 5.6m/s | -41.3°C | 0% | 10.8hPa | 2.5V | 18:12:15 | 02:10:13 | 00:00:00 | |
| AA1-15 | 2026-09-04 01:30:48 | 51.85597 | 7.15881 | 198° | 11km/h | 31049m | 6.9m/s | -41.3°C | 0% | 10.8hPa | 2.5V | 18:12:15 | 02:10:11 | 00:00:00 | |
| DL1XH-west | 2026-09-04 01:30:44 | 51.85605 | 7.15879 | 91° | 7km/h | 31027m | 6.5m/s | -41.3°C | 0% | 10.9hPa | 2.5V | 18:12:15 | 02:10:07 | 00:00:00 | |
| DF8AY | 2026-09-04 01:30:43 | 51.85604 | 7.15876 | 60° | 9km/h | 31019m | 7.5m/s | -41.3°C | 0% | 10.9hPa | 2.5V | 18:12:15 | 02:10:06 | 00:00:00 | |
| DK5PH-5 | 2026-09-04 01:30:43 | 51.85604 | 7.15876 | 60° | 16km/h | 31020m | 7.4m/s | -41.2°C | 2.5% | 10.8hPa | 2.6V | 00:00:00 | 02:10:06 | 00:00:00 | |
| DM0DOS-11 | 2026-09-04 01:30:42 | 51.85601 | 7.15868 | 69° | 11km/h | 31007m | 4.8m/s | -41.3°C | 2.6% | 10.9hPa | 2.6V | 08:30:00 | 02:10:04 | 00:00:00 | |
| DO2JMG | 2026-09-04 01:30:42 | 51.85603 | 7.15872 | 58° | 11km/h | 31013m | 6m/s | -41.3°C | 0% | 10.9hPa | 2.6V | 18:12:15 | 02:10:05 | 00:00:00 | |
| HSKMA3-T | 2026-09-04 01:30:40 | 51.85601 | 7.15864 | 105° | 11km/h | 31002m | 5.6m/s | -41.3°C | 0% | 10.9hPa | 2.5V | 18:12:15 | 02:10:03 | 00:00:00 | |
| BIOWL1-15 | 2026-09-04 01:30:39 | 51.85603 | 7.15860 | 140° | 13km/h | 30995m | 7.3m/s | -41.3°C | 0% | 10.9hPa | 2.5V | 18:12:15 | 02:10:02 | 00:00:00 | |
| AA1-15 | 2026-09-04 01:30:38 | 51.85606 | 7.15857 | 161° | 20km/h | 30989m | 6.3m/s | -41.3°C | 0% | 10.9hPa | 2.5V | 18:12:15 | 02:10:01 | 00:00:00 | |
| GOEST3-10 | 2026-09-04 01:30:37 | 51.85612 | 7.15854 | 171° | 20km/h | 30983m | 5.5m/s | -41.2°C | 2.6% | 10.9hPa | 2.6V | 00:00:00 | 00:00:00 | 08:30:00 | |
| DF5WG-10 | 2026-09-04 01:30:35 | 51.85623 | 7.15852 | 176° | 18km/h | 30971m | 6.6m/s | -41.2°C | 2.6% | 10.9hPa | 2.5V | 00:00:00 | 02:09:58 | 00:00:00 | |
| DL1XH-15 | 2026-09-04 01:30:34 | 51.85642 | 7.15831 | 116° | 22km/h | 30934m | 6.4m/s | -41.1°C | 2.5% | 11hPa | 2.5V | 08:30:00 | 02:09:52 | 00:00:00 | |
| DL1XH-west | 2026-09-04 01:30:34 | 51.85628 | 7.15852 | 172° | 16km/h | 30964m | 5.9m/s | -41.3°C | 0% | 10.9hPa | 2.5V | 18:12:15 | 02:09:57 | 00:00:00 | |
| DF8AY | 2026-09-04 01:30:33 | 51.85635 | 7.15848 | 138° | 13km/h | 30953m | 5.2m/s | -41.2°C | 0% | 11hPa | 2.6V | 18:12:15 | 02:09:55 | 00:00:00 | |
| DO2JMG | 2026-09-04 01:30:31 | 51.85637 | 7.15844 | 126° | 15km/h | 30948m | 5.8m/s | -41.2°C | 0% | 11hPa | 2.6V | 18:12:15 | 02:09:54 | 00:00:00 | |
| HSKMA3-T | 2026-09-04 01:30:29 | 51.85642 | 7.15831 | 117° | 22km/h | 30934m | 6.4m/s | -41.1°C | 0% | 11hPa | 2.5V | 18:12:15 | 02:09:52 | 00:00:00 | |
| AA1-15 | 2026-09-04 01:30:28 | 51.85644 | 7.15823 | 110° | 24km/h | 30928m | 5.8m/s | -41.1°C | 0% | 11hPa | 2.5V | 18:12:15 | 02:09:51 | 00:00:00 | |
| DL1LOL-11 | 2026-09-04 01:30:27 | 51.85645 | 7.15813 | 101° | 24km/h | 30923m | 5.8m/s | -41.1°C | 0.7% | 11.0hPa | 2.5V | 00:00:00 | 00:00:00 | 00:00:00 | |
| DF5WG-10 | 2026-09-04 01:30:25 | 51.85645 | 7.15796 | 82° | 15km/h | 30909m | 6.0m/s | -41.0°C | 2.5% | 11.0hPa | 2.5V | 00:00:00 | 02:09:48 | 00:00:00 | |
| DL1XH-15 | 2026-09-04 01:30:24 | 51.85658 | 7.15773 | 165° | 18km/h | 30874m | 4.9m/s | -41°C | 2.5% | 11.1hPa | 2.5V | 08:30:00 | 02:09:42 | 00:00:00 | |
| DL1XH-west | 2026-09-04 01:30:23 | 51.85645 | 7.15783 | 105° | 11km/h | 30898m | 5.4m/s | -41°C | 0% | 11.1hPa | 2.5V | 18:12:15 | 02:09:46 | 00:00:00 | |
| DF8AY | 2026-09-04 01:30:23 | 51.85647 | 7.15780 | 137° | 13km/h | 30892m | 7.2m/s | -41°C | 0% | 11.1hPa | 2.6V | 18:12:15 | 02:09:45 | 00:00:00 | |
| DO2JMG | 2026-09-04 01:30:20 | 51.85654 | 7.15775 | 167° | 18km/h | 30879m | 5.5m/s | -41°C | 0% | 11.1hPa | 2.5V | 18:12:15 | 02:09:43 | 00:00:00 | |
| HSKMA3-T | 2026-09-04 01:30:18 | 51.85662 | 7.15771 | 157° | 15km/h | 30868m | 6.4m/s | -41°C | 0% | 11.1hPa | 2.5V | 18:12:15 | 02:09:41 | 00:00:00 | |
| AA1-15 | 2026-09-04 01:30:17 | 51.85665 | 7.15768 | 129° | 11km/h | 30862m | 6.4m/s | -41°C | 0% | 11.1hPa | 2.6V | 18:12:15 | 02:09:40 | 00:00:00 | |
| DL4BBY-15 | 2026-09-04 01:30:17 | 51.85665 | 7.15768 | 129° | 11km/h | 30863m | 6.4m/s | -41.0°C | 0% | 0hPa | 2.6V | 00:00:00 | 00:00:00 | 00:00:00 | |
| DM0DOS-11 | 2026-09-04 01:30:16 | 51.85663 | 7.15732 | 97° | 16km/h | 30825m | 5.5m/s | -41°C | 2.4% | 11.2hPa | 2.6V | 08:30:00 | 02:09:34 | 00:00:00 | |
| BIOWL1-15 | 2026-09-04 01:30:15 | 51.85665 | 7.15759 | 75° | 15km/h | 30850m | 5.6m/s | -40.9°C | 0% | 11.1hPa | 2.5V | 18:12:15 | 02:09:38 | 00:00:00 | |
| DF5WG-10 | 2026-09-04 01:30:15 | 51.85665 | 7.15759 | 76° | 13km/h | 30850m | 5.6m/s | -40.9°C | 2.5% | 11.1hPa | 2.5V | 00:00:00 | 02:09:38 | 00:00:00 | |
| DL1XH-15 | 2026-09-04 01:30:14 | 51.85664 | 7.15720 | 93° | 13km/h | 30814m | 6.3m/s | -41°C | 2.5% | 11.2hPa | 2.5V | 08:30:00 | 02:09:32 | 00:00:00 | |
| DL1XH-west | 2026-09-04 01:30:12 | 51.85663 | 7.15738 | 92° | 18km/h | 30831m | 6.3m/s | -41°C | 0% | 11.2hPa | 2.6V | 18:12:15 | 02:09:35 | 00:00:00 | |
| DF8AY | 2026-09-04 01:30:11 | 51.85663 | 7.15732 | 98° | 16km/h | 30825m | 5.5m/s | -41°C | 0% | 11.2hPa | 2.6V | 18:12:15 | 02:09:34 | 00:00:00 | |
| DO2JMG | 2026-09-04 01:30:10 | 51.85664 | 7.15725 | 100° | 15km/h | 30820m | 5.6m/s | -41°C | 0% | 11.2hPa | 2.5V | 18:12:15 | 02:09:33 | 00:00:00 | |
| HSKMA3-T | 2026-09-04 01:30:08 | 51.85664 | 7.15716 | 85° | 9km/h | 30808m | 6.2m/s | -41.1°C | 0% | 11.2hPa | 2.5V | 18:12:15 | 02:09:31 | 00:00:00 | |
| AA1-15 | 2026-09-04 01:30:07 | 51.85664 | 7.15712 | 91° | 5km/h | 30802m | 5.1m/s | -41.1°C | 0% | 11.2hPa | 2.6V | 18:12:15 | 02:09:30 | 00:00:00 | |
| BIOWL1-15 | 2026-09-04 01:30:05 | 51.85666 | 7.15709 | 162° | 7km/h | 30791m | 7m/s | -41.1°C | 0% | 11.2hPa | 2.5V | 18:12:15 | 02:09:28 | 00:00:00 | |
| DF5WG-10 | 2026-09-04 01:30:05 | 51.85666 | 7.15709 | 162° | 9km/h | 30792m | 7.0m/s | -41.1°C | 2.5% | 11.2hPa | 2.5V | 00:00:00 | 02:09:28 | 00:00:00 | |
| DL1XH-15 | 2026-09-04 01:30:04 | 51.85672 | 7.15705 | 40° | 11km/h | 30756m | 5.5m/s | -41.3°C | 2.5% | 11.3hPa | 2.5V | 08:30:00 | 02:09:22 | 00:00:00 | |
| DO9LL-15 | 2026-09-04 01:30:04 | 51.85668 | 7.15709 | 176° | 11km/h | 30785m | 6.1m/s | -41.1°C | 2.5% | 11.2hPa | 2.5V | 00:00:00 | 02:09:27 | 00:00:00 | |
| DJ2DS-15 | 2026-09-04 01:30:03 | 51.85670 | 7.15709 | 178° | 9km/h | 30779m | 5.0m/s | -41.2°C | 0.7% | 11.3hPa | 2.6V | 00:00:00 | 00:00:00 | 00:00:00 | |
| DM0DOS-11 | 2026-09-04 01:30:02 | 51.85674 | 7.15708 | 135° | 2km/h | 30768m | 6.8m/s | -41.3°C | 2.5% | 11.3hPa | 2.6V | 08:30:00 | 02:09:24 | 00:00:00 | |
| DL1XH-west | 2026-09-04 01:30:01 | 51.85673 | 7.15708 | 135° | 2km/h | 30768m | 6.8m/s | -41.3°C | 0% | 11.3hPa | 2.6V | 18:12:15 | 02:09:24 | 00:00:00 | |
| DO2JMG | 2026-09-04 01:29:59 | 51.85671 | 7.15705 | 41° | 11km/h | 30756m | 5.5m/s | -41.3°C | 0% | 11.3hPa | 2.5V | 18:12:15 | 02:09:22 | 00:00:00 | |
| AA1-15 | 2026-09-04 01:29:57 | 51.85667 | 7.15697 | 57° | 13km/h | 30745m | 5.4m/s | -41.3°C | 0% | 11.3hPa | 2.6V | 18:12:15 | 02:09:20 | 00:00:00 | |
| BIOWL1-15 | 2026-09-04 01:29:56 | 51.85672 | 7.15680 | 164° | 11km/h | 30716m | 5.5m/s | -41.3°C | 0% | 11.4hPa | 2.6V | 18:12:15 | 02:09:15 | 00:00:00 | |
| DM0DOS-11 | 2026-09-04 01:29:56 | 51.85674 | 7.15679 | 166° | 7km/h | 30710m | 6.8m/s | -41.3°C | 2.5% | 11.4hPa | 2.6V | 08:30:00 | 02:09:14 | 00:00:00 | |
| DJ2KF-10 | 2026-09-04 01:29:56 | 51.85666 | 7.15692 | 74° | 13km/h | 30740m | 5.9m/s | -41.3°C | 2.5% | 11.3hPa | 2.5V | 00:00:00 | 02:09:19 | 00:00:00 | |
| DF5WG-10 | 2026-09-04 01:29:55 | 51.85666 | 7.15688 | 109° | 9km/h | 30734m | 6.6m/s | -41.2°C | 2.5% | 11.3hPa | 2.5V | 00:00:00 | 02:09:18 | 00:00:00 | |
| DL1XH-15 | 2026-09-04 01:29:54 | 51.85677 | 7.15678 | 158° | 4km/h | 30698m | 5.1m/s | -41.3°C | 2.5% | 11.4hPa | 2.5V | 08:30:00 | 02:09:12 | 00:00:00 | |
| DL1XH-west | 2026-09-04 01:29:51 | 51.85674 | 7.15679 | 167° | 7km/h | 30710m | 6.8m/s | -41.3°C | 0% | 11.4hPa | 2.6V | 18:12:15 | 02:09:14 | 00:00:00 | |
| DO2JMG | 2026-09-04 01:29:49 | 51.85677 | 7.15678 | 159° | 4km/h | 30698m | 5.1m/s | -41.3°C | 0% | 11.4hPa | 2.5V | 18:12:15 | 02:09:12 | 00:00:00 | |
| AA1-15 | 2026-09-04 01:29:47 | 51.85680 | 7.15675 | 148° | 9km/h | 30686m | 6.6m/s | -41.3°C | 0% | 11.4hPa | 2.6V | 18:12:15 | 02:09:10 | 00:00:00 | |
| DL4BBY-15 | 2026-09-04 01:29:47 | 51.85680 | 7.15675 | 149° | 13km/h | 30687m | 6.5m/s | -41.4°C | 0% | 0hPa | 2.5V | 00:00:00 | 00:00:00 | 00:00:00 | |
| DF5WG-10 | 2026-09-04 01:29:45 | 51.85684 | 7.15669 | 125° | 15km/h | 30675m | 5.1m/s | -41.3°C | 2.5% | 11.4hPa | 2.5V | 00:00:00 | 02:09:08 | 08:30:00 | |
| DL1XH-15 | 2026-09-04 01:29:44 | 51.85691 | 7.15635 | 141° | 15km/h | 30641m | 6.4m/s | -41.4°C | 2.5% | 11.5hPa | 2.5V | 08:30:00 | 02:09:02 | 00:00:00 | |
| DB0UT-7 | 2026-09-04 01:29:43 | 51.85686 | 7.15658 | 96° | 13km/h | 30663m | 6.5m/s | -41.3°C | 2.5% | 11.4hPa | 2.5V | 00:00:00 | 02:09:06 | 08:30:00 | |
| DM0DOS-11 | 2026-09-04 01:29:42 | 51.85687 | 7.15645 | 101° | 15km/h | 30652m | 4.2m/s | -41.4°C | 2.4% | 11.5hPa | 2.6V | 08:30:00 | 02:09:04 | 00:00:00 | |
| BIOWL1-15 | 2026-09-04 01:29:41 | 51.85687 | 7.15645 | 101° | 15km/h | 30653m | 4.2m/s | -41.4°C | 0% | 11.5hPa | 2.6V | 18:12:15 | 02:09:04 | 00:00:00 | |
| DF8AY | 2026-09-04 01:29:40 | 51.85688 | 7.15640 | 118° | 15km/h | 30647m | 6.1m/s | -41.4°C | 0% | 11.5hPa | 2.5V | 18:12:15 | 02:09:03 | 00:00:00 | |
| DO2JMG | 2026-09-04 01:29:39 | 51.85691 | 7.15635 | 142° | 15km/h | 30641m | 6.4m/s | -41.4°C | 0% | 11.5hPa | 2.5V | 18:12:15 | 02:09:02 | 00:00:00 | |
| AA1-15 | 2026-09-04 01:29:36 | 51.85703 | 7.15630 | 177° | 16km/h | 30624m | 5m/s | -41.6°C | 0% | 11.5hPa | 2.6V | 18:12:15 | 02:08:59 | 00:00:00 | |
| DF5WG-10 | 2026-09-04 01:29:35 | 51.85706 | 7.15629 | 181° | 11km/h | 30619m | 5.9m/s | -41.6°C | 2.5% | 11.5hPa | 2.5V | 00:00:00 | 02:08:58 | 00:00:00 | |
| DL1XH-15 | 2026-09-04 01:29:34 | 51.85714 | 7.15613 | 130° | 15km/h | 30585m | 4.9m/s | -42°C | 2.6% | 11.6hPa | 2.5V | 08:30:00 | 02:08:52 | 00:00:00 | |
| BIOWL1-15 | 2026-09-04 01:29:30 | 51.85711 | 7.15618 | 120° | 13km/h | 30590m | 5.8m/s | -42°C | 0% | 11.6hPa | 2.5V | 18:12:15 | 02:08:53 | 00:00:00 | |
| DO2JMG | 2026-09-04 01:29:29 | 51.85713 | 7.15613 | 130° | 16km/h | 30585m | 4.9m/s | -42°C | 0% | 11.6hPa | 2.5V | 18:12:15 | 02:08:52 | 00:00:00 | |
| HSKMA3-T | 2026-09-04 01:29:26 | 51.85722 | 7.15600 | 142° | 15km/h | 30569m | 6.4m/s | -42.1°C | 0% | 11.6hPa | 2.6V | 18:12:15 | 02:08:49 | 00:00:00 | |
| DF5WG-10 | 2026-09-04 01:29:25 | 51.85725 | 7.15597 | 143° | 15km/h | 30564m | 6.0m/s | -42.1°C | 2.6% | 11.6hPa | 2.5V | 00:00:00 | 02:08:48 | 00:00:00 | |
| DL1XH-15 | 2026-09-04 01:29:24 | 51.85745 | 7.15583 | 163° | 20km/h | 30530m | 4.8m/s | -42.3°C | 2.6% | 11.7hPa | 2.5V | 08:30:00 | 02:08:42 | 00:00:00 | |
| BIOWL1-15 | 2026-09-04 01:29:19 | 51.85745 | 7.15583 | 163° | 20km/h | 30530m | 4.8m/s | -42.3°C | 0% | 11.7hPa | 2.5V | 18:12:15 | 02:08:42 | 00:00:00 | |
| DO2JMG | 2026-09-04 01:29:18 | 51.85749 | 7.15581 | 168° | 16km/h | 30525m | 5m/s | -42.3°C | 0% | 11.7hPa | 2.5V | 18:12:15 | 02:08:41 | 00:00:00 | |
| HSKMA3-T | 2026-09-04 01:29:15 | 51.85756 | 7.15582 | 218° | 7km/h | 30508m | 4.5m/s | -42.3°C | 0% | 11.7hPa | 2.5V | 18:12:15 | 02:08:38 | 00:00:00 | |
| DF5WG-10 | 2026-09-04 01:29:15 | 51.85756 | 7.15582 | 218° | 15km/h | 30509m | 4.5m/s | -42.2°C | 2.6% | 11.7hPa | 2.5V | 00:00:00 | 02:08:38 | 00:00:00 | |
| DL1XH-15 | 2026-09-04 01:29:14 | 51.85777 | 7.15577 | 147° | 22km/h | 30477m | 5.1m/s | -42.4°C | 2.6% | 11.8hPa | 2.5V | 08:30:00 | 02:08:32 | 00:00:00 | |
| DO2JMG | 2026-09-04 01:29:08 | 51.85781 | 7.15572 | 137° | 18km/h | 30471m | 5.7m/s | -42.5°C | 0% | 11.8hPa | 2.5V | 18:12:15 | 02:08:31 | 00:00:00 | |
| DL1XH-west | 2026-09-04 01:29:07 | 51.85784 | 7.15567 | 122° | 15km/h | 30465m | 6m/s | -42.5°C | 0% | 11.8hPa | 2.6V | 18:12:15 | 02:08:30 | 00:00:00 | |
| HSKMA3-T | 2026-09-04 01:29:05 | 51.85786 | 7.15557 | 103° | 13km/h | 30455m | 4.8m/s | -42.7°C | 0% | 11.8hPa | 2.5V | 18:12:15 | 02:08:28 | 00:00:00 | |
| BIOWL1-15 | 2026-09-04 01:29:00 | 51.85799 | 7.15516 | 118° | 22km/h | 30415m | 4.8m/s | -43°C | 0% | 11.9hPa | 2.5V | 18:12:15 | 02:08:21 | 00:00:00 | |
| DL1XH-west | 2026-09-04 01:28:57 | 51.85802 | 7.15508 | 124° | 26km/h | 30410m | 5.3m/s | -43°C | 0% | 11.9hPa | 2.6V | 18:12:15 | 02:08:20 | 00:00:00 | |
| AA1-15 | 2026-09-04 01:28:55 | 51.85811 | 7.15489 | 127° | 33km/h | 30398m | 5.4m/s | -43.2°C | 0% | 11.9hPa | 2.5V | 18:12:15 | 02:08:18 | 00:00:00 | |
| DF5WG-10 | 2026-09-04 01:28:55 | 51.85811 | 7.15488 | 127° | 24km/h | 30399m | 5.3m/s | -43.1°C | 2.6% | 11.8hPa | 2.5V | 00:00:00 | 02:08:18 | 00:00:00 | |
| DL1XH-15 | 2026-09-04 01:28:54 | 51.85823 | 7.15431 | 89° | 16km/h | 30368m | 4.3m/s | -43.6°C | 2.6% | 11.9hPa | 2.5V | 08:30:00 | 02:08:12 | 00:00:00 | |
| HSKMA3-T | 2026-09-04 01:28:54 | 51.85816 | 7.15478 | 123° | 33km/h | 30393m | 4.4m/s | -43.3°C | 0% | 11.9hPa | 2.5V | 18:12:15 | 02:08:17 | 00:00:00 | |
| BIOWL1-15 | 2026-09-04 01:28:49 | 51.85825 | 7.15419 | 128° | 16km/h | 30356m | 6.3m/s | -43.8°C | 0% | 12hPa | 2.6V | 18:12:15 | 02:08:10 | 00:00:00 | |
| DO2JMG | 2026-09-04 01:28:46 | 51.85828 | 7.15414 | 144° | 20km/h | 30350m | 5.7m/s | -43.9°C | 0% | 12hPa | 2.6V | 18:12:15 | 02:08:09 | 00:00:00 | |
| AA1-15 | 2026-09-04 01:28:45 | 51.85833 | 7.15409 | 152° | 24km/h | 30345m | 5.2m/s | -44°C | 0% | 12hPa | 2.5V | 18:12:15 | 02:08:08 | 00:00:00 | |
| HSKMA3-T | 2026-09-04 01:28:43 | 51.85844 | 7.15401 | 156° | 22km/h | 30334m | 6.5m/s | -44.2°C | 0% | 12hPa | 2.5V | 18:12:15 | 02:08:06 | 00:00:00 | |
| DB0UT-7 | 2026-09-04 01:28:43 | 51.85844 | 7.15401 | 156° | 22km/h | 30334m | 6.4m/s | -44.2°C | 2.8% | 12.0hPa | 2.6V | 00:00:00 | 02:08:06 | 00:00:00 | |
| GOEST3-10 | 2026-09-04 01:28:41 | 51.85854 | 7.15391 | 143° | 27km/h | 30323m | 4.7m/s | -44.3°C | 2.8% | 12.0hPa | 2.6V | 00:00:00 | 02:08:04 | 00:00:00 | |
| DB0NH | 2026-09-04 01:28:40 | 51.85858 | 7.15384 | 137° | 22km/h | 30318m | 5.5m/s | -44.4°C | 2.8% | 12.0hPa | 2.6V | 00:00:00 | 02:08:03 | 00:00:00 | |
| HTAHTA | 2026-09-04 01:28:39 | 51.85868 | 7.15367 | 126° | 31km/h | 30307m | 4.8m/s | -44.7°C | 0.8% | 12.1hPa | 2.6V | 00:00:00 | 00:00:00 | 00:00:00 | |
| DL8DAS-14 | 2026-09-04 01:28:38 | 51.85868 | 7.15367 | 126° | 31km/h | 30307m | 4.8m/s | -44.7°C | 0.8% | 12.1hPa | 2.6V | 00:00:00 | 00:00:00 | 00:00:00 | |
| DM0DOS-11 | 2026-09-04 01:28:36 | 51.85881 | 7.15312 | 121° | 16km/h | 30272m | 5.8m/s | -45.1°C | 2.9% | 12.1hPa | 2.6V | 08:30:00 | 02:07:54 | 00:00:00 | |
| BIOWL1-15 | 2026-09-04 01:28:36 | 51.85876 | 7.15346 | 114° | 27km/h | 30297m | 5m/s | -44.9°C | 0% | 12.1hPa | 2.6V | 18:12:15 | 02:07:59 | 00:00:00 | |
| DL1XH-west | 2026-09-04 01:28:35 | 51.85878 | 7.15337 | 104° | 22km/h | 30292m | 6.7m/s | -44.9°C | 0% | 12.1hPa | 2.5V | 18:12:15 | 02:07:58 | 00:00:00 | |
| AA1-15 | 2026-09-04 01:28:34 | 51.85879 | 7.15329 | 94° | 18km/h | 30286m | 5.5m/s | -45°C | 0.1% | 12.1hPa | 2.5V | 18:12:15 | 02:07:57 | 00:00:00 | |
| HSKMA3-T | 2026-09-04 01:28:32 | 51.85879 | 7.15317 | 103° | 13km/h | 30277m | 3.9m/s | -45.1°C | 0% | 12.1hPa | 2.6V | 18:12:15 | 02:07:55 | 00:00:00 | |
| BIOWL1-15 | 2026-09-04 01:28:25 | 51.85908 | 7.15265 | 116° | 26km/h | 30238m | 6.2m/s | -45.4°C | 0.1% | 12.2hPa | 2.5V | 18:12:15 | 02:07:48 | 00:00:00 | |
| DO2JMG | 2026-09-04 01:28:24 | 51.85910 | 7.15256 | 101° | 22km/h | 30232m | 5.3m/s | -45.5°C | 0.1% | 12.2hPa | 2.5V | 18:12:15 | 02:07:47 | 00:00:00 | |
| AA1-15 | 2026-09-04 01:28:23 | 51.85910 | 7.15247 | 90° | 20km/h | 30227m | 4.6m/s | -45.5°C | 0.1% | 12.2hPa | 2.5V | 18:12:15 | 02:07:46 | 00:00:00 | |
| DM0DOS-11 | 2026-09-04 01:28:22 | 51.85911 | 7.15232 | 96° | 18km/h | 30217m | 6m/s | -45.5°C | 3% | 12.2hPa | 2.6V | 08:30:00 | 02:07:44 | 00:00:00 | |
| GOEST3-10 | 2026-09-04 01:28:21 | 51.85911 | 7.15232 | 97° | 16km/h | 30217m | 6.0m/s | -45.5°C | 3.0% | 12.2hPa | 2.6V | 00:00:00 | 02:07:44 | 08:30:00 | |
| HSKMA3-T | 2026-09-04 01:28:21 | 51.85911 | 7.15232 | 96° | 18km/h | 30217m | 6m/s | -45.5°C | 0.1% | 12.2hPa | 2.6V | 18:12:15 | 02:07:44 | 00:00:00 | |
| NBG1-10 | 2026-09-04 01:28:19 | 51.85913 | 7.15218 | 117° | 11km/h | 30206m | 4.4m/s | -45.6°C | 3.0% | 12.2hPa | 2.5V | 00:00:00 | 02:07:42 | 00:00:00 | |
| DC6BW-12 | 2026-09-04 01:28:18 | 51.85913 | 7.15218 | 118° | 18km/h | 30206m | 4.5m/s | -45.6°C | 0.8% | 12.3hPa | 2.6V | 00:00:00 | 00:00:00 | 00:00:00 | |
| DO1YAY-16 | 2026-09-04 01:28:17 | 51.85919 | 7.15200 | 111° | 13km/h | 30190m | 6.4m/s | -45.7°C | 0.8% | 12.3hPa | 2.6V | 00:00:00 | 00:00:00 | 00:00:00 | |
| DM0DOS-11 | 2026-09-04 01:28:16 | 51.85928 | 7.15169 | 127° | 24km/h | 30161m | 5.7m/s | -45.9°C | 3.1% | 12.3hPa | 2.6V | 08:30:00 | 02:07:34 | 00:00:00 | |
| BIOWL1-15 | 2026-09-04 01:28:15 | 51.85932 | 7.15161 | 129° | 22km/h | 30157m | 4.3m/s | -45.9°C | 0.2% | 12.3hPa | 2.5V | 18:12:15 | 02:07:33 | 00:00:00 | |
| DL1XH-west | 2026-09-04 01:28:14 | 51.85921 | 7.15189 | 109° | 15km/h | 30179m | 4.9m/s | -45.8°C | 0.1% | 12.3hPa | 2.5V | 18:12:15 | 02:07:37 | 00:00:00 | |
| DO2JMG | 2026-09-04 01:28:13 | 51.85923 | 7.15183 | 116° | 18km/h | 30174m | 5.1m/s | -45.8°C | 0.2% | 12.3hPa | 2.5V | 18:12:15 | 02:07:36 | 00:00:00 | |
| AA1-15 | 2026-09-04 01:28:12 | 51.85925 | 7.15176 | 122° | 22km/h | 30168m | 6.6m/s | -45.8°C | 0.2% | 12.3hPa | 2.6V | 18:12:15 | 02:07:35 | 00:00:00 | |
| HSKMA3-T | 2026-09-04 01:28:11 | 51.85928 | 7.15169 | 128° | 24km/h | 30162m | 5.7m/s | -45.9°C | 0.2% | 12.3hPa | 2.6V | 18:12:15 | 02:07:34 | 00:00:00 | |
| DL1XH-west | 2026-09-04 01:28:04 | 51.85936 | 7.15141 | 65° | 7km/h | 30125m | 5.6m/s | -46°C | 0.2% | 12.4hPa | 2.5V | 18:12:15 | 02:07:27 | 00:00:00 | |
| DO2JMG | 2026-09-04 01:28:03 | 51.85935 | 7.15137 | 92° | 11km/h | 30119m | 6.2m/s | -46.1°C | 0.1% | 12.4hPa | 2.5V | 18:12:15 | 02:07:26 | 00:00:00 | |
| DM0DOS-11 | 2026-09-04 01:28:02 | 51.85937 | 7.15124 | 105° | 20km/h | 30108m | 5.2m/s | -46.2°C | 3.1% | 12.4hPa | 2.6V | 08:30:00 | 02:07:24 | 00:00:00 | |
| AA1-15 | 2026-09-04 01:28:01 | 51.85937 | 7.15124 | 106° | 22km/h | 30108m | 5.2m/s | -46.2°C | 0.2% | 12.4hPa | 2.6V | 18:12:15 | 02:07:24 | 00:00:00 | |
| HSKMA3-T | 2026-09-04 01:28:00 | 51.85939 | 7.15116 | 106° | 22km/h | 30102m | 5.7m/s | -46.2°C | 0.2% | 12.4hPa | 2.5V | 18:12:15 | 02:07:23 | 00:00:00 | |
| BIOWL1-15 | 2026-09-04 01:27:59 | 51.85940 | 7.15107 | 105° | 22km/h | 30096m | 6.5m/s | -46.3°C | 0.2% | 12.5hPa | 2.5V | 18:12:15 | 02:07:22 | 00:00:00 | |
| DC6BW-12 | 2026-09-04 01:27:57 | 51.85941 | 7.15099 | 106° | 20km/h | 30090m | 5.5m/s | -46.4°C | 0.8% | 12.5hPa | 2.6V | 00:00:00 | 00:00:00 | 00:00:00 | |
| DM0DOS-11 | 2026-09-04 01:27:56 | 51.85951 | 7.15053 | 91° | 2km/h | 30052m | 6.8m/s | -46.5°C | 3.1% | 12.5hPa | 2.6V | 08:30:00 | 02:07:14 | 00:00:00 | |
| GOEST3-10 | 2026-09-04 01:27:56 | 51.85944 | 7.15082 | 107° | 18km/h | 30079m | 6.2m/s | -46.3°C | 3.1% | 12.4hPa | 2.5V | 00:00:00 | 00:00:00 | 00:00:00 | |
| DF5WG-10 | 2026-09-04 01:27:55 | 51.85946 | 7.15073 | 110° | 11km/h | 30073m | 5.9m/s | -46.4°C | 3.1% | 12.5hPa | 2.5V | 00:00:00 | 02:07:18 | 00:00:00 | |
| DL1XH-15 | 2026-09-04 01:27:54 | 51.85950 | 7.15053 | 329° | 2km/h | 30040m | 4.6m/s | -46.5°C | 3.1% | 12.6hPa | 2.5V | 08:30:00 | 02:07:12 | 00:00:00 | |
| DL1XH-west | 2026-09-04 01:27:53 | 51.85950 | 7.15059 | 114° | 15km/h | 30063m | 4.2m/s | -46.5°C | 0.2% | 12.5hPa | 2.5V | 18:12:15 | 02:07:16 | 00:00:00 | |
| DF8AY | 2026-09-04 01:27:52 | 51.85951 | 7.15055 | 113° | 9km/h | 30058m | 5.9m/s | -46.5°C | 0.2% | 12.5hPa | 2.6V | 18:12:15 | 02:07:15 | 00:00:00 | |
| AA1-15 | 2026-09-04 01:27:50 | 51.85951 | 7.15052 | 329° | 2km/h | 30046m | 5.5m/s | -46.5°C | 0.2% | 12.6hPa | 2.5V | 18:12:15 | 02:07:13 | 00:00:00 | |
| BIOWL1-15 | 2026-09-04 01:27:49 | 51.85951 | 7.15053 | 329° | 2km/h | 30040m | 4.6m/s | -46.5°C | 0.2% | 12.6hPa | 2.5V | 18:12:15 | 02:07:12 | 00:00:00 | |
| SONDE2-11 | 2026-09-04 01:27:48 | 51.85950 | 7.15053 | 102° | 2km/h | 30036m | 5.4m/s | -46.5°C | 0.8% | 12.6hPa | 2.5V | 00:00:00 | 00:00:00 | 00:00:00 | |
| DO1YAY-16 | 2026-09-04 01:27:46 | 51.85954 | 7.15040 | 118° | 18km/h | 30019m | 4.9m/s | -46.6°C | 0.9% | 12.6hPa | 2.5V | 00:00:00 | 00:00:00 | 00:00:00 | |
| DF5WG-10 | 2026-09-04 01:27:45 | 51.85954 | 7.15040 | 119° | 15km/h | 30019m | 4.9m/s | -46.5°C | 3.1% | 12.6hPa | 2.5V | 00:00:00 | 02:07:08 | 00:00:00 | |
| DL1XH-15 | 2026-09-04 01:27:44 | 51.85962 | 7.15003 | 102° | 13km/h | 29986m | 6.2m/s | -46.7°C | 3.2% | 12.7hPa | 2.5V | 08:30:00 | 02:07:02 | 00:00:00 | |
| DO2JMG | 2026-09-04 01:27:43 | 51.85958 | 7.15026 | 111° | 16km/h | 30007m | 5.7m/s | -46.6°C | 0.2% | 12.6hPa | 2.5V | 18:12:15 | 02:07:06 | 00:00:00 | |
| DB0UT-7 | 2026-09-04 01:27:43 | 51.85958 | 7.15026 | 112° | 13km/h | 30008m | 5.7m/s | -46.6°C | 3.2% | 12.6hPa | 2.6V | 00:00:00 | 02:07:06 | 00:00:00 | |
| DM0DOS-11 | 2026-09-04 01:27:42 | 51.85960 | 7.15014 | 99° | 13km/h | 29997m | 4.9m/s | -46.7°C | 3.2% | 12.6hPa | 2.6V | 08:30:00 | 02:07:04 | 00:00:00 | |
| DL1XH-west | 2026-09-04 01:27:42 | 51.85960 | 7.15020 | 105° | 15km/h | 30002m | 5.2m/s | -46.7°C | 0.3% | 12.6hPa | 2.6V | 18:12:15 | 02:07:05 | 00:00:00 | |
| AA1-15 | 2026-09-04 01:27:39 | 51.85962 | 7.15003 | 102° | 13km/h | 29986m | 6.3m/s | -46.7°C | 0.3% | 12.7hPa | 2.5V | 18:12:15 | 02:07:02 | 00:00:00 | |
| BIOWL1-15 | 2026-09-04 01:27:38 | 51.85963 | 7.14998 | 109° | 13km/h | 29980m | 5.5m/s | -46.8°C | 0.3% | 12.7hPa | 2.5V | 18:12:15 | 02:07:01 | 00:00:00 | |
| HTAHTA | 2026-09-04 01:27:37 | 51.85965 | 7.14992 | 144° | 4km/h | 29970m | 5.1m/s | -46.8°C | 0.9% | 12.7hPa | 2.6V | 00:00:00 | 00:00:00 | 00:00:00 | |
| GOEST3-10 | 2026-09-04 01:27:36 | 51.85965 | 7.14992 | 145° | 7km/h | 29970m | 5.0m/s | -46.7°C | 3.2% | 12.6hPa | 2.6V | 00:00:00 | 00:00:00 | 08:30:00 | |
| DF5WG-10 | 2026-09-04 01:27:35 | 51.85966 | 7.14992 | 220° | 13km/h | 29964m | 6.3m/s | -46.7°C | 3.2% | 12.7hPa | 2.5V | 00:00:00 | 02:06:58 | 00:00:00 | |
| DL1XH-15 | 2026-09-04 01:27:34 | 51.85976 | 7.15003 | 143° | 16km/h | 29931m | 5.6m/s | -46.8°C | 3.3% | 12.8hPa | 2.5V | 08:30:00 | 02:06:52 | 00:00:00 | |
| DL1XH-west | 2026-09-04 01:27:32 | 51.85968 | 7.15002 | 238° | 11km/h | 29947m | 3.9m/s | -46.8°C | 0.2% | 12.7hPa | 2.6V | 18:12:15 | 02:06:55 | 00:00:00 | |
| DF8AY | 2026-09-04 01:27:31 | 51.85970 | 7.15005 | 208° | 11km/h | 29943m | 5.2m/s | -46.8°C | 0.3% | 12.8hPa | 2.6V | 18:12:15 | 02:06:54 | 00:00:00 | |
| HSKMA3-T | 2026-09-04 01:27:29 | 51.85976 | 7.15003 | 144° | 16km/h | 29931m | 5.6m/s | -46.8°C | 0.3% | 12.8hPa | 2.5V | 18:12:15 | 02:06:52 | 00:00:00 | |
| AA1-15 | 2026-09-04 01:27:28 | 51.85980 | 7.14998 | 129° | 22km/h | 29926m | 4.9m/s | -46.8°C | 0.2% | 12.8hPa | 2.5V | 18:12:15 | 02:06:51 | 00:00:00 | |
| BIOWL1-15 | 2026-09-04 01:27:27 | 51.85985 | 7.14984 | 114° | 18km/h | 29915m | 5.8m/s | -46.8°C | 0.3% | 12.8hPa | 2.6V | 18:12:15 | 02:06:49 | 00:00:00 | |
| DM0DOS-11 | 2026-09-04 01:27:26 | 51.85992 | 7.14979 | 209° | 15km/h | 29887m | 6.4m/s | -46.8°C | 3.2% | 12.9hPa | 2.6V | 08:30:00 | 02:06:44 | 00:00:00 | |
| DO2JMG | 2026-09-04 01:27:22 | 51.85989 | 7.14976 | 217° | 9km/h | 29893m | 5.4m/s | -46.8°C | 0.3% | 12.8hPa | 2.6V | 18:12:15 | 02:06:45 | 00:00:00 | |
| DL1XH-west | 2026-09-04 01:27:21 | 51.85992 | 7.14979 | 210° | 15km/h | 29887m | 6.4m/s | -46.8°C | 0.3% | 12.9hPa | 2.6V | 18:12:15 | 02:06:44 | 00:00:00 | |
| DF8AY | 2026-09-04 01:27:20 | 51.85996 | 7.14981 | 199° | 18km/h | 29881m | 6.4m/s | -46.8°C | 0.3% | 12.9hPa | 2.5V | 18:12:15 | 02:06:43 | 00:00:00 | |
| AA1-15 | 2026-09-04 01:27:18 | 51.86006 | 7.14983 | 178° | 22km/h | 29869m | 5.4m/s | -46.8°C | 0.3% | 12.9hPa | 2.5V | 18:12:15 | 02:06:41 | 00:00:00 | |
| BIOWL1-15 | 2026-09-04 01:27:16 | 51.86019 | 7.14980 | 162° | 11km/h | 29853m | 6.7m/s | -46.8°C | 0.3% | 12.9hPa | 2.5V | 18:12:15 | 02:06:38 | 00:00:00 | |
| DC6BW-12 | 2026-09-04 01:27:16 | 51.86016 | 7.14981 | 167° | 16km/h | 29860m | 5.1m/s | -46.8°C | 0.9% | 12.9hPa | 2.5V | 00:00:00 | 00:00:00 | 00:00:00 | |
| DO1YAY-16 | 2026-09-04 01:27:15 | 51.86021 | 7.14978 | 147° | 5km/h | 29847m | 6.1m/s | -46.8°C | 0.9% | 12.9hPa | 2.5V | 00:00:00 | 00:00:00 | 00:00:00 | |
| DL1XH-15 | 2026-09-04 01:27:14 | 51.86028 | 7.14960 | 138° | 18km/h | 29819m | 5.3m/s | -46.8°C | 3.2% | 13hPa | 2.5V | 08:30:00 | 02:06:32 | 00:00:00 | |
| DK5PH-5 | 2026-09-04 01:27:13 | 51.86022 | 7.14976 | 114° | 18km/h | 29842m | 5.2m/s | -46.7°C | 3.2% | 12.9hPa | 2.6V | 00:00:00 | 02:06:36 | 00:00:00 | |
| BIOWL7-15 | 2026-09-04 01:27:12 | 51.86022 | 7.14976 | 114° | 5km/h | 29842m | 5.2m/s | 0°C | 0% | 12.9hPa | 2.6V | 00:00:00 | 00:00:00 | 00:00:00 | |
| DM0DOS-11 | 2026-09-04 01:27:11 | 51.86023 | 7.14970 | 109° | 11km/h | 29830m | 6.5m/s | -46.8°C | 3.2% | 13hPa | 2.6V | 08:30:00 | 02:06:34 | 00:00:00 | |
| DO2JMG | 2026-09-04 01:27:11 | 51.86023 | 7.14970 | 110° | 11km/h | 29830m | 6.5m/s | -46.8°C | 0.3% | 13hPa | 2.6V | 18:12:15 | 02:06:34 | 00:00:00 | |
| DL1XH-west | 2026-09-04 01:27:10 | 51.86025 | 7.14965 | 124° | 16km/h | 29824m | 6m/s | -46.8°C | 0.3% | 13hPa | 2.5V | 18:12:15 | 02:06:33 | 00:00:00 | |
| DF8AY | 2026-09-04 01:27:09 | 51.86028 | 7.14960 | 139° | 18km/h | 29819m | 5.3m/s | -46.8°C | 0.3% | 13hPa | 2.5V | 18:12:15 | 02:06:32 | 00:00:00 | |
| AA1-15 | 2026-09-04 01:27:07 | 51.86036 | 7.14954 | 171° | 18km/h | 29807m | 7m/s | -46.9°C | 0.2% | 13hPa | 2.6V | 18:12:15 | 02:06:30 | 00:00:00 | |
| DM0DOS-11 | 2026-09-04 01:27:06 | 51.86069 | 7.14958 | 160° | 20km/h | 29772m | 5.1m/s | -46.8°C | 3.2% | 13.1hPa | 2.6V | 08:30:00 | 02:06:24 | 00:00:00 | |
| BIOWL1-15 | 2026-09-04 01:27:05 | 51.86058 | 7.14960 | 185° | 24km/h | 29784m | 6.6m/s | -46.9°C | 0.3% | 13.1hPa | 2.5V | 18:12:15 | 02:06:26 | 00:00:00 | |
| DO2JMG | 2026-09-04 01:27:00 | 51.86073 | 7.14955 | 146° | 15km/h | 29767m | 5.3m/s | -46.8°C | 0.3% | 13.1hPa | 2.5V | 18:12:15 | 02:06:23 | 00:00:00 | |
| DL1XH-west | 2026-09-04 01:26:59 | 51.86075 | 7.14951 | 127° | 11km/h | 29761m | 6.9m/s | -46.8°C | 0.2% | 13.1hPa | 2.5V | 18:12:15 | 02:06:22 | 00:00:00 | |
| DF8AY | 2026-09-04 01:26:58 | 51.86076 | 7.14947 | 98° | 9km/h | 29755m | 6.4m/s | -46.8°C | 0.2% | 13.1hPa | 2.5V | 18:12:15 | 02:06:21 | 00:00:00 | |
| HSKMA3-T | 2026-09-04 01:26:57 | 51.86076 | 7.14943 | 81° | 11km/h | 29749m | 5m/s | -46.7°C | 0.2% | 13.1hPa | 2.6V | 18:12:15 | 02:06:20 | 00:00:00 | |
| AA1-15 | 2026-09-04 01:26:56 | 51.86076 | 7.14938 | 89° | 13km/h | 29744m | 4.5m/s | -46.8°C | 0.3% | 13.1hPa | 2.6V | 18:12:15 | 02:06:19 | 00:00:00 | |
| DF5WG-10 | 2026-09-04 01:26:55 | 51.86077 | 7.14933 | 107° | 22km/h | 29740m | 5.1m/s | -46.7°C | 3.1% | 13.1hPa | 2.5V | 00:00:00 | 02:06:18 | 00:00:00 | |
| DL1XH-15 | 2026-09-04 01:26:54 | 51.86106 | 7.14903 | 177° | 26km/h | 29703m | 5.8m/s | -47°C | 3.2% | 13.2hPa | 2.5V | 08:30:00 | 02:06:12 | 00:00:00 | |
| BIOWL1-15 | 2026-09-04 01:26:54 | 51.86079 | 7.14927 | 123° | 20km/h | 29733m | 6.8m/s | -46.8°C | 0.2% | 13.1hPa | 2.5V | 18:12:15 | 02:06:17 | 00:00:00 | |
| DO2JMG | 2026-09-04 01:26:50 | 51.86100 | 7.14904 | 166° | 27km/h | 29709m | 6.8m/s | -46.9°C | 0.2% | 13.2hPa | 2.5V | 18:12:15 | 02:06:13 | 00:00:00 | |
| DL1XH-west | 2026-09-04 01:26:49 | 51.86107 | 7.14903 | 178° | 26km/h | 29703m | 5.8m/s | -47°C | 0.3% | 13.2hPa | 2.5V | 18:12:15 | 02:06:12 | 00:00:00 | |
| DF8AY | 2026-09-04 01:26:47 | 51.86118 | 7.14903 | 182° | 20km/h | 29693m | 4.7m/s | -47°C | 0.3% | 13.2hPa | 2.6V | 18:12:15 | 02:06:10 | 00:00:00 | |
| AA1-15 | 2026-09-04 01:26:46 | 51.86122 | 7.14903 | 169° | 18km/h | 29688m | 6.7m/s | -47.1°C | 0.3% | 13.3hPa | 2.6V | 18:12:15 | 02:06:09 | 00:00:00 | |
| SONDE2-11 | 2026-09-04 01:26:46 | 51.86126 | 7.14900 | 149° | 15km/h | 29681m | 6.4m/s | -47.1°C | 0.9% | 13.3hPa | 2.5V | 00:00:00 | 00:00:00 | 00:00:00 | |
| DF5WG-10 | 2026-09-04 01:26:45 | 51.86126 | 7.14900 | 150° | 18km/h | 29682m | 6.3m/s | -47.0°C | 3.2% | 13.2hPa | 2.5V | 00:00:00 | 02:06:08 | 08:30:00 | |
| DL1XH-15 | 2026-09-04 01:26:44 | 51.86131 | 7.14866 | 92° | 20km/h | 29645m | 6.7m/s | -47.3°C | 3.2% | 13.3hPa | 2.5V | 08:30:00 | 02:06:02 | 00:00:00 | |
| BIOWL1-15 | 2026-09-04 01:26:43 | 51.86131 | 7.14891 | 106° | 15km/h | 29669m | 5.8m/s | -47.2°C | 0.3% | 13.3hPa | 2.5V | 18:12:15 | 02:06:06 | 00:00:00 | |
| DO2JMG | 2026-09-04 01:26:40 | 51.86130 | 7.14874 | 84° | 16km/h | 29651m | 5.4m/s | -47.2°C | 0.2% | 13.3hPa | 2.5V | 18:12:15 | 02:06:03 | 00:00:00 | |
| DL1XH-west | 2026-09-04 01:26:38 | 51.86131 | 7.14858 | 103° | 24km/h | 29638m | 6.7m/s | -47.4°C | 0.3% | 13.3hPa | 2.5V | 18:12:15 | 02:06:01 | 00:00:00 | |
| DF8AY | 2026-09-04 01:26:37 | 51.86133 | 7.14849 | 112° | 24km/h | 29632m | 5.3m/s | -47.4°C | 0.3% | 13.4hPa | 2.6V | 18:12:15 | 02:06:00 | 00:00:00 | |
| AA1-15 | 2026-09-04 01:26:36 | 51.86136 | 7.14840 | 122° | 22km/h | 29627m | 4.8m/s | -47.5°C | 0.3% | 13.4hPa | 2.6V | 18:12:15 | 02:05:59 | 00:00:00 | |
| HSKMA3-T | 2026-09-04 01:26:35 | 51.86139 | 7.14833 | 134° | 20km/h | 29621m | 6.7m/s | -47.5°C | 0.4% | 13.4hPa | 2.5V | 18:12:15 | 02:05:58 | 00:00:00 | |
| HTAHTA | 2026-09-04 01:26:35 | 51.86142 | 7.14829 | 148° | 16km/h | 29615m | 6.7m/s | -47.5°C | 0.9% | 13.4hPa | 2.5V | 00:00:00 | 00:00:00 | 00:00:00 | |
| DL1XH-15 | 2026-09-04 01:26:34 | 51.86160 | 7.14812 | 122° | 18km/h | 29584m | 5.6m/s | -47.7°C | 3.3% | 13.5hPa | 2.5V | 08:30:00 | 02:05:52 | 00:00:00 | |
| DO2JMG | 2026-09-04 01:26:29 | 51.86159 | 7.14812 | 123° | 18km/h | 29584m | 5.6m/s | -47.7°C | 0.3% | 13.5hPa | 2.5V | 18:12:15 | 02:05:52 | 00:00:00 | |
| DL1XH-west | 2026-09-04 01:26:28 | 51.86162 | 7.14805 | 111° | 20km/h | 29579m | 5.1m/s | -47.7°C | 0.4% | 13.5hPa | 2.5V | 18:12:15 | 02:05:51 | 00:00:00 | |
| DF8AY | 2026-09-04 01:26:26 | 51.86164 | 7.14790 | 96° | 16km/h | 29568m | 6.9m/s | -47.7°C | 0.4% | 13.5hPa | 2.6V | 18:12:15 | 02:05:49 | 00:00:00 | |
| AA1-15 | 2026-09-04 01:26:25 | 51.86164 | 7.14783 | 93° | 15km/h | 29561m | 6.4m/s | -47.7°C | 0.4% | 13.5hPa | 2.5V | 18:12:15 | 02:05:48 | 00:00:00 | |
| BIOWL1-15 | 2026-09-04 01:26:21 | 51.86169 | 7.14757 | 120° | 20km/h | 29537m | 5.5m/s | -47.8°C | 0.4% | 13.6hPa | 2.6V | 18:12:15 | 02:05:44 | 00:00:00 | |
| DO2JMG | 2026-09-04 01:26:19 | 51.86175 | 7.14745 | 140° | 16km/h | 29526m | 6.1m/s | -47.8°C | 0.4% | 13.6hPa | 2.5V | 18:12:15 | 02:05:42 | 00:00:00 | |
| DL1XH-west | 2026-09-04 01:26:17 | 51.86181 | 7.14740 | 172° | 9km/h | 29513m | 5.6m/s | -47.8°C | 0.4% | 13.6hPa | 2.6V | 18:12:15 | 02:05:40 | 00:00:00 | |
| DF8AY | 2026-09-04 01:26:16 | 51.86183 | 7.14740 | 175° | 7km/h | 29508m | 4.8m/s | -47.8°C | 0.4% | 13.6hPa | 2.6V | 18:12:15 | 02:05:39 | 00:00:00 | |
| HSKMA3-T | 2026-09-04 01:26:15 | 51.86184 | 7.14739 | 153° | 7km/h | 29503m | 5.8m/s | -47.8°C | 0.4% | 13.6hPa | 2.5V | 18:12:15 | 02:05:38 | 00:00:00 | |
| AA1-15 | 2026-09-04 01:26:14 | 51.86186 | 7.14737 | 122° | 9km/h | 29496m | 6.5m/s | -47.8°C | 0.4% | 13.6hPa | 2.5V | 18:12:15 | 02:05:37 | 00:00:00 | |
| DO2JMG | 2026-09-04 01:26:08 | 51.86181 | 7.14714 | 16° | 9km/h | 29460m | 5.4m/s | -47.8°C | 0.4% | 13.7hPa | 2.5V | 18:12:15 | 02:05:31 | 00:00:00 | |
| DL1XH-west | 2026-09-04 01:26:07 | 51.86179 | 7.14713 | 10° | 7km/h | 29455m | 5.1m/s | -47.8°C | 0.4% | 13.7hPa | 2.6V | 18:12:15 | 02:05:30 | 00:00:00 | |
| DM0DOS-11 | 2026-09-04 01:26:06 | 51.86183 | 7.14716 | 244° | 13km/h | 29418m | 6.9m/s | -48.1°C | 3.3% | 13.8hPa | 2.6V | 08:30:00 | 02:05:24 | 00:00:00 | |
| DF8AY | 2026-09-04 01:26:06 | 51.86178 | 7.14712 | 29° | 4km/h | 29449m | 6.5m/s | -47.8°C | 0.3% | 13.7hPa | 2.6V | 18:12:15 | 02:05:29 | 00:00:00 | |
| HSKMA3-T | 2026-09-04 01:26:05 | 51.86177 | 7.14711 | 106° | 4km/h | 29442m | 6.5m/s | -47.9°C | 0.4% | 13.8hPa | 2.5V | 18:12:15 | 02:05:28 | 00:00:00 | |
| DJ2KF-10 | 2026-09-04 01:26:05 | 51.86177 | 7.14711 | 106° | 13km/h | 29443m | 6.4m/s | -47.8°C | 3.3% | 13.7hPa | 2.5V | 00:00:00 | 02:05:28 | 00:00:00 | |
| DL1XH-15 | 2026-09-04 01:26:04 | 51.86184 | 7.14727 | 277° | 13km/h | 29406m | 5.5m/s | -48.3°C | 3.4% | 13.8hPa | 2.5V | 08:30:00 | 02:05:22 | 00:00:00 | |
| AA1-15 | 2026-09-04 01:26:03 | 51.86179 | 7.14711 | 198° | 7km/h | 29431m | 5.4m/s | -48°C | 0.4% | 13.8hPa | 2.5V | 18:12:15 | 02:05:26 | 00:00:00 | |
| DO2JMG | 2026-09-04 01:25:58 | 51.86183 | 7.14731 | 296° | 9km/h | 29400m | 6.5m/s | -48.3°C | 0.4% | 13.8hPa | 2.5V | 18:12:15 | 02:05:21 | 00:00:00 | |
| DL1XH-west | 2026-09-04 01:25:57 | 51.86182 | 7.14734 | 335° | 7km/h | 29394m | 6.7m/s | -48.4°C | 0.4% | 13.9hPa | 2.6V | 18:12:15 | 02:05:20 | 00:00:00 | |
| HSKMA3-T | 2026-09-04 01:25:55 | 51.86177 | 7.14734 | 11° | 13km/h | 29382m | 5.1m/s | -48.5°C | 0.5% | 13.9hPa | 2.5V | 18:12:15 | 02:05:18 | 00:00:00 | |
| AA1-15 | 2026-09-04 01:25:53 | 51.86170 | 7.14734 | 347° | 15km/h | 29370m | 6.7m/s | -48.6°C | 0.6% | 13.9hPa | 2.5V | 18:12:15 | 02:05:16 | 00:00:00 | |
| BIOWL1-15 | 2026-09-04 01:25:48 | 51.86160 | 7.14750 | 283° | 13km/h | 29339m | 5.2m/s | -48.5°C | 0.5% | 14hPa | 2.5V | 18:12:15 | 02:05:11 | 00:00:00 | |
| DO2JMG | 2026-09-04 01:25:47 | 51.86159 | 7.14756 | 282° | 16km/h | 29334m | 5.2m/s | -48.4°C | 0.5% | 14hPa | 2.6V | 18:12:15 | 02:05:10 | 00:00:00 | |
| DL4BBY-15 | 2026-09-04 01:25:47 | 51.86159 | 7.14756 | 283° | 15km/h | 29335m | 5.1m/s | -48.5°C | 0% | 0hPa | 2.6V | 00:00:00 | 00:00:00 | 00:00:00 | |
| DM0DOS-11 | 2026-09-04 01:25:46 | 51.86148 | 7.14806 | 301° | 13km/h | 29297m | 6.3m/s | -48.4°C | 3.6% | 14.1hPa | 2.6V | 08:30:00 | 02:05:04 | 00:00:00 | |
| DL1XH-west | 2026-09-04 01:25:46 | 51.86158 | 7.14764 | 283° | 22km/h | 29328m | 7.3m/s | -48.4°C | 0.5% | 14hPa | 2.6V | 18:12:15 | 02:05:09 | 00:00:00 | |
| HSKMA3-T | 2026-09-04 01:25:44 | 51.86155 | 7.14783 | 289° | 26km/h | 29315m | 5.2m/s | -48.4°C | 0.6% | 14hPa | 2.5V | 18:12:15 | 02:05:07 | 00:00:00 | |
| AA1-15 | 2026-09-04 01:25:42 | 51.86150 | 7.14800 | 296° | 20km/h | 29304m | 7m/s | -48.4°C | 0.5% | 14hPa | 2.6V | 18:12:15 | 02:05:05 | 00:00:00 | |
| BIOWL1-15 | 2026-09-04 01:25:37 | 51.86142 | 7.14820 | 296° | 15km/h | 29274m | 6.6m/s | -48.2°C | 0.4% | 14.1hPa | 2.6V | 18:12:15 | 02:05:00 | 00:00:00 | |
| DF8AY | 2026-09-04 01:25:35 | 51.86140 | 7.14846 | 256° | 15km/h | 29250m | 7.5m/s | -48.1°C | 0.5% | 14.2hPa | 2.5V | 18:12:15 | 02:04:56 | 00:00:00 | |
| DL1XH-west | 2026-09-04 01:25:35 | 51.86140 | 7.14833 | 279° | 18km/h | 29262m | 5.1m/s | -48.1°C | 0.5% | 14.1hPa | 2.5V | 18:12:15 | 02:04:58 | 00:00:00 | |
| HSKMA3-T | 2026-09-04 01:25:34 | 51.86140 | 7.14840 | 269° | 16km/h | 29257m | 5.5m/s | -48.1°C | 0.5% | 14.2hPa | 2.5V | 18:12:15 | 02:04:57 | 00:00:00 | |
| AA1-15 | 2026-09-04 01:25:32 | 51.86141 | 7.14852 | 245° | 15km/h | 29244m | 6.3m/s | -48°C | 0.5% | 14.2hPa | 2.6V | 18:12:15 | 02:04:55 | 00:00:00 | |
| DM0DOS-11 | 2026-09-04 01:25:30 | 51.86144 | 7.14862 | 250° | 15km/h | 29232m | 6.1m/s | -47.9°C | 3.5% | 14.2hPa | 2.5V | 08:30:00 | 02:04:53 | 00:00:00 | |
| BIOWL1-15 | 2026-09-04 01:25:27 | 51.86146 | 7.14882 | 274° | 15km/h | 29214m | 4.8m/s | -47.8°C | 0.5% | 14.2hPa | 2.6V | 18:12:15 | 02:04:50 | 00:00:00 | |
| DO8TBO-1 | 2026-09-04 01:25:26 | 51.86145 | 7.14888 | 274° | 9km/h | 29209m | 6.3m/s | -47.7°C | 3.5% | 14.2hPa | 2.5V | 00:00:00 | 02:04:49 | 00:00:00 | |
| DM0DOS-11 | 2026-09-04 01:25:25 | 51.86147 | 7.14912 | 269° | 16km/h | 29173m | 5.3m/s | -47.6°C | 3.4% | 14.3hPa | 2.5V | 08:30:00 | 02:04:43 | 00:00:00 | |
| HSKMA3-T | 2026-09-04 01:25:24 | 51.86146 | 7.14895 | 259° | 7km/h | 29196m | 5.5m/s | -47.7°C | 0.5% | 14.3hPa | 2.5V | 18:12:15 | 02:04:47 | 00:00:00 | |
| DF8AY | 2026-09-04 01:25:23 | 51.86146 | 7.14897 | 256° | 7km/h | 29191m | 4.8m/s | -47.7°C | 0.5% | 14.3hPa | 2.5V | 18:12:15 | 02:04:46 | 00:00:00 | |
| AA1-15 | 2026-09-04 01:25:21 | 51.86147 | 7.14906 | 269° | 15km/h | 29179m | 6.7m/s | -47.6°C | 0.5% | 14.3hPa | 2.6V | 18:12:15 | 02:04:44 | 00:00:00 | |
| BIOWL1-15 | 2026-09-04 01:25:20 | 51.86150 | 7.14932 | 212° | 9km/h | 29150m | 6.8m/s | -47.6°C | 0.5% | 14.4hPa | 2.6V | 18:12:15 | 02:04:39 | 00:00:00 | |
| DO2JMG | 2026-09-04 01:25:17 | 51.86149 | 7.14929 | 242° | 11km/h | 29157m | 6.7m/s | -47.6°C | 0.5% | 14.4hPa | 2.6V | 18:12:15 | 02:04:40 | 00:00:00 | |
| DL4BBY-15 | 2026-09-04 01:25:17 | 51.86148 | 7.14929 | 242° | 9km/h | 29157m | 6.7m/s | -47.6°C | 0% | 0hPa | 2.5V | 00:00:00 | 00:00:00 | 00:00:00 | |
| DM0DOS-11 | 2026-09-04 01:25:15 | 51.86157 | 7.14946 | 274° | 11km/h | 29114m | 5.6m/s | -47.3°C | 3.4% | 14.4hPa | 2.5V | 08:30:00 | 02:04:33 | 00:00:00 | |
| DL1XH-west | 2026-09-04 01:25:13 | 51.86156 | 7.14936 | 222° | 7km/h | 29133m | 6.2m/s | -47.4°C | 0.4% | 14.4hPa | 2.5V | 18:12:15 | 02:04:36 | 00:00:00 | |
| AA1-15 | 2026-09-04 01:25:11 | 51.86157 | 7.14942 | 272° | 11km/h | 29120m | 5.7m/s | -47.3°C | 0.4% | 14.4hPa | 2.6V | 18:12:15 | 02:04:34 | 00:00:00 | |
| DO2JMG | 2026-09-04 01:25:07 | 51.86158 | 7.14956 | 227° | 5km/h | 29096m | 5.5m/s | -47.2°C | 0.4% | 14.5hPa | 2.6V | 18:12:15 | 02:04:30 | 00:00:00 | |
| DM0DOS-11 | 2026-09-04 01:25:05 | 51.86165 | 7.14968 | 159° | 9km/h | 29055m | 6.5m/s | -46.9°C | 3.3% | 14.6hPa | 2.5V | 08:30:00 | 02:04:23 | 00:00:00 | |
| BIOWL1-15 | 2026-09-04 01:25:05 | 51.86160 | 7.14960 | 236° | 7km/h | 29084m | 6.4m/s | -47.1°C | 0.4% | 14.5hPa | 2.5V | 18:12:15 | 02:04:28 | 00:00:00 | |
| DJ2KF-10 | 2026-09-04 01:25:05 | 51.86160 | 7.14960 | 237° | 7km/h | 29085m | 6.3m/s | -47.0°C | 3.4% | 14.5hPa | 2.5V | 00:00:00 | 02:04:28 | 00:00:00 | |
| DL1XH-15 | 2026-09-04 01:25:04 | 51.86167 | 7.14966 | 151° | 11km/h | 29049m | 5.3m/s | -46.8°C | 3.3% | 14.6hPa | 2.5V | 08:30:00 | 02:04:22 | 00:00:00 | |
| DF8AY | 2026-09-04 01:25:03 | 51.86162 | 7.14967 | 231° | 5km/h | 29067m | 4.9m/s | -46.9°C | 0.3% | 14.6hPa | 2.6V | 18:12:15 | 02:04:25 | 00:00:00 | |
| HSKMA3-T | 2026-09-04 01:25:03 | 51.86162 | 7.14965 | 252° | 7km/h | 29072m | 5.2m/s | -47°C | 0.4% | 14.6hPa | 2.5V | 18:12:15 | 02:04:26 | 00:00:00 | |
| AA1-15 | 2026-09-04 01:25:00 | 51.86165 | 7.14968 | 160° | 9km/h | 29055m | 6.5m/s | -46.9°C | 0.4% | 14.6hPa | 2.5V | 18:12:15 | 02:04:23 | 00:00:00 | |
| DO2JMG | 2026-09-04 01:24:56 | 51.86172 | 7.14965 | 247° | 5km/h | 29033m | 6.8m/s | -46.7°C | 0.3% | 14.6hPa | 2.6V | 18:12:15 | 02:04:19 | 00:00:00 | |
| BIOWL1-15 | 2026-09-04 01:24:55 | 51.86172 | 7.14967 | 269° | 9km/h | 29026m | 5.8m/s | -46.7°C | 0.3% | 14.6hPa | 2.5V | 18:12:15 | 02:04:18 | 00:00:00 | |
| DF5WG-10 | 2026-09-04 01:24:55 | 51.86172 | 7.14967 | 270° | 11km/h | 29027m | 5.7m/s | -46.7°C | 3.2% | 14.6hPa | 2.5V | 00:00:00 | 02:04:18 | 00:00:00 | |
| DL1XH-15 | 2026-09-04 01:24:54 | 51.86180 | 7.14985 | 200° | 11km/h | 28993m | 5.1m/s | -46.7°C | 3.3% | 14.7hPa | 2.5V | 08:30:00 | 02:04:12 | 00:00:00 | |
| HSKMA3-T | 2026-09-04 01:24:53 | 51.86173 | 7.14975 | 259° | 11km/h | 29015m | 6m/s | -46.7°C | 0.3% | 14.7hPa | 2.5V | 18:12:15 | 02:04:16 | 00:00:00 | |
| DF8AY | 2026-09-04 01:24:52 | 51.86174 | 7.14979 | 234° | 9km/h | 29009m | 6.8m/s | -46.7°C | 0.3% | 14.7hPa | 2.6V | 18:12:15 | 02:04:15 | 00:00:00 | |
| AA1-15 | 2026-09-04 01:24:50 | 51.86178 | 7.14983 | 199° | 11km/h | 28997m | 5.2m/s | -46.7°C | 0.3% | 14.7hPa | 2.5V | 18:12:15 | 02:04:13 | 00:00:00 | |
| DM0DOS-11 | 2026-09-04 01:24:50 | 51.86178 | 7.14983 | 199° | 11km/h | 28997m | 5.2m/s | -46.7°C | 3.2% | 14.7hPa | 2.5V | 08:30:00 | 02:04:13 | 00:00:00 | |
| BIOWL1-15 | 2026-09-04 01:24:49 | 51.86190 | 7.14993 | 194° | 11km/h | 28970m | 5.9m/s | -46.7°C | 0.3% | 14.8hPa | 2.5V | 18:12:15 | 02:04:08 | 00:00:00 | |
| DO2JMG | 2026-09-04 01:24:46 | 51.86187 | 7.14991 | 211° | 11km/h | 28975m | 4.7m/s | -46.7°C | 0.3% | 14.8hPa | 2.6V | 18:12:15 | 02:04:09 | 00:00:00 | |
| DF5WG-10 | 2026-09-04 01:24:45 | 51.86190 | 7.14993 | 195° | 7km/h | 28970m | 5.9m/s | -46.6°C | 3.2% | 14.7hPa | 2.5V | 00:00:00 | 02:04:08 | 00:00:00 | |
| DL1XH-15 | 2026-09-04 01:24:44 | 51.86202 | 7.14991 | 314° | 2km/h | 28935m | 5m/s | -46.6°C | 3.2% | 14.8hPa | 2.5V | 08:30:00 | 02:04:02 | 00:00:00 | |
| HSKMA3-T | 2026-09-04 01:24:42 | 51.86199 | 7.14992 | 166° | 9km/h | 28952m | 5m/s | -46.6°C | 0.3% | 14.8hPa | 2.6V | 18:12:15 | 02:04:05 | 00:00:00 | |
| AA1-15 | 2026-09-04 01:24:40 | 51.86202 | 7.14991 | 190° | 2km/h | 28940m | 6m/s | -46.6°C | 0.3% | 14.8hPa | 2.5V | 18:12:15 | 02:04:03 | 00:00:00 | |
| DO2JMG | 2026-09-04 01:24:35 | 51.86204 | 7.14988 | 151° | 11km/h | 28912m | 5.6m/s | -46.6°C | 0.3% | 14.9hPa | 2.6V | 18:12:15 | 02:03:58 | 00:00:00 | |
| DJ2KF-10 | 2026-09-04 01:24:35 | 51.86204 | 7.14988 | 151° | 11km/h | 28913m | 5.6m/s | -46.6°C | 3.2% | 14.9hPa | 2.6V | 00:00:00 | 02:03:58 | 00:00:00 | |
| DL1XH-15 | 2026-09-04 01:24:34 | 51.86221 | 7.14990 | 190° | 11km/h | 28879m | 6m/s | -46.5°C | 3.1% | 15hPa | 2.6V | 08:30:00 | 02:03:52 | 00:00:00 | |
| DL1XH-west | 2026-09-04 01:24:32 | 51.86213 | 7.14985 | 193° | 13km/h | 28896m | 6.7m/s | -46.6°C | 0.2% | 14.9hPa | 2.5V | 18:12:15 | 02:03:55 | 00:00:00 | |
| DF8AY | 2026-09-04 01:24:31 | 51.86216 | 7.14987 | 204° | 11km/h | 28890m | 5.4m/s | -46.6°C | 0.2% | 14.9hPa | 2.5V | 18:12:15 | 02:03:54 | 00:00:00 | |
| AA1-15 | 2026-09-04 01:24:29 | 51.86221 | 7.14990 | 191° | 11km/h | 28879m | 6m/s | -46.5°C | 0.2% | 15hPa | 2.6V | 18:12:15 | 02:03:52 | 00:00:00 | |
| DO2JMG | 2026-09-04 01:24:24 | 51.86233 | 7.14985 | 190° | 5km/h | 28851m | 6.5m/s | -46.8°C | 0.3% | 15.1hPa | 2.6V | 18:12:15 | 02:03:47 | 00:00:00 | |
| DL1XH-west | 2026-09-04 01:24:22 | 51.86235 | 7.14989 | 239° | 9km/h | 28839m | 5.4m/s | -46.8°C | 0.3% | 15.1hPa | 2.5V | 18:12:15 | 02:03:45 | 00:00:00 | |
| HSKMA3-T | 2026-09-04 01:24:21 | 51.86237 | 7.14993 | 233° | 11km/h | 28834m | 5.2m/s | -46.8°C | 0.2% | 15.1hPa | 2.5V | 18:12:15 | 02:03:44 | 00:00:00 | |
| DF8AY | 2026-09-04 01:24:20 | 51.86238 | 7.14995 | 217° | 9km/h | 28828m | 6.4m/s | -46.8°C | 0.2% | 15.1hPa | 2.5V | 18:12:15 | 02:03:43 | 00:00:00 | |
| AA1-15 | 2026-09-04 01:24:18 | 51.86243 | 7.14998 | 183° | 9km/h | 28816m | 4.8m/s | -46.9°C | 0.3% | 15.1hPa | 2.6V | 18:12:15 | 02:03:41 | 00:00:00 | |
| DL4BBY-15 | 2026-09-04 01:24:17 | 51.86245 | 7.14998 | 184° | 9km/h | 28812m | 5.1m/s | -46.9°C | 0% | 0hPa | 2.5V | 00:00:00 | 00:00:00 | 00:00:00 | |
| DB0ND-19 | 2026-09-04 01:24:16 | 51.86247 | 7.14998 | 200° | 5km/h | 28806m | 6.4m/s | -46.9°C | 0.9% | 15.2hPa | 2.5V | 00:00:00 | 00:00:00 | 00:00:00 | |
| DM0DOS-11 | 2026-09-04 01:24:15 | 51.86254 | 7.15007 | 202° | 11km/h | 28771m | 4.7m/s | -47.2°C | 3.2% | 15.2hPa | 2.5V | 08:30:00 | 02:03:33 | 00:00:00 | |
| DO2JMG | 2026-09-04 01:24:14 | 51.86249 | 7.15001 | 254° | 4km/h | 28794m | 5.1m/s | -47°C | 0.3% | 15.2hPa | 2.6V | 18:12:15 | 02:03:37 | 00:00:00 | |
| DL1XH-west | 2026-09-04 01:24:11 | 51.86252 | 7.15005 | 196° | 9km/h | 28777m | 5.7m/s | -47.2°C | 0.3% | 15.2hPa | 2.5V | 18:12:15 | 02:03:34 | 00:00:00 | |
| HSKMA3-T | 2026-09-04 01:24:10 | 51.86254 | 7.15007 | 202° | 11km/h | 28771m | 4.7m/s | -47.2°C | 0.3% | 15.2hPa | 2.5V | 18:12:15 | 02:03:33 | 00:00:00 | |
| DF8AY | 2026-09-04 01:24:09 | 51.86256 | 7.15009 | 216° | 13km/h | 28766m | 4.7m/s | -47.2°C | 0.3% | 15.2hPa | 2.6V | 18:12:15 | 02:03:32 | 00:00:00 | |
| AA1-15 | 2026-09-04 01:24:07 | 51.86261 | 7.15018 | 242° | 16km/h | 28754m | 6m/s | -47.3°C | 0.4% | 15.2hPa | 2.5V | 18:12:15 | 02:03:30 | 00:00:00 | |
| BIOWL1-15 | 2026-09-04 01:24:04 | 51.86267 | 7.15037 | 232° | 15km/h | 28738m | 6.6m/s | -47.5°C | 0.4% | 15.3hPa | 2.6V | 18:12:15 | 02:03:27 | 00:00:00 | |
| DO2JMG | 2026-09-04 01:24:03 | 51.86269 | 7.15040 | 214° | 11km/h | 28732m | 5.9m/s | -47.5°C | 0.4% | 15.3hPa | 2.6V | 18:12:15 | 02:03:26 | 00:00:00 | |
| DL1XH-west | 2026-09-04 01:24:01 | 51.86273 | 7.15043 | 197° | 5km/h | 28721m | 5.1m/s | -47.5°C | 0.3% | 15.3hPa | 2.5V | 18:12:15 | 02:03:24 | 00:00:00 | |
| DM0DOS-11 | 2026-09-04 01:24:00 | 51.86274 | 7.15044 | 222° | 4km/h | 28716m | 6.4m/s | -47.5°C | 3.3% | 15.4hPa | 2.5V | 08:30:00 | 02:03:23 | 00:00:00 | |
| HSKMA3-T | 2026-09-04 01:24:00 | 51.86274 | 7.15044 | 223° | 4km/h | 28716m | 6.4m/s | -47.5°C | 0.3% | 15.4hPa | 2.5V | 18:12:15 | 02:03:23 | 00:00:00 | |
| DF8AY | 2026-09-04 01:23:58 | 51.86275 | 7.15047 | 277° | 5km/h | 28704m | 4.6m/s | -47.6°C | 0.4% | 15.4hPa | 2.6V | 18:12:15 | 02:03:21 | 00:00:00 | |
| AA1-15 | 2026-09-04 01:23:57 | 51.86275 | 7.15050 | 266° | 5km/h | 28699m | 4.8m/s | -47.6°C | 0.4% | 15.4hPa | 2.5V | 18:12:15 | 02:03:20 | 00:00:00 | |
| EDDB2-12 | 2026-09-04 01:23:56 | 51.86276 | 7.15053 | 200° | 5km/h | 28688m | 6.7m/s | -47.6°C | 0.9% | 15.4hPa | 2.5V | 00:00:00 | 00:00:00 | 00:00:00 | |
| DM0DOS-11 | 2026-09-04 01:23:55 | 51.86286 | 7.15057 | 257° | 7km/h | 28660m | 6.2m/s | -47.7°C | 3.4% | 15.5hPa | 2.5V | 08:30:00 | 02:03:13 | 00:00:00 | |
| BIOWL1-15 | 2026-09-04 01:23:53 | 51.86281 | 7.15054 | 179° | 11km/h | 28676m | 4.3m/s | -47.7°C | 0.4% | 15.4hPa | 2.6V | 18:12:15 | 02:03:16 | 00:00:00 | |
| DL1XH-west | 2026-09-04 01:23:50 | 51.86286 | 7.15057 | 257° | 7km/h | 28660m | 6.2m/s | -47.7°C | 0.4% | 15.5hPa | 2.5V | 18:12:15 | 02:03:13 | 00:00:00 | |
| DF8AY | 2026-09-04 01:23:47 | 51.86286 | 7.15067 | 258° | 7km/h | 28644m | 5.5m/s | -47.8°C | 0.4% | 15.5hPa | 2.5V | 18:12:15 | 02:03:10 | 00:00:00 | |
| AA1-15 | 2026-09-04 01:23:46 | 51.86287 | 7.15069 | 212° | 5km/h | 28639m | 6.5m/s | -47.8°C | 0.4% | 15.6hPa | 2.5V | 18:12:15 | 02:03:09 | 00:00:00 | |
| DB0ND-19 | 2026-09-04 01:23:45 | 51.86291 | 7.15069 | 168° | 9km/h | 28628m | 4.6m/s | -47.9°C | 1.0% | 15.6hPa | 2.6V | 00:00:00 | 00:00:00 | 00:00:00 | |
| DO2JMG | 2026-09-04 01:23:43 | 51.86294 | 7.15068 | 169° | 11km/h | 28623m | 4.8m/s | -47.9°C | 0.4% | 15.6hPa | 2.6V | 18:12:15 | 02:03:06 | 00:00:00 | |
| BIOWL1-15 | 2026-09-04 01:23:42 | 51.86302 | 7.15077 | 225° | 11km/h | 28595m | 5.2m/s | -47.8°C | 0.4% | 15.6hPa | 2.6V | 18:12:15 | 02:03:01 | 00:00:00 | |
| DL1XH-west | 2026-09-04 01:23:39 | 51.86300 | 7.15074 | 240° | 9km/h | 28600m | 4.7m/s | -47.8°C | 0.4% | 15.6hPa | 2.5V | 18:12:15 | 02:03:02 | 00:00:00 | |
| DF8AY | 2026-09-04 01:23:36 | 51.86307 | 7.15082 | 192° | 13km/h | 28583m | 6.1m/s | -47.8°C | 0.4% | 15.7hPa | 2.6V | 18:12:15 | 02:02:59 | 00:00:00 | |
| AA1-15 | 2026-09-04 01:23:35 | 51.86310 | 7.15082 | 183° | 13km/h | 28577m | 5.1m/s | -47.8°C | 0.5% | 15.7hPa | 2.5V | 18:12:15 | 02:02:58 | 00:00:00 | |
| DO2JMG | 2026-09-04 01:23:33 | 51.86316 | 7.15083 | 189° | 9km/h | 28567m | 5.8m/s | -47.8°C | 0.4% | 15.7hPa | 2.5V | 18:12:15 | 02:02:56 | 00:00:00 | |
| BIOWL1-15 | 2026-09-04 01:23:30 | 51.86342 | 7.15079 | 146° | 11km/h | 28510m | 5.3m/s | -47.8°C | 0.4% | 15.8hPa | 2.5V | 18:12:15 | 02:02:46 | 00:00:00 | |
| HSKMA3-T | 2026-09-04 01:23:28 | 51.86324 | 7.15091 | 179° | 11km/h | 28540m | 6.7m/s | -47.8°C | 0.5% | 15.8hPa | 2.5V | 18:12:15 | 02:02:51 | 00:00:00 | |
| DL8DAS-15 | 2026-09-04 01:23:27 | 51.86324 | 7.15091 | 180° | 11km/h | 28541m | 6.7m/s | -47.8°C | 1.0% | 15.8hPa | 2.6V | 00:00:00 | 00:00:00 | 00:00:00 | |
| DM0DOS-11 | 2026-09-04 01:23:25 | 51.86349 | 7.15070 | 138° | 13km/h | 28493m | 6.3m/s | -47.8°C | 3.4% | 15.9hPa | 2.6V | 08:30:00 | 02:02:43 | 00:00:00 | |
| DF8AY | 2026-09-04 01:23:25 | 51.86335 | 7.15085 | 152° | 16km/h | 28522m | 5.7m/s | -47.8°C | 0.4% | 15.8hPa | 2.6V | 18:12:15 | 02:02:48 | 00:00:00 | |
| AA1-15 | 2026-09-04 01:23:24 | 51.86339 | 7.15082 | 151° | 15km/h | 28516m | 6.4m/s | -47.8°C | 0.4% | 15.8hPa | 2.5V | 18:12:15 | 02:02:47 | 00:00:00 | |
| DO2JMG | 2026-09-04 01:23:22 | 51.86344 | 7.15076 | 142° | 11km/h | 28505m | 4.5m/s | -47.8°C | 0.4% | 15.8hPa | 2.5V | 18:12:15 | 02:02:45 | 00:00:00 | |
| BIOWL1-15 | 2026-09-04 01:23:19 | 51.86351 | 7.15066 | 140° | 13km/h | 28487m | 5.3m/s | -47.8°C | 0.5% | 15.9hPa | 2.5V | 18:12:15 | 02:02:42 | 00:00:00 | |
| DL1XH-west | 2026-09-04 01:23:17 | 51.86355 | 7.15062 | 164° | 5km/h | 28475m | 6.6m/s | -47.8°C | 0.5% | 15.9hPa | 2.5V | 18:12:15 | 02:02:40 | 00:00:00 | |
| DF8AY | 2026-09-04 01:23:15 | 51.86361 | 7.15062 | 174° | 13km/h | 28459m | 6.3m/s | -47.8°C | 0.4% | 16hPa | 2.5V | 18:12:15 | 02:02:37 | 00:00:00 | |
| AA1-15 | 2026-09-04 01:23:13 | 51.86365 | 7.15061 | 167° | 18km/h | 28453m | 6.6m/s | -47.8°C | 0.4% | 16hPa | 2.5V | 18:12:15 | 02:02:36 | 00:00:00 | |
| DO2JMG | 2026-09-04 01:23:12 | 51.86370 | 7.15058 | 161° | 24km/h | 28447m | 5.4m/s | -47.8°C | 0.5% | 16hPa | 2.5V | 18:12:15 | 02:02:35 | 00:00:00 | |
| DM0DOS-11 | 2026-09-04 01:23:11 | 51.86382 | 7.15051 | 158° | 24km/h | 28437m | 4.7m/s | -47.8°C | 3.4% | 16hPa | 2.6V | 08:30:00 | 02:02:33 | 00:00:00 | |
| BIOWL1-15 | 2026-09-04 01:23:10 | 51.86391 | 7.15047 | 168° | 15km/h | 28426m | 6.3m/s | -47.7°C | 0.4% | 16hPa | 2.5V | 18:12:15 | 02:02:31 | 00:00:00 | |
| HSKMA3-T | 2026-09-04 01:23:07 | 51.86394 | 7.15046 | 178° | 9km/h | 28420m | 5.3m/s | -47.7°C | 0.4% | 16hPa | 2.5V | 18:12:15 | 02:02:30 | 00:00:00 | |
| DL1XH-west | 2026-09-04 01:23:06 | 51.86396 | 7.15046 | 184° | 9km/h | 28415m | 4.5m/s | -47.7°C | 0.4% | 16.1hPa | 2.6V | 18:12:15 | 02:02:29 | 00:00:00 | |
| SMARD9-10 | 2026-09-04 01:23:06 | 51.86396 | 7.15046 | 185° | 9km/h | 28415m | 4.5m/s | -47.7°C | 0.9% | 16.1hPa | 2.6V | 00:00:00 | 00:00:00 | 00:00:00 | |
| DM0DOS-11 | 2026-09-04 01:23:05 | 51.86413 | 7.15034 | 133° | 18km/h | 28379m | 4.9m/s | -47.6°C | 3.4% | 16.2hPa | 2.6V | 08:30:00 | 02:02:23 | 00:00:00 | |
| AA1-15 | 2026-09-04 01:23:03 | 51.86404 | 7.15044 | 157° | 13km/h | 28397m | 5.9m/s | -47.7°C | 0.4% | 16.1hPa | 2.5V | 18:12:15 | 02:02:26 | 00:00:00 | |
| DO2JMG | 2026-09-04 01:23:01 | 51.86410 | 7.15038 | 142° | 15km/h | 28385m | 6.2m/s | -47.7°C | 0.4% | 16.2hPa | 2.6V | 18:12:15 | 02:02:24 | 00:00:00 | |
| BIOWL1-15 | 2026-09-04 01:22:57 | 51.86438 | 7.14987 | 130° | 33km/h | 28351m | 4.4m/s | -47.7°C | 0.4% | 16.2hPa | 2.6V | 18:12:15 | 02:02:18 | 00:00:00 | |
| DL1XH-west | 2026-09-04 01:22:56 | 51.86432 | 7.14998 | 129° | 37km/h | 28356m | 4.9m/s | -47.7°C | 0.4% | 16.2hPa | 2.5V | 18:12:15 | 02:02:19 | 00:00:00 | |
| DF8AY | 2026-09-04 01:22:53 | 51.86447 | 7.14970 | 134° | 20km/h | 28339m | 6.2m/s | -47.7°C | 0.4% | 16.2hPa | 2.6V | 18:12:15 | 02:02:16 | 00:00:00 | |
| DL1XH-15 | 2026-09-04 01:22:52 | 51.86458 | 7.14957 | 153° | 13km/h | 28315m | 6m/s | -47.7°C | 3.4% | 16.3hPa | 2.5V | 08:30:00 | 02:02:12 | 00:00:00 | |
| AA1-15 | 2026-09-04 01:22:52 | 51.86450 | 7.14965 | 139° | 15km/h | 28333m | 5.8m/s | -47.7°C | 0.4% | 16.3hPa | 2.5V | 18:12:15 | 02:02:15 | 00:00:00 | |
| DO2JMG | 2026-09-04 01:22:51 | 51.86453 | 7.14961 | 146° | 11km/h | 28328m | 5.6m/s | -47.7°C | 0.4% | 16.3hPa | 2.5V | 18:12:15 | 02:02:14 | 00:00:00 | |
| DL1XH-west | 2026-09-04 01:22:45 | 51.86469 | 7.14945 | 138° | 13km/h | 28293m | 5.8m/s | -47.8°C | 0.4% | 16.4hPa | 2.5V | 18:12:15 | 02:02:08 | 00:00:00 | |
| DF8AY | 2026-09-04 01:22:43 | 51.86475 | 7.14936 | 138° | 20km/h | 28282m | 5.9m/s | -47.7°C | 0.4% | 16.4hPa | 2.6V | 18:12:15 | 02:02:06 | 00:00:00 | |
| DO2JMG | 2026-09-04 01:22:41 | 51.86485 | 7.14923 | 140° | 31km/h | 28268m | 5.9m/s | -47.7°C | 0.5% | 16.4hPa | 2.5V | 18:12:15 | 02:02:04 | 00:00:00 | |
| DL1XH-west | 2026-09-04 01:22:35 | 51.86504 | 7.14883 | 98° | 13km/h | 28235m | 4.6m/s | -47.9°C | 0.4% | 16.5hPa | 2.5V | 18:12:15 | 02:01:58 | 00:00:00 | |
| HSKMA3-T | 2026-09-04 01:22:34 | 51.86505 | 7.14878 | 108° | 13km/h | 28229m | 6.8m/s | -47.9°C | 0.5% | 16.5hPa | 2.5V | 18:12:15 | 02:01:57 | 00:00:00 | |
| DF8AY | 2026-09-04 01:22:32 | 51.86509 | 7.14867 | 127° | 18km/h | 28217m | 5.9m/s | -47.9°C | 0.5% | 16.6hPa | 2.6V | 18:12:15 | 02:01:55 | 00:00:00 | |
| DO2JMG | 2026-09-04 01:22:30 | 51.86514 | 7.14856 | 132° | 16km/h | 28205m | 6.6m/s | -47.9°C | 0.5% | 16.6hPa | 2.5V | 18:12:15 | 02:01:53 | 00:00:00 | |
| DL1XH-west | 2026-09-04 01:22:24 | 51.86536 | 7.14824 | 128° | 16km/h | 28171m | 5m/s | -47.7°C | 0.5% | 16.7hPa | 2.5V | 18:12:15 | 02:01:47 | 00:00:00 | |
| HSKMA3-T | 2026-09-04 01:22:23 | 51.86537 | 7.14820 | 110° | 11km/h | 28164m | 7.2m/s | -47.7°C | 0.4% | 16.7hPa | 2.5V | 18:12:15 | 02:01:46 | 00:00:00 | |
| DL1XH-15 | 2026-09-04 01:22:22 | 51.86534 | 7.14809 | 60° | 5km/h | 28141m | 6.3m/s | -47.7°C | 3.4% | 16.7hPa | 2.5V | 08:30:00 | 02:01:42 | 00:00:00 | |
| DF8AY | 2026-09-04 01:22:21 | 51.86537 | 7.14801 | 143° | 13km/h | 28124m | 4.6m/s | -47.6°C | 0.4% | 16.8hPa | 2.5V | 18:12:15 | 02:01:39 | 00:00:00 | |
| DO2JMG | 2026-09-04 01:22:20 | 51.86535 | 7.14811 | 41° | 7km/h | 28147m | 5.1m/s | -47.7°C | 0.5% | 16.7hPa | 2.6V | 18:12:15 | 02:01:43 | 00:00:00 | |
| AA1-15 | 2026-09-04 01:22:19 | 51.86534 | 7.14809 | 60° | 5km/h | 28141m | 6.3m/s | -47.7°C | 0.5% | 16.7hPa | 2.5V | 18:12:15 | 02:01:42 | 00:00:00 | |
| DL1XH-west | 2026-09-04 01:22:14 | 51.86542 | 7.14796 | 148° | 11km/h | 28113m | 6.6m/s | -47.6°C | 0.4% | 16.8hPa | 2.6V | 18:12:15 | 02:01:37 | 00:00:00 | |
| HSKMA3-T | 2026-09-04 01:22:13 | 51.86544 | 7.14794 | 149° | 9km/h | 28107m | 6.3m/s | -47.6°C | 0.4% | 16.8hPa | 2.5V | 18:12:15 | 02:01:36 | 00:00:00 | |
| DB0UT-7 | 2026-09-04 01:22:13 | 51.86544 | 7.14793 | 149° | 9km/h | 28107m | 6.2m/s | -47.6°C | 3.4% | 16.8hPa | 2.5V | 00:00:00 | 00:00:00 | 00:00:00 | |
| DL1XH-15 | 2026-09-04 01:22:12 | 51.86552 | 7.14785 | 137° | 11km/h | 28083m | 5.3m/s | -47.6°C | 3.4% | 16.9hPa | 2.6V | 08:30:00 | 02:01:32 | 00:00:00 | |
| BIOWL1-15 | 2026-09-04 01:22:10 | 51.86550 | 7.14788 | 147° | 11km/h | 28089m | 6.7m/s | -47.6°C | 0.5% | 16.9hPa | 2.6V | 18:12:15 | 02:01:33 | 00:00:00 | |
| AA1-15 | 2026-09-04 01:22:09 | 51.86553 | 7.14785 | 138° | 11km/h | 28083m | 5.3m/s | -47.6°C | 0.5% | 16.9hPa | 2.6V | 18:12:15 | 02:01:32 | 00:00:00 | |
| DL1XH-west | 2026-09-04 01:22:04 | 51.86551 | 7.14768 | 48° | 13km/h | 28054m | 5.2m/s | -47.6°C | 0.5% | 17hPa | 2.6V | 18:12:15 | 02:01:27 | 00:00:00 | |
| DJ2KF-10 | 2026-09-04 01:22:04 | 51.86551 | 7.14768 | 49° | 9km/h | 28054m | 5.1m/s | -47.5°C | 3.4% | 16.9hPa | 2.6V | 00:00:00 | 02:01:27 | 00:00:00 | |
| EDDB2-11 | 2026-09-04 01:22:03 | 51.86549 | 7.14764 | 59° | 11km/h | 28048m | 6.6m/s | -47.6°C | 1.0% | 17.0hPa | 2.6V | 00:00:00 | 00:00:00 | 00:00:00 | |
| DL1XH-15 | 2026-09-04 01:22:02 | 51.86549 | 7.14748 | 109° | 7km/h | 28023m | 6.8m/s | -47.6°C | 3.4% | 17hPa | 2.6V | 08:30:00 | 02:01:22 | 00:00:00 | |
| HSKMA3-T | 2026-09-04 01:22:02 | 51.86548 | 7.14759 | 80° | 11km/h | 28042m | 6.2m/s | -47.6°C | 0.5% | 17hPa | 2.5V | 18:12:15 | 02:01:25 | 00:00:00 | |
| BIOWL1-15 | 2026-09-04 01:22:00 | 51.86548 | 7.14751 | 98° | 9km/h | 28030m | 6.6m/s | -47.6°C | 0.5% | 17hPa | 2.6V | 18:12:15 | 02:01:23 | 00:00:00 | |
| DO2JMG | 2026-09-04 01:21:59 | 51.86549 | 7.14748 | 110° | 7km/h | 28023m | 6.8m/s | -47.6°C | 0.4% | 17hPa | 2.6V | 18:12:15 | 02:01:22 | 00:00:00 | |
| AA1-15 | 2026-09-04 01:21:58 | 51.86549 | 7.14746 | 119° | 5km/h | 28017m | 5.7m/s | -47.6°C | 0.5% | 17.1hPa | 2.5V | 18:12:15 | 02:01:21 | 00:00:00 | |
| DF8AY | 2026-09-04 01:21:55 | 51.86555 | 7.14739 | 141° | 11km/h | 27998m | 5.2m/s | -47.6°C | 0.4% | 17.1hPa | 2.6V | 18:12:15 | 02:01:18 | 00:00:00 | |
| DM0DOS-11 | 2026-09-04 01:21:55 | 51.86553 | 7.14726 | 40° | 11km/h | 27969m | 5.6m/s | -47.6°C | 3.4% | 17.2hPa | 2.6V | 08:30:00 | 02:01:13 | 00:00:00 | |
| DL1XH-west | 2026-09-04 01:21:54 | 51.86556 | 7.14736 | 126° | 9km/h | 27994m | 3.8m/s | -47.6°C | 0.5% | 17.1hPa | 2.6V | 18:12:15 | 02:01:17 | 00:00:00 | |
| HSKMA3-T | 2026-09-04 01:21:52 | 51.86557 | 7.14731 | 54° | 7km/h | 27981m | 6.8m/s | -47.6°C | 0.4% | 17.1hPa | 2.5V | 18:12:15 | 02:01:15 | 00:00:00 | |
| BIOWL1-15 | 2026-09-04 01:21:49 | 51.86550 | 7.14716 | 94° | 7km/h | 27952m | 4.6m/s | -47.6°C | 0.5% | 17.2hPa | 2.5V | 18:12:15 | 02:01:10 | 00:00:00 | |
| AA1-15 | 2026-09-04 01:21:48 | 51.86550 | 7.14719 | 76° | 9km/h | 27957m | 5.4m/s | -47.6°C | 0.5% | 17.2hPa | 2.5V | 18:12:15 | 02:01:11 | 00:00:00 | |
| DF8AY | 2026-09-04 01:21:45 | 51.86551 | 7.14711 | 123° | 4km/h | 27939m | 6.5m/s | -47.6°C | 0.5% | 17.3hPa | 2.5V | 18:12:15 | 02:01:08 | 00:00:00 | |
| DF5WG-10 | 2026-09-04 01:21:45 | 51.86551 | 7.14711 | 123° | 11km/h | 27940m | 6.5m/s | -47.5°C | 3.4% | 17.2hPa | 2.5V | 00:00:00 | 02:01:08 | 00:00:00 | |
| GOEST3-10 | 2026-09-04 01:21:44 | 51.86551 | 7.14710 | 161° | 9km/h | 27934m | 5.5m/s | -47.5°C | 3.4% | 17.2hPa | 2.5V | 00:00:00 | 00:00:00 | 00:00:00 | |
| DL1XH-west | 2026-09-04 01:21:44 | 51.86551 | 7.14710 | 160° | 4km/h | 27933m | 5.5m/s | -47.6°C | 0.4% | 17.3hPa | 2.6V | 18:12:15 | 02:01:07 | 00:00:00 | |
| DB0UT-7 | 2026-09-04 01:21:43 | 51.86552 | 7.14710 | 164° | 9km/h | 27928m | 5.4m/s | -47.5°C | 3.4% | 17.2hPa | 2.5V | 00:00:00 | 02:01:06 | 00:00:00 | |
| DL1XH-15 | 2026-09-04 01:21:42 | 51.86560 | 7.14699 | 93° | 9km/h | 27904m | 6.8m/s | -47.5°C | 3.4% | 17.4hPa | 2.5V | 08:30:00 | 02:01:02 | 00:00:00 | |
| HSKMA3-T | 2026-09-04 01:21:41 | 51.86557 | 7.14706 | 143° | 13km/h | 27915m | 5.6m/s | -47.5°C | 0.4% | 17.3hPa | 2.5V | 18:12:15 | 02:01:04 | 00:00:00 | |
| DO2JMG | 2026-09-04 01:21:38 | 51.86559 | 7.14695 | 57° | 11km/h | 27897m | 6.8m/s | -47.5°C | 0.4% | 17.4hPa | 2.5V | 18:12:15 | 02:01:01 | 00:00:00 | |
| AA1-15 | 2026-09-04 01:21:37 | 51.86557 | 7.14691 | 40° | 16km/h | 27891m | 5.3m/s | -47.5°C | 0.4% | 17.4hPa | 2.6V | 18:12:15 | 02:01:00 | 00:00:00 | |
| DF8AY | 2026-09-04 01:21:35 | 51.86549 | 7.14681 | 43° | 20km/h | 27880m | 6.1m/s | -47.4°C | 0.4% | 17.4hPa | 2.5V | 18:12:15 | 02:00:58 | 00:00:00 | |
| DL1XH-west | 2026-09-04 01:21:33 | 51.86543 | 7.14668 | 63° | 18km/h | 27868m | 5.6m/s | -47.4°C | 0.5% | 17.5hPa | 2.5V | 18:12:15 | 02:00:56 | 00:00:00 | |
| EDDB2-11 | 2026-09-04 01:21:32 | 51.86542 | 7.14662 | 70° | 13km/h | 27863m | 5.2m/s | -47.4°C | 1.0% | 17.5hPa | 2.5V | 00:00:00 | 00:00:00 | 00:00:00 | |
| DM0DOS-11 | 2026-09-04 01:21:30 | 51.86540 | 7.14654 | 67° | 7km/h | 27852m | 6m/s | -47.4°C | 3.4% | 17.5hPa | 2.5V | 08:30:00 | 02:00:53 | 00:00:00 | |
| HSKMA3-T | 2026-09-04 01:21:30 | 51.86540 | 7.14654 | 68° | 7km/h | 27852m | 6m/s | -47.4°C | 0.4% | 17.5hPa | 2.5V | 18:12:15 | 02:00:53 | 00:00:00 | |
| DO2JMG | 2026-09-04 01:21:28 | 51.86539 | 7.14651 | 16° | 4km/h | 27840m | 5.2m/s | -47.3°C | 0.4% | 17.6hPa | 2.5V | 18:12:15 | 02:00:51 | 00:00:00 | |
| AA1-15 | 2026-09-04 01:21:26 | 51.86538 | 7.14650 | 87° | 4km/h | 27830m | 6.9m/s | -47.3°C | 0.4% | 17.6hPa | 2.6V | 18:12:15 | 02:00:49 | 00:00:00 | |
| DM0DOS-11 | 2026-09-04 01:21:25 | 51.86535 | 7.14631 | 44° | 9km/h | 27793m | 4.9m/s | -47.4°C | 3.3% | 17.7hPa | 2.5V | 08:30:00 | 02:00:43 | 00:00:00 | |
| DF8AY | 2026-09-04 01:21:24 | 51.86538 | 7.14645 | 104° | 9km/h | 27817m | 5.6m/s | -47.3°C | 0.4% | 17.6hPa | 2.5V | 18:12:15 | 02:00:47 | 00:00:00 | |
| DL1XH-west | 2026-09-04 01:21:23 | 51.86538 | 7.14637 | 68° | 9km/h | 27806m | 6.9m/s | -47.3°C | 0.4% | 17.6hPa | 2.6V | 18:12:15 | 02:00:45 | 00:00:00 | |
| HSKMA3-T | 2026-09-04 01:21:19 | 51.86534 | 7.14628 | 59° | 9km/h | 27788m | 6.7m/s | -47.4°C | 0.4% | 17.7hPa | 2.5V | 18:12:15 | 02:00:42 | 00:00:00 | |
| DF8AY | 2026-09-04 01:21:18 | 51.86534 | 7.14620 | 221° | 5km/h | 27752m | 5.5m/s | -47.4°C | 0.5% | 17.8hPa | 2.5V | 18:12:15 | 02:00:36 | 00:00:00 | |
| DO2JMG | 2026-09-04 01:21:18 | 51.86533 | 7.14625 | 74° | 9km/h | 27781m | 6.3m/s | -47.3°C | 0.4% | 17.7hPa | 2.5V | 18:12:15 | 02:00:41 | 00:00:00 | |
| AA1-15 | 2026-09-04 01:21:16 | 51.86532 | 7.14619 | 102° | 4km/h | 27770m | 5.3m/s | -47.4°C | 0.4% | 17.7hPa | 2.6V | 18:12:15 | 02:00:39 | 00:00:00 | |
| DM0DOS-11 | 2026-09-04 01:21:15 | 51.86540 | 7.14620 | 166° | 13km/h | 27734m | 5m/s | -47.4°C | 3.4% | 17.8hPa | 2.5V | 08:30:00 | 02:00:33 | 00:00:00 | |
| DF5WG-10 | 2026-09-04 01:21:15 | 51.86532 | 7.14618 | 103° | 5km/h | 27764m | 6.8m/s | -47.3°C | 3.4% | 17.7hPa | 2.6V | 00:00:00 | 02:00:38 | 00:00:00 | |
| GOEST3-10 | 2026-09-04 01:21:14 | 51.86533 | 7.14618 | 233° | 7km/h | 27758m | 5.7m/s | -47.3°C | 3.4% | 17.7hPa | 2.6V | 00:00:00 | 00:00:00 | 00:00:00 | |
| DK5PH-5 | 2026-09-04 01:21:13 | 51.86534 | 7.14619 | 222° | 5km/h | 27752m | 5.4m/s | -47.3°C | 3.4% | 17.7hPa | 2.6V | 00:00:00 | 02:00:36 | 00:00:00 | |
| DL1XH-15 | 2026-09-04 01:21:12 | 51.86543 | 7.14619 | 156° | 11km/h | 27729m | 4.1m/s | -47.4°C | 3.4% | 17.8hPa | 2.6V | 08:30:00 | 02:00:32 | 00:00:00 | |
| DL1XH-west | 2026-09-04 01:21:11 | 51.86537 | 7.14621 | 179° | 11km/h | 27740m | 6.4m/s | -47.4°C | 0.4% | 17.8hPa | 2.5V | 18:12:15 | 02:00:34 | 00:00:00 | |
| HSKMA3-T | 2026-09-04 01:21:09 | 51.86543 | 7.14619 | 157° | 11km/h | 27729m | 4.1m/s | -47.4°C | 0.4% | 17.8hPa | 2.6V | 18:12:15 | 02:00:32 | 00:00:00 | |
| DO2JMG | 2026-09-04 01:21:07 | 51.86545 | 7.14616 | 103° | 2km/h | 27719m | 6.7m/s | -47.3°C | 0.4% | 17.9hPa | 2.5V | 18:12:15 | 02:00:30 | 00:00:00 | |
| BIOWL1-15 | 2026-09-04 01:21:06 | 51.86545 | 7.14616 | 10° | 4km/h | 27712m | 5.9m/s | -47.3°C | 0.4% | 17.9hPa | 2.5V | 18:12:15 | 02:00:29 | 00:00:00 | |
| AA1-15 | 2026-09-04 01:21:05 | 51.86544 | 7.14615 | 1° | 5km/h | 27707m | 5m/s | -47.3°C | 0.5% | 17.9hPa | 2.5V | 18:12:15 | 02:00:28 | 00:00:00 | |
| DF8AY | 2026-09-04 01:21:03 | 51.86542 | 7.14615 | 83° | 2km/h | 27696m | 6.2m/s | -47.3°C | 0.4% | 17.9hPa | 2.6V | 18:12:15 | 02:00:26 | 00:00:00 | |
| DL1XH-15 | 2026-09-04 01:21:02 | 51.86549 | 7.14608 | 154° | 9km/h | 27673m | 6.3m/s | -47.3°C | 3.4% | 18hPa | 2.6V | 08:30:00 | 02:00:22 | 00:00:00 | |
| DL1XH-west | 2026-09-04 01:21:01 | 51.86544 | 7.14612 | 149° | 9km/h | 27684m | 5.9m/s | -47.3°C | 0.4% | 17.9hPa | 2.5V | 18:12:15 | 02:00:24 | 00:00:00 | |
| HSKMA3-T | 2026-09-04 01:20:58 | 51.86550 | 7.14607 | 155° | 5km/h | 27667m | 6.6m/s | -47.3°C | 0.4% | 18hPa | 2.6V | 18:12:15 | 02:00:21 | 00:00:00 | |
| DO2JMG | 2026-09-04 01:20:56 | 51.86552 | 7.14605 | 122° | 4km/h | 27655m | 5.8m/s | -47.3°C | 0.4% | 18hPa | 2.5V | 18:12:15 | 02:00:19 | 00:00:00 | |
| AA1-15 | 2026-09-04 01:20:55 | 51.86552 | 7.14603 | 118° | 5km/h | 27648m | 7m/s | -47.3°C | 0.4% | 18hPa | 2.5V | 18:12:15 | 02:00:18 | 00:00:00 | |
| DF8AY | 2026-09-04 01:20:52 | 51.86553 | 7.14598 | 49° | 4km/h | 27631m | 6.9m/s | -47.3°C | 0.4% | 18.1hPa | 2.5V | 18:12:15 | 02:00:15 | 00:00:00 | |
| DL1XH-west | 2026-09-04 01:20:51 | 51.86552 | 7.14597 | 14° | 4km/h | 27624m | 6.3m/s | -47.3°C | 0.4% | 18.1hPa | 2.5V | 18:12:15 | 02:00:14 | 00:00:00 | |
| HSKMA3-T | 2026-09-04 01:20:48 | 51.86552 | 7.14598 | 181° | 5km/h | 27607m | 7.1m/s | -47.3°C | 0.4% | 18.2hPa | 2.6V | 18:12:15 | 02:00:11 | 00:00:00 | |
| DL4BBY-15 | 2026-09-04 01:20:47 | 51.86553 | 7.14598 | 175° | 11km/h | 27601m | 6.0m/s | -47.3°C | 0% | 0hPa | 2.6V | 00:00:00 | 00:00:00 | 00:00:00 | |
| DM0DOS-11 | 2026-09-04 01:20:45 | 51.86568 | 7.14586 | 121° | 13km/h | 27559m | 5.6m/s | -47.3°C | 3.3% | 18.3hPa | 2.6V | 08:30:00 | 02:00:03 | 00:00:00 | |
| DO2JMG | 2026-09-04 01:20:45 | 51.86559 | 7.14597 | 176° | 9km/h | 27589m | 6.7m/s | -47.3°C | 0.5% | 18.2hPa | 2.5V | 18:12:15 | 02:00:08 | 00:00:00 | |
| AA1-15 | 2026-09-04 01:20:44 | 51.86561 | 7.14596 | 167° | 7km/h | 27583m | 5.9m/s | -47.3°C | 0.4% | 18.2hPa | 2.5V | 18:12:15 | 02:00:07 | 00:00:00 | |
| DF8AY | 2026-09-04 01:20:42 | 51.86564 | 7.14593 | 135° | 9km/h | 27572m | 6m/s | -47.3°C | 0.4% | 18.3hPa | 2.5V | 18:12:15 | 02:00:05 | 00:00:00 | |
| DL1XH-west | 2026-09-04 01:20:40 | 51.86568 | 7.14586 | 122° | 13km/h | 27559m | 5.6m/s | -47.3°C | 0.4% | 18.3hPa | 2.6V | 18:12:15 | 02:00:03 | 00:00:00 | |
| HSKMA3-T | 2026-09-04 01:20:37 | 51.86571 | 7.14575 | 96° | 5km/h | 27542m | 6.1m/s | -47.3°C | 0.4% | 18.3hPa | 2.5V | 18:12:15 | 02:00:00 | 00:00:00 | |
| DD1CC1-15 | 2026-09-04 01:20:36 | 51.86571 | 7.14573 | 151° | 2km/h | 27537m | 5.1m/s | -47.3°C | 1.0% | 18.4hPa | 2.6V | 00:00:00 | 00:00:00 | 00:00:00 | |
| DM0DOS-11 | 2026-09-04 01:20:35 | 51.86590 | 7.14572 | 168° | 15km/h | 27502m | 6.1m/s | -47.5°C | 3.4% | 18.4hPa | 2.6V | 08:30:00 | 01:59:53 | 00:00:00 | |
| DO2JMG | 2026-09-04 01:20:34 | 51.86574 | 7.14574 | 188° | 11km/h | 27525m | 6.5m/s | -47.4°C | 0.4% | 18.4hPa | 2.5V | 18:12:15 | 01:59:57 | 00:00:00 | |
| AA1-15 | 2026-09-04 01:20:33 | 51.86577 | 7.14574 | 181° | 16km/h | 27519m | 6.3m/s | -47.4°C | 0.5% | 18.4hPa | 2.5V | 18:12:15 | 01:59:56 | 00:00:00 | |
| BIOWL1-15 | 2026-09-04 01:20:32 | 51.86582 | 7.14574 | 176° | 18km/h | 27513m | 5m/s | -47.5°C | 0.4% | 18.4hPa | 2.5V | 18:12:15 | 01:59:55 | 00:00:00 | |
| DF8AY | 2026-09-04 01:20:31 | 51.86586 | 7.14573 | 172° | 18km/h | 27508m | 5m/s | -47.5°C | 0.4% | 18.4hPa | 2.6V | 18:12:15 | 01:59:54 | 00:00:00 | |
| DL1XH-west | 2026-09-04 01:20:29 | 51.86594 | 7.14571 | 164° | 11km/h | 27497m | 6m/s | -47.6°C | 0.5% | 18.5hPa | 2.5V | 18:12:15 | 01:59:52 | 00:00:00 | |
| HSKMA3-T | 2026-09-04 01:20:26 | 51.86599 | 7.14566 | 138° | 9km/h | 27480m | 6.8m/s | -47.6°C | 0.4% | 18.5hPa | 2.5V | 18:12:15 | 01:59:49 | 00:00:00 | |
| DM0DOS-11 | 2026-09-04 01:20:25 | 51.86605 | 7.14547 | 92° | 7km/h | 27446m | 5m/s | -47.7°C | 3.4% | 18.6hPa | 2.5V | 08:30:00 | 01:59:43 | 00:00:00 | |
| BIOWL1-15 | 2026-09-04 01:20:25 | 51.86605 | 7.14550 | 96° | 7km/h | 27451m | 5.9m/s | -47.7°C | 0.5% | 18.6hPa | 2.5V | 18:12:15 | 01:59:44 | 00:00:00 | |
| DO2JMG | 2026-09-04 01:20:23 | 51.86604 | 7.14557 | 121° | 9km/h | 27463m | 4.9m/s | -47.7°C | 0.4% | 18.6hPa | 2.6V | 18:12:15 | 01:59:46 | 00:00:00 | |
| DL1XH-15 | 2026-09-04 01:20:22 | 51.86606 | 7.14544 | 112° | 11km/h | 27440m | 5.4m/s | -47.7°C | 3.4% | 18.6hPa | 2.5V | 08:30:00 | 01:59:42 | 00:00:00 | |
| DF8AY | 2026-09-04 01:20:20 | 51.86606 | 7.14547 | 92° | 7km/h | 27446m | 5m/s | -47.7°C | 0.4% | 18.6hPa | 2.5V | 18:12:15 | 01:59:43 | 00:00:00 | |
| DL1XH-west | 2026-09-04 01:20:18 | 51.86608 | 7.14539 | 128° | 15km/h | 27434m | 6.7m/s | -47.7°C | 0.5% | 18.6hPa | 2.6V | 18:12:15 | 01:59:41 | 00:00:00 | |
| HSKMA3-T | 2026-09-04 01:20:16 | 51.86614 | 7.14530 | 148° | 18km/h | 27423m | 5m/s | -47.7°C | 0.5% | 18.7hPa | 2.5V | 18:12:15 | 01:59:39 | 00:00:00 | |
| DO2JMG | 2026-09-04 01:20:13 | 51.86625 | 7.14524 | 183° | 13km/h | 27404m | 5.5m/s | -47.8°C | 0.5% | 18.7hPa | 2.6V | 18:12:15 | 01:59:36 | 00:00:00 | |
| DK5PH-5 | 2026-09-04 01:20:13 | 51.86625 | 7.14524 | 183° | 18km/h | 27405m | 5.5m/s | -47.8°C | 3.5% | 18.7hPa | 2.5V | 00:00:00 | 01:59:36 | 00:00:00 | |
| DH3RM | 2026-09-04 01:20:12 | 51.86628 | 7.14525 | 191° | 15km/h | 27399m | 5.3m/s | -47.8°C | 1.0% | 18.8hPa | 2.5V | 00:00:00 | 00:00:00 | 00:00:00 | |
| DL1XH-15 | 2026-09-04 01:20:11 | 51.86641 | 7.14527 | 177° | 16km/h | 27381m | 4.7m/s | -47.9°C | 3.5% | 18.8hPa | 2.5V | 08:30:00 | 01:59:32 | 00:00:00 | |
| BIOWL1-15 | 2026-09-04 01:20:11 | 51.86663 | 7.14487 | 118° | 20km/h | 27335m | 6.7m/s | -47.8°C | 0.5% | 18.9hPa | 2.6V | 18:12:15 | 01:59:24 | 00:00:00 | |
| DM0DOS-11 | 2026-09-04 01:20:10 | 51.86636 | 7.14527 | 184° | 18km/h | 27387m | 6m/s | -47.9°C | 3.5% | 18.8hPa | 2.5V | 08:30:00 | 01:59:33 | 00:00:00 | |
| DF8AY | 2026-09-04 01:20:09 | 51.86641 | 7.14527 | 178° | 16km/h | 27381m | 4.7m/s | -47.9°C | 0.5% | 18.8hPa | 2.5V | 18:12:15 | 01:59:32 | 00:00:00 | |
| DL1XH-west | 2026-09-04 01:20:07 | 51.86648 | 7.14525 | 155° | 11km/h | 27369m | 6.3m/s | -47.8°C | 0.5% | 18.8hPa | 2.6V | 18:12:15 | 01:59:30 | 00:00:00 | |
| HSKMA3-T | 2026-09-04 01:20:06 | 51.86650 | 7.14522 | 129° | 13km/h | 27364m | 4.8m/s | -47.8°C | 0.5% | 18.8hPa | 2.5V | 18:12:15 | 01:59:29 | 00:00:00 | |
| DO2JMG | 2026-09-04 01:20:02 | 51.86661 | 7.14494 | 120° | 24km/h | 27341m | 4.6m/s | -47.8°C | 0.5% | 18.9hPa | 2.6V | 18:12:15 | 01:59:25 | 00:00:00 | |
| DL1XH-15 | 2026-09-04 01:20:01 | 51.86668 | 7.14475 | 137° | 15km/h | 27324m | 5m/s | -47.7°C | 3.4% | 18.9hPa | 2.5V | 08:30:00 | 01:59:22 | 00:00:00 | |
| DF8AY | 2026-09-04 01:19:59 | 51.86669 | 7.14475 | 137° | 15km/h | 27324m | 5m/s | -47.7°C | 0.4% | 18.9hPa | 2.5V | 18:12:15 | 01:59:22 | 00:00:00 | |
| DL1XH-west | 2026-09-04 01:19:57 | 51.86676 | 7.14468 | 153° | 20km/h | 27312m | 6.5m/s | -47.7°C | 0.5% | 19hPa | 2.5V | 18:12:15 | 01:59:20 | 00:00:00 | |
| HSKMA3-T | 2026-09-04 01:19:55 | 51.86685 | 7.14460 | 154° | 22km/h | 27301m | 4.2m/s | -47.7°C | 0.5% | 19hPa | 2.6V | 18:12:15 | 01:59:18 | 00:00:00 | |
| AA1-15 | 2026-09-04 01:19:52 | 51.86696 | 7.14449 | 135° | 13km/h | 27285m | 6m/s | -47.7°C | 0.5% | 19.1hPa | 2.5V | 18:12:15 | 01:59:15 | 00:00:00 | |
| DL1XH-15 | 2026-09-04 01:19:51 | 51.86703 | 7.14432 | 118° | 22km/h | 27269m | 6.3m/s | -47.6°C | 3.4% | 19.1hPa | 2.6V | 08:30:00 | 01:59:12 | 00:00:00 | |
| DO2JMG | 2026-09-04 01:19:51 | 51.86699 | 7.14445 | 123° | 15km/h | 27280m | 5.1m/s | -47.6°C | 0.4% | 19.1hPa | 2.5V | 18:12:15 | 01:59:14 | 00:00:00 | |
| BIOWL1-15 | 2026-09-04 01:19:47 | 51.86710 | 7.14414 | 123° | 27km/h | 27257m | 4.7m/s | -47.7°C | 0.4% | 19.1hPa | 2.5V | 18:12:15 | 01:59:10 | 00:00:00 | |
| DL1XH-west | 2026-09-04 01:19:46 | 51.86714 | 7.14405 | 124° | 27km/h | 27252m | 4.9m/s | -47.7°C | 0.5% | 19.2hPa | 2.5V | 18:12:15 | 01:59:09 | 00:00:00 | |
| HSKMA3-T | 2026-09-04 01:19:44 | 51.86720 | 7.14388 | 122° | 20km/h | 27241m | 6.1m/s | -47.7°C | 0.4% | 19.2hPa | 2.6V | 18:12:15 | 01:59:07 | 00:00:00 | |
| AA1-15 | 2026-09-04 01:19:42 | 51.86725 | 7.14377 | 126° | 15km/h | 27230m | 4.7m/s | -47.7°C | 0.4% | 19.2hPa | 2.5V | 18:12:15 | 01:59:05 | 00:00:00 | |
| DB0UT-7 | 2026-09-04 01:19:42 | 51.86725 | 7.14377 | 127° | 18km/h | 27230m | 4.7m/s | -47.7°C | 3.4% | 19.2hPa | 2.5V | 00:00:00 | 01:59:05 | 00:00:00 | |
| DM0DOS-11 | 2026-09-04 01:19:40 | 51.86731 | 7.14367 | 135° | 18km/h | 27218m | 6m/s | -47.7°C | 3.4% | 19.3hPa | 2.5V | 08:30:00 | 01:59:03 | 00:00:00 | |
| DO2JMG | 2026-09-04 01:19:40 | 51.86730 | 7.14367 | 135° | 18km/h | 27218m | 6m/s | -47.7°C | 0.4% | 19.3hPa | 2.5V | 18:12:15 | 01:59:03 | 00:00:00 | |
| DF8AY | 2026-09-04 01:19:37 | 51.86739 | 7.14349 | 113° | 16km/h | 27202m | 6.9m/s | -47.7°C | 0.4% | 19.3hPa | 2.6V | 18:12:15 | 01:59:00 | 00:00:00 | |
| DL1XH-west | 2026-09-04 01:19:36 | 51.86740 | 7.14342 | 98° | 18km/h | 27196m | 6.2m/s | -47.7°C | 0.5% | 19.3hPa | 2.5V | 18:12:15 | 01:58:59 | 00:00:00 | |
| HSKMA3-T | 2026-09-04 01:19:34 | 51.86741 | 7.14326 | 93° | 24km/h | 27185m | 5.5m/s | -47.7°C | 0.5% | 19.4hPa | 2.5V | 18:12:15 | 01:58:57 | 00:00:00 | |
| BIOWL7-15 | 2026-09-04 01:19:34 | 51.86740 | 7.14326 | 94° | 24km/h | 27185m | 5.5m/s | -47.7°C | 1.0% | 19.4hPa | 2.5V | 00:00:00 | 00:00:00 | 00:00:00 | |
| DO8TBO-1 | 2026-09-04 01:19:33 | 51.86741 | 7.14316 | 98° | 22km/h | 27179m | 6.3m/s | -47.7°C | 3.4% | 19.3hPa | 2.5V | 00:00:00 | 01:58:56 | 00:00:00 | |
| DL1LOL-11 | 2026-09-04 01:19:32 | 51.86741 | 7.14316 | 98° | 26km/h | 27179m | 6.4m/s | -47.7°C | 1.0% | 19.4hPa | 2.5V | 00:00:00 | 00:00:00 | 00:00:00 | |
| DL1XH-15 | 2026-09-04 01:19:31 | 51.86745 | 7.14276 | 91° | 18km/h | 27159m | 6.5m/s | -47.8°C | 3.4% | 19.4hPa | 2.5V | 08:30:00 | 01:58:52 | 00:00:00 | |
| AA1-15 | 2026-09-04 01:19:31 | 51.86743 | 7.14295 | 100° | 26km/h | 27169m | 3.9m/s | -47.8°C | 0.5% | 19.4hPa | 2.6V | 18:12:15 | 01:58:54 | 00:00:00 | |
| DO2JMG | 2026-09-04 01:19:30 | 51.86744 | 7.14285 | 98° | 24km/h | 27164m | 5.3m/s | -47.8°C | 0.5% | 19.4hPa | 2.5V | 18:12:15 | 01:58:53 | 00:00:00 | |
| BIOWL1-15 | 2026-09-04 01:19:27 | 51.86744 | 7.14265 | 75° | 11km/h | 27147m | 4.9m/s | -47.9°C | 0.4% | 19.5hPa | 2.6V | 18:12:15 | 01:58:50 | 00:00:00 | |
| DF8AY | 2026-09-04 01:19:26 | 51.86743 | 7.14261 | 84° | 9km/h | 27142m | 4.7m/s | -47.9°C | 0.5% | 19.5hPa | 2.6V | 18:12:15 | 01:58:49 | 00:00:00 | |
| DL1XH-west | 2026-09-04 01:19:25 | 51.86744 | 7.14257 | 105° | 11km/h | 27136m | 6.1m/s | -47.9°C | 0.5% | 19.5hPa | 2.5V | 18:12:15 | 01:58:48 | 00:00:00 | |
| HSKMA3-T | 2026-09-04 01:19:23 | 51.86747 | 7.14246 | 122° | 18km/h | 27125m | 4.8m/s | -47.9°C | 0.5% | 19.5hPa | 2.5V | 18:12:15 | 01:58:46 | 00:00:00 | |
| SONCRA | 2026-09-04 01:19:22 | 51.86752 | 7.14231 | 110° | 20km/h | 27116m | 5.3m/s | -47.9°C | 1.0% | 19.6hPa | 2.5V | 00:00:00 | 00:00:00 | 00:00:00 | |
| DL1XH-15 | 2026-09-04 01:19:21 | 51.86753 | 7.14215 | 86° | 20km/h | 27105m | 5.3m/s | -47.8°C | 3.4% | 19.6hPa | 2.5V | 08:30:00 | 01:58:42 | 00:00:00 | |
| AA1-15 | 2026-09-04 01:19:20 | 51.86753 | 7.14223 | 99° | 20km/h | 27110m | 5.8m/s | -47.8°C | 0.5% | 19.6hPa | 2.5V | 18:12:15 | 01:58:43 | 00:00:00 | |
| DO2JMG | 2026-09-04 01:19:19 | 51.86753 | 7.14215 | 87° | 20km/h | 27105m | 5.4m/s | -47.8°C | 0.4% | 19.6hPa | 2.5V | 18:12:15 | 01:58:42 | 00:00:00 | |
| BIOWL1-15 | 2026-09-04 01:19:18 | 51.86751 | 7.14196 | 77° | 26km/h | 27093m | 6.5m/s | -47.8°C | 0.4% | 19.6hPa | 2.5V | 18:12:15 | 01:58:40 | 00:00:00 | |
| DF8AY | 2026-09-04 01:19:16 | 51.86749 | 7.14185 | 75° | 29km/h | 27087m | 6.5m/s | -47.8°C | 0.5% | 19.6hPa | 2.6V | 18:12:15 | 01:58:39 | 00:00:00 | |
| DM0DOS-11 | 2026-09-04 01:19:15 | 51.86729 | 7.14121 | 62° | 27km/h | 27053m | 5.7m/s | -47.9°C | 3.5% | 19.8hPa | 2.5V | 08:30:00 | 01:58:33 | 00:00:00 | |
| DL1XH-west | 2026-09-04 01:19:14 | 51.86745 | 7.14161 | 67° | 31km/h | 27076m | 4.8m/s | -47.9°C | 0.4% | 19.7hPa | 2.6V | 18:12:15 | 01:58:37 | 00:00:00 | |
| HSKMA3-T | 2026-09-04 01:19:12 | 51.86737 | 7.14140 | 55° | 29km/h | 27064m | 5.6m/s | -47.9°C | 0.5% | 19.7hPa | 2.5V | 18:12:15 | 01:58:35 | 00:00:00 | |
| AA1-15 | 2026-09-04 01:19:10 | 51.86729 | 7.14121 | 63° | 27km/h | 27053m | 5.7m/s | -47.9°C | 0.5% | 19.8hPa | 2.5V | 18:12:15 | 01:58:33 | 00:00:00 | |
| DO2JMG | 2026-09-04 01:19:08 | 51.86725 | 7.14100 | 80° | 27km/h | 27042m | 5.5m/s | -48°C | 0.5% | 19.8hPa | 2.6V | 18:12:15 | 01:58:31 | 00:00:00 | |
| BIOWL1-15 | 2026-09-04 01:19:07 | 51.86724 | 7.14089 | 85° | 27km/h | 27036m | 5.4m/s | -48°C | 0.5% | 19.8hPa | 2.5V | 18:12:15 | 01:58:30 | 00:00:00 | |
| DF8AY | 2026-09-04 01:19:05 | 51.86722 | 7.14068 | 78° | 26km/h | 27024m | 5.7m/s | -48°C | 0.5% | 19.8hPa | 2.5V | 18:12:15 | 01:58:28 | 00:00:00 | |
| DL1XH-west | 2026-09-04 01:19:04 | 51.86721 | 7.14058 | 73° | 26km/h | 27019m | 4.9m/s | -48°C | 0.5% | 19.8hPa | 2.6V | 18:12:15 | 01:58:27 | 00:00:00 | |
| HSKMA3-T | 2026-09-04 01:19:02 | 51.86717 | 7.14038 | 77° | 27km/h | 27009m | 6.6m/s | -48°C | 0.5% | 19.9hPa | 2.5V | 18:12:15 | 01:58:25 | 00:00:00 | |
| AA1-15 | 2026-09-04 01:19:00 | 51.86714 | 7.14016 | 72° | 27km/h | 26998m | 4.5m/s | -48°C | 0.5% | 19.9hPa | 2.5V | 18:12:15 | 01:58:23 | 00:00:00 | |
| DO2JMG | 2026-09-04 01:18:58 | 51.86708 | 7.13998 | 50° | 24km/h | 26987m | 6.5m/s | -48°C | 0.5% | 19.9hPa | 2.6V | 18:12:15 | 01:58:21 | 00:00:00 | |
| DF8AY | 2026-09-04 01:18:55 | 51.86696 | 7.13982 | 40° | 16km/h | 26970m | 6.4m/s | -48°C | 0.5% | 20hPa | 2.5V | 18:12:15 | 01:58:18 | 00:00:00 | |
| DL1XH-west | 2026-09-04 01:18:53 | 51.86691 | 7.13972 | 66° | 13km/h | 26958m | 5.1m/s | -48°C | 0.5% | 20hPa | 2.5V | 18:12:15 | 01:58:16 | 00:00:00 | |
| HSKMA3-T | 2026-09-04 01:18:52 | 51.86690 | 7.13967 | 72° | 13km/h | 26953m | 4.8m/s | -48°C | 0.5% | 20.1hPa | 2.5V | 18:12:15 | 01:58:15 | 00:00:00 | |
| SONCRA | 2026-09-04 01:18:51 | 51.86687 | 7.13956 | 55° | 16km/h | 26943m | 6.1m/s | -48.1°C | 1.0% | 20.1hPa | 2.6V | 00:00:00 | 00:00:00 | 00:00:00 | |
| DM0DOS-11 | 2026-09-04 01:18:50 | 51.86687 | 7.13956 | 55° | 18km/h | 26942m | 6.1m/s | -48.1°C | 3.4% | 20.1hPa | 2.6V | 08:30:00 | 01:58:13 | 00:00:00 | |
| AA1-15 | 2026-09-04 01:18:49 | 51.86684 | 7.13949 | 53° | 22km/h | 26937m | 5.4m/s | -48.1°C | 0.5% | 20.1hPa | 2.5V | 18:12:15 | 01:58:12 | 00:00:00 | |
| DO2JMG | 2026-09-04 01:18:48 | 51.86680 | 7.13942 | 53° | 26km/h | 26932m | 5.3m/s | -48.1°C | 0.5% | 20.1hPa | 2.5V | 18:12:15 | 01:58:11 | 00:00:00 | |
| BIOWL1-15 | 2026-09-04 01:18:46 | 51.86673 | 7.13923 | 63° | 29km/h | 26920m | 5.9m/s | -48.2°C | 0.5% | 20.1hPa | 2.6V | 18:12:15 | 01:58:09 | 00:00:00 | |
| DM0DOS-11 | 2026-09-04 01:18:45 | 51.86650 | 7.13885 | 11° | 16km/h | 26888m | 5.2m/s | -48.2°C | 3.5% | 20.3hPa | 2.6V | 08:30:00 | 01:58:03 | 00:00:00 | |
| DF8AY | 2026-09-04 01:18:45 | 51.86666 | 7.13904 | 58° | 26km/h | 26910m | 4.5m/s | -48.2°C | 0.6% | 20.2hPa | 2.5V | 18:12:15 | 01:58:07 | 00:00:00 | |
| BUE01 | 2026-09-04 01:18:44 | 51.86666 | 7.13904 | 57° | 24km/h | 26910m | 4.5m/s | -48.2°C | 1.0% | 20.2hPa | 2.5V | 00:00:00 | 00:00:00 | 00:00:00 | |
| DL1XH-west | 2026-09-04 01:18:43 | 51.86663 | 7.13896 | 46° | 24km/h | 26905m | 6.2m/s | -48.2°C | 0.5% | 20.2hPa | 2.5V | 18:12:15 | 01:58:06 | 00:00:00 | |
| HSKMA3-T | 2026-09-04 01:18:41 | 51.86654 | 7.13887 | 18° | 18km/h | 26893m | 5.2m/s | -48.2°C | 0.5% | 20.2hPa | 2.6V | 18:12:15 | 01:58:04 | 00:00:00 | |
| AA1-15 | 2026-09-04 01:18:39 | 51.86646 | 7.13884 | 16° | 11km/h | 26882m | 6.2m/s | -48.2°C | 0.6% | 20.3hPa | 2.5V | 18:12:15 | 01:58:02 | 00:00:00 | |
| DO2JMG | 2026-09-04 01:18:37 | 51.86642 | 7.13880 | 44° | 7km/h | 26871m | 4.8m/s | -48.2°C | 0.5% | 20.3hPa | 2.5V | 18:12:15 | 01:58:00 | 00:00:00 | |
| BIOWL1-15 | 2026-09-04 01:18:36 | 51.86641 | 7.13878 | 43° | 7km/h | 26866m | 4.9m/s | -48.2°C | 0.5% | 20.3hPa | 2.5V | 18:12:15 | 01:57:59 | 00:00:00 | |
| DF8AY | 2026-09-04 01:18:33 | 51.86635 | 7.13872 | 35° | 15km/h | 26849m | 5.2m/s | -48.2°C | 0.5% | 20.4hPa | 2.6V | 18:12:15 | 01:57:56 | 00:00:00 | |
| DL1XH-west | 2026-09-04 01:18:32 | 51.86632 | 7.13868 | 46° | 16km/h | 26844m | 5.8m/s | -48.2°C | 0.6% | 20.4hPa | 2.5V | 18:12:15 | 01:57:55 | 00:00:00 | |
| DL1XH-15 | 2026-09-04 01:18:31 | 51.86625 | 7.13852 | 45° | 15km/h | 26828m | 4.2m/s | -48.2°C | 3.5% | 20.4hPa | 2.5V | 08:30:00 | 01:57:52 | 00:00:00 | |
| HSKMA3-T | 2026-09-04 01:18:31 | 51.86629 | 7.13863 | 56° | 16km/h | 26838m | 6.2m/s | -48.1°C | 0.5% | 20.4hPa | 2.5V | 18:12:15 | 01:57:54 | 00:00:00 | |
| AA1-15 | 2026-09-04 01:18:28 | 51.86622 | 7.13849 | 25° | 13km/h | 26823m | 5.9m/s | -48.2°C | 0.5% | 20.5hPa | 2.6V | 18:12:15 | 01:57:51 | 00:00:00 | |
| DO2JMG | 2026-09-04 01:18:27 | 51.86619 | 7.13848 | 356° | 13km/h | 26817m | 6.3m/s | -48.2°C | 0.5% | 20.5hPa | 2.6V | 18:12:15 | 01:57:50 | 00:00:00 | |
| BIOWL1-15 | 2026-09-04 01:18:27 | 51.86613 | 7.13853 | 314° | 15km/h | 26805m | 5.6m/s | -48.2°C | 0.5% | 20.5hPa | 2.5V | 18:12:15 | 01:57:48 | 00:00:00 | |
| DF8AY | 2026-09-04 01:18:23 | 51.86609 | 7.13861 | 285° | 7km/h | 26794m | 5.7m/s | -48.3°C | 0.5% | 20.5hPa | 2.6V | 18:12:15 | 01:57:46 | 00:00:00 | |
| DL1XH-15 | 2026-09-04 01:18:21 | 51.86609 | 7.13865 | 344° | 2km/h | 26774m | 5.8m/s | -48.5°C | 3.5% | 20.6hPa | 2.5V | 08:30:00 | 01:57:42 | 00:00:00 | |
| DL1XH-west | 2026-09-04 01:18:21 | 51.86609 | 7.13864 | 236° | 2km/h | 26784m | 4.4m/s | -48.4°C | 0.5% | 20.6hPa | 2.5V | 18:12:15 | 01:57:44 | 00:00:00 | |
| HSKMA3-T | 2026-09-04 01:18:20 | 51.86609 | 7.13864 | 290° | 0km/h | 26779m | 5.5m/s | -48.5°C | 0.5% | 20.6hPa | 2.5V | 18:12:15 | 01:57:43 | 00:00:00 | |
| AA1-15 | 2026-09-04 01:18:17 | 51.86607 | 7.13865 | 21° | 5km/h | 26763m | 4.9m/s | -48.5°C | 0.5% | 20.6hPa | 2.6V | 18:12:15 | 01:57:40 | 00:00:00 | |
| DO2JMG | 2026-09-04 01:18:16 | 51.86606 | 7.13863 | 50° | 5km/h | 26757m | 6.5m/s | -48.5°C | 0.5% | 20.7hPa | 2.6V | 18:12:15 | 01:57:39 | 00:00:00 | |
| BIOWL1-15 | 2026-09-04 01:18:14 | 51.86604 | 7.13860 | 35° | 5km/h | 26747m | 4.5m/s | -48.5°C | 0.6% | 20.7hPa | 2.5V | 18:12:15 | 01:57:37 | 00:00:00 | |
| DL3AQ-11 | 2026-09-04 01:18:14 | 51.86603 | 7.13859 | 354° | 5km/h | 26742m | 5.1m/s | -48.5°C | 1.0% | 20.7hPa | 2.6V | 00:00:00 | 00:00:00 | 00:00:00 | |
| DO3MHA-12 | 2026-09-04 01:18:13 | 51.86603 | 7.13859 | 355° | 9km/h | 26742m | 5.0m/s | -48.5°C | 3.5% | 20.7hPa | 2.6V | 00:00:00 | 01:57:36 | 00:00:00 | |
| DM0DOS-11 | 2026-09-04 01:18:12 | 51.86594 | 7.13868 | 322° | 18km/h | 26725m | 4.2m/s | -48.5°C | 3.5% | 20.8hPa | 2.6V | 08:30:00 | 01:57:33 | 00:00:00 | |
| DL1XH-west | 2026-09-04 01:18:10 | 51.86594 | 7.13868 | 322° | 18km/h | 26725m | 4.2m/s | -48.5°C | 0.5% | 20.8hPa | 2.6V | 18:12:15 | 01:57:33 | 00:00:00 | |
| AA1-15 | 2026-09-04 01:18:07 | 51.86585 | 7.13879 | 337° | 7km/h | 26709m | 5.9m/s | -48.6°C | 0.6% | 20.8hPa | 2.5V | 18:12:15 | 01:57:30 | 00:00:00 | |
| DO2JMG | 2026-09-04 01:18:06 | 51.86584 | 7.13879 | 21° | 5km/h | 26704m | 5.2m/s | -48.6°C | 0.6% | 20.8hPa | 2.5V | 18:12:15 | 01:57:29 | 00:00:00 | |
| BIOWL1-15 | 2026-09-04 01:18:06 | 51.86581 | 7.13876 | 41° | 7km/h | 26694m | 4.7m/s | -48.6°C | 0.6% | 20.9hPa | 2.6V | 18:12:15 | 01:57:27 | 00:00:00 | |
| DF5WG-10 | 2026-09-04 01:18:05 | 51.86582 | 7.13877 | 49° | 7km/h | 26699m | 4.5m/s | -48.5°C | 3.5% | 20.8hPa | 2.5V | 00:00:00 | 01:57:28 | 00:00:00 | |
| DB0ND-19 | 2026-09-04 01:18:04 | 51.86579 | 7.13874 | 26° | 9km/h | 26689m | 5.7m/s | -48.6°C | 1.0% | 20.9hPa | 2.5V | 00:00:00 | 00:00:00 | 00:00:00 | |
| DB0UT-7 | 2026-09-04 01:18:03 | 51.86579 | 7.13874 | 27° | 7km/h | 26689m | 5.6m/s | -48.5°C | 3.5% | 20.8hPa | 2.5V | 00:00:00 | 00:00:00 | 00:00:00 | |
| DM0DOS-11 | 2026-09-04 01:18:02 | 51.86571 | 7.13871 | 3° | 11km/h | 26674m | 4.4m/s | -48.5°C | 3.5% | 20.9hPa | 2.5V | 08:30:00 | 01:57:23 | 00:00:00 | |
| DJ2DS-15 | 2026-09-04 01:18:02 | 51.86577 | 7.13873 | 11° | 11km/h | 26683m | 5.3m/s | -48.6°C | 1.0% | 20.9hPa | 2.6V | 00:00:00 | 00:00:00 | 00:00:00 | |
| DL1XH-15 | 2026-09-04 01:18:01 | 51.86568 | 7.13871 | 7° | 9km/h | 26669m | 5.2m/s | -48.5°C | 3.5% | 20.9hPa | 2.6V | 08:30:00 | 01:57:22 | 00:00:00 | |
| DL1XH-west | 2026-09-04 01:18:00 | 51.86571 | 7.13871 | 4° | 11km/h | 26674m | 4.4m/s | -48.6°C | 0.6% | 20.9hPa | 2.5V | 18:12:15 | 01:57:23 | 00:00:00 | |
| AA1-15 | 2026-09-04 01:17:57 | 51.86566 | 7.13870 | 87° | 0km/h | 26658m | 4.9m/s | -48.6°C | 0.6% | 21hPa | 2.6V | 18:12:15 | 01:57:20 | 00:00:00 | |
| DO2JMG | 2026-09-04 01:17:55 | 51.86567 | 7.13871 | 239° | 5km/h | 26648m | 5.7m/s | -48.5°C | 0.5% | 21hPa | 2.5V | 18:12:15 | 01:57:18 | 00:00:00 | |
| BIOWL1-15 | 2026-09-04 01:17:53 | 51.86569 | 7.13878 | 264° | 11km/h | 26636m | 5.5m/s | -48.5°C | 0.5% | 21hPa | 2.5V | 18:12:15 | 01:57:16 | 00:00:00 | |
| DL1XH-west | 2026-09-04 01:17:50 | 51.86572 | 7.13891 | 232° | 13km/h | 26620m | 5.9m/s | -48.6°C | 0.6% | 21.1hPa | 2.5V | 18:12:15 | 01:57:13 | 00:00:00 | |
| HSKMA3-T | 2026-09-04 01:17:49 | 51.86574 | 7.13895 | 224° | 11km/h | 26615m | 4.8m/s | -48.6°C | 0.5% | 21.1hPa | 2.5V | 18:12:15 | 01:57:12 | 00:00:00 | |
| AA1-15 | 2026-09-04 01:17:46 | 51.86577 | 7.13905 | 270° | 7km/h | 26598m | 5.6m/s | -48.6°C | 0.6% | 21.1hPa | 2.6V | 18:12:15 | 01:57:09 | 00:00:00 | |
| DO2JMG | 2026-09-04 01:17:45 | 51.86577 | 7.13907 | 273° | 5km/h | 26593m | 4.8m/s | -48.6°C | 0.6% | 21.2hPa | 2.5V | 18:12:15 | 01:57:08 | 00:00:00 | |
| BIOWL1-15 | 2026-09-04 01:17:43 | 51.86575 | 7.13917 | 296° | 9km/h | 26553m | 5.3m/s | -48.7°C | 0.6% | 21.3hPa | 2.5V | 18:12:15 | 01:57:01 | 00:00:00 | |
| DK5PH-5 | 2026-09-04 01:17:43 | 51.86577 | 7.13910 | 202° | 7km/h | 26581m | 5.5m/s | -48.6°C | 3.5% | 21.2hPa | 2.5V | 00:00:00 | 01:57:06 | 08:30:00 | |
| BUE01 | 2026-09-04 01:17:42 | 51.86578 | 7.13911 | 289° | 2km/h | 26571m | 5.8m/s | -48.6°C | 1.0% | 21.2hPa | 2.6V | 00:00:00 | 00:00:00 | 00:00:00 | |
| DL1XH-15 | 2026-09-04 01:17:41 | 51.86576 | 7.13914 | 308° | 9km/h | 26558m | 5.7m/s | -48.7°C | 3.5% | 21.3hPa | 2.6V | 08:30:00 | 01:57:02 | 00:00:00 | |
| DL1XH-west | 2026-09-04 01:17:39 | 51.86576 | 7.13914 | 308° | 9km/h | 26558m | 5.7m/s | -48.7°C | 0.6% | 21.3hPa | 2.6V | 18:12:15 | 01:57:02 | 00:00:00 | |
| AA1-15 | 2026-09-04 01:17:35 | 51.86575 | 7.13928 | 265° | 11km/h | 26536m | 5.1m/s | -48.8°C | 0.6% | 21.4hPa | 2.5V | 18:12:15 | 01:56:58 | 00:00:00 | |
| DO2JMG | 2026-09-04 01:17:34 | 51.86575 | 7.13932 | 271° | 11km/h | 26530m | 6.5m/s | -48.9°C | 0.6% | 21.4hPa | 2.6V | 18:12:15 | 01:56:57 | 00:00:00 | |
| BIOWL1-15 | 2026-09-04 01:17:33 | 51.86575 | 7.13937 | 273° | 11km/h | 26524m | 5.1m/s | -48.9°C | 0.6% | 21.4hPa | 2.6V | 18:12:15 | 01:56:56 | 00:00:00 | |
| DL1XH-west | 2026-09-04 01:17:28 | 51.86577 | 7.13944 | 120° | 2km/h | 26498m | 4.7m/s | -48.9°C | 0.6% | 21.5hPa | 2.6V | 18:12:15 | 01:56:51 | 00:00:00 | |
| DO2JMG | 2026-09-04 01:17:24 | 51.86573 | 7.13950 | 299° | 11km/h | 26476m | 4.1m/s | -48.9°C | 0.6% | 21.6hPa | 2.5V | 18:12:15 | 01:56:47 | 00:00:00 | |
| BIOWL1-15 | 2026-09-04 01:17:22 | 51.86572 | 7.13959 | 258° | 9km/h | 26466m | 6m/s | -48.9°C | 0.6% | 21.6hPa | 2.6V | 18:12:15 | 01:56:45 | 00:00:00 | |
| DL1XH-15 | 2026-09-04 01:17:21 | 51.86577 | 7.13968 | 213° | 11km/h | 26450m | 4.9m/s | -49°C | 3.6% | 21.6hPa | 2.5V | 08:30:00 | 01:56:42 | 00:00:00 | |
| HSKMA3-T | 2026-09-04 01:17:18 | 51.86579 | 7.13970 | 222° | 7km/h | 26444m | 6m/s | -49°C | 0.6% | 21.7hPa | 2.5V | 18:12:15 | 01:56:41 | 00:00:00 | |
| DL1XH-west | 2026-09-04 01:17:17 | 51.86580 | 7.13972 | 263° | 5km/h | 26438m | 5.8m/s | -49°C | 0.6% | 21.7hPa | 2.5V | 18:12:15 | 01:56:40 | 00:00:00 | |
| DL4BBY-15 | 2026-09-04 01:17:17 | 51.86580 | 7.13972 | 263° | 9km/h | 26438m | 5.7m/s | -49.0°C | 0% | 0hPa | 2.6V | 00:00:00 | 00:00:00 | 00:00:00 | |
| DH3RM | 2026-09-04 01:17:16 | 51.86579 | 7.13974 | 296° | 5km/h | 26433m | 4.6m/s | -49.0°C | 1.0% | 21.7hPa | 2.6V | 00:00:00 | 00:00:00 | 00:00:00 | |
| DM0DOS-11 | 2026-09-04 01:17:15 | 51.86577 | 7.13992 | 291° | 9km/h | 26401m | 6.5m/s | -48.9°C | 3.6% | 21.8hPa | 2.6V | 08:30:00 | 01:56:33 | 00:00:00 | |
| DO2JMG | 2026-09-04 01:17:14 | 51.86578 | 7.13979 | 287° | 7km/h | 26423m | 5.8m/s | -49°C | 0.6% | 21.7hPa | 2.5V | 18:12:15 | 01:56:37 | 00:00:00 | |
| AA1-15 | 2026-09-04 01:17:13 | 51.86577 | 7.13982 | 275° | 7km/h | 26417m | 5.8m/s | -49°C | 0.6% | 21.8hPa | 2.5V | 18:12:15 | 01:56:36 | 00:00:00 | |
| BIOWL1-15 | 2026-09-04 01:17:12 | 51.86577 | 7.13985 | 268° | 7km/h | 26412m | 5.1m/s | -49°C | 0.6% | 21.8hPa | 2.5V | 18:12:15 | 01:56:35 | 00:00:00 | |
| DL1XH-west | 2026-09-04 01:17:07 | 51.86574 | 7.14002 | 271° | 7km/h | 26385m | 5.5m/s | -49°C | 0.5% | 21.9hPa | 2.5V | 18:12:15 | 01:56:30 | 00:00:00 | |
| DO2JMG | 2026-09-04 01:17:04 | 51.86579 | 7.14007 | 205° | 9km/h | 26369m | 4m/s | -49.1°C | 0.6% | 21.9hPa | 2.6V | 18:12:15 | 01:56:27 | 00:00:00 | |
| DJ2KF-10 | 2026-09-04 01:17:04 | 51.86579 | 7.14007 | 206° | 7km/h | 26369m | 3.9m/s | -49.1°C | 3.5% | 21.8hPa | 2.6V | 00:00:00 | 01:56:27 | 00:00:00 | |
| DM0DOS-11 | 2026-09-04 01:17:03 | 51.86581 | 7.14017 | 300° | 7km/h | 26347m | 5.3m/s | -49.3°C | 3.6% | 22hPa | 2.5V | 08:30:00 | 01:56:23 | 00:00:00 | |
| AA1-15 | 2026-09-04 01:17:02 | 51.86582 | 7.14012 | 249° | 7km/h | 26358m | 6.2m/s | -49.2°C | 0.6% | 21.9hPa | 2.5V | 18:12:15 | 01:56:25 | 00:00:00 | |
| BIOWL1-15 | 2026-09-04 01:17:01 | 51.86581 | 7.14017 | 300° | 7km/h | 26347m | 5.3m/s | -49.3°C | 0.6% | 22hPa | 2.5V | 18:12:15 | 01:56:23 | 00:00:00 | |
| HSKMA3-T | 2026-09-04 01:16:57 | 51.86579 | 7.14022 | 290° | 4km/h | 26330m | 4.5m/s | -49.4°C | 0.6% | 22hPa | 2.6V | 18:12:15 | 01:56:20 | 00:00:00 | |
| DL1XH-west | 2026-09-04 01:16:56 | 51.86579 | 7.14024 | 295° | 5km/h | 26325m | 4.6m/s | -49.4°C | 0.6% | 22.1hPa | 2.5V | 18:12:15 | 01:56:19 | 00:00:00 | |
| DO2JMG | 2026-09-04 01:16:53 | 51.86577 | 7.14035 | 274° | 13km/h | 26308m | 5m/s | -49.5°C | 0.6% | 22.1hPa | 2.6V | 18:12:15 | 01:56:16 | 00:00:00 | |
| AA1-15 | 2026-09-04 01:16:52 | 51.86577 | 7.14040 | 255° | 13km/h | 26303m | 6.2m/s | -49.6°C | 0.6% | 22.1hPa | 2.6V | 18:12:15 | 01:56:15 | 00:00:00 | |
| DL1ZP-14 | 2026-09-04 01:16:52 | 51.86579 | 7.14045 | 236° | 13km/h | 26297m | 6.3m/s | -49.6°C | 1.1% | 22.1hPa | 2.5V | 00:00:00 | 00:00:00 | 00:00:00 | |
| DL1XH-15 | 2026-09-04 01:16:51 | 51.86583 | 7.14054 | 232° | 13km/h | 26286m | 4.5m/s | -49.7°C | 3.6% | 22.2hPa | 2.5V | 08:30:00 | 01:56:12 | 00:00:00 | |
| BIOWL1-15 | 2026-09-04 01:16:51 | 51.86579 | 7.14045 | 236° | 15km/h | 26297m | 6.3m/s | -49.6°C | 0.7% | 22.1hPa | 2.5V | 18:12:15 | 01:56:14 | 00:00:00 | |
| HSKMA3-T | 2026-09-04 01:16:47 | 51.86585 | 7.14063 | 275° | 11km/h | 26275m | 6.1m/s | -49.7°C | 0.6% | 22.2hPa | 2.6V | 18:12:15 | 01:56:10 | 00:00:00 | |
| SONCRA | 2026-09-04 01:16:47 | 51.86584 | 7.14067 | 297° | 9km/h | 26270m | 5.2m/s | -49.8°C | 1.1% | 22.2hPa | 2.6V | 00:00:00 | 00:00:00 | 00:00:00 | |
| DL8DAS-15 | 2026-09-04 01:16:46 | 51.86585 | 7.14063 | 276° | 11km/h | 26276m | 6.1m/s | -49.7°C | 0% | 22.2hPa | 2.6V | 00:00:00 | 00:00:00 | 00:00:00 | |
| DM0DOS-11 | 2026-09-04 01:16:45 | 51.86580 | 7.14073 | 274° | 2km/h | 26237m | 6.2m/s | -50.1°C | 3.7% | 22.4hPa | 2.6V | 08:30:00 | 01:56:03 | 00:00:00 | |
| DL1XH-west | 2026-09-04 01:16:45 | 51.86583 | 7.14070 | 314° | 9km/h | 26264m | 5.5m/s | -49.8°C | 0.7% | 22.3hPa | 2.6V | 18:12:15 | 01:56:08 | 00:00:00 | |
| HTAHTA | 2026-09-04 01:16:45 | 51.86582 | 7.14072 | 329° | 5km/h | 26259m | 5.7m/s | -49.9°C | 1.1% | 22.3hPa | 2.5V | 00:00:00 | 00:00:00 | 00:00:00 | |
| DF8AY | 2026-09-04 01:16:43 | 51.86581 | 7.14073 | 358° | 2km/h | 26253m | 6m/s | -50°C | 0.7% | 22.3hPa | 2.5V | 18:12:15 | 01:56:06 | 00:00:00 | |
| BIOWL1-15 | 2026-09-04 01:16:42 | 51.86580 | 7.14073 | 275° | 2km/h | 26237m | 6.2m/s | -50.1°C | 0.7% | 22.4hPa | 2.6V | 18:12:15 | 01:56:03 | 00:00:00 | |
| DO2JMG | 2026-09-04 01:16:42 | 51.86580 | 7.14073 | 74° | 0km/h | 26247m | 4.8m/s | -50.1°C | 0.7% | 22.3hPa | 2.5V | 18:12:15 | 01:56:05 | 00:00:00 | |
| AA1-15 | 2026-09-04 01:16:41 | 51.86580 | 7.14072 | 156° | 2km/h | 26243m | 4.8m/s | -50.1°C | 0.7% | 22.4hPa | 2.5V | 18:12:15 | 01:56:04 | 00:00:00 | |
| HSKMA3-T | 2026-09-04 01:16:36 | 51.86578 | 7.14081 | 281° | 5km/h | 26215m | 6.6m/s | -50.2°C | 0.8% | 22.4hPa | 2.5V | 18:12:15 | 01:55:59 | 00:00:00 | |
| DM0DOS-11 | 2026-09-04 01:16:35 | 51.86572 | 7.14096 | 319° | 13km/h | 26182m | 4.8m/s | -50.4°C | 3.8% | 22.5hPa | 2.5V | 08:30:00 | 01:55:53 | 00:00:00 | |
| DL1XH-west | 2026-09-04 01:16:34 | 51.86578 | 7.14085 | 275° | 4km/h | 26204m | 4.7m/s | -50.3°C | 0.7% | 22.5hPa | 2.6V | 18:12:15 | 01:55:57 | 00:00:00 | |
| DF8AY | 2026-09-04 01:16:33 | 51.86576 | 7.14090 | 311° | 11km/h | 26193m | 6.4m/s | -50.3°C | 0.7% | 22.5hPa | 2.5V | 18:12:15 | 01:55:55 | 00:00:00 | |
| DO2JMG | 2026-09-04 01:16:31 | 51.86574 | 7.14093 | 317° | 13km/h | 26188m | 5.4m/s | -50.3°C | 0.8% | 22.5hPa | 2.5V | 18:12:15 | 01:55:54 | 00:00:00 | |
| AA1-15 | 2026-09-04 01:16:30 | 51.86572 | 7.14096 | 320° | 13km/h | 26182m | 4.8m/s | -50.4°C | 0.7% | 22.5hPa | 2.5V | 18:12:15 | 01:55:53 | 00:00:00 | |
| BIOWL1-15 | 2026-09-04 01:16:29 | 51.86570 | 7.14099 | 323° | 11km/h | 26177m | 6.4m/s | -50.3°C | 0.8% | 22.6hPa | 2.6V | 18:12:15 | 01:55:52 | 00:00:00 | |
| HSKMA3-T | 2026-09-04 01:16:25 | 51.86563 | 7.14108 | 317° | 11km/h | 26156m | 6.7m/s | -50.3°C | 0.8% | 22.6hPa | 2.5V | 18:12:15 | 01:55:48 | 00:00:00 | |
| DL1XH-west | 2026-09-04 01:16:23 | 51.86559 | 7.14116 | 304° | 15km/h | 26145m | 4.9m/s | -50.3°C | 0.7% | 22.7hPa | 2.5V | 18:12:15 | 01:55:46 | 00:00:00 | |
| DF8AY | 2026-09-04 01:16:22 | 51.86557 | 7.14120 | 292° | 13km/h | 26139m | 5.2m/s | -50.3°C | 0.7% | 22.7hPa | 2.6V | 18:12:15 | 01:55:45 | 00:00:00 | |
| EDDB2-11 | 2026-09-04 01:16:22 | 51.86557 | 7.14125 | 274° | 11km/h | 26134m | 6.5m/s | -50.2°C | 1.1% | 22.7hPa | 2.5V | 00:00:00 | 00:00:00 | 00:00:00 | |
| DL1XH-15 | 2026-09-04 01:16:21 | 51.86557 | 7.14135 | 259° | 13km/h | 26123m | 4.1m/s | -50.2°C | 3.8% | 22.7hPa | 2.5V | 08:30:00 | 01:55:42 | 00:00:00 | |
| DO2JMG | 2026-09-04 01:16:21 | 51.86557 | 7.14125 | 274° | 11km/h | 26134m | 6.5m/s | -50.2°C | 0.8% | 22.7hPa | 2.6V | 18:12:15 | 01:55:44 | 00:00:00 | |
| AA1-15 | 2026-09-04 01:16:20 | 51.86557 | 7.14130 | 259° | 13km/h | 26128m | 5m/s | -50.2°C | 0.7% | 22.7hPa | 2.5V | 18:12:15 | 01:55:43 | 00:00:00 | |
| BIOWL1-15 | 2026-09-04 01:16:19 | 51.86557 | 7.14135 | 259° | 13km/h | 26123m | 4.1m/s | -50.3°C | 0.7% | 22.7hPa | 2.5V | 18:12:15 | 01:55:42 | 00:00:00 | |
| HSKMA3-T | 2026-09-04 01:16:15 | 51.86553 | 7.14155 | 315° | 15km/h | 26102m | 5m/s | -50.4°C | 0.8% | 22.8hPa | 2.5V | 18:12:15 | 01:55:38 | 00:00:00 | |
| DL1XH-west | 2026-09-04 01:16:13 | 51.86549 | 7.14160 | 327° | 9km/h | 26091m | 6.4m/s | -50.4°C | 0.8% | 22.9hPa | 2.5V | 18:12:15 | 01:55:36 | 00:00:00 | |
| DO2JMG | 2026-09-04 01:16:11 | 51.86546 | 7.14163 | 329° | 5km/h | 26080m | 4.9m/s | -50.4°C | 0.8% | 22.9hPa | 2.6V | 18:12:15 | 01:55:34 | 00:00:00 | |
| DM0DOS-11 | 2026-09-04 01:16:10 | 51.86544 | 7.14165 | 325° | 7km/h | 26075m | 5.9m/s | -50.4°C | 3.9% | 22.9hPa | 2.6V | 08:30:00 | 01:55:33 | 00:00:00 | |
| BIOWL1-15 | 2026-09-04 01:16:10 | 51.86541 | 7.14170 | 312° | 11km/h | 26063m | 4.7m/s | -50.4°C | 0.8% | 22.9hPa | 2.5V | 18:12:15 | 01:55:31 | 00:00:00 | |
| DH3RM | 2026-09-04 01:16:10 | 51.86544 | 7.14164 | 326° | 7km/h | 26075m | 5.9m/s | -50.4°C | 1.1% | 22.9hPa | 2.5V | 00:00:00 | 00:00:00 | 00:00:00 | |
| DL8DAS-15 | 2026-09-04 01:16:09 | 51.86544 | 7.14164 | 326° | 7km/h | 26075m | 5.9m/s | -50.4°C | 0% | 22.9hPa | 2.5V | 00:00:00 | 00:00:00 | 00:00:00 | |
| AA1-15 | 2026-09-04 01:16:09 | 51.86543 | 7.14167 | 319° | 11km/h | 26069m | 5.9m/s | -50.4°C | 0.8% | 22.9hPa | 2.6V | 18:12:15 | 01:55:32 | 00:00:00 | |
| DO3MHA-11 | 2026-09-04 01:16:08 | 51.86540 | 7.14170 | 312° | 11km/h | 26064m | 4.7m/s | -50.4°C | 3.9% | 22.9hPa | 2.5V | 00:00:00 | 01:55:31 | 00:00:00 | |
| SMARD9-15 | 2026-09-04 01:16:06 | 51.86537 | 7.14182 | 271° | 9km/h | 26048m | 5.6m/s | -50.4°C | 1.1% | 23.0hPa | 2.5V | 00:00:00 | 00:00:00 | 00:00:00 | |
| DM0DOS-11 | 2026-09-04 01:16:05 | 51.86532 | 7.14202 | 314° | 13km/h | 26021m | 4.8m/s | -50.4°C | 3.9% | 23.1hPa | 2.5V | 08:30:00 | 01:55:23 | 00:00:00 | |
| HSKMA3-T | 2026-09-04 01:16:04 | 51.86537 | 7.14185 | 270° | 9km/h | 26043m | 4.6m/s | -50.4°C | 0.8% | 23hPa | 2.6V | 18:12:15 | 01:55:27 | 00:00:00 | |
| DL1XH-west | 2026-09-04 01:16:03 | 51.86536 | 7.14193 | 300° | 13km/h | 26032m | 6.4m/s | -50.4°C | 0.8% | 23.1hPa | 2.5V | 18:12:15 | 01:55:25 | 00:00:00 | |
| DH3RM | 2026-09-04 01:16:02 | 51.86537 | 7.14189 | 285° | 9km/h | 26038m | 5.0m/s | -50.4°C | 1.1% | 23.0hPa | 2.5V | 00:00:00 | 00:00:00 | 00:00:00 | |
| DL1XH-15 | 2026-09-04 01:16:01 | 51.86530 | 7.14205 | 319° | 9km/h | 26016m | 6m/s | -50.4°C | 3.8% | 23.1hPa | 2.5V | 08:30:00 | 01:55:22 | 00:00:00 | |
| DO2JMG | 2026-09-04 01:16:01 | 51.86534 | 7.14198 | 308° | 13km/h | 26026m | 5.6m/s | -50.4°C | 0.7% | 23.1hPa | 2.5V | 18:12:15 | 01:55:24 | 00:00:00 | |
| DF8AY | 2026-09-04 01:16:00 | 51.86532 | 7.14202 | 315° | 13km/h | 26021m | 4.8m/s | -50.4°C | 0.8% | 23.1hPa | 2.5V | 18:12:15 | 01:55:23 | 00:00:00 | |
| AA1-15 | 2026-09-04 01:15:58 | 51.86528 | 7.14207 | 329° | 7km/h | 26010m | 5.4m/s | -50.4°C | 0.8% | 23.1hPa | 2.6V | 18:12:15 | 01:55:21 | 00:00:00 | |
| BIOWL1-15 | 2026-09-04 01:15:57 | 51.86527 | 7.14208 | 344° | 5km/h | 26005m | 4.4m/s | -50.5°C | 0.8% | 23.1hPa | 2.6V | 18:12:15 | 01:55:20 | 00:00:00 | |
| BIOWL9-15 | 2026-09-04 01:15:56 | 51.86525 | 7.14208 | 344° | 7km/h | 26000m | 4.6m/s | -50.5°C | 1.2% | 23.2hPa | 2.6V | 00:00:00 | 00:00:00 | 00:00:00 | |
| DM0DOS-11 | 2026-09-04 01:15:55 | 51.86511 | 7.14233 | 279° | 15km/h | 25969m | 5.6m/s | -50.5°C | 3.8% | 23.3hPa | 2.6V | 08:30:00 | 01:55:13 | 00:00:00 | |
| HSKMA3-T | 2026-09-04 01:15:53 | 51.86517 | 7.14216 | 317° | 16km/h | 25984m | 4.6m/s | -50.5°C | 0.8% | 23.2hPa | 2.5V | 18:12:15 | 01:55:16 | 00:00:00 | |
| DL1XH-west | 2026-09-04 01:15:52 | 51.86514 | 7.14221 | 307° | 18km/h | 25980m | 4.6m/s | -50.5°C | 0.8% | 23.2hPa | 2.5V | 18:12:15 | 01:55:15 | 00:00:00 | |
| DO2JMG | 2026-09-04 01:15:50 | 51.86511 | 7.14233 | 280° | 15km/h | 25969m | 5.6m/s | -50.5°C | 0.7% | 23.3hPa | 2.6V | 18:12:15 | 01:55:13 | 00:00:00 | |
| DF8AY | 2026-09-04 01:15:49 | 51.86511 | 7.14239 | 271° | 15km/h | 25964m | 5.1m/s | -50.5°C | 0.7% | 23.3hPa | 2.5V | 18:12:15 | 01:55:12 | 00:00:00 | |
| AA1-15 | 2026-09-04 01:15:47 | 51.86510 | 7.14250 | 286° | 15km/h | 25953m | 6.2m/s | -50.5°C | 0.8% | 23.3hPa | 2.5V | 18:12:15 | 01:55:10 | 00:00:00 | |
| BIOWL1-15 | 2026-09-04 01:15:46 | 51.86508 | 7.14257 | 294° | 16km/h | 25948m | 5m/s | -50.5°C | 0.8% | 23.4hPa | 2.6V | 18:12:15 | 01:55:09 | 00:00:00 | |
| DM0DOS-11 | 2026-09-04 01:15:45 | 51.86502 | 7.14293 | 288° | 15km/h | 25916m | 6.3m/s | -50.5°C | 3.8% | 23.5hPa | 2.6V | 08:30:00 | 01:55:03 | 00:00:00 | |
| SONCRA | 2026-09-04 01:15:45 | 51.86505 | 7.14269 | 290° | 16km/h | 25938m | 5.1m/s | -50.5°C | 1.1% | 23.4hPa | 2.5V | 00:00:00 | 00:00:00 | 00:00:00 | |
| DL1XH-west | 2026-09-04 01:15:42 | 51.86503 | 7.14282 | 277° | 15km/h | 25927m | 5.2m/s | -50.5°C | 0.8% | 23.4hPa | 2.5V | 18:12:15 | 01:55:05 | 00:00:00 | |
| DO2JMG | 2026-09-04 01:15:40 | 51.86502 | 7.14293 | 289° | 15km/h | 25916m | 6.3m/s | -50.5°C | 0.8% | 23.5hPa | 2.6V | 18:12:15 | 01:55:03 | 00:00:00 | |
| DF8AY | 2026-09-04 01:15:38 | 51.86499 | 7.14304 | 296° | 15km/h | 25905m | 4.5m/s | -50.5°C | 0.8% | 23.5hPa | 2.6V | 18:12:15 | 01:55:01 | 00:00:00 | |
| BIOWL1-15 | 2026-09-04 01:15:37 | 51.86499 | 7.14336 | 264° | 20km/h | 25880m | 5m/s | -50.5°C | 0.7% | 23.6hPa | 2.6V | 18:12:15 | 01:54:56 | 00:00:00 | |
| AA1-15 | 2026-09-04 01:15:36 | 51.86497 | 7.14315 | 271° | 15km/h | 25895m | 6.3m/s | -50.5°C | 0.8% | 23.6hPa | 2.5V | 18:12:15 | 01:54:59 | 00:00:00 | |
| SMARD9-15 | 2026-09-04 01:15:35 | 51.86498 | 7.14329 | 258° | 18km/h | 25885m | 4.1m/s | -50.5°C | 1.1% | 23.6hPa | 2.5V | 00:00:00 | 00:00:00 | 00:00:00 | |
| DL3AQ-11 | 2026-09-04 01:15:34 | 51.86499 | 7.14336 | 263° | 18km/h | 25880m | 5.0m/s | -50.5°C | 1.1% | 23.6hPa | 2.5V | 00:00:00 | 00:00:00 | 00:00:00 | |
| DB0UT-7 | 2026-09-04 01:15:33 | 51.86499 | 7.14336 | 264° | 18km/h | 25881m | 4.9m/s | -50.5°C | 3.8% | 23.6hPa | 2.5V | 00:00:00 | 01:54:56 | 00:00:00 | |
| DL1XH-15 | 2026-09-04 01:15:32 | 51.86497 | 7.14367 | 273° | 16km/h | 25861m | 4m/s | -50.5°C | 3.8% | 23.7hPa | 2.5V | 08:30:00 | 01:54:52 | 00:00:00 | |
| DL1XH-west | 2026-09-04 01:15:31 | 51.86498 | 7.14352 | 281° | 20km/h | 25869m | 4.9m/s | -50.5°C | 0.7% | 23.7hPa | 2.5V | 18:12:15 | 01:54:54 | 00:00:00 | |
| DM0DOS-11 | 2026-09-04 01:15:30 | 51.86497 | 7.14360 | 282° | 18km/h | 25865m | 4m/s | -50.5°C | 3.9% | 23.6hPa | 2.5V | 08:30:00 | 01:54:53 | 00:00:00 | |
| DO2JMG | 2026-09-04 01:15:30 | 51.86497 | 7.14360 | 282° | 18km/h | 25865m | 4m/s | -50.5°C | 0.8% | 23.6hPa | 2.5V | 18:12:15 | 01:54:53 | 00:00:00 | |
| DF8AY | 2026-09-04 01:15:28 | 51.86497 | 7.14373 | 256° | 16km/h | 25856m | 6.3m/s | -50.5°C | 0.7% | 23.7hPa | 2.6V | 18:12:15 | 01:54:51 | 00:00:00 | |
| AA1-15 | 2026-09-04 01:15:26 | 51.86501 | 7.14384 | 221° | 16km/h | 25844m | 5.4m/s | -50.5°C | 0.8% | 23.7hPa | 2.5V | 18:12:15 | 01:54:49 | 00:00:00 | |
| BIOWL1-15 | 2026-09-04 01:15:24 | 51.86510 | 7.14394 | 217° | 13km/h | 25828m | 4.7m/s | -50.6°C | 0.7% | 23.8hPa | 2.5V | 18:12:15 | 01:54:46 | 00:00:00 | |
| SONDE2-11 | 2026-09-04 01:15:23 | 51.86512 | 7.14397 | 225° | 13km/h | 25823m | 4.4m/s | -50.6°C | 1.2% | 23.8hPa | 2.5V | 00:00:00 | 00:00:00 | 00:00:00 | |
| DL1XH-15 | 2026-09-04 01:15:21 | 51.86520 | 7.14414 | 243° | 20km/h | 25807m | 4.6m/s | -50.6°C | 3.8% | 23.9hPa | 2.5V | 08:30:00 | 01:54:42 | 00:00:00 | |
| HSKMA3-T | 2026-09-04 01:15:21 | 51.86514 | 7.14401 | 229° | 15km/h | 25818m | 5.6m/s | -50.6°C | 0.7% | 23.8hPa | 2.6V | 18:12:15 | 01:54:44 | 00:00:00 | |
| DL1XH-west | 2026-09-04 01:15:20 | 51.86517 | 7.14407 | 236° | 18km/h | 25812m | 5.7m/s | -50.6°C | 0.8% | 23.9hPa | 2.6V | 18:12:15 | 01:54:43 | 00:00:00 | |
| DO2JMG | 2026-09-04 01:15:19 | 51.86520 | 7.14414 | 244° | 20km/h | 25807m | 4.6m/s | -50.6°C | 0.7% | 23.9hPa | 2.5V | 18:12:15 | 01:54:42 | 00:00:00 | |
| DF8AY | 2026-09-04 01:15:17 | 51.86522 | 7.14429 | 269° | 20km/h | 25798m | 5.2m/s | -50.6°C | 0.8% | 23.9hPa | 2.5V | 18:12:15 | 01:54:40 | 00:00:00 | |
| DH3RM | 2026-09-04 01:15:17 | 51.86522 | 7.14429 | 270° | 20km/h | 25798m | 5.2m/s | -50.6°C | 1.2% | 23.9hPa | 2.6V | 00:00:00 | 00:00:00 | 00:00:00 | |
| DF5WG-10 | 2026-09-04 01:15:15 | 51.86520 | 7.14442 | 297° | 13km/h | 25788m | 4.3m/s | -50.6°C | 3.8% | 23.9hPa | 2.6V | 00:00:00 | 01:54:38 | 00:00:00 | |
| AA1-15 | 2026-09-04 01:15:15 | 51.86520 | 7.14442 | 297° | 13km/h | 25788m | 4.4m/s | -50.7°C | 0.8% | 23.9hPa | 2.6V | 18:12:15 | 01:54:38 | 00:00:00 | |
| DK5PH-5 | 2026-09-04 01:15:13 | 51.86519 | 7.14447 | 237° | 16km/h | 25779m | 5.3m/s | -50.7°C | 3.8% | 23.9hPa | 2.6V | 00:00:00 | 01:54:36 | 00:00:00 | |
| DL8DAS-14 | 2026-09-04 01:15:12 | 51.86523 | 7.14448 | 189° | 13km/h | 25769m | 4.6m/s | -50.7°C | 1.1% | 24.0hPa | 2.6V | 00:00:00 | 00:00:00 | 00:00:00 | |
| DL1XH-15 | 2026-09-04 01:15:11 | 51.86530 | 7.14453 | 216° | 18km/h | 25759m | 5m/s | -50.8°C | 3.9% | 24hPa | 2.6V | 08:30:00 | 01:54:32 | 00:00:00 | |
| DL1XH-west | 2026-09-04 01:15:10 | 51.86526 | 7.14450 | 201° | 16km/h | 25764m | 5m/s | -50.8°C | 0.8% | 24hPa | 2.5V | 18:12:15 | 01:54:33 | 00:00:00 | |
| DO2JMG | 2026-09-04 01:15:08 | 51.86534 | 7.14458 | 232° | 18km/h | 25754m | 4.7m/s | -50.8°C | 0.8% | 24.1hPa | 2.6V | 18:12:15 | 01:54:31 | 00:00:00 | |
| DF8AY | 2026-09-04 01:15:06 | 51.86537 | 7.14471 | 259° | 16km/h | 25744m | 5.4m/s | -50.8°C | 0.8% | 24.1hPa | 2.5V | 18:12:15 | 01:54:29 | 00:00:00 | |
| AA1-15 | 2026-09-04 01:15:04 | 51.86537 | 7.14483 | 280° | 15km/h | 25733m | 4.8m/s | -50.8°C | 0.8% | 24.1hPa | 2.5V | 18:12:15 | 01:54:27 | 00:00:00 | |
| BIOWL1-15 | 2026-09-04 01:15:02 | 51.86536 | 7.14495 | 282° | 16km/h | 25724m | 4.3m/s | -50.8°C | 0.8% | 24.2hPa | 2.6V | 18:12:15 | 01:54:25 | 00:00:00 | |
| DM0DOS-11 | 2026-09-04 01:15:00 | 51.86534 | 7.14511 | 277° | 22km/h | 25713m | 5.6m/s | -50.8°C | 3.9% | 24.2hPa | 2.5V | 08:30:00 | 01:54:23 | 00:00:00 | |
| DL1XH-west | 2026-09-04 01:15:00 | 51.86534 | 7.14511 | 277° | 22km/h | 25713m | 5.6m/s | -50.8°C | 0.8% | 24.2hPa | 2.5V | 18:12:15 | 01:54:23 | 00:00:00 | |
| HSKMA3-T | 2026-09-04 01:14:59 | 51.86534 | 7.14520 | 273° | 22km/h | 25708m | 4.3m/s | -50.9°C | 0.8% | 24.2hPa | 2.5V | 18:12:15 | 01:54:22 | 00:00:00 | |
| DO2JMG | 2026-09-04 01:14:58 | 51.86533 | 7.14528 | 268° | 18km/h | 25703m | 5.5m/s | -50.9°C | 0.8% | 24.2hPa | 2.5V | 18:12:15 | 01:54:21 | 00:00:00 | |
| DF8AY | 2026-09-04 01:14:56 | 51.86535 | 7.14539 | 244° | 13km/h | 25692m | 4.7m/s | -51°C | 0.9% | 24.3hPa | 2.6V | 18:12:15 | 01:54:19 | 00:00:00 | |
| AA1-15 | 2026-09-04 01:14:54 | 51.86538 | 7.14549 | 243° | 16km/h | 25682m | 6.2m/s | -51°C | 0.8% | 24.3hPa | 2.5V | 18:12:15 | 01:54:17 | 00:00:00 | |
| DL3AQ-11 | 2026-09-04 01:14:54 | 51.86540 | 7.14555 | 248° | 16km/h | 25677m | 5.1m/s | -51.0°C | 1.2% | 24.4hPa | 2.6V | 00:00:00 | 00:00:00 | 00:00:00 | |
| DL1XH-15 | 2026-09-04 01:14:51 | 51.86544 | 7.14581 | 270° | 15km/h | 25656m | 4.8m/s | -51°C | 3.9% | 24.4hPa | 2.6V | 08:30:00 | 01:54:12 | 00:00:00 | |
| BIOWL1-15 | 2026-09-04 01:14:51 | 51.86543 | 7.14569 | 256° | 16km/h | 25667m | 5.3m/s | -51°C | 0.8% | 24.4hPa | 2.6V | 18:12:15 | 01:54:14 | 00:00:00 | |
| DL1XH-west | 2026-09-04 01:14:49 | 51.86544 | 7.14581 | 270° | 15km/h | 25656m | 4.8m/s | -51°C | 0.8% | 24.4hPa | 2.6V | 18:12:15 | 01:54:12 | 00:00:00 | |
| HSKMA3-T | 2026-09-04 01:14:48 | 51.86543 | 7.14587 | 277° | 15km/h | 25651m | 4.5m/s | -51°C | 0.8% | 24.4hPa | 2.5V | 18:12:15 | 01:54:11 | 00:00:00 | |
| DO2JMG | 2026-09-04 01:14:47 | 51.86543 | 7.14594 | 281° | 18km/h | 25646m | 5.2m/s | -51°C | 0.9% | 24.5hPa | 2.5V | 18:12:15 | 01:54:10 | 00:00:00 | |
| MET0W-2 | 2026-09-04 01:14:46 | 51.86541 | 7.14611 | 279° | 24km/h | 25636m | 4.7m/s | -51.1°C | 1.2% | 24.5hPa | 2.5V | 00:00:00 | 00:00:00 | 00:00:00 | |
| DM0DOS-11 | 2026-09-04 01:14:45 | 51.86537 | 7.14642 | 299° | 5km/h | 25611m | 4.8m/s | -51.1°C | 4% | 24.6hPa | 2.5V | 08:30:00 | 01:54:03 | 00:00:00 | |
| DF8AY | 2026-09-04 01:14:45 | 51.86541 | 7.14611 | 280° | 24km/h | 25635m | 4.7m/s | -51.1°C | 0.9% | 24.5hPa | 2.5V | 18:12:15 | 01:54:08 | 00:00:00 | |
| AA1-15 | 2026-09-04 01:14:43 | 51.86539 | 7.14629 | 279° | 18km/h | 25626m | 4.9m/s | -51.1°C | 0.9% | 24.5hPa | 2.6V | 18:12:15 | 01:54:06 | 00:00:00 | |
| BIOWL1-15 | 2026-09-04 01:14:40 | 51.86537 | 7.14642 | 300° | 5km/h | 25611m | 4.9m/s | -51.1°C | 0.9% | 24.6hPa | 2.5V | 18:12:15 | 01:54:03 | 00:00:00 | |
| DL1XH-west | 2026-09-04 01:14:39 | 51.86536 | 7.14645 | 299° | 7km/h | 25605m | 5.5m/s | -51.1°C | 0.8% | 24.6hPa | 2.5V | 18:12:15 | 01:54:02 | 00:00:00 | |
| HSKMA3-T | 2026-09-04 01:14:37 | 51.86535 | 7.14653 | 278° | 13km/h | 25594m | 4.8m/s | -51.1°C | 0.8% | 24.7hPa | 2.6V | 18:12:15 | 01:54:00 | 00:00:00 | |
| DO2JMG | 2026-09-04 01:14:36 | 51.86534 | 7.14658 | 267° | 15km/h | 25590m | 4.3m/s | -51.1°C | 0.9% | 24.7hPa | 2.6V | 18:12:15 | 01:53:59 | 00:00:00 | |
| DO3MHA-11 | 2026-09-04 01:14:36 | 51.86534 | 7.14658 | 267° | 22km/h | 25590m | 4.3m/s | -51.1°C | 4.0% | 24.6hPa | 2.6V | 00:00:00 | 01:53:59 | 00:00:00 | |
| DM0DOS-11 | 2026-09-04 01:14:35 | 51.86545 | 7.14705 | 252° | 26km/h | 25557m | 4.2m/s | -51.3°C | 4% | 24.8hPa | 2.6V | 08:30:00 | 01:53:53 | 00:00:00 | |
| DF8AY | 2026-09-04 01:14:34 | 51.86536 | 7.14671 | 250° | 16km/h | 25579m | 5.9m/s | -51.2°C | 0.9% | 24.7hPa | 2.5V | 18:12:15 | 01:53:57 | 00:00:00 | |
| AA1-15 | 2026-09-04 01:14:32 | 51.86540 | 7.14685 | 246° | 24km/h | 25568m | 5.2m/s | -51.3°C | 0.8% | 24.8hPa | 2.5V | 18:12:15 | 01:53:55 | 00:00:00 | |
| BIOWL1-15 | 2026-09-04 01:14:32 | 51.86545 | 7.14704 | 252° | 26km/h | 25557m | 4.2m/s | -51.3°C | 0.9% | 24.8hPa | 2.6V | 18:12:15 | 01:53:53 | 00:00:00 | |
| DL1XH-15 | 2026-09-04 01:14:31 | 51.86547 | 7.14714 | 255° | 24km/h | 25553m | 3.5m/s | -51.3°C | 4% | 24.8hPa | 2.5V | 08:30:00 | 01:53:52 | 00:00:00 | |
| DL1XH-west | 2026-09-04 01:14:28 | 51.86548 | 7.14723 | 256° | 20km/h | 25548m | 6.3m/s | -51.2°C | 0.8% | 24.8hPa | 2.5V | 18:12:15 | 01:53:51 | 00:00:00 | |
| HSKMA3-T | 2026-09-04 01:14:27 | 51.86549 | 7.14730 | 259° | 15km/h | 25542m | 6m/s | -51.2°C | 0.8% | 24.9hPa | 2.5V | 18:12:15 | 01:53:50 | 00:00:00 | |
| DO2JMG | 2026-09-04 01:14:25 | 51.86549 | 7.14739 | 273° | 11km/h | 25531m | 4.6m/s | -51.2°C | 0.8% | 24.9hPa | 2.6V | 18:12:15 | 01:53:48 | 00:00:00 | |
| DF5WG-10 | 2026-09-04 01:14:25 | 51.86549 | 7.14739 | 273° | 22km/h | 25532m | 4.5m/s | -51.1°C | 4.0% | 24.8hPa | 2.6V | 00:00:00 | 01:53:48 | 00:00:00 | |
| DL1XH-15 | 2026-09-04 01:14:24 | 51.86557 | 7.14782 | 232° | 24km/h | 25499m | 4.9m/s | -51.2°C | 4% | 25hPa | 2.6V | 08:30:00 | 01:53:42 | 00:00:00 | |
| DF8AY | 2026-09-04 01:14:23 | 51.86549 | 7.14751 | 267° | 16km/h | 25521m | 5.1m/s | -51.2°C | 0.9% | 24.9hPa | 2.5V | 18:12:15 | 01:53:46 | 00:00:00 | |
| AA1-15 | 2026-09-04 01:14:21 | 51.86551 | 7.14766 | 248° | 22km/h | 25510m | 5.5m/s | -51.2°C | 0.8% | 25hPa | 2.5V | 18:12:15 | 01:53:44 | 00:00:00 | |
| BIOWL1-15 | 2026-09-04 01:14:19 | 51.86557 | 7.14782 | 233° | 24km/h | 25499m | 4.9m/s | -51.2°C | 0.9% | 25hPa | 2.6V | 18:12:15 | 01:53:42 | 00:00:00 | |
| DL1XH-west | 2026-09-04 01:14:17 | 51.86565 | 7.14799 | 237° | 27km/h | 25489m | 6.1m/s | -51.2°C | 0.9% | 25hPa | 2.5V | 18:12:15 | 01:53:40 | 00:00:00 | |
| HSKMA3-T | 2026-09-04 01:14:16 | 51.86569 | 7.14809 | 240° | 29km/h | 25483m | 5.5m/s | -51.1°C | 0.9% | 25.1hPa | 2.5V | 18:12:15 | 01:53:39 | 00:00:00 | |
| DO2JMG | 2026-09-04 01:14:15 | 51.86572 | 7.14819 | 240° | 27km/h | 25478m | 4.3m/s | -51.1°C | 0.9% | 25.1hPa | 2.5V | 18:12:15 | 01:53:38 | 00:00:00 | |
| DF8AY | 2026-09-04 01:14:12 | 51.86583 | 7.14842 | 228° | 20km/h | 25462m | 4.5m/s | -51.1°C | 0.9% | 25.2hPa | 2.6V | 18:12:15 | 01:53:35 | 00:00:00 | |
| DM0DOS-11 | 2026-09-04 01:14:10 | 51.86589 | 7.14854 | 230° | 20km/h | 25451m | 5.8m/s | -51.1°C | 4% | 25.2hPa | 2.5V | 08:30:00 | 01:53:33 | 00:00:00 | |
| AA1-15 | 2026-09-04 01:14:10 | 51.86589 | 7.14854 | 231° | 20km/h | 25451m | 5.8m/s | -51.1°C | 0.9% | 25.2hPa | 2.5V | 18:12:15 | 01:53:33 | 00:00:00 | |
| BIOWL1-15 | 2026-09-04 01:14:09 | 51.86593 | 7.14861 | 229° | 24km/h | 25446m | 4.5m/s | -51.2°C | 0.9% | 25.2hPa | 2.5V | 18:12:15 | 01:53:32 | 00:00:00 | |
| DL1XH-west | 2026-09-04 01:14:07 | 51.86602 | 7.14874 | 213° | 24km/h | 25435m | 6.5m/s | -51.1°C | 0.8% | 25.3hPa | 2.6V | 18:12:15 | 01:53:30 | 00:00:00 | |
| HSKMA3-T | 2026-09-04 01:14:06 | 51.86607 | 7.14879 | 209° | 26km/h | 25429m | 5.2m/s | -51.1°C | 0.9% | 25.3hPa | 2.6V | 18:12:15 | 01:53:29 | 00:00:00 | |
| EDDB2-12 | 2026-09-04 01:14:06 | 51.86613 | 7.14884 | 210° | 27km/h | 25424m | 4.2m/s | -51.1°C | 1.2% | 25.3hPa | 2.6V | 00:00:00 | 00:00:00 | 00:00:00 | |
| DM0DOS-11 | 2026-09-04 01:14:05 | 51.86638 | 7.14920 | 219° | 24km/h | 25397m | 6.5m/s | -51°C | 4% | 25.4hPa | 2.6V | 08:30:00 | 01:53:23 | 00:00:00 | |
| DO2JMG | 2026-09-04 01:14:04 | 51.86619 | 7.14891 | 217° | 27km/h | 25419m | 6.4m/s | -51.1°C | 0.9% | 25.3hPa | 2.5V | 18:12:15 | 01:53:27 | 00:00:00 | |
| DF8AY | 2026-09-04 01:14:02 | 51.86629 | 7.14906 | 228° | 27km/h | 25408m | 4.5m/s | -51°C | 0.9% | 25.4hPa | 2.5V | 18:12:15 | 01:53:25 | 00:00:00 | |
| DL3AQ-11 | 2026-09-04 01:14:01 | 51.86638 | 7.14920 | 219° | 22km/h | 25398m | 6.5m/s | -51.0°C | 1.2% | 25.4hPa | 2.6V | 00:00:00 | 00:00:00 | 00:00:00 | |
| DL1XH-15 | 2026-09-04 01:13:59 | 51.86643 | 7.14925 | 211° | 20km/h | 25391m | 5.9m/s | -51°C | 4% | 25.4hPa | 2.6V | 08:30:00 | 01:53:22 | 00:00:00 | |
| AA1-15 | 2026-09-04 01:13:59 | 51.86643 | 7.14925 | 212° | 20km/h | 25391m | 5.9m/s | -51°C | 0.9% | 25.4hPa | 2.6V | 18:12:15 | 01:53:22 | 00:00:00 | |
| BIOWL1-15 | 2026-09-04 01:13:58 | 51.86647 | 7.14929 | 208° | 20km/h | 25386m | 4.5m/s | -51°C | 0.8% | 25.5hPa | 2.5V | 18:12:15 | 01:53:21 | 00:00:00 | |
| DL1XH-west | 2026-09-04 01:13:57 | 51.86651 | 7.14933 | 213° | 20km/h | 25381m | 6.3m/s | -51°C | 0.9% | 25.5hPa | 2.5V | 18:12:15 | 01:53:20 | 00:00:00 | |
| DM0DOS-11 | 2026-09-04 01:13:55 | 51.86692 | 7.14959 | 207° | 29km/h | 25344m | 6.4m/s | -50.9°C | 3.9% | 25.6hPa | 2.5V | 08:30:00 | 01:53:13 | 00:00:00 | |
| HSKMA3-T | 2026-09-04 01:13:55 | 51.86660 | 7.14942 | 209° | 22km/h | 25370m | 4.4m/s | -51°C | 0.9% | 25.5hPa | 2.6V | 18:12:15 | 01:53:18 | 00:00:00 | |
| DO2JMG | 2026-09-04 01:13:53 | 51.86672 | 7.14949 | 195° | 26km/h | 25359m | 6.1m/s | -51°C | 0.9% | 25.6hPa | 2.5V | 18:12:15 | 01:53:16 | 00:00:00 | |
| DF8AY | 2026-09-04 01:13:52 | 51.86678 | 7.14951 | 194° | 27km/h | 25353m | 4.8m/s | -51°C | 0.9% | 25.6hPa | 2.5V | 18:12:15 | 01:53:15 | 00:00:00 | |
| BIOWL9-15 | 2026-09-04 01:13:52 | 51.86685 | 7.14955 | 198° | 27km/h | 25349m | 4.1m/s | -50.9°C | 1.2% | 25.6hPa | 2.6V | 00:00:00 | 00:00:00 | 00:00:00 | |
| DJ2DS-15 | 2026-09-04 01:13:50 | 51.86698 | 7.14965 | 215° | 29km/h | 25338m | 5.6m/s | -51.0°C | 1.2% | 25.6hPa | 2.6V | 00:00:00 | 00:00:00 | 00:00:00 | |
| DL1XH-15 | 2026-09-04 01:13:49 | 51.86698 | 7.14965 | 215° | 29km/h | 25337m | 5.5m/s | -51°C | 4% | 25.6hPa | 2.6V | 08:30:00 | 01:53:12 | 00:00:00 | |
| AA1-15 | 2026-09-04 01:13:48 | 51.86704 | 7.14973 | 224° | 29km/h | 25333m | 4.5m/s | -51°C | 0.8% | 25.7hPa | 2.6V | 18:12:15 | 01:53:11 | 00:00:00 | |
| DL1XH-west | 2026-09-04 01:13:47 | 51.86709 | 7.14981 | 223° | 27km/h | 25328m | 5.3m/s | -51°C | 0.9% | 25.7hPa | 2.6V | 18:12:15 | 01:53:10 | 00:00:00 | |
| HSKMA3-T | 2026-09-04 01:13:45 | 51.86718 | 7.14993 | 214° | 20km/h | 25316m | 5.3m/s | -50.9°C | 0.9% | 25.7hPa | 2.5V | 18:12:15 | 01:53:08 | 00:00:00 | |
| DO2JMG | 2026-09-04 01:13:42 | 51.86730 | 7.15004 | 207° | 16km/h | 25300m | 5.4m/s | -50.9°C | 0.8% | 25.8hPa | 2.6V | 18:12:15 | 01:53:05 | 00:00:00 | |
| DF8AY | 2026-09-04 01:13:41 | 51.86733 | 7.15007 | 198° | 16km/h | 25295m | 4.8m/s | -50.9°C | 0.8% | 25.8hPa | 2.6V | 18:12:15 | 01:53:04 | 00:00:00 | |
| DL1XH-15 | 2026-09-04 01:13:39 | 51.86742 | 7.15008 | 174° | 20km/h | 25283m | 6.2m/s | -50.8°C | 4% | 25.9hPa | 2.5V | 08:30:00 | 01:53:02 | 00:00:00 | |
| BIOWL1-15 | 2026-09-04 01:13:37 | 51.86754 | 7.15006 | 177° | 24km/h | 25273m | 4.5m/s | -50.8°C | 0.8% | 25.9hPa | 2.6V | 18:12:15 | 01:53:00 | 00:00:00 | |
| DL1XH-west | 2026-09-04 01:13:36 | 51.86759 | 7.15006 | 186° | 22km/h | 25268m | 6.2m/s | -50.8°C | 0.8% | 25.9hPa | 2.6V | 18:12:15 | 01:52:59 | 00:00:00 | |
| HSKMA3-T | 2026-09-04 01:13:35 | 51.86765 | 7.15008 | 196° | 22km/h | 25262m | 5.2m/s | -50.7°C | 0.9% | 26hPa | 2.5V | 18:12:15 | 01:52:58 | 00:00:00 | |
| DO2JMG | 2026-09-04 01:13:31 | 51.86788 | 7.15021 | 196° | 26km/h | 25240m | 4.9m/s | -50.7°C | 0.8% | 26hPa | 2.6V | 18:12:15 | 01:52:54 | 00:00:00 | |
| DL1XH-15 | 2026-09-04 01:13:29 | 51.86800 | 7.15027 | 202° | 22km/h | 25229m | 6.3m/s | -50.7°C | 3.9% | 26.1hPa | 2.6V | 08:30:00 | 01:52:52 | 00:00:00 | |
| BIOWL1-15 | 2026-09-04 01:13:27 | 51.86814 | 7.15035 | 188° | 20km/h | 25213m | 6m/s | -50.8°C | 0.9% | 26.1hPa | 2.5V | 18:12:15 | 01:52:49 | 00:00:00 | |
| DM0DOS-11 | 2026-09-04 01:13:25 | 51.86848 | 7.15030 | 183° | 22km/h | 25179m | 4.9m/s | -50.9°C | 3.9% | 26.3hPa | 2.5V | 08:30:00 | 01:52:43 | 00:00:00 | |
| DL1XH-west | 2026-09-04 01:13:25 | 51.86819 | 7.15035 | 176° | 22km/h | 25206m | 6.2m/s | -50.8°C | 0.8% | 26.2hPa | 2.5V | 18:12:15 | 01:52:48 | 00:00:00 | |
| HSKMA3-T | 2026-09-04 01:13:24 | 51.86825 | 7.15034 | 169° | 24km/h | 25201m | 5.2m/s | -50.8°C | 0.8% | 26.2hPa | 2.6V | 18:12:15 | 01:52:47 | 00:00:00 | |
| DO2JMG | 2026-09-04 01:13:20 | 51.86848 | 7.15030 | 183° | 22km/h | 25179m | 4.9m/s | -50.9°C | 0.9% | 26.3hPa | 2.5V | 18:12:15 | 01:52:43 | 00:00:00 | |
| BIOWL1-15 | 2026-09-04 01:13:16 | 51.86871 | 7.15035 | 198° | 20km/h | 25158m | 5.9m/s | -50.8°C | 0.9% | 26.4hPa | 2.6V | 18:12:15 | 01:52:39 | 00:00:00 | |
| AA1-15 | 2026-09-04 01:13:15 | 51.86876 | 7.15038 | 202° | 16km/h | 25151m | 6.6m/s | -50.8°C | 0.8% | 26.4hPa | 2.5V | 18:12:15 | 01:52:38 | 00:00:00 | |
| HSKMA3-T | 2026-09-04 01:13:14 | 51.86879 | 7.15040 | 201° | 13km/h | 25145m | 5.6m/s | -50.8°C | 0.8% | 26.4hPa | 2.5V | 18:12:15 | 01:52:37 | 00:00:00 | |
| DF8AY | 2026-09-04 01:13:10 | 51.86893 | 7.15036 | 152° | 18km/h | 25124m | 4.1m/s | -50.9°C | 0.8% | 26.5hPa | 2.6V | 18:12:15 | 01:52:33 | 00:00:00 | |
| DO2JMG | 2026-09-04 01:13:09 | 51.86897 | 7.15033 | 151° | 18km/h | 25119m | 5.6m/s | -50.9°C | 0.8% | 26.5hPa | 2.5V | 18:12:15 | 01:52:32 | 00:00:00 | |
| AA1-15 | 2026-09-04 01:13:05 | 51.86914 | 7.15023 | 169° | 20km/h | 25098m | 6.5m/s | -51.2°C | 0.8% | 26.6hPa | 2.6V | 18:12:15 | 01:52:28 | 00:00:00 | |
| DL1XH-west | 2026-09-04 01:13:03 | 51.86924 | 7.15022 | 183° | 18km/h | 25087m | 4.6m/s | -51.3°C | 0.9% | 26.7hPa | 2.5V | 18:12:15 | 01:52:26 | 00:00:00 | |
| DF8AY | 2026-09-04 01:13:00 | 51.86934 | 7.15030 | 235° | 5km/h | 25065m | 4.4m/s | -51.5°C | 0.8% | 26.8hPa | 2.6V | 18:12:15 | 01:52:22 | 00:00:00 | |
| DD1CC8 | 2026-09-04 01:13:00 | 51.86934 | 7.15030 | 234° | 4km/h | 25065m | 4.4m/s | -51.5°C | 1.1% | 26.8hPa | 2.6V | 00:00:00 | 00:00:00 | 00:00:00 | |
| DL1XH-15 | 2026-09-04 01:12:59 | 51.86934 | 7.15030 | 234° | 5km/h | 25065m | 4.4m/s | -51.5°C | 3.9% | 26.8hPa | 2.6V | 08:30:00 | 01:52:22 | 00:00:00 | |
| DO2JMG | 2026-09-04 01:12:58 | 51.86935 | 7.15031 | 194° | 4km/h | 25060m | 5.9m/s | -51.5°C | 0.9% | 26.8hPa | 2.6V | 18:12:15 | 01:52:21 | 00:00:00 | |
| BIOWL1-15 | 2026-09-04 01:12:57 | 51.86940 | 7.15024 | 135° | 15km/h | 25043m | 4.4m/s | -51.5°C | 0.9% | 26.8hPa | 2.5V | 18:12:15 | 01:52:18 | 00:00:00 | |
| AA1-15 | 2026-09-04 01:12:54 | 51.86943 | 7.15020 | 135° | 15km/h | 25039m | 5.1m/s | -51.5°C | 0.9% | 26.8hPa | 2.5V | 18:12:15 | 01:52:17 | 00:00:00 | |
| DL1XH-west | 2026-09-04 01:12:53 | 51.86945 | 7.15016 | 137° | 11km/h | 25033m | 5.7m/s | -51.5°C | 0.9% | 26.9hPa | 2.6V | 18:12:15 | 01:52:16 | 00:00:00 | |
| HSKMA3-T | 2026-09-04 01:12:52 | 51.86947 | 7.15014 | 143° | 7km/h | 25027m | 5.7m/s | -51.5°C | 0.9% | 26.9hPa | 2.6V | 18:12:15 | 01:52:15 | 00:00:00 | |
| BIOWL9-15 | 2026-09-04 01:12:50 | 51.86950 | 7.15012 | 183° | 5km/h | 25012m | 6.1m/s | -51.5°C | 1.2% | 27.0hPa | 2.5V | 00:00:00 | 00:00:00 | 00:00:00 | |
| DL1XH-15 | 2026-09-04 01:12:49 | 51.86950 | 7.15012 | 183° | 5km/h | 25012m | 6m/s | -51.5°C | 4% | 27hPa | 2.5V | 08:30:00 | 01:52:12 | 00:00:00 | |
| DO2JMG | 2026-09-04 01:12:48 | 51.86952 | 7.15013 | 186° | 7km/h | 25006m | 5.8m/s | -51.6°C | 0.9% | 27hPa | 2.5V | 18:12:15 | 01:52:11 | 00:00:00 | |
| BIOWL1-15 | 2026-09-04 01:12:45 | 51.86957 | 7.15016 | 238° | 7km/h | 24989m | 6.5m/s | -51.6°C | 1% | 27.1hPa | 2.6V | 18:12:15 | 01:52:08 | 00:00:00 | |
| AA1-15 | 2026-09-04 01:12:44 | 51.86958 | 7.15019 | 246° | 7km/h | 24983m | 5.2m/s | -51.6°C | 0.9% | 27.1hPa | 2.5V | 18:12:15 | 01:52:07 | 00:00:00 | |
| DL1XH-west | 2026-09-04 01:12:42 | 51.86960 | 7.15024 | 201° | 7km/h | 24973m | 6m/s | -51.6°C | 0.9% | 27.1hPa | 2.5V | 18:12:15 | 01:52:05 | 00:00:00 | |
| HSKMA3-T | 2026-09-04 01:12:41 | 51.86962 | 7.15024 | 169° | 9km/h | 24967m | 6m/s | -51.6°C | 0.9% | 27.1hPa | 2.5V | 18:12:15 | 01:52:04 | 00:00:00 | |
| DM0DOS-11 | 2026-09-04 01:12:40 | 51.86964 | 7.15022 | 154° | 11km/h | 24962m | 4.6m/s | -51.6°C | 4.1% | 27.2hPa | 2.6V | 08:30:00 | 01:52:03 | 00:00:00 | |
| DO2JMG | 2026-09-04 01:12:38 | 51.86970 | 7.15018 | 147° | 9km/h | 24952m | 5.8m/s | -51.6°C | 1% | 27.2hPa | 2.5V | 18:12:15 | 01:52:01 | 00:00:00 | |
| DF8AY | 2026-09-04 01:12:37 | 51.86971 | 7.15016 | 147° | 5km/h | 24946m | 6.1m/s | -51.6°C | 1% | 27.2hPa | 2.5V | 18:12:15 | 01:52:00 | 00:00:00 | |
| BIOWL1-15 | 2026-09-04 01:12:35 | 51.86972 | 7.15015 | 130° | 0km/h | 24935m | 5.1m/s | -51.7°C | 0.9% | 27.3hPa | 2.6V | 18:12:15 | 01:51:58 | 00:00:00 | |
| AA1-15 | 2026-09-04 01:12:34 | 51.86973 | 7.15014 | 134° | 2km/h | 24930m | 6m/s | -51.6°C | 0.9% | 27.3hPa | 2.6V | 18:12:15 | 01:51:57 | 00:00:00 | |
| DL1XH-west | 2026-09-04 01:12:32 | 51.86974 | 7.15013 | 162° | 4km/h | 24919m | 4.6m/s | -51.6°C | 1% | 27.4hPa | 2.5V | 18:12:15 | 01:51:55 | 00:00:00 | |
| HSKMA3-T | 2026-09-04 01:12:30 | 51.86975 | 7.15014 | 259° | 4km/h | 24908m | 6.6m/s | -51.6°C | 0.9% | 27.4hPa | 2.5V | 18:12:15 | 01:51:53 | 00:00:00 | |
| DL1XH-15 | 2026-09-04 01:12:29 | 51.86975 | 7.15017 | 270° | 5km/h | 24902m | 5.8m/s | -51.6°C | 4% | 27.4hPa | 2.6V | 08:30:00 | 01:51:52 | 00:00:00 | |
| DO2JMG | 2026-09-04 01:12:28 | 51.86975 | 7.15019 | 264° | 7km/h | 24897m | 4.4m/s | -51.6°C | 0.9% | 27.4hPa | 2.6V | 18:12:15 | 01:51:51 | 00:00:00 | |
| BIOWL1-15 | 2026-09-04 01:12:25 | 51.86978 | 7.15022 | 162° | 7km/h | 24881m | 5.4m/s | -51.6°C | 1% | 27.5hPa | 2.5V | 18:12:15 | 01:51:48 | 00:00:00 | |
| AA1-15 | 2026-09-04 01:12:23 | 51.86981 | 7.15019 | 158° | 5km/h | 24870m | 5.6m/s | -51.7°C | 1% | 27.6hPa | 2.5V | 18:12:15 | 01:51:46 | 00:00:00 | |
| DL1XH-west | 2026-09-04 01:12:22 | 51.86983 | 7.15019 | 182° | 4km/h | 24865m | 5.8m/s | -51.7°C | 1% | 27.6hPa | 2.6V | 18:12:15 | 01:51:45 | 00:00:00 | |
| DM0DOS-11 | 2026-09-04 01:12:20 | 51.86984 | 7.15021 | 227° | 4km/h | 24855m | 4.7m/s | -51.8°C | 4.1% | 27.6hPa | 2.5V | 08:30:00 | 01:51:43 | 00:00:00 | |
| HSKMA3-T | 2026-09-04 01:12:19 | 51.86985 | 7.15022 | 214° | 5km/h | 24850m | 6m/s | -51.8°C | 1% | 27.7hPa | 2.5V | 18:12:15 | 01:51:42 | 00:00:00 | |
| DO2JMG | 2026-09-04 01:12:17 | 51.86988 | 7.15025 | 214° | 5km/h | 24839m | 4.8m/s | -51.8°C | 0.9% | 27.7hPa | 2.5V | 18:12:15 | 01:51:40 | 00:00:00 | |
| DF8AY | 2026-09-04 01:12:16 | 51.86989 | 7.15029 | 271° | 7km/h | 24828m | 6.5m/s | -51.9°C | 0.9% | 27.8hPa | 2.6V | 18:12:15 | 01:51:38 | 00:00:00 | |
| BIOWL1-15 | 2026-09-04 01:12:14 | 51.86989 | 7.15033 | 281° | 9km/h | 24823m | 5.4m/s | -51.9°C | 1% | 27.8hPa | 2.6V | 18:12:15 | 01:51:37 | 00:00:00 | |
| AA1-15 | 2026-09-04 01:12:12 | 51.86988 | 7.15040 | 259° | 9km/h | 24813m | 5.3m/s | -51.8°C | 1% | 27.8hPa | 2.5V | 18:12:15 | 01:51:35 | 00:00:00 | |
| DL1XH-west | 2026-09-04 01:12:11 | 51.86989 | 7.15043 | 225° | 9km/h | 24807m | 6.1m/s | -51.8°C | 1% | 27.8hPa | 2.5V | 18:12:15 | 01:51:34 | 00:00:00 | |
| DM0DOS-11 | 2026-09-04 01:12:10 | 51.86991 | 7.15045 | 202° | 11km/h | 24802m | 5.1m/s | -51.9°C | 4.1% | 27.9hPa | 2.5V | 08:30:00 | 01:51:33 | 00:00:00 | |
| DL1XH-15 | 2026-09-04 01:12:09 | 51.86994 | 7.15047 | 197° | 13km/h | 24797m | 4.7m/s | -51.9°C | 4.1% | 27.9hPa | 2.6V | 08:30:00 | 01:51:32 | 00:00:00 | |
| HSKMA3-T | 2026-09-04 01:12:09 | 51.86994 | 7.15047 | 198° | 13km/h | 24797m | 4.7m/s | -51.9°C | 1% | 27.9hPa | 2.6V | 18:12:15 | 01:51:32 | 00:00:00 | |
| DO2JMG | 2026-09-04 01:12:06 | 51.87002 | 7.15055 | 235° | 13km/h | 24780m | 5.5m/s | -51.8°C | 1% | 27.9hPa | 2.5V | 18:12:15 | 01:51:29 | 00:00:00 | |
| DF8AY | 2026-09-04 01:12:05 | 51.87004 | 7.15060 | 246° | 15km/h | 24775m | 4.6m/s | -51.8°C | 1% | 27.9hPa | 2.5V | 18:12:15 | 01:51:28 | 00:00:00 | |
| BIOWL1-15 | 2026-09-04 01:12:03 | 51.87007 | 7.15071 | 237° | 16km/h | 24766m | 5.9m/s | -51.8°C | 1% | 28hPa | 2.6V | 18:12:15 | 01:51:26 | 00:00:00 | |
| DL1XH-west | 2026-09-04 01:12:01 | 51.87013 | 7.15081 | 220° | 16km/h | 24755m | 4.5m/s | -51.7°C | 1% | 28.1hPa | 2.5V | 18:12:15 | 01:51:24 | 00:00:00 | |
| DL3AQ-11 | 2026-09-04 01:12:01 | 51.87016 | 7.15085 | 218° | 15km/h | 24750m | 4.3m/s | -51.7°C | 1.2% | 28.1hPa | 2.5V | 00:00:00 | 00:00:00 | 00:00:00 | |
| BUE01 | 2026-09-04 01:12:00 | 51.87016 | 7.15085 | 218° | 15km/h | 24750m | 4.3m/s | -51.7°C | 1.2% | 28.1hPa | 2.5V | 00:00:00 | 00:00:00 | 00:00:00 | |
| DL1XH-15 | 2026-09-04 01:11:59 | 51.87019 | 7.15089 | 223° | 13km/h | 24745m | 5.9m/s | -51.7°C | 4% | 28.1hPa | 2.5V | 08:30:00 | 01:51:22 | 00:00:00 | |
| HSKMA3-T | 2026-09-04 01:11:58 | 51.87021 | 7.15092 | 236° | 9km/h | 24739m | 6m/s | -51.7°C | 0.9% | 28.1hPa | 2.6V | 18:12:15 | 01:51:21 | 00:00:00 | |
| DO2JMG | 2026-09-04 01:11:55 | 51.87023 | 7.15100 | 215° | 7km/h | 24724m | 4.9m/s | -51.7°C | 1% | 28.2hPa | 2.5V | 18:12:15 | 01:51:18 | 00:00:00 | |
| BIOWL1-15 | 2026-09-04 01:11:54 | 51.87032 | 7.15104 | 196° | 16km/h | 24707m | 4.8m/s | -51.7°C | 0.9% | 28.3hPa | 2.5V | 18:12:15 | 01:51:15 | 00:00:00 | |
| DL1XH-west | 2026-09-04 01:11:51 | 51.87036 | 7.15106 | 201° | 15km/h | 24702m | 6.2m/s | -51.7°C | 0.9% | 28.3hPa | 2.6V | 18:12:15 | 01:51:14 | 00:00:00 | |
| AA1-15 | 2026-09-04 01:11:50 | 51.87039 | 7.15108 | 201° | 15km/h | 24696m | 5.5m/s | -51.7°C | 1% | 28.3hPa | 2.6V | 18:12:15 | 01:51:13 | 00:00:00 | |
| DL3AQ-11 | 2026-09-04 01:11:50 | 51.87042 | 7.15110 | 197° | 13km/h | 24691m | 4.4m/s | -51.7°C | 1.2% | 28.3hPa | 2.5V | 00:00:00 | 00:00:00 | 00:00:00 | |
| DL1XH-15 | 2026-09-04 01:11:49 | 51.87042 | 7.15110 | 197° | 13km/h | 24691m | 4.4m/s | -51.7°C | 4.1% | 28.3hPa | 2.5V | 08:30:00 | 01:51:12 | 00:00:00 | |
| HSKMA3-T | 2026-09-04 01:11:48 | 51.87046 | 7.15112 | 190° | 15km/h | 24686m | 5.5m/s | -51.7°C | 0.9% | 28.4hPa | 2.5V | 18:12:15 | 01:51:11 | 00:00:00 | |
| DO2JMG | 2026-09-04 01:11:45 | 51.87058 | 7.15110 | 164° | 15km/h | 24670m | 4.6m/s | -51.7°C | 1% | 28.4hPa | 2.6V | 18:12:15 | 01:51:08 | 00:00:00 | |
| DF8AY | 2026-09-04 01:11:44 | 51.87061 | 7.15108 | 152° | 13km/h | 24664m | 6.6m/s | -51.6°C | 1% | 28.5hPa | 2.6V | 18:12:15 | 01:51:07 | 00:00:00 | |
| BIOWL1-15 | 2026-09-04 01:11:41 | 51.87067 | 7.15099 | 134° | 13km/h | 24648m | 5.1m/s | -51.6°C | 1% | 28.5hPa | 2.5V | 18:12:15 | 01:51:04 | 00:00:00 | |
| DL1XH-west | 2026-09-04 01:11:40 | 51.87070 | 7.15095 | 144° | 15km/h | 24642m | 5.9m/s | -51.6°C | 1% | 28.6hPa | 2.5V | 18:12:15 | 01:51:03 | 00:00:00 | |
| DL1XH-15 | 2026-09-04 01:11:39 | 51.87074 | 7.15092 | 153° | 18km/h | 24637m | 4.5m/s | -51.6°C | 4.1% | 28.6hPa | 2.5V | 08:30:00 | 01:51:02 | 00:00:00 | |
| HSKMA3-T | 2026-09-04 01:11:37 | 51.87082 | 7.15087 | 165° | 16km/h | 24628m | 5.2m/s | -51.6°C | 0.9% | 28.6hPa | 2.6V | 18:12:15 | 01:51:00 | 00:00:00 | |
| DO2JMG | 2026-09-04 01:11:34 | 51.87090 | 7.15086 | 182° | 9km/h | 24613m | 4.1m/s | -51.7°C | 0.9% | 28.7hPa | 2.5V | 18:12:15 | 01:50:57 | 00:00:00 | |
| BIOWL1-15 | 2026-09-04 01:11:31 | 51.87099 | 7.15085 | 173° | 15km/h | 24597m | 5m/s | -51.7°C | 1% | 28.8hPa | 2.5V | 18:12:15 | 01:50:54 | 00:00:00 | |
| DM0DOS-11 | 2026-09-04 01:11:30 | 51.87103 | 7.15084 | 169° | 13km/h | 24592m | 4.6m/s | -51.7°C | 4.1% | 28.8hPa | 2.5V | 08:30:00 | 01:50:53 | 00:00:00 | |
| DL1XH-west | 2026-09-04 01:11:29 | 51.87105 | 7.15083 | 168° | 11km/h | 24587m | 6.1m/s | -51.8°C | 1% | 28.8hPa | 2.5V | 18:12:15 | 01:50:52 | 00:00:00 | |
| HSKMA3-T | 2026-09-04 01:11:27 | 51.87110 | 7.15080 | 141° | 11km/h | 24577m | 4.3m/s | -51.8°C | 0.9% | 28.8hPa | 2.6V | 18:12:15 | 01:50:50 | 00:00:00 | |
| DD1CC8 | 2026-09-04 01:11:27 | 51.87112 | 7.15077 | 132° | 13km/h | 24572m | 4.9m/s | -51.8°C | 1.2% | 28.9hPa | 2.6V | 00:00:00 | 00:00:00 | 00:00:00 | |
| SMARD9-15 | 2026-09-04 01:11:26 | 51.87118 | 7.15065 | 131° | 22km/h | 24560m | 5.3m/s | -51.9°C | 1.3% | 28.9hPa | 2.6V | 00:00:00 | 00:00:00 | 00:00:00 | |
| DM0DOS-11 | 2026-09-04 01:11:25 | 51.87133 | 7.15039 | 128° | 15km/h | 24540m | 4.3m/s | -51.9°C | 4.1% | 29hPa | 2.6V | 08:30:00 | 01:50:43 | 00:00:00 | |
| DO2JMG | 2026-09-04 01:11:24 | 51.87118 | 7.15065 | 132° | 24km/h | 24560m | 5.3m/s | -51.9°C | 1% | 28.9hPa | 2.5V | 18:12:15 | 01:50:47 | 00:00:00 | |
| BIOWL1-15 | 2026-09-04 01:11:21 | 51.87130 | 7.15045 | 131° | 18km/h | 24545m | 5.8m/s | -51.9°C | 0.9% | 29hPa | 2.5V | 18:12:15 | 01:50:44 | 00:00:00 | |
| DL1XH-west | 2026-09-04 01:11:19 | 51.87135 | 7.15035 | 125° | 13km/h | 24535m | 4.3m/s | -51.9°C | 1% | 29hPa | 2.6V | 18:12:15 | 01:50:42 | 00:00:00 | |
| AA1-15 | 2026-09-04 01:11:18 | 51.87137 | 7.15030 | 125° | 15km/h | 24531m | 5.2m/s | -52°C | 1% | 29.1hPa | 2.5V | 18:12:15 | 01:50:41 | 00:00:00 | |
| HSKMA3-T | 2026-09-04 01:11:16 | 51.87142 | 7.15019 | 125° | 18km/h | 24520m | 4.8m/s | -52°C | 1% | 29.1hPa | 2.5V | 18:12:15 | 01:50:39 | 00:00:00 | |
| DM0DOS-11 | 2026-09-04 01:11:15 | 51.87160 | 7.14985 | 135° | 24km/h | 24489m | 6.5m/s | -52°C | 4.1% | 29.2hPa | 2.5V | 08:30:00 | 01:50:33 | 00:00:00 | |
| DO2JMG | 2026-09-04 01:11:13 | 51.87150 | 7.15001 | 131° | 16km/h | 24505m | 5.1m/s | -52°C | 1% | 29.2hPa | 2.6V | 18:12:15 | 01:50:36 | 00:00:00 | |
| BIOWL1-15 | 2026-09-04 01:11:12 | 51.87160 | 7.14985 | 136° | 24km/h | 24490m | 6.5m/s | -52°C | 1% | 29.2hPa | 2.5V | 18:12:15 | 01:50:33 | 00:00:00 | |
| DL1XH-west | 2026-09-04 01:11:08 | 51.87169 | 7.14970 | 138° | 27km/h | 24479m | 4m/s | -52°C | 0.9% | 29.3hPa | 2.5V | 18:12:15 | 01:50:31 | 00:00:00 | |
| HSKMA3-T | 2026-09-04 01:11:06 | 51.87179 | 7.14958 | 148° | 24km/h | 24470m | 6.2m/s | -52°C | 1% | 29.3hPa | 2.6V | 18:12:15 | 01:50:29 | 00:00:00 | |
| DO2JMG | 2026-09-04 01:11:03 | 51.87192 | 7.14947 | 147° | 16km/h | 24455m | 4.9m/s | -52.1°C | 1% | 29.4hPa | 2.5V | 18:12:15 | 01:50:26 | 00:00:00 | |
| DD1CC1-15 | 2026-09-04 01:11:01 | 51.87195 | 7.14942 | 135° | 16km/h | 24450m | 5.8m/s | -52.1°C | 1.2% | 29.4hPa | 2.5V | 00:00:00 | 00:00:00 | 00:00:00 | |
| DM0DOS-11 | 2026-09-04 01:11:00 | 51.87200 | 7.14931 | 122° | 18km/h | 24439m | 4.7m/s | -52.1°C | 4.1% | 29.5hPa | 2.5V | 08:30:00 | 01:50:23 | 00:00:00 | |
| BIOWL1-15 | 2026-09-04 01:11:00 | 51.87200 | 7.14931 | 122° | 18km/h | 24439m | 4.7m/s | -52.2°C | 0.9% | 29.5hPa | 2.5V | 18:12:15 | 01:50:23 | 00:00:00 | |
| DL1XH-west | 2026-09-04 01:10:58 | 51.87205 | 7.14920 | 131° | 16km/h | 24429m | 5.7m/s | -52.3°C | 1% | 29.5hPa | 2.5V | 18:12:15 | 01:50:21 | 00:00:00 | |
| HSKMA3-T | 2026-09-04 01:10:55 | 51.87214 | 7.14902 | 125° | 22km/h | 24413m | 6m/s | -52.5°C | 1% | 29.6hPa | 2.6V | 18:12:15 | 01:50:18 | 00:00:00 | |
| SMARD9-15 | 2026-09-04 01:10:55 | 51.87218 | 7.14894 | 123° | 26km/h | 24408m | 5.2m/s | -52.5°C | 1.3% | 29.6hPa | 2.6V | 00:00:00 | 00:00:00 | 00:00:00 | |
| DL1XH-15 | 2026-09-04 01:10:54 | 51.87243 | 7.14850 | 135° | 31km/h | 24382m | 4.6m/s | -52.7°C | 4.2% | 29.7hPa | 2.6V | 08:30:00 | 01:50:12 | 00:00:00 | |
| DO2JMG | 2026-09-04 01:10:53 | 51.87222 | 7.14885 | 125° | 29km/h | 24403m | 4m/s | -52.6°C | 1% | 29.6hPa | 2.5V | 18:12:15 | 01:50:16 | 00:00:00 | |
| DL1LOL-11 | 2026-09-04 01:10:53 | 51.87222 | 7.14885 | 125° | 29km/h | 24403m | 4.0m/s | -52.5°C | 1.3% | 29.6hPa | 2.5V | 00:00:00 | 00:00:00 | 00:00:00 | |
| DH3RM | 2026-09-04 01:10:51 | 51.87226 | 7.14875 | 131° | 29km/h | 24398m | 5.7m/s | -52.6°C | 1.3% | 29.6hPa | 2.5V | 00:00:00 | 00:00:00 | 00:00:00 | |
| DM0DOS-11 | 2026-09-04 01:10:50 | 51.87237 | 7.14859 | 139° | 29km/h | 24387m | 4.9m/s | -52.6°C | 4.2% | 29.7hPa | 2.5V | 08:30:00 | 01:50:13 | 00:00:00 | |
| BIOWL1-15 | 2026-09-04 01:10:49 | 51.87242 | 7.14850 | 136° | 31km/h | 24382m | 4.6m/s | -52.7°C | 1.1% | 29.7hPa | 2.6V | 18:12:15 | 01:50:12 | 00:00:00 | |
| DL1XH-west | 2026-09-04 01:10:47 | 51.87253 | 7.14831 | 125° | 31km/h | 24372m | 4.9m/s | -52.7°C | 1.1% | 29.8hPa | 2.5V | 18:12:15 | 01:50:10 | 00:00:00 | |
| BIOWL9-15 | 2026-09-04 01:10:46 | 51.87260 | 7.14810 | 119° | 26km/h | 24362m | 5.5m/s | -52.8°C | 1.3% | 29.8hPa | 2.5V | 00:00:00 | 00:00:00 | 00:00:00 | |
| DM0DOS-11 | 2026-09-04 01:10:45 | 51.87273 | 7.14766 | 109° | 29km/h | 24337m | 5.5m/s | -52.8°C | 4.2% | 29.9hPa | 2.5V | 08:30:00 | 01:50:03 | 00:00:00 | |
| HSKMA3-T | 2026-09-04 01:10:45 | 51.87260 | 7.14810 | 119° | 27km/h | 24362m | 5.5m/s | -52.8°C | 1% | 29.8hPa | 2.5V | 18:12:15 | 01:50:08 | 00:00:00 | |
| DL1XH-15 | 2026-09-04 01:10:44 | 51.87276 | 7.14754 | 112° | 31km/h | 24332m | 4.6m/s | -52.9°C | 4.2% | 29.9hPa | 2.5V | 08:30:00 | 01:50:02 | 00:00:00 | |
| DO2JMG | 2026-09-04 01:10:43 | 51.87266 | 7.14793 | 117° | 22km/h | 24351m | 4.2m/s | -52.8°C | 1.1% | 29.9hPa | 2.6V | 18:12:15 | 01:50:06 | 00:00:00 | |
| DF8AY | 2026-09-04 01:10:42 | 51.87268 | 7.14785 | 114° | 22km/h | 24347m | 3.9m/s | -52.8°C | 1% | 29.9hPa | 2.6V | 18:12:15 | 01:50:05 | 00:00:00 | |
| BIOWL1-15 | 2026-09-04 01:10:39 | 51.87276 | 7.14754 | 113° | 33km/h | 24332m | 4.6m/s | -52.9°C | 1% | 29.9hPa | 2.5V | 18:12:15 | 01:50:02 | 00:00:00 | |
| AA1-15 | 2026-09-04 01:10:37 | 51.87284 | 7.14731 | 125° | 31km/h | 24322m | 6.1m/s | -52.9°C | 1% | 30hPa | 2.5V | 18:12:15 | 01:50:00 | 00:00:00 | |
| HSKMA3-T | 2026-09-04 01:10:35 | 51.87293 | 7.14714 | 133° | 26km/h | 24312m | 3.9m/s | -52.9°C | 1% | 30.1hPa | 2.6V | 18:12:15 | 01:49:58 | 00:00:00 | |
| DL1XH-15 | 2026-09-04 01:10:34 | 51.87308 | 7.14660 | 101° | 24km/h | 24282m | 5.9m/s | -53.2°C | 4.3% | 30.2hPa | 2.5V | 08:30:00 | 01:49:52 | 00:00:00 | |
| DO2JMG | 2026-09-04 01:10:32 | 51.87303 | 7.14689 | 112° | 26km/h | 24298m | 5.3m/s | -53°C | 1.1% | 30.1hPa | 2.5V | 18:12:15 | 01:49:55 | 00:00:00 | |
| BIOWL1-15 | 2026-09-04 01:10:28 | 51.87319 | 7.14568 | 100° | 20km/h | 24226m | 5.1m/s | -53.5°C | 1.1% | 30.5hPa | 2.6V | 18:12:15 | 01:49:41 | 00:00:00 | |
| DL1XH-west | 2026-09-04 01:10:27 | 51.87310 | 7.14643 | 100° | 20km/h | 24272m | 3.7m/s | -53.3°C | 1.1% | 30.2hPa | 2.5V | 18:12:15 | 01:49:50 | 00:00:00 | |
| AA1-15 | 2026-09-04 01:10:26 | 51.87310 | 7.14634 | 95° | 22km/h | 24268m | 5.6m/s | -53.3°C | 1% | 30.3hPa | 2.5V | 18:12:15 | 01:49:49 | 00:00:00 | |
| HSKMA3-T | 2026-09-04 01:10:25 | 51.87311 | 7.14625 | 92° | 22km/h | 24262m | 5.6m/s | -53.3°C | 1.1% | 30.3hPa | 2.6V | 18:12:15 | 01:49:48 | 00:00:00 | |
| DL1XH-15 | 2026-09-04 01:10:24 | 51.87318 | 7.14576 | 106° | 20km/h | 24232m | 5.9m/s | -53.5°C | 4.4% | 30.4hPa | 2.5V | 08:30:00 | 01:49:42 | 00:00:00 | |
| DO2JMG | 2026-09-04 01:10:22 | 51.87313 | 7.14599 | 106° | 20km/h | 24247m | 6.1m/s | -53.4°C | 1.1% | 30.4hPa | 2.5V | 18:12:15 | 01:49:45 | 00:00:00 | |
| DL1XH-west | 2026-09-04 01:10:16 | 51.87320 | 7.14553 | 97° | 16km/h | 24217m | 5m/s | -53.5°C | 1.1% | 30.5hPa | 2.5V | 18:12:15 | 01:49:39 | 00:00:00 | |
| AA1-15 | 2026-09-04 01:10:15 | 51.87321 | 7.14547 | 101° | 13km/h | 24211m | 6.1m/s | -53.5°C | 1.2% | 30.5hPa | 2.5V | 18:12:15 | 01:49:38 | 00:00:00 | |
| HSKMA3-T | 2026-09-04 01:10:14 | 51.87321 | 7.14542 | 103° | 11km/h | 24206m | 5.1m/s | -53.5°C | 1.1% | 30.6hPa | 2.5V | 18:12:15 | 01:49:37 | 00:00:00 | |
| DO2JMG | 2026-09-04 01:10:11 | 51.87322 | 7.14528 | 92° | 15km/h | 24190m | 4.7m/s | -53.7°C | 1.2% | 30.6hPa | 2.5V | 18:12:15 | 01:49:34 | 00:00:00 | |
| DL1XH-west | 2026-09-04 01:10:06 | 51.87333 | 7.14496 | 130° | 22km/h | 24165m | 4.5m/s | -53.7°C | 1.2% | 30.7hPa | 2.6V | 18:12:15 | 01:49:29 | 00:00:00 | |
| DL1XH-15 | 2026-09-04 01:10:04 | 51.87347 | 7.14463 | 159° | 9km/h | 24129m | 4.7m/s | -53.9°C | 4.5% | 30.9hPa | 2.6V | 08:30:00 | 01:49:22 | 00:00:00 | |
| HSKMA3-T | 2026-09-04 01:10:04 | 51.87338 | 7.14482 | 115° | 18km/h | 24155m | 5m/s | -53.8°C | 1.2% | 30.8hPa | 2.5V | 18:12:15 | 01:49:27 | 00:00:00 | |
| DO2JMG | 2026-09-04 01:10:01 | 51.87343 | 7.14467 | 134° | 11km/h | 24140m | 6.3m/s | -53.9°C | 1.2% | 30.8hPa | 2.5V | 18:12:15 | 01:49:24 | 00:00:00 | |
| DF8AY | 2026-09-04 01:10:00 | 51.87345 | 7.14465 | 150° | 9km/h | 24135m | 5.5m/s | -53.9°C | 1.2% | 30.9hPa | 2.6V | 18:12:15 | 01:49:23 | 00:00:00 | |
| DL1XH-west | 2026-09-04 01:09:56 | 51.87351 | 7.14457 | 109° | 9km/h | 24115m | 4.8m/s | -53.9°C | 1.2% | 31hPa | 2.5V | 18:12:15 | 01:49:19 | 00:00:00 | |
| BIOWL1-15 | 2026-09-04 01:09:56 | 51.87366 | 7.14421 | 127° | 31km/h | 24089m | 5.1m/s | -54°C | 1.3% | 31.1hPa | 2.5V | 18:12:15 | 01:49:14 | 00:00:00 | |
| DL1XH-15 | 2026-09-04 01:09:54 | 51.87374 | 7.14400 | 119° | 29km/h | 24078m | 5.1m/s | -54°C | 4.6% | 31.1hPa | 2.5V | 08:30:00 | 01:49:12 | 00:00:00 | |
| AA1-15 | 2026-09-04 01:09:54 | 51.87354 | 7.14446 | 120° | 18km/h | 24105m | 5.6m/s | -53.9°C | 1.2% | 31hPa | 2.6V | 18:12:15 | 01:49:17 | 00:00:00 | |
| HSKMA3-T | 2026-09-04 01:09:53 | 51.87357 | 7.14439 | 127° | 24km/h | 24099m | 5.7m/s | -54°C | 1.3% | 31hPa | 2.6V | 18:12:15 | 01:49:16 | 00:00:00 | |
| DO2JMG | 2026-09-04 01:09:50 | 51.87371 | 7.14411 | 123° | 31km/h | 24083m | 6.2m/s | -54°C | 1.2% | 31.1hPa | 2.5V | 18:12:15 | 01:49:13 | 00:00:00 | |
| BIOWL1-15 | 2026-09-04 01:09:47 | 51.87387 | 7.14367 | 134° | 18km/h | 24058m | 4.8m/s | -53.9°C | 1.3% | 31.2hPa | 2.5V | 18:12:15 | 01:49:08 | 00:00:00 | |
| DL1XH-west | 2026-09-04 01:09:46 | 51.87384 | 7.14373 | 129° | 20km/h | 24063m | 6.2m/s | -53.9°C | 1.2% | 31.2hPa | 2.6V | 18:12:15 | 01:49:09 | 00:00:00 | |
| AA1-15 | 2026-09-04 01:09:44 | 51.87390 | 7.14362 | 132° | 16km/h | 24053m | 4.2m/s | -53.8°C | 1.3% | 31.3hPa | 2.5V | 18:12:15 | 01:49:07 | 00:00:00 | |
| HSKMA3-T | 2026-09-04 01:09:42 | 51.87394 | 7.14351 | 106° | 16km/h | 24042m | 5.7m/s | -53.8°C | 1.2% | 31.3hPa | 2.6V | 18:12:15 | 01:49:05 | 00:00:00 | |
| DO2JMG | 2026-09-04 01:09:40 | 51.87396 | 7.14336 | 97° | 22km/h | 24032m | 4.7m/s | -53.7°C | 1.2% | 31.4hPa | 2.5V | 18:12:15 | 01:49:03 | 00:00:00 | |
| DF8AY | 2026-09-04 01:09:39 | 51.87397 | 7.14327 | 103° | 22km/h | 24026m | 6.2m/s | -53.7°C | 1.2% | 31.4hPa | 2.5V | 18:12:15 | 01:49:02 | 00:00:00 | |
| DL1XH-west | 2026-09-04 01:09:35 | 51.87405 | 7.14289 | 108° | 29km/h | 24005m | 6m/s | -53.6°C | 1.2% | 31.5hPa | 2.6V | 18:12:15 | 01:48:58 | 00:00:00 | |
| AA1-15 | 2026-09-04 01:09:34 | 51.87407 | 7.14278 | 107° | 29km/h | 24000m | 4.8m/s | -53.6°C | 1.2% | 31.5hPa | 2.6V | 18:12:15 | 01:48:57 | 00:00:00 | |
| HSKMA3-T | 2026-09-04 01:09:32 | 51.87412 | 7.14257 | 114° | 24km/h | 23990m | 6.1m/s | -53.6°C | 1.2% | 31.6hPa | 2.5V | 18:12:15 | 01:48:55 | 00:00:00 | |
| DO2JMG | 2026-09-04 01:09:29 | 51.87419 | 7.14232 | 114° | 24km/h | 23975m | 4.9m/s | -53.6°C | 1.2% | 31.6hPa | 2.6V | 18:12:15 | 01:48:52 | 00:00:00 | |
| GOEST3-10 | 2026-09-04 01:09:29 | 51.87419 | 7.14232 | 114° | 29km/h | 23975m | 4.9m/s | -53.5°C | 4.5% | 31.6hPa | 2.5V | 00:00:00 | 00:00:00 | 00:00:00 | |
| DC6BW-12 | 2026-09-04 01:09:28 | 51.87419 | 7.14232 | 115° | 24km/h | 23975m | 4.9m/s | -53.6°C | 1.4% | 31.6hPa | 2.5V | 00:00:00 | 00:00:00 | 00:00:00 | |
| DO3MHA-11 | 2026-09-04 01:09:27 | 51.87424 | 7.14212 | 108° | 29km/h | 23965m | 5.0m/s | -53.6°C | 4.5% | 31.7hPa | 2.5V | 00:00:00 | 01:48:50 | 00:00:00 | |
| EDDB2-12 | 2026-09-04 01:09:26 | 51.87427 | 7.14200 | 107° | 31km/h | 23959m | 4.5m/s | -53.7°C | 1.4% | 31.7hPa | 2.5V | 00:00:00 | 00:00:00 | 00:00:00 | |
| DM0DOS-11 | 2026-09-04 01:09:25 | 51.87439 | 7.14126 | 99° | 27km/h | 23929m | 4m/s | -53.8°C | 4.5% | 31.9hPa | 2.5V | 08:30:00 | 01:48:43 | 00:00:00 | |
| DL1XH-west | 2026-09-04 01:09:24 | 51.87432 | 7.14175 | 110° | 33km/h | 23949m | 5.2m/s | -53.7°C | 1.3% | 31.8hPa | 2.6V | 18:12:15 | 01:48:47 | 00:00:00 | |
| AA1-15 | 2026-09-04 01:09:23 | 51.87435 | 7.14162 | 107° | 33km/h | 23944m | 4m/s | -53.8°C | 1.2% | 31.8hPa | 2.6V | 18:12:15 | 01:48:46 | 00:00:00 | |
| HSKMA3-T | 2026-09-04 01:09:21 | 51.87438 | 7.14137 | 99° | 29km/h | 23933m | 5.5m/s | -53.8°C | 1.3% | 31.9hPa | 2.5V | 18:12:15 | 01:48:44 | 00:00:00 | |
| DO2JMG | 2026-09-04 01:09:19 | 51.87441 | 7.14116 | 105° | 26km/h | 23923m | 6.2m/s | -53.8°C | 1.2% | 31.9hPa | 2.5V | 18:12:15 | 01:48:42 | 00:00:00 | |
| GOEST3-10 | 2026-09-04 01:09:19 | 51.87441 | 7.14116 | 105° | 27km/h | 23924m | 6.1m/s | -53.7°C | 4.5% | 31.8hPa | 2.5V | 00:00:00 | 00:00:00 | 00:00:00 | |
| DO2LYB-13 | 2026-09-04 01:09:17 | 51.87445 | 7.14097 | 115° | 26km/h | 23913m | 4.0m/s | -53.8°C | 1.4% | 32.0hPa | 2.6V | 00:00:00 | 00:00:00 | 00:00:00 | |
| DB0ND-19 | 2026-09-04 01:09:16 | 51.87448 | 7.14087 | 110° | 27km/h | 23909m | 5.3m/s | -53.8°C | 1.4% | 32.0hPa | 2.6V | 00:00:00 | 00:00:00 | 00:00:00 | |
| DM0DOS-11 | 2026-09-04 01:09:15 | 51.87465 | 7.13999 | 107° | 42km/h | 23877m | 3.9m/s | -53.7°C | 4.6% | 32.1hPa | 2.6V | 08:30:00 | 01:48:33 | 00:00:00 | |
| DL1XH-15 | 2026-09-04 01:09:14 | 51.87468 | 7.13983 | 102° | 40km/h | 23872m | 5.3m/s | -53.7°C | 4.6% | 32.1hPa | 2.5V | 08:30:00 | 01:48:32 | 00:00:00 | |
| DL1XH-west | 2026-09-04 01:09:14 | 51.87452 | 7.14062 | 105° | 37km/h | 23897m | 5.3m/s | -53.7°C | 1.2% | 32hPa | 2.5V | 18:12:15 | 01:48:37 | 00:00:00 | |
| AA1-15 | 2026-09-04 01:09:13 | 51.87455 | 7.14047 | 107° | 40km/h | 23892m | 4.9m/s | -53.7°C | 1.2% | 32.1hPa | 2.5V | 18:12:15 | 01:48:36 | 00:00:00 | |
| HSKMA3-T | 2026-09-04 01:09:10 | 51.87465 | 7.13999 | 108° | 42km/h | 23877m | 3.9m/s | -53.7°C | 1.2% | 32.1hPa | 2.6V | 18:12:15 | 01:48:33 | 00:00:00 | |
| DO2JMG | 2026-09-04 01:09:08 | 51.87469 | 7.13967 | 95° | 40km/h | 23867m | 5.6m/s | -53.6°C | 1.3% | 32.2hPa | 2.5V | 18:12:15 | 01:48:31 | 00:00:00 | |
| DO3MHA-11 | 2026-09-04 01:09:07 | 51.87470 | 7.13951 | 91° | 27km/h | 23862m | 4.7m/s | -53.6°C | 4.6% | 32.1hPa | 2.6V | 00:00:00 | 01:48:30 | 00:00:00 | |
| DL1ZP-14 | 2026-09-04 01:09:06 | 51.87470 | 7.13924 | 91° | 29km/h | 23852m | 5.7m/s | -53.6°C | 1.4% | 32.3hPa | 2.6V | 00:00:00 | 00:00:00 | 00:00:00 | |
| DM0DOS-11 | 2026-09-04 01:09:05 | 51.87474 | 7.13875 | 91° | 26km/h | 23827m | 5.6m/s | -53.4°C | 4.5% | 32.4hPa | 2.6V | 08:30:00 | 01:48:23 | 00:00:00 | |
| BIOWL1-15 | 2026-09-04 01:09:03 | 51.87474 | 7.13885 | 99° | 24km/h | 23832m | 5.9m/s | -53.5°C | 1.2% | 32.4hPa | 2.5V | 18:12:15 | 01:48:24 | 00:00:00 | |
| DL1XH-west | 2026-09-04 01:09:03 | 51.87471 | 7.13903 | 104° | 24km/h | 23841m | 4.3m/s | -53.5°C | 1.3% | 32.3hPa | 2.5V | 18:12:15 | 01:48:26 | 00:00:00 | |
| DL1XH-15 | 2026-09-04 01:09:02 | 51.87474 | 7.13864 | 90° | 27km/h | 23821m | 4.9m/s | -53.4°C | 4.5% | 32.4hPa | 2.6V | 08:30:00 | 01:48:22 | 00:00:00 | |
| AA1-15 | 2026-09-04 01:09:02 | 51.87473 | 7.13894 | 103° | 24km/h | 23837m | 4m/s | -53.5°C | 1.3% | 32.3hPa | 2.5V | 18:12:15 | 01:48:25 | 00:00:00 | |
| HSKMA3-T | 2026-09-04 01:09:00 | 51.87474 | 7.13875 | 92° | 26km/h | 23827m | 5.6m/s | -53.4°C | 1.2% | 32.4hPa | 2.6V | 18:12:15 | 01:48:23 | 00:00:00 | |
| DO2JMG | 2026-09-04 01:08:58 | 51.87475 | 7.13852 | 92° | 31km/h | 23816m | 4.9m/s | -53.4°C | 1.2% | 32.5hPa | 2.6V | 18:12:15 | 01:48:21 | 00:00:00 | |
| DO3MHA-11 | 2026-09-04 01:08:57 | 51.87475 | 7.13839 | 97° | 26km/h | 23812m | 4.9m/s | -53.3°C | 4.4% | 32.4hPa | 2.5V | 00:00:00 | 01:48:20 | 00:00:00 | |
| DM0DOS-11 | 2026-09-04 01:08:55 | 51.87478 | 7.13755 | 80° | 26km/h | 23772m | 5.8m/s | -53.3°C | 4.4% | 32.6hPa | 2.5V | 08:30:00 | 01:48:12 | 00:00:00 | |
| DL1XH-west | 2026-09-04 01:08:52 | 51.87481 | 7.13785 | 87° | 24km/h | 23787m | 5.6m/s | -53.3°C | 1.2% | 32.6hPa | 2.6V | 18:12:15 | 01:48:15 | 00:00:00 | |
| DL1XH-15 | 2026-09-04 01:08:51 | 51.87478 | 7.13755 | 80° | 26km/h | 23772m | 5.8m/s | -53.3°C | 4.4% | 32.6hPa | 2.5V | 08:30:00 | 01:48:12 | 00:00:00 | |
| HSKMA3-T | 2026-09-04 01:08:50 | 51.87479 | 7.13766 | 77° | 26km/h | 23777m | 4.5m/s | -53.3°C | 1.2% | 32.6hPa | 2.5V | 18:12:15 | 01:48:13 | 00:00:00 | |
| DO2JMG | 2026-09-04 01:08:47 | 51.87476 | 7.13734 | 83° | 27km/h | 23762m | 4.8m/s | -53.3°C | 1.2% | 32.7hPa | 2.6V | 18:12:15 | 01:48:10 | 00:00:00 | |
| DB0ND-19 | 2026-09-04 01:08:45 | 51.87474 | 7.13714 | 74° | 24km/h | 23751m | 6.2m/s | -53.2°C | 1.3% | 32.8hPa | 2.6V | 00:00:00 | 00:00:00 | 00:00:00 | |
| DM0DOS-11 | 2026-09-04 01:08:44 | 51.87469 | 7.13671 | 93° | 18km/h | 23725m | 4.4m/s | -53.2°C | 4.4% | 32.9hPa | 2.6V | 08:30:00 | 01:48:03 | 00:00:00 | |
| DL1XH-15 | 2026-09-04 01:08:44 | 51.87469 | 7.13663 | 85° | 20km/h | 23720m | 4.8m/s | -53.2°C | 4.4% | 33hPa | 2.5V | 08:30:00 | 01:48:02 | 00:00:00 | |
| AA1-15 | 2026-09-04 01:08:42 | 51.87469 | 7.13687 | 81° | 20km/h | 23736m | 6.2m/s | -53.2°C | 1.2% | 32.8hPa | 2.6V | 18:12:15 | 01:48:05 | 00:00:00 | |
| DL1XH-west | 2026-09-04 01:08:41 | 51.87469 | 7.13679 | 92° | 20km/h | 23730m | 5.4m/s | -53.2°C | 1.2% | 32.9hPa | 2.6V | 18:12:15 | 01:48:04 | 00:00:00 | |
| HSKMA3-T | 2026-09-04 01:08:40 | 51.87469 | 7.13671 | 93° | 20km/h | 23725m | 4.4m/s | -53.2°C | 1.1% | 32.9hPa | 2.6V | 18:12:15 | 01:48:03 | 00:00:00 | |
| BIOWL1-15 | 2026-09-04 01:08:39 | 51.87460 | 7.13630 | 60° | 26km/h | 23700m | 5m/s | -53.1°C | 1.1% | 33hPa | 2.6V | 18:12:15 | 01:47:58 | 00:00:00 | |
| DO2JMG | 2026-09-04 01:08:36 | 51.87463 | 7.13639 | 61° | 24km/h | 23705m | 4.6m/s | -53.2°C | 1.1% | 33hPa | 2.5V | 18:12:15 | 01:47:59 | 00:00:00 | |
| DL1ZP-14 | 2026-09-04 01:08:35 | 51.87457 | 7.13621 | 64° | 26km/h | 23695m | 5.8m/s | -53.1°C | 1.4% | 33.1hPa | 2.6V | 00:00:00 | 00:00:00 | 00:00:00 | |
| DM0DOS-11 | 2026-09-04 01:08:34 | 51.87447 | 7.13577 | 64° | 33km/h | 23676m | 6.1m/s | -53.2°C | 4.4% | 33.2hPa | 2.6V | 08:30:00 | 01:47:53 | 00:00:00 | |
| DL1XH-15 | 2026-09-04 01:08:34 | 51.87443 | 7.13565 | 60° | 31km/h | 23670m | 5.1m/s | -53.2°C | 4.4% | 33.2hPa | 2.6V | 08:30:00 | 01:47:52 | 00:00:00 | |
| DF8AY | 2026-09-04 01:08:31 | 51.87432 | 7.13538 | 57° | 20km/h | 23655m | 6.2m/s | -53°C | 1.1% | 33.2hPa | 2.5V | 18:12:15 | 01:47:49 | 00:00:00 | |
| AA1-15 | 2026-09-04 01:08:31 | 51.87450 | 7.13588 | 69° | 31km/h | 23681m | 4.3m/s | -53.2°C | 1.2% | 33.1hPa | 2.5V | 18:12:15 | 01:47:54 | 00:00:00 | |
| DL1XH-west | 2026-09-04 01:08:30 | 51.87447 | 7.13577 | 64° | 33km/h | 23676m | 6.1m/s | -53.2°C | 1.2% | 33.2hPa | 2.6V | 18:12:15 | 01:47:53 | 00:00:00 | |
| HSKMA3-T | 2026-09-04 01:08:29 | 51.87439 | 7.13554 | 56° | 29km/h | 23665m | 4.7m/s | -53.1°C | 1.2% | 33.2hPa | 2.5V | 18:12:15 | 01:47:51 | 00:00:00 | |
| BIOWL1-15 | 2026-09-04 01:08:27 | 51.87423 | 7.13523 | 25° | 15km/h | 23633m | 5.5m/s | -53.1°C | 1.2% | 33.4hPa | 2.6V | 18:12:15 | 01:47:45 | 00:00:00 | |
| DO2JMG | 2026-09-04 01:08:25 | 51.87429 | 7.13532 | 57° | 15km/h | 23649m | 5.5m/s | -53°C | 1.1% | 33.3hPa | 2.5V | 18:12:15 | 01:47:48 | 00:00:00 | |
| AA1-15 | 2026-09-04 01:08:21 | 51.87419 | 7.13520 | 24° | 15km/h | 23628m | 4.3m/s | -53.1°C | 1.1% | 33.4hPa | 2.5V | 18:12:15 | 01:47:44 | 00:00:00 | |
| DL1XH-15 | 2026-09-04 01:08:20 | 51.87413 | 7.13514 | 41° | 16km/h | 23619m | 6m/s | -53.1°C | 4.4% | 33.4hPa | 2.5V | 08:30:00 | 01:47:42 | 00:00:00 | |
| DL1XH-west | 2026-09-04 01:08:19 | 51.87413 | 7.13514 | 41° | 16km/h | 23619m | 6m/s | -53.2°C | 1.1% | 33.4hPa | 2.5V | 18:12:15 | 01:47:42 | 00:00:00 | |
| HSKMA3-T | 2026-09-04 01:08:18 | 51.87407 | 7.13502 | 61° | 20km/h | 23608m | 4.9m/s | -53.1°C | 1.2% | 33.5hPa | 2.6V | 18:12:15 | 01:47:40 | 00:00:00 | |
| DF8AY | 2026-09-04 01:08:16 | 51.87405 | 7.13494 | 63° | 24km/h | 23603m | 4.4m/s | -53.1°C | 1.1% | 33.5hPa | 2.6V | 18:12:15 | 01:47:39 | 00:00:00 | |
| DO2JMG | 2026-09-04 01:08:15 | 51.87402 | 7.13485 | 61° | 27km/h | 23598m | 6.3m/s | -53.1°C | 1.1% | 33.6hPa | 2.5V | 18:12:15 | 01:47:38 | 00:00:00 | |
| AA1-15 | 2026-09-04 01:08:11 | 51.87388 | 7.13447 | 67° | 20km/h | 23577m | 5.8m/s | -53°C | 1.1% | 33.7hPa | 2.6V | 18:12:15 | 01:47:34 | 00:00:00 | |
| DL1XH-15 | 2026-09-04 01:08:10 | 51.87386 | 7.13435 | 74° | 11km/h | 23567m | 4.4m/s | -53°C | 4.3% | 33.7hPa | 2.5V | 08:30:00 | 01:47:32 | 00:00:00 | |
| DL1XH-west | 2026-09-04 01:08:09 | 51.87385 | 7.13435 | 75° | 11km/h | 23567m | 4.4m/s | -53°C | 1.1% | 33.7hPa | 2.5V | 18:12:15 | 01:47:32 | 00:00:00 | |
| HSKMA3-T | 2026-09-04 01:08:07 | 51.87383 | 7.13428 | 54° | 9km/h | 23557m | 5.7m/s | -53.1°C | 1.1% | 33.8hPa | 2.5V | 18:12:15 | 01:47:30 | 00:00:00 | |
| DO2JMG | 2026-09-04 01:08:04 | 51.87378 | 7.13417 | 67° | 13km/h | 23542m | 4.9m/s | -53.1°C | 1.1% | 33.9hPa | 2.6V | 18:12:15 | 01:47:27 | 00:00:00 | |
| DL1ZP-14 | 2026-09-04 01:08:04 | 51.87378 | 7.13411 | 82° | 13km/h | 23537m | 6.2m/s | -53.1°C | 1.4% | 33.9hPa | 2.5V | 00:00:00 | 00:00:00 | 00:00:00 | |
| DF5WG-10 | 2026-09-04 01:08:03 | 51.87377 | 7.13411 | 83° | 16km/h | 23537m | 6.1m/s | -53.1°C | 4.4% | 33.8hPa | 2.5V | 00:00:00 | 01:47:26 | 00:00:00 | |
| BIOWL1-15 | 2026-09-04 01:08:03 | 51.87377 | 7.13405 | 92° | 16km/h | 23531m | 5.1m/s | -53.2°C | 1.2% | 33.9hPa | 2.5V | 18:12:15 | 01:47:25 | 00:00:00 | |
| MET0W-2 | 2026-09-04 01:08:02 | 51.87377 | 7.13405 | 92° | 15km/h | 23531m | 5.1m/s | -53.2°C | 1.4% | 33.9hPa | 2.5V | 00:00:00 | 00:00:00 | 00:00:00 | |
| DM0DOS-11 | 2026-09-04 01:08:01 | 51.87373 | 7.13369 | 72° | 16km/h | 23507m | 5.1m/s | -53.3°C | 4.4% | 34hPa | 2.5V | 08:30:00 | 01:47:20 | 00:00:00 | |
| AA1-15 | 2026-09-04 01:08:00 | 51.87377 | 7.13391 | 80° | 18km/h | 23521m | 5.8m/s | -53.2°C | 1.1% | 34hPa | 2.5V | 18:12:15 | 01:47:23 | 00:00:00 | |
| DL1XH-west | 2026-09-04 01:07:58 | 51.87374 | 7.13376 | 69° | 18km/h | 23511m | 3.8m/s | -53.2°C | 1.1% | 34hPa | 2.6V | 18:12:15 | 01:47:21 | 00:00:00 | |
| HSKMA3-T | 2026-09-04 01:07:57 | 51.87373 | 7.13369 | 73° | 16km/h | 23507m | 5.1m/s | -53.3°C | 1.2% | 34hPa | 2.5V | 18:12:15 | 01:47:20 | 00:00:00 | |
| DF8AY | 2026-09-04 01:07:55 | 51.87371 | 7.13357 | 81° | 13km/h | 23496m | 4.7m/s | -53.3°C | 1.2% | 34.1hPa | 2.5V | 18:12:15 | 01:47:18 | 00:00:00 | |
| DO2JMG | 2026-09-04 01:07:54 | 51.87370 | 7.13352 | 71° | 13km/h | 23492m | 5.1m/s | -53.3°C | 1.1% | 34.1hPa | 2.6V | 18:12:15 | 01:47:17 | 00:00:00 | |
| BIOWL1-15 | 2026-09-04 01:07:52 | 51.87367 | 7.13343 | 58° | 13km/h | 23481m | 4.5m/s | -53.3°C | 1.1% | 34.2hPa | 2.5V | 18:12:15 | 01:47:15 | 00:00:00 | |
| BUE01 | 2026-09-04 01:07:52 | 51.87366 | 7.13339 | 68° | 11km/h | 23477m | 4.3m/s | -53.4°C | 1.4% | 34.2hPa | 2.6V | 00:00:00 | 00:00:00 | 00:00:00 | |
| DM0DOS-11 | 2026-09-04 01:07:51 | 51.87366 | 7.13320 | 95° | 13km/h | 23455m | 5.8m/s | -53.4°C | 4.5% | 34.3hPa | 2.6V | 08:30:00 | 01:47:10 | 00:00:00 | |
| AA1-15 | 2026-09-04 01:07:50 | 51.87365 | 7.13335 | 87° | 11km/h | 23471m | 5.9m/s | -53.4°C | 1.2% | 34.2hPa | 2.5V | 18:12:15 | 01:47:13 | 00:00:00 | |
| DL1XH-west | 2026-09-04 01:07:47 | 51.87367 | 7.13320 | 95° | 13km/h | 23455m | 5.8m/s | -53.4°C | 1.2% | 34.3hPa | 2.6V | 18:12:15 | 01:47:10 | 00:00:00 | |
| HSKMA3-T | 2026-09-04 01:07:46 | 51.87366 | 7.13315 | 83° | 13km/h | 23449m | 5.6m/s | -53.5°C | 1.2% | 34.3hPa | 2.6V | 18:12:15 | 01:47:09 | 00:00:00 | |
| DF8AY | 2026-09-04 01:07:45 | 51.87366 | 7.13310 | 74° | 13km/h | 23445m | 4.5m/s | -53.5°C | 1.3% | 34.4hPa | 2.5V | 18:12:15 | 01:47:08 | 00:00:00 | |
| DO2JMG | 2026-09-04 01:07:43 | 51.87365 | 7.13300 | 91° | 11km/h | 23435m | 6.1m/s | -53.4°C | 1.2% | 34.4hPa | 2.5V | 18:12:15 | 01:47:06 | 00:00:00 | |
| AA1-15 | 2026-09-04 01:07:40 | 51.87366 | 7.13287 | 85° | 9km/h | 23420m | 5.3m/s | -53.4°C | 1.2% | 34.5hPa | 2.6V | 18:12:15 | 01:47:03 | 00:00:00 | |
| DL1XH-west | 2026-09-04 01:07:37 | 51.87362 | 7.13278 | 39° | 11km/h | 23405m | 4.2m/s | -53.4°C | 1.2% | 34.6hPa | 2.5V | 18:12:15 | 01:47:00 | 00:00:00 | |
| HSKMA3-T | 2026-09-04 01:07:36 | 51.87360 | 7.13275 | 49° | 9km/h | 23400m | 5.2m/s | -53.3°C | 1.2% | 34.6hPa | 2.6V | 18:12:15 | 01:46:59 | 00:00:00 | |
| DF8AY | 2026-09-04 01:07:34 | 51.87358 | 7.13269 | 75° | 9km/h | 23390m | 4.4m/s | -53.3°C | 1.3% | 34.7hPa | 2.5V | 18:12:15 | 01:46:57 | 00:00:00 | |
| BIOWL1-15 | 2026-09-04 01:07:33 | 51.87351 | 7.13251 | 56° | 15km/h | 23370m | 4.2m/s | -53.2°C | 1.2% | 34.8hPa | 2.6V | 18:12:15 | 01:46:53 | 00:00:00 | |
| DO2JMG | 2026-09-04 01:07:33 | 51.87357 | 7.13265 | 68° | 11km/h | 23386m | 4.6m/s | -53.3°C | 1.2% | 34.7hPa | 2.5V | 18:12:15 | 01:46:56 | 00:00:00 | |
| DJ2KF-10 | 2026-09-04 01:07:33 | 51.87357 | 7.13265 | 69° | 5km/h | 23386m | 4.6m/s | -53.2°C | 4.5% | 34.6hPa | 2.5V | 00:00:00 | 01:46:56 | 00:00:00 | |
| DL1ZP-14 | 2026-09-04 01:07:32 | 51.87355 | 7.13260 | 59° | 13km/h | 23380m | 6.0m/s | -53.3°C | 1.4% | 34.7hPa | 2.5V | 00:00:00 | 00:00:00 | 00:00:00 | |
| DM0DOS-11 | 2026-09-04 01:07:31 | 51.87347 | 7.13238 | 58° | 7km/h | 23355m | 4.5m/s | -53.2°C | 4.5% | 34.8hPa | 2.5V | 08:30:00 | 01:46:50 | 00:00:00 | |
| AA1-15 | 2026-09-04 01:07:29 | 51.87349 | 7.13246 | 62° | 13km/h | 23365m | 5.8m/s | -53.2°C | 1.2% | 34.8hPa | 2.6V | 18:12:15 | 01:46:52 | 00:00:00 | |
| DL1XH-west | 2026-09-04 01:07:26 | 51.87346 | 7.13236 | 34° | 7km/h | 23350m | 6.1m/s | -53.1°C | 1.2% | 34.9hPa | 2.5V | 18:12:15 | 01:46:49 | 00:00:00 | |
| HSKMA3-T | 2026-09-04 01:07:25 | 51.87344 | 7.13235 | 7° | 7km/h | 23344m | 5.5m/s | -53.1°C | 1.2% | 34.9hPa | 2.5V | 18:12:15 | 01:46:48 | 00:00:00 | |
| DF8AY | 2026-09-04 01:07:24 | 51.87342 | 7.13235 | 349° | 7km/h | 23339m | 4.5m/s | -53.1°C | 1.2% | 34.9hPa | 2.5V | 18:12:15 | 01:46:47 | 00:00:00 | |
| DO2JMG | 2026-09-04 01:07:23 | 51.87341 | 7.13236 | 332° | 5km/h | 23334m | 4.7m/s | -53.1°C | 1.2% | 35hPa | 2.6V | 18:12:15 | 01:46:46 | 00:00:00 | |
| BIOWL1-15 | 2026-09-04 01:07:21 | 51.87340 | 7.13237 | 132° | 2km/h | 23324m | 4.3m/s | -53°C | 1.2% | 35hPa | 2.5V | 18:12:15 | 01:46:44 | 00:00:00 | |
| DM0DOS-11 | 2026-09-04 01:07:21 | 51.87337 | 7.13226 | 54° | 13km/h | 23304m | 4.9m/s | -53°C | 4.4% | 35.1hPa | 2.6V | 08:30:00 | 01:46:40 | 00:00:00 | |
| AA1-15 | 2026-09-04 01:07:18 | 51.87338 | 7.13230 | 56° | 11km/h | 23309m | 5.2m/s | -53°C | 1.1% | 35.1hPa | 2.6V | 18:12:15 | 01:46:41 | 00:00:00 | |
| DL1XH-west | 2026-09-04 01:07:16 | 51.87335 | 7.13222 | 60° | 13km/h | 23299m | 5.2m/s | -53°C | 1.2% | 35.1hPa | 2.5V | 18:12:15 | 01:46:39 | 00:00:00 | |
| HSKMA3-T | 2026-09-04 01:07:14 | 51.87333 | 7.13215 | 60° | 7km/h | 23289m | 4.1m/s | -53°C | 1.2% | 35.2hPa | 2.5V | 18:12:15 | 01:46:37 | 00:00:00 | |
| DF8AY | 2026-09-04 01:07:13 | 51.87332 | 7.13213 | 23° | 5km/h | 23284m | 5.1m/s | -53°C | 1.1% | 35.2hPa | 2.5V | 18:12:15 | 01:46:36 | 00:00:00 | |
| DO2JMG | 2026-09-04 01:07:12 | 51.87330 | 7.13213 | 354° | 5km/h | 23279m | 5.7m/s | -53°C | 1.1% | 35.2hPa | 2.6V | 18:12:15 | 01:46:35 | 00:00:00 | |
| BIOWL1-15 | 2026-09-04 01:07:10 | 51.87326 | 7.13218 | 263° | 2km/h | 23258m | 4.4m/s | -52.9°C | 1.3% | 35.4hPa | 2.5V | 18:12:15 | 01:46:31 | 00:00:00 | |
| DF8AY | 2026-09-04 01:07:08 | 51.87325 | 7.13221 | 141° | 2km/h | 23234m | 6m/s | -52.8°C | 1.2% | 35.5hPa | 2.5V | 18:12:15 | 01:46:26 | 00:00:00 | |
| AA1-15 | 2026-09-04 01:07:08 | 51.87326 | 7.13219 | 287° | 2km/h | 23254m | 4.7m/s | -52.9°C | 1.2% | 35.4hPa | 2.5V | 18:12:15 | 01:46:30 | 00:00:00 | |
| DL1XH-west | 2026-09-04 01:07:06 | 51.87326 | 7.13220 | 310° | 4km/h | 23249m | 5.5m/s | -52.9°C | 1.2% | 35.4hPa | 2.5V | 18:12:15 | 01:46:29 | 00:00:00 | |
| HSKMA3-T | 2026-09-04 01:07:04 | 51.87325 | 7.13221 | 8° | 0km/h | 23239m | 4.5m/s | -52.8°C | 1.2% | 35.5hPa | 2.6V | 18:12:15 | 01:46:27 | 00:00:00 | |
| DO2JMG | 2026-09-04 01:07:02 | 51.87326 | 7.13220 | 140° | 4km/h | 23229m | 4.4m/s | -52.8°C | 1.2% | 35.5hPa | 2.5V | 18:12:15 | 01:46:25 | 00:00:00 | |
| DL1ZP-14 | 2026-09-04 01:07:01 | 51.87327 | 7.13219 | 108° | 4km/h | 23224m | 4.5m/s | -52.8°C | 1.4% | 35.5hPa | 2.5V | 00:00:00 | 00:00:00 | 00:00:00 | |
| DL1XH-15 | 2026-09-04 01:07:00 | 51.87326 | 7.13216 | 41° | 5km/h | 23213m | 4.6m/s | -52.7°C | 4.3% | 35.6hPa | 2.6V | 08:30:00 | 01:46:22 | 00:00:00 | |
| BIOWL1-15 | 2026-09-04 01:06:58 | 51.87325 | 7.13215 | 35° | 5km/h | 23209m | 4.4m/s | -52.7°C | 1.2% | 35.6hPa | 2.5V | 18:12:15 | 01:46:21 | 00:00:00 | |
| AA1-15 | 2026-09-04 01:06:57 | 51.87324 | 7.13213 | 55° | 4km/h | 23204m | 5.1m/s | -52.7°C | 1.1% | 35.7hPa | 2.5V | 18:12:15 | 01:46:20 | 00:00:00 | |
| DL1XH-west | 2026-09-04 01:06:55 | 51.87325 | 7.13211 | 137° | 5km/h | 23193m | 5m/s | -52.6°C | 1.1% | 35.7hPa | 2.5V | 18:12:15 | 01:46:18 | 00:00:00 | |
| HTAHTA | 2026-09-04 01:06:55 | 51.87326 | 7.13209 | 165° | 2km/h | 23184m | 5.7m/s | -52.6°C | 1.3% | 35.8hPa | 2.5V | 00:00:00 | 00:00:00 | 00:00:00 | |
| DL1XH-15 | 2026-09-04 01:06:54 | 51.87326 | 7.13209 | 122° | 4km/h | 23163m | 5.8m/s | -52.5°C | 4.2% | 35.9hPa | 2.5V | 08:30:00 | 01:46:12 | 00:00:00 | |
| HSKMA3-T | 2026-09-04 01:06:53 | 51.87326 | 7.13209 | 166° | 2km/h | 23184m | 5.7m/s | -52.6°C | 1.1% | 35.8hPa | 2.6V | 18:12:15 | 01:46:16 | 00:00:00 | |
| DF8AY | 2026-09-04 01:06:52 | 51.87327 | 7.13209 | 292° | 2km/h | 23178m | 5.7m/s | -52.5°C | 1% | 35.8hPa | 2.6V | 18:12:15 | 01:46:15 | 00:00:00 | |
| DO2JMG | 2026-09-04 01:06:51 | 51.87326 | 7.13210 | 313° | 2km/h | 23173m | 4.6m/s | -52.5°C | 1.1% | 35.8hPa | 2.5V | 18:12:15 | 01:46:14 | 00:00:00 | |
| BIOWL1-15 | 2026-09-04 01:06:50 | 51.87327 | 7.13207 | 113° | 7km/h | 23158m | 4.7m/s | -52.5°C | 1% | 35.9hPa | 2.5V | 18:12:15 | 01:46:11 | 00:00:00 | |
| AA1-15 | 2026-09-04 01:06:47 | 51.87328 | 7.13204 | 109° | 11km/h | 23153m | 4.2m/s | -52.6°C | 1.1% | 36hPa | 2.6V | 18:12:15 | 01:46:10 | 00:00:00 | |
| DL1XH-west | 2026-09-04 01:06:45 | 51.87328 | 7.13195 | 84° | 11km/h | 23143m | 5.6m/s | -52.7°C | 1.1% | 36hPa | 2.5V | 18:12:15 | 01:46:08 | 00:00:00 | |
| DO3MHA-12 | 2026-09-04 01:06:44 | 51.87328 | 7.13190 | 84° | 15km/h | 23139m | 4.2m/s | -52.7°C | 4.3% | 36.0hPa | 2.5V | 00:00:00 | 01:46:07 | 00:00:00 | |
| DK5PH-5 | 2026-09-04 01:06:43 | 51.87328 | 7.13186 | 96° | 16km/h | 23134m | 4.2m/s | -52.7°C | 4.3% | 36.0hPa | 2.5V | 00:00:00 | 01:46:06 | 00:00:00 | |
| DL1XH-15 | 2026-09-04 01:06:42 | 51.87335 | 7.13168 | 133° | 13km/h | 23113m | 5m/s | -52.8°C | 4.3% | 36.2hPa | 2.5V | 08:30:00 | 01:46:02 | 00:00:00 | |
| HSKMA3-T | 2026-09-04 01:06:42 | 51.87329 | 7.13181 | 113° | 13km/h | 23129m | 6.1m/s | -52.8°C | 1.1% | 36.1hPa | 2.6V | 18:12:15 | 01:46:05 | 00:00:00 | |
| GOEST3-10 | 2026-09-04 01:06:42 | 51.87329 | 7.13181 | 113° | 13km/h | 23129m | 6.0m/s | -52.7°C | 4.3% | 36.0hPa | 2.5V | 00:00:00 | 01:46:05 | 00:00:00 | |
| DM0DOS-11 | 2026-09-04 01:06:41 | 51.87338 | 7.13160 | 99° | 9km/h | 23104m | 4.5m/s | -52.8°C | 4.3% | 36.2hPa | 2.5V | 08:30:00 | 01:46:00 | 00:00:00 | |
| DO2JMG | 2026-09-04 01:06:41 | 51.87331 | 7.13176 | 126° | 15km/h | 23123m | 5.1m/s | -52.8°C | 1.2% | 36.1hPa | 2.6V | 18:12:15 | 01:46:04 | 00:00:00 | |
| BIOWL1-15 | 2026-09-04 01:06:37 | 51.87338 | 7.13160 | 100° | 11km/h | 23104m | 4.5m/s | -52.8°C | 1.1% | 36.2hPa | 2.5V | 18:12:15 | 01:46:00 | 00:00:00 | |
| AA1-15 | 2026-09-04 01:06:36 | 51.87338 | 7.13156 | 90° | 13km/h | 23099m | 4.2m/s | -52.8°C | 1.1% | 36.3hPa | 2.6V | 18:12:15 | 01:45:59 | 00:00:00 | |
| DL1XH-west | 2026-09-04 01:06:35 | 51.87338 | 7.13150 | 91° | 15km/h | 23095m | 4.8m/s | -52.7°C | 1.1% | 36.3hPa | 2.6V | 18:12:15 | 01:45:58 | 00:00:00 | |
| SONDE2-11 | 2026-09-04 01:06:35 | 51.87339 | 7.13143 | 97° | 18km/h | 23090m | 5.6m/s | -52.7°C | 1.4% | 36.3hPa | 2.5V | 00:00:00 | 00:00:00 | 00:00:00 | |
| DO9LL-15 | 2026-09-04 01:06:34 | 51.87338 | 7.13143 | 98° | 20km/h | 23090m | 5.5m/s | -52.7°C | 4.3% | 36.3hPa | 2.5V | 00:00:00 | 01:45:57 | 00:00:00 | |
| WPPR-10 | 2026-09-04 01:06:33 | 51.87341 | 7.13128 | 108° | 20km/h | 23080m | 4.1m/s | -52.8°C | 1.3% | 36.4hPa | 2.5V | 00:00:00 | 00:00:00 | 00:00:00 | |
| EDDB2-11 | 2026-09-04 01:06:32 | 51.87342 | 7.13120 | 109° | 18km/h | 23075m | 5.5m/s | -52.8°C | 1.3% | 36.4hPa | 2.5V | 00:00:00 | 00:00:00 | 00:00:00 | |
| DM0DOS-11 | 2026-09-04 01:06:31 | 51.87347 | 7.13096 | 101° | 16km/h | 23055m | 5.9m/s | -52.9°C | 4.3% | 36.5hPa | 2.5V | 08:30:00 | 01:45:50 | 00:00:00 | |
| HSKMA3-T | 2026-09-04 01:06:31 | 51.87342 | 7.13120 | 110° | 18km/h | 23075m | 5.5m/s | -52.8°C | 1.1% | 36.4hPa | 2.5V | 18:12:15 | 01:45:54 | 00:00:00 | |
| DO2JMG | 2026-09-04 01:06:30 | 51.87344 | 7.13113 | 109° | 16km/h | 23070m | 5.4m/s | -52.8°C | 1.1% | 36.4hPa | 2.5V | 18:12:15 | 01:45:53 | 00:00:00 | |
| AA1-15 | 2026-09-04 01:06:25 | 51.87348 | 7.13080 | 95° | 20km/h | 23045m | 4.1m/s | -52.9°C | 1.2% | 36.5hPa | 2.5V | 18:12:15 | 01:45:48 | 00:00:00 | |
| DL1XH-west | 2026-09-04 01:06:24 | 51.87349 | 7.13072 | 90° | 18km/h | 23040m | 5.7m/s | -52.9°C | 1.1% | 36.6hPa | 2.6V | 18:12:15 | 01:45:47 | 00:00:00 | |
| DB0UT-7 | 2026-09-04 01:06:23 | 51.87348 | 7.13064 | 85° | 20km/h | 23035m | 5.2m/s | -52.9°C | 4.4% | 36.6hPa | 2.5V | 00:00:00 | 01:45:46 | 00:00:00 | |
| DH3RM | 2026-09-04 01:06:22 | 51.87349 | 7.13064 | 86° | 18km/h | 23035m | 5.2m/s | -52.9°C | 1.4% | 36.6hPa | 2.5V | 00:00:00 | 00:00:00 | 00:00:00 | |
| DM0DOS-11 | 2026-09-04 01:06:21 | 51.87346 | 7.13012 | 87° | 20km/h | 23006m | 5.5m/s | -53°C | 4.4% | 36.8hPa | 2.5V | 08:30:00 | 01:45:40 | 00:00:00 | |
| DF8AY | 2026-09-04 01:06:20 | 51.87347 | 7.13040 | 86° | 24km/h | 23020m | 5.4m/s | -53°C | 1.2% | 36.7hPa | 2.5V | 18:12:15 | 01:45:43 | 00:00:00 | |
| DO2JMG | 2026-09-04 01:06:19 | 51.87347 | 7.13030 | 88° | 24km/h | 23015m | 3.9m/s | -53°C | 1.2% | 36.7hPa | 2.6V | 18:12:15 | 01:45:42 | 00:00:00 | |
| AA1-15 | 2026-09-04 01:06:15 | 51.87346 | 7.12997 | 100° | 18km/h | 22996m | 4.9m/s | -53.1°C | 1.1% | 36.8hPa | 2.5V | 18:12:15 | 01:45:38 | 00:00:00 | |
| BIOWL1-15 | 2026-09-04 01:06:14 | 51.87347 | 7.12990 | 105° | 20km/h | 22990m | 5.7m/s | -53.1°C | 1.2% | 36.9hPa | 2.5V | 18:12:15 | 01:45:37 | 00:00:00 | |
| DL1XH-west | 2026-09-04 01:06:13 | 51.87349 | 7.12982 | 105° | 22km/h | 22985m | 4.5m/s | -53.1°C | 1.2% | 36.9hPa | 2.6V | 18:12:15 | 01:45:36 | 00:00:00 | |
| DF5WG-10 | 2026-09-04 01:06:13 | 51.87349 | 7.12982 | 105° | 24km/h | 22985m | 4.5m/s | -53.0°C | 4.5% | 36.8hPa | 2.6V | 00:00:00 | 01:45:36 | 00:00:00 | |
| DL1XH-15 | 2026-09-04 01:06:12 | 51.87348 | 7.12948 | 70° | 22km/h | 22965m | 4.4m/s | -53°C | 4.5% | 37hPa | 2.5V | 08:30:00 | 01:45:32 | 00:00:00 | |
| GOEST3-10 | 2026-09-04 01:06:11 | 51.87350 | 7.12964 | 91° | 24km/h | 22976m | 6.0m/s | -53.0°C | 4.5% | 36.9hPa | 2.5V | 00:00:00 | 01:45:34 | 00:00:00 | |
| DM0DOS-11 | 2026-09-04 01:06:10 | 51.87344 | 7.12928 | 70° | 29km/h | 22955m | 5.2m/s | -53°C | 4.4% | 37.1hPa | 2.5V | 08:30:00 | 01:45:30 | 00:00:00 | |
| DF8AY | 2026-09-04 01:06:09 | 51.87348 | 7.12948 | 70° | 22km/h | 22965m | 4.4m/s | -53°C | 1.2% | 37hPa | 2.5V | 18:12:15 | 01:45:32 | 00:00:00 | |
| DO2JMG | 2026-09-04 01:06:08 | 51.87346 | 7.12939 | 70° | 26km/h | 22960m | 5.8m/s | -53°C | 1.2% | 37hPa | 2.5V | 18:12:15 | 01:45:31 | 00:00:00 | |
| AA1-15 | 2026-09-04 01:06:04 | 51.87337 | 7.12897 | 66° | 24km/h | 22941m | 5.7m/s | -52.9°C | 1.2% | 37.1hPa | 2.5V | 18:12:15 | 01:45:27 | 00:00:00 | |
| DL1XH-west | 2026-09-04 01:06:03 | 51.87335 | 7.12889 | 66° | 18km/h | 22936m | 5m/s | -52.9°C | 1.2% | 37.2hPa | 2.5V | 18:12:15 | 01:45:26 | 00:00:00 | |
| HSKMA3-T | 2026-09-04 01:05:59 | 51.87333 | 7.12865 | 101° | 16km/h | 22915m | 4.8m/s | -52.9°C | 1.1% | 37.3hPa | 2.5V | 18:12:15 | 01:45:22 | 00:00:00 | |
| DO2JMG | 2026-09-04 01:05:58 | 51.87334 | 7.12859 | 104° | 16km/h | 22911m | 4.7m/s | -53°C | 1.1% | 37.3hPa | 2.5V | 18:12:15 | 01:45:21 | 00:00:00 | |
| AA1-15 | 2026-09-04 01:05:54 | 51.87334 | 7.12832 | 78° | 22km/h | 22891m | 5.9m/s | -53°C | 1.2% | 37.4hPa | 2.6V | 18:12:15 | 01:45:17 | 00:00:00 | |
| DL1XH-west | 2026-09-04 01:05:52 | 51.87330 | 7.12813 | 68° | 27km/h | 22880m | 4.1m/s | -53°C | 1.2% | 37.5hPa | 2.5V | 18:12:15 | 01:45:15 | 00:00:00 | |
| DO3MHA-12 | 2026-09-04 01:05:51 | 51.87327 | 7.12803 | 63° | 16km/h | 22876m | 4.1m/s | -52.9°C | 4.4% | 37.5hPa | 2.6V | 00:00:00 | 01:45:14 | 00:00:00 | |
| DH3RM | 2026-09-04 01:05:50 | 51.87325 | 7.12794 | 57° | 22km/h | 22872m | 5.5m/s | -53.0°C | 1.4% | 37.5hPa | 2.6V | 00:00:00 | 00:00:00 | 00:00:00 | |
| DM0DOS-11 | 2026-09-04 01:05:49 | 51.87317 | 7.12781 | 52° | 9km/h | 22856m | 4.9m/s | -53°C | 4.4% | 37.6hPa | 2.6V | 08:30:00 | 01:45:10 | 00:00:00 | |
| HSKMA3-T | 2026-09-04 01:05:49 | 51.87321 | 7.12788 | 48° | 16km/h | 22866m | 5m/s | -53°C | 1.1% | 37.6hPa | 2.5V | 18:12:15 | 01:45:12 | 00:00:00 | |
| DO2JMG | 2026-09-04 01:05:47 | 51.87317 | 7.12781 | 52° | 9km/h | 22857m | 4.9m/s | -53°C | 1.2% | 37.6hPa | 2.6V | 18:12:15 | 01:45:10 | 00:00:00 | |
| DD1CC8 | 2026-09-04 01:05:45 | 51.87315 | 7.12774 | 74° | 9km/h | 22846m | 5.0m/s | -53.0°C | 1.4% | 37.7hPa | 2.6V | 00:00:00 | 00:00:00 | 00:00:00 | |
| AA1-15 | 2026-09-04 01:05:43 | 51.87314 | 7.12765 | 69° | 13km/h | 22837m | 4.3m/s | -53.1°C | 1.2% | 37.7hPa | 2.6V | 18:12:15 | 01:45:06 | 00:00:00 | |
| BIOWL1-15 | 2026-09-04 01:05:42 | 51.87312 | 7.12760 | 59° | 13km/h | 22833m | 5.1m/s | -53.1°C | 1.2% | 37.8hPa | 2.6V | 18:12:15 | 01:45:05 | 00:00:00 | |
| DL1XH-west | 2026-09-04 01:05:41 | 51.87310 | 7.12756 | 48° | 13km/h | 22827m | 5.5m/s | -53.1°C | 1.3% | 37.8hPa | 2.5V | 18:12:15 | 01:45:04 | 00:00:00 | |
| DO3MHA-12 | 2026-09-04 01:05:41 | 51.87310 | 7.12756 | 49° | 16km/h | 22828m | 5.4m/s | -53.0°C | 4.5% | 37.7hPa | 2.5V | 00:00:00 | 01:45:04 | 08:30:00 | |
| DM0DOS-11 | 2026-09-04 01:05:39 | 51.87300 | 7.12737 | 53° | 20km/h | 22807m | 4.8m/s | -53°C | 4.5% | 37.9hPa | 2.6V | 08:30:00 | 01:45:00 | 00:00:00 | |
| DF8AY | 2026-09-04 01:05:39 | 51.87305 | 7.12749 | 45° | 16km/h | 22818m | 4.3m/s | -53.1°C | 1.3% | 37.9hPa | 2.5V | 18:12:15 | 01:45:02 | 00:00:00 | |
| HSKMA3-T | 2026-09-04 01:05:37 | 51.87300 | 7.12737 | 54° | 20km/h | 22807m | 4.8m/s | -53°C | 1.2% | 37.9hPa | 2.6V | 18:12:15 | 01:45:00 | 00:00:00 | |
| DO2JMG | 2026-09-04 01:05:36 | 51.87296 | 7.12730 | 52° | 22km/h | 22802m | 4.1m/s | -53°C | 1.3% | 37.9hPa | 2.6V | 18:12:15 | 01:44:59 | 00:00:00 | |
| AA1-15 | 2026-09-04 01:05:33 | 51.87285 | 7.12715 | 26° | 16km/h | 22787m | 4.8m/s | -53°C | 1.3% | 38hPa | 2.5V | 18:12:15 | 01:44:56 | 00:00:00 | |
| BIOWL1-15 | 2026-09-04 01:05:32 | 51.87282 | 7.12713 | 23° | 13km/h | 22783m | 4.3m/s | -53°C | 1.2% | 38.1hPa | 2.5V | 18:12:15 | 01:44:55 | 00:00:00 | |
| DL1XH-west | 2026-09-04 01:05:30 | 51.87278 | 7.12708 | 56° | 7km/h | 22772m | 5.3m/s | -53°C | 1.2% | 38.1hPa | 2.6V | 18:12:15 | 01:44:53 | 00:00:00 | |
| DL1XH-15 | 2026-09-04 01:05:30 | 51.87277 | 7.12706 | 69° | 7km/h | 22767m | 4.6m/s | -53°C | 4.5% | 38.1hPa | 2.6V | 08:30:00 | 01:44:52 | 00:00:00 | |
| EDDB2-11 | 2026-09-04 01:05:30 | 51.87277 | 7.12706 | 69° | 5km/h | 22767m | 4.6m/s | -53.0°C | 1.4% | 38.1hPa | 2.5V | 00:00:00 | 00:00:00 | 00:00:00 | |
| DM0DOS-11 | 2026-09-04 01:05:29 | 51.87276 | 7.12701 | 38° | 5km/h | 22757m | 5.6m/s | -52.9°C | 4.4% | 38.2hPa | 2.5V | 08:30:00 | 01:44:50 | 00:00:00 | |
| DF8AY | 2026-09-04 01:05:28 | 51.87277 | 7.12703 | 65° | 5km/h | 22762m | 4.9m/s | -52.9°C | 1.2% | 38.2hPa | 2.5V | 18:12:15 | 01:44:51 | 00:00:00 | |
| DO2JMG | 2026-09-04 01:05:26 | 51.87274 | 7.12700 | 13° | 7km/h | 22752m | 5m/s | -52.9°C | 1.2% | 38.2hPa | 2.5V | 18:12:15 | 01:44:49 | 00:00:00 | |
| DJ2DS-15 | 2026-09-04 01:05:25 | 51.87271 | 7.12700 | 6° | 7km/h | 22743m | 4.9m/s | -52.8°C | 1.4% | 38.3hPa | 2.6V | 00:00:00 | 00:00:00 | 00:00:00 | |
| DL1XH-15 | 2026-09-04 01:05:24 | 51.87260 | 7.12694 | 6° | 11km/h | 22716m | 4.7m/s | -52.6°C | 4.4% | 38.5hPa | 2.6V | 08:30:00 | 01:44:42 | 00:00:00 | |
| AA1-15 | 2026-09-04 01:05:23 | 51.87269 | 7.12699 | 21° | 7km/h | 22737m | 6m/s | -52.8°C | 1.2% | 38.3hPa | 2.5V | 18:12:15 | 01:44:46 | 00:00:00 | |
| DB0UT-7 | 2026-09-04 01:05:23 | 51.87269 | 7.12699 | 22° | 9km/h | 22737m | 5.9m/s | -52.7°C | 4.4% | 38.3hPa | 2.5V | 00:00:00 | 01:44:46 | 00:00:00 | |
| HTAHTA | 2026-09-04 01:05:22 | 51.87263 | 7.12695 | 15° | 9km/h | 22721m | 6.0m/s | -52.7°C | 1.4% | 38.4hPa | 2.6V | 00:00:00 | 00:00:00 | 00:00:00 | |
| DL3AQ-11 | 2026-09-04 01:05:21 | 51.87263 | 7.12695 | 15° | 9km/h | 22721m | 6.0m/s | -52.7°C | 1.4% | 38.4hPa | 2.6V | 00:00:00 | 00:00:00 | 00:00:00 | |
| DM0DOS-11 | 2026-09-04 01:05:19 | 51.87256 | 7.12693 | 18° | 7km/h | 22707m | 4.5m/s | -52.6°C | 4.3% | 38.5hPa | 2.6V | 08:30:00 | 01:44:40 | 00:00:00 | |
| DL1XH-west | 2026-09-04 01:05:19 | 51.87260 | 7.12694 | 7° | 11km/h | 22716m | 4.7m/s | -52.6°C | 1.1% | 38.5hPa | 2.6V | 18:12:15 | 01:44:42 | 00:00:00 | |
| DF8AY | 2026-09-04 01:05:18 | 51.87258 | 7.12693 | 7° | 9km/h | 22711m | 4.2m/s | -52.6°C | 1.2% | 38.5hPa | 2.6V | 18:12:15 | 01:44:41 | 00:00:00 | |
| DO2JMG | 2026-09-04 01:05:16 | 51.87254 | 7.12691 | 55° | 5km/h | 22702m | 5.8m/s | -52.6°C | 1.2% | 38.5hPa | 2.5V | 18:12:15 | 01:44:39 | 00:00:00 | |
| AA1-15 | 2026-09-04 01:05:12 | 51.87254 | 7.12680 | 60° | 4km/h | 22682m | 5.6m/s | -52.5°C | 1.1% | 38.6hPa | 2.6V | 18:12:15 | 01:44:35 | 00:00:00 | |
| BIOWL1-15 | 2026-09-04 01:05:11 | 51.87253 | 7.12701 | 165° | 11km/h | 22616m | 4.7m/s | -52.3°C | 1.2% | 39hPa | 2.6V | 18:12:15 | 01:44:22 | 00:00:00 | |
| DL1XH-west | 2026-09-04 01:05:09 | 51.87250 | 7.12682 | 317° | 7km/h | 22668m | 4.9m/s | -52.4°C | 1.1% | 38.7hPa | 2.5V | 18:12:15 | 01:44:32 | 00:00:00 | |
| DF8AY | 2026-09-04 01:05:08 | 51.87249 | 7.12684 | 304° | 7km/h | 22662m | 5.8m/s | -52.4°C | 1.1% | 38.8hPa | 2.5V | 18:12:15 | 01:44:31 | 00:00:00 | |
| DO2JMG | 2026-09-04 01:05:05 | 51.87246 | 7.12694 | 295° | 9km/h | 22646m | 5.5m/s | -52.4°C | 1.1% | 38.9hPa | 2.5V | 18:12:15 | 01:44:28 | 00:00:00 | |
| DO9LL-15 | 2026-09-04 01:05:04 | 51.87245 | 7.12697 | 290° | 9km/h | 22641m | 4.0m/s | -52.3°C | 4.3% | 38.9hPa | 2.5V | 00:00:00 | 01:44:27 | 00:00:00 | |
| DF5WG-10 | 2026-09-04 01:05:03 | 51.87245 | 7.12700 | 259° | 7km/h | 22638m | 3.5m/s | -52.3°C | 4.4% | 38.9hPa | 2.5V | 00:00:00 | 01:44:26 | 00:00:00 | |
| DM0DOS-11 | 2026-09-04 01:05:02 | 51.87257 | 7.12700 | 184° | 4km/h | 22606m | 4.7m/s | -52.2°C | 4.3% | 39.1hPa | 2.5V | 08:30:00 | 01:44:20 | 00:00:00 | |
| AA1-15 | 2026-09-04 01:05:02 | 51.87246 | 7.12702 | 208° | 5km/h | 22633m | 6.1m/s | -52.3°C | 1.2% | 39hPa | 2.5V | 18:12:15 | 01:44:25 | 00:00:00 | |
| DL1XH-west | 2026-09-04 01:04:58 | 51.87255 | 7.12700 | 170° | 7km/h | 22611m | 5.7m/s | -52.3°C | 1.1% | 39.1hPa | 2.5V | 18:12:15 | 01:44:21 | 00:00:00 | |
| DF8AY | 2026-09-04 01:04:57 | 51.87257 | 7.12700 | 185° | 4km/h | 22606m | 4.7m/s | -52.2°C | 1.1% | 39.1hPa | 2.5V | 18:12:15 | 01:44:20 | 00:00:00 | |
| HSKMA3-T | 2026-09-04 01:04:55 | 51.87258 | 7.12702 | 241° | 5km/h | 22596m | 5.9m/s | -52.2°C | 1.1% | 39.2hPa | 2.5V | 18:12:15 | 01:44:18 | 00:00:00 | |
| DO2JMG | 2026-09-04 01:04:54 | 51.87259 | 7.12704 | 250° | 5km/h | 22591m | 5.1m/s | -52.2°C | 1.1% | 39.2hPa | 2.6V | 18:12:15 | 01:44:17 | 00:00:00 | |
| BIOWL1-15 | 2026-09-04 01:04:53 | 51.87259 | 7.12706 | 268° | 7km/h | 22586m | 4.3m/s | -52.2°C | 1.1% | 39.2hPa | 2.6V | 18:12:15 | 01:44:16 | 00:00:00 | |
| DF5WG-10 | 2026-09-04 01:04:53 | 51.87259 | 7.12706 | 269° | 13km/h | 22586m | 4.3m/s | -52.2°C | 4.2% | 39.2hPa | 2.5V | 00:00:00 | 01:44:16 | 00:00:00 | |
| DM0DOS-11 | 2026-09-04 01:04:52 | 51.87262 | 7.12728 | 204° | 16km/h | 22556m | 4.7m/s | -52.1°C | 4.2% | 39.4hPa | 2.5V | 08:30:00 | 01:44:10 | 00:00:00 | |
| AA1-15 | 2026-09-04 01:04:51 | 51.87258 | 7.12713 | 295° | 9km/h | 22576m | 5m/s | -52.2°C | 1% | 39.3hPa | 2.5V | 18:12:15 | 01:44:14 | 00:00:00 | |
| DL1XH-west | 2026-09-04 01:04:48 | 51.87258 | 7.12725 | 224° | 13km/h | 22561m | 5.5m/s | -52.1°C | 1.1% | 39.4hPa | 2.6V | 18:12:15 | 01:44:11 | 00:00:00 | |
| DF8AY | 2026-09-04 01:04:47 | 51.87261 | 7.12728 | 204° | 16km/h | 22556m | 4.7m/s | -52.1°C | 1.1% | 39.4hPa | 2.5V | 18:12:15 | 01:44:10 | 00:00:00 | |
| HSKMA3-T | 2026-09-04 01:04:44 | 51.87274 | 7.12729 | 168° | 16km/h | 22540m | 4.8m/s | -52°C | 1.1% | 39.5hPa | 2.5V | 18:12:15 | 01:44:07 | 00:00:00 | |
| DO2JMG | 2026-09-04 01:04:43 | 51.87278 | 7.12728 | 163° | 16km/h | 22535m | 4.4m/s | -52°C | 1.1% | 39.6hPa | 2.6V | 18:12:15 | 01:44:06 | 00:00:00 | |
| BIOWL1-15 | 2026-09-04 01:04:42 | 51.87292 | 7.12725 | 179° | 7km/h | 22515m | 5m/s | -52°C | 1.1% | 39.7hPa | 2.5V | 18:12:15 | 01:44:02 | 00:00:00 | |
| DL1XH-15 | 2026-09-04 01:04:42 | 51.87292 | 7.12725 | 178° | 7km/h | 22515m | 5m/s | -52°C | 4.2% | 39.7hPa | 2.5V | 08:30:00 | 01:44:02 | 00:00:00 | |
| AA1-15 | 2026-09-04 01:04:40 | 51.87289 | 7.12725 | 181° | 13km/h | 22520m | 4.3m/s | -52°C | 1.1% | 39.6hPa | 2.5V | 18:12:15 | 01:44:03 | 00:00:00 | |
| DL1XH-west | 2026-09-04 01:04:37 | 51.87294 | 7.12724 | 170° | 4km/h | 22505m | 4.2m/s | -52°C | 1.1% | 39.7hPa | 2.5V | 18:12:15 | 01:44:00 | 00:00:00 | |
| DM0DOS-11 | 2026-09-04 01:04:37 | 51.87294 | 7.12724 | 170° | 4km/h | 22505m | 4.2m/s | -52°C | 4.2% | 39.7hPa | 2.5V | 08:30:00 | 01:44:00 | 00:00:00 | |
| DF8AY | 2026-09-04 01:04:36 | 51.87296 | 7.12724 | 181° | 5km/h | 22501m | 3.8m/s | -52°C | 1.1% | 39.8hPa | 2.6V | 18:12:15 | 01:43:59 | 00:00:00 | |
| HSKMA3-T | 2026-09-04 01:04:34 | 51.87300 | 7.12726 | 195° | 13km/h | 22490m | 5.3m/s | -52°C | 1.1% | 39.8hPa | 2.5V | 18:12:15 | 01:43:57 | 00:00:00 | |
| DO2JMG | 2026-09-04 01:04:33 | 51.87303 | 7.12727 | 192° | 15km/h | 22486m | 4.2m/s | -52°C | 1.1% | 39.8hPa | 2.5V | 18:12:15 | 01:43:56 | 00:00:00 | |
| DF5WG-10 | 2026-09-04 01:04:33 | 51.87303 | 7.12727 | 192° | 11km/h | 22486m | 4.2m/s | -51.9°C | 4.3% | 39.8hPa | 2.5V | 00:00:00 | 01:43:56 | 00:00:00 | |
| DM0DOS-11 | 2026-09-04 01:04:32 | 51.87318 | 7.12721 | 142° | 7km/h | 22457m | 5.3m/s | -51.9°C | 4.2% | 40hPa | 2.5V | 08:30:00 | 01:43:50 | 00:00:00 | |
| AA1-15 | 2026-09-04 01:04:29 | 51.87315 | 7.12725 | 143° | 9km/h | 22467m | 4.6m/s | -51.9°C | 1.1% | 40hPa | 2.5V | 18:12:15 | 01:43:52 | 00:00:00 | |
| BIOWL1-15 | 2026-09-04 01:04:28 | 51.87317 | 7.12723 | 139° | 7km/h | 22463m | 5.1m/s | -51.9°C | 1.1% | 40hPa | 2.5V | 18:12:15 | 01:43:51 | 00:00:00 | |
| DF8AY | 2026-09-04 01:04:26 | 51.87321 | 7.12717 | 136° | 11km/h | 22448m | 3.8m/s | -51.8°C | 1.1% | 40.1hPa | 2.6V | 18:12:15 | 01:43:48 | 00:00:00 | |
| HSKMA3-T | 2026-09-04 01:04:24 | 51.87323 | 7.12713 | 128° | 15km/h | 22443m | 6m/s | -51.8°C | 1% | 40.1hPa | 2.6V | 18:12:15 | 01:43:47 | 00:00:00 | |
| DO2JMG | 2026-09-04 01:04:22 | 51.87328 | 7.12702 | 129° | 18km/h | 22432m | 4.8m/s | -51.8°C | 1.1% | 40.2hPa | 2.5V | 18:12:15 | 01:43:45 | 00:00:00 | |
| AA1-15 | 2026-09-04 01:04:19 | 51.87337 | 7.12689 | 150° | 13km/h | 22417m | 4.5m/s | -51.8°C | 1% | 40.3hPa | 2.5V | 18:12:15 | 01:43:42 | 00:00:00 | |
| DL1XH-west | 2026-09-04 01:04:15 | 51.87349 | 7.12678 | 147° | 13km/h | 22398m | 4m/s | -51.8°C | 1.1% | 40.4hPa | 2.5V | 18:12:15 | 01:43:38 | 00:00:00 | |
| DF8AY | 2026-09-04 01:04:14 | 51.87351 | 7.12675 | 154° | 11km/h | 22393m | 5.9m/s | -51.8°C | 1.1% | 40.4hPa | 2.5V | 18:12:15 | 01:43:37 | 00:00:00 | |
| HSKMA3-T | 2026-09-04 01:04:13 | 51.87354 | 7.12674 | 156° | 9km/h | 22387m | 5.2m/s | -51.8°C | 1% | 40.5hPa | 2.6V | 18:12:15 | 01:43:36 | 00:00:00 | |
| DJ2DS-15 | 2026-09-04 01:04:13 | 51.87356 | 7.12672 | 145° | 7km/h | 22382m | 4.5m/s | -51.8°C | 1.3% | 40.5hPa | 2.5V | 00:00:00 | 00:00:00 | 00:00:00 | |
| DL1XH-15 | 2026-09-04 01:04:12 | 51.87361 | 7.12658 | 109° | 18km/h | 22367m | 4.4m/s | -51.9°C | 4.2% | 40.6hPa | 2.5V | 08:30:00 | 01:43:32 | 00:00:00 | |
| DO2JMG | 2026-09-04 01:04:12 | 51.87356 | 7.12672 | 145° | 9km/h | 22382m | 4.5m/s | -51.8°C | 1% | 40.5hPa | 2.6V | 18:12:15 | 01:43:35 | 00:00:00 | |
| AA1-15 | 2026-09-04 01:04:08 | 51.87362 | 7.12651 | 105° | 18km/h | 22363m | 4m/s | -51.9°C | 1.1% | 40.6hPa | 2.5V | 18:12:15 | 01:43:31 | 00:00:00 | |
| BIOWL1-15 | 2026-09-04 01:04:06 | 51.87378 | 7.12604 | 112° | 13km/h | 22320m | 5.1m/s | -52°C | 1.1% | 40.9hPa | 2.6V | 18:12:15 | 01:43:22 | 00:00:00 | |
| DL1XH-west | 2026-09-04 01:04:05 | 51.87366 | 7.12634 | 120° | 11km/h | 22348m | 4.3m/s | -51.9°C | 1.1% | 40.7hPa | 2.6V | 18:12:15 | 01:43:28 | 00:00:00 | |
| DF8AY | 2026-09-04 01:04:04 | 51.87368 | 7.12630 | 129° | 11km/h | 22344m | 3.9m/s | -51.9°C | 1.1% | 40.7hPa | 2.5V | 18:12:15 | 01:43:27 | 00:00:00 | |
| HSKMA3-T | 2026-09-04 01:04:03 | 51.87370 | 7.12626 | 132° | 15km/h | 22339m | 5.2m/s | -51.9°C | 1.1% | 40.7hPa | 2.5V | 18:12:15 | 01:43:26 | 00:00:00 | |
| DL1XH-15 | 2026-09-04 01:04:02 | 51.87378 | 7.12604 | 111° | 13km/h | 22320m | 5.1m/s | -52°C | 4.2% | 40.9hPa | 2.6V | 08:30:00 | 01:43:22 | 00:00:00 | |
| DO2JMG | 2026-09-04 01:04:01 | 51.87375 | 7.12615 | 122° | 16km/h | 22329m | 4.5m/s | -51.9°C | 1.1% | 40.8hPa | 2.5V | 18:12:15 | 01:43:24 | 00:00:00 | |
| AA1-15 | 2026-09-04 01:03:58 | 51.87379 | 7.12600 | 102° | 11km/h | 22315m | 5.5m/s | -52°C | 1.1% | 40.9hPa | 2.5V | 18:12:15 | 01:43:21 | 00:00:00 | |
| BIOWL1-15 | 2026-09-04 01:03:56 | 51.87379 | 7.12592 | 86° | 9km/h | 22306m | 4m/s | -52°C | 1% | 41hPa | 2.5V | 18:12:15 | 01:43:19 | 00:00:00 | |
| DL1XH-west | 2026-09-04 01:03:55 | 51.87379 | 7.12588 | 94° | 11km/h | 22301m | 5.2m/s | -52°C | 1.1% | 41hPa | 2.6V | 18:12:15 | 01:43:18 | 00:00:00 | |
| DF8AY | 2026-09-04 01:03:53 | 51.87379 | 7.12558 | 61° | 13km/h | 22270m | 4.8m/s | -52°C | 1.2% | 41.2hPa | 2.6V | 18:12:15 | 01:43:12 | 00:00:00 | |
| DL1XH-15 | 2026-09-04 01:03:53 | 51.87379 | 7.12558 | 61° | 13km/h | 22270m | 4.8m/s | -52°C | 4.3% | 41.2hPa | 2.6V | 08:30:00 | 01:43:12 | 00:00:00 | |
| DO2JMG | 2026-09-04 01:03:51 | 51.87381 | 7.12567 | 83° | 11km/h | 22281m | 5.9m/s | -52.1°C | 1.2% | 41.1hPa | 2.5V | 18:12:15 | 01:43:14 | 00:00:00 | |
| HSKMA3-T | 2026-09-04 01:03:50 | 51.87380 | 7.12563 | 66° | 11km/h | 22275m | 5m/s | -52°C | 1.1% | 41.2hPa | 2.5V | 18:12:15 | 01:43:13 | 00:00:00 | |
| AA1-15 | 2026-09-04 01:03:48 | 51.87377 | 7.12554 | 62° | 15km/h | 22265m | 5.8m/s | -52°C | 1.1% | 41.2hPa | 2.6V | 18:12:15 | 01:43:11 | 00:00:00 | |
| BIOWL1-15 | 2026-09-04 01:03:47 | 51.87355 | 7.12505 | 59° | 13km/h | 22219m | 6.1m/s | -51.6°C | 1.1% | 41.5hPa | 2.5V | 18:12:15 | 01:43:02 | 00:00:00 | |
| DL1XH-west | 2026-09-04 01:03:45 | 51.87366 | 7.12533 | 39° | 18km/h | 22245m | 4.8m/s | -51.8°C | 1.1% | 41.4hPa | 2.5V | 18:12:15 | 01:43:07 | 00:00:00 | |
| DF8AY | 2026-09-04 01:03:41 | 51.87350 | 7.12494 | 66° | 11km/h | 22205m | 5.9m/s | -51.5°C | 1.1% | 41.6hPa | 2.6V | 18:12:15 | 01:42:59 | 00:00:00 | |
| DO2JMG | 2026-09-04 01:03:41 | 51.87358 | 7.12516 | 66° | 16km/h | 22229m | 4.8m/s | -51.6°C | 1.1% | 41.5hPa | 2.6V | 18:12:15 | 01:43:04 | 00:00:00 | |
| HSKMA3-T | 2026-09-04 01:03:40 | 51.87356 | 7.12510 | 66° | 15km/h | 22224m | 4.3m/s | -51.6°C | 1.1% | 41.5hPa | 2.5V | 18:12:15 | 01:43:03 | 00:00:00 | |
| AA1-15 | 2026-09-04 01:03:38 | 51.87353 | 7.12501 | 55° | 11km/h | 22214m | 5m/s | -51.5°C | 1.1% | 41.6hPa | 2.5V | 18:12:15 | 01:43:01 | 00:00:00 | |
| DL1XH-west | 2026-09-04 01:03:34 | 51.87348 | 7.12485 | 73° | 11km/h | 22194m | 4.7m/s | -51.4°C | 1.1% | 41.7hPa | 2.5V | 18:12:15 | 01:42:57 | 00:00:00 | |
| DL1XH-15 | 2026-09-04 01:03:34 | 51.87339 | 7.12470 | 46° | 13km/h | 22169m | 5.6m/s | -51.2°C | 4.1% | 41.8hPa | 2.6V | 08:30:00 | 01:42:52 | 00:00:00 | |
| BIOWL1-15 | 2026-09-04 01:03:31 | 51.87343 | 7.12476 | 31° | 11km/h | 22178m | 4.7m/s | -51.3°C | 1% | 41.8hPa | 2.6V | 18:12:15 | 01:42:54 | 00:00:00 | |
| HSKMA3-T | 2026-09-04 01:03:29 | 51.87338 | 7.12470 | 47° | 13km/h | 22169m | 5.6m/s | -51.2°C | 1% | 41.9hPa | 2.6V | 18:12:15 | 01:42:52 | 00:00:00 | |
| DF8AY | 2026-09-04 01:03:28 | 51.87337 | 7.12466 | 63° | 13km/h | 22164m | 4.7m/s | -51.2°C | 1% | 41.9hPa | 2.5V | 18:12:15 | 01:42:51 | 00:00:00 | |
| AA1-15 | 2026-09-04 01:03:27 | 51.87335 | 7.12461 | 72° | 13km/h | 22159m | 3.9m/s | -51.2°C | 1% | 41.9hPa | 2.5V | 18:12:15 | 01:42:50 | 00:00:00 | |
| BIOWL1-15 | 2026-09-04 01:03:24 | 51.87326 | 7.12428 | 74° | 15km/h | 22124m | 4.3m/s | -51°C | 0.9% | 42.1hPa | 2.5V | 18:12:15 | 01:42:43 | 00:00:00 | |
| DL1XH-west | 2026-09-04 01:03:23 | 51.87330 | 7.12444 | 62° | 13km/h | 22139m | 4.7m/s | -51.1°C | 0.9% | 42hPa | 2.6V | 18:12:15 | 01:42:46 | 00:00:00 | |
| MET0W-2 | 2026-09-04 01:03:23 | 51.87329 | 7.12439 | 68° | 13km/h | 22134m | 6.0m/s | -51.0°C | 1.3% | 42.1hPa | 2.6V | 00:00:00 | 00:00:00 | 00:00:00 | |
| DL1XH-15 | 2026-09-04 01:03:22 | 51.87325 | 7.12423 | 68° | 13km/h | 22119m | 5.8m/s | -51°C | 3.9% | 42.2hPa | 2.6V | 08:30:00 | 01:42:42 | 00:00:00 | |
| DO2JMG | 2026-09-04 01:03:21 | 51.87328 | 7.12434 | 73° | 15km/h | 22128m | 4.9m/s | -51°C | 1% | 42.1hPa | 2.5V | 18:12:15 | 01:42:44 | 00:00:00 | |
| DO3MHA-11 | 2026-09-04 01:03:21 | 51.87327 | 7.12434 | 73° | 11km/h | 22129m | 4.9m/s | -51.0°C | 4.0% | 42.1hPa | 2.5V | 00:00:00 | 01:42:44 | 00:00:00 | |
| DM0DOS-11 | 2026-09-04 01:03:20 | 51.87323 | 7.12415 | 59° | 7km/h | 22108m | 4.2m/s | -51°C | 4% | 42.2hPa | 2.5V | 08:30:00 | 01:42:40 | 00:00:00 | |
| DF8AY | 2026-09-04 01:03:18 | 51.87324 | 7.12418 | 62° | 11km/h | 22113m | 5.7m/s | -51°C | 0.9% | 42.2hPa | 2.6V | 18:12:15 | 01:42:41 | 00:00:00 | |
| AA1-15 | 2026-09-04 01:03:16 | 51.87322 | 7.12412 | 72° | 9km/h | 22104m | 4.3m/s | -51°C | 0.9% | 42.2hPa | 2.5V | 18:12:15 | 01:42:39 | 00:00:00 | |
| DL1XH-west | 2026-09-04 01:03:12 | 51.87325 | 7.12395 | 125° | 13km/h | 22083m | 5.9m/s | -51.3°C | 1% | 42.4hPa | 2.6V | 18:12:15 | 01:42:35 | 00:00:00 | |
| BUE01 | 2026-09-04 01:03:12 | 51.87325 | 7.12395 | 124° | 11km/h | 22083m | 5.9m/s | -51.3°C | 1.3% | 42.4hPa | 2.5V | 00:00:00 | 00:00:00 | 00:00:00 | |
| DO3MHA-11 | 2026-09-04 01:03:11 | 51.87327 | 7.12391 | 134° | 13km/h | 22078m | 4.9m/s | -51.3°C | 4.1% | 42.4hPa | 2.5V | 00:00:00 | 01:42:34 | 00:00:00 | |
| DO2JMG | 2026-09-04 01:03:11 | 51.87327 | 7.12391 | 133° | 11km/h | 22078m | 4.9m/s | -51.3°C | 1% | 42.4hPa | 2.6V | 18:12:15 | 01:42:34 | 00:00:00 | |
| DL1XH-15 | 2026-09-04 01:03:10 | 51.87331 | 7.12384 | 125° | 13km/h | 22068m | 5.1m/s | -51.4°C | 4.1% | 42.5hPa | 2.5V | 08:30:00 | 01:42:32 | 00:00:00 | |
| BIOWL1-15 | 2026-09-04 01:03:10 | 51.87329 | 7.12388 | 135° | 11km/h | 22073m | 4m/s | -51.4°C | 1% | 42.5hPa | 2.5V | 18:12:15 | 01:42:33 | 00:00:00 | |
| DL3AQ-11 | 2026-09-04 01:03:10 | 51.87331 | 7.12384 | 125° | 13km/h | 22068m | 5.1m/s | -51.4°C | 1.3% | 42.5hPa | 2.5V | 00:00:00 | 00:00:00 | 00:00:00 | |
| DM0DOS-11 | 2026-09-04 01:03:09 | 51.87334 | 7.12373 | 110° | 16km/h | 22058m | 4.5m/s | -51.5°C | 4.1% | 42.6hPa | 2.5V | 08:30:00 | 01:42:30 | 00:00:00 | |
| HSKMA3-T | 2026-09-04 01:03:08 | 51.87333 | 7.12379 | 115° | 15km/h | 22063m | 5.7m/s | -51.5°C | 1% | 42.5hPa | 2.5V | 18:12:15 | 01:42:31 | 00:00:00 | |
| DF8AY | 2026-09-04 01:03:07 | 51.87334 | 7.12373 | 110° | 16km/h | 22058m | 4.5m/s | -51.5°C | 1% | 42.6hPa | 2.5V | 18:12:15 | 01:42:30 | 00:00:00 | |
| AA1-15 | 2026-09-04 01:03:05 | 51.87337 | 7.12362 | 116° | 11km/h | 22048m | 5.9m/s | -51.5°C | 1% | 42.6hPa | 2.6V | 18:12:15 | 01:42:28 | 00:00:00 | |
| GOEST3-10 | 2026-09-04 01:03:05 | 51.87337 | 7.12362 | 116° | 13km/h | 22049m | 5.8m/s | -51.4°C | 4.1% | 42.6hPa | 2.5V | 00:00:00 | 00:00:00 | 00:00:00 | |
| DO9LL-15 | 2026-09-04 01:03:04 | 51.87338 | 7.12358 | 127° | 16km/h | 22043m | 4.8m/s | -51.4°C | 4.1% | 42.6hPa | 2.5V | 00:00:00 | 01:42:27 | 00:00:00 | |
| DL1XH-15 | 2026-09-04 01:03:03 | 51.87350 | 7.12338 | 137° | 16km/h | 22018m | 5.9m/s | -51.5°C | 4.1% | 42.8hPa | 2.5V | 08:30:00 | 01:42:22 | 00:00:00 | |
| DL1XH-west | 2026-09-04 01:03:02 | 51.87342 | 7.12352 | 135° | 13km/h | 22034m | 5.2m/s | -51.5°C | 1% | 42.8hPa | 2.5V | 18:12:15 | 01:42:25 | 00:00:00 | |
| DO2JMG | 2026-09-04 01:03:00 | 51.87348 | 7.12343 | 134° | 16km/h | 22024m | 4.8m/s | -51.5°C | 1% | 42.8hPa | 2.6V | 18:12:15 | 01:42:23 | 00:00:00 | |
| HSKMA3-T | 2026-09-04 01:02:57 | 51.87357 | 7.12330 | 146° | 18km/h | 22009m | 3.5m/s | -51.6°C | 1% | 42.9hPa | 2.5V | 18:12:15 | 01:42:20 | 00:00:00 | |
| DF8AY | 2026-09-04 01:02:55 | 51.87366 | 7.12320 | 145° | 24km/h | 21999m | 5.5m/s | -51.6°C | 1% | 43hPa | 2.6V | 18:12:15 | 01:42:18 | 00:00:00 | |
| AA1-15 | 2026-09-04 01:02:54 | 51.87371 | 7.12315 | 147° | 24km/h | 21994m | 4.6m/s | -51.7°C | 1% | 43hPa | 2.6V | 18:12:15 | 01:42:17 | 00:00:00 | |
| DL1XH-west | 2026-09-04 01:02:52 | 51.87380 | 7.12306 | 151° | 18km/h | 21985m | 5.9m/s | -51.8°C | 1% | 43hPa | 2.5V | 18:12:15 | 01:42:15 | 00:00:00 | |
| MET0W-2 | 2026-09-04 01:02:52 | 51.87391 | 7.12293 | 129° | 13km/h | 21966m | 5.3m/s | -52.0°C | 1.3% | 43.2hPa | 2.5V | 00:00:00 | 00:00:00 | 00:00:00 | |
| DO3MHA-11 | 2026-09-04 01:02:51 | 51.87384 | 7.12302 | 152° | 16km/h | 21980m | 4.2m/s | -51.8°C | 4.1% | 43.1hPa | 2.5V | 00:00:00 | 01:42:14 | 00:00:00 | |
| DL1XH-15 | 2026-09-04 01:02:50 | 51.87389 | 7.12297 | 137° | 13km/h | 21971m | 5m/s | -52°C | 4.1% | 43.1hPa | 2.5V | 08:30:00 | 01:42:12 | 00:00:00 | |
| DO2JMG | 2026-09-04 01:02:49 | 51.87389 | 7.12297 | 137° | 13km/h | 21971m | 5m/s | -52°C | 1% | 43.1hPa | 2.5V | 18:12:15 | 01:42:12 | 00:00:00 | |
| HSKMA3-T | 2026-09-04 01:02:47 | 51.87393 | 7.12287 | 124° | 16km/h | 21961m | 4.6m/s | -52°C | 1.1% | 43.2hPa | 2.6V | 18:12:15 | 01:42:10 | 00:00:00 | |
| AA1-15 | 2026-09-04 01:02:44 | 51.87399 | 7.12271 | 118° | 15km/h | 21946m | 4.9m/s | -52°C | 1.1% | 43.3hPa | 2.5V | 18:12:15 | 01:42:07 | 00:00:00 | |
| DL1XH-west | 2026-09-04 01:02:41 | 51.87406 | 7.12253 | 120° | 22km/h | 21931m | 4.7m/s | -52°C | 1% | 43.4hPa | 2.6V | 18:12:15 | 01:42:04 | 00:00:00 | |
| DL3AQ-11 | 2026-09-04 01:02:41 | 51.87408 | 7.12245 | 122° | 20km/h | 21927m | 3.6m/s | -52.0°C | 1.3% | 43.4hPa | 2.5V | 00:00:00 | 00:00:00 | 00:00:00 | |
| DO3MHA-11 | 2026-09-04 01:02:40 | 51.87408 | 7.12245 | 123° | 18km/h | 21927m | 3.5m/s | -51.9°C | 4.1% | 43.4hPa | 2.5V | 00:00:00 | 01:42:03 | 00:00:00 | |
| DM0DOS-11 | 2026-09-04 01:02:39 | 51.87415 | 7.12228 | 119° | 13km/h | 21913m | 4.1m/s | -52.2°C | 4.2% | 43.5hPa | 2.5V | 08:30:00 | 01:42:00 | 00:00:00 | |
| DO2JMG | 2026-09-04 01:02:39 | 51.87411 | 7.12239 | 123° | 18km/h | 21922m | 5.5m/s | -52°C | 1% | 43.5hPa | 2.5V | 18:12:15 | 01:42:02 | 00:00:00 | |
| BIOWL1-15 | 2026-09-04 01:02:37 | 51.87415 | 7.12228 | 119° | 13km/h | 21913m | 4.1m/s | -52.2°C | 1.1% | 43.5hPa | 2.5V | 18:12:15 | 01:42:00 | 00:00:00 | |
| HSKMA3-T | 2026-09-04 01:02:36 | 51.87417 | 7.12223 | 117° | 15km/h | 21908m | 4.6m/s | -52.3°C | 1.1% | 43.6hPa | 2.5V | 18:12:15 | 01:41:59 | 00:00:00 | |
| AA1-15 | 2026-09-04 01:02:34 | 51.87421 | 7.12210 | 114° | 18km/h | 21899m | 4.5m/s | -52.3°C | 1.1% | 43.6hPa | 2.6V | 18:12:15 | 01:41:57 | 00:00:00 | |
| DL1XH-west | 2026-09-04 01:02:31 | 51.87425 | 7.12189 | 102° | 18km/h | 21883m | 4.8m/s | -52.4°C | 1.1% | 43.7hPa | 2.5V | 18:12:15 | 01:41:54 | 00:00:00 | |
| BIOWL1-15 | 2026-09-04 01:02:29 | 51.87425 | 7.12132 | 71° | 16km/h | 21851m | 4.3m/s | -52.4°C | 1.2% | 44hPa | 2.6V | 18:12:15 | 01:41:47 | 00:00:00 | |
| DO2JMG | 2026-09-04 01:02:28 | 51.87427 | 7.12165 | 94° | 22km/h | 21870m | 5.1m/s | -52.3°C | 1.1% | 43.9hPa | 2.5V | 18:12:15 | 01:41:51 | 00:00:00 | |
| HSKMA3-T | 2026-09-04 01:02:25 | 51.87427 | 7.12139 | 78° | 18km/h | 21856m | 5.8m/s | -52.3°C | 1.1% | 43.9hPa | 2.5V | 18:12:15 | 01:41:48 | 00:00:00 | |
| AA1-15 | 2026-09-04 01:02:23 | 51.87424 | 7.12125 | 73° | 18km/h | 21846m | 5.3m/s | -52.3°C | 1.1% | 44hPa | 2.6V | 18:12:15 | 01:41:46 | 00:00:00 | |
| DF8AY | 2026-09-04 01:02:22 | 51.87423 | 7.12118 | 74° | 18km/h | 21841m | 4.9m/s | -52.3°C | 1.2% | 44hPa | 2.6V | 18:12:15 | 01:41:45 | 00:00:00 | |
| DL1XH-15 | 2026-09-04 01:02:22 | 51.87420 | 7.12100 | 70° | 13km/h | 21827m | 5.7m/s | -52.3°C | 4.2% | 44.1hPa | 2.5V | 08:30:00 | 01:41:42 | 00:00:00 | |
| DL1XH-west | 2026-09-04 01:02:20 | 51.87421 | 7.12105 | 72° | 15km/h | 21832m | 4.5m/s | -52.4°C | 1.1% | 44.1hPa | 2.5V | 18:12:15 | 01:41:43 | 00:00:00 | |
| DO2JMG | 2026-09-04 01:02:17 | 51.87418 | 7.12092 | 90° | 9km/h | 21817m | 4.3m/s | -52.3°C | 1.1% | 44.2hPa | 2.6V | 18:12:15 | 01:41:40 | 00:00:00 | |
| BIOWL1-15 | 2026-09-04 01:02:16 | 51.87420 | 7.12076 | 104° | 15km/h | 21803m | 3.5m/s | -52.4°C | 1.1% | 44.3hPa | 2.5V | 18:12:15 | 01:41:37 | 00:00:00 | |
| HSKMA3-T | 2026-09-04 01:02:15 | 51.87419 | 7.12082 | 107° | 15km/h | 21807m | 4.4m/s | -52.4°C | 1.1% | 44.2hPa | 2.5V | 18:12:15 | 01:41:38 | 00:00:00 | |
| AA1-15 | 2026-09-04 01:02:13 | 51.87421 | 7.12071 | 94° | 15km/h | 21798m | 5.8m/s | -52.4°C | 1.1% | 44.3hPa | 2.5V | 18:12:15 | 01:41:36 | 00:00:00 | |
| DF8AY | 2026-09-04 01:02:11 | 51.87420 | 7.12059 | 79° | 16km/h | 21788m | 4.5m/s | -52.4°C | 1.1% | 44.4hPa | 2.6V | 18:12:15 | 01:41:34 | 00:00:00 | |
| DL1XH-west | 2026-09-04 01:02:09 | 51.87419 | 7.12045 | 81° | 18km/h | 21778m | 4.9m/s | -52.5°C | 1.1% | 44.5hPa | 2.5V | 18:12:15 | 01:41:32 | 00:00:00 | |
| DO2JMG | 2026-09-04 01:02:06 | 51.87415 | 7.12026 | 52° | 16km/h | 21764m | 5.7m/s | -52.8°C | 1.2% | 44.5hPa | 2.6V | 18:12:15 | 01:41:29 | 00:00:00 | |
| HSKMA3-T | 2026-09-04 01:02:04 | 51.87410 | 7.12019 | 28° | 9km/h | 21755m | 3.3m/s | -52.8°C | 1.2% | 44.6hPa | 2.6V | 18:12:15 | 01:41:27 | 00:00:00 | |
| AA1-15 | 2026-09-04 01:02:02 | 51.87408 | 7.12016 | 114° | 4km/h | 21746m | 5.1m/s | -52.8°C | 1.2% | 44.7hPa | 2.5V | 18:12:15 | 01:41:25 | 00:00:00 | |
| DF8AY | 2026-09-04 01:02:01 | 51.87409 | 7.12014 | 135° | 9km/h | 21741m | 4.5m/s | -52.8°C | 1.2% | 44.7hPa | 2.5V | 18:12:15 | 01:41:24 | 00:00:00 | |
| DL1XH-west | 2026-09-04 01:01:59 | 51.87413 | 7.12006 | 124° | 15km/h | 21731m | 5.4m/s | -52.9°C | 1.2% | 44.8hPa | 2.6V | 18:12:15 | 01:41:22 | 00:00:00 | |
| DO2JMG | 2026-09-04 01:01:56 | 51.87419 | 7.11990 | 127° | 15km/h | 21718m | 4.8m/s | -53.1°C | 1.2% | 44.9hPa | 2.5V | 18:12:15 | 01:41:19 | 00:00:00 | |
| HSKMA3-T | 2026-09-04 01:01:53 | 51.87425 | 7.11982 | 151° | 7km/h | 21703m | 4.5m/s | -53.1°C | 1.3% | 45hPa | 2.6V | 18:12:15 | 01:41:16 | 00:00:00 | |
| AA1-15 | 2026-09-04 01:01:51 | 51.87427 | 7.11980 | 128° | 2km/h | 21693m | 4.4m/s | -53.1°C | 1.3% | 45hPa | 2.5V | 18:12:15 | 01:41:14 | 00:00:00 | |
| DF8AY | 2026-09-04 01:01:48 | 51.87430 | 7.11979 | 170° | 7km/h | 21679m | 4.3m/s | -53°C | 1.2% | 45.1hPa | 2.6V | 18:12:15 | 01:41:11 | 00:00:00 | |
| BIOWL1-15 | 2026-09-04 01:01:45 | 51.87436 | 7.11971 | 114° | 15km/h | 21665m | 5m/s | -52.9°C | 1.2% | 45.2hPa | 2.5V | 18:12:15 | 01:41:08 | 00:00:00 | |
| GOEST3-10 | 2026-09-04 01:01:45 | 51.87436 | 7.11971 | 114° | 18km/h | 21665m | 4.9m/s | -52.8°C | 4.4% | 45.2hPa | 2.5V | 00:00:00 | 00:00:00 | 00:00:00 | |
| DL1XH-15 | 2026-09-04 01:01:44 | 51.87447 | 7.11930 | 104° | 16km/h | 21636m | 4.7m/s | -52.7°C | 4.3% | 45.4hPa | 2.5V | 08:30:00 | 01:41:02 | 00:00:00 | |
| HSKMA3-T | 2026-09-04 01:01:43 | 51.87439 | 7.11958 | 116° | 20km/h | 21655m | 5.5m/s | -52.8°C | 1.2% | 45.3hPa | 2.5V | 18:12:15 | 01:41:06 | 00:00:00 | |
| AA1-15 | 2026-09-04 01:01:41 | 51.87444 | 7.11944 | 117° | 20km/h | 21645m | 3.8m/s | -52.8°C | 1.2% | 45.4hPa | 2.6V | 18:12:15 | 01:41:04 | 00:00:00 | |
| DF8AY | 2026-09-04 01:01:38 | 51.87448 | 7.11925 | 106° | 13km/h | 21632m | 3.8m/s | -52.7°C | 1.2% | 45.5hPa | 2.5V | 18:12:15 | 01:41:01 | 00:00:00 | |
| BIOWL1-15 | 2026-09-04 01:01:35 | 51.87452 | 7.11914 | 146° | 9km/h | 21617m | 4.4m/s | -52.6°C | 1.2% | 45.6hPa | 2.6V | 18:12:15 | 01:40:58 | 00:00:00 | |
| HSKMA3-T | 2026-09-04 01:01:33 | 51.87455 | 7.11911 | 145° | 5km/h | 21607m | 5.3m/s | -52.6°C | 1.1% | 45.6hPa | 2.5V | 18:12:15 | 01:40:56 | 00:00:00 | |
| DF8AY | 2026-09-04 01:01:32 | 51.87471 | 7.11895 | 141° | 15km/h | 21580m | 5.3m/s | -52.8°C | 1.2% | 45.8hPa | 2.5V | 18:12:15 | 01:40:50 | 00:00:00 | |
| DL1XH-15 | 2026-09-04 01:01:32 | 51.87464 | 7.11902 | 151° | 16km/h | 21588m | 4.3m/s | -52.7°C | 4.3% | 45.8hPa | 2.6V | 08:30:00 | 01:40:52 | 00:00:00 | |
| AA1-15 | 2026-09-04 01:01:31 | 51.87458 | 7.11907 | 149° | 9km/h | 21598m | 4.6m/s | -52.6°C | 1.1% | 45.7hPa | 2.5V | 18:12:15 | 01:40:54 | 00:00:00 | |
| DL1XH-west | 2026-09-04 01:01:28 | 51.87468 | 7.11899 | 146° | 16km/h | 21584m | 3.4m/s | -52.7°C | 1.2% | 45.8hPa | 2.6V | 18:12:15 | 01:40:51 | 00:00:00 | |
| DO2JMG | 2026-09-04 01:01:25 | 51.87476 | 7.11886 | 122° | 13km/h | 21570m | 4.4m/s | -52.8°C | 1.2% | 45.9hPa | 2.5V | 18:12:15 | 01:40:48 | 00:00:00 | |
| BIOWL1-15 | 2026-09-04 01:01:25 | 51.87477 | 7.11882 | 124° | 13km/h | 21566m | 4.1m/s | -52.8°C | 1.1% | 45.9hPa | 2.5V | 18:12:15 | 01:40:47 | 00:00:00 | |
| HSKMA3-T | 2026-09-04 01:01:22 | 51.87482 | 7.11873 | 135° | 15km/h | 21555m | 4.6m/s | -52.8°C | 1.2% | 46hPa | 2.6V | 18:12:15 | 01:40:45 | 00:00:00 | |
| DL1XH-15 | 2026-09-04 01:01:22 | 51.87488 | 7.11862 | 124° | 9km/h | 21541m | 4.5m/s | -53°C | 4.3% | 46.1hPa | 2.5V | 08:30:00 | 01:40:42 | 00:00:00 | |
| AA1-15 | 2026-09-04 01:01:21 | 51.87484 | 7.11869 | 133° | 13km/h | 21551m | 4.1m/s | -52.9°C | 1.2% | 46hPa | 2.5V | 18:12:15 | 01:40:44 | 00:00:00 | |
| DL1XH-west | 2026-09-04 01:01:17 | 51.87491 | 7.11856 | 142° | 11km/h | 21531m | 5.8m/s | -53.1°C | 1.2% | 46.2hPa | 2.6V | 18:12:15 | 01:40:40 | 00:00:00 | |
| DF8AY | 2026-09-04 01:01:17 | 51.87494 | 7.11854 | 147° | 11km/h | 21526m | 4.8m/s | -53.2°C | 1.2% | 46.2hPa | 2.5V | 18:12:15 | 01:40:39 | 00:00:00 | |
| DO2JMG | 2026-09-04 01:01:14 | 51.87498 | 7.11849 | 142° | 9km/h | 21516m | 5.5m/s | -53.4°C | 1.2% | 46.3hPa | 2.5V | 18:12:15 | 01:40:37 | 00:00:00 | |
| HSKMA3-T | 2026-09-04 01:01:12 | 51.87501 | 7.11844 | 142° | 9km/h | 21508m | 3.9m/s | -53.5°C | 1.2% | 46.4hPa | 2.6V | 18:12:15 | 01:40:35 | 00:00:00 | |
| AA1-15 | 2026-09-04 01:01:11 | 51.87504 | 7.11842 | 147° | 13km/h | 21503m | 5.7m/s | -53.5°C | 1.2% | 46.4hPa | 2.6V | 18:12:15 | 01:40:34 | 00:00:00 | |
| AU51GT2 | 2026-09-04 01:01:10 | 51.87510 | 7.11835 | 143° | 15km/h | 21493m | 4.2m/s | -53.6°C | 1.4% | 46.5hPa | 2.5V | 00:00:00 | 00:00:00 | 00:00:00 | |
| EDDB2-12 | 2026-09-04 01:01:09 | 51.87510 | 7.11835 | 143° | 15km/h | 21493m | 4.2m/s | -53.6°C | 1.4% | 46.5hPa | 2.5V | 00:00:00 | 00:00:00 | 00:00:00 | |
| DM0DOS-11 | 2026-09-04 01:01:08 | 51.87515 | 7.11827 | 127° | 13km/h | 21484m | 5.5m/s | -53.6°C | 4.5% | 46.5hPa | 2.5V | 08:30:00 | 01:40:30 | 00:00:00 | |
| DL1XH-west | 2026-09-04 01:01:07 | 51.87515 | 7.11827 | 128° | 13km/h | 21484m | 5.5m/s | -53.6°C | 1.3% | 46.5hPa | 2.5V | 18:12:15 | 01:40:30 | 00:00:00 | |
| DF8AY | 2026-09-04 01:01:05 | 51.87518 | 7.11818 | 117° | 11km/h | 21475m | 3.9m/s | -53.7°C | 1.3% | 46.6hPa | 2.6V | 18:12:15 | 01:40:28 | 00:00:00 | |
| DO2JMG | 2026-09-04 01:01:04 | 51.87520 | 7.11814 | 124° | 13km/h | 21470m | 5.5m/s | -53.8°C | 1.3% | 46.6hPa | 2.6V | 18:12:15 | 01:40:27 | 00:00:00 | |
| HSKMA3-T | 2026-09-04 01:01:02 | 51.87525 | 7.11805 | 134° | 15km/h | 21460m | 4m/s | -53.8°C | 1.3% | 46.7hPa | 2.5V | 18:12:15 | 01:40:25 | 00:00:00 | |
| Es werden nur die letzten 3500 von 6110 Frames angezeigt. GPX/KML und Diagramme bleiben verfügbar. | |||||||||||||||